<?xml version='1.0' encoding='UTF-8'?><gpx version="1.1" creator="JPX - https://github.com/jenetics/jpx" xmlns="http://www.topografix.com/GPX/1/1"><trk><trkseg><trkpt lat="45.95727495819512" lon="12.311155801984222"><ele>105.0</ele><time>2026-04-27T03:06:33.999Z</time></trkpt><trkpt lat="45.95735278762912" lon="12.311055914823132"><ele>105.0</ele><time>2026-04-27T03:06:34.999Z</time></trkpt><trkpt lat="45.95743163905968" lon="12.31096007781759"><ele>105.0</ele><time>2026-04-27T03:06:35.999Z</time></trkpt><trkpt lat="45.95751430049729" lon="12.31086416115348"><ele>105.0</ele><time>2026-04-27T03:06:36.999Z</time></trkpt><trkpt lat="45.95759192662122" lon="12.310770172159497"><ele>105.0</ele><time>2026-04-27T03:06:37.999Z</time></trkpt><trkpt lat="45.95767521141323" lon="12.310676270210019"><ele>105.6</ele><time>2026-04-27T03:06:38.999Z</time></trkpt><trkpt lat="45.95775128620758" lon="12.310578010314671"><ele>106.2</ele><time>2026-04-27T03:06:39.999Z</time></trkpt><trkpt lat="45.9578313883365" lon="12.31047950462817"><ele>106.80000000000001</ele><time>2026-04-27T03:06:40.999Z</time></trkpt><trkpt lat="45.95791127965567" lon="12.310381300987649"><ele>107.4</ele><time>2026-04-27T03:06:41.999Z</time></trkpt><trkpt lat="45.95799051966051" lon="12.310283487056177"><ele>108.0</ele><time>2026-04-27T03:06:42.999Z</time></trkpt><trkpt lat="45.95807400430167" lon="12.31017993442581"><ele>108.0</ele><time>2026-04-27T03:06:43.999Z</time></trkpt><trkpt lat="45.95815443923489" lon="12.310078979039384"><ele>108.00000000000001</ele><time>2026-04-27T03:06:44.999Z</time></trkpt><trkpt lat="45.95823646283336" lon="12.309981769883523"><ele>108.00000000000001</ele><time>2026-04-27T03:06:45.999Z</time></trkpt><trkpt lat="45.9583182684976" lon="12.30987951186689"><ele>108.0</ele><time>2026-04-27T03:06:46.999Z</time></trkpt><trkpt lat="45.95840202493411" lon="12.309774521608928"><ele>108.0</ele><time>2026-04-27T03:06:47.999Z</time></trkpt><trkpt lat="45.958486360406916" lon="12.309674739732747"><ele>108.4</ele><time>2026-04-27T03:06:48.999Z</time></trkpt><trkpt lat="45.95856828835438" lon="12.309574249497945"><ele>108.80000000000001</ele><time>2026-04-27T03:06:49.999Z</time></trkpt><trkpt lat="45.95864873071973" lon="12.309472547990227"><ele>109.2</ele><time>2026-04-27T03:06:50.999Z</time></trkpt><trkpt lat="45.958722491172054" lon="12.309380853836847"><ele>109.6</ele><time>2026-04-27T03:06:51.999Z</time></trkpt><trkpt lat="45.9587914085939" lon="12.309300015672608"><ele>110.0</ele><time>2026-04-27T03:06:52.999Z</time></trkpt><trkpt lat="45.958843196650896" lon="12.309238501334555"><ele>109.99999999999999</ele><time>2026-04-27T03:06:53.999Z</time></trkpt><trkpt lat="45.95886897781834" lon="12.309154694391122"><ele>110.0</ele><time>2026-04-27T03:06:56.999Z</time></trkpt><trkpt lat="45.95883493985314" lon="12.309012693777431"><ele>110.0</ele><time>2026-04-27T03:06:59.999Z</time></trkpt><trkpt lat="45.95878702353103" lon="12.308950869122732"><ele>110.0</ele><time>2026-04-27T03:07:00.999Z</time></trkpt><trkpt lat="45.95873835330155" lon="12.308885662814832"><ele>110.0</ele><time>2026-04-27T03:07:01.999Z</time></trkpt><trkpt lat="45.958684105991836" lon="12.30881958051702"><ele>109.99999999999999</ele><time>2026-04-27T03:07:02.999Z</time></trkpt><trkpt lat="45.95862521791648" lon="12.308744054076733"><ele>110.0</ele><time>2026-04-27T03:07:03.999Z</time></trkpt><trkpt lat="45.95856085644635" lon="12.3086583145918"><ele>109.66666666666666</ele><time>2026-04-27T03:07:04.999Z</time></trkpt><trkpt lat="45.9584951261648" lon="12.30857208580207"><ele>109.33333333333333</ele><time>2026-04-27T03:07:05.999Z</time></trkpt><trkpt lat="45.95842834995764" lon="12.30848121149845"><ele>109.0</ele><time>2026-04-27T03:07:06.999Z</time></trkpt><trkpt lat="45.95836149415694" lon="12.308394316542229"><ele>108.66666666666666</ele><time>2026-04-27T03:07:07.999Z</time></trkpt><trkpt lat="45.95830038353094" lon="12.308311877604007"><ele>108.33333333333333</ele><time>2026-04-27T03:07:08.999Z</time></trkpt><trkpt lat="45.95824392708476" lon="12.308237238465534"><ele>108.0</ele><time>2026-04-27T03:07:09.999Z</time></trkpt><trkpt lat="45.958188107724524" lon="12.308165334962352"><ele>108.0</ele><time>2026-04-27T03:07:10.999Z</time></trkpt><trkpt lat="45.958130923733776" lon="12.30808759588763"><ele>108.0</ele><time>2026-04-27T03:07:11.999Z</time></trkpt><trkpt lat="45.95807063998344" lon="12.308002239434924"><ele>108.0</ele><time>2026-04-27T03:07:12.999Z</time></trkpt><trkpt lat="45.9580052391285" lon="12.307913710962781"><ele>108.0</ele><time>2026-04-27T03:07:13.999Z</time></trkpt><trkpt lat="45.95794180003849" lon="12.307823303041813"><ele>108.0</ele><time>2026-04-27T03:07:14.999Z</time></trkpt><trkpt lat="45.95787114656948" lon="12.30773092135856"><ele>108.0</ele><time>2026-04-27T03:07:15.999Z</time></trkpt><trkpt lat="45.95779998093854" lon="12.30763676232451"><ele>108.0</ele><time>2026-04-27T03:07:16.999Z</time></trkpt><trkpt lat="45.957729237157444" lon="12.307537037760662"><ele>108.00000000000001</ele><time>2026-04-27T03:07:17.999Z</time></trkpt><trkpt lat="45.95765861760507" lon="12.307431061257962"><ele>108.00000000000001</ele><time>2026-04-27T03:07:18.999Z</time></trkpt><trkpt lat="45.95758365673284" lon="12.307317554458093"><ele>108.0</ele><time>2026-04-27T03:07:19.999Z</time></trkpt><trkpt lat="45.95751151692035" lon="12.307201782483169"><ele>108.0</ele><time>2026-04-27T03:07:20.999Z</time></trkpt><trkpt lat="45.95743736955009" lon="12.307079031731025"><ele>108.0</ele><time>2026-04-27T03:07:21.999Z</time></trkpt><trkpt lat="45.957361467892945" lon="12.306954307457362"><ele>108.0</ele><time>2026-04-27T03:07:22.999Z</time></trkpt><trkpt lat="45.95728811665735" lon="12.306823846367111"><ele>108.0</ele><time>2026-04-27T03:07:23.999Z</time></trkpt><trkpt lat="45.957212755637734" lon="12.306692089910305"><ele>108.0</ele><time>2026-04-27T03:07:24.999Z</time></trkpt><trkpt lat="45.95714131433518" lon="12.30655442441418"><ele>108.0</ele><time>2026-04-27T03:07:25.999Z</time></trkpt><trkpt lat="45.95707330174088" lon="12.306414548182476"><ele>108.0</ele><time>2026-04-27T03:07:26.999Z</time></trkpt><trkpt lat="45.95700335566699" lon="12.306271352515562"><ele>108.0</ele><time>2026-04-27T03:07:27.999Z</time></trkpt><trkpt lat="45.956935209207955" lon="12.30612270765266"><ele>108.0</ele><time>2026-04-27T03:07:28.999Z</time></trkpt><trkpt lat="45.95686759254129" lon="12.305978734981322"><ele>108.0</ele><time>2026-04-27T03:07:29.999Z</time></trkpt><trkpt lat="45.95679694986977" lon="12.305830140366302"><ele>108.0</ele><time>2026-04-27T03:07:30.999Z</time></trkpt><trkpt lat="45.95672845024529" lon="12.305678384392696"><ele>108.0</ele><time>2026-04-27T03:07:31.999Z</time></trkpt><trkpt lat="45.95665964815389" lon="12.305526008319159"><ele>108.0</ele><time>2026-04-27T03:07:32.999Z</time></trkpt><trkpt lat="45.95659053978079" lon="12.305372072932034"><ele>108.0</ele><time>2026-04-27T03:07:33.999Z</time></trkpt><trkpt lat="45.95651966235735" lon="12.305214327426024"><ele>108.0</ele><time>2026-04-27T03:07:34.999Z</time></trkpt><trkpt lat="45.956458190636226" lon="12.305052005513994"><ele>108.0</ele><time>2026-04-27T03:07:35.999Z</time></trkpt><trkpt lat="45.95640320775177" lon="12.304880665947554"><ele>108.0</ele><time>2026-04-27T03:07:36.999Z</time></trkpt><trkpt lat="45.95634825986162" lon="12.304708232579822"><ele>107.25</ele><time>2026-04-27T03:07:37.999Z</time></trkpt><trkpt lat="45.956296999327876" lon="12.304529690928852"><ele>106.5</ele><time>2026-04-27T03:07:38.999Z</time></trkpt><trkpt lat="45.95624463923517" lon="12.304350787115833"><ele>105.75</ele><time>2026-04-27T03:07:39.999Z</time></trkpt><trkpt lat="45.956191394839784" lon="12.304167571471636"><ele>105.0</ele><time>2026-04-27T03:07:40.999Z</time></trkpt><trkpt lat="45.95614083967753" lon="12.303981750327043"><ele>105.0</ele><time>2026-04-27T03:07:41.999Z</time></trkpt><trkpt lat="45.956090820407724" lon="12.303792513037974"><ele>105.0</ele><time>2026-04-27T03:07:42.999Z</time></trkpt><trkpt lat="45.95604243063313" lon="12.303601475347431"><ele>105.0</ele><time>2026-04-27T03:07:43.999Z</time></trkpt><trkpt lat="45.955991861222856" lon="12.303408840316147"><ele>105.0</ele><time>2026-04-27T03:07:44.998Z</time></trkpt><trkpt lat="45.95593950076837" lon="12.303213122149797"><ele>105.75</ele><time>2026-04-27T03:07:45.998Z</time></trkpt><trkpt lat="45.95588858855492" lon="12.303021893914865"><ele>106.5</ele><time>2026-04-27T03:07:46.998Z</time></trkpt><trkpt lat="45.95583523544318" lon="12.302821119673975"><ele>107.25</ele><time>2026-04-27T03:07:47.998Z</time></trkpt><trkpt lat="45.95578029996379" lon="12.30262549488832"><ele>108.0</ele><time>2026-04-27T03:07:48.998Z</time></trkpt><trkpt lat="45.95572707702176" lon="12.302427801203764"><ele>107.75</ele><time>2026-04-27T03:07:49.998Z</time></trkpt><trkpt lat="45.95567100418955" lon="12.30223045890924"><ele>107.5</ele><time>2026-04-27T03:07:50.998Z</time></trkpt><trkpt lat="45.955615992391" lon="12.302030529607697"><ele>107.25</ele><time>2026-04-27T03:07:51.999Z</time></trkpt><trkpt lat="45.95556016582833" lon="12.301830233855926"><ele>107.0</ele><time>2026-04-27T03:07:52.999Z</time></trkpt><trkpt lat="45.955504392484286" lon="12.3016283540847"><ele>107.0</ele><time>2026-04-27T03:07:53.999Z</time></trkpt><trkpt lat="45.95544986332746" lon="12.301426793371794"><ele>107.0</ele><time>2026-04-27T03:07:54.999Z</time></trkpt><trkpt lat="45.95539469295927" lon="12.301224727688163"><ele>107.0</ele><time>2026-04-27T03:07:55.999Z</time></trkpt><trkpt lat="45.95533972001999" lon="12.301020388981303"><ele>107.0</ele><time>2026-04-27T03:07:57.001Z</time></trkpt><trkpt lat="45.95528346484158" lon="12.300814998192703"><ele>107.0</ele><time>2026-04-27T03:07:58.001Z</time></trkpt><trkpt lat="45.95522711349115" lon="12.300611200354336"><ele>107.0</ele><time>2026-04-27T03:07:59.001Z</time></trkpt><trkpt lat="45.955171326913586" lon="12.300405038551277"><ele>107.0</ele><time>2026-04-27T03:08:00.001Z</time></trkpt><trkpt lat="45.95512350741353" lon="12.300194221995389"><ele>107.0</ele><time>2026-04-27T03:08:01.001Z</time></trkpt><trkpt lat="45.955087110554935" lon="12.299975847068826"><ele>107.0</ele><time>2026-04-27T03:08:02.001Z</time></trkpt><trkpt lat="45.95506456754313" lon="12.299756775454098"><ele>106.66666666666666</ele><time>2026-04-27T03:08:03.001Z</time></trkpt><trkpt lat="45.95504821096462" lon="12.299534633141041"><ele>106.33333333333334</ele><time>2026-04-27T03:08:04.001Z</time></trkpt><trkpt lat="45.95503804824011" lon="12.299309612843473"><ele>106.0</ele><time>2026-04-27T03:08:05.001Z</time></trkpt><trkpt lat="45.95502621828288" lon="12.299085059402913"><ele>106.0</ele><time>2026-04-27T03:08:06.001Z</time></trkpt><trkpt lat="45.95501615651191" lon="12.298859318865752"><ele>106.0</ele><time>2026-04-27T03:08:07Z</time></trkpt><trkpt lat="45.95499789653092" lon="12.298633951589064"><ele>106.0</ele><time>2026-04-27T03:08:08Z</time></trkpt><trkpt lat="45.95496648043423" lon="12.298411432170074"><ele>106.0</ele><time>2026-04-27T03:08:09Z</time></trkpt><trkpt lat="45.954918866682775" lon="12.298195285113469"><ele>106.0</ele><time>2026-04-27T03:08:10Z</time></trkpt><trkpt lat="45.95485375385014" lon="12.297985001325351"><ele>106.0</ele><time>2026-04-27T03:08:11Z</time></trkpt><trkpt lat="45.954786841567106" lon="12.297778648692006"><ele>107.0</ele><time>2026-04-27T03:08:12Z</time></trkpt><trkpt lat="45.954718888450934" lon="12.297573985950706"><ele>108.0</ele><time>2026-04-27T03:08:13Z</time></trkpt><trkpt lat="45.95464669152291" lon="12.297370848472832"><ele>109.0</ele><time>2026-04-27T03:08:14Z</time></trkpt><trkpt lat="45.954580864812975" lon="12.297162853864616"><ele>110.0</ele><time>2026-04-27T03:08:15Z</time></trkpt><trkpt lat="45.95451396997619" lon="12.296959815429144"><ele>111.0</ele><time>2026-04-27T03:08:16Z</time></trkpt><trkpt lat="45.95444635849676" lon="12.296757657690938"><ele>112.0</ele><time>2026-04-27T03:08:17Z</time></trkpt><trkpt lat="45.95437901739031" lon="12.29655966650881"><ele>111.75</ele><time>2026-04-27T03:08:18Z</time></trkpt><trkpt lat="45.95431362697772" lon="12.296370718379036"><ele>111.5</ele><time>2026-04-27T03:08:19Z</time></trkpt><trkpt lat="45.95425039036829" lon="12.296186836519466"><ele>111.25</ele><time>2026-04-27T03:08:20Z</time></trkpt><trkpt lat="45.95419076599111" lon="12.296014723304387"><ele>111.0</ele><time>2026-04-27T03:08:21Z</time></trkpt><trkpt lat="45.954137138494744" lon="12.295851204980494"><ele>110.75</ele><time>2026-04-27T03:08:22Z</time></trkpt><trkpt lat="45.95410383187842" lon="12.295685617915355"><ele>110.5</ele><time>2026-04-27T03:08:23Z</time></trkpt><trkpt lat="45.95409910925307" lon="12.295516126069966"><ele>110.25</ele><time>2026-04-27T03:08:24Z</time></trkpt><trkpt lat="45.95410812251385" lon="12.295346081298165"><ele>110.0</ele><time>2026-04-27T03:08:25Z</time></trkpt><trkpt lat="45.954127558114095" lon="12.295175984581096"><ele>111.25</ele><time>2026-04-27T03:08:26Z</time></trkpt><trkpt lat="45.95414819007119" lon="12.295003830805845"><ele>112.5</ele><time>2026-04-27T03:08:27Z</time></trkpt><trkpt lat="45.95417855252487" lon="12.294834515337012"><ele>113.75</ele><time>2026-04-27T03:08:28Z</time></trkpt><trkpt lat="45.954228576650905" lon="12.294670342083585"><ele>115.0</ele><time>2026-04-27T03:08:29Z</time></trkpt><trkpt lat="45.95430001920283" lon="12.294523461567922"><ele>116.0</ele><time>2026-04-27T03:08:30Z</time></trkpt><trkpt lat="45.954391707159594" lon="12.294395838125961"><ele>117.0</ele><time>2026-04-27T03:08:31Z</time></trkpt><trkpt lat="45.95449994546219" lon="12.294292660379428"><ele>118.0</ele><time>2026-04-27T03:08:32Z</time></trkpt><trkpt lat="45.95461764007463" lon="12.294215717371111"><ele>119.0</ele><time>2026-04-27T03:08:33Z</time></trkpt><trkpt lat="45.95474556984389" lon="12.294156470430156"><ele>119.0</ele><time>2026-04-27T03:08:34Z</time></trkpt><trkpt lat="45.95487356298443" lon="12.294105075438994"><ele>119.0</ele><time>2026-04-27T03:08:35Z</time></trkpt><trkpt lat="45.95500424926107" lon="12.294052299900876"><ele>119.0</ele><time>2026-04-27T03:08:36Z</time></trkpt><trkpt lat="45.955136682603" lon="12.29400901290942"><ele>119.0</ele><time>2026-04-27T03:08:37Z</time></trkpt><trkpt lat="45.95527275299309" lon="12.293973413277714"><ele>118.25</ele><time>2026-04-27T03:08:38Z</time></trkpt><trkpt lat="45.95541093096425" lon="12.2939518460249"><ele>117.5</ele><time>2026-04-27T03:08:39Z</time></trkpt><trkpt lat="45.95555149183953" lon="12.293942698085276"><ele>116.75</ele><time>2026-04-27T03:08:40Z</time></trkpt><trkpt lat="45.95569471856763" lon="12.29394145913708"><ele>116.0</ele><time>2026-04-27T03:08:41Z</time></trkpt><trkpt lat="45.95583634802645" lon="12.293938173664218"><ele>116.25</ele><time>2026-04-27T03:08:42Z</time></trkpt><trkpt lat="45.95598337449685" lon="12.293935377556748"><ele>116.5</ele><time>2026-04-27T03:08:43Z</time></trkpt><trkpt lat="45.956133547840814" lon="12.29392203605213"><ele>116.75</ele><time>2026-04-27T03:08:44Z</time></trkpt><trkpt lat="45.95628285545336" lon="12.29389400859669"><ele>117.0</ele><time>2026-04-27T03:08:45Z</time></trkpt><trkpt lat="45.95643179021567" lon="12.293857605879055"><ele>118.66666666666666</ele><time>2026-04-27T03:08:46Z</time></trkpt><trkpt lat="45.95658189144163" lon="12.293815492883551"><ele>120.33333333333333</ele><time>2026-04-27T03:08:47Z</time></trkpt><trkpt lat="45.95673234043397" lon="12.293767775177834"><ele>122.0</ele><time>2026-04-27T03:08:48Z</time></trkpt><trkpt lat="45.956884357541604" lon="12.29372280051268"><ele>122.0</ele><time>2026-04-27T03:08:49Z</time></trkpt><trkpt lat="45.957038891980886" lon="12.293683552313134"><ele>122.0</ele><time>2026-04-27T03:08:50Z</time></trkpt><trkpt lat="45.95719309118766" lon="12.293641099796494"><ele>122.0</ele><time>2026-04-27T03:08:51Z</time></trkpt><trkpt lat="45.95734762303034" lon="12.293595570674656"><ele>122.0</ele><time>2026-04-27T03:08:52Z</time></trkpt><trkpt lat="45.957501593990365" lon="12.293547347139912"><ele>122.0</ele><time>2026-04-27T03:08:53Z</time></trkpt><trkpt lat="45.95765150447336" lon="12.293489418795989"><ele>122.0</ele><time>2026-04-27T03:08:54Z</time></trkpt><trkpt lat="45.95779341252747" lon="12.29340649795271"><ele>121.0</ele><time>2026-04-27T03:08:55Z</time></trkpt><trkpt lat="45.957932030447964" lon="12.293306250654862"><ele>120.0</ele><time>2026-04-27T03:08:56Z</time></trkpt><trkpt lat="45.95806861147072" lon="12.293206367272273"><ele>119.0</ele><time>2026-04-27T03:08:57Z</time></trkpt><trkpt lat="45.95820817133653" lon="12.293123149592443"><ele>120.5</ele><time>2026-04-27T03:08:58Z</time></trkpt><trkpt lat="45.958351706396634" lon="12.293051971145971"><ele>122.0</ele><time>2026-04-27T03:08:59Z</time></trkpt><trkpt lat="45.958491455652364" lon="12.292982888539765"><ele>123.5</ele><time>2026-04-27T03:09:00Z</time></trkpt><trkpt lat="45.95863019960568" lon="12.292908088855004"><ele>125.0</ele><time>2026-04-27T03:09:01Z</time></trkpt><trkpt lat="45.95876759202009" lon="12.292831227555826"><ele>125.0</ele><time>2026-04-27T03:09:02Z</time></trkpt><trkpt lat="45.958905174224405" lon="12.292753262372301"><ele>125.0</ele><time>2026-04-27T03:09:03Z</time></trkpt><trkpt lat="45.95904049350808" lon="12.2926758004833"><ele>125.0</ele><time>2026-04-27T03:09:04Z</time></trkpt><trkpt lat="45.959176341406234" lon="12.292600649427868"><ele>125.0</ele><time>2026-04-27T03:09:05Z</time></trkpt><trkpt lat="45.95931051130882" lon="12.292529627667783"><ele>123.75</ele><time>2026-04-27T03:09:06Z</time></trkpt><trkpt lat="45.95944504447593" lon="12.292451487300218"><ele>122.5</ele><time>2026-04-27T03:09:07Z</time></trkpt><trkpt lat="45.95958071647409" lon="12.292373658541104"><ele>121.25</ele><time>2026-04-27T03:09:08Z</time></trkpt><trkpt lat="45.95971617406183" lon="12.292300831552733"><ele>120.0</ele><time>2026-04-27T03:09:09Z</time></trkpt><trkpt lat="45.95985269830691" lon="12.292226212619584"><ele>123.5</ele><time>2026-04-27T03:09:10Z</time></trkpt><trkpt lat="45.959989368482134" lon="12.292153314486692"><ele>127.0</ele><time>2026-04-27T03:09:11Z</time></trkpt><trkpt lat="45.96012558056045" lon="12.292078961492946"><ele>130.5</ele><time>2026-04-27T03:09:12Z</time></trkpt><trkpt lat="45.96026194198611" lon="12.29200442809304"><ele>134.0</ele><time>2026-04-27T03:09:13Z</time></trkpt><trkpt lat="45.96039771742659" lon="12.291933596101494"><ele>134.0</ele><time>2026-04-27T03:09:14Z</time></trkpt><trkpt lat="45.96053427933435" lon="12.291874098443003"><ele>134.0</ele><time>2026-04-27T03:09:15Z</time></trkpt><trkpt lat="45.960674257415704" lon="12.291820799252472"><ele>134.0</ele><time>2026-04-27T03:09:16Z</time></trkpt><trkpt lat="45.96081375930185" lon="12.29177525720493"><ele>134.0</ele><time>2026-04-27T03:09:17Z</time></trkpt><trkpt lat="45.96095327653337" lon="12.291733721438273"><ele>133.5</ele><time>2026-04-27T03:09:18Z</time></trkpt><trkpt lat="45.96109293079993" lon="12.291692360379917"><ele>133.0</ele><time>2026-04-27T03:09:19Z</time></trkpt><trkpt lat="45.96123193680737" lon="12.291646522700038"><ele>132.5</ele><time>2026-04-27T03:09:20Z</time></trkpt><trkpt lat="45.96136817358647" lon="12.291596665695183"><ele>132.0</ele><time>2026-04-27T03:09:21Z</time></trkpt><trkpt lat="45.96150348877898" lon="12.291539298084853"><ele>132.0</ele><time>2026-04-27T03:09:22Z</time></trkpt><trkpt lat="45.96163417471062" lon="12.291468174675021"><ele>132.0</ele><time>2026-04-27T03:09:23Z</time></trkpt><trkpt lat="45.961759953780614" lon="12.291386836481964"><ele>132.0</ele><time>2026-04-27T03:09:24Z</time></trkpt><trkpt lat="45.961879975178014" lon="12.291289039115727"><ele>132.0</ele><time>2026-04-27T03:09:25Z</time></trkpt><trkpt lat="45.961992127479206" lon="12.291189572616258"><ele>132.6</ele><time>2026-04-27T03:09:26Z</time></trkpt><trkpt lat="45.96209482245651" lon="12.291086304479519"><ele>133.2</ele><time>2026-04-27T03:09:27Z</time></trkpt><trkpt lat="45.96218793377623" lon="12.290994884885777"><ele>133.8</ele><time>2026-04-27T03:09:28Z</time></trkpt><trkpt lat="45.96226997995158" lon="12.2909142117652"><ele>134.4</ele><time>2026-04-27T03:09:29Z</time></trkpt><trkpt lat="45.96233723978133" lon="12.290845770067795"><ele>135.0</ele><time>2026-04-27T03:09:30Z</time></trkpt><trkpt lat="45.962394908468575" lon="12.290793814720356"><ele>135.0</ele><time>2026-04-27T03:09:31Z</time></trkpt><trkpt lat="45.962483192344" lon="12.290722761034898"><ele>135.0</ele><time>2026-04-27T03:09:33Z</time></trkpt><trkpt lat="45.9625587637595" lon="12.290681018873093"><ele>135.0</ele><time>2026-04-27T03:09:35Z</time></trkpt><trkpt lat="45.962671231483284" lon="12.29065275907409"><ele>135.0</ele><time>2026-04-27T03:09:37Z</time></trkpt><trkpt lat="45.96273834631373" lon="12.290643369838921"><ele>135.0</ele><time>2026-04-27T03:09:38Z</time></trkpt><trkpt lat="45.96281229081221" lon="12.29063595076467"><ele>135.0</ele><time>2026-04-27T03:09:39Z</time></trkpt><trkpt lat="45.96289253123196" lon="12.290628394748948"><ele>134.8</ele><time>2026-04-27T03:09:40Z</time></trkpt><trkpt lat="45.962978743852354" lon="12.290618144794344"><ele>134.6</ele><time>2026-04-27T03:09:41Z</time></trkpt><trkpt lat="45.96307021358932" lon="12.290606834524601"><ele>134.4</ele><time>2026-04-27T03:09:42Z</time></trkpt><trkpt lat="45.96316619681147" lon="12.290596532666944"><ele>134.2</ele><time>2026-04-27T03:09:43Z</time></trkpt><trkpt lat="45.963264878891835" lon="12.290584355373522"><ele>134.0</ele><time>2026-04-27T03:09:44Z</time></trkpt><trkpt lat="45.96336938207866" lon="12.290569938495066"><ele>134.75</ele><time>2026-04-27T03:09:45Z</time></trkpt><trkpt lat="45.96347700691254" lon="12.29054699948243"><ele>135.5</ele><time>2026-04-27T03:09:46Z</time></trkpt><trkpt lat="45.96358652614179" lon="12.290513783306016"><ele>136.25</ele><time>2026-04-27T03:09:47Z</time></trkpt><trkpt lat="45.96369701183647" lon="12.290465251965449"><ele>137.0</ele><time>2026-04-27T03:09:48Z</time></trkpt><trkpt lat="45.963809912338206" lon="12.290407712219567"><ele>137.0</ele><time>2026-04-27T03:09:48.999Z</time></trkpt><trkpt lat="45.96392250985737" lon="12.29033983402908"><ele>137.0</ele><time>2026-04-27T03:09:49.999Z</time></trkpt><trkpt lat="45.96403321173842" lon="12.290263384858223"><ele>137.0</ele><time>2026-04-27T03:09:50.999Z</time></trkpt><trkpt lat="45.96414708367548" lon="12.2901767465997"><ele>137.0</ele><time>2026-04-27T03:09:51.999Z</time></trkpt><trkpt lat="45.964258453882756" lon="12.290086771814131"><ele>136.0</ele><time>2026-04-27T03:09:52.999Z</time></trkpt><trkpt lat="45.964368930869185" lon="12.289996002318388"><ele>135.0</ele><time>2026-04-27T03:09:53.999Z</time></trkpt><trkpt lat="45.96447996422446" lon="12.289902866878768"><ele>134.0</ele><time>2026-04-27T03:09:54.999Z</time></trkpt><trkpt lat="45.964589384823384" lon="12.289809429914204"><ele>133.0</ele><time>2026-04-27T03:09:55.999Z</time></trkpt><trkpt lat="45.96469352488027" lon="12.289721586671392"><ele>133.0</ele><time>2026-04-27T03:09:56.999Z</time></trkpt><trkpt lat="45.96479900047748" lon="12.289661624714407"><ele>133.0</ele><time>2026-04-27T03:09:57.999Z</time></trkpt><trkpt lat="45.96490343128238" lon="12.289623096580478"><ele>133.0</ele><time>2026-04-27T03:09:58.999Z</time></trkpt><trkpt lat="45.96500214397662" lon="12.289564337146963"><ele>133.0</ele><time>2026-04-27T03:09:59.999Z</time></trkpt><trkpt lat="45.9650839457624" lon="12.289473742254549"><ele>133.0</ele><time>2026-04-27T03:10:00.999Z</time></trkpt><trkpt lat="45.965160020235885" lon="12.289375442801182"><ele>132.75</ele><time>2026-04-27T03:10:01.999Z</time></trkpt><trkpt lat="45.965227750940905" lon="12.289264335239665"><ele>132.5</ele><time>2026-04-27T03:10:03.001Z</time></trkpt><trkpt lat="45.965341834188315" lon="12.289221518945997"><ele>132.25</ele><time>2026-04-27T03:10:04.001Z</time></trkpt><trkpt lat="45.965445507365274" lon="12.289152357498155"><ele>132.0</ele><time>2026-04-27T03:10:05Z</time></trkpt><trkpt lat="45.96555075636812" lon="12.289079513738564"><ele>132.0</ele><time>2026-04-27T03:10:06Z</time></trkpt><trkpt lat="45.965657670797825" lon="12.289002159313403"><ele>132.0</ele><time>2026-04-27T03:10:07.001Z</time></trkpt><trkpt lat="45.96576433026605" lon="12.288920765410078"><ele>132.0</ele><time>2026-04-27T03:10:08Z</time></trkpt><trkpt lat="45.965872521338504" lon="12.288838698949135"><ele>132.0</ele><time>2026-04-27T03:10:09Z</time></trkpt><trkpt lat="45.96598330517532" lon="12.288759477191263"><ele>132.25</ele><time>2026-04-27T03:10:10.001Z</time></trkpt><trkpt lat="45.96609301972421" lon="12.288676982156012"><ele>132.5</ele><time>2026-04-27T03:10:11Z</time></trkpt><trkpt lat="45.9662023665943" lon="12.288598357167318"><ele>132.75</ele><time>2026-04-27T03:10:12Z</time></trkpt><trkpt lat="45.96631209098165" lon="12.28853128614753"><ele>133.0</ele><time>2026-04-27T03:10:13Z</time></trkpt><trkpt lat="45.96641972604573" lon="12.288490495737195"><ele>133.0</ele><time>2026-04-27T03:10:14Z</time></trkpt><trkpt lat="45.9665182190131" lon="12.288472116372674"><ele>133.0</ele><time>2026-04-27T03:10:15Z</time></trkpt><trkpt lat="45.96660500769315" lon="12.288465913651917"><ele>133.0</ele><time>2026-04-27T03:10:16Z</time></trkpt><trkpt lat="45.966681551716285" lon="12.288438872205395"><ele>133.0</ele><time>2026-04-27T03:10:17Z</time></trkpt><trkpt lat="45.96673384118613" lon="12.28837064482342"><ele>133.0</ele><time>2026-04-27T03:10:18Z</time></trkpt><trkpt lat="45.966759347649514" lon="12.288281405290476"><ele>133.0</ele><time>2026-04-27T03:10:19Z</time></trkpt><trkpt lat="45.96674057972316" lon="12.2881842254722"><ele>133.0</ele><time>2026-04-27T03:10:20Z</time></trkpt><trkpt lat="45.966691012308665" lon="12.288103580497411"><ele>133.0</ele><time>2026-04-27T03:10:21Z</time></trkpt><trkpt lat="45.96661610731437" lon="12.288069712835888"><ele>133.0</ele><time>2026-04-27T03:10:22Z</time></trkpt><trkpt lat="45.966557423093136" lon="12.287988444182677"><ele>133.0</ele><time>2026-04-27T03:10:23Z</time></trkpt><trkpt lat="45.966490551256435" lon="12.287915752355415"><ele>133.0</ele><time>2026-04-27T03:10:24Z</time></trkpt><trkpt lat="45.96642080251734" lon="12.287838529102713"><ele>133.0</ele><time>2026-04-27T03:10:25Z</time></trkpt><trkpt lat="45.966348209394646" lon="12.287752545817884"><ele>133.4</ele><time>2026-04-27T03:10:26Z</time></trkpt><trkpt lat="45.966274689856235" lon="12.287660387593023"><ele>133.8</ele><time>2026-04-27T03:10:27Z</time></trkpt><trkpt lat="45.96619734372297" lon="12.287563812041741"><ele>134.2</ele><time>2026-04-27T03:10:28Z</time></trkpt><trkpt lat="45.96612022573829" lon="12.2874584241247"><ele>134.6</ele><time>2026-04-27T03:10:29Z</time></trkpt><trkpt lat="45.96604136849304" lon="12.287347385947415"><ele>135.0</ele><time>2026-04-27T03:10:30Z</time></trkpt><trkpt lat="45.96596057335963" lon="12.287233604354963"><ele>135.5</ele><time>2026-04-27T03:10:31Z</time></trkpt><trkpt lat="45.96587837762957" lon="12.287118137771897"><ele>136.0</ele><time>2026-04-27T03:10:32Z</time></trkpt><trkpt lat="45.96579383501478" lon="12.286997955989928"><ele>136.5</ele><time>2026-04-27T03:10:33Z</time></trkpt><trkpt lat="45.96570828481138" lon="12.286876281079119"><ele>137.0</ele><time>2026-04-27T03:10:34Z</time></trkpt><trkpt lat="45.96562017939872" lon="12.286751646092933"><ele>137.0</ele><time>2026-04-27T03:10:35Z</time></trkpt><trkpt lat="45.96553089687991" lon="12.286624654682207"><ele>137.0</ele><time>2026-04-27T03:10:36Z</time></trkpt><trkpt lat="45.96544079412496" lon="12.28649636567559"><ele>137.0</ele><time>2026-04-27T03:10:37Z</time></trkpt><trkpt lat="45.96535059754799" lon="12.286365737995402"><ele>137.0</ele><time>2026-04-27T03:10:38Z</time></trkpt><trkpt lat="45.96525795199333" lon="12.286232109082192"><ele>137.5</ele><time>2026-04-27T03:10:39Z</time></trkpt><trkpt lat="45.96516328178778" lon="12.286094927406065"><ele>138.0</ele><time>2026-04-27T03:10:40Z</time></trkpt><trkpt lat="45.96506785716728" lon="12.285956836468216"><ele>138.5</ele><time>2026-04-27T03:10:41Z</time></trkpt><trkpt lat="45.964970504268" lon="12.285819906844065"><ele>139.0</ele><time>2026-04-27T03:10:42Z</time></trkpt><trkpt lat="45.9648735405182" lon="12.28568374867037"><ele>141.0</ele><time>2026-04-27T03:10:43Z</time></trkpt><trkpt lat="45.96477393801336" lon="12.285548991112696"><ele>143.0</ele><time>2026-04-27T03:10:44Z</time></trkpt><trkpt lat="45.96466744443775" lon="12.285414354358563"><ele>145.0</ele><time>2026-04-27T03:10:45Z</time></trkpt><trkpt lat="45.96455690356793" lon="12.285293031519307"><ele>147.0</ele><time>2026-04-27T03:10:46Z</time></trkpt><trkpt lat="45.96443608099653" lon="12.285193537077234"><ele>147.0</ele><time>2026-04-27T03:10:47Z</time></trkpt><trkpt lat="45.96430041208269" lon="12.285117218048654"><ele>147.0</ele><time>2026-04-27T03:10:48Z</time></trkpt><trkpt lat="45.964159108396714" lon="12.285061635235769"><ele>147.0</ele><time>2026-04-27T03:10:49Z</time></trkpt><trkpt lat="45.96401231822275" lon="12.285034902100707"><ele>147.0</ele><time>2026-04-27T03:10:50Z</time></trkpt><trkpt lat="45.963863091334126" lon="12.285034563739632"><ele>145.0</ele><time>2026-04-27T03:10:51Z</time></trkpt><trkpt lat="45.96371133834452" lon="12.285049481916557"><ele>143.0</ele><time>2026-04-27T03:10:52Z</time></trkpt><trkpt lat="45.96355763959865" lon="12.285059785009707"><ele>141.0</ele><time>2026-04-27T03:10:53Z</time></trkpt><trkpt lat="45.96340145599471" lon="12.285072844458952"><ele>141.33333333333334</ele><time>2026-04-27T03:10:54Z</time></trkpt><trkpt lat="45.96324350464111" lon="12.285084881680998"><ele>141.66666666666669</ele><time>2026-04-27T03:10:55Z</time></trkpt><trkpt lat="45.96308226374981" lon="12.285094683218992"><ele>142.0</ele><time>2026-04-27T03:10:56Z</time></trkpt><trkpt lat="45.96292157966619" lon="12.285093513010747"><ele>142.0</ele><time>2026-04-27T03:10:57Z</time></trkpt><trkpt lat="45.962763117207814" lon="12.285062057978603"><ele>142.0</ele><time>2026-04-27T03:10:58Z</time></trkpt><trkpt lat="45.96260381129531" lon="12.285006384334862"><ele>142.0</ele><time>2026-04-27T03:10:59Z</time></trkpt><trkpt lat="45.96245096402543" lon="12.284938442429997"><ele>142.0</ele><time>2026-04-27T03:11:00Z</time></trkpt><trkpt lat="45.96229958365539" lon="12.284863825057148"><ele>142.0</ele><time>2026-04-27T03:11:01Z</time></trkpt><trkpt lat="45.962148018936844" lon="12.284784928941882"><ele>142.0</ele><time>2026-04-27T03:11:02Z</time></trkpt><trkpt lat="45.96199223892063" lon="12.284709294223182"><ele>142.0</ele><time>2026-04-27T03:11:03Z</time></trkpt><trkpt lat="45.96183687173713" lon="12.284631868022197"><ele>142.0</ele><time>2026-04-27T03:11:04Z</time></trkpt><trkpt lat="45.96167994145348" lon="12.284548506182642"><ele>142.0</ele><time>2026-04-27T03:11:05Z</time></trkpt><trkpt lat="45.96152297464675" lon="12.284464789200719"><ele>141.33333333333334</ele><time>2026-04-27T03:11:06Z</time></trkpt><trkpt lat="45.96136279107522" lon="12.284381607592787"><ele>140.66666666666666</ele><time>2026-04-27T03:11:07Z</time></trkpt><trkpt lat="45.961200548355194" lon="12.284299379032158"><ele>140.0</ele><time>2026-04-27T03:11:08Z</time></trkpt><trkpt lat="45.96103719670672" lon="12.284217877129848"><ele>140.0</ele><time>2026-04-27T03:11:09Z</time></trkpt><trkpt lat="45.9608720372089" lon="12.284134901199796"><ele>140.0</ele><time>2026-04-27T03:11:10Z</time></trkpt><trkpt lat="45.96070551629472" lon="12.284048309789467"><ele>140.0</ele><time>2026-04-27T03:11:11Z</time></trkpt><trkpt lat="45.96053794986855" lon="12.28396782902958"><ele>137.66666666666666</ele><time>2026-04-27T03:11:12Z</time></trkpt><trkpt lat="45.960369028863845" lon="12.283880132206951"><ele>135.33333333333334</ele><time>2026-04-27T03:11:13Z</time></trkpt><trkpt lat="45.96019938468929" lon="12.28379271428623"><ele>133.0</ele><time>2026-04-27T03:11:14Z</time></trkpt><trkpt lat="45.960027134833204" lon="12.283705208810066"><ele>133.0</ele><time>2026-04-27T03:11:15Z</time></trkpt><trkpt lat="45.9598555541503" lon="12.283617616956528"><ele>133.0</ele><time>2026-04-27T03:11:16Z</time></trkpt><trkpt lat="45.9596826122906" lon="12.283528491881768"><ele>133.0</ele><time>2026-04-27T03:11:17Z</time></trkpt><trkpt lat="45.959509460301476" lon="12.283440059003924"><ele>133.0</ele><time>2026-04-27T03:11:18Z</time></trkpt><trkpt lat="45.9593361868959" lon="12.2833486811612"><ele>133.0</ele><time>2026-04-27T03:11:19Z</time></trkpt><trkpt lat="45.959161696084465" lon="12.283260920135826"><ele>133.0</ele><time>2026-04-27T03:11:20Z</time></trkpt><trkpt lat="45.95898658309657" lon="12.283178608154046"><ele>133.0</ele><time>2026-04-27T03:11:21Z</time></trkpt><trkpt lat="45.958807200044625" lon="12.283117349106652"><ele>133.0</ele><time>2026-04-27T03:11:22Z</time></trkpt><trkpt lat="45.95862417759325" lon="12.283085910709248"><ele>133.0</ele><time>2026-04-27T03:11:23Z</time></trkpt><trkpt lat="45.95844202607181" lon="12.283074665356127"><ele>136.0</ele><time>2026-04-27T03:11:24Z</time></trkpt><trkpt lat="45.9582624340689" lon="12.2830717656024"><ele>139.0</ele><time>2026-04-27T03:11:25Z</time></trkpt><trkpt lat="45.958085263180905" lon="12.283070356235253"><ele>142.0</ele><time>2026-04-27T03:11:26Z</time></trkpt><trkpt lat="45.9579128969944" lon="12.28307377603542"><ele>142.0</ele><time>2026-04-27T03:11:27Z</time></trkpt><trkpt lat="45.95774627980995" lon="12.283076453779309"><ele>142.0</ele><time>2026-04-27T03:11:28Z</time></trkpt><trkpt lat="45.95758364985669" lon="12.283078229413732"><ele>142.0</ele><time>2026-04-27T03:11:29Z</time></trkpt><trkpt lat="45.95742511973921" lon="12.283070715752526"><ele>146.0</ele><time>2026-04-27T03:11:30Z</time></trkpt><trkpt lat="45.957274049075956" lon="12.283028289470588"><ele>150.0</ele><time>2026-04-27T03:11:31Z</time></trkpt><trkpt lat="45.95712957170636" lon="12.282957977684443"><ele>154.0</ele><time>2026-04-27T03:11:32Z</time></trkpt><trkpt lat="45.95700916143356" lon="12.282838752239723"><ele>154.0</ele><time>2026-04-27T03:11:33Z</time></trkpt><trkpt lat="45.95691176095144" lon="12.282691666840579"><ele>154.0</ele><time>2026-04-27T03:11:34Z</time></trkpt><trkpt lat="45.956832903572966" lon="12.282520271272006"><ele>154.0</ele><time>2026-04-27T03:11:35Z</time></trkpt><trkpt lat="45.956762648904075" lon="12.282350105233608"><ele>154.0</ele><time>2026-04-27T03:11:36Z</time></trkpt><trkpt lat="45.956691203486706" lon="12.282181255464959"><ele>155.0</ele><time>2026-04-27T03:11:37Z</time></trkpt><trkpt lat="45.95661990182181" lon="12.282017220270582"><ele>156.0</ele><time>2026-04-27T03:11:38Z</time></trkpt><trkpt lat="45.95654852199663" lon="12.281854267701236"><ele>157.0</ele><time>2026-04-27T03:11:39Z</time></trkpt><trkpt lat="45.95647660449066" lon="12.281691306781742"><ele>158.0</ele><time>2026-04-27T03:11:40Z</time></trkpt><trkpt lat="45.95640606812648" lon="12.28152771531049"><ele>161.5</ele><time>2026-04-27T03:11:41Z</time></trkpt><trkpt lat="45.9563342024261" lon="12.281364393109925"><ele>165.0</ele><time>2026-04-27T03:11:42Z</time></trkpt><trkpt lat="45.95626322106501" lon="12.281201521419536"><ele>168.5</ele><time>2026-04-27T03:11:43Z</time></trkpt><trkpt lat="45.95619334688536" lon="12.281040113490805"><ele>172.0</ele><time>2026-04-27T03:11:44Z</time></trkpt><trkpt lat="45.95612255156252" lon="12.280879327873182"><ele>172.0</ele><time>2026-04-27T03:11:45Z</time></trkpt><trkpt lat="45.956045855580214" lon="12.280724084414336"><ele>172.0</ele><time>2026-04-27T03:11:46Z</time></trkpt><trkpt lat="45.95595737833214" lon="12.280580932795742"><ele>172.0</ele><time>2026-04-27T03:11:47Z</time></trkpt><trkpt lat="45.95585553205548" lon="12.2804558431457"><ele>172.0</ele><time>2026-04-27T03:11:47.999Z</time></trkpt><trkpt lat="45.95574368760658" lon="12.280347898857823"><ele>169.5</ele><time>2026-04-27T03:11:48.999Z</time></trkpt><trkpt lat="45.955621870777655" lon="12.280257213418883"><ele>167.0</ele><time>2026-04-27T03:11:49.999Z</time></trkpt><trkpt lat="45.95549318681822" lon="12.28018438250361"><ele>164.5</ele><time>2026-04-27T03:11:50.999Z</time></trkpt><trkpt lat="45.9553587409721" lon="12.280127254138975"><ele>162.0</ele><time>2026-04-27T03:11:51.999Z</time></trkpt><trkpt lat="45.95522181688066" lon="12.280077158656908"><ele>162.0</ele><time>2026-04-27T03:11:52.999Z</time></trkpt><trkpt lat="45.95508442045534" lon="12.28002524749837"><ele>162.0</ele><time>2026-04-27T03:11:53.999Z</time></trkpt><trkpt lat="45.954947655825066" lon="12.27997082213642"><ele>162.0</ele><time>2026-04-27T03:11:54.999Z</time></trkpt><trkpt lat="45.954810458286275" lon="12.279916429256664"><ele>162.0</ele><time>2026-04-27T03:11:55.999Z</time></trkpt><trkpt lat="45.954671870028506" lon="12.27986063476001"><ele>162.25</ele><time>2026-04-27T03:11:56.999Z</time></trkpt><trkpt lat="45.954531687975894" lon="12.279806347232736"><ele>162.5</ele><time>2026-04-27T03:11:57.999Z</time></trkpt><trkpt lat="45.954390380783906" lon="12.279750386794833"><ele>162.75</ele><time>2026-04-27T03:11:58.999Z</time></trkpt><trkpt lat="45.95424605492251" lon="12.27969363341316"><ele>163.0</ele><time>2026-04-27T03:11:59.999Z</time></trkpt><trkpt lat="45.95409806916484" lon="12.279633927275428"><ele>163.33333333333334</ele><time>2026-04-27T03:12:00.999Z</time></trkpt><trkpt lat="45.95394662156459" lon="12.279573461219584"><ele>163.66666666666666</ele><time>2026-04-27T03:12:01.999Z</time></trkpt><trkpt lat="45.95379023333419" lon="12.279511106274532"><ele>164.0</ele><time>2026-04-27T03:12:02.999Z</time></trkpt><trkpt lat="45.953630615454145" lon="12.279449094218672"><ele>164.0</ele><time>2026-04-27T03:12:03.999Z</time></trkpt><trkpt lat="45.95346622361209" lon="12.27938638245781"><ele>164.0</ele><time>2026-04-27T03:12:04.999Z</time></trkpt><trkpt lat="45.95330152557133" lon="12.279316261410864"><ele>164.0</ele><time>2026-04-27T03:12:05.999Z</time></trkpt><trkpt lat="45.953134066932826" lon="12.279243708183792"><ele>163.0</ele><time>2026-04-27T03:12:06.999Z</time></trkpt><trkpt lat="45.95296652799197" lon="12.279167610816367"><ele>162.0</ele><time>2026-04-27T03:12:07.999Z</time></trkpt><trkpt lat="45.95279382657527" lon="12.279090768739556"><ele>161.0</ele><time>2026-04-27T03:12:09Z</time></trkpt><trkpt lat="45.95262025904416" lon="12.279013002366842"><ele>160.66666666666666</ele><time>2026-04-27T03:12:10Z</time></trkpt><trkpt lat="45.95244195368353" lon="12.278935436694361"><ele>160.33333333333334</ele><time>2026-04-27T03:12:11Z</time></trkpt><trkpt lat="45.95226104702469" lon="12.278878444462395"><ele>160.0</ele><time>2026-04-27T03:12:12Z</time></trkpt><trkpt lat="45.952076005771815" lon="12.278828341473806"><ele>158.66666666666669</ele><time>2026-04-27T03:12:13Z</time></trkpt><trkpt lat="45.951885703270754" lon="12.278785741083102"><ele>157.33333333333334</ele><time>2026-04-27T03:12:14Z</time></trkpt><trkpt lat="45.95169616846303" lon="12.27874126503173"><ele>156.0</ele><time>2026-04-27T03:12:15Z</time></trkpt><trkpt lat="45.951503980739744" lon="12.278702633836117"><ele>156.0</ele><time>2026-04-27T03:12:16Z</time></trkpt><trkpt lat="45.9513096460463" lon="12.27866141368669"><ele>156.0</ele><time>2026-04-27T03:12:17Z</time></trkpt><trkpt lat="45.951114884286206" lon="12.278617442478923"><ele>156.0</ele><time>2026-04-27T03:12:18Z</time></trkpt><trkpt lat="45.95091925647301" lon="12.278576527730094"><ele>155.33333333333334</ele><time>2026-04-27T03:12:19Z</time></trkpt><trkpt lat="45.95072276305863" lon="12.27853336290149"><ele>154.66666666666669</ele><time>2026-04-27T03:12:20Z</time></trkpt><trkpt lat="45.95052772316534" lon="12.278494871729919"><ele>154.0</ele><time>2026-04-27T03:12:21Z</time></trkpt><trkpt lat="45.95033194363873" lon="12.278459114167696"><ele>154.0</ele><time>2026-04-27T03:12:22Z</time></trkpt><trkpt lat="45.95013933399534" lon="12.27842748825342"><ele>154.0</ele><time>2026-04-27T03:12:23Z</time></trkpt><trkpt lat="45.94994540021574" lon="12.278422134266739"><ele>154.0</ele><time>2026-04-27T03:12:24Z</time></trkpt><trkpt lat="45.94975285421059" lon="12.278441226937248"><ele>154.0</ele><time>2026-04-27T03:12:25Z</time></trkpt><trkpt lat="45.94956413712837" lon="12.278486603671125"><ele>154.0</ele><time>2026-04-27T03:12:26Z</time></trkpt><trkpt lat="45.94937858178172" lon="12.27855361677911"><ele>154.0</ele><time>2026-04-27T03:12:27Z</time></trkpt><trkpt lat="45.949198092843375" lon="12.278638180147045"><ele>154.66666666666669</ele><time>2026-04-27T03:12:28Z</time></trkpt><trkpt lat="45.94902252173604" lon="12.278739005285257"><ele>155.33333333333334</ele><time>2026-04-27T03:12:29Z</time></trkpt><trkpt lat="45.94885054507732" lon="12.27884616606944"><ele>156.0</ele><time>2026-04-27T03:12:30Z</time></trkpt><trkpt lat="45.948681314969" lon="12.278948970671195"><ele>156.0</ele><time>2026-04-27T03:12:31Z</time></trkpt><trkpt lat="45.94850856261914" lon="12.279025354162483"><ele>156.0</ele><time>2026-04-27T03:12:32Z</time></trkpt><trkpt lat="45.948332348460866" lon="12.279070968408055"><ele>156.0</ele><time>2026-04-27T03:12:33Z</time></trkpt><trkpt lat="45.948154921816254" lon="12.27908473118488"><ele>157.66666666666666</ele><time>2026-04-27T03:12:34Z</time></trkpt><trkpt lat="45.9479800126543" lon="12.279063881857178"><ele>159.33333333333331</ele><time>2026-04-27T03:12:35Z</time></trkpt><trkpt lat="45.947807045720644" lon="12.279011126420073"><ele>161.0</ele><time>2026-04-27T03:12:36Z</time></trkpt><trkpt lat="45.94763952378907" lon="12.278928610331729"><ele>160.0</ele><time>2026-04-27T03:12:37Z</time></trkpt><trkpt lat="45.947476336077095" lon="12.278823058179432"><ele>159.0</ele><time>2026-04-27T03:12:38Z</time></trkpt><trkpt lat="45.94731139941126" lon="12.278711005114985"><ele>158.0</ele><time>2026-04-27T03:12:39Z</time></trkpt><trkpt lat="45.947144399388954" lon="12.278605095073361"><ele>158.0</ele><time>2026-04-27T03:12:40Z</time></trkpt><trkpt lat="45.946974275675494" lon="12.278495778090095"><ele>158.0</ele><time>2026-04-27T03:12:41Z</time></trkpt><trkpt lat="45.946801911898376" lon="12.278385639227812"><ele>158.0</ele><time>2026-04-27T03:12:42Z</time></trkpt><trkpt lat="45.946629403976175" lon="12.278277608070447"><ele>156.33333333333331</ele><time>2026-04-27T03:12:43Z</time></trkpt><trkpt lat="45.94645717399626" lon="12.278167985875305"><ele>154.66666666666666</ele><time>2026-04-27T03:12:44Z</time></trkpt><trkpt lat="45.94628519980338" lon="12.278061542566045"><ele>153.0</ele><time>2026-04-27T03:12:45Z</time></trkpt><trkpt lat="45.946114283136346" lon="12.277950590612662"><ele>152.0</ele><time>2026-04-27T03:12:46Z</time></trkpt><trkpt lat="45.94594266073266" lon="12.27783760914107"><ele>151.0</ele><time>2026-04-27T03:12:47Z</time></trkpt><trkpt lat="45.9457741400087" lon="12.277715373277623"><ele>150.0</ele><time>2026-04-27T03:12:48Z</time></trkpt><trkpt lat="45.94560900987349" lon="12.277586328015232"><ele>148.66666666666666</ele><time>2026-04-27T03:12:49Z</time></trkpt><trkpt lat="45.94544482194496" lon="12.27745065145155"><ele>147.33333333333331</ele><time>2026-04-27T03:12:50Z</time></trkpt><trkpt lat="45.94528352909668" lon="12.277311043367778"><ele>146.0</ele><time>2026-04-27T03:12:51Z</time></trkpt><trkpt lat="45.945121283154286" lon="12.277169604563914"><ele>144.33333333333331</ele><time>2026-04-27T03:12:52Z</time></trkpt><trkpt lat="45.94495790050476" lon="12.277030842431794"><ele>142.66666666666666</ele><time>2026-04-27T03:12:53Z</time></trkpt><trkpt lat="45.94479254897482" lon="12.276888398815853"><ele>141.0</ele><time>2026-04-27T03:12:54Z</time></trkpt><trkpt lat="45.944626836838154" lon="12.276749113974482"><ele>141.0</ele><time>2026-04-27T03:12:55Z</time></trkpt><trkpt lat="45.94446001428839" lon="12.27660834536668"><ele>141.0</ele><time>2026-04-27T03:12:56Z</time></trkpt><trkpt lat="45.9442935675629" lon="12.276466409977525"><ele>141.0</ele><time>2026-04-27T03:12:57Z</time></trkpt><trkpt lat="45.94412700755068" lon="12.276322347537043"><ele>139.0</ele><time>2026-04-27T03:12:58Z</time></trkpt><trkpt lat="45.943958907712194" lon="12.276178045474301"><ele>137.0</ele><time>2026-04-27T03:12:59Z</time></trkpt><trkpt lat="45.94378919264169" lon="12.27603418888781"><ele>135.0</ele><time>2026-04-27T03:13:00Z</time></trkpt><trkpt lat="45.94361845036641" lon="12.275890611114706"><ele>135.0</ele><time>2026-04-27T03:13:01Z</time></trkpt><trkpt lat="45.94344741377293" lon="12.275747421785537"><ele>135.0</ele><time>2026-04-27T03:13:02Z</time></trkpt><trkpt lat="45.9432760052211" lon="12.275600388443591"><ele>135.0</ele><time>2026-04-27T03:13:03Z</time></trkpt><trkpt lat="45.94310454213081" lon="12.275454250999603"><ele>131.33333333333334</ele><time>2026-04-27T03:13:04Z</time></trkpt><trkpt lat="45.94293301826849" lon="12.275307808441749"><ele>127.66666666666667</ele><time>2026-04-27T03:13:05Z</time></trkpt><trkpt lat="45.94276059072092" lon="12.275156564308954"><ele>124.0</ele><time>2026-04-27T03:13:06Z</time></trkpt><trkpt lat="45.94258695517314" lon="12.275010524726675"><ele>124.0</ele><time>2026-04-27T03:13:07Z</time></trkpt><trkpt lat="45.94241091477353" lon="12.274867328167954"><ele>124.0</ele><time>2026-04-27T03:13:08Z</time></trkpt><trkpt lat="45.94223103108478" lon="12.274737262559611"><ele>124.0</ele><time>2026-04-27T03:13:09Z</time></trkpt><trkpt lat="45.942047920528175" lon="12.274620200936301"><ele>121.66666666666667</ele><time>2026-04-27T03:13:10Z</time></trkpt><trkpt lat="45.94186102399997" lon="12.274508582868917"><ele>119.33333333333334</ele><time>2026-04-27T03:13:11Z</time></trkpt><trkpt lat="45.94167187555509" lon="12.274410389540595"><ele>117.0</ele><time>2026-04-27T03:13:12Z</time></trkpt><trkpt lat="45.941484671373274" lon="12.274317801009454"><ele>117.0</ele><time>2026-04-27T03:13:13Z</time></trkpt><trkpt lat="45.941304311774395" lon="12.27423131080278"><ele>117.0</ele><time>2026-04-27T03:13:14Z</time></trkpt><trkpt lat="45.94113561079528" lon="12.27415240144247"><ele>117.0</ele><time>2026-04-27T03:13:15Z</time></trkpt><trkpt lat="45.940972573011116" lon="12.27407499401135"><ele>115.66666666666666</ele><time>2026-04-27T03:13:16Z</time></trkpt><trkpt lat="45.94082493240245" lon="12.27399346912515"><ele>114.33333333333333</ele><time>2026-04-27T03:13:17Z</time></trkpt><trkpt lat="45.94069412503496" lon="12.273882314696996"><ele>113.0</ele><time>2026-04-27T03:13:18Z</time></trkpt><trkpt lat="45.94058276313654" lon="12.273738534927551"><ele>112.25</ele><time>2026-04-27T03:13:19Z</time></trkpt><trkpt lat="45.94048323348236" lon="12.273579869627113"><ele>111.5</ele><time>2026-04-27T03:13:20Z</time></trkpt><trkpt lat="45.94042380169055" lon="12.273384626137988"><ele>110.75</ele><time>2026-04-27T03:13:21Z</time></trkpt><trkpt lat="45.94040416454258" lon="12.273174959412698"><ele>110.0</ele><time>2026-04-27T03:13:22Z</time></trkpt><trkpt lat="45.940424785851675" lon="12.272963193959903"><ele>107.66666666666666</ele><time>2026-04-27T03:13:23Z</time></trkpt><trkpt lat="45.94047991375352" lon="12.27276292727194"><ele>105.33333333333334</ele><time>2026-04-27T03:13:24Z</time></trkpt><trkpt lat="45.94056415869973" lon="12.272580757428234"><ele>103.0</ele><time>2026-04-27T03:13:25Z</time></trkpt><trkpt lat="45.9406583846943" lon="12.272396093542458"><ele>103.0</ele><time>2026-04-27T03:13:26Z</time></trkpt><trkpt lat="45.940756630136924" lon="12.27220536015975"><ele>103.0</ele><time>2026-04-27T03:13:27Z</time></trkpt><trkpt lat="45.94085592925783" lon="12.272006791712075"><ele>103.0</ele><time>2026-04-27T03:13:28Z</time></trkpt><trkpt lat="45.94095809475785" lon="12.271801598786885"><ele>103.33333333333334</ele><time>2026-04-27T03:13:29Z</time></trkpt><trkpt lat="45.9410629548252" lon="12.271593838583545"><ele>103.66666666666666</ele><time>2026-04-27T03:13:30Z</time></trkpt><trkpt lat="45.94117091435459" lon="12.271381443683653"><ele>104.0</ele><time>2026-04-27T03:13:31Z</time></trkpt><trkpt lat="45.94128089757277" lon="12.271165709009411"><ele>104.33333333333333</ele><time>2026-04-27T03:13:32Z</time></trkpt><trkpt lat="45.941387557388744" lon="12.270948766672484"><ele>104.66666666666666</ele><time>2026-04-27T03:13:33Z</time></trkpt><trkpt lat="45.941492277898796" lon="12.27073149041285"><ele>105.0</ele><time>2026-04-27T03:13:34Z</time></trkpt><trkpt lat="45.9415996853431" lon="12.270515647207493"><ele>106.0</ele><time>2026-04-27T03:13:35Z</time></trkpt><trkpt lat="45.941708373017676" lon="12.270300604262383"><ele>107.0</ele><time>2026-04-27T03:13:36Z</time></trkpt><trkpt lat="45.94181571889786" lon="12.270084238187264"><ele>108.0</ele><time>2026-04-27T03:13:37Z</time></trkpt><trkpt lat="45.94192364085141" lon="12.269866337700508"><ele>110.0</ele><time>2026-04-27T03:13:38Z</time></trkpt><trkpt lat="45.942030900145085" lon="12.269649511566037"><ele>112.0</ele><time>2026-04-27T03:13:39Z</time></trkpt><trkpt lat="45.94213823098095" lon="12.26943102617509"><ele>114.0</ele><time>2026-04-27T03:13:40Z</time></trkpt><trkpt lat="45.94224592159269" lon="12.269213522507991"><ele>114.0</ele><time>2026-04-27T03:13:41Z</time></trkpt><trkpt lat="45.942353839710776" lon="12.268994739491164"><ele>114.0</ele><time>2026-04-27T03:13:42Z</time></trkpt><trkpt lat="45.942462591805906" lon="12.268777081806276"><ele>114.0</ele><time>2026-04-27T03:13:43Z</time></trkpt><trkpt lat="45.942569831615494" lon="12.26855881495592"><ele>114.0</ele><time>2026-04-27T03:13:44Z</time></trkpt><trkpt lat="45.94267677343535" lon="12.268341992861515"><ele>114.0</ele><time>2026-04-27T03:13:45Z</time></trkpt><trkpt lat="45.94278378227096" lon="12.268124153287204"><ele>114.0</ele><time>2026-04-27T03:13:46Z</time></trkpt><trkpt lat="45.94289053639357" lon="12.267907461679307"><ele>114.0</ele><time>2026-04-27T03:13:47Z</time></trkpt><trkpt lat="45.942998154179804" lon="12.267691439818522"><ele>114.0</ele><time>2026-04-27T03:13:48Z</time></trkpt><trkpt lat="45.94310702505903" lon="12.267476263159358"><ele>114.0</ele><time>2026-04-27T03:13:48.999Z</time></trkpt><trkpt lat="45.94321464435396" lon="12.26725952313342"><ele>114.33333333333334</ele><time>2026-04-27T03:13:49.999Z</time></trkpt><trkpt lat="45.94332205965997" lon="12.26704210373524"><ele>114.66666666666667</ele><time>2026-04-27T03:13:50.999Z</time></trkpt><trkpt lat="45.94342468457241" lon="12.266820601515118"><ele>115.0</ele><time>2026-04-27T03:13:51.999Z</time></trkpt><trkpt lat="45.943515977677464" lon="12.266589599609272"><ele>116.33333333333334</ele><time>2026-04-27T03:13:52.999Z</time></trkpt><trkpt lat="45.94359938704764" lon="12.266351173844772"><ele>117.66666666666666</ele><time>2026-04-27T03:13:53.999Z</time></trkpt><trkpt lat="45.943674557323305" lon="12.266106393748306"><ele>119.0</ele><time>2026-04-27T03:13:54.999Z</time></trkpt><trkpt lat="45.943744495412496" lon="12.265861270187326"><ele>119.0</ele><time>2026-04-27T03:13:55.999Z</time></trkpt><trkpt lat="45.94381333722695" lon="12.26561551516937"><ele>119.0</ele><time>2026-04-27T03:13:56.999Z</time></trkpt><trkpt lat="45.94388236498473" lon="12.265371757526774"><ele>119.0</ele><time>2026-04-27T03:13:57.999Z</time></trkpt><trkpt lat="45.943949515854904" lon="12.265131151836131"><ele>119.66666666666666</ele><time>2026-04-27T03:13:58.999Z</time></trkpt><trkpt lat="45.94401657913351" lon="12.264893773835684"><ele>120.33333333333334</ele><time>2026-04-27T03:13:59.999Z</time></trkpt><trkpt lat="45.94408526413602" lon="12.264663837262198"><ele>121.0</ele><time>2026-04-27T03:14:00.999Z</time></trkpt><trkpt lat="45.94415281212812" lon="12.264436392188808"><ele>121.0</ele><time>2026-04-27T03:14:01.999Z</time></trkpt><trkpt lat="45.944226509465295" lon="12.264218101444536"><ele>121.0</ele><time>2026-04-27T03:14:02.999Z</time></trkpt><trkpt lat="45.94430579553203" lon="12.264008655998405"><ele>121.0</ele><time>2026-04-27T03:14:03.999Z</time></trkpt><trkpt lat="45.94439443202693" lon="12.263807821544013"><ele>122.33333333333334</ele><time>2026-04-27T03:14:04.999Z</time></trkpt><trkpt lat="45.94448438699121" lon="12.263610034075048"><ele>123.66666666666666</ele><time>2026-04-27T03:14:05.999Z</time></trkpt><trkpt lat="45.944572334854385" lon="12.263413398226488"><ele>125.0</ele><time>2026-04-27T03:14:06.999Z</time></trkpt><trkpt lat="45.944655720525475" lon="12.263215047144433"><ele>128.33333333333331</ele><time>2026-04-27T03:14:07.999Z</time></trkpt><trkpt lat="45.9447262756096" lon="12.263008729213432"><ele>131.66666666666666</ele><time>2026-04-27T03:14:08.999Z</time></trkpt><trkpt lat="45.94478212472901" lon="12.262794973496876"><ele>135.0</ele><time>2026-04-27T03:14:09.999Z</time></trkpt><trkpt lat="45.94481827655628" lon="12.26257455533382"><ele>135.0</ele><time>2026-04-27T03:14:10.999Z</time></trkpt><trkpt lat="45.94483732939308" lon="12.262350310670282"><ele>135.0</ele><time>2026-04-27T03:14:11.999Z</time></trkpt><trkpt lat="45.94484582745188" lon="12.26212405943959"><ele>135.0</ele><time>2026-04-27T03:14:12.999Z</time></trkpt><trkpt lat="45.94485260306511" lon="12.261897144527177"><ele>137.33333333333334</ele><time>2026-04-27T03:14:13.999Z</time></trkpt><trkpt lat="45.94485578902196" lon="12.261671344031987"><ele>139.66666666666669</ele><time>2026-04-27T03:14:15Z</time></trkpt><trkpt lat="45.94486145346066" lon="12.26144649019544"><ele>142.0</ele><time>2026-04-27T03:14:16Z</time></trkpt><trkpt lat="45.944873686863275" lon="12.261223946904597"><ele>143.66666666666669</ele><time>2026-04-27T03:14:17Z</time></trkpt><trkpt lat="45.944897458372445" lon="12.261003106728216"><ele>145.33333333333334</ele><time>2026-04-27T03:14:18Z</time></trkpt><trkpt lat="45.944932996352144" lon="12.260787462124387"><ele>147.0</ele><time>2026-04-27T03:14:19Z</time></trkpt><trkpt lat="45.94498280867229" lon="12.260578921722528"><ele>150.0</ele><time>2026-04-27T03:14:20Z</time></trkpt><trkpt lat="45.9450522244414" lon="12.26038537580913"><ele>153.0</ele><time>2026-04-27T03:14:21Z</time></trkpt><trkpt lat="45.945138231343364" lon="12.260207282152248"><ele>156.0</ele><time>2026-04-27T03:14:22Z</time></trkpt><trkpt lat="45.94523748765422" lon="12.260044825639959"><ele>156.0</ele><time>2026-04-27T03:14:23Z</time></trkpt><trkpt lat="45.945347286553584" lon="12.259899083610689"><ele>156.0</ele><time>2026-04-27T03:14:24Z</time></trkpt><trkpt lat="45.945463232771644" lon="12.259765238140133"><ele>156.0</ele><time>2026-04-27T03:14:25Z</time></trkpt><trkpt lat="45.945578329989736" lon="12.259629183876521"><ele>156.0</ele><time>2026-04-27T03:14:26Z</time></trkpt><trkpt lat="45.94568690002252" lon="12.259481569956737"><ele>157.33333333333334</ele><time>2026-04-27T03:14:27Z</time></trkpt><trkpt lat="45.94578298317623" lon="12.259316267743708"><ele>158.66666666666669</ele><time>2026-04-27T03:14:28Z</time></trkpt><trkpt lat="45.94586123927295" lon="12.259130394640474"><ele>160.0</ele><time>2026-04-27T03:14:29Z</time></trkpt><trkpt lat="45.9459188678217" lon="12.25892701713788"><ele>160.33333333333334</ele><time>2026-04-27T03:14:30Z</time></trkpt><trkpt lat="45.94595422060495" lon="12.258708123599407"><ele>160.66666666666666</ele><time>2026-04-27T03:14:31Z</time></trkpt><trkpt lat="45.94596201938004" lon="12.258477160143833"><ele>161.0</ele><time>2026-04-27T03:14:32Z</time></trkpt><trkpt lat="45.945943930693396" lon="12.258242886703387"><ele>161.33333333333331</ele><time>2026-04-27T03:14:33Z</time></trkpt><trkpt lat="45.94590352346559" lon="12.257999684320398"><ele>161.66666666666666</ele><time>2026-04-27T03:14:34Z</time></trkpt><trkpt lat="45.945849760031706" lon="12.257759471519048"><ele>162.0</ele><time>2026-04-27T03:14:35Z</time></trkpt><trkpt lat="45.94579534725219" lon="12.25751321695143"><ele>158.33333333333334</ele><time>2026-04-27T03:14:36Z</time></trkpt><trkpt lat="45.94574068839413" lon="12.257258323316146"><ele>154.66666666666669</ele><time>2026-04-27T03:14:37Z</time></trkpt><trkpt lat="45.945682748885595" lon="12.256996177927377"><ele>151.0</ele><time>2026-04-27T03:14:38Z</time></trkpt><trkpt lat="45.94562418564372" lon="12.256730332171639"><ele>151.0</ele><time>2026-04-27T03:14:39Z</time></trkpt><trkpt lat="45.94556530593462" lon="12.256460622458631"><ele>151.0</ele><time>2026-04-27T03:14:40Z</time></trkpt><trkpt lat="45.94550816292804" lon="12.256187317749335"><ele>151.0</ele><time>2026-04-27T03:14:41Z</time></trkpt><trkpt lat="45.94544980458779" lon="12.255912645724983"><ele>150.66666666666669</ele><time>2026-04-27T03:14:42Z</time></trkpt><trkpt lat="45.94538932979688" lon="12.255636864353292"><ele>150.33333333333334</ele><time>2026-04-27T03:14:43Z</time></trkpt><trkpt lat="45.94532956200511" lon="12.255359517450492"><ele>150.0</ele><time>2026-04-27T03:14:44Z</time></trkpt><trkpt lat="45.94526957802125" lon="12.255082790410388"><ele>149.66666666666666</ele><time>2026-04-27T03:14:45Z</time></trkpt><trkpt lat="45.94521020372886" lon="12.2548075327975"><ele>149.33333333333331</ele><time>2026-04-27T03:14:46Z</time></trkpt><trkpt lat="45.94514910349113" lon="12.254535407421704"><ele>149.0</ele><time>2026-04-27T03:14:47Z</time></trkpt><trkpt lat="45.945075652343384" lon="12.254268483467296"><ele>147.66666666666666</ele><time>2026-04-27T03:14:48Z</time></trkpt><trkpt lat="45.94497850518713" lon="12.254019529180907"><ele>146.33333333333334</ele><time>2026-04-27T03:14:49Z</time></trkpt><trkpt lat="45.94486540443708" lon="12.253790871491695"><ele>145.0</ele><time>2026-04-27T03:14:50Z</time></trkpt><trkpt lat="45.94473748827973" lon="12.253584894570785"><ele>145.0</ele><time>2026-04-27T03:14:51Z</time></trkpt><trkpt lat="45.94458883151433" lon="12.253401003133803"><ele>145.0</ele><time>2026-04-27T03:14:52Z</time></trkpt><trkpt lat="45.94442980713496" lon="12.253233839615426"><ele>145.0</ele><time>2026-04-27T03:14:53Z</time></trkpt><trkpt lat="45.9442652132026" lon="12.253070414468043"><ele>144.0</ele><time>2026-04-27T03:14:54Z</time></trkpt><trkpt lat="45.94409907146477" lon="12.252911685629567"><ele>143.0</ele><time>2026-04-27T03:14:55Z</time></trkpt><trkpt lat="45.94393279191492" lon="12.25275579365054"><ele>142.0</ele><time>2026-04-27T03:14:56Z</time></trkpt><trkpt lat="45.94377642906588" lon="12.252600652283018"><ele>142.0</ele><time>2026-04-27T03:14:57Z</time></trkpt><trkpt lat="45.94364266956362" lon="12.252429456424748"><ele>142.0</ele><time>2026-04-27T03:14:58Z</time></trkpt><trkpt lat="45.94352798917544" lon="12.252236680021445"><ele>142.0</ele><time>2026-04-27T03:14:59Z</time></trkpt><trkpt lat="45.94343037293963" lon="12.252025021287443"><ele>140.33333333333334</ele><time>2026-04-27T03:15:00Z</time></trkpt><trkpt lat="45.943361096133486" lon="12.251787281824207"><ele>138.66666666666666</ele><time>2026-04-27T03:15:01Z</time></trkpt><trkpt lat="45.94331913569763" lon="12.251531033687177"><ele>137.0</ele><time>2026-04-27T03:15:02Z</time></trkpt><trkpt lat="45.94329752297651" lon="12.251265860263919"><ele>137.0</ele><time>2026-04-27T03:15:03Z</time></trkpt><trkpt lat="45.9432801171721" lon="12.250998128698468"><ele>137.0</ele><time>2026-04-27T03:15:04Z</time></trkpt><trkpt lat="45.9432605224326" lon="12.250724945737165"><ele>137.0</ele><time>2026-04-27T03:15:05Z</time></trkpt><trkpt lat="45.943245444735794" lon="12.250446667856238"><ele>136.0</ele><time>2026-04-27T03:15:06Z</time></trkpt><trkpt lat="45.9432345178034" lon="12.250165096339868"><ele>135.0</ele><time>2026-04-27T03:15:07Z</time></trkpt><trkpt lat="45.94322358630856" lon="12.249881681283984"><ele>134.0</ele><time>2026-04-27T03:15:08Z</time></trkpt><trkpt lat="45.943213290544435" lon="12.249596319648981"><ele>133.33333333333331</ele><time>2026-04-27T03:15:09Z</time></trkpt><trkpt lat="45.94320377798495" lon="12.249308974216238"><ele>132.66666666666666</ele><time>2026-04-27T03:15:10Z</time></trkpt><trkpt lat="45.94319653480444" lon="12.249018550073274"><ele>132.0</ele><time>2026-04-27T03:15:11Z</time></trkpt><trkpt lat="45.943186715816566" lon="12.248727613529507"><ele>131.33333333333334</ele><time>2026-04-27T03:15:12Z</time></trkpt><trkpt lat="45.94317562052011" lon="12.248436571107643"><ele>130.66666666666669</ele><time>2026-04-27T03:15:13Z</time></trkpt><trkpt lat="45.94316911410835" lon="12.248145882560298"><ele>130.0</ele><time>2026-04-27T03:15:14Z</time></trkpt><trkpt lat="45.94316296081502" lon="12.247858393399026"><ele>129.66666666666669</ele><time>2026-04-27T03:15:15Z</time></trkpt><trkpt lat="45.943150834214244" lon="12.247581099598039"><ele>129.33333333333334</ele><time>2026-04-27T03:15:16Z</time></trkpt><trkpt lat="45.94311709547423" lon="12.247314949700685"><ele>129.0</ele><time>2026-04-27T03:15:17Z</time></trkpt><trkpt lat="45.943065257840125" lon="12.247058770178082"><ele>129.66666666666666</ele><time>2026-04-27T03:15:18Z</time></trkpt><trkpt lat="45.9429878847952" lon="12.246822945487141"><ele>130.33333333333331</ele><time>2026-04-27T03:15:19Z</time></trkpt><trkpt lat="45.94289684812393" lon="12.24660394760362"><ele>131.0</ele><time>2026-04-27T03:15:20Z</time></trkpt><trkpt lat="45.9428049586023" lon="12.246391276659786"><ele>131.0</ele><time>2026-04-27T03:15:21Z</time></trkpt><trkpt lat="45.94271330126249" lon="12.246178446803478"><ele>131.0</ele><time>2026-04-27T03:15:22Z</time></trkpt><trkpt lat="45.94262203987473" lon="12.24596401680244"><ele>131.0</ele><time>2026-04-27T03:15:23Z</time></trkpt><trkpt lat="45.94253213259626" lon="12.24574770517018"><ele>130.66666666666666</ele><time>2026-04-27T03:15:24Z</time></trkpt><trkpt lat="45.94244239987922" lon="12.245529591952295"><ele>130.33333333333334</ele><time>2026-04-27T03:15:25Z</time></trkpt><trkpt lat="45.942351088879235" lon="12.245310745168974"><ele>130.0</ele><time>2026-04-27T03:15:26Z</time></trkpt><trkpt lat="45.94225781893819" lon="12.245089427880337"><ele>130.0</ele><time>2026-04-27T03:15:27Z</time></trkpt><trkpt lat="45.9421629768206" lon="12.244866833336276"><ele>130.0</ele><time>2026-04-27T03:15:28Z</time></trkpt><trkpt lat="45.942067389250056" lon="12.244639610038295"><ele>130.0</ele><time>2026-04-27T03:15:29Z</time></trkpt><trkpt lat="45.941970281604206" lon="12.244410442918907"><ele>130.0</ele><time>2026-04-27T03:15:30Z</time></trkpt><trkpt lat="45.94187296521639" lon="12.244183336832469"><ele>130.0</ele><time>2026-04-27T03:15:31Z</time></trkpt><trkpt lat="45.94177794359673" lon="12.24395807957157"><ele>130.0</ele><time>2026-04-27T03:15:32Z</time></trkpt><trkpt lat="45.94168530964624" lon="12.24374761487285"><ele>129.0</ele><time>2026-04-27T03:15:33Z</time></trkpt><trkpt lat="45.94160109004005" lon="12.243544946432058"><ele>128.0</ele><time>2026-04-27T03:15:34Z</time></trkpt><trkpt lat="45.94152329020486" lon="12.243360461038314"><ele>127.0</ele><time>2026-04-27T03:15:35Z</time></trkpt><trkpt lat="45.94145495635825" lon="12.243194416521641"><ele>126.0</ele><time>2026-04-27T03:15:36Z</time></trkpt><trkpt lat="45.9414088378209" lon="12.243040276804951"><ele>126.0</ele><time>2026-04-27T03:15:37Z</time></trkpt><trkpt lat="45.941388676522216" lon="12.242899341937175"><ele>126.0</ele><time>2026-04-27T03:15:38Z</time></trkpt><trkpt lat="45.941392310000936" lon="12.242765342175877"><ele>126.0</ele><time>2026-04-27T03:15:39Z</time></trkpt><trkpt lat="45.94141929514694" lon="12.242642451381567"><ele>126.0</ele><time>2026-04-27T03:15:40Z</time></trkpt><trkpt lat="45.941443599293706" lon="12.24251828798937"><ele>126.0</ele><time>2026-04-27T03:15:41Z</time></trkpt><trkpt lat="45.941535665097945" lon="12.242435761875464"><ele>126.0</ele><time>2026-04-27T03:15:42Z</time></trkpt><trkpt lat="45.94162003222163" lon="12.242350848840927"><ele>126.0</ele><time>2026-04-27T03:15:43Z</time></trkpt><trkpt lat="45.941715311371944" lon="12.242264993983555"><ele>126.0</ele><time>2026-04-27T03:15:44Z</time></trkpt><trkpt lat="45.94181891864881" lon="12.242174541086362"><ele>126.0</ele><time>2026-04-27T03:15:45Z</time></trkpt><trkpt lat="45.9419320730015" lon="12.242076049551464"><ele>126.25</ele><time>2026-04-27T03:15:46Z</time></trkpt><trkpt lat="45.942050753808395" lon="12.241977077831967"><ele>126.5</ele><time>2026-04-27T03:15:47Z</time></trkpt><trkpt lat="45.94217610054814" lon="12.241873575278358"><ele>126.75</ele><time>2026-04-27T03:15:48Z</time></trkpt><trkpt lat="45.94230557298429" lon="12.241761218678814"><ele>127.0</ele><time>2026-04-27T03:15:48.999Z</time></trkpt><trkpt lat="45.94243817734666" lon="12.24164840350969"><ele>127.0</ele><time>2026-04-27T03:15:49.999Z</time></trkpt><trkpt lat="45.94257496761791" lon="12.24153353963972"><ele>127.0</ele><time>2026-04-27T03:15:50.999Z</time></trkpt><trkpt lat="45.94271238218746" lon="12.241417166176495"><ele>127.0</ele><time>2026-04-27T03:15:51.999Z</time></trkpt><trkpt lat="45.9428516985286" lon="12.241299669935913"><ele>128.0</ele><time>2026-04-27T03:15:52.999Z</time></trkpt><trkpt lat="45.94299403738611" lon="12.241181014991746"><ele>129.0</ele><time>2026-04-27T03:15:53.999Z</time></trkpt><trkpt lat="45.94314051760774" lon="12.241063469711577"><ele>130.0</ele><time>2026-04-27T03:15:54.999Z</time></trkpt><trkpt lat="45.943289188744636" lon="12.240951176137973"><ele>130.0</ele><time>2026-04-27T03:15:55.999Z</time></trkpt><trkpt lat="45.943440291416074" lon="12.240843262371065"><ele>130.0</ele><time>2026-04-27T03:15:56.999Z</time></trkpt><trkpt lat="45.9435938663165" lon="12.240736287277228"><ele>130.0</ele><time>2026-04-27T03:15:57.999Z</time></trkpt><trkpt lat="45.94374850294128" lon="12.240632798325642"><ele>130.0</ele><time>2026-04-27T03:15:58.999Z</time></trkpt><trkpt lat="45.94390765230008" lon="12.240537250873778"><ele>130.0</ele><time>2026-04-27T03:15:59.999Z</time></trkpt><trkpt lat="45.944068345700884" lon="12.240446902963395"><ele>130.0</ele><time>2026-04-27T03:16:00.999Z</time></trkpt><trkpt lat="45.94422988825928" lon="12.240360611239774"><ele>130.66666666666669</ele><time>2026-04-27T03:16:01.999Z</time></trkpt><trkpt lat="45.944392669828474" lon="12.240276193500128"><ele>131.33333333333334</ele><time>2026-04-27T03:16:02.999Z</time></trkpt><trkpt lat="45.94455581623872" lon="12.24019888686946"><ele>132.0</ele><time>2026-04-27T03:16:03.999Z</time></trkpt><trkpt lat="45.94472050740999" lon="12.240124570844385"><ele>132.0</ele><time>2026-04-27T03:16:04.999Z</time></trkpt><trkpt lat="45.944885529885376" lon="12.240052226193924"><ele>132.0</ele><time>2026-04-27T03:16:05.999Z</time></trkpt><trkpt lat="45.94505097942026" lon="12.239977878270977"><ele>132.0</ele><time>2026-04-27T03:16:06.999Z</time></trkpt><trkpt lat="45.945217022338454" lon="12.23990409267152"><ele>132.33333333333334</ele><time>2026-04-27T03:16:07.999Z</time></trkpt><trkpt lat="45.945382788207226" lon="12.239830228583093"><ele>132.66666666666669</ele><time>2026-04-27T03:16:08.999Z</time></trkpt><trkpt lat="45.94554950645641" lon="12.239756481170701"><ele>133.0</ele><time>2026-04-27T03:16:09.999Z</time></trkpt><trkpt lat="45.945717644396595" lon="12.23968069043047"><ele>134.0</ele><time>2026-04-27T03:16:10.999Z</time></trkpt><trkpt lat="45.94588426955936" lon="12.239603007667306"><ele>135.0</ele><time>2026-04-27T03:16:11.999Z</time></trkpt><trkpt lat="45.946051659951955" lon="12.239528578650718"><ele>136.0</ele><time>2026-04-27T03:16:12.999Z</time></trkpt><trkpt lat="45.946218761536684" lon="12.239449874711834"><ele>136.0</ele><time>2026-04-27T03:16:13.999Z</time></trkpt><trkpt lat="45.946382776961926" lon="12.239366561779468"><ele>136.0</ele><time>2026-04-27T03:16:14.999Z</time></trkpt><trkpt lat="45.946545244987604" lon="12.23927287059275"><ele>136.0</ele><time>2026-04-27T03:16:15.999Z</time></trkpt><trkpt lat="45.94670496733802" lon="12.239171170175505"><ele>136.66666666666669</ele><time>2026-04-27T03:16:16.999Z</time></trkpt><trkpt lat="45.94686111340434" lon="12.23906007191632"><ele>137.33333333333334</ele><time>2026-04-27T03:16:17.999Z</time></trkpt><trkpt lat="45.94701359957954" lon="12.238942949816987"><ele>138.0</ele><time>2026-04-27T03:16:18.999Z</time></trkpt><trkpt lat="45.94716370574726" lon="12.23882040448716"><ele>138.0</ele><time>2026-04-27T03:16:19.999Z</time></trkpt><trkpt lat="45.94731344651177" lon="12.2386962294897"><ele>138.0</ele><time>2026-04-27T03:16:21Z</time></trkpt><trkpt lat="45.947460881142256" lon="12.238571615426482"><ele>138.0</ele><time>2026-04-27T03:16:22Z</time></trkpt><trkpt lat="45.94760669122183" lon="12.238446860984295"><ele>138.33333333333334</ele><time>2026-04-27T03:16:23Z</time></trkpt><trkpt lat="45.94775194665586" lon="12.238321289434696"><ele>138.66666666666669</ele><time>2026-04-27T03:16:24Z</time></trkpt><trkpt lat="45.94789705680901" lon="12.238196701238204"><ele>139.0</ele><time>2026-04-27T03:16:25Z</time></trkpt><trkpt lat="45.94804154030755" lon="12.23807350196071"><ele>139.33333333333334</ele><time>2026-04-27T03:16:26Z</time></trkpt><trkpt lat="45.94818531872763" lon="12.237949454565705"><ele>139.66666666666666</ele><time>2026-04-27T03:16:27Z</time></trkpt><trkpt lat="45.94832817071851" lon="12.237827306979067"><ele>140.0</ele><time>2026-04-27T03:16:28Z</time></trkpt><trkpt lat="45.94847089277754" lon="12.237705357709746"><ele>141.33333333333331</ele><time>2026-04-27T03:16:29Z</time></trkpt><trkpt lat="45.9486124211098" lon="12.237582331362484"><ele>142.66666666666666</ele><time>2026-04-27T03:16:30Z</time></trkpt><trkpt lat="45.94875362429882" lon="12.23746230425412"><ele>144.0</ele><time>2026-04-27T03:16:31Z</time></trkpt><trkpt lat="45.948893995368266" lon="12.237343029739824"><ele>144.66666666666666</ele><time>2026-04-27T03:16:32Z</time></trkpt><trkpt lat="45.949034879265824" lon="12.23722357922367"><ele>145.33333333333331</ele><time>2026-04-27T03:16:33Z</time></trkpt><trkpt lat="45.94917403073744" lon="12.237104464708716"><ele>146.0</ele><time>2026-04-27T03:16:34Z</time></trkpt><trkpt lat="45.94930790374641" lon="12.236989220702458"><ele>146.5</ele><time>2026-04-27T03:16:35Z</time></trkpt><trkpt lat="45.94943418297054" lon="12.236882223707838"><ele>147.0</ele><time>2026-04-27T03:16:36Z</time></trkpt><trkpt lat="45.949553894078626" lon="12.236784419200937"><ele>147.5</ele><time>2026-04-27T03:16:37Z</time></trkpt><trkpt lat="45.94967789974754" lon="12.236704791045858"><ele>148.0</ele><time>2026-04-27T03:16:38Z</time></trkpt><trkpt lat="45.94980805109076" lon="12.236636882880012"><ele>148.0</ele><time>2026-04-27T03:16:39Z</time></trkpt><trkpt lat="45.94993604818694" lon="12.236557412237984"><ele>148.0</ele><time>2026-04-27T03:16:40Z</time></trkpt><trkpt lat="45.95006233317143" lon="12.236471638590329"><ele>148.0</ele><time>2026-04-27T03:16:41Z</time></trkpt><trkpt lat="45.9501910090337" lon="12.236388917934946"><ele>148.0</ele><time>2026-04-27T03:16:42Z</time></trkpt><trkpt lat="45.950322932918986" lon="12.236310201536835"><ele>148.5</ele><time>2026-04-27T03:16:43Z</time></trkpt><trkpt lat="45.95045720976461" lon="12.236233926067172"><ele>149.0</ele><time>2026-04-27T03:16:44Z</time></trkpt><trkpt lat="45.95059005344251" lon="12.236159886517674"><ele>149.5</ele><time>2026-04-27T03:16:45Z</time></trkpt><trkpt lat="45.95072626360952" lon="12.236082992257279"><ele>150.0</ele><time>2026-04-27T03:16:46Z</time></trkpt><trkpt lat="45.95086285781257" lon="12.236010658128391"><ele>150.0</ele><time>2026-04-27T03:16:47Z</time></trkpt><trkpt lat="45.95099851416313" lon="12.235928640968691"><ele>150.0</ele><time>2026-04-27T03:16:48Z</time></trkpt><trkpt lat="45.9511264619191" lon="12.235820608667026"><ele>150.0</ele><time>2026-04-27T03:16:49Z</time></trkpt><trkpt lat="45.951245366667365" lon="12.235694957197914"><ele>150.0</ele><time>2026-04-27T03:16:50Z</time></trkpt><trkpt lat="45.95136902496172" lon="12.23557014112871"><ele>150.5</ele><time>2026-04-27T03:16:51Z</time></trkpt><trkpt lat="45.95145810490817" lon="12.2353949837858"><ele>151.0</ele><time>2026-04-27T03:16:52Z</time></trkpt><trkpt lat="45.95155492488786" lon="12.235234088905855"><ele>151.5</ele><time>2026-04-27T03:16:53Z</time></trkpt><trkpt lat="45.95165161130366" lon="12.235072503067824"><ele>152.0</ele><time>2026-04-27T03:16:54Z</time></trkpt><trkpt lat="45.95175451797398" lon="12.234917388436884"><ele>153.0</ele><time>2026-04-27T03:16:55Z</time></trkpt><trkpt lat="45.95186933814541" lon="12.23477662206369"><ele>154.0</ele><time>2026-04-27T03:16:56Z</time></trkpt><trkpt lat="45.951993562603114" lon="12.234652090481465"><ele>155.0</ele><time>2026-04-27T03:16:57Z</time></trkpt><trkpt lat="45.95212313683621" lon="12.234537388980971"><ele>155.0</ele><time>2026-04-27T03:16:58Z</time></trkpt><trkpt lat="45.95225359071609" lon="12.234424890711367"><ele>155.0</ele><time>2026-04-27T03:16:59Z</time></trkpt><trkpt lat="45.95238591868862" lon="12.2343137262904"><ele>155.0</ele><time>2026-04-27T03:17:00Z</time></trkpt><trkpt lat="45.95251633031768" lon="12.234201546638484"><ele>155.66666666666666</ele><time>2026-04-27T03:17:01Z</time></trkpt><trkpt lat="45.952645019962134" lon="12.234084583547547"><ele>156.33333333333334</ele><time>2026-04-27T03:17:02Z</time></trkpt><trkpt lat="45.952772140399375" lon="12.233967140683696"><ele>157.0</ele><time>2026-04-27T03:17:03Z</time></trkpt><trkpt lat="45.9528990859925" lon="12.233849702195629"><ele>157.0</ele><time>2026-04-27T03:17:04Z</time></trkpt><trkpt lat="45.95302779215914" lon="12.23373678816551"><ele>157.0</ele><time>2026-04-27T03:17:05Z</time></trkpt><trkpt lat="45.95315816125171" lon="12.233626394585613"><ele>157.0</ele><time>2026-04-27T03:17:06Z</time></trkpt><trkpt lat="45.953289873012224" lon="12.233519145440733"><ele>156.0</ele><time>2026-04-27T03:17:07Z</time></trkpt><trkpt lat="45.95342462621447" lon="12.233416339934363"><ele>155.0</ele><time>2026-04-27T03:17:08Z</time></trkpt><trkpt lat="45.953561156996194" lon="12.23331291548059"><ele>154.0</ele><time>2026-04-27T03:17:09Z</time></trkpt><trkpt lat="45.9536973920875" lon="12.233201161843757"><ele>157.0</ele><time>2026-04-27T03:17:10Z</time></trkpt><trkpt lat="45.953832908761214" lon="12.233086318592541"><ele>160.0</ele><time>2026-04-27T03:17:11Z</time></trkpt><trkpt lat="45.95397018189457" lon="12.232968302691669"><ele>163.0</ele><time>2026-04-27T03:17:12Z</time></trkpt><trkpt lat="45.95411033877471" lon="12.232848604515409"><ele>160.33333333333334</ele><time>2026-04-27T03:17:13Z</time></trkpt><trkpt lat="45.954251626146366" lon="12.232727171660544"><ele>157.66666666666666</ele><time>2026-04-27T03:17:14Z</time></trkpt><trkpt lat="45.954393084902605" lon="12.232602665338772"><ele>155.0</ele><time>2026-04-27T03:17:15Z</time></trkpt><trkpt lat="45.954532459319545" lon="12.232468466208605"><ele>155.0</ele><time>2026-04-27T03:17:16Z</time></trkpt><trkpt lat="45.95466733913036" lon="12.232320971615525"><ele>155.0</ele><time>2026-04-27T03:17:17Z</time></trkpt><trkpt lat="45.9547988537303" lon="12.232164742281055"><ele>155.0</ele><time>2026-04-27T03:17:18Z</time></trkpt><trkpt lat="45.95492942488334" lon="12.232003612024574"><ele>154.66666666666666</ele><time>2026-04-27T03:17:19Z</time></trkpt><trkpt lat="45.95505961556072" lon="12.231840264774773"><ele>154.33333333333334</ele><time>2026-04-27T03:17:20Z</time></trkpt><trkpt lat="45.95518981223682" lon="12.23167674196894"><ele>154.0</ele><time>2026-04-27T03:17:21Z</time></trkpt><trkpt lat="45.95532016846241" lon="12.231511033140356"><ele>157.66666666666669</ele><time>2026-04-27T03:17:22Z</time></trkpt><trkpt lat="45.95545160199914" lon="12.231346078602128"><ele>161.33333333333334</ele><time>2026-04-27T03:17:23Z</time></trkpt><trkpt lat="45.95558323004584" lon="12.231181112568246"><ele>165.0</ele><time>2026-04-27T03:17:24Z</time></trkpt><trkpt lat="45.9557181504674" lon="12.231019147926906"><ele>165.0</ele><time>2026-04-27T03:17:25Z</time></trkpt><trkpt lat="45.95585201441703" lon="12.230856255573006"><ele>165.0</ele><time>2026-04-27T03:17:26Z</time></trkpt><trkpt lat="45.955989242454315" lon="12.23069802748928"><ele>165.0</ele><time>2026-04-27T03:17:27Z</time></trkpt><trkpt lat="45.95612428072864" lon="12.23053805151555"><ele>165.33333333333334</ele><time>2026-04-27T03:17:28Z</time></trkpt><trkpt lat="45.95625536449536" lon="12.230372040130307"><ele>165.66666666666669</ele><time>2026-04-27T03:17:29Z</time></trkpt><trkpt lat="45.95638370848516" lon="12.230201842753207"><ele>166.0</ele><time>2026-04-27T03:17:30Z</time></trkpt><trkpt lat="45.95651056604136" lon="12.230030278447424"><ele>166.0</ele><time>2026-04-27T03:17:31Z</time></trkpt><trkpt lat="45.95663733882696" lon="12.229858551629496"><ele>166.0</ele><time>2026-04-27T03:17:32Z</time></trkpt><trkpt lat="45.95676309744552" lon="12.229685098302088"><ele>166.0</ele><time>2026-04-27T03:17:33Z</time></trkpt><trkpt lat="45.95688482578617" lon="12.229501766997945"><ele>165.0</ele><time>2026-04-27T03:17:34Z</time></trkpt><trkpt lat="45.95700083555798" lon="12.229315670310992"><ele>164.0</ele><time>2026-04-27T03:17:35Z</time></trkpt><trkpt lat="45.95711565244205" lon="12.229125989797572"><ele>163.0</ele><time>2026-04-27T03:17:36Z</time></trkpt><trkpt lat="45.95722770674974" lon="12.228932553427011"><ele>163.33333333333334</ele><time>2026-04-27T03:17:37Z</time></trkpt><trkpt lat="45.9573363914348" lon="12.228737410883088"><ele>163.66666666666666</ele><time>2026-04-27T03:17:38Z</time></trkpt><trkpt lat="45.957446608784664" lon="12.22854230229286"><ele>164.0</ele><time>2026-04-27T03:17:39Z</time></trkpt><trkpt lat="45.957555081033306" lon="12.228346707660151"><ele>164.0</ele><time>2026-04-27T03:17:40Z</time></trkpt><trkpt lat="45.957666619391894" lon="12.228153692295836"><ele>164.0</ele><time>2026-04-27T03:17:41Z</time></trkpt><trkpt lat="45.957779628076494" lon="12.227959837787076"><ele>164.0</ele><time>2026-04-27T03:17:42Z</time></trkpt><trkpt lat="45.95789173598524" lon="12.227766974183877"><ele>165.0</ele><time>2026-04-27T03:17:43Z</time></trkpt><trkpt lat="45.958003070125265" lon="12.22757201536566"><ele>166.0</ele><time>2026-04-27T03:17:44Z</time></trkpt><trkpt lat="45.95812433279829" lon="12.22739028761154"><ele>167.0</ele><time>2026-04-27T03:17:45Z</time></trkpt><trkpt lat="45.95825617922192" lon="12.22723066495109"><ele>168.33333333333331</ele><time>2026-04-27T03:17:46Z</time></trkpt><trkpt lat="45.95839692639931" lon="12.22708627185957"><ele>169.66666666666666</ele><time>2026-04-27T03:17:47Z</time></trkpt><trkpt lat="45.95854656216441" lon="12.22695516514043"><ele>171.0</ele><time>2026-04-27T03:17:47.999Z</time></trkpt><trkpt lat="45.958699198074086" lon="12.226835527708893"><ele>171.0</ele><time>2026-04-27T03:17:48.999Z</time></trkpt><trkpt lat="45.95885110051713" lon="12.22671662002116"><ele>171.0</ele><time>2026-04-27T03:17:49.999Z</time></trkpt><trkpt lat="45.95900124746048" lon="12.226596667118216"><ele>171.0</ele><time>2026-04-27T03:17:50.999Z</time></trkpt><trkpt lat="45.959151446817934" lon="12.22647936492612"><ele>174.0</ele><time>2026-04-27T03:17:51.999Z</time></trkpt><trkpt lat="45.959301990229925" lon="12.226362506190895"><ele>177.0</ele><time>2026-04-27T03:17:52.999Z</time></trkpt><trkpt lat="45.9594488629508" lon="12.226245876230003"><ele>180.0</ele><time>2026-04-27T03:17:53.999Z</time></trkpt><trkpt lat="45.9595940082499" lon="12.226132098207337"><ele>180.0</ele><time>2026-04-27T03:17:54.999Z</time></trkpt><trkpt lat="45.959739186232355" lon="12.226019406282521"><ele>180.0</ele><time>2026-04-27T03:17:55.999Z</time></trkpt><trkpt lat="45.959888223518576" lon="12.22592292617844"><ele>180.0</ele><time>2026-04-27T03:17:56.999Z</time></trkpt><trkpt lat="45.96004333835601" lon="12.22585339086271"><ele>183.0</ele><time>2026-04-27T03:17:57.999Z</time></trkpt><trkpt lat="45.960203017022636" lon="12.225821314201575"><ele>186.0</ele><time>2026-04-27T03:17:58.999Z</time></trkpt><trkpt lat="45.96036250568675" lon="12.22581230772849"><ele>189.0</ele><time>2026-04-27T03:17:59.999Z</time></trkpt><trkpt lat="45.9605206079497" lon="12.225809095783783"><ele>189.0</ele><time>2026-04-27T03:18:00.999Z</time></trkpt><trkpt lat="45.96067707667993" lon="12.22580622878559"><ele>189.0</ele><time>2026-04-27T03:18:01.999Z</time></trkpt><trkpt lat="45.96083369033077" lon="12.225806656081922"><ele>189.0</ele><time>2026-04-27T03:18:02.999Z</time></trkpt><trkpt lat="45.96099127677058" lon="12.225805821534369"><ele>191.0</ele><time>2026-04-27T03:18:03.999Z</time></trkpt><trkpt lat="45.96114784366003" lon="12.225810103927646"><ele>193.0</ele><time>2026-04-27T03:18:04.999Z</time></trkpt><trkpt lat="45.961308356081695" lon="12.225811457386653"><ele>195.0</ele><time>2026-04-27T03:18:05.999Z</time></trkpt><trkpt lat="45.961468177535174" lon="12.225814329155776"><ele>195.0</ele><time>2026-04-27T03:18:06.999Z</time></trkpt><trkpt lat="45.96162943779842" lon="12.225815316055128"><ele>195.0</ele><time>2026-04-27T03:18:07.999Z</time></trkpt><trkpt lat="45.96179313732534" lon="12.225817510223044"><ele>195.0</ele><time>2026-04-27T03:18:08.999Z</time></trkpt><trkpt lat="45.961955735441606" lon="12.22581852582385"><ele>197.0</ele><time>2026-04-27T03:18:09.999Z</time></trkpt><trkpt lat="45.96211978103396" lon="12.225819423580921"><ele>199.0</ele><time>2026-04-27T03:18:10.999Z</time></trkpt><trkpt lat="45.96228349748713" lon="12.225819494479843"><ele>201.0</ele><time>2026-04-27T03:18:11.999Z</time></trkpt><trkpt lat="45.962448724475784" lon="12.225818430729223"><ele>202.0</ele><time>2026-04-27T03:18:12.999Z</time></trkpt><trkpt lat="45.96261337354799" lon="12.225821280551497"><ele>203.0</ele><time>2026-04-27T03:18:13.999Z</time></trkpt><trkpt lat="45.9627773167009" lon="12.22582201757401"><ele>204.0</ele><time>2026-04-27T03:18:14.999Z</time></trkpt><trkpt lat="45.96294262595778" lon="12.225823883814398"><ele>204.0</ele><time>2026-04-27T03:18:15.999Z</time></trkpt><trkpt lat="45.96310759600786" lon="12.225824603068842"><ele>204.0</ele><time>2026-04-27T03:18:16.999Z</time></trkpt><trkpt lat="45.9632721123102" lon="12.225827035412243"><ele>204.0</ele><time>2026-04-27T03:18:17.999Z</time></trkpt><trkpt lat="45.96343531010053" lon="12.22582561096931"><ele>204.33333333333331</ele><time>2026-04-27T03:18:18.999Z</time></trkpt><trkpt lat="45.96359731895646" lon="12.225824237057886"><ele>204.66666666666666</ele><time>2026-04-27T03:18:19.999Z</time></trkpt><trkpt lat="45.963758783041484" lon="12.225823072695684"><ele>205.0</ele><time>2026-04-27T03:18:20.999Z</time></trkpt><trkpt lat="45.96391887147674" lon="12.225822635508036"><ele>205.0</ele><time>2026-04-27T03:18:21.999Z</time></trkpt><trkpt lat="45.964078929871455" lon="12.225822262125"><ele>205.0</ele><time>2026-04-27T03:18:22.999Z</time></trkpt><trkpt lat="45.964236951946624" lon="12.225824212078795"><ele>205.0</ele><time>2026-04-27T03:18:23.999Z</time></trkpt><trkpt lat="45.96439475070258" lon="12.225825149376515"><ele>206.25</ele><time>2026-04-27T03:18:24.999Z</time></trkpt><trkpt lat="45.96455196688629" lon="12.225822980533524"><ele>207.5</ele><time>2026-04-27T03:18:25.999Z</time></trkpt><trkpt lat="45.96470538691133" lon="12.225819624737218"><ele>208.75</ele><time>2026-04-27T03:18:27Z</time></trkpt><trkpt lat="45.96484370701622" lon="12.225820350682865"><ele>210.0</ele><time>2026-04-27T03:18:28Z</time></trkpt><trkpt lat="45.96496898105475" lon="12.225849485235678"><ele>214.0</ele><time>2026-04-27T03:18:29Z</time></trkpt><trkpt lat="45.965098229300715" lon="12.225931223351676"><ele>218.0</ele><time>2026-04-27T03:18:30Z</time></trkpt><trkpt lat="45.96516416860617" lon="12.226042792384382"><ele>222.0</ele><time>2026-04-27T03:18:31Z</time></trkpt><trkpt lat="45.96521799856778" lon="12.226196612612021"><ele>226.0</ele><time>2026-04-27T03:18:32Z</time></trkpt><trkpt lat="45.9652007646107" lon="12.226370961794796"><ele>227.0</ele><time>2026-04-27T03:18:33Z</time></trkpt><trkpt lat="45.96518290163697" lon="12.226530559445756"><ele>228.0</ele><time>2026-04-27T03:18:34Z</time></trkpt><trkpt lat="45.96511804928182" lon="12.226680210460726"><ele>229.0</ele><time>2026-04-27T03:18:35Z</time></trkpt><trkpt lat="45.9650493053143" lon="12.226829918970786"><ele>230.0</ele><time>2026-04-27T03:18:36Z</time></trkpt><trkpt lat="45.964993564398966" lon="12.226991457593703"><ele>227.0</ele><time>2026-04-27T03:18:37Z</time></trkpt><trkpt lat="45.96495029341856" lon="12.227166938402572"><ele>224.0</ele><time>2026-04-27T03:18:38Z</time></trkpt><trkpt lat="45.96492290090885" lon="12.227352068041657"><ele>221.0</ele><time>2026-04-27T03:18:39Z</time></trkpt><trkpt lat="45.96490992207288" lon="12.22754371748114"><ele>218.0</ele><time>2026-04-27T03:18:40Z</time></trkpt><trkpt lat="45.964911976547775" lon="12.22773890615"><ele>218.0</ele><time>2026-04-27T03:18:41Z</time></trkpt><trkpt lat="45.964930690062666" lon="12.227934419385742"><ele>218.0</ele><time>2026-04-27T03:18:42Z</time></trkpt><trkpt lat="45.96497393437352" lon="12.228124409517337"><ele>218.0</ele><time>2026-04-27T03:18:43Z</time></trkpt><trkpt lat="45.96503504284307" lon="12.228305872589964"><ele>218.0</ele><time>2026-04-27T03:18:44Z</time></trkpt><trkpt lat="45.96511027913093" lon="12.22847870052905"><ele>222.25</ele><time>2026-04-27T03:18:45Z</time></trkpt><trkpt lat="45.96519874848006" lon="12.228639198145661"><ele>226.5</ele><time>2026-04-27T03:18:46Z</time></trkpt><trkpt lat="45.9652924735465" lon="12.228794332423107"><ele>230.75</ele><time>2026-04-27T03:18:47Z</time></trkpt><trkpt lat="45.965386604922436" lon="12.228949559141872"><ele>235.0</ele><time>2026-04-27T03:18:48Z</time></trkpt><trkpt lat="45.96548143888507" lon="12.22910750619411"><ele>235.0</ele><time>2026-04-27T03:18:49Z</time></trkpt><trkpt lat="45.96557741299593" lon="12.229266316113911"><ele>235.0</ele><time>2026-04-27T03:18:50Z</time></trkpt><trkpt lat="45.96568616282795" lon="12.229412118033151"><ele>235.0</ele><time>2026-04-27T03:18:51Z</time></trkpt><trkpt lat="45.965804988656366" lon="12.229542009530679"><ele>235.0</ele><time>2026-04-27T03:18:52Z</time></trkpt><trkpt lat="45.96593046102968" lon="12.22965842337538"><ele>233.33333333333331</ele><time>2026-04-27T03:18:53Z</time></trkpt><trkpt lat="45.966066326820766" lon="12.229759051380562"><ele>231.66666666666669</ele><time>2026-04-27T03:18:54Z</time></trkpt><trkpt lat="45.966209557581195" lon="12.229836956273013"><ele>230.0</ele><time>2026-04-27T03:18:55Z</time></trkpt><trkpt lat="45.96635656369258" lon="12.229905038066713"><ele>230.0</ele><time>2026-04-27T03:18:56Z</time></trkpt><trkpt lat="45.966508474490105" lon="12.229960636076482"><ele>230.0</ele><time>2026-04-27T03:18:57Z</time></trkpt><trkpt lat="45.966662455765174" lon="12.230006242169125"><ele>230.0</ele><time>2026-04-27T03:18:58Z</time></trkpt><trkpt lat="45.966818804285396" lon="12.230040467675357"><ele>231.66666666666669</ele><time>2026-04-27T03:18:59Z</time></trkpt><trkpt lat="45.966976668372865" lon="12.2300657554393"><ele>233.33333333333331</ele><time>2026-04-27T03:19:00Z</time></trkpt><trkpt lat="45.96713461790876" lon="12.230081815569175"><ele>235.0</ele><time>2026-04-27T03:19:01Z</time></trkpt><trkpt lat="45.967292905122356" lon="12.230081023627411"><ele>235.0</ele><time>2026-04-27T03:19:02Z</time></trkpt><trkpt lat="45.96744926998429" lon="12.23005881418648"><ele>235.0</ele><time>2026-04-27T03:19:03Z</time></trkpt><trkpt lat="45.96760368428992" lon="12.230024027981745"><ele>235.0</ele><time>2026-04-27T03:19:04Z</time></trkpt><trkpt lat="45.96775619675509" lon="12.229977266009119"><ele>236.75</ele><time>2026-04-27T03:19:05Z</time></trkpt><trkpt lat="45.96790856653886" lon="12.229938966962887"><ele>238.5</ele><time>2026-04-27T03:19:06Z</time></trkpt><trkpt lat="45.96805453082038" lon="12.229934908912135"><ele>240.25</ele><time>2026-04-27T03:19:07Z</time></trkpt><trkpt lat="45.96816995740832" lon="12.229979713757425"><ele>242.0</ele><time>2026-04-27T03:19:08Z</time></trkpt><trkpt lat="45.96827273472399" lon="12.230089515466652"><ele>242.0</ele><time>2026-04-27T03:19:09Z</time></trkpt><trkpt lat="45.968327503433564" lon="12.230245889980822"><ele>242.0</ele><time>2026-04-27T03:19:10Z</time></trkpt><trkpt lat="45.96834740897634" lon="12.230416902329447"><ele>242.0</ele><time>2026-04-27T03:19:11Z</time></trkpt><trkpt lat="45.96835881831953" lon="12.230595438857264"><ele>242.0</ele><time>2026-04-27T03:19:12Z</time></trkpt><trkpt lat="45.96840608745378" lon="12.230761474677909"><ele>245.0</ele><time>2026-04-27T03:19:13Z</time></trkpt><trkpt lat="45.96847698964684" lon="12.230909779993247"><ele>248.0</ele><time>2026-04-27T03:19:14Z</time></trkpt><trkpt lat="45.968571654281476" lon="12.231037248501949"><ele>251.0</ele><time>2026-04-27T03:19:15Z</time></trkpt><trkpt lat="45.968685313972614" lon="12.231131663867423"><ele>254.0</ele><time>2026-04-27T03:19:16Z</time></trkpt><trkpt lat="45.968812028535304" lon="12.23118634373045"><ele>254.0</ele><time>2026-04-27T03:19:17Z</time></trkpt><trkpt lat="45.968942890212816" lon="12.231213720596141"><ele>254.0</ele><time>2026-04-27T03:19:18Z</time></trkpt><trkpt lat="45.969071615526836" lon="12.23124867916873"><ele>254.0</ele><time>2026-04-27T03:19:19Z</time></trkpt><trkpt lat="45.96919333744559" lon="12.231310004196574"><ele>254.0</ele><time>2026-04-27T03:19:20Z</time></trkpt><trkpt lat="45.96928517157596" lon="12.231427142907458"><ele>255.75</ele><time>2026-04-27T03:19:21Z</time></trkpt><trkpt lat="45.969335463750966" lon="12.231570610313295"><ele>257.5</ele><time>2026-04-27T03:19:22Z</time></trkpt><trkpt lat="45.96933210463013" lon="12.231737729520594"><ele>259.25</ele><time>2026-04-27T03:19:23Z</time></trkpt><trkpt lat="45.969296064828" lon="12.231890025239794"><ele>261.0</ele><time>2026-04-27T03:19:24Z</time></trkpt><trkpt lat="45.96927033948695" lon="12.23205095090697"><ele>261.0</ele><time>2026-04-27T03:19:25Z</time></trkpt><trkpt lat="45.96928294510197" lon="12.232207904107657"><ele>261.0</ele><time>2026-04-27T03:19:26Z</time></trkpt><trkpt lat="45.969331166458986" lon="12.232358275233901"><ele>261.0</ele><time>2026-04-27T03:19:27Z</time></trkpt><trkpt lat="45.96941152532906" lon="12.232487815881887"><ele>261.0</ele><time>2026-04-27T03:19:28Z</time></trkpt><trkpt lat="45.969499576813504" lon="12.232602918383028"><ele>260.25</ele><time>2026-04-27T03:19:29Z</time></trkpt><trkpt lat="45.96959889670229" lon="12.232713857923049"><ele>259.5</ele><time>2026-04-27T03:19:30Z</time></trkpt><trkpt lat="45.969703874504994" lon="12.232831124157652"><ele>258.75</ele><time>2026-04-27T03:19:31Z</time></trkpt><trkpt lat="45.969814656533686" lon="12.232950356506187"><ele>258.0</ele><time>2026-04-27T03:19:32Z</time></trkpt><trkpt lat="45.96992740681203" lon="12.233074321361968"><ele>258.25</ele><time>2026-04-27T03:19:33Z</time></trkpt><trkpt lat="45.970041535880384" lon="12.233200521007717"><ele>258.5</ele><time>2026-04-27T03:19:34Z</time></trkpt><trkpt lat="45.97015608861426" lon="12.233331414079423"><ele>258.75</ele><time>2026-04-27T03:19:35Z</time></trkpt><trkpt lat="45.97027419378731" lon="12.233462269734128"><ele>259.0</ele><time>2026-04-27T03:19:36Z</time></trkpt><trkpt lat="45.97039302646111" lon="12.233591094912892"><ele>259.0</ele><time>2026-04-27T03:19:37Z</time></trkpt><trkpt lat="45.97051608300253" lon="12.23370541234123"><ele>259.0</ele><time>2026-04-27T03:19:38Z</time></trkpt><trkpt lat="45.97064559003092" lon="12.233795024770435"><ele>259.0</ele><time>2026-04-27T03:19:39Z</time></trkpt><trkpt lat="45.97077835946375" lon="12.233873289055914"><ele>259.0</ele><time>2026-04-27T03:19:40Z</time></trkpt><trkpt lat="45.97091613638493" lon="12.233927447050391"><ele>259.75</ele><time>2026-04-27T03:19:41Z</time></trkpt><trkpt lat="45.971055542653524" lon="12.233966677186134"><ele>260.5</ele><time>2026-04-27T03:19:42Z</time></trkpt><trkpt lat="45.971195071820304" lon="12.23398743453315"><ele>261.25</ele><time>2026-04-27T03:19:43Z</time></trkpt><trkpt lat="45.971337496048534" lon="12.23399316309389"><ele>262.0</ele><time>2026-04-27T03:19:43.999Z</time></trkpt><trkpt lat="45.971480275906046" lon="12.233969881352762"><ele>262.0</ele><time>2026-04-27T03:19:44.999Z</time></trkpt><trkpt lat="45.97161951600489" lon="12.233929887827705"><ele>262.0</ele><time>2026-04-27T03:19:45.999Z</time></trkpt><trkpt lat="45.97175635949975" lon="12.23386778464055"><ele>262.0</ele><time>2026-04-27T03:19:46.999Z</time></trkpt><trkpt lat="45.97188962386486" lon="12.233784528399447"><ele>262.0</ele><time>2026-04-27T03:19:47.999Z</time></trkpt><trkpt lat="45.972015301411076" lon="12.233672689090506"><ele>264.66666666666663</ele><time>2026-04-27T03:19:48.999Z</time></trkpt><trkpt lat="45.972132828585735" lon="12.233535016684568"><ele>267.3333333333333</ele><time>2026-04-27T03:19:49.999Z</time></trkpt><trkpt lat="45.97223749796153" lon="12.233374364739408"><ele>270.0</ele><time>2026-04-27T03:19:50.999Z</time></trkpt><trkpt lat="45.97233579310551" lon="12.233200617250516"><ele>271.3333333333333</ele><time>2026-04-27T03:19:51.999Z</time></trkpt><trkpt lat="45.97243906015898" lon="12.233023664623222"><ele>272.66666666666663</ele><time>2026-04-27T03:19:52.999Z</time></trkpt><trkpt lat="45.972548118972014" lon="12.232852929137996"><ele>274.0</ele><time>2026-04-27T03:19:53.999Z</time></trkpt><trkpt lat="45.972653786260146" lon="12.232681210518916"><ele>274.0</ele><time>2026-04-27T03:19:54.999Z</time></trkpt><trkpt lat="45.97275977504802" lon="12.232517963476495"><ele>274.0</ele><time>2026-04-27T03:19:55.999Z</time></trkpt><trkpt lat="45.97286593809732" lon="12.232358689357447"><ele>274.0</ele><time>2026-04-27T03:19:56.999Z</time></trkpt><trkpt lat="45.97297829836474" lon="12.23220118833255"><ele>272.66666666666663</ele><time>2026-04-27T03:19:57.999Z</time></trkpt><trkpt lat="45.97309310084803" lon="12.232053762023442"><ele>271.3333333333333</ele><time>2026-04-27T03:19:58.999Z</time></trkpt><trkpt lat="45.97321657307327" lon="12.231915891928631"><ele>270.0</ele><time>2026-04-27T03:19:59.999Z</time></trkpt><trkpt lat="45.97334260779437" lon="12.231781927543494"><ele>270.0</ele><time>2026-04-27T03:20:00.999Z</time></trkpt><trkpt lat="45.973471829396566" lon="12.231647558414261"><ele>270.0</ele><time>2026-04-27T03:20:01.999Z</time></trkpt><trkpt lat="45.973603861060866" lon="12.231520571837441"><ele>270.0</ele><time>2026-04-27T03:20:02.999Z</time></trkpt><trkpt lat="45.97374359220871" lon="12.231407939746058"><ele>270.0</ele><time>2026-04-27T03:20:03.999Z</time></trkpt><trkpt lat="45.97389146039262" lon="12.231314982179958"><ele>270.0</ele><time>2026-04-27T03:20:04.999Z</time></trkpt><trkpt lat="45.974045155661315" lon="12.231240551939047"><ele>270.0</ele><time>2026-04-27T03:20:05.999Z</time></trkpt><trkpt lat="45.97420203445956" lon="12.231186072101586"><ele>270.0</ele><time>2026-04-27T03:20:06.999Z</time></trkpt><trkpt lat="45.97436386238729" lon="12.231161155524058"><ele>270.0</ele><time>2026-04-27T03:20:07.999Z</time></trkpt><trkpt lat="45.97452819624122" lon="12.231156516112545"><ele>270.0</ele><time>2026-04-27T03:20:08.999Z</time></trkpt><trkpt lat="45.97469385436159" lon="12.231156540003512"><ele>270.0</ele><time>2026-04-27T03:20:09.999Z</time></trkpt><trkpt lat="45.974858696359945" lon="12.231153548830886"><ele>270.0</ele><time>2026-04-27T03:20:10.999Z</time></trkpt><trkpt lat="45.97502617588468" lon="12.231147883554106"><ele>270.0</ele><time>2026-04-27T03:20:11.999Z</time></trkpt><trkpt lat="45.97519604248466" lon="12.231145490434956"><ele>271.3333333333333</ele><time>2026-04-27T03:20:12.999Z</time></trkpt><trkpt lat="45.97536766977601" lon="12.23113492529215"><ele>272.66666666666663</ele><time>2026-04-27T03:20:13.999Z</time></trkpt><trkpt lat="45.9755391194709" lon="12.231121712197423"><ele>274.0</ele><time>2026-04-27T03:20:14.999Z</time></trkpt><trkpt lat="45.97571123633502" lon="12.23110262355757"><ele>274.3333333333333</ele><time>2026-04-27T03:20:15.999Z</time></trkpt><trkpt lat="45.97588424477681" lon="12.23107923223777"><ele>274.6666666666667</ele><time>2026-04-27T03:20:16.999Z</time></trkpt><trkpt lat="45.976057527721935" lon="12.231055809534428"><ele>275.0</ele><time>2026-04-27T03:20:17.999Z</time></trkpt><trkpt lat="45.97623418141308" lon="12.231031342950521"><ele>275.0</ele><time>2026-04-27T03:20:18.999Z</time></trkpt><trkpt lat="45.97641174943871" lon="12.231008803218007"><ele>275.0</ele><time>2026-04-27T03:20:19.999Z</time></trkpt><trkpt lat="45.97658981259278" lon="12.23098455031779"><ele>275.0</ele><time>2026-04-27T03:20:20.999Z</time></trkpt><trkpt lat="45.97676792982781" lon="12.230962129800854"><ele>276.0</ele><time>2026-04-27T03:20:21.999Z</time></trkpt><trkpt lat="45.976944551844795" lon="12.230938583477057"><ele>277.0</ele><time>2026-04-27T03:20:22.999Z</time></trkpt><trkpt lat="45.97712104405705" lon="12.230916744535552"><ele>278.0</ele><time>2026-04-27T03:20:23.999Z</time></trkpt><trkpt lat="45.97729810844087" lon="12.230892206427674"><ele>278.0</ele><time>2026-04-27T03:20:24.999Z</time></trkpt><trkpt lat="45.977475169057094" lon="12.23086850028091"><ele>278.0</ele><time>2026-04-27T03:20:25.999Z</time></trkpt><trkpt lat="45.977652124044816" lon="12.230842223745588"><ele>278.0</ele><time>2026-04-27T03:20:26.999Z</time></trkpt><trkpt lat="45.97782888163898" lon="12.230818991795232"><ele>278.33333333333337</ele><time>2026-04-27T03:20:27.999Z</time></trkpt><trkpt lat="45.97800388734609" lon="12.230796973914424"><ele>278.6666666666667</ele><time>2026-04-27T03:20:28.999Z</time></trkpt><trkpt lat="45.978178639071906" lon="12.230775539804071"><ele>279.0</ele><time>2026-04-27T03:20:29.999Z</time></trkpt><trkpt lat="45.97835391714773" lon="12.230755694575313"><ele>280.3333333333333</ele><time>2026-04-27T03:20:30.999Z</time></trkpt><trkpt lat="45.97852861635207" lon="12.230729750593708"><ele>281.66666666666663</ele><time>2026-04-27T03:20:31.999Z</time></trkpt><trkpt lat="45.97869554361333" lon="12.230685515184653"><ele>283.0</ele><time>2026-04-27T03:20:33Z</time></trkpt><trkpt lat="45.978853611269095" lon="12.230620873276552"><ele>285.0</ele><time>2026-04-27T03:20:34Z</time></trkpt><trkpt lat="45.97899974904884" lon="12.23053463455707"><ele>287.0</ele><time>2026-04-27T03:20:35Z</time></trkpt><trkpt lat="45.979136425094616" lon="12.230430238386395"><ele>289.0</ele><time>2026-04-27T03:20:36Z</time></trkpt><trkpt lat="45.97926320357444" lon="12.230314669513843"><ele>285.5</ele><time>2026-04-27T03:20:37Z</time></trkpt><trkpt lat="45.979384347945754" lon="12.230186843205479"><ele>282.0</ele><time>2026-04-27T03:20:38Z</time></trkpt><trkpt lat="45.979501683783404" lon="12.230066805903354"><ele>278.5</ele><time>2026-04-27T03:20:39Z</time></trkpt><trkpt lat="45.97960936682201" lon="12.229954144017233"><ele>275.0</ele><time>2026-04-27T03:20:40Z</time></trkpt><trkpt lat="45.97970270802219" lon="12.229846288672059"><ele>273.25</ele><time>2026-04-27T03:20:41Z</time></trkpt><trkpt lat="45.979790552480424" lon="12.229725480396715"><ele>271.5</ele><time>2026-04-27T03:20:42Z</time></trkpt><trkpt lat="45.97986964259679" lon="12.229600924158754"><ele>269.75</ele><time>2026-04-27T03:20:43Z</time></trkpt><trkpt lat="45.979888373815676" lon="12.229420941920338"><ele>268.0</ele><time>2026-04-27T03:20:44Z</time></trkpt><trkpt lat="45.9799039207371" lon="12.229254364456363"><ele>268.0</ele><time>2026-04-27T03:20:45Z</time></trkpt><trkpt lat="45.97987151736601" lon="12.229080066501895"><ele>268.0</ele><time>2026-04-27T03:20:46Z</time></trkpt><trkpt lat="45.979816017119084" lon="12.228920773300846"><ele>268.0</ele><time>2026-04-27T03:20:47Z</time></trkpt><trkpt lat="45.979729060693224" lon="12.228773879039656"><ele>268.0</ele><time>2026-04-27T03:20:48Z</time></trkpt><trkpt lat="45.97962773069649" lon="12.228639631133436"><ele>265.75</ele><time>2026-04-27T03:20:49Z</time></trkpt><trkpt lat="45.97952672909154" lon="12.228494482000777"><ele>263.5</ele><time>2026-04-27T03:20:50Z</time></trkpt><trkpt lat="45.979427643419086" lon="12.22833854228386"><ele>261.25</ele><time>2026-04-27T03:20:51Z</time></trkpt><trkpt lat="45.97933658367427" lon="12.228165412032482"><ele>259.0</ele><time>2026-04-27T03:20:52Z</time></trkpt><trkpt lat="45.97925356722255" lon="12.22797621217672"><ele>261.0</ele><time>2026-04-27T03:20:53Z</time></trkpt><trkpt lat="45.97918569975898" lon="12.227773395601243"><ele>263.0</ele><time>2026-04-27T03:20:54Z</time></trkpt><trkpt lat="45.979127970325" lon="12.22755626836293"><ele>265.0</ele><time>2026-04-27T03:20:55Z</time></trkpt><trkpt lat="45.9790768068608" lon="12.227331525945372"><ele>262.66666666666663</ele><time>2026-04-27T03:20:56Z</time></trkpt><trkpt lat="45.97902200767868" lon="12.227103788786424"><ele>260.3333333333333</ele><time>2026-04-27T03:20:57Z</time></trkpt><trkpt lat="45.97896659197501" lon="12.226874296805297"><ele>258.0</ele><time>2026-04-27T03:20:58Z</time></trkpt><trkpt lat="45.97891222610214" lon="12.226640865480567"><ele>256.3333333333333</ele><time>2026-04-27T03:20:59Z</time></trkpt><trkpt lat="45.97885425636793" lon="12.226406764329656"><ele>254.66666666666666</ele><time>2026-04-27T03:21:00Z</time></trkpt><trkpt lat="45.97879862596279" lon="12.226169337067864"><ele>253.0</ele><time>2026-04-27T03:21:01Z</time></trkpt><trkpt lat="45.97874449913688" lon="12.225927827504286"><ele>253.0</ele><time>2026-04-27T03:21:02Z</time></trkpt><trkpt lat="45.97869154554938" lon="12.225683584912892"><ele>253.0</ele><time>2026-04-27T03:21:03Z</time></trkpt><trkpt lat="45.978640805434736" lon="12.225436169038172"><ele>253.0</ele><time>2026-04-27T03:21:04Z</time></trkpt><trkpt lat="45.97859007556393" lon="12.225185509365735"><ele>252.33333333333331</ele><time>2026-04-27T03:21:05Z</time></trkpt><trkpt lat="45.97853536480122" lon="12.224936006862436"><ele>251.66666666666669</ele><time>2026-04-27T03:21:06Z</time></trkpt><trkpt lat="45.978472840138835" lon="12.224688638690038"><ele>251.0</ele><time>2026-04-27T03:21:07Z</time></trkpt><trkpt lat="45.97840727396615" lon="12.224443272228365"><ele>250.33333333333334</ele><time>2026-04-27T03:21:08Z</time></trkpt><trkpt lat="45.97834541625722" lon="12.224197804035553"><ele>249.66666666666669</ele><time>2026-04-27T03:21:09Z</time></trkpt><trkpt lat="45.97828369804019" lon="12.223953671922278"><ele>249.0</ele><time>2026-04-27T03:21:10Z</time></trkpt><trkpt lat="45.97822365966474" lon="12.223709054704772"><ele>249.0</ele><time>2026-04-27T03:21:11Z</time></trkpt><trkpt lat="45.97816477872885" lon="12.223464649944738"><ele>249.0</ele><time>2026-04-27T03:21:12Z</time></trkpt><trkpt lat="45.97810536867488" lon="12.223221530895529"><ele>249.0</ele><time>2026-04-27T03:21:13Z</time></trkpt><trkpt lat="45.97804739667977" lon="12.222978812870615"><ele>247.66666666666669</ele><time>2026-04-27T03:21:14Z</time></trkpt><trkpt lat="45.97799283193505" lon="12.222736056883996"><ele>246.33333333333334</ele><time>2026-04-27T03:21:15Z</time></trkpt><trkpt lat="45.977937527515955" lon="12.222492885002326"><ele>245.0</ele><time>2026-04-27T03:21:16Z</time></trkpt><trkpt lat="45.977804312926345" lon="12.222287993808605"><ele>244.0</ele><time>2026-04-27T03:21:17Z</time></trkpt><trkpt lat="45.97774771125241" lon="12.222048050779035"><ele>243.0</ele><time>2026-04-27T03:21:18Z</time></trkpt><trkpt lat="45.977690792749314" lon="12.22180676398391"><ele>242.0</ele><time>2026-04-27T03:21:19Z</time></trkpt><trkpt lat="45.977633888831875" lon="12.221566181732516"><ele>240.66666666666669</ele><time>2026-04-27T03:21:20Z</time></trkpt><trkpt lat="45.977662287240356" lon="12.221283448081465"><ele>239.33333333333331</ele><time>2026-04-27T03:21:21Z</time></trkpt><trkpt lat="45.97760865590013" lon="12.2210411026507"><ele>238.0</ele><time>2026-04-27T03:21:22Z</time></trkpt><trkpt lat="45.977556858491575" lon="12.220795455491883"><ele>240.0</ele><time>2026-04-27T03:21:23Z</time></trkpt><trkpt lat="45.97750496517348" lon="12.220549057686856"><ele>242.0</ele><time>2026-04-27T03:21:24Z</time></trkpt><trkpt lat="45.97745541200155" lon="12.220301035756627"><ele>244.0</ele><time>2026-04-27T03:21:25Z</time></trkpt><trkpt lat="45.97741385563399" lon="12.220048005641225"><ele>243.33333333333331</ele><time>2026-04-27T03:21:26Z</time></trkpt><trkpt lat="45.97737708061238" lon="12.219793066285048"><ele>242.66666666666669</ele><time>2026-04-27T03:21:27Z</time></trkpt><trkpt lat="45.977343916142296" lon="12.219537527576541"><ele>242.0</ele><time>2026-04-27T03:21:28Z</time></trkpt><trkpt lat="45.977315192577166" lon="12.219278734726117"><ele>242.0</ele><time>2026-04-27T03:21:29Z</time></trkpt><trkpt lat="45.9772856726678" lon="12.21901929129255"><ele>242.0</ele><time>2026-04-27T03:21:30Z</time></trkpt><trkpt lat="45.977258795737995" lon="12.218758810372403"><ele>242.0</ele><time>2026-04-27T03:21:31Z</time></trkpt><trkpt lat="45.9772318341329" lon="12.218498682738385"><ele>240.66666666666669</ele><time>2026-04-27T03:21:32Z</time></trkpt><trkpt lat="45.97720354226345" lon="12.21823801464009"><ele>239.33333333333331</ele><time>2026-04-27T03:21:33Z</time></trkpt><trkpt lat="45.97717508095029" lon="12.21797844222087"><ele>238.0</ele><time>2026-04-27T03:21:34Z</time></trkpt><trkpt lat="45.977146026591974" lon="12.21771984148612"><ele>237.33333333333331</ele><time>2026-04-27T03:21:35Z</time></trkpt><trkpt lat="45.977115864794776" lon="12.217458317878293"><ele>236.66666666666669</ele><time>2026-04-27T03:21:36Z</time></trkpt><trkpt lat="45.977086363170564" lon="12.217197368047703"><ele>236.0</ele><time>2026-04-27T03:21:37Z</time></trkpt><trkpt lat="45.97705587243244" lon="12.216939051946508"><ele>235.33333333333334</ele><time>2026-04-27T03:21:38Z</time></trkpt><trkpt lat="45.97702719235888" lon="12.21668733299217"><ele>234.66666666666669</ele><time>2026-04-27T03:21:39Z</time></trkpt><trkpt lat="45.976998327098954" lon="12.216444797303097"><ele>234.0</ele><time>2026-04-27T03:21:40Z</time></trkpt><trkpt lat="45.97697661468198" lon="12.216212831542057"><ele>232.66666666666669</ele><time>2026-04-27T03:21:41Z</time></trkpt><trkpt lat="45.97697481806577" lon="12.215984346575052"><ele>231.33333333333334</ele><time>2026-04-27T03:21:42Z</time></trkpt><trkpt lat="45.977002193601834" lon="12.215767549864589"><ele>230.0</ele><time>2026-04-27T03:21:43Z</time></trkpt><trkpt lat="45.97705051698033" lon="12.2155604141511"><ele>229.33333333333334</ele><time>2026-04-27T03:21:44Z</time></trkpt><trkpt lat="45.977146742667706" lon="12.215384991874236"><ele>228.66666666666669</ele><time>2026-04-27T03:21:45Z</time></trkpt><trkpt lat="45.977268582818155" lon="12.215245784736595"><ele>228.0</ele><time>2026-04-27T03:21:45.999Z</time></trkpt><trkpt lat="45.977410821746815" lon="12.215138754844514"><ele>227.66666666666669</ele><time>2026-04-27T03:21:46.999Z</time></trkpt><trkpt lat="45.97756440757944" lon="12.215043852511025"><ele>227.33333333333334</ele><time>2026-04-27T03:21:47.999Z</time></trkpt><trkpt lat="45.97771588879234" lon="12.21494032980113"><ele>227.0</ele><time>2026-04-27T03:21:48.999Z</time></trkpt><trkpt lat="45.977871070000354" lon="12.214831841696304"><ele>226.33333333333334</ele><time>2026-04-27T03:21:49.999Z</time></trkpt><trkpt lat="45.97803030834013" lon="12.214720106841634"><ele>225.66666666666669</ele><time>2026-04-27T03:21:50.999Z</time></trkpt><trkpt lat="45.97819452943614" lon="12.214605282916523"><ele>225.0</ele><time>2026-04-27T03:21:51.999Z</time></trkpt><trkpt lat="45.978362907971" lon="12.214487633282246"><ele>225.0</ele><time>2026-04-27T03:21:52.999Z</time></trkpt><trkpt lat="45.97853651975806" lon="12.21436626091798"><ele>225.0</ele><time>2026-04-27T03:21:53.999Z</time></trkpt><trkpt lat="45.97870948593052" lon="12.214244775686039"><ele>225.0</ele><time>2026-04-27T03:21:54.999Z</time></trkpt><trkpt lat="45.978887259400466" lon="12.214121689053133"><ele>225.0</ele><time>2026-04-27T03:21:55.999Z</time></trkpt><trkpt lat="45.97906620535163" lon="12.213996767834718"><ele>225.0</ele><time>2026-04-27T03:21:56.999Z</time></trkpt><trkpt lat="45.979245650985746" lon="12.21386902855313"><ele>225.0</ele><time>2026-04-27T03:21:57.999Z</time></trkpt><trkpt lat="45.979424915255805" lon="12.213740468226902"><ele>224.33333333333331</ele><time>2026-04-27T03:21:58.999Z</time></trkpt><trkpt lat="45.97960612862192" lon="12.213613883788215"><ele>223.66666666666666</ele><time>2026-04-27T03:21:59.999Z</time></trkpt><trkpt lat="45.97978928635928" lon="12.2134849651705"><ele>223.0</ele><time>2026-04-27T03:22:00.999Z</time></trkpt><trkpt lat="45.97997272726731" lon="12.213356425299121"><ele>223.66666666666666</ele><time>2026-04-27T03:22:01.999Z</time></trkpt><trkpt lat="45.98015657519261" lon="12.213227217630495"><ele>224.33333333333331</ele><time>2026-04-27T03:22:02.999Z</time></trkpt><trkpt lat="45.98034097947603" lon="12.213097132365652"><ele>225.0</ele><time>2026-04-27T03:22:03.999Z</time></trkpt><trkpt lat="45.98052707711264" lon="12.212966162403816"><ele>225.0</ele><time>2026-04-27T03:22:04.999Z</time></trkpt><trkpt lat="45.98071234762847" lon="12.21283238482878"><ele>225.0</ele><time>2026-04-27T03:22:05.999Z</time></trkpt><trkpt lat="45.980897140127" lon="12.212699138527405"><ele>225.0</ele><time>2026-04-27T03:22:06.999Z</time></trkpt><trkpt lat="45.98108522562835" lon="12.212568706017832"><ele>224.66666666666669</ele><time>2026-04-27T03:22:07.999Z</time></trkpt><trkpt lat="45.981274583413864" lon="12.212438674023698"><ele>224.33333333333334</ele><time>2026-04-27T03:22:08.999Z</time></trkpt><trkpt lat="45.98146347367669" lon="12.212309156634742"><ele>224.0</ele><time>2026-04-27T03:22:09.999Z</time></trkpt><trkpt lat="45.981651994498364" lon="12.212178819066049"><ele>223.66666666666669</ele><time>2026-04-27T03:22:10.999Z</time></trkpt><trkpt lat="45.98183960180506" lon="12.212047544978537"><ele>223.33333333333331</ele><time>2026-04-27T03:22:11.999Z</time></trkpt><trkpt lat="45.98202693865464" lon="12.211914159805938"><ele>223.0</ele><time>2026-04-27T03:22:12.999Z</time></trkpt><trkpt lat="45.98221188527879" lon="12.211779265701962"><ele>223.0</ele><time>2026-04-27T03:22:13.999Z</time></trkpt><trkpt lat="45.98239190149396" lon="12.211654188611721"><ele>223.0</ele><time>2026-04-27T03:22:14.999Z</time></trkpt><trkpt lat="45.9825660976346" lon="12.211534532115149"><ele>223.0</ele><time>2026-04-27T03:22:15.999Z</time></trkpt><trkpt lat="45.98273146229846" lon="12.211422729894657"><ele>224.0</ele><time>2026-04-27T03:22:16.999Z</time></trkpt><trkpt lat="45.98288789783123" lon="12.211316663133136"><ele>225.0</ele><time>2026-04-27T03:22:17.999Z</time></trkpt><trkpt lat="45.983037772440724" lon="12.211211444118321"><ele>226.0</ele><time>2026-04-27T03:22:18.999Z</time></trkpt><trkpt lat="45.98317959805357" lon="12.211112609724042"><ele>226.0</ele><time>2026-04-27T03:22:19.999Z</time></trkpt><trkpt lat="45.98329997569023" lon="12.211007599216826"><ele>226.0</ele><time>2026-04-27T03:22:20.999Z</time></trkpt><trkpt lat="45.98340734180936" lon="12.210889738067221"><ele>226.0</ele><time>2026-04-27T03:22:21.999Z</time></trkpt><trkpt lat="45.98349409755566" lon="12.210752206020466"><ele>226.0</ele><time>2026-04-27T03:22:22.999Z</time></trkpt><trkpt lat="45.98355829988473" lon="12.210598475264344"><ele>228.0</ele><time>2026-04-27T03:22:23.999Z</time></trkpt><trkpt lat="45.98360082103206" lon="12.210427685562204"><ele>230.0</ele><time>2026-04-27T03:22:24.999Z</time></trkpt><trkpt lat="45.9836187619842" lon="12.21024704665618"><ele>232.0</ele><time>2026-04-27T03:22:25.999Z</time></trkpt><trkpt lat="45.98359889890028" lon="12.210063759547795"><ele>234.0</ele><time>2026-04-27T03:22:26.999Z</time></trkpt><trkpt lat="45.98355203623687" lon="12.209885879083725"><ele>234.5</ele><time>2026-04-27T03:22:27.999Z</time></trkpt><trkpt lat="45.98348791691064" lon="12.209712587117325"><ele>235.0</ele><time>2026-04-27T03:22:28.999Z</time></trkpt><trkpt lat="45.98341317239028" lon="12.209539549239572"><ele>235.5</ele><time>2026-04-27T03:22:29.999Z</time></trkpt><trkpt lat="45.98334059253402" lon="12.209354339819264"><ele>236.0</ele><time>2026-04-27T03:22:30.999Z</time></trkpt><trkpt lat="45.98327208284659" lon="12.209158507876998"><ele>235.0</ele><time>2026-04-27T03:22:31.999Z</time></trkpt><trkpt lat="45.98320663902577" lon="12.208949710564175"><ele>234.0</ele><time>2026-04-27T03:22:32.999Z</time></trkpt><trkpt lat="45.983144890434076" lon="12.208732129828348"><ele>233.0</ele><time>2026-04-27T03:22:33.999Z</time></trkpt><trkpt lat="45.98308331614266" lon="12.208508175694082"><ele>233.0</ele><time>2026-04-27T03:22:34.999Z</time></trkpt><trkpt lat="45.98302095141363" lon="12.208280646701592"><ele>233.0</ele><time>2026-04-27T03:22:35.999Z</time></trkpt><trkpt lat="45.9829583904256" lon="12.208049726300281"><ele>233.0</ele><time>2026-04-27T03:22:36.999Z</time></trkpt><trkpt lat="45.982894461465925" lon="12.207814535979836"><ele>234.0</ele><time>2026-04-27T03:22:37.999Z</time></trkpt><trkpt lat="45.98282860510464" lon="12.207576186456198"><ele>235.0</ele><time>2026-04-27T03:22:39Z</time></trkpt><trkpt lat="45.98276374030649" lon="12.207334406916258"><ele>236.0</ele><time>2026-04-27T03:22:40Z</time></trkpt><trkpt lat="45.98269663739608" lon="12.207090246125263"><ele>236.0</ele><time>2026-04-27T03:22:41Z</time></trkpt><trkpt lat="45.98262888905667" lon="12.206844188287388"><ele>236.0</ele><time>2026-04-27T03:22:42Z</time></trkpt><trkpt lat="45.98256055849477" lon="12.206595832036315"><ele>236.0</ele><time>2026-04-27T03:22:43Z</time></trkpt><trkpt lat="45.982491175486764" lon="12.206345474733773"><ele>236.0</ele><time>2026-04-27T03:22:44Z</time></trkpt><trkpt lat="45.98241929231224" lon="12.206095624916507"><ele>236.0</ele><time>2026-04-27T03:22:45Z</time></trkpt><trkpt lat="45.982347678708905" lon="12.205842934189585"><ele>236.0</ele><time>2026-04-27T03:22:46Z</time></trkpt><trkpt lat="45.98227433282433" lon="12.205588373450922"><ele>236.0</ele><time>2026-04-27T03:22:47Z</time></trkpt><trkpt lat="45.98219900036232" lon="12.205335262900022"><ele>236.0</ele><time>2026-04-27T03:22:48Z</time></trkpt><trkpt lat="45.98212823170479" lon="12.205080006838145"><ele>236.0</ele><time>2026-04-27T03:22:49Z</time></trkpt><trkpt lat="45.9820599803495" lon="12.204821907310443"><ele>237.0</ele><time>2026-04-27T03:22:50Z</time></trkpt><trkpt lat="45.98199005397719" lon="12.204563120746993"><ele>238.0</ele><time>2026-04-27T03:22:51Z</time></trkpt><trkpt lat="45.98191991094467" lon="12.204304040439004"><ele>239.0</ele><time>2026-04-27T03:22:52Z</time></trkpt><trkpt lat="45.981848701250776" lon="12.204044654520075"><ele>239.0</ele><time>2026-04-27T03:22:53Z</time></trkpt><trkpt lat="45.98177575057665" lon="12.203786106216572"><ele>239.0</ele><time>2026-04-27T03:22:54Z</time></trkpt><trkpt lat="45.98170335993554" lon="12.203524676842562"><ele>239.0</ele><time>2026-04-27T03:22:55Z</time></trkpt><trkpt lat="45.98163077492729" lon="12.203261488282653"><ele>237.0</ele><time>2026-04-27T03:22:56Z</time></trkpt><trkpt lat="45.98155847293171" lon="12.202997353747376"><ele>235.0</ele><time>2026-04-27T03:22:57Z</time></trkpt><trkpt lat="45.98148185660442" lon="12.202732738890374"><ele>233.0</ele><time>2026-04-27T03:22:58Z</time></trkpt><trkpt lat="45.98140209039856" lon="12.202469236887088"><ele>233.0</ele><time>2026-04-27T03:22:59Z</time></trkpt><trkpt lat="45.98131754313624" lon="12.202207422599944"><ele>233.0</ele><time>2026-04-27T03:23:00Z</time></trkpt><trkpt lat="45.98122480144207" lon="12.201947913873363"><ele>233.0</ele><time>2026-04-27T03:23:01Z</time></trkpt><trkpt lat="45.981125829698634" lon="12.201692541073713"><ele>231.33333333333334</ele><time>2026-04-27T03:23:02Z</time></trkpt><trkpt lat="45.98101892792525" lon="12.201440131827377"><ele>229.66666666666669</ele><time>2026-04-27T03:23:03Z</time></trkpt><trkpt lat="45.980906694971694" lon="12.201190049495832"><ele>228.0</ele><time>2026-04-27T03:23:04Z</time></trkpt><trkpt lat="45.980794420739834" lon="12.200938265915356"><ele>228.0</ele><time>2026-04-27T03:23:05Z</time></trkpt><trkpt lat="45.98068206815653" lon="12.200683601344208"><ele>228.0</ele><time>2026-04-27T03:23:06Z</time></trkpt><trkpt lat="45.98056931407194" lon="12.20042709145426"><ele>228.0</ele><time>2026-04-27T03:23:07Z</time></trkpt><trkpt lat="45.98045538876884" lon="12.200171178374989"><ele>229.33333333333331</ele><time>2026-04-27T03:23:08Z</time></trkpt><trkpt lat="45.98034120591783" lon="12.199912578959271"><ele>230.66666666666666</ele><time>2026-04-27T03:23:09Z</time></trkpt><trkpt lat="45.98022602487409" lon="12.199655279562547"><ele>232.0</ele><time>2026-04-27T03:23:10Z</time></trkpt><trkpt lat="45.98011152260215" lon="12.19939302963095"><ele>231.33333333333331</ele><time>2026-04-27T03:23:11Z</time></trkpt><trkpt lat="45.97999673561" lon="12.199132023127069"><ele>230.66666666666669</ele><time>2026-04-27T03:23:12Z</time></trkpt><trkpt lat="45.979880977531465" lon="12.198871544460134"><ele>230.0</ele><time>2026-04-27T03:23:13Z</time></trkpt><trkpt lat="45.97976892594973" lon="12.198609974385935"><ele>230.0</ele><time>2026-04-27T03:23:14Z</time></trkpt><trkpt lat="45.979655988659886" lon="12.198351914433255"><ele>230.0</ele><time>2026-04-27T03:23:15Z</time></trkpt><trkpt lat="45.97954431136106" lon="12.198094283181689"><ele>230.0</ele><time>2026-04-27T03:23:16Z</time></trkpt><trkpt lat="45.97943109750908" lon="12.19783997082533"><ele>230.0</ele><time>2026-04-27T03:23:17Z</time></trkpt><trkpt lat="45.97931536742305" lon="12.197587165117056"><ele>230.0</ele><time>2026-04-27T03:23:18Z</time></trkpt><trkpt lat="45.97920174897805" lon="12.197331414049396"><ele>230.0</ele><time>2026-04-27T03:23:19Z</time></trkpt><trkpt lat="45.97908820116834" lon="12.197072951291101"><ele>229.0</ele><time>2026-04-27T03:23:20Z</time></trkpt><trkpt lat="45.978977186027265" lon="12.19681449013505"><ele>228.0</ele><time>2026-04-27T03:23:21Z</time></trkpt><trkpt lat="45.978873501700626" lon="12.196554199061937"><ele>227.0</ele><time>2026-04-27T03:23:22Z</time></trkpt><trkpt lat="45.978777260019584" lon="12.196288772888954"><ele>227.0</ele><time>2026-04-27T03:23:23Z</time></trkpt><trkpt lat="45.978687622528795" lon="12.196017555713757"><ele>227.0</ele><time>2026-04-27T03:23:24Z</time></trkpt><trkpt lat="45.97860174243188" lon="12.195743346807324"><ele>227.0</ele><time>2026-04-27T03:23:25Z</time></trkpt><trkpt lat="45.97851769268341" lon="12.19546632740346"><ele>228.0</ele><time>2026-04-27T03:23:26Z</time></trkpt><trkpt lat="45.97843534496766" lon="12.195188293674377"><ele>229.0</ele><time>2026-04-27T03:23:27Z</time></trkpt><trkpt lat="45.97835228955397" lon="12.194913008218627"><ele>230.0</ele><time>2026-04-27T03:23:28Z</time></trkpt><trkpt lat="45.978268134464685" lon="12.194638694237424"><ele>230.0</ele><time>2026-04-27T03:23:29Z</time></trkpt><trkpt lat="45.9781853686587" lon="12.19436467966818"><ele>230.0</ele><time>2026-04-27T03:23:30Z</time></trkpt><trkpt lat="45.978103653937296" lon="12.194090717551532"><ele>230.0</ele><time>2026-04-27T03:23:31Z</time></trkpt><trkpt lat="45.97802087565452" lon="12.19381814402666"><ele>230.33333333333334</ele><time>2026-04-27T03:23:32Z</time></trkpt><trkpt lat="45.97793991007947" lon="12.193546452391756"><ele>230.66666666666669</ele><time>2026-04-27T03:23:33Z</time></trkpt><trkpt lat="45.97786072938118" lon="12.1932756889497"><ele>231.0</ele><time>2026-04-27T03:23:34Z</time></trkpt><trkpt lat="45.97777855374801" lon="12.193004801189222"><ele>231.33333333333331</ele><time>2026-04-27T03:23:35Z</time></trkpt><trkpt lat="45.97769755730519" lon="12.19273611594761"><ele>231.66666666666666</ele><time>2026-04-27T03:23:36Z</time></trkpt><trkpt lat="45.97761769535122" lon="12.192468255137856"><ele>232.0</ele><time>2026-04-27T03:23:37Z</time></trkpt><trkpt lat="45.97753809109037" lon="12.19219995964543"><ele>230.66666666666666</ele><time>2026-04-27T03:23:38Z</time></trkpt><trkpt lat="45.977458536657885" lon="12.191932278929123"><ele>229.33333333333331</ele><time>2026-04-27T03:23:39Z</time></trkpt><trkpt lat="45.97737736554705" lon="12.191665288194798"><ele>228.0</ele><time>2026-04-27T03:23:40Z</time></trkpt><trkpt lat="45.977297885740725" lon="12.191398545444047"><ele>227.33333333333331</ele><time>2026-04-27T03:23:41Z</time></trkpt><trkpt lat="45.97721905265129" lon="12.191132538180296"><ele>226.66666666666666</ele><time>2026-04-27T03:23:42Z</time></trkpt><trkpt lat="45.97714030748579" lon="12.190867509642832"><ele>226.0</ele><time>2026-04-27T03:23:43Z</time></trkpt><trkpt lat="45.97706158858762" lon="12.190602979730514"><ele>228.0</ele><time>2026-04-27T03:23:44Z</time></trkpt><trkpt lat="45.97698362609028" lon="12.190339630717709"><ele>230.0</ele><time>2026-04-27T03:23:45Z</time></trkpt><trkpt lat="45.97690445927956" lon="12.19007790234923"><ele>232.0</ele><time>2026-04-27T03:23:46Z</time></trkpt><trkpt lat="45.976823759573854" lon="12.189817529722497"><ele>231.0</ele><time>2026-04-27T03:23:46.999Z</time></trkpt><trkpt lat="45.976740050657455" lon="12.189560679206217"><ele>230.0</ele><time>2026-04-27T03:23:47.999Z</time></trkpt><trkpt lat="45.97664954846163" lon="12.18930766002923"><ele>229.0</ele><time>2026-04-27T03:23:48.999Z</time></trkpt><trkpt lat="45.97655425443702" lon="12.189056886191707"><ele>230.33333333333331</ele><time>2026-04-27T03:23:49.999Z</time></trkpt><trkpt lat="45.97645553047907" lon="12.188810002504377"><ele>231.66666666666669</ele><time>2026-04-27T03:23:50.999Z</time></trkpt><trkpt lat="45.976354771901484" lon="12.188563437642424"><ele>233.0</ele><time>2026-04-27T03:23:51.999Z</time></trkpt><trkpt lat="45.97625180759579" lon="12.188317954858308"><ele>235.33333333333334</ele><time>2026-04-27T03:23:52.999Z</time></trkpt><trkpt lat="45.97614872848942" lon="12.188073805739878"><ele>237.66666666666669</ele><time>2026-04-27T03:23:53.999Z</time></trkpt><trkpt lat="45.97604433646735" lon="12.18782730224625"><ele>240.0</ele><time>2026-04-27T03:23:54.999Z</time></trkpt><trkpt lat="45.97594121520816" lon="12.187581436538988"><ele>237.0</ele><time>2026-04-27T03:23:55.999Z</time></trkpt><trkpt lat="45.97583788844296" lon="12.187333368625701"><ele>234.0</ele><time>2026-04-27T03:23:56.999Z</time></trkpt><trkpt lat="45.9757335327953" lon="12.187085973206857"><ele>231.0</ele><time>2026-04-27T03:23:57.999Z</time></trkpt><trkpt lat="45.975629756264496" lon="12.186836186595915"><ele>231.0</ele><time>2026-04-27T03:23:58.999Z</time></trkpt><trkpt lat="45.97552705365017" lon="12.186584574406504"><ele>231.0</ele><time>2026-04-27T03:23:59.999Z</time></trkpt><trkpt lat="45.97542909537186" lon="12.186327607227978"><ele>231.0</ele><time>2026-04-27T03:24:00.999Z</time></trkpt><trkpt lat="45.97533734428343" lon="12.186066576630854"><ele>234.33333333333331</ele><time>2026-04-27T03:24:01.999Z</time></trkpt><trkpt lat="45.97525345600353" lon="12.18579884901769"><ele>237.66666666666666</ele><time>2026-04-27T03:24:02.999Z</time></trkpt><trkpt lat="45.97518787379554" lon="12.185520369806085"><ele>241.0</ele><time>2026-04-27T03:24:03.999Z</time></trkpt><trkpt lat="45.975129673521145" lon="12.185238514424361"><ele>243.0</ele><time>2026-04-27T03:24:04.999Z</time></trkpt><trkpt lat="45.97508308826675" lon="12.184953577011827"><ele>245.0</ele><time>2026-04-27T03:24:05.999Z</time></trkpt><trkpt lat="45.97504100281652" lon="12.184666113388756"><ele>247.0</ele><time>2026-04-27T03:24:06.999Z</time></trkpt><trkpt lat="45.97500106708768" lon="12.18437851969195"><ele>244.0</ele><time>2026-04-27T03:24:07.999Z</time></trkpt><trkpt lat="45.974960094307484" lon="12.184092943620334"><ele>241.0</ele><time>2026-04-27T03:24:08.999Z</time></trkpt><trkpt lat="45.974920344492695" lon="12.183808406460985"><ele>238.0</ele><time>2026-04-27T03:24:09.999Z</time></trkpt><trkpt lat="45.97487943892474" lon="12.183525647750065"><ele>238.0</ele><time>2026-04-27T03:24:10.999Z</time></trkpt><trkpt lat="45.974838646567015" lon="12.183243244078795"><ele>238.0</ele><time>2026-04-27T03:24:11.999Z</time></trkpt><trkpt lat="45.97479816838514" lon="12.182962562793017"><ele>238.0</ele><time>2026-04-27T03:24:12.999Z</time></trkpt><trkpt lat="45.97475778415459" lon="12.182683823783828"><ele>237.33333333333331</ele><time>2026-04-27T03:24:13.999Z</time></trkpt><trkpt lat="45.97471809611563" lon="12.182406056871192"><ele>236.66666666666669</ele><time>2026-04-27T03:24:14.999Z</time></trkpt><trkpt lat="45.97467767178667" lon="12.182129683423321"><ele>236.0</ele><time>2026-04-27T03:24:15.999Z</time></trkpt><trkpt lat="45.974638428488255" lon="12.181854794223893"><ele>234.66666666666669</ele><time>2026-04-27T03:24:16.999Z</time></trkpt><trkpt lat="45.97459947723806" lon="12.181580061175328"><ele>233.33333333333331</ele><time>2026-04-27T03:24:17.999Z</time></trkpt><trkpt lat="45.974561394690646" lon="12.181307187013605"><ele>232.0</ele><time>2026-04-27T03:24:18.999Z</time></trkpt><trkpt lat="45.97452432630099" lon="12.181034750955332"><ele>232.0</ele><time>2026-04-27T03:24:19.999Z</time></trkpt><trkpt lat="45.974485247906124" lon="12.180764351124102"><ele>232.0</ele><time>2026-04-27T03:24:20.999Z</time></trkpt><trkpt lat="45.97444597891649" lon="12.180494971524746"><ele>232.0</ele><time>2026-04-27T03:24:21.999Z</time></trkpt><trkpt lat="45.9744078947704" lon="12.180227329058408"><ele>232.66666666666666</ele><time>2026-04-27T03:24:22.999Z</time></trkpt><trkpt lat="45.97436910218347" lon="12.179959829536772"><ele>233.33333333333331</ele><time>2026-04-27T03:24:23.999Z</time></trkpt><trkpt lat="45.97433115386429" lon="12.179693704366413"><ele>234.0</ele><time>2026-04-27T03:24:24.999Z</time></trkpt><trkpt lat="45.97429315371713" lon="12.179430651529408"><ele>235.0</ele><time>2026-04-27T03:24:25.999Z</time></trkpt><trkpt lat="45.97425327459808" lon="12.17916929170154"><ele>236.0</ele><time>2026-04-27T03:24:26.999Z</time></trkpt><trkpt lat="45.97421486640477" lon="12.17890953667658"><ele>237.0</ele><time>2026-04-27T03:24:27.999Z</time></trkpt><trkpt lat="45.97417746933536" lon="12.178650790601898"><ele>237.0</ele><time>2026-04-27T03:24:28.999Z</time></trkpt><trkpt lat="45.97413928625196" lon="12.178394603960815"><ele>237.0</ele><time>2026-04-27T03:24:29.999Z</time></trkpt><trkpt lat="45.97410374773547" lon="12.17813953160681"><ele>237.0</ele><time>2026-04-27T03:24:30.999Z</time></trkpt><trkpt lat="45.9740702165484" lon="12.17789036470364"><ele>236.66666666666669</ele><time>2026-04-27T03:24:31.999Z</time></trkpt><trkpt lat="45.97404014097798" lon="12.177649047161767"><ele>236.33333333333334</ele><time>2026-04-27T03:24:32.999Z</time></trkpt><trkpt lat="45.97401366130175" lon="12.177412437822042"><ele>236.0</ele><time>2026-04-27T03:24:33.999Z</time></trkpt><trkpt lat="45.97399225199015" lon="12.177184549123899"><ele>236.0</ele><time>2026-04-27T03:24:34.999Z</time></trkpt><trkpt lat="45.97397580567674" lon="12.17696778101869"><ele>236.0</ele><time>2026-04-27T03:24:35.999Z</time></trkpt><trkpt lat="45.97395072438936" lon="12.176753869399636"><ele>236.0</ele><time>2026-04-27T03:24:36.999Z</time></trkpt><trkpt lat="45.97398083474087" lon="12.176565684799462"><ele>236.0</ele><time>2026-04-27T03:24:37.999Z</time></trkpt><trkpt lat="45.973856608081206" lon="12.176343383170298"><ele>236.0</ele><time>2026-04-27T03:24:38.999Z</time></trkpt><trkpt lat="45.97380953691103" lon="12.176132089775994"><ele>236.0</ele><time>2026-04-27T03:24:39.999Z</time></trkpt><trkpt lat="45.97377047336235" lon="12.175911156241733"><ele>236.0</ele><time>2026-04-27T03:24:40.999Z</time></trkpt><trkpt lat="45.97374117010516" lon="12.175684036892797"><ele>237.33333333333334</ele><time>2026-04-27T03:24:41.999Z</time></trkpt><trkpt lat="45.97371634658553" lon="12.17544992093824"><ele>238.66666666666669</ele><time>2026-04-27T03:24:42.999Z</time></trkpt><trkpt lat="45.973684972261175" lon="12.175216491264782"><ele>240.0</ele><time>2026-04-27T03:24:43.999Z</time></trkpt><trkpt lat="45.9736517239943" lon="12.174979029239108"><ele>239.33333333333331</ele><time>2026-04-27T03:24:45Z</time></trkpt><trkpt lat="45.97361930225636" lon="12.174739038659306"><ele>238.66666666666666</ele><time>2026-04-27T03:24:46Z</time></trkpt><trkpt lat="45.97358369933588" lon="12.174498573562948"><ele>238.0</ele><time>2026-04-27T03:24:47Z</time></trkpt><trkpt lat="45.97353919974086" lon="12.174257393560536"><ele>242.33333333333331</ele><time>2026-04-27T03:24:48Z</time></trkpt><trkpt lat="45.97348697144964" lon="12.174016689995625"><ele>246.66666666666669</ele><time>2026-04-27T03:24:49Z</time></trkpt><trkpt lat="45.973430248055976" lon="12.173776710147578"><ele>251.0</ele><time>2026-04-27T03:24:50Z</time></trkpt><trkpt lat="45.97336740270049" lon="12.173537199885367"><ele>251.33333333333334</ele><time>2026-04-27T03:24:51Z</time></trkpt><trkpt lat="45.973299366234095" lon="12.173297650643352"><ele>251.66666666666669</ele><time>2026-04-27T03:24:52Z</time></trkpt><trkpt lat="45.97323001838684" lon="12.173055559363071"><ele>252.0</ele><time>2026-04-27T03:24:53Z</time></trkpt><trkpt lat="45.97315840143948" lon="12.172812101370287"><ele>252.0</ele><time>2026-04-27T03:24:54Z</time></trkpt><trkpt lat="45.973085129014564" lon="12.172567775835908"><ele>252.0</ele><time>2026-04-27T03:24:55Z</time></trkpt><trkpt lat="45.97301117924384" lon="12.172322511107371"><ele>252.0</ele><time>2026-04-27T03:24:56Z</time></trkpt><trkpt lat="45.9729410469443" lon="12.172072499077855"><ele>259.6666666666667</ele><time>2026-04-27T03:24:57Z</time></trkpt><trkpt lat="45.97287008034143" lon="12.171821166303154"><ele>267.33333333333337</ele><time>2026-04-27T03:24:58Z</time></trkpt><trkpt lat="45.972799266637466" lon="12.171568077785283"><ele>275.0</ele><time>2026-04-27T03:24:59Z</time></trkpt><trkpt lat="45.97272813824875" lon="12.17131298154724"><ele>282.33333333333337</ele><time>2026-04-27T03:25:00Z</time></trkpt><trkpt lat="45.972657506195084" lon="12.17105559204681"><ele>289.6666666666667</ele><time>2026-04-27T03:25:01Z</time></trkpt><trkpt lat="45.97259316657276" lon="12.170792991355432"><ele>297.0</ele><time>2026-04-27T03:25:02Z</time></trkpt><trkpt lat="45.972537949881996" lon="12.17052712122628"><ele>283.3333333333333</ele><time>2026-04-27T03:25:03Z</time></trkpt><trkpt lat="45.9724868660944" lon="12.17025737079217"><ele>269.66666666666663</ele><time>2026-04-27T03:25:04Z</time></trkpt><trkpt lat="45.97243625789683" lon="12.169986162315372"><ele>256.0</ele><time>2026-04-27T03:25:05Z</time></trkpt><trkpt lat="45.9723880806349" lon="12.169713772001108"><ele>256.0</ele><time>2026-04-27T03:25:06Z</time></trkpt><trkpt lat="45.97233912428318" lon="12.16943970925801"><ele>256.0</ele><time>2026-04-27T03:25:07Z</time></trkpt><trkpt lat="45.972290242993104" lon="12.169165825677277"><ele>256.0</ele><time>2026-04-27T03:25:08Z</time></trkpt><trkpt lat="45.97224169107068" lon="12.168892468762724"><ele>258.66666666666663</ele><time>2026-04-27T03:25:09Z</time></trkpt><trkpt lat="45.97219149427798" lon="12.168619121152753"><ele>261.3333333333333</ele><time>2026-04-27T03:25:10Z</time></trkpt><trkpt lat="45.97214185071134" lon="12.168345870680223"><ele>264.0</ele><time>2026-04-27T03:25:11Z</time></trkpt><trkpt lat="45.97209156208216" lon="12.168072675048847"><ele>265.3333333333333</ele><time>2026-04-27T03:25:12Z</time></trkpt><trkpt lat="45.97204248607327" lon="12.167799090909739"><ele>266.66666666666663</ele><time>2026-04-27T03:25:13Z</time></trkpt><trkpt lat="45.971992670471856" lon="12.167528554542988"><ele>268.0</ele><time>2026-04-27T03:25:14Z</time></trkpt><trkpt lat="45.971944419137365" lon="12.167258909836653"><ele>268.66666666666663</ele><time>2026-04-27T03:25:15Z</time></trkpt><trkpt lat="45.97189690776268" lon="12.166989253384841"><ele>269.3333333333333</ele><time>2026-04-27T03:25:16Z</time></trkpt><trkpt lat="45.971855314684014" lon="12.166721132124934"><ele>270.0</ele><time>2026-04-27T03:25:17Z</time></trkpt><trkpt lat="45.97182713569646" lon="12.166452859149036"><ele>268.3333333333333</ele><time>2026-04-27T03:25:18Z</time></trkpt><trkpt lat="45.97180562273719" lon="12.166187945647405"><ele>266.66666666666663</ele><time>2026-04-27T03:25:19Z</time></trkpt><trkpt lat="45.97179177749146" lon="12.165924400511143"><ele>265.0</ele><time>2026-04-27T03:25:20Z</time></trkpt><trkpt lat="45.97178124546844" lon="12.165662236082524"><ele>263.66666666666663</ele><time>2026-04-27T03:25:21Z</time></trkpt><trkpt lat="45.971774684814704" lon="12.16540438982409"><ele>262.3333333333333</ele><time>2026-04-27T03:25:22Z</time></trkpt><trkpt lat="45.97176937246585" lon="12.165147630762698"><ele>261.0</ele><time>2026-04-27T03:25:23Z</time></trkpt><trkpt lat="45.971763357886566" lon="12.16489580482027"><ele>260.3333333333333</ele><time>2026-04-27T03:25:24Z</time></trkpt><trkpt lat="45.97175688794581" lon="12.16464508734582"><ele>259.66666666666663</ele><time>2026-04-27T03:25:25Z</time></trkpt><trkpt lat="45.97175203947703" lon="12.164398349288456"><ele>259.0</ele><time>2026-04-27T03:25:26Z</time></trkpt><trkpt lat="45.97174949476833" lon="12.16415358501621"><ele>259.66666666666663</ele><time>2026-04-27T03:25:27Z</time></trkpt><trkpt lat="45.97174659083671" lon="12.163909681291736"><ele>260.3333333333333</ele><time>2026-04-27T03:25:28Z</time></trkpt><trkpt lat="45.97174212420737" lon="12.163667877590084"><ele>261.0</ele><time>2026-04-27T03:25:29Z</time></trkpt><trkpt lat="45.97173639281915" lon="12.163426962301557"><ele>260.3333333333333</ele><time>2026-04-27T03:25:30Z</time></trkpt><trkpt lat="45.971732516005154" lon="12.163186962633564"><ele>259.66666666666663</ele><time>2026-04-27T03:25:31Z</time></trkpt><trkpt lat="45.97173448154624" lon="12.162950974883103"><ele>259.0</ele><time>2026-04-27T03:25:32Z</time></trkpt><trkpt lat="45.97173973053631" lon="12.162721089398529"><ele>259.0</ele><time>2026-04-27T03:25:33Z</time></trkpt><trkpt lat="45.971743667816256" lon="12.162498336512748"><ele>259.0</ele><time>2026-04-27T03:25:34Z</time></trkpt><trkpt lat="45.97174163582308" lon="12.162291559827647"><ele>259.0</ele><time>2026-04-27T03:25:35Z</time></trkpt><trkpt lat="45.97173911814647" lon="12.162095318464266"><ele>259.0</ele><time>2026-04-27T03:25:36Z</time></trkpt><trkpt lat="45.9717334727305" lon="12.161904454707308"><ele>259.5</ele><time>2026-04-27T03:25:37Z</time></trkpt><trkpt lat="45.971718470959495" lon="12.16171986558166"><ele>260.0</ele><time>2026-04-27T03:25:38Z</time></trkpt><trkpt lat="45.971696726734166" lon="12.16154369715841"><ele>260.5</ele><time>2026-04-27T03:25:39Z</time></trkpt><trkpt lat="45.97167085597555" lon="12.161373404868105"><ele>261.0</ele><time>2026-04-27T03:25:40Z</time></trkpt><trkpt lat="45.97164209225238" lon="12.16120732296773"><ele>259.0</ele><time>2026-04-27T03:25:41Z</time></trkpt><trkpt lat="45.97161053459189" lon="12.161043415819783"><ele>257.0</ele><time>2026-04-27T03:25:42Z</time></trkpt><trkpt lat="45.97157549827462" lon="12.16088136514104"><ele>255.0</ele><time>2026-04-27T03:25:43Z</time></trkpt><trkpt lat="45.97153636302187" lon="12.160722730941991"><ele>253.0</ele><time>2026-04-27T03:25:44Z</time></trkpt><trkpt lat="45.97149607785178" lon="12.160564322420953"><ele>253.0</ele><time>2026-04-27T03:25:45Z</time></trkpt><trkpt lat="45.97145358975725" lon="12.16040488466383"><ele>253.0</ele><time>2026-04-27T03:25:45.999Z</time></trkpt><trkpt lat="45.97141082887781" lon="12.160243899983058"><ele>253.0</ele><time>2026-04-27T03:25:46.999Z</time></trkpt><trkpt lat="45.9713679759492" lon="12.16008060958299"><ele>253.0</ele><time>2026-04-27T03:25:47.999Z</time></trkpt><trkpt lat="45.97132345335897" lon="12.159916176948265"><ele>257.0</ele><time>2026-04-27T03:25:48.999Z</time></trkpt><trkpt lat="45.97128011588631" lon="12.159749361948741"><ele>261.0</ele><time>2026-04-27T03:25:49.999Z</time></trkpt><trkpt lat="45.97123628007508" lon="12.159580651742994"><ele>265.0</ele><time>2026-04-27T03:25:50.999Z</time></trkpt><trkpt lat="45.97119135952804" lon="12.159410802005668"><ele>269.0</ele><time>2026-04-27T03:25:51.999Z</time></trkpt><trkpt lat="45.971146887069" lon="12.159239474347048"><ele>269.0</ele><time>2026-04-27T03:25:52.999Z</time></trkpt><trkpt lat="45.97110163038778" lon="12.159064810370873"><ele>269.0</ele><time>2026-04-27T03:25:53.999Z</time></trkpt><trkpt lat="45.971056161962004" lon="12.158889651874496"><ele>269.0</ele><time>2026-04-27T03:25:54.999Z</time></trkpt><trkpt lat="45.97100975732132" lon="12.158713379471582"><ele>269.0</ele><time>2026-04-27T03:25:55.999Z</time></trkpt><trkpt lat="45.97095889962451" lon="12.158536781208527"><ele>271.25</ele><time>2026-04-27T03:25:56.999Z</time></trkpt><trkpt lat="45.97090327642068" lon="12.158360030872787"><ele>273.5</ele><time>2026-04-27T03:25:57.999Z</time></trkpt><trkpt lat="45.97084321784179" lon="12.158184267681499"><ele>275.75</ele><time>2026-04-27T03:25:58.999Z</time></trkpt><trkpt lat="45.97077654861644" lon="12.158011300936241"><ele>278.0</ele><time>2026-04-27T03:25:59.999Z</time></trkpt><trkpt lat="45.97070382547119" lon="12.157842503566606"><ele>276.0</ele><time>2026-04-27T03:26:00.999Z</time></trkpt><trkpt lat="45.97062417860546" lon="12.157677979605758"><ele>274.0</ele><time>2026-04-27T03:26:01.999Z</time></trkpt><trkpt lat="45.97054041122168" lon="12.157516711247741"><ele>272.0</ele><time>2026-04-27T03:26:02.999Z</time></trkpt><trkpt lat="45.97045332953451" lon="12.157357071361904"><ele>270.0</ele><time>2026-04-27T03:26:03.999Z</time></trkpt><trkpt lat="45.970366433552165" lon="12.157196899231208"><ele>270.0</ele><time>2026-04-27T03:26:04.999Z</time></trkpt><trkpt lat="45.970277127483556" lon="12.157036076111659"><ele>270.0</ele><time>2026-04-27T03:26:05.999Z</time></trkpt><trkpt lat="45.97018983932487" lon="12.156873257065085"><ele>270.0</ele><time>2026-04-27T03:26:06.999Z</time></trkpt><trkpt lat="45.97010182916819" lon="12.156709907760703"><ele>270.0</ele><time>2026-04-27T03:26:07.999Z</time></trkpt><trkpt lat="45.97001385244467" lon="12.156546648141761"><ele>265.25</ele><time>2026-04-27T03:26:08.999Z</time></trkpt><trkpt lat="45.96992455855047" lon="12.156383106875296"><ele>260.5</ele><time>2026-04-27T03:26:09.999Z</time></trkpt><trkpt lat="45.969833167637915" lon="12.156222025944329"><ele>255.75</ele><time>2026-04-27T03:26:10.999Z</time></trkpt><trkpt lat="45.969742092224834" lon="12.156060362959025"><ele>251.0</ele><time>2026-04-27T03:26:11.999Z</time></trkpt><trkpt lat="45.969653890021" lon="12.155897727093917"><ele>251.0</ele><time>2026-04-27T03:26:12.999Z</time></trkpt><trkpt lat="45.96956507393261" lon="12.15573752271195"><ele>251.0</ele><time>2026-04-27T03:26:13.999Z</time></trkpt><trkpt lat="45.969480164483926" lon="12.155580822337209"><ele>251.0</ele><time>2026-04-27T03:26:14.999Z</time></trkpt><trkpt lat="45.969395312735024" lon="12.1554250290017"><ele>251.0</ele><time>2026-04-27T03:26:15.999Z</time></trkpt><trkpt lat="45.9693102401769" lon="12.155269499324461"><ele>250.0</ele><time>2026-04-27T03:26:16.999Z</time></trkpt><trkpt lat="45.969225163203845" lon="12.155112283659983"><ele>249.0</ele><time>2026-04-27T03:26:17.999Z</time></trkpt><trkpt lat="45.969140896880745" lon="12.154955786930262"><ele>248.0</ele><time>2026-04-27T03:26:18.999Z</time></trkpt><trkpt lat="45.96905571815807" lon="12.154798484391588"><ele>247.0</ele><time>2026-04-27T03:26:19.999Z</time></trkpt><trkpt lat="45.968970377458085" lon="12.154638574656783"><ele>249.0</ele><time>2026-04-27T03:26:20.999Z</time></trkpt><trkpt lat="45.968885887283456" lon="12.15447899906318"><ele>251.0</ele><time>2026-04-27T03:26:21.999Z</time></trkpt><trkpt lat="45.96880045290548" lon="12.15431827368898"><ele>253.0</ele><time>2026-04-27T03:26:22.999Z</time></trkpt><trkpt lat="45.96871382920342" lon="12.154158450196906"><ele>255.0</ele><time>2026-04-27T03:26:23.999Z</time></trkpt><trkpt lat="45.96862662023135" lon="12.15399864493528"><ele>256.75</ele><time>2026-04-27T03:26:24.999Z</time></trkpt><trkpt lat="45.96853967766952" lon="12.15383676086637"><ele>258.5</ele><time>2026-04-27T03:26:25.999Z</time></trkpt><trkpt lat="45.96845583948151" lon="12.153672621969811"><ele>260.25</ele><time>2026-04-27T03:26:26.999Z</time></trkpt><trkpt lat="45.96837831133971" lon="12.153498921797684"><ele>262.0</ele><time>2026-04-27T03:26:27.999Z</time></trkpt><trkpt lat="45.96830415738145" lon="12.153321936816022"><ele>259.75</ele><time>2026-04-27T03:26:28.999Z</time></trkpt><trkpt lat="45.968234218724504" lon="12.153134497874465"><ele>257.5</ele><time>2026-04-27T03:26:29.999Z</time></trkpt><trkpt lat="45.96817161957289" lon="12.15294464471513"><ele>255.25</ele><time>2026-04-27T03:26:30.999Z</time></trkpt><trkpt lat="45.96811323881636" lon="12.152749991552813"><ele>253.0</ele><time>2026-04-27T03:26:31.999Z</time></trkpt><trkpt lat="45.96805397744914" lon="12.15255449958768"><ele>255.0</ele><time>2026-04-27T03:26:32.999Z</time></trkpt><trkpt lat="45.96799468630961" lon="12.152358107669308"><ele>257.0</ele><time>2026-04-27T03:26:33.999Z</time></trkpt><trkpt lat="45.96793597760885" lon="12.152160550720588"><ele>259.0</ele><time>2026-04-27T03:26:34.999Z</time></trkpt><trkpt lat="45.967875960180145" lon="12.151962226141356"><ele>261.0</ele><time>2026-04-27T03:26:35.999Z</time></trkpt><trkpt lat="45.96781534982379" lon="12.151763513922615"><ele>261.0</ele><time>2026-04-27T03:26:36.999Z</time></trkpt><trkpt lat="45.96775481231717" lon="12.151564473104555"><ele>261.0</ele><time>2026-04-27T03:26:37.999Z</time></trkpt><trkpt lat="45.96769406978766" lon="12.151363690551488"><ele>261.0</ele><time>2026-04-27T03:26:38.999Z</time></trkpt><trkpt lat="45.9676311552329" lon="12.151160736728567"><ele>261.0</ele><time>2026-04-27T03:26:39.999Z</time></trkpt><trkpt lat="45.96757098018115" lon="12.15095694879375"><ele>261.0</ele><time>2026-04-27T03:26:40.999Z</time></trkpt><trkpt lat="45.9675082992993" lon="12.150751850036876"><ele>261.0</ele><time>2026-04-27T03:26:41.999Z</time></trkpt><trkpt lat="45.967445127089086" lon="12.150546669904898"><ele>257.6666666666667</ele><time>2026-04-27T03:26:42.999Z</time></trkpt><trkpt lat="45.96738267311839" lon="12.150342612925932"><ele>254.33333333333334</ele><time>2026-04-27T03:26:43.999Z</time></trkpt><trkpt lat="45.96731806403298" lon="12.150140441802003"><ele>251.0</ele><time>2026-04-27T03:26:44.999Z</time></trkpt><trkpt lat="45.96725357463349" lon="12.149941764921557"><ele>251.0</ele><time>2026-04-27T03:26:45.999Z</time></trkpt><trkpt lat="45.967187338925356" lon="12.149745129478651"><ele>251.0</ele><time>2026-04-27T03:26:46.999Z</time></trkpt><trkpt lat="45.9671219790846" lon="12.1495496836062"><ele>251.0</ele><time>2026-04-27T03:26:47.999Z</time></trkpt><trkpt lat="45.967056067825176" lon="12.149356555791911"><ele>251.0</ele><time>2026-04-27T03:26:48.999Z</time></trkpt><trkpt lat="45.96698900953896" lon="12.149162675410917"><ele>251.0</ele><time>2026-04-27T03:26:50Z</time></trkpt><trkpt lat="45.966920989690244" lon="12.148969927506995"><ele>251.0</ele><time>2026-04-27T03:26:51Z</time></trkpt><trkpt lat="45.96684955609229" lon="12.148778073286561"><ele>250.66666666666669</ele><time>2026-04-27T03:26:52Z</time></trkpt><trkpt lat="45.966777260763905" lon="12.148586192294335"><ele>250.33333333333331</ele><time>2026-04-27T03:26:53Z</time></trkpt><trkpt lat="45.966703371689" lon="12.148396186601978"><ele>250.0</ele><time>2026-04-27T03:26:54Z</time></trkpt><trkpt lat="45.96662799811193" lon="12.148205637635305"><ele>247.66666666666666</ele><time>2026-04-27T03:26:55Z</time></trkpt><trkpt lat="45.96655185474235" lon="12.148015568596907"><ele>245.33333333333331</ele><time>2026-04-27T03:26:56Z</time></trkpt><trkpt lat="45.966474671092094" lon="12.147826624167108"><ele>243.0</ele><time>2026-04-27T03:26:57Z</time></trkpt><trkpt lat="45.96639952816845" lon="12.14763819035105"><ele>243.0</ele><time>2026-04-27T03:26:58Z</time></trkpt><trkpt lat="45.96632237080072" lon="12.14744983003582"><ele>243.0</ele><time>2026-04-27T03:26:59Z</time></trkpt><trkpt lat="45.96624553759646" lon="12.147262698859626"><ele>243.0</ele><time>2026-04-27T03:27:00Z</time></trkpt><trkpt lat="45.96616974593862" lon="12.147074329516759"><ele>242.33333333333331</ele><time>2026-04-27T03:27:01Z</time></trkpt><trkpt lat="45.96609431098473" lon="12.14688537914785"><ele>241.66666666666666</ele><time>2026-04-27T03:27:02Z</time></trkpt><trkpt lat="45.96601967848434" lon="12.14669637120021"><ele>241.0</ele><time>2026-04-27T03:27:03Z</time></trkpt><trkpt lat="45.96594651008545" lon="12.14650514737584"><ele>240.66666666666666</ele><time>2026-04-27T03:27:04Z</time></trkpt><trkpt lat="45.965878651732574" lon="12.146307774005399"><ele>240.33333333333331</ele><time>2026-04-27T03:27:05Z</time></trkpt><trkpt lat="45.96581461815786" lon="12.146107829619705"><ele>240.0</ele><time>2026-04-27T03:27:06Z</time></trkpt><trkpt lat="45.96575686753823" lon="12.14590314032646"><ele>238.33333333333331</ele><time>2026-04-27T03:27:07Z</time></trkpt><trkpt lat="45.96570441279948" lon="12.145696200445654"><ele>236.66666666666666</ele><time>2026-04-27T03:27:08Z</time></trkpt><trkpt lat="45.96565726999051" lon="12.145485581859203"><ele>235.0</ele><time>2026-04-27T03:27:09Z</time></trkpt><trkpt lat="45.965618512936345" lon="12.145273139939405"><ele>235.0</ele><time>2026-04-27T03:27:10Z</time></trkpt><trkpt lat="45.965588557878576" lon="12.145059361808519"><ele>235.0</ele><time>2026-04-27T03:27:11Z</time></trkpt><trkpt lat="45.965563682244145" lon="12.144845646264587"><ele>235.0</ele><time>2026-04-27T03:27:12Z</time></trkpt><trkpt lat="45.96554461738187" lon="12.144633707183182"><ele>235.5</ele><time>2026-04-27T03:27:13Z</time></trkpt><trkpt lat="45.965529557203155" lon="12.14442652888141"><ele>236.0</ele><time>2026-04-27T03:27:14Z</time></trkpt><trkpt lat="45.965516960515394" lon="12.14422218586402"><ele>236.5</ele><time>2026-04-27T03:27:15Z</time></trkpt><trkpt lat="45.96550596031524" lon="12.144024187484984"><ele>237.0</ele><time>2026-04-27T03:27:16Z</time></trkpt><trkpt lat="45.965495005990185" lon="12.143829021014879"><ele>237.75</ele><time>2026-04-27T03:27:17Z</time></trkpt><trkpt lat="45.96548436423727" lon="12.143641298994007"><ele>238.5</ele><time>2026-04-27T03:27:18Z</time></trkpt><trkpt lat="45.965472494172666" lon="12.143460503427614"><ele>239.25</ele><time>2026-04-27T03:27:19Z</time></trkpt><trkpt lat="45.96546316117645" lon="12.143283803425026"><ele>240.0</ele><time>2026-04-27T03:27:20Z</time></trkpt><trkpt lat="45.965453663016575" lon="12.143112792006024"><ele>240.2</ele><time>2026-04-27T03:27:21Z</time></trkpt><trkpt lat="45.965444559195284" lon="12.14294482635099"><ele>240.4</ele><time>2026-04-27T03:27:22Z</time></trkpt><trkpt lat="45.96543526142508" lon="12.142781555231537"><ele>240.60000000000002</ele><time>2026-04-27T03:27:23Z</time></trkpt><trkpt lat="45.965428316783964" lon="12.142623452991174"><ele>240.8</ele><time>2026-04-27T03:27:24Z</time></trkpt><trkpt lat="45.96542850075566" lon="12.142471424519925"><ele>241.0</ele><time>2026-04-27T03:27:25Z</time></trkpt><trkpt lat="45.96543277662625" lon="12.142324577611646"><ele>241.16666666666666</ele><time>2026-04-27T03:27:26Z</time></trkpt><trkpt lat="45.9654184349126" lon="12.142188170216519"><ele>241.33333333333331</ele><time>2026-04-27T03:27:27Z</time></trkpt><trkpt lat="45.96541232603419" lon="12.142057452943524"><ele>241.5</ele><time>2026-04-27T03:27:28Z</time></trkpt><trkpt lat="45.96544749693398" lon="12.141933541888358"><ele>241.66666666666669</ele><time>2026-04-27T03:27:29Z</time></trkpt><trkpt lat="45.96545549272017" lon="12.141818906595972"><ele>241.83333333333334</ele><time>2026-04-27T03:27:30Z</time></trkpt><trkpt lat="45.965440073666215" lon="12.141708414242926"><ele>242.0</ele><time>2026-04-27T03:27:31Z</time></trkpt><trkpt lat="45.96542367559388" lon="12.141596492576383"><ele>242.00000000000003</ele><time>2026-04-27T03:27:32Z</time></trkpt><trkpt lat="45.96541140426342" lon="12.141479666549822"><ele>242.0</ele><time>2026-04-27T03:27:33Z</time></trkpt><trkpt lat="45.965413036331206" lon="12.141355461438861"><ele>242.0</ele><time>2026-04-27T03:27:34Z</time></trkpt><trkpt lat="45.96542275079585" lon="12.141226402424547"><ele>242.0</ele><time>2026-04-27T03:27:35Z</time></trkpt><trkpt lat="45.9654324373132" lon="12.141093918556166"><ele>242.00000000000003</ele><time>2026-04-27T03:27:36Z</time></trkpt><trkpt lat="45.9654433731591" lon="12.140962397901028"><ele>242.0</ele><time>2026-04-27T03:27:37Z</time></trkpt><trkpt lat="45.96546020819859" lon="12.140827406526812"><ele>241.39999999999998</ele><time>2026-04-27T03:27:38Z</time></trkpt><trkpt lat="45.96547767881677" lon="12.140688077033175"><ele>240.79999999999998</ele><time>2026-04-27T03:27:39Z</time></trkpt><trkpt lat="45.965497219920124" lon="12.140544494028566"><ele>240.2</ele><time>2026-04-27T03:27:40Z</time></trkpt><trkpt lat="45.965516557096464" lon="12.140395439917011"><ele>239.6</ele><time>2026-04-27T03:27:41Z</time></trkpt><trkpt lat="45.965538775310364" lon="12.14024203180409"><ele>239.0</ele><time>2026-04-27T03:27:42Z</time></trkpt><trkpt lat="45.965560244745866" lon="12.140082008858407"><ele>239.0</ele><time>2026-04-27T03:27:43Z</time></trkpt><trkpt lat="45.96558080013444" lon="12.139918144024827"><ele>239.0</ele><time>2026-04-27T03:27:44Z</time></trkpt><trkpt lat="45.96560255502256" lon="12.139750498693289"><ele>239.0</ele><time>2026-04-27T03:27:45Z</time></trkpt><trkpt lat="45.96562352523614" lon="12.139580812510715"><ele>239.0</ele><time>2026-04-27T03:27:46Z</time></trkpt><trkpt lat="45.965645368429584" lon="12.139410629907063"><ele>239.0</ele><time>2026-04-27T03:27:46.999Z</time></trkpt><trkpt lat="45.96566659252904" lon="12.139242761782162"><ele>239.0</ele><time>2026-04-27T03:27:47.999Z</time></trkpt><trkpt lat="45.96568740741259" lon="12.139080703442255"><ele>239.0</ele><time>2026-04-27T03:27:48.999Z</time></trkpt><trkpt lat="45.96570800384957" lon="12.138922645487645"><ele>239.0</ele><time>2026-04-27T03:27:49.999Z</time></trkpt><trkpt lat="45.96572813147382" lon="12.13876932941231"><ele>239.0</ele><time>2026-04-27T03:27:50.999Z</time></trkpt><trkpt lat="45.96574597724245" lon="12.13862160957193"><ele>238.99999999999997</ele><time>2026-04-27T03:27:51.999Z</time></trkpt><trkpt lat="45.965764326558" lon="12.138478161246564"><ele>238.99999999999997</ele><time>2026-04-27T03:27:52.999Z</time></trkpt><trkpt lat="45.96578107865159" lon="12.138335943707013"><ele>239.0</ele><time>2026-04-27T03:27:53.999Z</time></trkpt><trkpt lat="45.9657959198958" lon="12.138193173475669"><ele>239.0</ele><time>2026-04-27T03:27:54.999Z</time></trkpt><trkpt lat="45.9658165929966" lon="12.138052306366088"><ele>238.6</ele><time>2026-04-27T03:27:55.999Z</time></trkpt><trkpt lat="45.965846068564794" lon="12.137918015247815"><ele>238.2</ele><time>2026-04-27T03:27:56.999Z</time></trkpt><trkpt lat="45.965888766363584" lon="12.137796962260573"><ele>237.79999999999998</ele><time>2026-04-27T03:27:57.999Z</time></trkpt><trkpt lat="45.96593128783514" lon="12.137680303280526"><ele>237.39999999999998</ele><time>2026-04-27T03:27:58.999Z</time></trkpt><trkpt lat="45.96594944626386" lon="12.137559804724269"><ele>237.0</ele><time>2026-04-27T03:27:59.999Z</time></trkpt><trkpt lat="45.965946159537246" lon="12.137436043166936"><ele>242.0</ele><time>2026-04-27T03:28:00.999Z</time></trkpt><trkpt lat="45.9659250262828" lon="12.137306556920306"><ele>247.0</ele><time>2026-04-27T03:28:01.999Z</time></trkpt><trkpt lat="45.96590252269162" lon="12.13717227103368"><ele>252.0</ele><time>2026-04-27T03:28:02.999Z</time></trkpt><trkpt lat="45.96588638381128" lon="12.137030526942368"><ele>257.0</ele><time>2026-04-27T03:28:03.999Z</time></trkpt><trkpt lat="45.9658796321931" lon="12.13688187025648"><ele>262.0</ele><time>2026-04-27T03:28:04.999Z</time></trkpt><trkpt lat="45.965876090289846" lon="12.13672860544347"><ele>262.0</ele><time>2026-04-27T03:28:05.999Z</time></trkpt><trkpt lat="45.96586947029602" lon="12.136568603582598"><ele>262.0</ele><time>2026-04-27T03:28:06.999Z</time></trkpt><trkpt lat="45.9658555221852" lon="12.136406231287388"><ele>262.0</ele><time>2026-04-27T03:28:07.999Z</time></trkpt><trkpt lat="45.96583874400515" lon="12.136240414711205"><ele>262.0</ele><time>2026-04-27T03:28:08.999Z</time></trkpt><trkpt lat="45.96581547070688" lon="12.136073884925377"><ele>257.0</ele><time>2026-04-27T03:28:09.999Z</time></trkpt><trkpt lat="45.96578726412021" lon="12.13590836151229"><ele>252.0</ele><time>2026-04-27T03:28:10.999Z</time></trkpt><trkpt lat="45.96575450190614" lon="12.135745962267004"><ele>247.0</ele><time>2026-04-27T03:28:11.999Z</time></trkpt><trkpt lat="45.96571674360457" lon="12.13558463947211"><ele>242.0</ele><time>2026-04-27T03:28:12.999Z</time></trkpt><trkpt lat="45.96567223553824" lon="12.135426752263633"><ele>241.25</ele><time>2026-04-27T03:28:13.999Z</time></trkpt><trkpt lat="45.96562297164825" lon="12.135269344979255"><ele>240.5</ele><time>2026-04-27T03:28:14.999Z</time></trkpt><trkpt lat="45.96556662922118" lon="12.135114985522893"><ele>239.75</ele><time>2026-04-27T03:28:15.999Z</time></trkpt><trkpt lat="45.96550322376938" lon="12.134963416294854"><ele>239.0</ele><time>2026-04-27T03:28:16.999Z</time></trkpt><trkpt lat="45.965433531975506" lon="12.134816015391747"><ele>238.0</ele><time>2026-04-27T03:28:17.999Z</time></trkpt><trkpt lat="45.965356041418715" lon="12.134672814850566"><ele>237.0</ele><time>2026-04-27T03:28:18.999Z</time></trkpt><trkpt lat="45.96527046024294" lon="12.134534137922547"><ele>236.0</ele><time>2026-04-27T03:28:19.999Z</time></trkpt><trkpt lat="45.96517667542445" lon="12.134400513335148"><ele>235.0</ele><time>2026-04-27T03:28:20.999Z</time></trkpt><trkpt lat="45.96507893367694" lon="12.134267841262538"><ele>235.0</ele><time>2026-04-27T03:28:21.999Z</time></trkpt><trkpt lat="45.96497851472889" lon="12.134135441704702"><ele>235.0</ele><time>2026-04-27T03:28:22.999Z</time></trkpt><trkpt lat="45.964878215095396" lon="12.133998633040061"><ele>235.0</ele><time>2026-04-27T03:28:23.999Z</time></trkpt><trkpt lat="45.964776578866235" lon="12.133859275348065"><ele>235.0</ele><time>2026-04-27T03:28:24.999Z</time></trkpt><trkpt lat="45.96467338230901" lon="12.133717568824526"><ele>234.25</ele><time>2026-04-27T03:28:25.999Z</time></trkpt><trkpt lat="45.964569289288086" lon="12.13357454269011"><ele>233.5</ele><time>2026-04-27T03:28:26.999Z</time></trkpt><trkpt lat="45.964462911126475" lon="12.133430081782622"><ele>232.75</ele><time>2026-04-27T03:28:27.999Z</time></trkpt><trkpt lat="45.96435597720412" lon="12.133282050041137"><ele>232.0</ele><time>2026-04-27T03:28:28.999Z</time></trkpt><trkpt lat="45.964247210947185" lon="12.13313490779503"><ele>230.66666666666666</ele><time>2026-04-27T03:28:29.999Z</time></trkpt><trkpt lat="45.96414041869816" lon="12.132986192813865"><ele>229.33333333333331</ele><time>2026-04-27T03:28:30.999Z</time></trkpt><trkpt lat="45.96402850669226" lon="12.132837162257953"><ele>228.0</ele><time>2026-04-27T03:28:31.999Z</time></trkpt><trkpt lat="45.96391615520453" lon="12.132683102316802"><ele>228.0</ele><time>2026-04-27T03:28:32.999Z</time></trkpt><trkpt lat="45.96380158315336" lon="12.13252791240397"><ele>228.0</ele><time>2026-04-27T03:28:33.999Z</time></trkpt><trkpt lat="45.96368498800508" lon="12.13236916259865"><ele>228.0</ele><time>2026-04-27T03:28:34.999Z</time></trkpt><trkpt lat="45.963566742099694" lon="12.132208629257251"><ele>227.66666666666669</ele><time>2026-04-27T03:28:35.999Z</time></trkpt><trkpt lat="45.963445083395875" lon="12.132047479021326"><ele>227.33333333333334</ele><time>2026-04-27T03:28:36.999Z</time></trkpt><trkpt lat="45.96332419206029" lon="12.131883829454582"><ele>227.0</ele><time>2026-04-27T03:28:37.999Z</time></trkpt><trkpt lat="45.96320469976465" lon="12.13171778408379"><ele>225.66666666666669</ele><time>2026-04-27T03:28:38.999Z</time></trkpt><trkpt lat="45.96308195628561" lon="12.131550867270125"><ele>224.33333333333331</ele><time>2026-04-27T03:28:39.999Z</time></trkpt><trkpt lat="45.96295924592871" lon="12.131385090919103"><ele>223.0</ele><time>2026-04-27T03:28:40.999Z</time></trkpt><trkpt lat="45.96283611166278" lon="12.13121961433242"><ele>223.0</ele><time>2026-04-27T03:28:41.999Z</time></trkpt><trkpt lat="45.9627134648488" lon="12.131051120624708"><ele>223.0</ele><time>2026-04-27T03:28:42.999Z</time></trkpt><trkpt lat="45.962589908463876" lon="12.13088424905304"><ele>223.0</ele><time>2026-04-27T03:28:43.999Z</time></trkpt><trkpt lat="45.96246687917727" lon="12.130717189149966"><ele>222.0</ele><time>2026-04-27T03:28:44.999Z</time></trkpt><trkpt lat="45.96234285059647" lon="12.130550170770121"><ele>221.0</ele><time>2026-04-27T03:28:45.999Z</time></trkpt><trkpt lat="45.96221990418125" lon="12.130381525279628"><ele>220.0</ele><time>2026-04-27T03:28:46.999Z</time></trkpt><trkpt lat="45.962095915128685" lon="12.130213350961743"><ele>220.0</ele><time>2026-04-27T03:28:47.999Z</time></trkpt><trkpt lat="45.96197248374963" lon="12.130044777142393"><ele>220.0</ele><time>2026-04-27T03:28:48.999Z</time></trkpt><trkpt lat="45.961848806511654" lon="12.129876367243849"><ele>220.0</ele><time>2026-04-27T03:28:49.999Z</time></trkpt><trkpt lat="45.96172410259779" lon="12.129707908217917"><ele>220.33333333333331</ele><time>2026-04-27T03:28:50.999Z</time></trkpt><trkpt lat="45.96159955338815" lon="12.129538229991844"><ele>220.66666666666669</ele><time>2026-04-27T03:28:51.999Z</time></trkpt><trkpt lat="45.961474530472245" lon="12.129368952477504"><ele>221.0</ele><time>2026-04-27T03:28:52.999Z</time></trkpt><trkpt lat="45.96134924671507" lon="12.129199431197021"><ele>219.66666666666669</ele><time>2026-04-27T03:28:53.999Z</time></trkpt><trkpt lat="45.96122268835374" lon="12.129029867765041"><ele>218.33333333333331</ele><time>2026-04-27T03:28:55Z</time></trkpt><trkpt lat="45.96109676726446" lon="12.128860131641865"><ele>217.0</ele><time>2026-04-27T03:28:56Z</time></trkpt><trkpt lat="45.960970694042096" lon="12.128689856383374"><ele>217.33333333333331</ele><time>2026-04-27T03:28:57Z</time></trkpt><trkpt lat="45.96084527759295" lon="12.128519283812546"><ele>217.66666666666669</ele><time>2026-04-27T03:28:58Z</time></trkpt><trkpt lat="45.96072139098144" lon="12.12834674633681"><ele>218.0</ele><time>2026-04-27T03:28:59Z</time></trkpt><trkpt lat="45.96059760831104" lon="12.128171909765541"><ele>218.0</ele><time>2026-04-27T03:29:00Z</time></trkpt><trkpt lat="45.96048161515418" lon="12.127985453463449"><ele>218.0</ele><time>2026-04-27T03:29:01Z</time></trkpt><trkpt lat="45.96037297505959" lon="12.127791861646376"><ele>218.0</ele><time>2026-04-27T03:29:02Z</time></trkpt><trkpt lat="45.9602696154084" lon="12.127592386463988"><ele>217.33333333333334</ele><time>2026-04-27T03:29:03Z</time></trkpt><trkpt lat="45.96017900041916" lon="12.12738411794606"><ele>216.66666666666669</ele><time>2026-04-27T03:29:04Z</time></trkpt><trkpt lat="45.96009503019438" lon="12.127169919445164"><ele>216.0</ele><time>2026-04-27T03:29:05Z</time></trkpt><trkpt lat="45.96001684717911" lon="12.126952585048862"><ele>215.66666666666669</ele><time>2026-04-27T03:29:06Z</time></trkpt><trkpt lat="45.9599453765303" lon="12.126730516065098"><ele>215.33333333333334</ele><time>2026-04-27T03:29:07Z</time></trkpt><trkpt lat="45.95987894750289" lon="12.126506153115539"><ele>215.0</ele><time>2026-04-27T03:29:08Z</time></trkpt><trkpt lat="45.95980906650162" lon="12.126284025855014"><ele>215.0</ele><time>2026-04-27T03:29:09Z</time></trkpt><trkpt lat="45.95973471184717" lon="12.126064283078868"><ele>215.0</ele><time>2026-04-27T03:29:10Z</time></trkpt><trkpt lat="45.95965681597634" lon="12.125851398042064"><ele>215.0</ele><time>2026-04-27T03:29:11Z</time></trkpt><trkpt lat="45.95958038466095" lon="12.125639620946675"><ele>214.66666666666669</ele><time>2026-04-27T03:29:12Z</time></trkpt><trkpt lat="45.95950268989464" lon="12.125432748749624"><ele>214.33333333333331</ele><time>2026-04-27T03:29:13Z</time></trkpt><trkpt lat="45.95942232260323" lon="12.125229099088171"><ele>214.0</ele><time>2026-04-27T03:29:14Z</time></trkpt><trkpt lat="45.95933922767889" lon="12.125029826848923"><ele>214.0</ele><time>2026-04-27T03:29:15Z</time></trkpt><trkpt lat="45.95925274321518" lon="12.124837190332299"><ele>214.0</ele><time>2026-04-27T03:29:16Z</time></trkpt><trkpt lat="45.959159436674184" lon="12.124651961636596"><ele>214.0</ele><time>2026-04-27T03:29:17Z</time></trkpt><trkpt lat="45.95905796616673" lon="12.124477394105787"><ele>213.33333333333331</ele><time>2026-04-27T03:29:18Z</time></trkpt><trkpt lat="45.95895172519662" lon="12.124309506238818"><ele>212.66666666666669</ele><time>2026-04-27T03:29:19Z</time></trkpt><trkpt lat="45.95884054762578" lon="12.124147780723359"><ele>212.0</ele><time>2026-04-27T03:29:20Z</time></trkpt><trkpt lat="45.95872447251709" lon="12.123995523926954"><ele>210.66666666666669</ele><time>2026-04-27T03:29:21Z</time></trkpt><trkpt lat="45.95860155898869" lon="12.123854762715064"><ele>209.33333333333331</ele><time>2026-04-27T03:29:22Z</time></trkpt><trkpt lat="45.958476737724084" lon="12.12371773004275"><ele>208.0</ele><time>2026-04-27T03:29:23Z</time></trkpt><trkpt lat="45.95834810173249" lon="12.123587309282604"><ele>207.66666666666666</ele><time>2026-04-27T03:29:24Z</time></trkpt><trkpt lat="45.95821646251119" lon="12.123461461059916"><ele>207.33333333333331</ele><time>2026-04-27T03:29:25Z</time></trkpt><trkpt lat="45.9580833348738" lon="12.123336755012232"><ele>207.0</ele><time>2026-04-27T03:29:26Z</time></trkpt><trkpt lat="45.95794970406184" lon="12.123212707362892"><ele>206.0</ele><time>2026-04-27T03:29:27Z</time></trkpt><trkpt lat="45.957814571990454" lon="12.123087011045142"><ele>205.0</ele><time>2026-04-27T03:29:28Z</time></trkpt><trkpt lat="45.95767918823439" lon="12.122961420547812"><ele>204.0</ele><time>2026-04-27T03:29:29Z</time></trkpt><trkpt lat="45.957543710529166" lon="12.122834878838997"><ele>203.66666666666669</ele><time>2026-04-27T03:29:30Z</time></trkpt><trkpt lat="45.95740946901177" lon="12.122706779650983"><ele>203.33333333333334</ele><time>2026-04-27T03:29:31Z</time></trkpt><trkpt lat="45.957273588149654" lon="12.122579943975731"><ele>203.0</ele><time>2026-04-27T03:29:32Z</time></trkpt><trkpt lat="45.95713829989364" lon="12.122451974806616"><ele>203.0</ele><time>2026-04-27T03:29:33Z</time></trkpt><trkpt lat="45.95700238429703" lon="12.122325380952477"><ele>203.0</ele><time>2026-04-27T03:29:34Z</time></trkpt><trkpt lat="45.95686583414593" lon="12.122197109841416"><ele>203.0</ele><time>2026-04-27T03:29:35Z</time></trkpt><trkpt lat="45.956728274416086" lon="12.122070734794026"><ele>202.33333333333334</ele><time>2026-04-27T03:29:36Z</time></trkpt><trkpt lat="45.95659165672331" lon="12.121941771460738"><ele>201.66666666666669</ele><time>2026-04-27T03:29:37Z</time></trkpt><trkpt lat="45.95645520002844" lon="12.121811628557024"><ele>201.0</ele><time>2026-04-27T03:29:38Z</time></trkpt><trkpt lat="45.9563158819258" lon="12.12168442854986"><ele>201.66666666666669</ele><time>2026-04-27T03:29:39Z</time></trkpt><trkpt lat="45.9561770863423" lon="12.121556217943152"><ele>202.33333333333334</ele><time>2026-04-27T03:29:40Z</time></trkpt><trkpt lat="45.95603900050829" lon="12.121427565639944"><ele>203.0</ele><time>2026-04-27T03:29:41Z</time></trkpt><trkpt lat="45.955899753697636" lon="12.121298176529354"><ele>201.66666666666669</ele><time>2026-04-27T03:29:42Z</time></trkpt><trkpt lat="45.95576157364173" lon="12.121169560761132"><ele>200.33333333333331</ele><time>2026-04-27T03:29:43Z</time></trkpt><trkpt lat="45.95562179917023" lon="12.12104209768161"><ele>199.0</ele><time>2026-04-27T03:29:43.999Z</time></trkpt><trkpt lat="45.955482184825826" lon="12.120915964118167"><ele>199.0</ele><time>2026-04-27T03:29:44.999Z</time></trkpt><trkpt lat="45.95534259055702" lon="12.120788228931437"><ele>199.0</ele><time>2026-04-27T03:29:45.999Z</time></trkpt><trkpt lat="45.9552045880636" lon="12.120659672446221"><ele>199.0</ele><time>2026-04-27T03:29:46.999Z</time></trkpt><trkpt lat="45.95506818986646" lon="12.120525669203893"><ele>198.33333333333331</ele><time>2026-04-27T03:29:47.999Z</time></trkpt><trkpt lat="45.95493365109177" lon="12.120389628455987"><ele>197.66666666666669</ele><time>2026-04-27T03:29:48.999Z</time></trkpt><trkpt lat="45.95480081917388" lon="12.120249979597391"><ele>197.0</ele><time>2026-04-27T03:29:49.999Z</time></trkpt><trkpt lat="45.95466752568579" lon="12.120110900628266"><ele>197.0</ele><time>2026-04-27T03:29:50.999Z</time></trkpt><trkpt lat="45.95453681150021" lon="12.119974093781481"><ele>197.0</ele><time>2026-04-27T03:29:51.999Z</time></trkpt><trkpt lat="45.9544078898719" lon="12.119836475244332"><ele>197.0</ele><time>2026-04-27T03:29:52.999Z</time></trkpt><trkpt lat="45.95427810220243" lon="12.1197050855437"><ele>198.0</ele><time>2026-04-27T03:29:53.999Z</time></trkpt><trkpt lat="45.95415094446701" lon="12.119575400653003"><ele>199.0</ele><time>2026-04-27T03:29:54.999Z</time></trkpt><trkpt lat="45.954026733616814" lon="12.119444948181481"><ele>200.0</ele><time>2026-04-27T03:29:55.999Z</time></trkpt><trkpt lat="45.953911394411605" lon="12.119305298087353"><ele>200.0</ele><time>2026-04-27T03:29:56.999Z</time></trkpt><trkpt lat="45.95380571587216" lon="12.119150954527912"><ele>200.0</ele><time>2026-04-27T03:29:57.999Z</time></trkpt><trkpt lat="45.953717499941945" lon="12.118981033486161"><ele>200.0</ele><time>2026-04-27T03:29:58.999Z</time></trkpt><trkpt lat="45.95363635685645" lon="12.118801377963667"><ele>200.0</ele><time>2026-04-27T03:29:59.999Z</time></trkpt><trkpt lat="45.95354960044721" lon="12.118622777081109"><ele>199.0</ele><time>2026-04-27T03:30:00.999Z</time></trkpt><trkpt lat="45.95345312885195" lon="12.118457618658223"><ele>198.0</ele><time>2026-04-27T03:30:01.999Z</time></trkpt><trkpt lat="45.953346145853764" lon="12.118309026613815"><ele>197.0</ele><time>2026-04-27T03:30:02.999Z</time></trkpt><trkpt lat="45.95323605160749" lon="12.11816310642101"><ele>196.0</ele><time>2026-04-27T03:30:03.999Z</time></trkpt><trkpt lat="45.95313104226495" lon="12.118004779039511"><ele>195.33333333333331</ele><time>2026-04-27T03:30:04.999Z</time></trkpt><trkpt lat="45.953040979969074" lon="12.117829142033562"><ele>194.66666666666669</ele><time>2026-04-27T03:30:05.999Z</time></trkpt><trkpt lat="45.952949822336365" lon="12.117647182704019"><ele>194.0</ele><time>2026-04-27T03:30:06.999Z</time></trkpt><trkpt lat="45.95285941421046" lon="12.117462897466236"><ele>194.0</ele><time>2026-04-27T03:30:07.999Z</time></trkpt><trkpt lat="45.9527681393494" lon="12.117278100747674"><ele>194.0</ele><time>2026-04-27T03:30:08.999Z</time></trkpt><trkpt lat="45.95267508743353" lon="12.117092464564996"><ele>194.0</ele><time>2026-04-27T03:30:09.999Z</time></trkpt><trkpt lat="45.952582458140675" lon="12.116904872865794"><ele>194.66666666666669</ele><time>2026-04-27T03:30:10.999Z</time></trkpt><trkpt lat="45.95248892802714" lon="12.116717314044823"><ele>195.33333333333331</ele><time>2026-04-27T03:30:11.999Z</time></trkpt><trkpt lat="45.95239486080448" lon="12.116527004404789"><ele>196.0</ele><time>2026-04-27T03:30:12.999Z</time></trkpt><trkpt lat="45.95230168134687" lon="12.116337109329434"><ele>196.0</ele><time>2026-04-27T03:30:13.999Z</time></trkpt><trkpt lat="45.95221117322503" lon="12.116145852360557"><ele>196.0</ele><time>2026-04-27T03:30:14.999Z</time></trkpt><trkpt lat="45.95212806284817" lon="12.115950142460278"><ele>196.0</ele><time>2026-04-27T03:30:15.999Z</time></trkpt><trkpt lat="45.95205542714986" lon="12.115749170815961"><ele>197.0</ele><time>2026-04-27T03:30:16.999Z</time></trkpt><trkpt lat="45.9519961827305" lon="12.115542585108772"><ele>198.0</ele><time>2026-04-27T03:30:17.999Z</time></trkpt><trkpt lat="45.951942473888366" lon="12.115333503473302"><ele>199.0</ele><time>2026-04-27T03:30:18.999Z</time></trkpt><trkpt lat="45.951901562618445" lon="12.115122156129562"><ele>199.0</ele><time>2026-04-27T03:30:19.999Z</time></trkpt><trkpt lat="45.95186994486429" lon="12.114907587108508"><ele>199.0</ele><time>2026-04-27T03:30:20.999Z</time></trkpt><trkpt lat="45.951847936951566" lon="12.114693791965772"><ele>199.0</ele><time>2026-04-27T03:30:21.999Z</time></trkpt><trkpt lat="45.951831824390865" lon="12.114478550168373"><ele>200.0</ele><time>2026-04-27T03:30:22.999Z</time></trkpt><trkpt lat="45.95181686190167" lon="12.114264886150753"><ele>201.0</ele><time>2026-04-27T03:30:23.999Z</time></trkpt><trkpt lat="45.95180514220129" lon="12.114049408072272"><ele>202.0</ele><time>2026-04-27T03:30:24.999Z</time></trkpt><trkpt lat="45.951791672174025" lon="12.113832709128266"><ele>203.25</ele><time>2026-04-27T03:30:25.999Z</time></trkpt><trkpt lat="45.95177718212579" lon="12.1136173396321"><ele>204.5</ele><time>2026-04-27T03:30:26.999Z</time></trkpt><trkpt lat="45.95176313603652" lon="12.113403241578984"><ele>205.75</ele><time>2026-04-27T03:30:27.999Z</time></trkpt><trkpt lat="45.951749440734815" lon="12.11319004616015"><ele>207.0</ele><time>2026-04-27T03:30:28.999Z</time></trkpt><trkpt lat="45.951735797539634" lon="12.112981138223121"><ele>207.5</ele><time>2026-04-27T03:30:29.999Z</time></trkpt><trkpt lat="45.95172199744401" lon="12.112778615419161"><ele>208.0</ele><time>2026-04-27T03:30:30.999Z</time></trkpt><trkpt lat="45.95170982448757" lon="12.112582737507664"><ele>208.5</ele><time>2026-04-27T03:30:31.999Z</time></trkpt><trkpt lat="45.95169846474226" lon="12.112393094671026"><ele>209.0</ele><time>2026-04-27T03:30:32.999Z</time></trkpt><trkpt lat="45.95168687482074" lon="12.112209984798497"><ele>209.0</ele><time>2026-04-27T03:30:33.999Z</time></trkpt><trkpt lat="45.95167592630304" lon="12.112036351297919"><ele>209.0</ele><time>2026-04-27T03:30:34.999Z</time></trkpt><trkpt lat="45.9516610644917" lon="12.111873680989504"><ele>209.0</ele><time>2026-04-27T03:30:35.999Z</time></trkpt><trkpt lat="45.951640012168234" lon="12.111719884685284"><ele>209.0</ele><time>2026-04-27T03:30:36.999Z</time></trkpt><trkpt lat="45.95161342625662" lon="12.11157206110687"><ele>209.79999999999998</ele><time>2026-04-27T03:30:37.999Z</time></trkpt><trkpt lat="45.951580528071965" lon="12.111429049009084"><ele>210.6</ele><time>2026-04-27T03:30:38.999Z</time></trkpt><trkpt lat="45.95154261601499" lon="12.111291772304133"><ele>211.4</ele><time>2026-04-27T03:30:39.999Z</time></trkpt><trkpt lat="45.95149718968372" lon="12.111159992310604"><ele>212.2</ele><time>2026-04-27T03:30:40.999Z</time></trkpt><trkpt lat="45.95144474799938" lon="12.111031192240077"><ele>213.0</ele><time>2026-04-27T03:30:41.999Z</time></trkpt><trkpt lat="45.95139089844001" lon="12.110902005311475"><ele>213.0</ele><time>2026-04-27T03:30:42.999Z</time></trkpt><trkpt lat="45.951336527456405" lon="12.110773846333414"><ele>213.0</ele><time>2026-04-27T03:30:43.999Z</time></trkpt><trkpt lat="45.951283600840945" lon="12.11064380106992"><ele>213.0</ele><time>2026-04-27T03:30:44.999Z</time></trkpt><trkpt lat="45.951229968694065" lon="12.110515613526916"><ele>213.0</ele><time>2026-04-27T03:30:45.999Z</time></trkpt><trkpt lat="45.95117385989092" lon="12.11038953538479"><ele>213.0</ele><time>2026-04-27T03:30:46.999Z</time></trkpt><trkpt lat="45.95111840998807" lon="12.11026511592306"><ele>213.4</ele><time>2026-04-27T03:30:47.999Z</time></trkpt><trkpt lat="45.951062426848424" lon="12.110142429431646"><ele>213.8</ele><time>2026-04-27T03:30:48.999Z</time></trkpt><trkpt lat="45.95100966099403" lon="12.1100191629265"><ele>214.2</ele><time>2026-04-27T03:30:49.999Z</time></trkpt><trkpt lat="45.950957161570535" lon="12.109898666030283"><ele>214.6</ele><time>2026-04-27T03:30:50.999Z</time></trkpt><trkpt lat="45.95090708791284" lon="12.109779848317546"><ele>215.0</ele><time>2026-04-27T03:30:51.999Z</time></trkpt><trkpt lat="45.95085764587766" lon="12.10966180984948"><ele>215.0</ele><time>2026-04-27T03:30:52.999Z</time></trkpt><trkpt lat="45.95081074657655" lon="12.109545878620604"><ele>215.0</ele><time>2026-04-27T03:30:53.999Z</time></trkpt><trkpt lat="45.95075745723375" lon="12.109435183889671"><ele>215.0</ele><time>2026-04-27T03:30:54.999Z</time></trkpt><trkpt lat="45.95070019172037" lon="12.109327422597888"><ele>215.0</ele><time>2026-04-27T03:30:55.999Z</time></trkpt><trkpt lat="45.95064119199446" lon="12.109223223904841"><ele>215.0</ele><time>2026-04-27T03:30:56.999Z</time></trkpt><trkpt lat="45.95058010479421" lon="12.109121772521341"><ele>215.50000000000003</ele><time>2026-04-27T03:30:57.999Z</time></trkpt><trkpt lat="45.95051554026492" lon="12.109027922640735"><ele>216.0</ele><time>2026-04-27T03:30:58.999Z</time></trkpt><trkpt lat="45.95044874790145" lon="12.10894238625976"><ele>216.5</ele><time>2026-04-27T03:30:59.999Z</time></trkpt><trkpt lat="45.95038317018016" lon="12.108858875175281"><ele>217.0</ele><time>2026-04-27T03:31:01Z</time></trkpt><trkpt lat="45.95031643850834" lon="12.108780168030059"><ele>217.50000000000003</ele><time>2026-04-27T03:31:02Z</time></trkpt><trkpt lat="45.95025037493403" lon="12.10870647343101"><ele>218.0</ele><time>2026-04-27T03:31:03Z</time></trkpt><trkpt lat="45.950189934271" lon="12.10863658076473"><ele>218.0</ele><time>2026-04-27T03:31:04Z</time></trkpt><trkpt lat="45.950130119277524" lon="12.1085690416248"><ele>218.0</ele><time>2026-04-27T03:31:05Z</time></trkpt><trkpt lat="45.95007217293427" lon="12.10850373407924"><ele>218.0</ele><time>2026-04-27T03:31:06Z</time></trkpt><trkpt lat="45.95001710305641" lon="12.108441268066425"><ele>218.0</ele><time>2026-04-27T03:31:07Z</time></trkpt><trkpt lat="45.94992374543557" lon="12.108336208246929"><ele>218.0</ele><time>2026-04-27T03:31:09Z</time></trkpt><trkpt lat="45.949826474703976" lon="12.108224087011703"><ele>218.00000000000003</ele><time>2026-04-27T03:31:11Z</time></trkpt><trkpt lat="45.94977472417746" lon="12.108162148334534"><ele>218.0</ele><time>2026-04-27T03:31:12Z</time></trkpt><trkpt lat="45.949719571201534" lon="12.108098135980061"><ele>218.0</ele><time>2026-04-27T03:31:13Z</time></trkpt><trkpt lat="45.94966210967823" lon="12.108033755764914"><ele>218.0</ele><time>2026-04-27T03:31:14Z</time></trkpt><trkpt lat="45.94960608293884" lon="12.107969804966846"><ele>218.00000000000003</ele><time>2026-04-27T03:31:15Z</time></trkpt><trkpt lat="45.94951342167137" lon="12.107862292211108"><ele>218.0</ele><time>2026-04-27T03:31:17Z</time></trkpt><trkpt lat="45.949451108999455" lon="12.107790106239788"><ele>218.0</ele><time>2026-04-27T03:31:19Z</time></trkpt><trkpt lat="45.94939123060427" lon="12.107746718294063"><ele>218.0</ele><time>2026-04-27T03:31:56.999Z</time></trkpt><trkpt lat="45.94931057461643" lon="12.107655897601386"><ele>218.0</ele><time>2026-04-27T03:31:58.999Z</time></trkpt><trkpt lat="45.94922269114733" lon="12.107549964593186"><ele>218.0</ele><time>2026-04-27T03:32:00.999Z</time></trkpt><trkpt lat="45.94913299500762" lon="12.107440956265561"><ele>218.0</ele><time>2026-04-27T03:32:02.999Z</time></trkpt><trkpt lat="45.94906651855205" lon="12.107360669918966"><ele>219.16666666666669</ele><time>2026-04-27T03:32:04.999Z</time></trkpt><trkpt lat="45.94900276719875" lon="12.107341589385129"><ele>220.33333333333334</ele><time>2026-04-27T03:32:24.999Z</time></trkpt><trkpt lat="45.94892908204387" lon="12.107250956652933"><ele>221.5</ele><time>2026-04-27T03:32:26.999Z</time></trkpt><trkpt lat="45.94883197227016" lon="12.107148963480721"><ele>222.66666666666669</ele><time>2026-04-27T03:32:28.999Z</time></trkpt><trkpt lat="45.948762814451925" lon="12.107073645873417"><ele>223.83333333333334</ele><time>2026-04-27T03:32:30.999Z</time></trkpt><trkpt lat="45.94871217893909" lon="12.107005829713156"><ele>225.0</ele><time>2026-04-27T03:32:32.999Z</time></trkpt><trkpt lat="45.94870423611313" lon="12.106903940479025"><ele>225.0</ele><time>2026-04-27T03:32:34.999Z</time></trkpt><trkpt lat="45.94874440288302" lon="12.106813973904123"><ele>225.0</ele><time>2026-04-27T03:32:36.999Z</time></trkpt><trkpt lat="45.94882848150719" lon="12.106773618187997"><ele>225.0</ele><time>2026-04-27T03:32:38.999Z</time></trkpt><trkpt lat="45.94889214873441" lon="12.106688657662966"><ele>225.0</ele><time>2026-04-27T03:32:40.999Z</time></trkpt><trkpt lat="45.948965268174256" lon="12.106590560963475"><ele>225.0</ele><time>2026-04-27T03:32:42.999Z</time></trkpt><trkpt lat="45.94903005810375" lon="12.10647668450874"><ele>225.83333333333334</ele><time>2026-04-27T03:32:44.999Z</time></trkpt><trkpt lat="45.94910021144618" lon="12.106382352659345"><ele>226.66666666666669</ele><time>2026-04-27T03:32:46.999Z</time></trkpt><trkpt lat="45.94916951787851" lon="12.106290831398402"><ele>227.5</ele><time>2026-04-27T03:32:48.999Z</time></trkpt><trkpt lat="45.949223767107405" lon="12.106221476113552"><ele>228.33333333333334</ele><time>2026-04-27T03:32:50.999Z</time></trkpt><trkpt lat="45.949274745179125" lon="12.106152229471318"><ele>229.16666666666669</ele><time>2026-04-27T03:32:54.999Z</time></trkpt><trkpt lat="45.94934332459357" lon="12.106059131408314"><ele>230.0</ele><time>2026-04-27T03:32:57.999Z</time></trkpt><trkpt lat="45.94940003305243" lon="12.105980039216703"><ele>230.00000000000003</ele><time>2026-04-27T03:32:59.999Z</time></trkpt><trkpt lat="45.94945748589603" lon="12.105908367408045"><ele>230.0</ele><time>2026-04-27T03:33:02.999Z</time></trkpt><trkpt lat="45.949397145079814" lon="12.105984965695374"><ele>230.0</ele><time>2026-04-27T03:33:10Z</time></trkpt><trkpt lat="45.94933485118003" lon="12.10606690616161"><ele>230.0</ele><time>2026-04-27T03:33:13Z</time></trkpt><trkpt lat="45.949289822725234" lon="12.106132868639753"><ele>230.00000000000003</ele><time>2026-04-27T03:33:15Z</time></trkpt><trkpt lat="45.94924437249725" lon="12.106199508669418"><ele>230.0</ele><time>2026-04-27T03:33:17Z</time></trkpt><trkpt lat="45.949182739910675" lon="12.10628084989623"><ele>230.00000000000003</ele><time>2026-04-27T03:33:20Z</time></trkpt><trkpt lat="45.94911880353928" lon="12.106364522178119"><ele>230.0</ele><time>2026-04-27T03:33:23Z</time></trkpt><trkpt lat="45.94905546353076" lon="12.106447570139798"><ele>230.0</ele><time>2026-04-27T03:33:26Z</time></trkpt><trkpt lat="45.948996000202804" lon="12.106537114391603"><ele>230.0</ele><time>2026-04-27T03:33:29Z</time></trkpt><trkpt lat="45.94893674801832" lon="12.106611354588068"><ele>230.00000000000003</ele><time>2026-04-27T03:33:33Z</time></trkpt><trkpt lat="45.94887852587765" lon="12.106687794127962"><ele>230.0</ele><time>2026-04-27T03:33:36Z</time></trkpt><trkpt lat="45.94882535280128" lon="12.106758516886252"><ele>229.0</ele><time>2026-04-27T03:33:39.999Z</time></trkpt><trkpt lat="45.948774657236626" lon="12.106824688982854"><ele>228.0</ele><time>2026-04-27T03:33:44.999Z</time></trkpt><trkpt lat="45.94873365802527" lon="12.106914754112099"><ele>227.0</ele><time>2026-04-27T03:33:52.999Z</time></trkpt><trkpt lat="45.94859080784408" lon="12.106839380435645"><ele>226.0</ele><time>2026-04-27T03:34:01.999Z</time></trkpt><trkpt lat="45.948523556531995" lon="12.106750639537434"><ele>225.0</ele><time>2026-04-27T03:34:03.999Z</time></trkpt><trkpt lat="45.94843842958643" lon="12.106644284281108"><ele>225.75</ele><time>2026-04-27T03:34:05.999Z</time></trkpt><trkpt lat="45.94834838942712" lon="12.106523234465609"><ele>226.5</ele><time>2026-04-27T03:34:07.999Z</time></trkpt><trkpt lat="45.94826565024341" lon="12.106393877378407"><ele>227.25</ele><time>2026-04-27T03:34:09.999Z</time></trkpt><trkpt lat="45.948195606245605" lon="12.106260594106994"><ele>228.0</ele><time>2026-04-27T03:34:11.999Z</time></trkpt><trkpt lat="45.94813548457391" lon="12.106136736739627"><ele>228.0</ele><time>2026-04-27T03:34:13.999Z</time></trkpt><trkpt lat="45.94809129713476" lon="12.106053707467666"><ele>228.0</ele><time>2026-04-27T03:34:16.999Z</time></trkpt><trkpt lat="45.94801564915611" lon="12.106031430131841"><ele>228.0</ele><time>2026-04-27T03:34:41.999Z</time></trkpt><trkpt lat="45.94795077084824" lon="12.106077503179748"><ele>228.0</ele><time>2026-04-27T03:34:44.999Z</time></trkpt><trkpt lat="45.94788747018271" lon="12.105948016440474"><ele>228.0</ele><time>2026-04-27T03:37:17.999Z</time></trkpt><trkpt lat="45.947868188950814" lon="12.105855353897566"><ele>228.0</ele><time>2026-04-27T03:37:20.999Z</time></trkpt><trkpt lat="45.94789747898999" lon="12.105729343651621"><ele>229.0</ele><time>2026-04-27T03:37:24.999Z</time></trkpt><trkpt lat="45.947837436033296" lon="12.105595294999633"><ele>230.0</ele><time>2026-04-27T03:37:26.999Z</time></trkpt><trkpt lat="45.94778182659881" lon="12.105478892407472"><ele>231.0</ele><time>2026-04-27T03:37:28.999Z</time></trkpt><trkpt lat="45.94772079447896" lon="12.10535670248088"><ele>232.0</ele><time>2026-04-27T03:37:49.999Z</time></trkpt><trkpt lat="45.947657848849516" lon="12.105238543303063"><ele>233.0</ele><time>2026-04-27T03:37:51.999Z</time></trkpt><trkpt lat="45.94757360636702" lon="12.105103964538058"><ele>233.00000000000003</ele><time>2026-04-27T03:37:53.999Z</time></trkpt><trkpt lat="45.94751879873695" lon="12.104979216823278"><ele>233.0</ele><time>2026-04-27T03:37:55.999Z</time></trkpt><trkpt lat="45.94747517170909" lon="12.10489273211913"><ele>233.0</ele><time>2026-04-27T03:38:30.999Z</time></trkpt><trkpt lat="45.94741586632853" lon="12.104779075902083"><ele>233.0</ele><time>2026-04-27T03:38:32.999Z</time></trkpt><trkpt lat="45.947382725383854" lon="12.104695632080109"><ele>233.00000000000003</ele><time>2026-04-27T03:38:33.999Z</time></trkpt><trkpt lat="45.9473445535407" lon="12.104617130786696"><ele>233.0</ele><time>2026-04-27T03:38:34.999Z</time></trkpt><trkpt lat="45.94728211540355" lon="12.104503540762357"><ele>233.50000000000003</ele><time>2026-04-27T03:38:36.999Z</time></trkpt><trkpt lat="45.94727763031033" lon="12.104389290566882"><ele>234.0</ele><time>2026-04-27T03:38:40.999Z</time></trkpt><trkpt lat="45.94738580055756" lon="12.104395794915472"><ele>234.5</ele><time>2026-04-27T03:38:42.999Z</time></trkpt><trkpt lat="45.9474794153512" lon="12.104507115953876"><ele>235.0</ele><time>2026-04-27T03:38:44.999Z</time></trkpt><trkpt lat="45.947531930619895" lon="12.104569080712691"><ele>235.50000000000003</ele><time>2026-04-27T03:38:45.999Z</time></trkpt><trkpt lat="45.94759256397929" lon="12.104622024553073"><ele>236.0</ele><time>2026-04-27T03:38:46.999Z</time></trkpt><trkpt lat="45.94765244307212" lon="12.104663338122375"><ele>237.20000000000002</ele><time>2026-04-27T03:38:47.999Z</time></trkpt><trkpt lat="45.947757553253936" lon="12.104693880898171"><ele>238.40000000000003</ele><time>2026-04-27T03:38:49.999Z</time></trkpt><trkpt lat="45.94783712417447" lon="12.104671422709732"><ele>239.6</ele><time>2026-04-27T03:39:08.999Z</time></trkpt><trkpt lat="45.947912823447645" lon="12.104641794158967"><ele>240.8</ele><time>2026-04-27T03:39:24.999Z</time></trkpt><trkpt lat="45.94801812112927" lon="12.104573616252516"><ele>242.0</ele><time>2026-04-27T03:39:26.999Z</time></trkpt><trkpt lat="45.948096747288794" lon="12.104495274972908"><ele>242.0</ele><time>2026-04-27T03:39:28.999Z</time></trkpt><trkpt lat="45.94817544906417" lon="12.104389220614848"><ele>242.0</ele><time>2026-04-27T03:39:45.999Z</time></trkpt><trkpt lat="45.94822628787389" lon="12.104325519084332"><ele>242.0</ele><time>2026-04-27T03:39:46.999Z</time></trkpt><trkpt lat="45.948298166416755" lon="12.104232932621974"><ele>242.0</ele><time>2026-04-27T03:39:48.999Z</time></trkpt><trkpt lat="45.94837254517898" lon="12.104154967474534"><ele>242.0</ele><time>2026-04-27T03:40:19.999Z</time></trkpt><trkpt lat="45.94846111624012" lon="12.104099638512444"><ele>245.6</ele><time>2026-04-27T03:40:40.999Z</time></trkpt><trkpt lat="45.94855762692482" lon="12.104137791620351"><ele>249.2</ele><time>2026-04-27T03:40:42.999Z</time></trkpt><trkpt lat="45.948649085267995" lon="12.104243486034969"><ele>252.8</ele><time>2026-04-27T03:40:44.999Z</time></trkpt><trkpt lat="45.9487094110101" lon="12.104275784568708"><ele>256.4</ele><time>2026-04-27T03:40:45.999Z</time></trkpt><trkpt lat="45.94876143983885" lon="12.10432726955047"><ele>260.0</ele><time>2026-04-27T03:40:46.999Z</time></trkpt><trkpt lat="45.94886866861337" lon="12.104348288054911"><ele>260.0</ele><time>2026-04-27T03:40:48.999Z</time></trkpt><trkpt lat="45.94894645064578" lon="12.10427875370571"><ele>260.0</ele><time>2026-04-27T03:40:50.999Z</time></trkpt><trkpt lat="45.94897976925556" lon="12.104182546055354"><ele>260.0</ele><time>2026-04-27T03:40:52.999Z</time></trkpt><trkpt lat="45.948928149360206" lon="12.104089841675282"><ele>260.0</ele><time>2026-04-27T03:40:55.999Z</time></trkpt><trkpt lat="45.94884020104602" lon="12.104046716173011"><ele>260.0</ele><time>2026-04-27T03:40:58.999Z</time></trkpt><trkpt lat="45.948760334137035" lon="12.103996117789917"><ele>260.0</ele><time>2026-04-27T03:41:00.999Z</time></trkpt><trkpt lat="45.94868048324708" lon="12.103905522919172"><ele>263.5</ele><time>2026-04-27T03:41:02.999Z</time></trkpt><trkpt lat="45.94859490275272" lon="12.103784146526491"><ele>267.0</ele><time>2026-04-27T03:41:04.999Z</time></trkpt><trkpt lat="45.94854760929903" lon="12.103716038446853"><ele>270.5</ele><time>2026-04-27T03:41:05.999Z</time></trkpt><trkpt lat="45.94851052159934" lon="12.103636445895429"><ele>274.0</ele><time>2026-04-27T03:41:06.999Z</time></trkpt><trkpt lat="45.94849189192027" lon="12.103542856138432"><ele>277.5</ele><time>2026-04-27T03:41:07.999Z</time></trkpt><trkpt lat="45.948486581083564" lon="12.10344042421492"><ele>281.0</ele><time>2026-04-27T03:41:08.999Z</time></trkpt><trkpt lat="45.94848516160796" lon="12.103329878623112"><ele>281.0</ele><time>2026-04-27T03:41:09.999Z</time></trkpt><trkpt lat="45.9484901849931" lon="12.103220122742034"><ele>281.0</ele><time>2026-04-27T03:41:10.999Z</time></trkpt><trkpt lat="45.9485171723627" lon="12.103076881256714"><ele>281.0</ele><time>2026-04-27T03:41:12.999Z</time></trkpt><trkpt lat="45.9485905596347" lon="12.103188076476988"><ele>281.0</ele><time>2026-04-27T03:41:18Z</time></trkpt><trkpt lat="45.948547197323926" lon="12.103088072919236"><ele>281.0</ele><time>2026-04-27T03:41:35Z</time></trkpt><trkpt lat="45.94848080005794" lon="12.10315287405134"><ele>281.0</ele><time>2026-04-27T03:41:38Z</time></trkpt><trkpt lat="45.94846818562242" lon="12.10327990511557"><ele>281.0</ele><time>2026-04-27T03:41:40Z</time></trkpt><trkpt lat="45.94846720925169" lon="12.103451680695743"><ele>281.0</ele><time>2026-04-27T03:41:42Z</time></trkpt><trkpt lat="45.948489635593596" lon="12.103620803810422"><ele>281.0</ele><time>2026-04-27T03:41:44Z</time></trkpt><trkpt lat="45.94853243972135" lon="12.10370749003845"><ele>281.0</ele><time>2026-04-27T03:41:46Z</time></trkpt><trkpt lat="45.94858502061247" lon="12.103794583322331"><ele>281.0</ele><time>2026-04-27T03:42:02Z</time></trkpt><trkpt lat="45.948668253909176" lon="12.103919319968677"><ele>281.0</ele><time>2026-04-27T03:42:04Z</time></trkpt><trkpt lat="45.94872907675685" lon="12.103983467222172"><ele>281.0</ele><time>2026-04-27T03:42:06Z</time></trkpt><trkpt lat="45.94882239360858" lon="12.104060828231944"><ele>281.0</ele><time>2026-04-27T03:42:21Z</time></trkpt><trkpt lat="45.948914893003845" lon="12.104100174184529"><ele>281.0</ele><time>2026-04-27T03:42:23Z</time></trkpt><trkpt lat="45.94895140088293" lon="12.104206729754363"><ele>281.0</ele><time>2026-04-27T03:42:26Z</time></trkpt><trkpt lat="45.9488918496755" lon="12.104316114484519"><ele>281.0</ele><time>2026-04-27T03:42:28Z</time></trkpt><trkpt lat="45.948793422794765" lon="12.104328513698116"><ele>281.0</ele><time>2026-04-27T03:42:30Z</time></trkpt><trkpt lat="45.948732911312405" lon="12.104285619062706"><ele>281.0</ele><time>2026-04-27T03:42:31Z</time></trkpt><trkpt lat="45.94867179442334" lon="12.104221987659386"><ele>281.0</ele><time>2026-04-27T03:42:32Z</time></trkpt><trkpt lat="45.94860969368983" lon="12.10415473765661"><ele>281.0</ele><time>2026-04-27T03:42:33Z</time></trkpt><trkpt lat="45.94854451320798" lon="12.104099339963955"><ele>281.0</ele><time>2026-04-27T03:42:34Z</time></trkpt><trkpt lat="45.9484715693992" lon="12.104069987862802"><ele>281.0</ele><time>2026-04-27T03:42:35Z</time></trkpt><trkpt lat="45.948394400848926" lon="12.104077778667667"><ele>281.0</ele><time>2026-04-27T03:42:36Z</time></trkpt><trkpt lat="45.94833469105991" lon="12.104121166567987"><ele>281.0</ele><time>2026-04-27T03:42:37Z</time></trkpt><trkpt lat="45.94828659543659" lon="12.10418565003271"><ele>281.0</ele><time>2026-04-27T03:42:39Z</time></trkpt><trkpt lat="45.9482136504838" lon="12.10431360465349"><ele>281.0</ele><time>2026-04-27T03:42:59Z</time></trkpt><trkpt lat="45.94816120266671" lon="12.104385454515414"><ele>281.0</ele><time>2026-04-27T03:43:00Z</time></trkpt><trkpt lat="45.94809744794644" lon="12.104461647086818"><ele>274.5</ele><time>2026-04-27T03:43:01Z</time></trkpt><trkpt lat="45.94803087067235" lon="12.104534807820558"><ele>268.0</ele><time>2026-04-27T03:43:02Z</time></trkpt><trkpt lat="45.947960195947495" lon="12.104588986150597"><ele>261.5</ele><time>2026-04-27T03:43:03Z</time></trkpt><trkpt lat="45.9478836709565" lon="12.104624039506891"><ele>255.0</ele><time>2026-04-27T03:43:04Z</time></trkpt><trkpt lat="45.94780478794024" lon="12.104651068980722"><ele>248.50000000000003</ele><time>2026-04-27T03:43:05Z</time></trkpt><trkpt lat="45.94772238693332" lon="12.104651862142909"><ele>242.0</ele><time>2026-04-27T03:43:06Z</time></trkpt><trkpt lat="45.94764600903631" lon="12.104625713937265"><ele>242.00000000000003</ele><time>2026-04-27T03:43:07Z</time></trkpt><trkpt lat="45.94757786828034" lon="12.104582896125066"><ele>242.0</ele><time>2026-04-27T03:43:08Z</time></trkpt><trkpt lat="45.947515474755384" lon="12.104520544190681"><ele>242.0</ele><time>2026-04-27T03:43:09Z</time></trkpt><trkpt lat="45.94746231614436" lon="12.104448073104601"><ele>242.0</ele><time>2026-04-27T03:43:10Z</time></trkpt><trkpt lat="45.94741341642037" lon="12.104375762803379"><ele>242.00000000000003</ele><time>2026-04-27T03:43:11Z</time></trkpt><trkpt lat="45.947340245970985" lon="12.104276878253458"><ele>242.0</ele><time>2026-04-27T03:43:12.999Z</time></trkpt><trkpt lat="45.947275229189074" lon="12.104304479398442"><ele>241.83333333333334</ele><time>2026-04-27T03:43:53Z</time></trkpt><trkpt lat="45.9472166551782" lon="12.10438021058268"><ele>241.66666666666669</ele><time>2026-04-27T03:43:59Z</time></trkpt><trkpt lat="45.94716961551809" lon="12.104279169674953"><ele>241.5</ele><time>2026-04-27T03:44:00Z</time></trkpt><trkpt lat="45.94711691190943" lon="12.104129525869753"><ele>241.33333333333331</ele><time>2026-04-27T03:44:02Z</time></trkpt><trkpt lat="45.94708741580101" lon="12.104048087217908"><ele>241.16666666666666</ele><time>2026-04-27T03:44:03Z</time></trkpt><trkpt lat="45.94705655437212" lon="12.103963159898639"><ele>241.0</ele><time>2026-04-27T03:44:04Z</time></trkpt><trkpt lat="45.947025854270805" lon="12.103873374492606"><ele>240.99999999999997</ele><time>2026-04-27T03:44:05Z</time></trkpt><trkpt lat="45.94699626325205" lon="12.103780256153398"><ele>241.0</ele><time>2026-04-27T03:44:06Z</time></trkpt><trkpt lat="45.9469676551784" lon="12.103681789058287"><ele>241.0</ele><time>2026-04-27T03:44:07Z</time></trkpt><trkpt lat="45.94693788718554" lon="12.103580350203273"><ele>241.0</ele><time>2026-04-27T03:44:08Z</time></trkpt><trkpt lat="45.94690826000394" lon="12.10348176874901"><ele>240.99999999999997</ele><time>2026-04-27T03:44:09Z</time></trkpt><trkpt lat="45.94688175302444" lon="12.103391857888166"><ele>241.0</ele><time>2026-04-27T03:44:10Z</time></trkpt><trkpt lat="45.94684651754787" lon="12.10325888042893"><ele>241.4</ele><time>2026-04-27T03:44:12Z</time></trkpt><trkpt lat="45.94682656331284" lon="12.103170862142088"><ele>241.8</ele><time>2026-04-27T03:44:15Z</time></trkpt><trkpt lat="45.94679134337695" lon="12.10305894140318"><ele>242.20000000000002</ele><time>2026-04-27T03:44:37Z</time></trkpt><trkpt lat="45.946749649814706" lon="12.1029228859752"><ele>242.60000000000002</ele><time>2026-04-27T03:44:39Z</time></trkpt><trkpt lat="45.94670159354381" lon="12.10276064607525"><ele>243.0</ele><time>2026-04-27T03:44:41Z</time></trkpt><trkpt lat="45.94666833308262" lon="12.102637476200165"><ele>243.66666666666666</ele><time>2026-04-27T03:44:43Z</time></trkpt><trkpt lat="45.94674133910662" lon="12.102603077956347"><ele>244.33333333333331</ele><time>2026-04-27T03:44:45Z</time></trkpt><trkpt lat="45.946800278234264" lon="12.102562002204195"><ele>245.0</ele><time>2026-04-27T03:44:48Z</time></trkpt><trkpt lat="45.946867293698816" lon="12.102510319267148"><ele>245.66666666666666</ele><time>2026-04-27T03:45:03Z</time></trkpt><trkpt lat="45.946951175335904" lon="12.102446037001785"><ele>246.33333333333331</ele><time>2026-04-27T03:45:05Z</time></trkpt><trkpt lat="45.94703387710267" lon="12.102398950917927"><ele>247.0</ele><time>2026-04-27T03:45:07Z</time></trkpt><trkpt lat="45.94710059996161" lon="12.102384544880694"><ele>247.0</ele><time>2026-04-27T03:45:09Z</time></trkpt><trkpt lat="45.94715813160367" lon="12.102339340936485"><ele>247.0</ele><time>2026-04-27T03:45:12Z</time></trkpt><trkpt lat="45.94720897191964" lon="12.10228106607349"><ele>247.0</ele><time>2026-04-27T03:45:14Z</time></trkpt><trkpt lat="45.94727166143991" lon="12.102229760508244"><ele>247.0</ele><time>2026-04-27T03:45:16Z</time></trkpt><trkpt lat="45.94743300141704" lon="12.102758775307993"><ele>246.99999999999997</ele><time>2026-04-27T03:46:05Z</time></trkpt><trkpt lat="45.94747354077656" lon="12.102852367344099"><ele>247.0</ele><time>2026-04-27T03:46:09Z</time></trkpt><trkpt lat="45.94750970435663" lon="12.102927245692804"><ele>247.0</ele><time>2026-04-27T03:46:14Z</time></trkpt><trkpt lat="45.94746753878519" lon="12.102831629798233"><ele>247.0</ele><time>2026-04-27T03:46:19Z</time></trkpt><trkpt lat="45.94742487419852" lon="12.102666193808073"><ele>246.99999999999997</ele><time>2026-04-27T03:46:21Z</time></trkpt><trkpt lat="45.94738747473158" lon="12.102590441833172"><ele>247.0</ele><time>2026-04-27T03:46:22Z</time></trkpt><trkpt lat="45.9473515388722" lon="12.102514236296116"><ele>248.6</ele><time>2026-04-27T03:46:23Z</time></trkpt><trkpt lat="45.947286233939394" lon="12.10237124684184"><ele>250.2</ele><time>2026-04-27T03:46:25Z</time></trkpt><trkpt lat="45.94723945068757" lon="12.102269712037618"><ele>251.8</ele><time>2026-04-27T03:46:27Z</time></trkpt><trkpt lat="45.947155036379556" lon="12.102259339011919"><ele>253.4</ele><time>2026-04-27T03:46:30Z</time></trkpt><trkpt lat="45.947093393629714" lon="12.102317480629097"><ele>255.0</ele><time>2026-04-27T03:46:49Z</time></trkpt><trkpt lat="45.9469972946666" lon="12.102388753935887"><ele>253.66666666666666</ele><time>2026-04-27T03:46:51Z</time></trkpt><trkpt lat="45.94693707774737" lon="12.102430877239417"><ele>252.33333333333331</ele><time>2026-04-27T03:46:52Z</time></trkpt><trkpt lat="45.94687191285275" lon="12.102474565163305"><ele>251.0</ele><time>2026-04-27T03:46:53Z</time></trkpt><trkpt lat="45.94680567780004" lon="12.102519899597816"><ele>249.66666666666666</ele><time>2026-04-27T03:46:54Z</time></trkpt><trkpt lat="45.94674594156748" lon="12.10255982715324"><ele>248.33333333333331</ele><time>2026-04-27T03:46:55Z</time></trkpt><trkpt lat="45.946671155080615" lon="12.102582284266676"><ele>247.0</ele><time>2026-04-27T03:46:57Z</time></trkpt><trkpt lat="45.94659600771781" lon="12.102441680232937"><ele>246.8</ele><time>2026-04-27T03:47:01Z</time></trkpt><trkpt lat="45.946586435357375" lon="12.102346601323754"><ele>246.6</ele><time>2026-04-27T03:47:02Z</time></trkpt><trkpt lat="45.946546577840536" lon="12.102212233169245"><ele>246.40000000000003</ele><time>2026-04-27T03:47:04Z</time></trkpt><trkpt lat="45.946516564367236" lon="12.102118836946731"><ele>246.20000000000002</ele><time>2026-04-27T03:47:21Z</time></trkpt><trkpt lat="45.946475775370054" lon="12.101983327977013"><ele>246.0</ele><time>2026-04-27T03:47:23Z</time></trkpt><trkpt lat="45.94642709611517" lon="12.101823152196696"><ele>246.0</ele><time>2026-04-27T03:47:25Z</time></trkpt><trkpt lat="45.946390100452994" lon="12.101677615482833"><ele>246.00000000000003</ele><time>2026-04-27T03:47:27Z</time></trkpt><trkpt lat="45.946346235250445" lon="12.101523028858237"><ele>246.00000000000003</ele><time>2026-04-27T03:47:29Z</time></trkpt><trkpt lat="45.946322100583274" lon="12.101438987205423"><ele>246.0</ele><time>2026-04-27T03:47:30Z</time></trkpt><trkpt lat="45.94629853704431" lon="12.101354896382752"><ele>246.0</ele><time>2026-04-27T03:47:30.999Z</time></trkpt><trkpt lat="45.946261576194296" lon="12.101220165538844"><ele>246.83333333333334</ele><time>2026-04-27T03:47:32.999Z</time></trkpt><trkpt lat="45.94622761482607" lon="12.101108819921757"><ele>247.66666666666669</ele><time>2026-04-27T03:47:51Z</time></trkpt><trkpt lat="45.94619053805824" lon="12.100989922580695"><ele>248.5</ele><time>2026-04-27T03:47:53Z</time></trkpt><trkpt lat="45.946144754726625" lon="12.100856745950765"><ele>249.33333333333334</ele><time>2026-04-27T03:47:55Z</time></trkpt><trkpt lat="45.94614548125288" lon="12.100761716289515"><ele>250.16666666666669</ele><time>2026-04-27T03:47:57Z</time></trkpt><trkpt lat="45.946216783100866" lon="12.100753926911889"><ele>251.0</ele><time>2026-04-27T03:47:59Z</time></trkpt><trkpt lat="45.94630013601622" lon="12.100713369378763"><ele>251.00000000000003</ele><time>2026-04-27T03:48:01Z</time></trkpt><trkpt lat="45.94639323875219" lon="12.100728564214377"><ele>251.0</ele><time>2026-04-27T03:48:03Z</time></trkpt><trkpt lat="45.94647413464156" lon="12.100746179730708"><ele>251.0</ele><time>2026-04-27T03:48:05Z</time></trkpt><trkpt lat="45.946548990527766" lon="12.10075733347529"><ele>251.0</ele><time>2026-04-27T03:48:07Z</time></trkpt><trkpt lat="45.946617784634896" lon="12.100727393063067"><ele>251.00000000000003</ele><time>2026-04-27T03:48:10Z</time></trkpt><trkpt lat="45.946548506643005" lon="12.100756065181253"><ele>251.0</ele><time>2026-04-27T03:48:48Z</time></trkpt><trkpt lat="45.946443980204144" lon="12.100739690291098"><ele>252.20000000000002</ele><time>2026-04-27T03:48:51Z</time></trkpt><trkpt lat="45.94634364127964" lon="12.10070012467603"><ele>253.40000000000003</ele><time>2026-04-27T03:48:53Z</time></trkpt><trkpt lat="45.94623432217627" lon="12.100727277774245"><ele>254.6</ele><time>2026-04-27T03:48:55Z</time></trkpt><trkpt lat="45.94616312384617" lon="12.100748971126446"><ele>255.8</ele><time>2026-04-27T03:48:57Z</time></trkpt><trkpt lat="45.94608314631426" lon="12.100667009800208"><ele>257.0</ele><time>2026-04-27T03:49:03Z</time></trkpt><trkpt lat="45.94604233750939" lon="12.100522474957712"><ele>257.0</ele><time>2026-04-27T03:49:05Z</time></trkpt><trkpt lat="45.9459978445768" lon="12.100360761596125"><ele>257.0</ele><time>2026-04-27T03:49:07Z</time></trkpt><trkpt lat="45.945954080956234" lon="12.10020740918448"><ele>257.0</ele><time>2026-04-27T03:49:09Z</time></trkpt><trkpt lat="45.945928824619486" lon="12.100122321891202"><ele>257.0</ele><time>2026-04-27T03:49:10Z</time></trkpt><trkpt lat="45.94590252628575" lon="12.100031055961995"><ele>257.0</ele><time>2026-04-27T03:49:11Z</time></trkpt><trkpt lat="45.94587448597241" lon="12.099935338865405"><ele>257.0</ele><time>2026-04-27T03:49:12Z</time></trkpt><trkpt lat="45.94584521497826" lon="12.09983656482082"><ele>256.6666666666667</ele><time>2026-04-27T03:49:13Z</time></trkpt><trkpt lat="45.94581645307043" lon="12.099738952785689"><ele>256.33333333333337</ele><time>2026-04-27T03:49:14Z</time></trkpt><trkpt lat="45.94578743518017" lon="12.099642943526034"><ele>256.0</ele><time>2026-04-27T03:49:15Z</time></trkpt><trkpt lat="45.94576024312534" lon="12.09955625103963"><ele>255.66666666666669</ele><time>2026-04-27T03:49:16Z</time></trkpt><trkpt lat="45.945721765977225" lon="12.099421142128165"><ele>255.33333333333334</ele><time>2026-04-27T03:49:18Z</time></trkpt><trkpt lat="45.94575860619406" lon="12.099340659738228"><ele>255.0</ele><time>2026-04-27T03:49:20Z</time></trkpt><trkpt lat="45.94583964633317" lon="12.099308548883783"><ele>256.5</ele><time>2026-04-27T03:49:22Z</time></trkpt><trkpt lat="45.94593691813304" lon="12.099267118074417"><ele>258.0</ele><time>2026-04-27T03:49:24Z</time></trkpt><trkpt lat="45.94605386465262" lon="12.09921644640122"><ele>259.5</ele><time>2026-04-27T03:49:26Z</time></trkpt><trkpt lat="45.94617486001814" lon="12.099177738349002"><ele>261.0</ele><time>2026-04-27T03:49:28Z</time></trkpt><trkpt lat="45.94628538398529" lon="12.099094988797011"><ele>261.3333333333333</ele><time>2026-04-27T03:49:29.999Z</time></trkpt><trkpt lat="45.946334425540876" lon="12.099033139623273"><ele>261.6666666666667</ele><time>2026-04-27T03:49:30.999Z</time></trkpt><trkpt lat="45.94638379844669" lon="12.098972122943614"><ele>262.0</ele><time>2026-04-27T03:49:31.999Z</time></trkpt><trkpt lat="45.94643520527948" lon="12.098917621774856"><ele>262.33333333333337</ele><time>2026-04-27T03:49:32.999Z</time></trkpt><trkpt lat="45.94651765714156" lon="12.098851801261652"><ele>262.6666666666667</ele><time>2026-04-27T03:49:34.999Z</time></trkpt><trkpt lat="45.946607095528094" lon="12.09873888134677"><ele>263.0</ele><time>2026-04-27T03:49:51Z</time></trkpt><trkpt lat="45.94668326155318" lon="12.098658229968285"><ele>263.5</ele><time>2026-04-27T03:49:53Z</time></trkpt><trkpt lat="45.946766444264895" lon="12.098569525101842"><ele>264.0</ele><time>2026-04-27T03:49:55Z</time></trkpt><trkpt lat="45.94682664766068" lon="12.098512571002782"><ele>264.5</ele><time>2026-04-27T03:49:56Z</time></trkpt><trkpt lat="45.94689429709901" lon="12.098444711765522"><ele>265.0</ele><time>2026-04-27T03:49:57Z</time></trkpt><trkpt lat="45.94696421454014" lon="12.09837309753458"><ele>265.5</ele><time>2026-04-27T03:49:58Z</time></trkpt><trkpt lat="45.94703508478475" lon="12.098300826467574"><ele>266.0</ele><time>2026-04-27T03:49:59Z</time></trkpt><trkpt lat="45.94710486102186" lon="12.098230585283394"><ele>266.0</ele><time>2026-04-27T03:50:00Z</time></trkpt><trkpt lat="45.947175172900565" lon="12.098189613242681"><ele>266.0</ele><time>2026-04-27T03:50:01Z</time></trkpt><trkpt lat="45.947241025268305" lon="12.098172471007521"><ele>266.0</ele><time>2026-04-27T03:50:02Z</time></trkpt><trkpt lat="45.947344179160204" lon="12.098243331905289"><ele>266.0</ele><time>2026-04-27T03:50:04Z</time></trkpt><trkpt lat="45.94737696394469" lon="12.09833805387099"><ele>266.0</ele><time>2026-04-27T03:50:06Z</time></trkpt><trkpt lat="45.94729630813415" lon="12.098290438872073"><ele>266.0</ele><time>2026-04-27T03:50:10Z</time></trkpt><trkpt lat="45.9472128763036" lon="12.098172120398862"><ele>266.0</ele><time>2026-04-27T03:50:12Z</time></trkpt><trkpt lat="45.94714784580137" lon="12.098182083144271"><ele>266.0</ele><time>2026-04-27T03:50:13Z</time></trkpt><trkpt lat="45.94707811437432" lon="12.098237605508213"><ele>266.0</ele><time>2026-04-27T03:50:14Z</time></trkpt><trkpt lat="45.94700489960076" lon="12.098311147436815"><ele>266.0</ele><time>2026-04-27T03:50:15Z</time></trkpt><trkpt lat="45.946925447430196" lon="12.098395417791878"><ele>266.0</ele><time>2026-04-27T03:50:16Z</time></trkpt><trkpt lat="45.946835417887094" lon="12.098487758987877"><ele>266.0</ele><time>2026-04-27T03:50:17Z</time></trkpt><trkpt lat="45.94673943492738" lon="12.098586846155687"><ele>265.25</ele><time>2026-04-27T03:50:18Z</time></trkpt><trkpt lat="45.94663857436936" lon="12.098689927899578"><ele>264.5</ele><time>2026-04-27T03:50:19Z</time></trkpt><trkpt lat="45.94653075660711" lon="12.098799748372722"><ele>263.75</ele><time>2026-04-27T03:50:20Z</time></trkpt><trkpt lat="45.94642671331296" lon="12.09890961865583"><ele>263.0</ele><time>2026-04-27T03:50:21Z</time></trkpt><trkpt lat="45.946340961107005" lon="12.099013585125714"><ele>262.6666666666667</ele><time>2026-04-27T03:50:22Z</time></trkpt><trkpt lat="45.94628142578551" lon="12.099086156869237"><ele>262.33333333333337</ele><time>2026-04-27T03:50:23Z</time></trkpt><trkpt lat="45.94622490657343" lon="12.099149901811924"><ele>262.0</ele><time>2026-04-27T03:50:24Z</time></trkpt><trkpt lat="45.94614490672484" lon="12.099185897292067"><ele>261.6666666666667</ele><time>2026-04-27T03:50:25Z</time></trkpt><trkpt lat="45.94604832820821" lon="12.099215127723046"><ele>261.3333333333333</ele><time>2026-04-27T03:50:26Z</time></trkpt><trkpt lat="45.94594468055128" lon="12.099252290126376"><ele>261.0</ele><time>2026-04-27T03:50:27Z</time></trkpt><trkpt lat="45.94585454774199" lon="12.099291914128184"><ele>260.6666666666667</ele><time>2026-04-27T03:50:28Z</time></trkpt><trkpt lat="45.94578632273087" lon="12.099321346927285"><ele>260.3333333333333</ele><time>2026-04-27T03:50:29Z</time></trkpt><trkpt lat="45.94572691489331" lon="12.099351530791738"><ele>260.0</ele><time>2026-04-27T03:50:32Z</time></trkpt><trkpt lat="45.945643323404234" lon="12.099183380613137"><ele>259.66666666666663</ele><time>2026-04-27T03:50:37Z</time></trkpt><trkpt lat="45.94562221782587" lon="12.09908811800651"><ele>259.3333333333333</ele><time>2026-04-27T03:50:38Z</time></trkpt><trkpt lat="45.94559196287327" lon="12.098980483682485"><ele>259.0</ele><time>2026-04-27T03:50:39Z</time></trkpt><trkpt lat="45.94555930179532" lon="12.098863306247583"><ele>259.0</ele><time>2026-04-27T03:50:40Z</time></trkpt><trkpt lat="45.945522661074726" lon="12.098737752614372"><ele>259.0</ele><time>2026-04-27T03:50:41Z</time></trkpt><trkpt lat="45.94549077858712" lon="12.098626786306772"><ele>259.0</ele><time>2026-04-27T03:50:42Z</time></trkpt><trkpt lat="45.94545716984437" lon="12.098500751847629"><ele>259.0</ele><time>2026-04-27T03:50:44Z</time></trkpt><trkpt lat="45.945431583930294" lon="12.09839403214976"><ele>259.0</ele><time>2026-04-27T03:51:03Z</time></trkpt><trkpt lat="45.94538521488614" lon="12.098237512181427"><ele>259.8333333333333</ele><time>2026-04-27T03:51:05Z</time></trkpt><trkpt lat="45.94535931071703" lon="12.098152992762019"><ele>260.66666666666663</ele><time>2026-04-27T03:51:06Z</time></trkpt><trkpt lat="45.94531567725452" lon="12.098006465781046"><ele>261.5</ele><time>2026-04-27T03:51:08Z</time></trkpt><trkpt lat="45.94526620349765" lon="12.09783736484417"><ele>262.3333333333333</ele><time>2026-04-27T03:51:10Z</time></trkpt><trkpt lat="45.945238663731345" lon="12.097743718315387"><ele>263.1666666666667</ele><time>2026-04-27T03:51:11Z</time></trkpt><trkpt lat="45.945213940998286" lon="12.097654315338042"><ele>264.0</ele><time>2026-04-27T03:51:12Z</time></trkpt><trkpt lat="45.945173378532644" lon="12.097511156667016"><ele>264.3333333333333</ele><time>2026-04-27T03:51:14Z</time></trkpt><trkpt lat="45.945144597087626" lon="12.097411946873196"><ele>264.6666666666667</ele><time>2026-04-27T03:51:16Z</time></trkpt><trkpt lat="45.94510418083634" lon="12.09728872621353"><ele>265.0</ele><time>2026-04-27T03:51:51.999Z</time></trkpt><trkpt lat="45.94505430670218" lon="12.097136640823255"><ele>265.33333333333337</ele><time>2026-04-27T03:51:53.999Z</time></trkpt><trkpt lat="45.94502795782214" lon="12.097052506093396"><ele>265.6666666666667</ele><time>2026-04-27T03:51:54.999Z</time></trkpt><trkpt lat="45.94500000353708" lon="12.09696923224941"><ele>266.0</ele><time>2026-04-27T03:51:55.999Z</time></trkpt><trkpt lat="45.944970935219295" lon="12.09685271746009"><ele>266.0</ele><time>2026-04-27T03:51:58Z</time></trkpt><trkpt lat="45.94505077796067" lon="12.096787477277863"><ele>266.0</ele><time>2026-04-27T03:52:01Z</time></trkpt><trkpt lat="45.94512331070335" lon="12.096753133834868"><ele>266.0</ele><time>2026-04-27T03:52:03Z</time></trkpt><trkpt lat="45.945216712792" lon="12.096701656812645"><ele>266.0</ele><time>2026-04-27T03:52:05Z</time></trkpt><trkpt lat="45.94532101625862" lon="12.096645464775746"><ele>266.0</ele><time>2026-04-27T03:52:07Z</time></trkpt><trkpt lat="45.94542513236753" lon="12.096580689735742"><ele>266.1666666666667</ele><time>2026-04-27T03:52:09Z</time></trkpt><trkpt lat="45.945517124701865" lon="12.096524143979101"><ele>266.33333333333337</ele><time>2026-04-27T03:52:11Z</time></trkpt><trkpt lat="45.94558616100912" lon="12.096481373780803"><ele>266.5</ele><time>2026-04-27T03:52:13Z</time></trkpt><trkpt lat="45.945646802828506" lon="12.096443489102057"><ele>266.6666666666667</ele><time>2026-04-27T03:52:15Z</time></trkpt><trkpt lat="45.94570986064107" lon="12.096406286918896"><ele>266.8333333333333</ele><time>2026-04-27T03:52:31Z</time></trkpt><trkpt lat="45.94579866922084" lon="12.096350851238324"><ele>267.0</ele><time>2026-04-27T03:52:33Z</time></trkpt><trkpt lat="45.94586105555948" lon="12.096318643631493"><ele>268.4</ele><time>2026-04-27T03:52:36Z</time></trkpt><trkpt lat="45.945945617078074" lon="12.096275928171844"><ele>269.79999999999995</ele><time>2026-04-27T03:52:59Z</time></trkpt><trkpt lat="45.94600684897426" lon="12.09623147042"><ele>271.2</ele><time>2026-04-27T03:53:15Z</time></trkpt><trkpt lat="45.94610706881539" lon="12.096172576848234"><ele>272.59999999999997</ele><time>2026-04-27T03:53:17Z</time></trkpt><trkpt lat="45.946213304457295" lon="12.096107790720513"><ele>274.0</ele><time>2026-04-27T03:53:19Z</time></trkpt><trkpt lat="45.94628770716173" lon="12.096065149338727"><ele>274.0</ele><time>2026-04-27T03:53:21Z</time></trkpt><trkpt lat="45.946367389203424" lon="12.096024131700418"><ele>274.0</ele><time>2026-04-27T03:53:36.999Z</time></trkpt><trkpt lat="45.94646616163689" lon="12.095965334290526"><ele>274.0</ele><time>2026-04-27T03:53:38.999Z</time></trkpt><trkpt lat="45.946571323568925" lon="12.095895705833936"><ele>274.0</ele><time>2026-04-27T03:53:40.999Z</time></trkpt><trkpt lat="45.946669370249424" lon="12.09583317888944"><ele>274.0</ele><time>2026-04-27T03:53:42.999Z</time></trkpt><trkpt lat="45.94673356917023" lon="12.095793559969424"><ele>275.3333333333333</ele><time>2026-04-27T03:53:44.999Z</time></trkpt><trkpt lat="45.946823237466745" lon="12.095731615861082"><ele>276.66666666666663</ele><time>2026-04-27T03:54:05Z</time></trkpt><trkpt lat="45.94688595472576" lon="12.095698087880345"><ele>278.0</ele><time>2026-04-27T03:54:07Z</time></trkpt><trkpt lat="45.94696836062875" lon="12.095651734590131"><ele>279.3333333333333</ele><time>2026-04-27T03:54:29Z</time></trkpt><trkpt lat="45.9470503694824" lon="12.095595147256601"><ele>280.6666666666667</ele><time>2026-04-27T03:54:31Z</time></trkpt><trkpt lat="45.946962553321434" lon="12.095668315981026"><ele>282.0</ele><time>2026-04-27T03:55:49.999Z</time></trkpt><trkpt lat="45.946893957469804" lon="12.095668707514792"><ele>282.0</ele><time>2026-04-27T03:55:50.999Z</time></trkpt><trkpt lat="45.94683212816678" lon="12.09570957703998"><ele>282.0</ele><time>2026-04-27T03:55:51.999Z</time></trkpt><trkpt lat="45.946770022965715" lon="12.095748837526466"><ele>282.0</ele><time>2026-04-27T03:55:52.999Z</time></trkpt><trkpt lat="45.9467057804116" lon="12.095788246501892"><ele>282.0</ele><time>2026-04-27T03:55:53.999Z</time></trkpt><trkpt lat="45.946640307718035" lon="12.09583025376151"><ele>282.0</ele><time>2026-04-27T03:55:54.999Z</time></trkpt><trkpt lat="45.946575505062206" lon="12.09586993475858"><ele>282.0</ele><time>2026-04-27T03:55:55.999Z</time></trkpt><trkpt lat="45.94646845288013" lon="12.095930523245984"><ele>280.4</ele><time>2026-04-27T03:55:57.999Z</time></trkpt><trkpt lat="45.94637020642795" lon="12.095992638700952"><ele>278.79999999999995</ele><time>2026-04-27T03:55:59.999Z</time></trkpt><trkpt lat="45.94627629354943" lon="12.096049711697605"><ele>277.2</ele><time>2026-04-27T03:56:01.999Z</time></trkpt><trkpt lat="45.94619497796202" lon="12.09610026652277"><ele>275.59999999999997</ele><time>2026-04-27T03:56:03.999Z</time></trkpt><trkpt lat="45.9461106705396" lon="12.096149374692137"><ele>274.0</ele><time>2026-04-27T03:56:05.999Z</time></trkpt><trkpt lat="45.94602695604925" lon="12.096197603887832"><ele>274.0</ele><time>2026-04-27T03:56:07.999Z</time></trkpt><trkpt lat="45.94594168900234" lon="12.09624282658714"><ele>274.0</ele><time>2026-04-27T03:56:10Z</time></trkpt><trkpt lat="45.945855174960094" lon="12.096292745653741"><ele>274.0</ele><time>2026-04-27T03:56:12Z</time></trkpt><trkpt lat="45.94576534324609" lon="12.096350425358418"><ele>274.0</ele><time>2026-04-27T03:56:14Z</time></trkpt><trkpt lat="45.94568044733421" lon="12.096406837008232"><ele>274.0</ele><time>2026-04-27T03:56:16Z</time></trkpt><trkpt lat="45.94560165935138" lon="12.096454257404577"><ele>272.8333333333333</ele><time>2026-04-27T03:56:18Z</time></trkpt><trkpt lat="45.94552079245835" lon="12.09649866764885"><ele>271.66666666666663</ele><time>2026-04-27T03:56:20Z</time></trkpt><trkpt lat="45.945438810605246" lon="12.096545899115972"><ele>270.5</ele><time>2026-04-27T03:56:22Z</time></trkpt><trkpt lat="45.94535835269208" lon="12.096597129890384"><ele>269.3333333333333</ele><time>2026-04-27T03:56:24Z</time></trkpt><trkpt lat="45.94527291602124" lon="12.09664399858846"><ele>268.1666666666667</ele><time>2026-04-27T03:56:26Z</time></trkpt><trkpt lat="45.945200744404005" lon="12.096682628649361"><ele>267.0</ele><time>2026-04-27T03:56:42Z</time></trkpt><trkpt lat="45.94510211060503" lon="12.096742173761863"><ele>266.1666666666667</ele><time>2026-04-27T03:56:44Z</time></trkpt><trkpt lat="45.94500139860312" lon="12.096800590736262"><ele>265.3333333333333</ele><time>2026-04-27T03:56:46Z</time></trkpt><trkpt lat="45.94494005366875" lon="12.096827291965043"><ele>264.5</ele><time>2026-04-27T03:56:52Z</time></trkpt><trkpt lat="45.94490515659138" lon="12.096727618041204"><ele>263.66666666666663</ele><time>2026-04-27T03:56:54Z</time></trkpt><trkpt lat="45.94486943115203" lon="12.096569776431114"><ele>262.8333333333333</ele><time>2026-04-27T03:56:56Z</time></trkpt><trkpt lat="45.94484366246345" lon="12.096473919763683"><ele>262.0</ele><time>2026-04-27T03:56:57Z</time></trkpt><trkpt lat="45.94481388678226" lon="12.0963680380851"><ele>262.0</ele><time>2026-04-27T03:56:58Z</time></trkpt><trkpt lat="45.944781570457096" lon="12.096256731484573"><ele>262.0</ele><time>2026-04-27T03:56:59Z</time></trkpt><trkpt lat="45.94475606713316" lon="12.096164372943747"><ele>262.0</ele><time>2026-04-27T03:57:00Z</time></trkpt><trkpt lat="45.944727153309564" lon="12.096056531857165"><ele>262.0</ele><time>2026-04-27T03:57:02Z</time></trkpt><trkpt lat="45.9447032597512" lon="12.09597239021016"><ele>262.0</ele><time>2026-04-27T03:57:04Z</time></trkpt><trkpt lat="45.94466626979542" lon="12.095843596841835"><ele>262.0</ele><time>2026-04-27T03:57:06Z</time></trkpt><trkpt lat="45.94463611080882" lon="12.095737818469617"><ele>262.2</ele><time>2026-04-27T03:57:08Z</time></trkpt><trkpt lat="45.944609615569036" lon="12.095633953326322"><ele>262.4</ele><time>2026-04-27T03:57:24.999Z</time></trkpt><trkpt lat="45.94457050228152" lon="12.095492693908051"><ele>262.6</ele><time>2026-04-27T03:57:26.999Z</time></trkpt><trkpt lat="45.94453913728736" lon="12.095383932047438"><ele>262.8</ele><time>2026-04-27T03:57:28.999Z</time></trkpt><trkpt lat="45.9444952093626" lon="12.09525993167777"><ele>263.0</ele><time>2026-04-27T03:57:56.999Z</time></trkpt><trkpt lat="45.944462950168834" lon="12.095131366955929"><ele>263.0</ele><time>2026-04-27T03:57:58.999Z</time></trkpt><trkpt lat="45.944446774343824" lon="12.095040958731433"><ele>263.0</ele><time>2026-04-27T03:58:12.999Z</time></trkpt><trkpt lat="45.944419942991075" lon="12.094904769034553"><ele>263.0</ele><time>2026-04-27T03:58:15Z</time></trkpt><trkpt lat="45.944405820720284" lon="12.09481086458928"><ele>263.0</ele><time>2026-04-27T03:58:29Z</time></trkpt><trkpt lat="45.94439009200419" lon="12.094670549524393"><ele>263.0</ele><time>2026-04-27T03:58:31Z</time></trkpt><trkpt lat="45.94438637947424" lon="12.094527734622982"><ele>263.0</ele><time>2026-04-27T03:58:33Z</time></trkpt><trkpt lat="45.94439890193555" lon="12.094434470802657"><ele>263.0</ele><time>2026-04-27T03:58:49Z</time></trkpt><trkpt lat="45.9443944485368" lon="12.094287969309184"><ele>263.0</ele><time>2026-04-27T03:58:51Z</time></trkpt><trkpt lat="45.94439326667712" lon="12.09415817243355"><ele>263.0</ele><time>2026-04-27T03:58:53Z</time></trkpt><trkpt lat="45.944436445708874" lon="12.094079225448251"><ele>263.0</ele><time>2026-04-27T03:58:55Z</time></trkpt><trkpt lat="45.9445157978517" lon="12.094124600038018"><ele>263.0</ele><time>2026-04-27T03:58:57Z</time></trkpt><trkpt lat="45.944604769351116" lon="12.09415777949904"><ele>263.0</ele><time>2026-04-27T03:58:59Z</time></trkpt><trkpt lat="45.94469036402059" lon="12.09419966359461"><ele>263.0</ele><time>2026-04-27T03:59:01Z</time></trkpt><trkpt lat="45.94475153661109" lon="12.094265252090267"><ele>263.0</ele><time>2026-04-27T03:59:03Z</time></trkpt><trkpt lat="45.944805993506236" lon="12.09436549495486"><ele>263.0</ele><time>2026-04-27T03:59:29.999Z</time></trkpt><trkpt lat="45.94486298647007" lon="12.094476949073416"><ele>263.0</ele><time>2026-04-27T03:59:32.999Z</time></trkpt><trkpt lat="45.94490670972398" lon="12.09456178880067"><ele>263.0</ele><time>2026-04-27T03:59:46.999Z</time></trkpt><trkpt lat="45.944962192342956" lon="12.094627267241686"><ele>263.0</ele><time>2026-04-27T03:59:48.999Z</time></trkpt><trkpt lat="45.94500569237343" lon="12.094706452798908"><ele>263.0</ele><time>2026-04-27T03:59:54.999Z</time></trkpt><trkpt lat="45.94497447730305" lon="12.094949449538944"><ele>263.0</ele><time>2026-04-27T04:00:45Z</time></trkpt><trkpt lat="45.944947987871366" lon="12.095043477443246"><ele>263.0</ele><time>2026-04-27T04:00:48Z</time></trkpt><trkpt lat="45.94493207999179" lon="12.09514388175815"><ele>263.0</ele><time>2026-04-27T04:00:54Z</time></trkpt><trkpt lat="45.94490202231201" lon="12.095266479969972"><ele>263.0</ele><time>2026-04-27T04:00:57Z</time></trkpt><trkpt lat="45.94485405671112" lon="12.095354982328965"><ele>263.0</ele><time>2026-04-27T04:01:00Z</time></trkpt><trkpt lat="45.94480162498037" lon="12.09543873038823"><ele>263.0</ele><time>2026-04-27T04:01:05Z</time></trkpt><trkpt lat="45.944733036054906" lon="12.095499299641945"><ele>263.0</ele><time>2026-04-27T04:01:08Z</time></trkpt><trkpt lat="45.944683125102046" lon="12.095557775310777"><ele>263.0</ele><time>2026-04-27T04:01:11Z</time></trkpt><trkpt lat="45.94462238635499" lon="12.095604557351106"><ele>263.0</ele><time>2026-04-27T04:01:14Z</time></trkpt><trkpt lat="45.94456633777338" lon="12.095646541804395"><ele>263.0</ele><time>2026-04-27T04:01:18.999Z</time></trkpt><trkpt lat="45.94461441168579" lon="12.095828862242984"><ele>262.83333333333337</ele><time>2026-04-27T04:01:20.999Z</time></trkpt><trkpt lat="45.94465735774157" lon="12.095971687542614"><ele>262.6666666666667</ele><time>2026-04-27T04:01:22.999Z</time></trkpt><trkpt lat="45.94465695004838" lon="12.09607194193827"><ele>262.5</ele><time>2026-04-27T04:01:24.999Z</time></trkpt><trkpt lat="45.94459230766504" lon="12.096097225281403"><ele>262.3333333333333</ele><time>2026-04-27T04:01:39.999Z</time></trkpt><trkpt lat="45.94452645320235" lon="12.096168384431657"><ele>262.16666666666663</ele><time>2026-04-27T04:01:41.999Z</time></trkpt><trkpt lat="45.94443180837969" lon="12.096273568921854"><ele>262.0</ele><time>2026-04-27T04:01:43.999Z</time></trkpt><trkpt lat="45.944349440971266" lon="12.096367050155092"><ele>262.0</ele><time>2026-04-27T04:01:45.999Z</time></trkpt><trkpt lat="45.94428225214313" lon="12.09644330512318"><ele>262.0</ele><time>2026-04-27T04:02:10.999Z</time></trkpt><trkpt lat="45.94419259628179" lon="12.09654257628834"><ele>262.0</ele><time>2026-04-27T04:02:12.999Z</time></trkpt><trkpt lat="45.944139902220535" lon="12.096600746535644"><ele>262.0</ele><time>2026-04-27T04:02:13.999Z</time></trkpt><trkpt lat="45.9440821175018" lon="12.096664536677062"><ele>262.0</ele><time>2026-04-27T04:02:14.999Z</time></trkpt><trkpt lat="45.944020707600735" lon="12.096732328808235"><ele>262.0</ele><time>2026-04-27T04:02:15.999Z</time></trkpt><trkpt lat="45.94396324739683" lon="12.09681940344143"><ele>260.8333333333333</ele><time>2026-04-27T04:02:16.999Z</time></trkpt><trkpt lat="45.94389641728985" lon="12.096893340902842"><ele>259.66666666666663</ele><time>2026-04-27T04:02:17.999Z</time></trkpt><trkpt lat="45.943831771399076" lon="12.096965902554434"><ele>258.5</ele><time>2026-04-27T04:02:18.999Z</time></trkpt><trkpt lat="45.94376595252234" lon="12.097034907860586"><ele>257.3333333333333</ele><time>2026-04-27T04:02:19.999Z</time></trkpt><trkpt lat="45.94370600343583" lon="12.0971022270075"><ele>256.1666666666667</ele><time>2026-04-27T04:02:20.999Z</time></trkpt><trkpt lat="45.94364851974152" lon="12.09716473325864"><ele>255.0</ele><time>2026-04-27T04:02:21.999Z</time></trkpt><trkpt lat="45.943595060135486" lon="12.09722362915853"><ele>255.0</ele><time>2026-04-27T04:02:22.999Z</time></trkpt><trkpt lat="45.943512317206334" lon="12.097312629117503"><ele>255.0</ele><time>2026-04-27T04:02:25Z</time></trkpt><trkpt lat="45.94343437533916" lon="12.097401940591082"><ele>255.0</ele><time>2026-04-27T04:02:29Z</time></trkpt><trkpt lat="45.94333781753196" lon="12.097467392168403"><ele>255.0</ele><time>2026-04-27T04:02:31Z</time></trkpt><trkpt lat="45.94320593725621" lon="12.097491367947871"><ele>255.0</ele><time>2026-04-27T04:02:33Z</time></trkpt><trkpt lat="45.94313656737787" lon="12.097510426613821"><ele>254.66666666666666</ele><time>2026-04-27T04:02:34Z</time></trkpt><trkpt lat="45.9430646566377" lon="12.097532247876849"><ele>254.33333333333331</ele><time>2026-04-27T04:02:35Z</time></trkpt><trkpt lat="45.94299054534401" lon="12.097562395232893"><ele>254.0</ele><time>2026-04-27T04:02:36Z</time></trkpt><trkpt lat="45.94291302658855" lon="12.097586704525613"><ele>253.66666666666666</ele><time>2026-04-27T04:02:37Z</time></trkpt><trkpt lat="45.94283479225873" lon="12.097609020309495"><ele>253.33333333333331</ele><time>2026-04-27T04:02:38Z</time></trkpt><trkpt lat="45.94275218303119" lon="12.097636018598173"><ele>253.0</ele><time>2026-04-27T04:02:39Z</time></trkpt><trkpt lat="45.94267176419788" lon="12.097662393813758"><ele>252.99999999999997</ele><time>2026-04-27T04:02:40Z</time></trkpt><trkpt lat="45.94258973390638" lon="12.097692421337348"><ele>253.0</ele><time>2026-04-27T04:02:41Z</time></trkpt><trkpt lat="45.9425045963082" lon="12.097692911348616"><ele>253.0</ele><time>2026-04-27T04:02:42Z</time></trkpt><trkpt lat="45.9424288240739" lon="12.097725824362405"><ele>253.0</ele><time>2026-04-27T04:02:43Z</time></trkpt><trkpt lat="45.94234914829431" lon="12.09772208115839"><ele>252.99999999999997</ele><time>2026-04-27T04:02:44Z</time></trkpt><trkpt lat="45.942270475529554" lon="12.097714501289863"><ele>253.0</ele><time>2026-04-27T04:02:45Z</time></trkpt><trkpt lat="45.94219473952183" lon="12.097703300804422"><ele>254.66666666666666</ele><time>2026-04-27T04:02:46Z</time></trkpt><trkpt lat="45.94211952823671" lon="12.097703277342399"><ele>256.3333333333333</ele><time>2026-04-27T04:02:47Z</time></trkpt><trkpt lat="45.94204533282991" lon="12.097723821372876"><ele>258.0</ele><time>2026-04-27T04:02:48Z</time></trkpt><trkpt lat="45.94197838029294" lon="12.097755639656889"><ele>259.6666666666667</ele><time>2026-04-27T04:02:49Z</time></trkpt><trkpt lat="45.94191144330018" lon="12.097794711646428"><ele>261.33333333333337</ele><time>2026-04-27T04:02:50Z</time></trkpt><trkpt lat="45.941838597622784" lon="12.097834990992666"><ele>263.0</ele><time>2026-04-27T04:02:51Z</time></trkpt><trkpt lat="45.9417634270545" lon="12.097877682495286"><ele>265.1666666666667</ele><time>2026-04-27T04:02:52Z</time></trkpt><trkpt lat="45.941686720056204" lon="12.097919545306487"><ele>267.33333333333337</ele><time>2026-04-27T04:02:53Z</time></trkpt><trkpt lat="45.941607408880046" lon="12.097956110019977"><ele>269.5</ele><time>2026-04-27T04:02:54Z</time></trkpt><trkpt lat="45.9415321067078" lon="12.0979899968657"><ele>271.6666666666667</ele><time>2026-04-27T04:02:55Z</time></trkpt><trkpt lat="45.941463023922765" lon="12.098022023940885"><ele>273.8333333333333</ele><time>2026-04-27T04:02:56Z</time></trkpt><trkpt lat="45.94140273523605" lon="12.098051818549115"><ele>276.0</ele><time>2026-04-27T04:02:57Z</time></trkpt><trkpt lat="45.94131918842469" lon="12.098097503582691"><ele>276.0</ele><time>2026-04-27T04:02:59Z</time></trkpt><trkpt lat="45.94138098321511" lon="12.098057063768684"><ele>276.0</ele><time>2026-04-27T04:03:36.999Z</time></trkpt><trkpt lat="45.941449719840065" lon="12.098023087108816"><ele>276.0</ele><time>2026-04-27T04:03:38.999Z</time></trkpt><trkpt lat="45.94152185071432" lon="12.097985824753591"><ele>276.0</ele><time>2026-04-27T04:03:40.999Z</time></trkpt><trkpt lat="45.941589341539604" lon="12.097953257986685"><ele>276.0</ele><time>2026-04-27T04:03:42.999Z</time></trkpt><trkpt lat="45.94166447981643" lon="12.097916424569823"><ele>276.0</ele><time>2026-04-27T04:03:44.999Z</time></trkpt><trkpt lat="45.94173341616736" lon="12.097881938163022"><ele>276.0</ele><time>2026-04-27T04:03:46.999Z</time></trkpt><trkpt lat="45.941799514380854" lon="12.097850668296227"><ele>273.8333333333333</ele><time>2026-04-27T04:03:48.999Z</time></trkpt><trkpt lat="45.941874299604066" lon="12.097810832646749"><ele>271.6666666666667</ele><time>2026-04-27T04:03:50.999Z</time></trkpt><trkpt lat="45.941948027626296" lon="12.097776492488288"><ele>269.5</ele><time>2026-04-27T04:03:53.999Z</time></trkpt><trkpt lat="45.94200925243163" lon="12.097739341954544"><ele>267.33333333333337</ele><time>2026-04-27T04:03:58.999Z</time></trkpt><trkpt lat="45.942060708298435" lon="12.097685170623903"><ele>265.1666666666667</ele><time>2026-04-27T04:04:09.999Z</time></trkpt><trkpt lat="45.942133642195806" lon="12.097691102420297"><ele>263.0</ele><time>2026-04-27T04:04:12.999Z</time></trkpt><trkpt lat="45.9422249696391" lon="12.097688949848617"><ele>263.0</ele><time>2026-04-27T04:04:14.999Z</time></trkpt><trkpt lat="45.942343518546" lon="12.097700303695547"><ele>263.0</ele><time>2026-04-27T04:04:16.999Z</time></trkpt><trkpt lat="45.94240973998373" lon="12.097704186195278"><ele>263.0</ele><time>2026-04-27T04:04:17.999Z</time></trkpt><trkpt lat="45.942523573919786" lon="12.097717948047478"><ele>263.0</ele><time>2026-04-27T04:04:18.999Z</time></trkpt><trkpt lat="45.942596522017155" lon="12.09770106404295"><ele>263.0</ele><time>2026-04-27T04:04:19.999Z</time></trkpt><trkpt lat="45.94266917619246" lon="12.097679556624454"><ele>263.0</ele><time>2026-04-27T04:04:20.999Z</time></trkpt><trkpt lat="45.94274262625064" lon="12.09765186950842"><ele>261.33333333333337</ele><time>2026-04-27T04:04:21.999Z</time></trkpt><trkpt lat="45.94281795910098" lon="12.097622529161358"><ele>259.6666666666667</ele><time>2026-04-27T04:04:22.999Z</time></trkpt><trkpt lat="45.94289495210688" lon="12.097598071697437"><ele>258.0</ele><time>2026-04-27T04:04:23.999Z</time></trkpt><trkpt lat="45.9429748222717" lon="12.097574715136776"><ele>256.3333333333333</ele><time>2026-04-27T04:04:24.999Z</time></trkpt><trkpt lat="45.943053126096224" lon="12.097551325837006"><ele>254.66666666666666</ele><time>2026-04-27T04:04:25.999Z</time></trkpt><trkpt lat="45.943126385505394" lon="12.097528391712595"><ele>253.0</ele><time>2026-04-27T04:04:26.999Z</time></trkpt><trkpt lat="45.94319540181076" lon="12.097511659362915"><ele>253.0</ele><time>2026-04-27T04:04:27.999Z</time></trkpt><trkpt lat="45.943261262088384" lon="12.097495348050204"><ele>253.0</ele><time>2026-04-27T04:04:28.999Z</time></trkpt><trkpt lat="45.94337372389246" lon="12.097467293616987"><ele>253.0</ele><time>2026-04-27T04:04:31Z</time></trkpt><trkpt lat="45.94343909546335" lon="12.097424539193735"><ele>253.0</ele><time>2026-04-27T04:04:34Z</time></trkpt><trkpt lat="45.9434931487483" lon="12.097350279165358"><ele>253.0</ele><time>2026-04-27T04:04:36Z</time></trkpt><trkpt lat="45.94359692757984" lon="12.097235957077409"><ele>253.4</ele><time>2026-04-27T04:04:38Z</time></trkpt><trkpt lat="45.943664353187295" lon="12.09716944166062"><ele>253.8</ele><time>2026-04-27T04:04:39Z</time></trkpt><trkpt lat="45.94373671825845" lon="12.097096736342982"><ele>254.2</ele><time>2026-04-27T04:04:40Z</time></trkpt><trkpt lat="45.94381233060579" lon="12.09701138396562"><ele>254.6</ele><time>2026-04-27T04:04:41Z</time></trkpt><trkpt lat="45.94389090117545" lon="12.096922654479199"><ele>255.0</ele><time>2026-04-27T04:04:42Z</time></trkpt><trkpt lat="45.94397222719641" lon="12.09683128906475"><ele>255.0</ele><time>2026-04-27T04:04:43Z</time></trkpt><trkpt lat="45.94405404486193" lon="12.096742982884573"><ele>255.0</ele><time>2026-04-27T04:04:44Z</time></trkpt><trkpt lat="45.94413551196217" lon="12.096654102779429"><ele>255.0</ele><time>2026-04-27T04:04:45Z</time></trkpt><trkpt lat="45.944214305255635" lon="12.096565644800856"><ele>255.0</ele><time>2026-04-27T04:04:46Z</time></trkpt><trkpt lat="45.944290088267834" lon="12.096480227132808"><ele>255.0</ele><time>2026-04-27T04:04:47Z</time></trkpt><trkpt lat="45.94435970875602" lon="12.096401725051553"><ele>256.1666666666667</ele><time>2026-04-27T04:04:48Z</time></trkpt><trkpt lat="45.9444269170231" lon="12.09632866812177"><ele>257.3333333333333</ele><time>2026-04-27T04:04:49Z</time></trkpt><trkpt lat="45.944487537617796" lon="12.096260952913823"><ele>258.5</ele><time>2026-04-27T04:04:50Z</time></trkpt><trkpt lat="45.94454413774474" lon="12.096198312488099"><ele>259.66666666666663</ele><time>2026-04-27T04:04:51Z</time></trkpt><trkpt lat="45.944595702490375" lon="12.096140802905682"><ele>260.8333333333333</ele><time>2026-04-27T04:04:52Z</time></trkpt><trkpt lat="45.94465640011103" lon="12.096070185599881"><ele>262.0</ele><time>2026-04-27T04:04:54Z</time></trkpt><trkpt lat="45.94472748702504" lon="12.096181236494084"><ele>262.0</ele><time>2026-04-27T04:04:59Z</time></trkpt><trkpt lat="45.9447673429776" lon="12.09634084242028"><ele>262.0</ele><time>2026-04-27T04:05:01Z</time></trkpt><trkpt lat="45.94479431462227" lon="12.096434833913102"><ele>262.0</ele><time>2026-04-27T04:05:02Z</time></trkpt><trkpt lat="45.94482456150619" lon="12.096541569643032"><ele>262.0</ele><time>2026-04-27T04:05:03Z</time></trkpt><trkpt lat="45.94485583677027" lon="12.096655650630254"><ele>262.0</ele><time>2026-04-27T04:05:04Z</time></trkpt><trkpt lat="45.94489238862092" lon="12.096774376549854"><ele>262.0</ele><time>2026-04-27T04:05:05Z</time></trkpt><trkpt lat="45.94492747393151" lon="12.096897542047381"><ele>261.6</ele><time>2026-04-27T04:05:06Z</time></trkpt><trkpt lat="45.944963837087634" lon="12.097024134953134"><ele>261.2</ele><time>2026-04-27T04:05:07Z</time></trkpt><trkpt lat="45.94500233871846" lon="12.097158607951194"><ele>260.8</ele><time>2026-04-27T04:05:08Z</time></trkpt><trkpt lat="45.94504192813226" lon="12.097297782483961"><ele>260.4</ele><time>2026-04-27T04:05:09Z</time></trkpt><trkpt lat="45.94507479689228" lon="12.097412547961797"><ele>260.0</ele><time>2026-04-27T04:05:10Z</time></trkpt><trkpt lat="45.94510326234525" lon="12.097512876983133"><ele>260.6666666666667</ele><time>2026-04-27T04:05:12Z</time></trkpt><trkpt lat="45.94514689607196" lon="12.09766141520487"><ele>261.33333333333337</ele><time>2026-04-27T04:05:27.999Z</time></trkpt><trkpt lat="45.945175155962446" lon="12.097758029447222"><ele>262.0</ele><time>2026-04-27T04:05:28.999Z</time></trkpt><trkpt lat="45.94520537435472" lon="12.097861102647286"><ele>262.6666666666667</ele><time>2026-04-27T04:05:29.999Z</time></trkpt><trkpt lat="45.945246867181396" lon="12.097999230150945"><ele>263.3333333333333</ele><time>2026-04-27T04:05:31.999Z</time></trkpt><trkpt lat="45.94527480418779" lon="12.098095922432814"><ele>264.0</ele><time>2026-04-27T04:05:33.999Z</time></trkpt><trkpt lat="45.94531181631873" lon="12.09822155146693"><ele>263.0</ele><time>2026-04-27T04:05:35.999Z</time></trkpt><trkpt lat="45.94535617736193" lon="12.098371368629955"><ele>262.0</ele><time>2026-04-27T04:05:37.999Z</time></trkpt><trkpt lat="45.945383547491815" lon="12.09846153972606"><ele>261.0</ele><time>2026-04-27T04:05:38.999Z</time></trkpt><trkpt lat="45.945415535351124" lon="12.098565611797026"><ele>260.0</ele><time>2026-04-27T04:05:39.999Z</time></trkpt><trkpt lat="45.945450508712455" lon="12.098686838887456"><ele>259.0</ele><time>2026-04-27T04:05:40.999Z</time></trkpt><trkpt lat="45.945488426299995" lon="12.098818776853305"><ele>259.0</ele><time>2026-04-27T04:05:41.999Z</time></trkpt><trkpt lat="45.94553038634701" lon="12.098961516326558"><ele>259.0</ele><time>2026-04-27T04:05:42.999Z</time></trkpt><trkpt lat="45.94557327711286" lon="12.099106586167736"><ele>259.0</ele><time>2026-04-27T04:05:43.999Z</time></trkpt><trkpt lat="45.94561510894374" lon="12.09924713576925"><ele>259.0</ele><time>2026-04-27T04:05:44.999Z</time></trkpt><trkpt lat="45.945655323836704" lon="12.099386025267645"><ele>259.0</ele><time>2026-04-27T04:05:45.999Z</time></trkpt><trkpt lat="45.94569549010225" lon="12.099521881369327"><ele>258.59999999999997</ele><time>2026-04-27T04:05:46.999Z</time></trkpt><trkpt lat="45.94573569653917" lon="12.099655163329956"><ele>258.2</ele><time>2026-04-27T04:05:47.999Z</time></trkpt><trkpt lat="45.94577601512363" lon="12.099787712503494"><ele>257.79999999999995</ele><time>2026-04-27T04:05:48.999Z</time></trkpt><trkpt lat="45.94581513336402" lon="12.099920075984764"><ele>257.4</ele><time>2026-04-27T04:05:49.999Z</time></trkpt><trkpt lat="45.945855565195906" lon="12.100056055852507"><ele>257.0</ele><time>2026-04-27T04:05:50.999Z</time></trkpt><trkpt lat="45.94589600988251" lon="12.10019683594755"><ele>257.0</ele><time>2026-04-27T04:05:51.999Z</time></trkpt><trkpt lat="45.94593798669405" lon="12.1003391836208"><ele>257.0</ele><time>2026-04-27T04:05:52.999Z</time></trkpt><trkpt lat="45.94598119055641" lon="12.100481183863641"><ele>257.0</ele><time>2026-04-27T04:05:53.999Z</time></trkpt><trkpt lat="45.94602309164586" lon="12.100624031746875"><ele>257.0</ele><time>2026-04-27T04:05:54.999Z</time></trkpt><trkpt lat="45.94606329758662" lon="12.100764728974905"><ele>257.0</ele><time>2026-04-27T04:05:55.999Z</time></trkpt><trkpt lat="45.946099396822596" lon="12.100889787950383"><ele>256.0</ele><time>2026-04-27T04:05:56.999Z</time></trkpt><trkpt lat="45.946129251319604" lon="12.10099308694277"><ele>255.0</ele><time>2026-04-27T04:05:57.999Z</time></trkpt><trkpt lat="45.94615624043662" lon="12.101089851704224"><ele>254.0</ele><time>2026-04-27T04:05:58.999Z</time></trkpt><trkpt lat="45.946180362295394" lon="12.101177746138667"><ele>253.0</ele><time>2026-04-27T04:05:59.999Z</time></trkpt><trkpt lat="45.946205004073434" lon="12.101274181307895"><ele>252.00000000000003</ele><time>2026-04-27T04:06:01.999Z</time></trkpt><trkpt lat="45.94624275079224" lon="12.10138322240852"><ele>251.0</ele><time>2026-04-27T04:06:31.999Z</time></trkpt><trkpt lat="45.946286251698055" lon="12.101534281281163"><ele>250.0</ele><time>2026-04-27T04:06:33.999Z</time></trkpt><trkpt lat="45.946311892687795" lon="12.101625238670502"><ele>249.00000000000003</ele><time>2026-04-27T04:06:50Z</time></trkpt><trkpt lat="45.94634063321879" lon="12.101726181689443"><ele>248.00000000000003</ele><time>2026-04-27T04:06:52Z</time></trkpt><trkpt lat="45.94638253290229" lon="12.10186405548448"><ele>247.0</ele><time>2026-04-27T04:06:54Z</time></trkpt><trkpt lat="45.94643861988103" lon="12.102041864748365"><ele>246.0</ele><time>2026-04-27T04:06:56Z</time></trkpt><trkpt lat="45.94646822466647" lon="12.102146851548476"><ele>246.0</ele><time>2026-04-27T04:06:57Z</time></trkpt><trkpt lat="45.946500186127516" lon="12.102257209848728"><ele>246.0</ele><time>2026-04-27T04:06:58Z</time></trkpt><trkpt lat="45.94653325972667" lon="12.102370608540985"><ele>246.0</ele><time>2026-04-27T04:06:59Z</time></trkpt><trkpt lat="45.946566228245366" lon="12.102486757788132"><ele>246.0</ele><time>2026-04-27T04:07:00Z</time></trkpt><trkpt lat="45.94660020449221" lon="12.10260478560813"><ele>246.0</ele><time>2026-04-27T04:07:01Z</time></trkpt><trkpt lat="45.94663538686275" lon="12.102724799970327"><ele>246.0</ele><time>2026-04-27T04:07:02Z</time></trkpt><trkpt lat="45.94667185552083" lon="12.10285070774838"><ele>246.20000000000002</ele><time>2026-04-27T04:07:02.999Z</time></trkpt><trkpt lat="45.94670684004994" lon="12.10297007558255"><ele>246.40000000000003</ele><time>2026-04-27T04:07:03.999Z</time></trkpt><trkpt lat="45.94673599250322" lon="12.103069853015667"><ele>246.6</ele><time>2026-04-27T04:07:04.999Z</time></trkpt><trkpt lat="45.946732525314765" lon="12.10323482405688"><ele>246.8</ele><time>2026-04-27T04:07:06.999Z</time></trkpt><trkpt lat="45.94661613759537" lon="12.103322509572767"><ele>247.0</ele><time>2026-04-27T04:07:08.999Z</time></trkpt><trkpt lat="45.94656371429242" lon="12.103257443122846"><ele>246.33333333333331</ele><time>2026-04-27T04:07:09.999Z</time></trkpt><trkpt lat="45.94651172633366" lon="12.103168192660295"><ele>245.66666666666666</ele><time>2026-04-27T04:07:10.999Z</time></trkpt><trkpt lat="45.946459734644435" lon="12.103083411671978"><ele>245.0</ele><time>2026-04-27T04:07:11.999Z</time></trkpt><trkpt lat="45.94639528834668" lon="12.102995092060182"><ele>244.33333333333331</ele><time>2026-04-27T04:07:13.999Z</time></trkpt><trkpt lat="45.94637117248807" lon="12.102906225046281"><ele>243.66666666666666</ele><time>2026-04-27T04:07:53.999Z</time></trkpt><trkpt lat="45.946292432623274" lon="12.102785078678254"><ele>243.0</ele><time>2026-04-27T04:07:55.999Z</time></trkpt><trkpt lat="45.946243928435806" lon="12.10270483347835"><ele>243.0</ele><time>2026-04-27T04:07:56.999Z</time></trkpt><trkpt lat="45.94619322565066" lon="12.102615503517654"><ele>243.0</ele><time>2026-04-27T04:07:57.999Z</time></trkpt><trkpt lat="45.946141897838686" lon="12.10252793684924"><ele>243.0</ele><time>2026-04-27T04:07:58.999Z</time></trkpt><trkpt lat="45.94609464453689" lon="12.102449360201362"><ele>243.0</ele><time>2026-04-27T04:07:59.999Z</time></trkpt><trkpt lat="45.94603382324232" lon="12.102349945953168"><ele>243.0</ele><time>2026-04-27T04:08:01.999Z</time></trkpt><trkpt lat="45.94597077530733" lon="12.102254558463043"><ele>243.0</ele><time>2026-04-27T04:08:30.998Z</time></trkpt><trkpt lat="45.94590974437969" lon="12.102149128552727"><ele>243.5</ele><time>2026-04-27T04:08:32.998Z</time></trkpt><trkpt lat="45.945861229489495" lon="12.102070781616908"><ele>244.0</ele><time>2026-04-27T04:08:34.998Z</time></trkpt><trkpt lat="45.94579227829234" lon="12.101970136224764"><ele>244.5</ele><time>2026-04-27T04:09:09.999Z</time></trkpt><trkpt lat="45.94571695280503" lon="12.10184570105581"><ele>245.0</ele><time>2026-04-27T04:09:11.999Z</time></trkpt><trkpt lat="45.945672947233675" lon="12.101773960021736"><ele>245.5</ele><time>2026-04-27T04:09:12.999Z</time></trkpt><trkpt lat="45.94562548266355" lon="12.101697295471393"><ele>246.0</ele><time>2026-04-27T04:09:13.999Z</time></trkpt><trkpt lat="45.94557474758654" lon="12.101614964917271"><ele>246.8</ele><time>2026-04-27T04:09:14.999Z</time></trkpt><trkpt lat="45.94551344835079" lon="12.101511102944594"><ele>247.60000000000002</ele><time>2026-04-27T04:09:16.999Z</time></trkpt><trkpt lat="45.945433277494594" lon="12.10143179843514"><ele>248.4</ele><time>2026-04-27T04:10:16.999Z</time></trkpt><trkpt lat="45.94535502888264" lon="12.101301405240681"><ele>249.2</ele><time>2026-04-27T04:10:18.999Z</time></trkpt><trkpt lat="45.94530663405508" lon="12.101219486857502"><ele>250.0</ele><time>2026-04-27T04:10:19.999Z</time></trkpt><trkpt lat="45.94525328334977" lon="12.101130323391454"><ele>249.99999999999997</ele><time>2026-04-27T04:10:20.999Z</time></trkpt><trkpt lat="45.94519332693856" lon="12.101033261165348"><ele>250.0</ele><time>2026-04-27T04:10:21.999Z</time></trkpt><trkpt lat="45.94513768376561" lon="12.10094145627769"><ele>250.0</ele><time>2026-04-27T04:10:22.999Z</time></trkpt><trkpt lat="45.9450816811757" lon="12.100848226279531"><ele>250.0</ele><time>2026-04-27T04:10:23.999Z</time></trkpt><trkpt lat="45.94502257758776" lon="12.100751585329046"><ele>249.99999999999997</ele><time>2026-04-27T04:10:24.999Z</time></trkpt><trkpt lat="45.944958409284524" lon="12.100644657897307"><ele>250.0</ele><time>2026-04-27T04:10:25.999Z</time></trkpt><trkpt lat="45.94488955816309" lon="12.100529221747065"><ele>249.75</ele><time>2026-04-27T04:10:26.999Z</time></trkpt><trkpt lat="45.94481495544691" lon="12.100406850696016"><ele>249.5</ele><time>2026-04-27T04:10:27.999Z</time></trkpt><trkpt lat="45.94473370815334" lon="12.100272494005138"><ele>249.25</ele><time>2026-04-27T04:10:28.999Z</time></trkpt><trkpt lat="45.944648663645715" lon="12.100131062481069"><ele>249.0</ele><time>2026-04-27T04:10:29.999Z</time></trkpt><trkpt lat="45.94456032103818" lon="12.099980484163392"><ele>249.75</ele><time>2026-04-27T04:10:30.999Z</time></trkpt><trkpt lat="45.944473871092114" lon="12.099817329529452"><ele>250.5</ele><time>2026-04-27T04:10:31.999Z</time></trkpt><trkpt lat="45.944390242142056" lon="12.099639760561123"><ele>251.25</ele><time>2026-04-27T04:10:32.999Z</time></trkpt><trkpt lat="45.944311385863536" lon="12.09945024276431"><ele>252.0</ele><time>2026-04-27T04:10:33.999Z</time></trkpt><trkpt lat="45.94423149924122" lon="12.09925616147043"><ele>252.66666666666669</ele><time>2026-04-27T04:10:34.999Z</time></trkpt><trkpt lat="45.94415121852933" lon="12.099053977174323"><ele>253.33333333333334</ele><time>2026-04-27T04:10:35.999Z</time></trkpt><trkpt lat="45.94406917526901" lon="12.098848857578345"><ele>254.0</ele><time>2026-04-27T04:10:36.999Z</time></trkpt><trkpt lat="45.94398558444542" lon="12.098642267942468"><ele>254.0</ele><time>2026-04-27T04:10:37.999Z</time></trkpt><trkpt lat="45.94389981191753" lon="12.098431382972088"><ele>254.0</ele><time>2026-04-27T04:10:38.999Z</time></trkpt><trkpt lat="45.943816350479864" lon="12.098218002673457"><ele>254.0</ele><time>2026-04-27T04:10:39.999Z</time></trkpt><trkpt lat="45.94373173062041" lon="12.09800394242729"><ele>254.0</ele><time>2026-04-27T04:10:40.999Z</time></trkpt><trkpt lat="45.94365000880626" lon="12.097799264314853"><ele>254.0</ele><time>2026-04-27T04:10:41.999Z</time></trkpt><trkpt lat="45.94357307384729" lon="12.097604777445518"><ele>254.0</ele><time>2026-04-27T04:10:42.999Z</time></trkpt><trkpt lat="45.943500674971865" lon="12.0974244335534"><ele>254.25</ele><time>2026-04-27T04:10:43.999Z</time></trkpt><trkpt lat="45.94343109923173" lon="12.097254110742547"><ele>254.5</ele><time>2026-04-27T04:10:44.999Z</time></trkpt><trkpt lat="45.943360746302425" lon="12.097089144908287"><ele>254.75</ele><time>2026-04-27T04:10:45.999Z</time></trkpt><trkpt lat="45.94329166313784" lon="12.09692761231878"><ele>255.0</ele><time>2026-04-27T04:10:46.998Z</time></trkpt><trkpt lat="45.943227699162556" lon="12.096778445621675"><ele>254.4</ele><time>2026-04-27T04:10:47.998Z</time></trkpt><trkpt lat="45.94316808619891" lon="12.096641548291416"><ele>253.8</ele><time>2026-04-27T04:10:49Z</time></trkpt><trkpt lat="45.94310839422457" lon="12.096509754313372"><ele>253.2</ele><time>2026-04-27T04:10:50Z</time></trkpt><trkpt lat="45.943054285924205" lon="12.096391195956846"><ele>252.6</ele><time>2026-04-27T04:10:51Z</time></trkpt><trkpt lat="45.943012578925426" lon="12.096296156473073"><ele>252.0</ele><time>2026-04-27T04:10:52Z</time></trkpt><trkpt lat="45.943004563628065" lon="12.096159844948117"><ele>252.0</ele><time>2026-04-27T04:10:54Z</time></trkpt><trkpt lat="45.94313474824191" lon="12.096111595339723"><ele>252.0</ele><time>2026-04-27T04:10:56Z</time></trkpt><trkpt lat="45.94320723480278" lon="12.096063400559002"><ele>252.0</ele><time>2026-04-27T04:10:57Z</time></trkpt><trkpt lat="45.943289021961625" lon="12.096010174905537"><ele>252.0</ele><time>2026-04-27T04:10:58Z</time></trkpt><trkpt lat="45.94337812356583" lon="12.095953996567085"><ele>252.0</ele><time>2026-04-27T04:10:59Z</time></trkpt><trkpt lat="45.9434735410599" lon="12.095893600602421"><ele>252.83333333333334</ele><time>2026-04-27T04:11:00Z</time></trkpt><trkpt lat="45.943568641500725" lon="12.095831535164573"><ele>253.66666666666669</ele><time>2026-04-27T04:11:01Z</time></trkpt><trkpt lat="45.94364141473649" lon="12.095757521202152"><ele>254.5</ele><time>2026-04-27T04:11:02Z</time></trkpt><trkpt lat="45.94370723251962" lon="12.09572534551994"><ele>255.33333333333334</ele><time>2026-04-27T04:11:03Z</time></trkpt><trkpt lat="45.94377944166844" lon="12.095682691385528"><ele>256.1666666666667</ele><time>2026-04-27T04:11:29.999Z</time></trkpt><trkpt lat="45.94383640098267" lon="12.095642344935186"><ele>257.0</ele><time>2026-04-27T04:11:31.999Z</time></trkpt><trkpt lat="45.943917008761964" lon="12.095599063587299"><ele>257.0</ele><time>2026-04-27T04:11:46.999Z</time></trkpt><trkpt lat="45.94385677357583" lon="12.095637706883819"><ele>257.0</ele><time>2026-04-27T04:11:59.999Z</time></trkpt><trkpt lat="45.94372833616465" lon="12.095684616005416"><ele>257.0</ele><time>2026-04-27T04:12:01.999Z</time></trkpt><trkpt lat="45.943652984882846" lon="12.095730750478399"><ele>257.0</ele><time>2026-04-27T04:12:02.999Z</time></trkpt><trkpt lat="45.94357156257327" lon="12.095783439240753"><ele>257.0</ele><time>2026-04-27T04:12:03.999Z</time></trkpt><trkpt lat="45.94348276795931" lon="12.095836608529844"><ele>257.1666666666667</ele><time>2026-04-27T04:12:04.999Z</time></trkpt><trkpt lat="45.943392219781884" lon="12.095891877196552"><ele>257.33333333333337</ele><time>2026-04-27T04:12:05.999Z</time></trkpt><trkpt lat="45.94331328145221" lon="12.095936448874907"><ele>257.5</ele><time>2026-04-27T04:12:06.999Z</time></trkpt><trkpt lat="45.943253120121575" lon="12.095973542213763"><ele>257.6666666666667</ele><time>2026-04-27T04:12:08.999Z</time></trkpt><trkpt lat="45.943194185844604" lon="12.09601910235929"><ele>257.8333333333333</ele><time>2026-04-27T04:12:26.999Z</time></trkpt><trkpt lat="45.9430751756711" lon="12.09610320813866"><ele>258.0</ele><time>2026-04-27T04:12:28.999Z</time></trkpt><trkpt lat="45.942997230008444" lon="12.096157064135314"><ele>256.8</ele><time>2026-04-27T04:12:30.999Z</time></trkpt><trkpt lat="45.94290011350661" lon="12.096035838603276"><ele>255.60000000000002</ele><time>2026-04-27T04:12:33.999Z</time></trkpt><trkpt lat="45.942872522336856" lon="12.0959282341568"><ele>254.39999999999998</ele><time>2026-04-27T04:12:34.999Z</time></trkpt><trkpt lat="45.94282860233139" lon="12.095826003979544"><ele>253.2</ele><time>2026-04-27T04:12:35.999Z</time></trkpt><trkpt lat="45.94277535989363" lon="12.095711815566284"><ele>252.0</ele><time>2026-04-27T04:12:36.999Z</time></trkpt><trkpt lat="45.94271300900914" lon="12.095589276766754"><ele>252.0</ele><time>2026-04-27T04:12:37.999Z</time></trkpt><trkpt lat="45.94263746366547" lon="12.095464370924292"><ele>252.0</ele><time>2026-04-27T04:12:38.999Z</time></trkpt><trkpt lat="45.942553414352524" lon="12.09533704960075"><ele>252.0</ele><time>2026-04-27T04:12:39.999Z</time></trkpt><trkpt lat="45.94246030857645" lon="12.095208034103143"><ele>252.0</ele><time>2026-04-27T04:12:40.999Z</time></trkpt><trkpt lat="45.94236194746328" lon="12.09507470738732"><ele>251.75</ele><time>2026-04-27T04:12:41.999Z</time></trkpt><trkpt lat="45.94226107617748" lon="12.09493898964897"><ele>251.5</ele><time>2026-04-27T04:12:42.999Z</time></trkpt><trkpt lat="45.942159672666044" lon="12.094803691858598"><ele>251.25</ele><time>2026-04-27T04:12:43.998Z</time></trkpt><trkpt lat="45.94206107825708" lon="12.094669976999896"><ele>251.0</ele><time>2026-04-27T04:12:44.998Z</time></trkpt><trkpt lat="45.94196494390389" lon="12.09454254222042"><ele>251.0</ele><time>2026-04-27T04:12:45.999Z</time></trkpt><trkpt lat="45.941871891695655" lon="12.094415556422234"><ele>251.0</ele><time>2026-04-27T04:12:46.999Z</time></trkpt><trkpt lat="45.94177824386758" lon="12.094289421182694"><ele>251.0</ele><time>2026-04-27T04:12:47.999Z</time></trkpt><trkpt lat="45.94168397992856" lon="12.094160965037934"><ele>251.0</ele><time>2026-04-27T04:12:48.999Z</time></trkpt><trkpt lat="45.94158960838175" lon="12.094025616672631"><ele>250.60000000000002</ele><time>2026-04-27T04:12:49.999Z</time></trkpt><trkpt lat="45.94149422438567" lon="12.093890191359773"><ele>250.20000000000002</ele><time>2026-04-27T04:12:50.999Z</time></trkpt><trkpt lat="45.94141113084662" lon="12.093767691305201"><ele>249.79999999999998</ele><time>2026-04-27T04:12:51.999Z</time></trkpt><trkpt lat="45.94134879102872" lon="12.093673675525814"><ele>249.39999999999998</ele><time>2026-04-27T04:12:52.999Z</time></trkpt><trkpt lat="45.94128264657911" lon="12.093584333836771"><ele>249.0</ele><time>2026-04-27T04:12:55Z</time></trkpt><trkpt lat="45.94121529064354" lon="12.093503466714772"><ele>249.0</ele><time>2026-04-27T04:13:15Z</time></trkpt><trkpt lat="45.941165214492756" lon="12.093437957608693"><ele>249.0</ele><time>2026-04-27T04:13:16Z</time></trkpt><trkpt lat="45.94110480614538" lon="12.093358836444057"><ele>249.0</ele><time>2026-04-27T04:13:17Z</time></trkpt><trkpt lat="45.9410409354671" lon="12.093268239150103"><ele>249.0</ele><time>2026-04-27T04:13:18Z</time></trkpt><trkpt lat="45.940974086620415" lon="12.093164973268388"><ele>249.0</ele><time>2026-04-27T04:13:19Z</time></trkpt><trkpt lat="45.940905062527044" lon="12.093050365079302"><ele>249.0</ele><time>2026-04-27T04:13:20Z</time></trkpt><trkpt lat="45.94083316577595" lon="12.092927400543264"><ele>249.0</ele><time>2026-04-27T04:13:21Z</time></trkpt><trkpt lat="45.94075856432245" lon="12.092793184472743"><ele>249.0</ele><time>2026-04-27T04:13:22Z</time></trkpt><trkpt lat="45.94068059627198" lon="12.092648533065468"><ele>249.0</ele><time>2026-04-27T04:13:23Z</time></trkpt><trkpt lat="45.94060085988748" lon="12.092499448057113"><ele>249.0</ele><time>2026-04-27T04:13:24Z</time></trkpt><trkpt lat="45.94051700660111" lon="12.092346293703695"><ele>249.2</ele><time>2026-04-27T04:13:25Z</time></trkpt><trkpt lat="45.940435202497184" lon="12.092194486934963"><ele>249.39999999999998</ele><time>2026-04-27T04:13:26Z</time></trkpt><trkpt lat="45.94036899693742" lon="12.092064700647123"><ele>249.6</ele><time>2026-04-27T04:13:27Z</time></trkpt><trkpt lat="45.94032725989857" lon="12.091967844887257"><ele>249.8</ele><time>2026-04-27T04:13:28Z</time></trkpt><trkpt lat="45.94028622321235" lon="12.091889014496088"><ele>250.0</ele><time>2026-04-27T04:13:30Z</time></trkpt><trkpt lat="45.940390998434935" lon="12.091757723448781"><ele>250.0</ele><time>2026-04-27T04:13:33Z</time></trkpt><trkpt lat="45.940501450705874" lon="12.091650115258854"><ele>250.0</ele><time>2026-04-27T04:13:35Z</time></trkpt><trkpt lat="45.94056275503502" lon="12.091590389683981"><ele>250.0</ele><time>2026-04-27T04:13:37Z</time></trkpt><trkpt lat="45.94064160625952" lon="12.091509178608526"><ele>250.0</ele><time>2026-04-27T04:15:12Z</time></trkpt><trkpt lat="45.94071047200599" lon="12.091429877004256"><ele>250.0</ele><time>2026-04-27T04:15:14Z</time></trkpt><trkpt lat="45.94079135572427" lon="12.091351597538953"><ele>250.16666666666666</ele><time>2026-04-27T04:15:16Z</time></trkpt><trkpt lat="45.94087105130216" lon="12.09126961784003"><ele>250.33333333333331</ele><time>2026-04-27T04:15:18Z</time></trkpt><trkpt lat="45.9409454603706" lon="12.091171488237638"><ele>250.5</ele><time>2026-04-27T04:15:20Z</time></trkpt><trkpt lat="45.941007973042005" lon="12.091090385378351"><ele>250.66666666666669</ele><time>2026-04-27T04:15:22Z</time></trkpt><trkpt lat="45.94107060073642" lon="12.0910492524269"><ele>250.83333333333334</ele><time>2026-04-27T04:16:02Z</time></trkpt><trkpt lat="45.94112994361983" lon="12.090965473962514"><ele>251.0</ele><time>2026-04-27T04:16:04Z</time></trkpt><trkpt lat="45.94120479705994" lon="12.090855274445854"><ele>252.66666666666669</ele><time>2026-04-27T04:16:06Z</time></trkpt><trkpt lat="45.941276252619744" lon="12.090748400917338"><ele>254.33333333333334</ele><time>2026-04-27T04:16:08Z</time></trkpt><trkpt lat="45.94132198596359" lon="12.090679999346078"><ele>256.0</ele><time>2026-04-27T04:17:00.999Z</time></trkpt><trkpt lat="45.941361527572305" lon="12.090606616335501"><ele>257.6666666666667</ele><time>2026-04-27T04:18:40Z</time></trkpt><trkpt lat="45.94142370842592" lon="12.090581831587198"><ele>259.3333333333333</ele><time>2026-04-27T04:18:42Z</time></trkpt><trkpt lat="45.94149395272361" lon="12.090461615886372"><ele>261.0</ele><time>2026-04-27T04:18:43.999Z</time></trkpt><trkpt lat="45.941557737004196" lon="12.090373065466387"><ele>261.0</ele><time>2026-04-27T04:19:12Z</time></trkpt><trkpt lat="45.94161789509793" lon="12.090276118369424"><ele>261.0</ele><time>2026-04-27T04:19:14Z</time></trkpt><trkpt lat="45.941694070826415" lon="12.090156154959114"><ele>261.0</ele><time>2026-04-27T04:19:16Z</time></trkpt><trkpt lat="45.94176971206056" lon="12.090034848028827"><ele>261.0</ele><time>2026-04-27T04:19:18Z</time></trkpt><trkpt lat="45.941819104364605" lon="12.089971161371738"><ele>261.0</ele><time>2026-04-27T04:19:20Z</time></trkpt><trkpt lat="45.9418878496091" lon="12.089951497094468"><ele>261.0</ele><time>2026-04-27T04:19:24Z</time></trkpt><trkpt lat="45.941930511217734" lon="12.09008524787793"><ele>261.0</ele><time>2026-04-27T04:19:26Z</time></trkpt><trkpt lat="45.94198300958" lon="12.09016904356841"><ele>261.0</ele><time>2026-04-27T04:19:28Z</time></trkpt><trkpt lat="45.942028766427654" lon="12.090242079238958"><ele>261.0</ele><time>2026-04-27T04:19:53Z</time></trkpt><trkpt lat="45.94208071206445" lon="12.090324992883811"><ele>261.0</ele><time>2026-04-27T04:19:55Z</time></trkpt><trkpt lat="45.94215789996112" lon="12.090447862526645"><ele>261.0</ele><time>2026-04-27T04:19:57Z</time></trkpt><trkpt lat="45.94220100711494" lon="12.0905163518427"><ele>261.0</ele><time>2026-04-27T04:19:58Z</time></trkpt><trkpt lat="45.94224821805259" lon="12.090591361442067"><ele>261.0</ele><time>2026-04-27T04:19:59Z</time></trkpt><trkpt lat="45.94229912463619" lon="12.090648356420518"><ele>261.0</ele><time>2026-04-27T04:20:00Z</time></trkpt><trkpt lat="45.942344371628096" lon="12.090753984080077"><ele>261.0</ele><time>2026-04-27T04:20:02Z</time></trkpt><trkpt lat="45.942387680292796" lon="12.0908394148552"><ele>261.0</ele><time>2026-04-27T04:20:21Z</time></trkpt><trkpt lat="45.94244944749004" lon="12.09094261165883"><ele>261.0</ele><time>2026-04-27T04:20:23Z</time></trkpt><trkpt lat="45.94250110206728" lon="12.091015662875797"><ele>261.2</ele><time>2026-04-27T04:20:25Z</time></trkpt><trkpt lat="45.9425667012557" lon="12.091110319704796"><ele>261.40000000000003</ele><time>2026-04-27T04:20:41Z</time></trkpt><trkpt lat="45.94263809301005" lon="12.09120499574619"><ele>261.6</ele><time>2026-04-27T04:20:43Z</time></trkpt><trkpt lat="45.94274189235541" lon="12.091166780564244"><ele>261.8</ele><time>2026-04-27T04:20:44.999Z</time></trkpt><trkpt lat="45.942807631229655" lon="12.091090345201993"><ele>262.0</ele><time>2026-04-27T04:20:46.999Z</time></trkpt><trkpt lat="45.94290473058124" lon="12.090991015432008"><ele>262.0</ele><time>2026-04-27T04:20:48.999Z</time></trkpt><trkpt lat="45.94295818187434" lon="12.090926127169634"><ele>262.0</ele><time>2026-04-27T04:20:49.999Z</time></trkpt><trkpt lat="45.943059402747295" lon="12.090863743656682"><ele>262.0</ele><time>2026-04-27T04:20:51.999Z</time></trkpt><trkpt lat="45.94315862145914" lon="12.091004775409012"><ele>262.0</ele><time>2026-04-27T04:20:53.999Z</time></trkpt><trkpt lat="45.94319832800887" lon="12.09109986425753"><ele>262.0</ele><time>2026-04-27T04:20:54.999Z</time></trkpt><trkpt lat="45.94323174517263" lon="12.09118412173829"><ele>262.0</ele><time>2026-04-27T04:20:55.999Z</time></trkpt><trkpt lat="45.94327637752875" lon="12.091311827426171"><ele>262.0</ele><time>2026-04-27T04:20:57.999Z</time></trkpt><trkpt lat="45.94326009578703" lon="12.091222062354706"><ele>262.0</ele><time>2026-04-27T04:21:09.999Z</time></trkpt><trkpt lat="45.94340377481408" lon="12.09110258435336"><ele>262.0</ele><time>2026-04-27T04:21:10.999Z</time></trkpt><trkpt lat="45.94348098107344" lon="12.091003542107641"><ele>262.0</ele><time>2026-04-27T04:21:12.999Z</time></trkpt><trkpt lat="45.94356795499897" lon="12.090894605155448"><ele>263.2</ele><time>2026-04-27T04:21:14.999Z</time></trkpt><trkpt lat="45.94364909314078" lon="12.09078680219644"><ele>264.4</ele><time>2026-04-27T04:21:16.999Z</time></trkpt><trkpt lat="45.94375267953852" lon="12.090659284315137"><ele>265.6</ele><time>2026-04-27T04:21:19Z</time></trkpt><trkpt lat="45.94384654742336" lon="12.090549870492628"><ele>266.8</ele><time>2026-04-27T04:21:21Z</time></trkpt><trkpt lat="45.94390047303387" lon="12.09050168062833"><ele>268.0</ele><time>2026-04-27T04:21:24Z</time></trkpt><trkpt lat="45.94383463565493" lon="12.090580741434367"><ele>268.0</ele><time>2026-04-27T04:22:06Z</time></trkpt><trkpt lat="45.943781683329746" lon="12.090643510408905"><ele>268.0</ele><time>2026-04-27T04:22:07Z</time></trkpt><trkpt lat="45.94372730520694" lon="12.090712240375908"><ele>268.0</ele><time>2026-04-27T04:22:08Z</time></trkpt><trkpt lat="45.943677291955936" lon="12.090777412027807"><ele>268.0</ele><time>2026-04-27T04:22:09Z</time></trkpt><trkpt lat="45.94362724952731" lon="12.090846799228965"><ele>268.0</ele><time>2026-04-27T04:22:12Z</time></trkpt><trkpt lat="45.94355863393762" lon="12.090904254357525"><ele>268.0</ele><time>2026-04-27T04:22:49.999Z</time></trkpt><trkpt lat="45.94350527378345" lon="12.090971839371777"><ele>268.0</ele><time>2026-04-27T04:22:51.999Z</time></trkpt><trkpt lat="45.94346269841914" lon="12.091046854935543"><ele>266.8</ele><time>2026-04-27T04:23:15.999Z</time></trkpt><trkpt lat="45.94336173287922" lon="12.091147574854388"><ele>265.6</ele><time>2026-04-27T04:23:17.999Z</time></trkpt><trkpt lat="45.943308600704114" lon="12.091223056213536"><ele>264.4</ele><time>2026-04-27T04:23:19.999Z</time></trkpt><trkpt lat="45.943242019668176" lon="12.09113406065126"><ele>263.2</ele><time>2026-04-27T04:23:21.999Z</time></trkpt><trkpt lat="45.94317437025379" lon="12.09097932390308"><ele>262.0</ele><time>2026-04-27T04:23:24Z</time></trkpt><trkpt lat="45.94313693264913" lon="12.090862995881139"><ele>262.0</ele><time>2026-04-27T04:23:26Z</time></trkpt><trkpt lat="45.94312774284557" lon="12.090771315184526"><ele>262.0</ele><time>2026-04-27T04:23:29Z</time></trkpt><trkpt lat="45.94316354680932" lon="12.09067878390726"><ele>262.0</ele><time>2026-04-27T04:23:31Z</time></trkpt><trkpt lat="45.943249036997045" lon="12.090565830321678"><ele>262.0</ele><time>2026-04-27T04:23:33Z</time></trkpt><trkpt lat="45.943304715402896" lon="12.090485051447995"><ele>262.0</ele><time>2026-04-27T04:23:34Z</time></trkpt><trkpt lat="45.943366672919986" lon="12.090403224170991"><ele>262.0</ele><time>2026-04-27T04:23:35Z</time></trkpt><trkpt lat="45.94343357879287" lon="12.090320377762255"><ele>263.5</ele><time>2026-04-27T04:23:36Z</time></trkpt><trkpt lat="45.94349457567908" lon="12.09024622945713"><ele>265.0</ele><time>2026-04-27T04:23:37Z</time></trkpt><trkpt lat="45.943560079860674" lon="12.090150041531427"><ele>266.5</ele><time>2026-04-27T04:23:39Z</time></trkpt><trkpt lat="45.943613987553036" lon="12.09009483387661"><ele>268.0</ele><time>2026-04-27T04:23:42Z</time></trkpt><trkpt lat="45.94355287926046" lon="12.090154653131679"><ele>269.5</ele><time>2026-04-27T04:24:13Z</time></trkpt><trkpt lat="45.94352740245429" lon="12.090068097010532"><ele>271.0</ele><time>2026-04-27T04:24:19Z</time></trkpt><trkpt lat="45.943471610598344" lon="12.089984079259072"><ele>271.8</ele><time>2026-04-27T04:24:21Z</time></trkpt><trkpt lat="45.943403464338246" lon="12.089886247899353"><ele>272.6</ele><time>2026-04-27T04:24:23Z</time></trkpt><trkpt lat="45.943345600578226" lon="12.089797280184525"><ele>273.4</ele><time>2026-04-27T04:24:25Z</time></trkpt><trkpt lat="45.94326515300643" lon="12.089695991456775"><ele>274.2</ele><time>2026-04-27T04:24:27Z</time></trkpt><trkpt lat="45.94320127117351" lon="12.089595410452453"><ele>275.0</ele><time>2026-04-27T04:24:29Z</time></trkpt><trkpt lat="45.94325322196386" lon="12.08966415772202"><ele>275.0</ele><time>2026-04-27T04:24:55.999Z</time></trkpt><trkpt lat="45.94330535526865" lon="12.089751449058895"><ele>275.0</ele><time>2026-04-27T04:24:58.999Z</time></trkpt><trkpt lat="45.943354772241406" lon="12.089817432216547"><ele>275.0</ele><time>2026-04-27T04:25:03.999Z</time></trkpt><trkpt lat="45.94341304230722" lon="12.089902209007233"><ele>275.0</ele><time>2026-04-27T04:25:28.999Z</time></trkpt><trkpt lat="45.943265349238814" lon="12.089409229779452"><ele>275.0</ele><time>2026-04-27T04:26:05Z</time></trkpt><trkpt lat="45.94346193750194" lon="12.089822528743639"><ele>275.0</ele><time>2026-04-27T04:26:07Z</time></trkpt><trkpt lat="45.94340787414189" lon="12.08989230642401"><ele>275.0</ele><time>2026-04-27T04:26:10Z</time></trkpt><trkpt lat="45.94343647806279" lon="12.089986963236644"><ele>275.0</ele><time>2026-04-27T04:26:13Z</time></trkpt><trkpt lat="45.94349167897108" lon="12.090080963215843"><ele>275.0</ele><time>2026-04-27T04:26:15Z</time></trkpt><trkpt lat="45.943543883202985" lon="12.090135409089939"><ele>275.0</ele><time>2026-04-27T04:26:17Z</time></trkpt><trkpt lat="45.94361097032318" lon="12.090098498487533"><ele>275.0</ele><time>2026-04-27T04:26:19Z</time></trkpt><trkpt lat="45.94368699699643" lon="12.090011516684712"><ele>275.0</ele><time>2026-04-27T04:26:21Z</time></trkpt><trkpt lat="45.94376025029144" lon="12.089908925809736"><ele>275.0</ele><time>2026-04-27T04:26:23Z</time></trkpt><trkpt lat="45.94381517216926" lon="12.089859025890002"><ele>274.33333333333337</ele><time>2026-04-27T04:26:25Z</time></trkpt><trkpt lat="45.94375935813734" lon="12.089939044278823"><ele>273.6666666666667</ele><time>2026-04-27T04:27:35Z</time></trkpt><trkpt lat="45.94368619165504" lon="12.090021320869512"><ele>273.0</ele><time>2026-04-27T04:27:38Z</time></trkpt><trkpt lat="45.94362992706019" lon="12.090076753688718"><ele>272.3333333333333</ele><time>2026-04-27T04:27:41Z</time></trkpt><trkpt lat="45.94358602837345" lon="12.090144761126865"><ele>271.66666666666663</ele><time>2026-04-27T04:27:49Z</time></trkpt><trkpt lat="45.94351905495659" lon="12.090207849328749"><ele>271.0</ele><time>2026-04-27T04:27:54Z</time></trkpt><trkpt lat="45.94346833973091" lon="12.090285086978106"><ele>271.0</ele><time>2026-04-27T04:27:56Z</time></trkpt><trkpt lat="45.943403850012224" lon="12.09036747578223"><ele>271.0</ele><time>2026-04-27T04:27:58Z</time></trkpt><trkpt lat="45.94333750802379" lon="12.090458012580052"><ele>271.0</ele><time>2026-04-27T04:28:20Z</time></trkpt><trkpt lat="45.94326968879871" lon="12.090478437597614"><ele>271.0</ele><time>2026-04-27T04:28:21Z</time></trkpt><trkpt lat="45.94322630904907" lon="12.090550712654714"><ele>271.0</ele><time>2026-04-27T04:28:22Z</time></trkpt><trkpt lat="45.943159905927686" lon="12.090577543531639"><ele>271.0</ele><time>2026-04-27T04:28:24Z</time></trkpt><trkpt lat="45.94310205589164" lon="12.090487962902134"><ele>270.0</ele><time>2026-04-27T04:28:25Z</time></trkpt><trkpt lat="45.943068929100114" lon="12.090410925483642"><ele>269.0</ele><time>2026-04-27T04:28:26Z</time></trkpt><trkpt lat="45.94302833978007" lon="12.09033704937817"><ele>268.0</ele><time>2026-04-27T04:28:27Z</time></trkpt><trkpt lat="45.942986644836104" lon="12.090260500224135"><ele>267.0</ele><time>2026-04-27T04:28:28Z</time></trkpt><trkpt lat="45.94290891379587" lon="12.090176950493088"><ele>266.0</ele><time>2026-04-27T04:28:30Z</time></trkpt><trkpt lat="45.94280471526725" lon="12.090210276902932"><ele>265.0</ele><time>2026-04-27T04:28:32Z</time></trkpt><trkpt lat="45.9428096606991" lon="12.090313016535038"><ele>265.0</ele><time>2026-04-27T04:28:33Z</time></trkpt><trkpt lat="45.94276383498225" lon="12.090402925398095"><ele>265.0</ele><time>2026-04-27T04:28:35Z</time></trkpt><trkpt lat="45.94284470748193" lon="12.090520161607088"><ele>265.0</ele><time>2026-04-27T04:28:37Z</time></trkpt><trkpt lat="45.94291184670489" lon="12.090662108791232"><ele>265.0</ele><time>2026-04-27T04:28:39Z</time></trkpt><trkpt lat="45.94297471105206" lon="12.090765406535073"><ele>265.0</ele><time>2026-04-27T04:28:55.999Z</time></trkpt><trkpt lat="45.94302790241931" lon="12.090838531568718"><ele>264.5</ele><time>2026-04-27T04:28:58.999Z</time></trkpt><trkpt lat="45.94292798698158" lon="12.09090025860444"><ele>264.0</ele><time>2026-04-27T04:29:00.999Z</time></trkpt><trkpt lat="45.94288637789807" lon="12.09097255744448"><ele>263.5</ele><time>2026-04-27T04:29:01.999Z</time></trkpt><trkpt lat="45.942829628743496" lon="12.091023338818259"><ele>263.0</ele><time>2026-04-27T04:29:02.999Z</time></trkpt><trkpt lat="45.94278092490952" lon="12.091092891293206"><ele>262.5</ele><time>2026-04-27T04:29:03.999Z</time></trkpt><trkpt lat="45.94270383994438" lon="12.091174314297996"><ele>262.0</ele><time>2026-04-27T04:29:05.999Z</time></trkpt><trkpt lat="45.94264193523007" lon="12.091244795675586"><ele>262.0</ele><time>2026-04-27T04:29:09.999Z</time></trkpt><trkpt lat="45.94269375210455" lon="12.091352903187802"><ele>262.0</ele><time>2026-04-27T04:29:11.999Z</time></trkpt><trkpt lat="45.942761370624574" lon="12.091429391327965"><ele>262.0</ele><time>2026-04-27T04:29:35.999Z</time></trkpt><trkpt lat="45.94284149375651" lon="12.09153169556752"><ele>262.0</ele><time>2026-04-27T04:29:37.999Z</time></trkpt><trkpt lat="45.94288689404939" lon="12.09159915364729"><ele>262.0</ele><time>2026-04-27T04:29:38.999Z</time></trkpt><trkpt lat="45.94293180369048" lon="12.091675763959355"><ele>262.0</ele><time>2026-04-27T04:29:39.999Z</time></trkpt><trkpt lat="45.942975109288554" lon="12.091746044191673"><ele>262.0</ele><time>2026-04-27T04:29:41Z</time></trkpt><trkpt lat="45.94303069063676" lon="12.091841868639477"><ele>262.0</ele><time>2026-04-27T04:29:43Z</time></trkpt><trkpt lat="45.9429595793537" lon="12.091733818236538"><ele>262.0</ele><time>2026-04-27T04:30:05Z</time></trkpt><trkpt lat="45.94288465161101" lon="12.091626425662557"><ele>262.0</ele><time>2026-04-27T04:30:07Z</time></trkpt><trkpt lat="45.94281471637314" lon="12.091516034533104"><ele>262.0</ele><time>2026-04-27T04:30:09Z</time></trkpt><trkpt lat="45.942694971567064" lon="12.091659301420476"><ele>261.66666666666663</ele><time>2026-04-27T04:30:23Z</time></trkpt><trkpt lat="45.94263651537337" lon="12.091732087642923"><ele>261.3333333333333</ele><time>2026-04-27T04:30:42Z</time></trkpt><trkpt lat="45.942570700663765" lon="12.091814036013579"><ele>261.0</ele><time>2026-04-27T04:30:43.999Z</time></trkpt><trkpt lat="45.94252172453928" lon="12.091887700406314"><ele>260.6666666666667</ele><time>2026-04-27T04:30:45.999Z</time></trkpt><trkpt lat="45.942464125992196" lon="12.091955786034045"><ele>260.33333333333337</ele><time>2026-04-27T04:30:48.999Z</time></trkpt><trkpt lat="45.9425228103178" lon="12.091876667887256"><ele>260.0</ele><time>2026-04-27T04:31:25.999Z</time></trkpt><trkpt lat="45.94257020861139" lon="12.091814648797081"><ele>260.0</ele><time>2026-04-27T04:31:40.999Z</time></trkpt><trkpt lat="45.94262332368984" lon="12.091748513939029"><ele>260.0</ele><time>2026-04-27T04:31:42.999Z</time></trkpt><trkpt lat="45.94270512836658" lon="12.091646654481709"><ele>260.0</ele><time>2026-04-27T04:31:44.999Z</time></trkpt><trkpt lat="45.942772505686925" lon="12.091559750529509"><ele>260.0</ele><time>2026-04-27T04:31:47Z</time></trkpt><trkpt lat="45.94282077155464" lon="12.091497266269792"><ele>260.0</ele><time>2026-04-27T04:31:52Z</time></trkpt><trkpt lat="45.942891512989085" lon="12.091612211925746"><ele>260.0</ele><time>2026-04-27T04:31:53Z</time></trkpt><trkpt lat="45.942970140481066" lon="12.09172077866809"><ele>260.0</ele><time>2026-04-27T04:31:55Z</time></trkpt><trkpt lat="45.943038603584235" lon="12.09184785162569"><ele>260.0</ele><time>2026-04-27T04:31:57Z</time></trkpt><trkpt lat="45.94312080119335" lon="12.091965861964399"><ele>260.0</ele><time>2026-04-27T04:31:59Z</time></trkpt><trkpt lat="45.9432133063722" lon="12.09209496199922"><ele>260.0</ele><time>2026-04-27T04:32:01Z</time></trkpt><trkpt lat="45.94327769947909" lon="12.092219641842078"><ele>260.0</ele><time>2026-04-27T04:32:21Z</time></trkpt><trkpt lat="45.943350436712606" lon="12.092341098872701"><ele>260.0</ele><time>2026-04-27T04:32:23Z</time></trkpt><trkpt lat="45.94341859278796" lon="12.092459538524126"><ele>260.0</ele><time>2026-04-27T04:32:25Z</time></trkpt><trkpt lat="45.943460889481855" lon="12.092545074374272"><ele>260.0</ele><time>2026-04-27T04:32:27Z</time></trkpt><trkpt lat="45.943515657963665" lon="12.092639131166381"><ele>260.0</ele><time>2026-04-27T04:32:29Z</time></trkpt><trkpt lat="45.94358407193172" lon="12.09275510972714"><ele>259.8</ele><time>2026-04-27T04:32:31Z</time></trkpt><trkpt lat="45.94366104780816" lon="12.092874538475298"><ele>259.6</ele><time>2026-04-27T04:32:33Z</time></trkpt><trkpt lat="45.94374966409968" lon="12.09300209324358"><ele>259.4</ele><time>2026-04-27T04:32:35Z</time></trkpt><trkpt lat="45.94379770213279" lon="12.093062815315536"><ele>259.2</ele><time>2026-04-27T04:32:36Z</time></trkpt><trkpt lat="45.94384142301262" lon="12.09312851466312"><ele>259.0</ele><time>2026-04-27T04:32:37Z</time></trkpt><trkpt lat="45.94391686618769" lon="12.093236703466747"><ele>258.7142857142857</ele><time>2026-04-27T04:32:39Z</time></trkpt><trkpt lat="45.943967966239924" lon="12.093314291159732"><ele>258.42857142857144</ele><time>2026-04-27T04:32:41Z</time></trkpt><trkpt lat="45.94402046393509" lon="12.093366887292287"><ele>258.1428571428571</ele><time>2026-04-27T04:32:47.999Z</time></trkpt><trkpt lat="45.944092810030234" lon="12.093437412632706"><ele>257.8571428571429</ele><time>2026-04-27T04:32:50.999Z</time></trkpt><trkpt lat="45.94403662934455" lon="12.093389073192366"><ele>257.57142857142856</ele><time>2026-04-27T04:34:31Z</time></trkpt><trkpt lat="45.94397366568587" lon="12.093357649865835"><ele>257.2857142857143</ele><time>2026-04-27T04:34:39Z</time></trkpt><trkpt lat="45.94390678073104" lon="12.093349951072412"><ele>257.0</ele><time>2026-04-27T04:34:45.999Z</time></trkpt><trkpt lat="45.94373270733656" lon="12.093541217435005"><ele>257.0</ele><time>2026-04-27T04:34:58.999Z</time></trkpt><trkpt lat="45.94367538007903" lon="12.093580938512927"><ele>257.0</ele><time>2026-04-27T04:35:02.999Z</time></trkpt><trkpt lat="45.94372090113753" lon="12.093674432796941"><ele>257.0</ele><time>2026-04-27T04:36:20Z</time></trkpt><trkpt lat="45.943733908944914" lon="12.093795664654754"><ele>257.0</ele><time>2026-04-27T04:36:24Z</time></trkpt><trkpt lat="45.943747399497205" lon="12.093901766748457"><ele>257.0</ele><time>2026-04-27T04:36:27Z</time></trkpt><trkpt lat="45.94376884039667" lon="12.09406997769932"><ele>257.0</ele><time>2026-04-27T04:36:41Z</time></trkpt><trkpt lat="45.943788067390074" lon="12.094223157324347"><ele>257.1666666666667</ele><time>2026-04-27T04:36:43Z</time></trkpt><trkpt lat="45.94381406696161" lon="12.094373043538667"><ele>257.33333333333337</ele><time>2026-04-27T04:36:44.999Z</time></trkpt><trkpt lat="45.94383178724954" lon="12.094463484299748"><ele>257.5</ele><time>2026-04-27T04:36:46.999Z</time></trkpt><trkpt lat="45.94376481684145" lon="12.09452956934311"><ele>257.6666666666667</ele><time>2026-04-27T04:36:52.999Z</time></trkpt><trkpt lat="45.94367908176922" lon="12.094561568048396"><ele>257.8333333333333</ele><time>2026-04-27T04:36:55.999Z</time></trkpt><trkpt lat="45.943601236735816" lon="12.094585050663877"><ele>258.0</ele><time>2026-04-27T04:36:57.999Z</time></trkpt><trkpt lat="45.94353206434956" lon="12.094642108173668"><ele>258.0</ele><time>2026-04-27T04:36:59.999Z</time></trkpt><trkpt lat="45.94346377424831" lon="12.094717300206035"><ele>258.0</ele><time>2026-04-27T04:37:02.999Z</time></trkpt><trkpt lat="45.9433990921556" lon="12.094788400878107"><ele>258.0</ele><time>2026-04-27T04:37:04.999Z</time></trkpt><trkpt lat="45.94332137348188" lon="12.094862000567408"><ele>258.0</ele><time>2026-04-27T04:37:06.999Z</time></trkpt><trkpt lat="45.94324299625686" lon="12.094857572969183"><ele>258.0</ele><time>2026-04-27T04:37:08.999Z</time></trkpt><trkpt lat="45.94320422585384" lon="12.094780743271084"><ele>258.0</ele><time>2026-04-27T04:37:10.999Z</time></trkpt><trkpt lat="45.9431661213147" lon="12.094706625490357"><ele>258.0</ele><time>2026-04-27T04:37:12.999Z</time></trkpt><trkpt lat="45.943092969066875" lon="12.094689527042057"><ele>258.0</ele><time>2026-04-27T04:37:15.999Z</time></trkpt><trkpt lat="45.94315969990129" lon="12.094698854559738"><ele>258.0</ele><time>2026-04-27T04:37:29.999Z</time></trkpt><trkpt lat="45.94319108624539" lon="12.09456593196427"><ele>258.0</ele><time>2026-04-27T04:37:34.999Z</time></trkpt><trkpt lat="45.94327451798154" lon="12.0944847418671"><ele>258.0</ele><time>2026-04-27T04:37:36.999Z</time></trkpt><trkpt lat="45.94336055657846" lon="12.094401014949183"><ele>258.0</ele><time>2026-04-27T04:37:38.999Z</time></trkpt><trkpt lat="45.94359024883594" lon="12.094609366263342"><ele>258.0</ele><time>2026-04-27T04:37:40.999Z</time></trkpt><trkpt lat="45.94369083793382" lon="12.094567891151627"><ele>258.0</ele><time>2026-04-27T04:37:42.999Z</time></trkpt><trkpt lat="45.94378816852807" lon="12.094569424354559"><ele>258.0</ele><time>2026-04-27T04:37:44.999Z</time></trkpt><trkpt lat="45.94385889498802" lon="12.094537010396568"><ele>258.0</ele><time>2026-04-27T04:37:46.999Z</time></trkpt><trkpt lat="45.94384819215516" lon="12.094402369734498"><ele>258.0</ele><time>2026-04-27T04:37:48.999Z</time></trkpt><trkpt lat="45.94383438426917" lon="12.09429192076864"><ele>258.0</ele><time>2026-04-27T04:37:50.999Z</time></trkpt><trkpt lat="45.94379758337359" lon="12.094125501647593"><ele>257.85714285714283</ele><time>2026-04-27T04:37:52.999Z</time></trkpt><trkpt lat="45.94378221635829" lon="12.094024816361694"><ele>257.7142857142857</ele><time>2026-04-27T04:37:53.999Z</time></trkpt><trkpt lat="45.94377328815075" lon="12.093920270373538"><ele>257.57142857142856</ele><time>2026-04-27T04:37:54.999Z</time></trkpt><trkpt lat="45.943757687933264" lon="12.093822676891754"><ele>257.42857142857144</ele><time>2026-04-27T04:37:55.999Z</time></trkpt><trkpt lat="45.943753472957425" lon="12.093730866199481"><ele>257.2857142857143</ele><time>2026-04-27T04:37:56.999Z</time></trkpt><trkpt lat="45.9437439851769" lon="12.093641315281953"><ele>257.1428571428571</ele><time>2026-04-27T04:37:57.999Z</time></trkpt><trkpt lat="45.94374724223511" lon="12.093539236519703"><ele>257.0</ele><time>2026-04-27T04:37:59.999Z</time></trkpt><trkpt lat="45.943830215536984" lon="12.093455075614047"><ele>257.0</ele><time>2026-04-27T04:38:02.999Z</time></trkpt><trkpt lat="45.943915495206504" lon="12.093403626926301"><ele>257.0</ele><time>2026-04-27T04:38:39Z</time></trkpt><trkpt lat="45.943964602728535" lon="12.093346935483593"><ele>257.0</ele><time>2026-04-27T04:38:41Z</time></trkpt><trkpt lat="45.94407388225856" lon="12.093402873398553"><ele>257.0</ele><time>2026-04-27T04:38:45.999Z</time></trkpt><trkpt lat="45.94415065596274" lon="12.093502238692794"><ele>257.0</ele><time>2026-04-27T04:38:47.999Z</time></trkpt><trkpt lat="45.9442360936215" lon="12.093578413936632"><ele>258.0</ele><time>2026-04-27T04:38:49.999Z</time></trkpt><trkpt lat="45.94429902778112" lon="12.09368262589518"><ele>259.0</ele><time>2026-04-27T04:38:51.999Z</time></trkpt><trkpt lat="45.94432557008237" lon="12.093771147335648"><ele>260.0</ele><time>2026-04-27T04:38:53.999Z</time></trkpt><trkpt lat="45.94434825482211" lon="12.093873497323461"><ele>261.0</ele><time>2026-04-27T04:39:10.999Z</time></trkpt><trkpt lat="45.94438950953795" lon="12.093968408883972"><ele>262.0</ele><time>2026-04-27T04:42:23Z</time></trkpt><trkpt lat="45.94435803213284" lon="12.094102292642038"><ele>263.0</ele><time>2026-04-27T04:42:25Z</time></trkpt><trkpt lat="45.9443537612286" lon="12.09427607620438"><ele>263.0</ele><time>2026-04-27T04:42:27Z</time></trkpt><trkpt lat="45.9443593023889" lon="12.094391874139308"><ele>263.0</ele><time>2026-04-27T04:43:20.999Z</time></trkpt><trkpt lat="45.9443539415425" lon="12.094552687499712"><ele>263.0</ele><time>2026-04-27T04:43:22.999Z</time></trkpt><trkpt lat="45.944357759883786" lon="12.094653040504738"><ele>263.0</ele><time>2026-04-27T04:43:23.999Z</time></trkpt><trkpt lat="45.94433792781252" lon="12.094790816771743"><ele>263.0</ele><time>2026-04-27T04:44:22Z</time></trkpt><trkpt lat="45.944351333560626" lon="12.094899267772558"><ele>263.0</ele><time>2026-04-27T04:44:24Z</time></trkpt><trkpt lat="45.94436222002567" lon="12.094989136470131"><ele>263.0</ele><time>2026-04-27T04:44:26Z</time></trkpt><trkpt lat="45.944389488312574" lon="12.09511390346647"><ele>263.0</ele><time>2026-04-27T04:44:29Z</time></trkpt><trkpt lat="45.94441363799688" lon="12.095234044715756"><ele>263.0</ele><time>2026-04-27T04:44:32Z</time></trkpt><trkpt lat="45.94443853614914" lon="12.095329038939235"><ele>263.0</ele><time>2026-04-27T04:44:35Z</time></trkpt><trkpt lat="45.944476068782755" lon="12.095417266950442"><ele>263.0</ele><time>2026-04-27T04:44:36.999Z</time></trkpt><trkpt lat="45.94451581689629" lon="12.095530452767758"><ele>263.0</ele><time>2026-04-27T04:44:38.999Z</time></trkpt><trkpt lat="45.94454421410263" lon="12.095628373229284"><ele>263.0</ele><time>2026-04-27T04:44:40.999Z</time></trkpt><trkpt lat="45.94460271642833" lon="12.095690758382583"><ele>263.0</ele><time>2026-04-27T04:44:42.999Z</time></trkpt><trkpt lat="45.944659054133695" lon="12.095625472958261"><ele>263.0</ele><time>2026-04-27T04:44:45.999Z</time></trkpt><trkpt lat="45.94473267294516" lon="12.095542227476296"><ele>263.0</ele><time>2026-04-27T04:44:48.999Z</time></trkpt><trkpt lat="45.944805503298916" lon="12.095471103152446"><ele>263.0</ele><time>2026-04-27T04:44:50.999Z</time></trkpt><trkpt lat="45.94486607415214" lon="12.095406157652597"><ele>263.0</ele><time>2026-04-27T04:44:52.999Z</time></trkpt><trkpt lat="45.94494329898454" lon="12.09532935412395"><ele>263.0</ele><time>2026-04-27T04:45:23.999Z</time></trkpt><trkpt lat="45.94497480582153" lon="12.095234326879249"><ele>263.0</ele><time>2026-04-27T04:45:25.999Z</time></trkpt><trkpt lat="45.94499506261538" lon="12.095133094186584"><ele>263.0</ele><time>2026-04-27T04:45:27.999Z</time></trkpt><trkpt lat="45.94499564427585" lon="12.095023659800297"><ele>263.0</ele><time>2026-04-27T04:45:32.999Z</time></trkpt><trkpt lat="45.94500680661844" lon="12.094912803428132"><ele>263.0</ele><time>2026-04-27T04:45:35.999Z</time></trkpt><trkpt lat="45.94501393094233" lon="12.094810472204072"><ele>263.0</ele><time>2026-04-27T04:45:41.999Z</time></trkpt><trkpt lat="45.94502755055338" lon="12.094720216589467"><ele>263.0</ele><time>2026-04-27T04:45:43.999Z</time></trkpt><trkpt lat="45.945048150890734" lon="12.094600699340612"><ele>264.8</ele><time>2026-04-27T04:45:46.999Z</time></trkpt><trkpt lat="45.94509408918446" lon="12.094495165952054"><ele>266.6</ele><time>2026-04-27T04:45:48.999Z</time></trkpt><trkpt lat="45.94515665730987" lon="12.094367162413661"><ele>268.4</ele><time>2026-04-27T04:45:50.999Z</time></trkpt><trkpt lat="45.94521282920837" lon="12.094267387371284"><ele>270.2</ele><time>2026-04-27T04:45:52.999Z</time></trkpt><trkpt lat="45.945272637430584" lon="12.094384145554438"><ele>272.0</ele><time>2026-04-27T04:45:56.999Z</time></trkpt><trkpt lat="45.94530712497525" lon="12.09449445284963"><ele>272.0</ele><time>2026-04-27T04:45:59.999Z</time></trkpt><trkpt lat="45.94534091261137" lon="12.09460710408891"><ele>272.0</ele><time>2026-04-27T04:46:01.999Z</time></trkpt><trkpt lat="45.94537842918577" lon="12.094732188109742"><ele>272.0</ele><time>2026-04-27T04:46:03.999Z</time></trkpt><trkpt lat="45.945427791913744" lon="12.094829467562546"><ele>272.0</ele><time>2026-04-27T04:46:05.999Z</time></trkpt><trkpt lat="45.94547091033204" lon="12.094936767952218"><ele>272.0</ele><time>2026-04-27T04:46:37Z</time></trkpt><trkpt lat="45.94549970431937" lon="12.095034193256591"><ele>272.0</ele><time>2026-04-27T04:46:42Z</time></trkpt><trkpt lat="45.945525698091465" lon="12.095138106914105"><ele>271.57142857142856</ele><time>2026-04-27T04:47:00.999Z</time></trkpt><trkpt lat="45.94554108475261" lon="12.095234277300811"><ele>271.1428571428571</ele><time>2026-04-27T04:47:03.999Z</time></trkpt><trkpt lat="45.9455615631908" lon="12.09532175508434"><ele>270.7142857142857</ele><time>2026-04-27T04:47:05.999Z</time></trkpt><trkpt lat="45.94564218031908" lon="12.09538120686475"><ele>270.2857142857143</ele><time>2026-04-27T04:47:07.999Z</time></trkpt><trkpt lat="45.94569986474511" lon="12.095447580397659"><ele>269.8571428571429</ele><time>2026-04-27T04:47:10.999Z</time></trkpt><trkpt lat="45.945761764528456" lon="12.095490574640596"><ele>269.42857142857144</ele><time>2026-04-27T04:47:13.999Z</time></trkpt><trkpt lat="45.9457044909637" lon="12.095450793605224"><ele>269.0</ele><time>2026-04-27T04:49:02.999Z</time></trkpt><trkpt lat="45.94564948210133" lon="12.095391685799473"><ele>269.0</ele><time>2026-04-27T04:49:24.999Z</time></trkpt><trkpt lat="45.94571604544293" lon="12.095438295436772"><ele>269.0</ele><time>2026-04-27T04:49:36Z</time></trkpt><trkpt lat="45.94577874496524" lon="12.095485188978092"><ele>269.0</ele><time>2026-04-27T04:49:38Z</time></trkpt><trkpt lat="45.94583808580762" lon="12.095523727935255"><ele>269.0</ele><time>2026-04-27T04:49:40Z</time></trkpt><trkpt lat="45.945895534984714" lon="12.095569744730753"><ele>269.0</ele><time>2026-04-27T04:49:46Z</time></trkpt><trkpt lat="45.94582530435653" lon="12.095538467635365"><ele>269.0</ele><time>2026-04-27T04:50:16Z</time></trkpt><trkpt lat="45.945757878572145" lon="12.09548787558586"><ele>269.0</ele><time>2026-04-27T04:50:18Z</time></trkpt><trkpt lat="45.945673617902465" lon="12.095429349960666"><ele>269.0</ele><time>2026-04-27T04:50:35.999Z</time></trkpt><trkpt lat="45.94560739935669" lon="12.095383355528366"><ele>269.0</ele><time>2026-04-27T04:50:38Z</time></trkpt><trkpt lat="45.945546651060496" lon="12.09530058965561"><ele>269.0</ele><time>2026-04-27T04:50:41Z</time></trkpt><trkpt lat="45.9455178933059" lon="12.095158340933875"><ele>269.0</ele><time>2026-04-27T04:50:44Z</time></trkpt><trkpt lat="45.94550348863914" lon="12.09502920651181"><ele>269.0</ele><time>2026-04-27T04:50:46Z</time></trkpt><trkpt lat="45.94547358738019" lon="12.094946069938661"><ele>269.0</ele><time>2026-04-27T04:50:48Z</time></trkpt><trkpt lat="45.94541901195881" lon="12.094814055488504"><ele>269.5</ele><time>2026-04-27T04:51:10Z</time></trkpt><trkpt lat="45.94536203976192" lon="12.094714046701641"><ele>270.0</ele><time>2026-04-27T04:51:13Z</time></trkpt><trkpt lat="45.94532809042702" lon="12.094564350847945"><ele>270.5</ele><time>2026-04-27T04:51:15Z</time></trkpt><trkpt lat="45.94529777915735" lon="12.094463291190861"><ele>271.0</ele><time>2026-04-27T04:51:17Z</time></trkpt><trkpt lat="45.94526596706468" lon="12.094366104496908"><ele>271.5</ele><time>2026-04-27T04:51:20Z</time></trkpt><trkpt lat="45.94521768336611" lon="12.0942762248784"><ele>272.0</ele><time>2026-04-27T04:51:23Z</time></trkpt><trkpt lat="45.94515774805079" lon="12.094331034866842"><ele>269.75</ele><time>2026-04-27T04:52:02Z</time></trkpt><trkpt lat="45.94494100236988" lon="12.094599133847353"><ele>267.5</ele><time>2026-04-27T04:52:25.999Z</time></trkpt><trkpt lat="45.944900722168896" lon="12.094503547652257"><ele>265.25</ele><time>2026-04-27T04:52:30.999Z</time></trkpt><trkpt lat="45.94486221916132" lon="12.094421576989742"><ele>263.0</ele><time>2026-04-27T04:52:32.999Z</time></trkpt><trkpt lat="45.94481576225098" lon="12.094326949809012"><ele>263.0</ele><time>2026-04-27T04:52:34.999Z</time></trkpt><trkpt lat="45.94477727051043" lon="12.094253134659496"><ele>263.0</ele><time>2026-04-27T04:52:36.999Z</time></trkpt><trkpt lat="45.94472495216066" lon="12.094179173136123"><ele>263.0</ele><time>2026-04-27T04:52:38.999Z</time></trkpt><trkpt lat="45.94463214389861" lon="12.09412964436956"><ele>263.0</ele><time>2026-04-27T04:52:40.999Z</time></trkpt><trkpt lat="45.94453318634778" lon="12.094098969860568"><ele>263.0</ele><time>2026-04-27T04:52:42.999Z</time></trkpt><trkpt lat="45.94444838224552" lon="12.094074329846318"><ele>263.0</ele><time>2026-04-27T04:52:45Z</time></trkpt><trkpt lat="45.94439522731587" lon="12.09402111110201"><ele>263.2</ele><time>2026-04-27T04:52:48Z</time></trkpt><trkpt lat="45.94438484539116" lon="12.093883659351087"><ele>263.4</ele><time>2026-04-27T04:52:50Z</time></trkpt><trkpt lat="45.94437173617311" lon="12.093722269440761"><ele>263.59999999999997</ele><time>2026-04-27T04:52:52Z</time></trkpt><trkpt lat="45.944390779918514" lon="12.093600630570787"><ele>263.8</ele><time>2026-04-27T04:52:54Z</time></trkpt><trkpt lat="45.94445223757018" lon="12.093549462114751"><ele>264.0</ele><time>2026-04-27T04:52:56Z</time></trkpt><trkpt lat="45.9445482807252" lon="12.093585919053252"><ele>264.0</ele><time>2026-04-27T04:52:59Z</time></trkpt><trkpt lat="45.94460902611823" lon="12.09361011352485"><ele>264.0</ele><time>2026-04-27T04:53:01Z</time></trkpt><trkpt lat="45.94468620363158" lon="12.093632978662766"><ele>264.0</ele><time>2026-04-27T04:53:04Z</time></trkpt><trkpt lat="45.94474870440558" lon="12.093666911885046"><ele>264.0</ele><time>2026-04-27T04:53:10Z</time></trkpt><trkpt lat="45.94483777409392" lon="12.093672829758608"><ele>264.0</ele><time>2026-04-27T04:53:35Z</time></trkpt><trkpt lat="45.944912491414165" lon="12.093675624182016"><ele>264.0</ele><time>2026-04-27T04:54:04Z</time></trkpt><trkpt lat="45.94499614800285" lon="12.093676999769627"><ele>266.2</ele><time>2026-04-27T04:54:06Z</time></trkpt><trkpt lat="45.945111701343244" lon="12.093693055012293"><ele>268.4</ele><time>2026-04-27T04:54:08Z</time></trkpt><trkpt lat="45.94521813465962" lon="12.093708397386305"><ele>270.6</ele><time>2026-04-27T04:54:10Z</time></trkpt><trkpt lat="45.94530064358621" lon="12.093724702470913"><ele>272.8</ele><time>2026-04-27T04:54:37.999Z</time></trkpt><trkpt lat="45.945375767866736" lon="12.093786163731435"><ele>275.0</ele><time>2026-04-27T04:54:39.999Z</time></trkpt><trkpt lat="45.945430893849405" lon="12.09384737433631"><ele>275.0</ele><time>2026-04-27T04:54:41.999Z</time></trkpt><trkpt lat="45.94558504623809" lon="12.093676499045822"><ele>275.0</ele><time>2026-04-27T04:54:54Z</time></trkpt><trkpt lat="45.94561663152104" lon="12.093573179129603"><ele>275.0</ele><time>2026-04-27T04:54:56Z</time></trkpt><trkpt lat="45.945587291208206" lon="12.093659234717963"><ele>275.0</ele><time>2026-04-27T04:55:17Z</time></trkpt><trkpt lat="45.94555098157688" lon="12.09374660577169"><ele>275.0</ele><time>2026-04-27T04:55:21Z</time></trkpt><trkpt lat="45.94550254154496" lon="12.09380497882498"><ele>275.0</ele><time>2026-04-27T04:55:27Z</time></trkpt><trkpt lat="45.94555478891144" lon="12.094033363903923"><ele>275.0</ele><time>2026-04-27T04:55:36Z</time></trkpt><trkpt lat="45.94563992478921" lon="12.094043586893843"><ele>275.0</ele><time>2026-04-27T04:55:37Z</time></trkpt><trkpt lat="45.9457561358818" lon="12.094120025903898"><ele>275.0</ele><time>2026-04-27T04:55:39Z</time></trkpt><trkpt lat="45.94581834842076" lon="12.094159306966255"><ele>275.0</ele><time>2026-04-27T04:55:40Z</time></trkpt><trkpt lat="45.94587931080129" lon="12.094204373436403"><ele>275.0</ele><time>2026-04-27T04:55:41Z</time></trkpt><trkpt lat="45.94593844253302" lon="12.094247413966707"><ele>275.0</ele><time>2026-04-27T04:55:42Z</time></trkpt><trkpt lat="45.945996001730734" lon="12.094298948514359"><ele>275.0</ele><time>2026-04-27T04:55:44Z</time></trkpt><trkpt lat="45.946057398495974" lon="12.094353440086442"><ele>275.0</ele><time>2026-04-27T04:55:54Z</time></trkpt><trkpt lat="45.946130012452485" lon="12.094405112243079"><ele>275.0</ele><time>2026-04-27T04:56:12Z</time></trkpt><trkpt lat="45.94620142558548" lon="12.094437519108572"><ele>275.0</ele><time>2026-04-27T04:56:41.999Z</time></trkpt><trkpt lat="45.9463069708606" lon="12.094493880821789"><ele>275.0</ele><time>2026-04-27T04:56:43.999Z</time></trkpt><trkpt lat="45.94637262333338" lon="12.094506988289169"><ele>275.0</ele><time>2026-04-27T04:56:44.999Z</time></trkpt><trkpt lat="45.94644601407135" lon="12.094514913025678"><ele>275.0</ele><time>2026-04-27T04:56:45.999Z</time></trkpt><trkpt lat="45.946511771611355" lon="12.094516778073496"><ele>275.0</ele><time>2026-04-27T04:56:46.999Z</time></trkpt><trkpt lat="45.94658253873155" lon="12.094517112399064"><ele>275.0</ele><time>2026-04-27T04:56:47.999Z</time></trkpt><trkpt lat="45.94665569389985" lon="12.094516380912582"><ele>275.0</ele><time>2026-04-27T04:56:48.999Z</time></trkpt><trkpt lat="45.94673725570305" lon="12.09450986998524"><ele>275.0</ele><time>2026-04-27T04:56:49.999Z</time></trkpt><trkpt lat="45.94682349542343" lon="12.094484136908516"><ele>275.8</ele><time>2026-04-27T04:56:50.999Z</time></trkpt><trkpt lat="45.94691054670683" lon="12.094437584299799"><ele>276.6</ele><time>2026-04-27T04:56:51.999Z</time></trkpt><trkpt lat="45.94698753404155" lon="12.09439462888063"><ele>277.4</ele><time>2026-04-27T04:56:52.999Z</time></trkpt><trkpt lat="45.94706169719875" lon="12.094344673140192"><ele>278.2</ele><time>2026-04-27T04:56:55Z</time></trkpt><trkpt lat="45.94714797798677" lon="12.094317082264359"><ele>279.0</ele><time>2026-04-27T04:57:22Z</time></trkpt><trkpt lat="45.94725578142926" lon="12.094273812486117"><ele>279.0</ele><time>2026-04-27T04:57:24Z</time></trkpt><trkpt lat="45.9473637189423" lon="12.09423037981518"><ele>279.0</ele><time>2026-04-27T04:57:26Z</time></trkpt><trkpt lat="45.94748187898591" lon="12.094185805158267"><ele>279.0</ele><time>2026-04-27T04:57:28Z</time></trkpt><trkpt lat="45.947575321892494" lon="12.094143758857523"><ele>279.0</ele><time>2026-04-27T04:57:30Z</time></trkpt><trkpt lat="45.947518794827715" lon="12.093994262321852"><ele>280.59999999999997</ele><time>2026-04-27T04:57:32Z</time></trkpt><trkpt lat="45.94760206620283" lon="12.094054045778018"><ele>282.2</ele><time>2026-04-27T04:57:40Z</time></trkpt><trkpt lat="45.9474801680742" lon="12.0939794690012"><ele>283.79999999999995</ele><time>2026-04-27T04:57:58Z</time></trkpt><trkpt lat="45.94740360989494" lon="12.093941897468142"><ele>285.4</ele><time>2026-04-27T04:57:59Z</time></trkpt><trkpt lat="45.94731887324087" lon="12.09390634553171"><ele>287.0</ele><time>2026-04-27T04:58:00Z</time></trkpt><trkpt lat="45.947239895285335" lon="12.09387558821882"><ele>287.0</ele><time>2026-04-27T04:58:01Z</time></trkpt><trkpt lat="45.947164825030086" lon="12.093844614170393"><ele>287.0</ele><time>2026-04-27T04:58:02Z</time></trkpt><trkpt lat="45.947097105527085" lon="12.093821879309555"><ele>287.0</ele><time>2026-04-27T04:58:03Z</time></trkpt><trkpt lat="45.946982021347026" lon="12.093793566824873"><ele>287.0</ele><time>2026-04-27T04:58:05Z</time></trkpt><trkpt lat="45.94690337236401" lon="12.093781418335828"><ele>287.0</ele><time>2026-04-27T04:58:07Z</time></trkpt><trkpt lat="45.94683674466649" lon="12.0937144543678"><ele>287.0</ele><time>2026-04-27T04:58:10Z</time></trkpt><trkpt lat="45.946782496918125" lon="12.093598314841216"><ele>287.0</ele><time>2026-04-27T04:58:12Z</time></trkpt><trkpt lat="45.946724343838525" lon="12.093491616895989"><ele>287.0</ele><time>2026-04-27T04:58:14Z</time></trkpt><trkpt lat="45.94666022974104" lon="12.093451559499343"><ele>287.0</ele><time>2026-04-27T04:58:28.999Z</time></trkpt><trkpt lat="45.94659374174609" lon="12.093395171278393"><ele>287.0</ele><time>2026-04-27T04:58:31.999Z</time></trkpt><trkpt lat="45.94655380935459" lon="12.093299861110596"><ele>287.0</ele><time>2026-04-27T04:58:52.999Z</time></trkpt><trkpt lat="45.94652181381561" lon="12.093217038346108"><ele>287.0</ele><time>2026-04-27T04:58:55.999Z</time></trkpt><trkpt lat="45.94648222818251" lon="12.093142979795044"><ele>286.0</ele><time>2026-04-27T04:58:58.999Z</time></trkpt><trkpt lat="45.94637879434938" lon="12.093158658479295"><ele>285.0</ele><time>2026-04-27T04:59:06Z</time></trkpt><trkpt lat="45.94629748231312" lon="12.093216985075326"><ele>284.0</ele><time>2026-04-27T04:59:09Z</time></trkpt><trkpt lat="45.94622033838799" lon="12.093293762490857"><ele>283.0</ele><time>2026-04-27T04:59:11Z</time></trkpt><trkpt lat="45.94614819119214" lon="12.093388568959808"><ele>282.0</ele><time>2026-04-27T04:59:13Z</time></trkpt><trkpt lat="45.946079210172535" lon="12.093464742720471"><ele>282.0</ele><time>2026-04-27T04:59:15Z</time></trkpt><trkpt lat="45.94600217539657" lon="12.093509913197478"><ele>282.0</ele><time>2026-04-27T04:59:18Z</time></trkpt><trkpt lat="45.945928441202014" lon="12.093280155203411"><ele>282.0</ele><time>2026-04-27T05:00:06Z</time></trkpt><trkpt lat="45.94587111859887" lon="12.093194693937287"><ele>282.0</ele><time>2026-04-27T05:00:09Z</time></trkpt><trkpt lat="45.945799015838844" lon="12.093163838883678"><ele>282.0</ele><time>2026-04-27T05:00:11Z</time></trkpt><trkpt lat="45.94571310089539" lon="12.093136217432749"><ele>282.6</ele><time>2026-04-27T05:00:13Z</time></trkpt><trkpt lat="45.94563315404733" lon="12.09309549156643"><ele>283.2</ele><time>2026-04-27T05:00:15Z</time></trkpt><trkpt lat="45.94556358755703" lon="12.09309573196179"><ele>283.8</ele><time>2026-04-27T05:00:17Z</time></trkpt><trkpt lat="45.94565144214425" lon="12.09309784189746"><ele>284.4</ele><time>2026-04-27T05:00:24Z</time></trkpt><trkpt lat="45.94549428144818" lon="12.093046606388953"><ele>285.0</ele><time>2026-04-27T05:00:45.999Z</time></trkpt><trkpt lat="45.94542799231311" lon="12.093033328588824"><ele>285.0</ele><time>2026-04-27T05:00:58.999Z</time></trkpt><trkpt lat="45.94535207475621" lon="12.093034438906313"><ele>285.0</ele><time>2026-04-27T05:01:03.999Z</time></trkpt><trkpt lat="45.94528747670829" lon="12.093039046269748"><ele>285.0</ele><time>2026-04-27T05:01:08Z</time></trkpt><trkpt lat="45.945222231033235" lon="12.09299001026242"><ele>285.0</ele><time>2026-04-27T05:01:41Z</time></trkpt><trkpt lat="45.94515962280622" lon="12.092900327986502"><ele>285.0</ele><time>2026-04-27T05:01:44Z</time></trkpt><trkpt lat="45.9450991165764" lon="12.09283191086359"><ele>285.0</ele><time>2026-04-27T05:01:46Z</time></trkpt><trkpt lat="45.94503513032253" lon="12.092759558697221"><ele>283.6666666666667</ele><time>2026-04-27T05:01:48Z</time></trkpt><trkpt lat="45.94496630191796" lon="12.092695323944282"><ele>282.3333333333333</ele><time>2026-04-27T05:01:50Z</time></trkpt><trkpt lat="45.94490265925935" lon="12.092649254608924"><ele>281.0</ele><time>2026-04-27T05:02:13Z</time></trkpt><trkpt lat="45.94487134111373" lon="12.092529835539619"><ele>279.66666666666663</ele><time>2026-04-27T05:02:15Z</time></trkpt><trkpt lat="45.94482668057037" lon="12.092442711160952"><ele>278.3333333333333</ele><time>2026-04-27T05:02:20Z</time></trkpt><trkpt lat="45.9447998251672" lon="12.092341576712627"><ele>277.0</ele><time>2026-04-27T05:02:23Z</time></trkpt><trkpt lat="45.944750720232825" lon="12.092280017926658"><ele>277.0</ele><time>2026-04-27T05:02:25Z</time></trkpt><trkpt lat="45.94472154564755" lon="12.09217813589105"><ele>277.0</ele><time>2026-04-27T05:02:29Z</time></trkpt><trkpt lat="45.944681443915925" lon="12.092102649517773"><ele>277.0</ele><time>2026-04-27T05:03:08.999Z</time></trkpt><trkpt lat="45.944634944667165" lon="12.092023824319986"><ele>277.0</ele><time>2026-04-27T05:03:17Z</time></trkpt><trkpt lat="45.944592318946235" lon="12.091949488262669"><ele>277.0</ele><time>2026-04-27T05:03:21Z</time></trkpt><trkpt lat="45.94454764025122" lon="12.091877539528902"><ele>277.0</ele><time>2026-04-27T05:03:29Z</time></trkpt><trkpt lat="45.94450445679424" lon="12.091792928325004"><ele>277.0</ele><time>2026-04-27T05:03:36Z</time></trkpt><trkpt lat="45.94445373943399" lon="12.09173444820039"><ele>277.0</ele><time>2026-04-27T05:03:40Z</time></trkpt><trkpt lat="45.94441408388467" lon="12.091656666146235"><ele>277.0</ele><time>2026-04-27T05:03:44Z</time></trkpt><trkpt lat="45.94433275534296" lon="12.09161719134614"><ele>277.0</ele><time>2026-04-27T05:04:38.999Z</time></trkpt><trkpt lat="45.944284003796966" lon="12.09150265348806"><ele>277.0</ele><time>2026-04-27T05:04:47.999Z</time></trkpt><trkpt lat="45.944234673814" lon="12.091401988882954"><ele>277.0</ele><time>2026-04-27T05:04:49.999Z</time></trkpt><trkpt lat="45.94416761345416" lon="12.091275198107638"><ele>277.0</ele><time>2026-04-27T05:04:51.999Z</time></trkpt><trkpt lat="45.944096986192825" lon="12.091144627800004"><ele>275.5</ele><time>2026-04-27T05:04:53.999Z</time></trkpt><trkpt lat="45.944072005405005" lon="12.091027016519742"><ele>274.0</ele><time>2026-04-27T05:04:55.999Z</time></trkpt><trkpt lat="45.944061444007296" lon="12.090933463303964"><ele>272.5</ele><time>2026-04-27T05:04:57.999Z</time></trkpt><trkpt lat="45.94406890072905" lon="12.091037252357777"><ele>271.0</ele><time>2026-04-27T05:05:12.999Z</time></trkpt><trkpt lat="45.94408067516205" lon="12.091168680599559"><ele>269.5</ele><time>2026-04-27T05:05:29Z</time></trkpt><trkpt lat="45.944148241242075" lon="12.091249668540714"><ele>268.0</ele><time>2026-04-27T05:05:46Z</time></trkpt><trkpt lat="45.94406860348512" lon="12.091337139210518"><ele>268.0</ele><time>2026-04-27T05:05:47Z</time></trkpt><trkpt lat="45.944189119278924" lon="12.0914134394659"><ele>268.0</ele><time>2026-04-27T05:05:48Z</time></trkpt><trkpt lat="45.944252406769316" lon="12.091533666586585"><ele>268.0</ele><time>2026-04-27T05:05:50Z</time></trkpt><trkpt lat="45.944291071844376" lon="12.091624586122983"><ele>268.0</ele><time>2026-04-27T05:05:53Z</time></trkpt><trkpt lat="45.94434585572382" lon="12.091675615444798"><ele>268.0</ele><time>2026-04-27T05:05:58Z</time></trkpt><trkpt lat="45.94427264778965" lon="12.091716286089552"><ele>267.0</ele><time>2026-04-27T05:06:07Z</time></trkpt><trkpt lat="45.94421757398317" lon="12.091762334984658"><ele>266.0</ele><time>2026-04-27T05:06:09Z</time></trkpt><trkpt lat="45.94415115565406" lon="12.09181523849435"><ele>265.0</ele><time>2026-04-27T05:06:12Z</time></trkpt><trkpt lat="45.944089733048685" lon="12.091864335678052"><ele>264.0</ele><time>2026-04-27T05:06:17Z</time></trkpt><trkpt lat="45.94403649584034" lon="12.091921591306487"><ele>263.0</ele><time>2026-04-27T05:06:21Z</time></trkpt><trkpt lat="45.944275335972556" lon="12.091670097621849"><ele>263.0</ele><time>2026-04-27T05:06:24Z</time></trkpt><trkpt lat="45.944160068421205" lon="12.091766255812383"><ele>263.0</ele><time>2026-04-27T05:06:28Z</time></trkpt><trkpt lat="45.94425155999944" lon="12.091716080577699"><ele>263.0</ele><time>2026-04-27T05:06:32Z</time></trkpt><trkpt lat="45.944333625902715" lon="12.091675392237638"><ele>263.0</ele><time>2026-04-27T05:06:48.999Z</time></trkpt><trkpt lat="45.944382456844345" lon="12.091615638115321"><ele>263.0</ele><time>2026-04-27T05:06:50.999Z</time></trkpt><trkpt lat="45.944469612510616" lon="12.091779683552868"><ele>265.0</ele><time>2026-04-27T05:06:57.999Z</time></trkpt><trkpt lat="45.94450669521005" lon="12.091854743879285"><ele>267.0</ele><time>2026-04-27T05:07:00.999Z</time></trkpt><trkpt lat="45.9445519790035" lon="12.091943783309654"><ele>269.0</ele><time>2026-04-27T05:07:07.999Z</time></trkpt><trkpt lat="45.944589983433566" lon="12.09202295375717"><ele>271.0</ele><time>2026-04-27T05:07:15.999Z</time></trkpt><trkpt lat="45.94464514115821" lon="12.092112074639909"><ele>273.0</ele><time>2026-04-27T05:07:18.999Z</time></trkpt><trkpt lat="45.94470460076106" lon="12.09220483527929"><ele>275.0</ele><time>2026-04-27T05:07:20.999Z</time></trkpt><trkpt lat="45.94473984497521" lon="12.092280556795851"><ele>277.0</ele><time>2026-04-27T05:07:26Z</time></trkpt><trkpt lat="45.944790248220606" lon="12.092396853643477"><ele>275.5</ele><time>2026-04-27T05:07:29Z</time></trkpt><trkpt lat="45.94483190419189" lon="12.092493558700902"><ele>274.0</ele><time>2026-04-27T05:07:31Z</time></trkpt><trkpt lat="45.94487835678303" lon="12.092591880596899"><ele>272.5</ele><time>2026-04-27T05:07:34Z</time></trkpt><trkpt lat="45.944895197517944" lon="12.092691531183632"><ele>271.0</ele><time>2026-04-27T05:07:37Z</time></trkpt><trkpt lat="45.94479592278182" lon="12.092683283636333"><ele>269.5</ele><time>2026-04-27T05:07:40Z</time></trkpt><trkpt lat="45.944695543899364" lon="12.092728218787107"><ele>268.0</ele><time>2026-04-27T05:07:42Z</time></trkpt><trkpt lat="45.944605663733775" lon="12.092788650981483"><ele>268.0</ele><time>2026-04-27T05:07:44Z</time></trkpt><trkpt lat="45.94453008644417" lon="12.092869766331678"><ele>268.0</ele><time>2026-04-27T05:08:15Z</time></trkpt><trkpt lat="45.9444576093125" lon="12.092950660617928"><ele>268.0</ele><time>2026-04-27T05:08:30Z</time></trkpt><trkpt lat="45.94440455498742" lon="12.09300987661121"><ele>268.0</ele><time>2026-04-27T05:08:34Z</time></trkpt><trkpt lat="45.94434297139498" lon="12.093092741802153"><ele>268.0</ele><time>2026-04-27T05:08:55.999Z</time></trkpt><trkpt lat="45.94427506887396" lon="12.093144376109835"><ele>268.0</ele><time>2026-04-27T05:08:58.999Z</time></trkpt><trkpt lat="45.94432058961472" lon="12.093449628519377"><ele>267.2</ele><time>2026-04-27T05:10:18Z</time></trkpt><trkpt lat="45.94427856950902" lon="12.093546971811495"><ele>266.4</ele><time>2026-04-27T05:10:20Z</time></trkpt><trkpt lat="45.94420400261312" lon="12.093534713853742"><ele>265.59999999999997</ele><time>2026-04-27T05:10:22Z</time></trkpt><trkpt lat="45.9441190614359" lon="12.093437129266515"><ele>264.8</ele><time>2026-04-27T05:10:24Z</time></trkpt><trkpt lat="45.94401749574848" lon="12.09332613664877"><ele>264.0</ele><time>2026-04-27T05:10:26Z</time></trkpt><trkpt lat="45.94396187837014" lon="12.093260975827146"><ele>263.1666666666667</ele><time>2026-04-27T05:10:27Z</time></trkpt><trkpt lat="45.94390531819692" lon="12.09319218384369"><ele>262.3333333333333</ele><time>2026-04-27T05:10:28Z</time></trkpt><trkpt lat="45.94385459352011" lon="12.093116724556403"><ele>261.5</ele><time>2026-04-27T05:10:29Z</time></trkpt><trkpt lat="45.94381198334916" lon="12.09303998933637"><ele>260.66666666666663</ele><time>2026-04-27T05:10:30Z</time></trkpt><trkpt lat="45.94375895197412" lon="12.092944062104722"><ele>259.8333333333333</ele><time>2026-04-27T05:10:32Z</time></trkpt><trkpt lat="45.943689028416465" lon="12.092862756521635"><ele>259.0</ele><time>2026-04-27T05:10:50.999Z</time></trkpt><trkpt lat="45.94363287681935" lon="12.092772360270029"><ele>259.0</ele><time>2026-04-27T05:10:52.999Z</time></trkpt><trkpt lat="45.94359561764994" lon="12.09268183742758"><ele>259.0</ele><time>2026-04-27T05:11:36Z</time></trkpt><trkpt lat="45.94356116116642" lon="12.092602993782187"><ele>259.0</ele><time>2026-04-27T05:11:39Z</time></trkpt><trkpt lat="45.943620587589194" lon="12.092549747113937"><ele>259.0</ele><time>2026-04-27T05:11:41Z</time></trkpt><trkpt lat="45.943703076467365" lon="12.092483963704856"><ele>259.0</ele><time>2026-04-27T05:11:43Z</time></trkpt><trkpt lat="45.943790889053176" lon="12.092433095767937"><ele>259.0</ele><time>2026-04-27T05:11:45Z</time></trkpt><trkpt lat="45.94384269996026" lon="12.092371726574056"><ele>259.0</ele><time>2026-04-27T05:11:47Z</time></trkpt><trkpt lat="45.94399081516763" lon="12.092431856909332"><ele>259.0</ele><time>2026-04-27T05:12:50.999Z</time></trkpt><trkpt lat="45.944045026941446" lon="12.092492509584448"><ele>259.0</ele><time>2026-04-27T05:13:17.999Z</time></trkpt><trkpt lat="45.94410105787708" lon="12.092563916439543"><ele>259.0</ele><time>2026-04-27T05:13:19.999Z</time></trkpt><trkpt lat="45.944151610443114" lon="12.092631685971785"><ele>259.0</ele><time>2026-04-27T05:13:46Z</time></trkpt><trkpt lat="45.94417011800624" lon="12.09272522859476"><ele>259.0</ele><time>2026-04-27T05:13:48Z</time></trkpt><trkpt lat="45.94418236929674" lon="12.092821703393717"><ele>259.0</ele><time>2026-04-27T05:14:04Z</time></trkpt><trkpt lat="45.944203363119385" lon="12.092940089633935"><ele>259.0</ele><time>2026-04-27T05:14:06Z</time></trkpt><trkpt lat="45.944226691929124" lon="12.09304787241384"><ele>259.0</ele><time>2026-04-27T05:14:08Z</time></trkpt><trkpt lat="45.94424922250623" lon="12.093143487729876"><ele>259.0</ele><time>2026-04-27T05:14:23Z</time></trkpt><trkpt lat="45.944294468248906" lon="12.09325810357636"><ele>259.0</ele><time>2026-04-27T05:14:26Z</time></trkpt><trkpt lat="45.944327724251764" lon="12.09334786368864"><ele>259.0</ele><time>2026-04-27T05:14:28Z</time></trkpt><trkpt lat="45.9443096872405" lon="12.093464114818145"><ele>258.59999999999997</ele><time>2026-04-27T05:14:31Z</time></trkpt><trkpt lat="45.944283378840424" lon="12.093558616202913"><ele>258.2</ele><time>2026-04-27T05:15:38.999Z</time></trkpt><trkpt lat="45.944136371131506" lon="12.093476065570888"><ele>257.79999999999995</ele><time>2026-04-27T05:15:41.999Z</time></trkpt><trkpt lat="45.94404702507755" lon="12.093378511233253"><ele>257.4</ele><time>2026-04-27T05:15:43.999Z</time></trkpt><trkpt lat="45.943995599879855" lon="12.093319357522688"><ele>257.0</ele><time>2026-04-27T05:15:44.999Z</time></trkpt><trkpt lat="45.94394182020987" lon="12.093256364464203"><ele>257.2857142857143</ele><time>2026-04-27T05:15:45.999Z</time></trkpt><trkpt lat="45.94389036197973" lon="12.093188499468468"><ele>257.57142857142856</ele><time>2026-04-27T05:15:46.999Z</time></trkpt><trkpt lat="45.943843609200435" lon="12.093119393176798"><ele>257.8571428571429</ele><time>2026-04-27T05:15:48Z</time></trkpt><trkpt lat="45.94379884722396" lon="12.093047832514898"><ele>258.1428571428571</ele><time>2026-04-27T05:15:49Z</time></trkpt><trkpt lat="45.94375673240187" lon="12.092977711961767"><ele>258.42857142857144</ele><time>2026-04-27T05:15:50Z</time></trkpt><trkpt lat="45.94371533847721" lon="12.092908214328306"><ele>258.7142857142857</ele><time>2026-04-27T05:15:51Z</time></trkpt><trkpt lat="45.943651322957365" lon="12.092776579054277"><ele>259.0</ele><time>2026-04-27T05:15:53Z</time></trkpt><trkpt lat="45.94360402773996" lon="12.092696141177786"><ele>259.0</ele><time>2026-04-27T05:15:56Z</time></trkpt><trkpt lat="45.94350095410079" lon="12.092796984930972"><ele>259.0</ele><time>2026-04-27T05:15:58Z</time></trkpt><trkpt lat="45.94342109662364" lon="12.092817102299394"><ele>259.0</ele><time>2026-04-27T05:16:00Z</time></trkpt><trkpt lat="45.94335286451307" lon="12.092851158254764"><ele>259.0</ele><time>2026-04-27T05:16:51.999Z</time></trkpt><trkpt lat="45.94327322712374" lon="12.0928915629611"><ele>259.0</ele><time>2026-04-27T05:17:02.999Z</time></trkpt><trkpt lat="45.94318400181268" lon="12.092945974042022"><ele>258.5</ele><time>2026-04-27T05:18:03Z</time></trkpt><trkpt lat="45.94309812765345" lon="12.093000989167454"><ele>258.0</ele><time>2026-04-27T05:18:05Z</time></trkpt><trkpt lat="45.943021263860736" lon="12.093067900687796"><ele>257.5</ele><time>2026-04-27T05:18:07Z</time></trkpt><trkpt lat="45.942964039718646" lon="12.093127716391827"><ele>257.0</ele><time>2026-04-27T05:18:09Z</time></trkpt><trkpt lat="45.94291376842057" lon="12.093185136680214"><ele>256.5</ele><time>2026-04-27T05:18:11Z</time></trkpt><trkpt lat="45.94285434779376" lon="12.09325129762992"><ele>256.0</ele><time>2026-04-27T05:18:13Z</time></trkpt><trkpt lat="45.94278321126071" lon="12.093333928273152"><ele>255.4</ele><time>2026-04-27T05:18:15Z</time></trkpt><trkpt lat="45.94269805696466" lon="12.093433670164876"><ele>254.8</ele><time>2026-04-27T05:18:17Z</time></trkpt><trkpt lat="45.94262249415749" lon="12.093519772440173"><ele>254.20000000000002</ele><time>2026-04-27T05:18:19Z</time></trkpt><trkpt lat="45.942555023594764" lon="12.093605987524585"><ele>253.60000000000002</ele><time>2026-04-27T05:18:44Z</time></trkpt><trkpt lat="45.942457317234684" lon="12.09370902773372"><ele>253.0</ele><time>2026-04-27T05:18:46Z</time></trkpt><trkpt lat="45.94236256186446" lon="12.093818290133516"><ele>252.60000000000002</ele><time>2026-04-27T05:18:48Z</time></trkpt><trkpt lat="45.94227977174156" lon="12.093909195607115"><ele>252.20000000000002</ele><time>2026-04-27T05:18:50Z</time></trkpt><trkpt lat="45.9422126086723" lon="12.09398393327744"><ele>251.8</ele><time>2026-04-27T05:18:52.999Z</time></trkpt><trkpt lat="45.94214849331396" lon="12.094053565498934"><ele>251.4</ele><time>2026-04-27T05:18:54.999Z</time></trkpt><trkpt lat="45.94205263900601" lon="12.094151819934321"><ele>251.0</ele><time>2026-04-27T05:18:56.999Z</time></trkpt><trkpt lat="45.94199753353145" lon="12.094206502574428"><ele>251.0</ele><time>2026-04-27T05:18:57.999Z</time></trkpt><trkpt lat="45.941944287693175" lon="12.094257579141008"><ele>251.00000000000003</ele><time>2026-04-27T05:18:58.999Z</time></trkpt><trkpt lat="45.94187233530597" lon="12.094329075569467"><ele>251.00000000000003</ele><time>2026-04-27T05:19:00.999Z</time></trkpt><trkpt lat="45.94187592310999" lon="12.0944990105861"><ele>251.0</ele><time>2026-04-27T05:19:12.999Z</time></trkpt><trkpt lat="45.94189765026502" lon="12.094656628765385"><ele>251.0</ele><time>2026-04-27T05:19:14.999Z</time></trkpt><trkpt lat="45.94193838299103" lon="12.094800134282096"><ele>251.00000000000003</ele><time>2026-04-27T05:19:16.999Z</time></trkpt><trkpt lat="45.942024541734746" lon="12.094865935533763"><ele>251.0</ele><time>2026-04-27T05:19:18.999Z</time></trkpt><trkpt lat="45.942077191001175" lon="12.094795109444906"><ele>251.0</ele><time>2026-04-27T05:19:20.999Z</time></trkpt><trkpt lat="45.94206495749078" lon="12.094670488724855"><ele>251.0</ele><time>2026-04-27T05:19:23.999Z</time></trkpt><trkpt lat="45.94200921706398" lon="12.0946149907688"><ele>251.00000000000003</ele><time>2026-04-27T05:19:24.999Z</time></trkpt><trkpt lat="45.941968511757565" lon="12.094545595513404"><ele>251.0</ele><time>2026-04-27T05:19:25.999Z</time></trkpt><trkpt lat="45.94190150077025" lon="12.094421371250435"><ele>251.0</ele><time>2026-04-27T05:19:27.999Z</time></trkpt><trkpt lat="45.94198928974895" lon="12.09426328268815"><ele>251.00000000000003</ele><time>2026-04-27T05:19:29.999Z</time></trkpt><trkpt lat="45.94204483353393" lon="12.094184359142778"><ele>251.00000000000003</ele><time>2026-04-27T05:19:30.999Z</time></trkpt><trkpt lat="45.94211639406251" lon="12.094126066411603"><ele>251.0</ele><time>2026-04-27T05:19:31.999Z</time></trkpt><trkpt lat="45.942190402548434" lon="12.094047981493471"><ele>251.0</ele><time>2026-04-27T05:19:32.999Z</time></trkpt><trkpt lat="45.94227156484614" lon="12.093964652592145"><ele>250.8</ele><time>2026-04-27T05:19:33.999Z</time></trkpt><trkpt lat="45.9423552503731" lon="12.093874445881298"><ele>250.60000000000002</ele><time>2026-04-27T05:19:34.999Z</time></trkpt><trkpt lat="45.94244003855278" lon="12.093779133282997"><ele>250.4</ele><time>2026-04-27T05:19:35.999Z</time></trkpt><trkpt lat="45.94252489741837" lon="12.093679695614826"><ele>250.2</ele><time>2026-04-27T05:19:36.999Z</time></trkpt><trkpt lat="45.94261008583584" lon="12.093579964659272"><ele>250.0</ele><time>2026-04-27T05:19:37.999Z</time></trkpt><trkpt lat="45.9426963770716" lon="12.093481562373501"><ele>250.6</ele><time>2026-04-27T05:19:38.999Z</time></trkpt><trkpt lat="45.942782187621596" lon="12.093385824298561"><ele>251.2</ele><time>2026-04-27T05:19:39.999Z</time></trkpt><trkpt lat="45.942861194145586" lon="12.093295314803889"><ele>251.8</ele><time>2026-04-27T05:19:40.999Z</time></trkpt><trkpt lat="45.94293817018974" lon="12.093211339001869"><ele>252.4</ele><time>2026-04-27T05:19:41.999Z</time></trkpt><trkpt lat="45.943011037412994" lon="12.093130422053438"><ele>253.0</ele><time>2026-04-27T05:19:42.999Z</time></trkpt><trkpt lat="45.943080610277924" lon="12.093056311380234"><ele>253.49999999999997</ele><time>2026-04-27T05:19:43.999Z</time></trkpt><trkpt lat="45.94314684544601" lon="12.093001623515208"><ele>254.0</ele><time>2026-04-27T05:19:44.999Z</time></trkpt><trkpt lat="45.94321718025433" lon="12.092961194041143"><ele>254.5</ele><time>2026-04-27T05:19:45.999Z</time></trkpt><trkpt lat="45.94328761528558" lon="12.092924941603735"><ele>255.0</ele><time>2026-04-27T05:19:46.999Z</time></trkpt><trkpt lat="45.94335216054715" lon="12.092886500005354"><ele>255.49999999999997</ele><time>2026-04-27T05:19:47.999Z</time></trkpt><trkpt lat="45.94345678239995" lon="12.092831047916972"><ele>256.0</ele><time>2026-04-27T05:19:49.999Z</time></trkpt><trkpt lat="45.943524674771304" lon="12.09281483244223"><ele>256.5</ele><time>2026-04-27T05:19:51.999Z</time></trkpt><trkpt lat="45.943571788736776" lon="12.092688664024653"><ele>257.0</ele><time>2026-04-27T05:20:03Z</time></trkpt><trkpt lat="45.94360976588786" lon="12.092590269639592"><ele>257.5</ele><time>2026-04-27T05:20:05Z</time></trkpt><trkpt lat="45.943693208330465" lon="12.092519396234847"><ele>258.0</ele><time>2026-04-27T05:20:07Z</time></trkpt><trkpt lat="45.943766686376804" lon="12.092465123649909"><ele>258.5</ele><time>2026-04-27T05:20:09Z</time></trkpt><trkpt lat="45.9438265425337" lon="12.092429707350188"><ele>259.0</ele><time>2026-04-27T05:20:11Z</time></trkpt><trkpt lat="45.94386221000049" lon="12.09233406958714"><ele>263.0</ele><time>2026-04-27T05:20:14Z</time></trkpt></trkseg><trkseg><trkpt lat="45.94347056149424" lon="12.092680435824155"><ele>259.0</ele><time>2026-04-27T06:03:24.994Z</time></trkpt><trkpt lat="45.94355214457551" lon="12.092699065449905"><ele>259.0</ele><time>2026-04-27T06:03:26.994Z</time></trkpt><trkpt lat="45.943608232592915" lon="12.09265568131814"><ele>259.0</ele><time>2026-04-27T06:03:35.003Z</time></trkpt><trkpt lat="45.94366822861838" lon="12.092617173188849"><ele>259.0</ele><time>2026-04-27T06:03:41.002Z</time></trkpt><trkpt lat="45.94371324092327" lon="12.09255364321051"><ele>259.0</ele><time>2026-04-27T06:03:45.001Z</time></trkpt><trkpt lat="45.94376632066872" lon="12.092504186297363"><ele>259.0</ele><time>2026-04-27T06:03:52.001Z</time></trkpt><trkpt lat="45.9438225996929" lon="12.092462566770665"><ele>259.0</ele><time>2026-04-27T06:03:58Z</time></trkpt><trkpt lat="45.94384289461632" lon="12.092249113006632"><ele>259.0</ele><time>2026-04-27T06:05:19.999Z</time></trkpt><trkpt lat="45.943778483125605" lon="12.092437251376891"><ele>259.0</ele><time>2026-04-27T06:05:36Z</time></trkpt><trkpt lat="45.943729169222294" lon="12.092495917239676"><ele>259.0</ele><time>2026-04-27T06:05:38Z</time></trkpt><trkpt lat="45.943676957831094" lon="12.092546880291906"><ele>259.0</ele><time>2026-04-27T06:05:40Z</time></trkpt><trkpt lat="45.94362142645193" lon="12.092595353938968"><ele>259.0</ele><time>2026-04-27T06:05:42Z</time></trkpt><trkpt lat="45.94355977071017" lon="12.092632440942388"><ele>259.0</ele><time>2026-04-27T06:05:47Z</time></trkpt><trkpt lat="45.94347740643825" lon="12.092572843919315"><ele>259.0</ele><time>2026-04-27T06:05:51Z</time></trkpt><trkpt lat="45.9434323987704" lon="12.092459837957115"><ele>259.0</ele><time>2026-04-27T06:05:53Z</time></trkpt><trkpt lat="45.94337862207937" lon="12.09234152087372"><ele>259.0</ele><time>2026-04-27T06:05:55Z</time></trkpt><trkpt lat="45.943307989401745" lon="12.092211732498772"><ele>259.0</ele><time>2026-04-27T06:05:57Z</time></trkpt><trkpt lat="45.943231588659756" lon="12.092084676117084"><ele>259.0</ele><time>2026-04-27T06:05:59Z</time></trkpt><trkpt lat="45.943147266617345" lon="12.091941513195206"><ele>259.16666666666663</ele><time>2026-04-27T06:06:01Z</time></trkpt><trkpt lat="45.943095141089124" lon="12.091865320982228"><ele>259.3333333333333</ele><time>2026-04-27T06:06:02Z</time></trkpt><trkpt lat="45.94304735051446" lon="12.091783309004885"><ele>259.5</ele><time>2026-04-27T06:06:03Z</time></trkpt><trkpt lat="45.94299607440909" lon="12.091697352167854"><ele>259.6666666666667</ele><time>2026-04-27T06:06:04Z</time></trkpt><trkpt lat="45.942941032246985" lon="12.091610936484924"><ele>259.83333333333337</ele><time>2026-04-27T06:06:05Z</time></trkpt><trkpt lat="45.942884446246325" lon="12.09152140177566"><ele>260.0</ele><time>2026-04-27T06:06:06Z</time></trkpt><trkpt lat="45.94282511937044" lon="12.091430729386332"><ele>259.8</ele><time>2026-04-27T06:06:07Z</time></trkpt><trkpt lat="45.942766266934164" lon="12.091334067742322"><ele>259.6</ele><time>2026-04-27T06:06:08Z</time></trkpt><trkpt lat="45.9427029830642" lon="12.0912380065967"><ele>259.4</ele><time>2026-04-27T06:06:09Z</time></trkpt><trkpt lat="45.94263956060531" lon="12.091140486873806"><ele>259.2</ele><time>2026-04-27T06:06:10Z</time></trkpt><trkpt lat="45.94257669235713" lon="12.091046002555707"><ele>259.0</ele><time>2026-04-27T06:06:11Z</time></trkpt><trkpt lat="45.94251352450431" lon="12.090948953316422"><ele>259.0</ele><time>2026-04-27T06:06:12Z</time></trkpt><trkpt lat="45.9424557216255" lon="12.090854242322427"><ele>259.0</ele><time>2026-04-27T06:06:13Z</time></trkpt><trkpt lat="45.94239916720101" lon="12.090763646920701"><ele>259.0</ele><time>2026-04-27T06:06:14Z</time></trkpt><trkpt lat="45.942339184303876" lon="12.090667533124012"><ele>259.0</ele><time>2026-04-27T06:06:15Z</time></trkpt><trkpt lat="45.942277111854544" lon="12.090572267018253"><ele>259.0</ele><time>2026-04-27T06:06:16Z</time></trkpt><trkpt lat="45.94221724098282" lon="12.090474222750649"><ele>259.0</ele><time>2026-04-27T06:06:17Z</time></trkpt><trkpt lat="45.94215736195694" lon="12.090377359497065"><ele>259.3333333333333</ele><time>2026-04-27T06:06:18Z</time></trkpt><trkpt lat="45.94210426343634" lon="12.090290361484218"><ele>259.66666666666663</ele><time>2026-04-27T06:06:19Z</time></trkpt><trkpt lat="45.94205347227317" lon="12.0902076006441"><ele>260.0</ele><time>2026-04-27T06:06:20Z</time></trkpt><trkpt lat="45.94200562160141" lon="12.090139262522356"><ele>260.3333333333333</ele><time>2026-04-27T06:06:21Z</time></trkpt><trkpt lat="45.94196066883043" lon="12.090071212940446"><ele>260.6666666666667</ele><time>2026-04-27T06:06:22Z</time></trkpt><trkpt lat="45.941886759063784" lon="12.089955322226835"><ele>261.0</ele><time>2026-04-27T06:06:24Z</time></trkpt><trkpt lat="45.941836348124724" lon="12.08987292041528"><ele>261.8333333333333</ele><time>2026-04-27T06:06:26Z</time></trkpt><trkpt lat="45.94187089768413" lon="12.089786621242514"><ele>262.6666666666667</ele><time>2026-04-27T06:06:34Z</time></trkpt><trkpt lat="45.94195300629787" lon="12.089667340341235"><ele>263.5</ele><time>2026-04-27T06:06:39.999Z</time></trkpt><trkpt lat="45.94200521573397" lon="12.089562463062363"><ele>264.33333333333337</ele><time>2026-04-27T06:06:42.999Z</time></trkpt><trkpt lat="45.942070277560035" lon="12.08946687486387"><ele>265.1666666666667</ele><time>2026-04-27T06:06:45.999Z</time></trkpt><trkpt lat="45.94212647982232" lon="12.0893940128045"><ele>266.0</ele><time>2026-04-27T06:06:48.999Z</time></trkpt><trkpt lat="45.942172067283906" lon="12.08931463102422"><ele>266.0</ele><time>2026-04-27T06:06:52.999Z</time></trkpt><trkpt lat="45.942176001971546" lon="12.089222796821865"><ele>266.0</ele><time>2026-04-27T06:06:55.999Z</time></trkpt><trkpt lat="45.94218317765983" lon="12.089128410946827"><ele>266.0</ele><time>2026-04-27T06:06:58.999Z</time></trkpt><trkpt lat="45.94220771620084" lon="12.089030992243734"><ele>266.0</ele><time>2026-04-27T06:07:47Z</time></trkpt><trkpt lat="45.94221206611871" lon="12.088937614218331"><ele>266.0</ele><time>2026-04-27T06:07:49Z</time></trkpt><trkpt lat="45.94222127605331" lon="12.088818634490858"><ele>266.0</ele><time>2026-04-27T06:07:52Z</time></trkpt><trkpt lat="45.94222254813952" lon="12.088726429686021"><ele>266.0</ele><time>2026-04-27T06:07:56Z</time></trkpt><trkpt lat="45.94222265800439" lon="12.08862984258751"><ele>266.5</ele><time>2026-04-27T06:08:38Z</time></trkpt><trkpt lat="45.94228293471651" lon="12.088563458814049"><ele>267.0</ele><time>2026-04-27T06:09:00.999Z</time></trkpt><trkpt lat="45.942336225394186" lon="12.08850760058538"><ele>267.5</ele><time>2026-04-27T06:09:02.999Z</time></trkpt><trkpt lat="45.94236734039815" lon="12.088421074391706"><ele>268.0</ele><time>2026-04-27T06:09:06.999Z</time></trkpt><trkpt lat="45.94242663992934" lon="12.088346526737935"><ele>268.5</ele><time>2026-04-27T06:09:09.999Z</time></trkpt><trkpt lat="45.94249870370854" lon="12.08826609442876"><ele>269.0</ele><time>2026-04-27T06:09:25.999Z</time></trkpt><trkpt lat="45.942570485833166" lon="12.088206393362432"><ele>270.1666666666667</ele><time>2026-04-27T06:09:28.999Z</time></trkpt><trkpt lat="45.94262587938689" lon="12.088121994754369"><ele>271.33333333333337</ele><time>2026-04-27T06:10:25Z</time></trkpt><trkpt lat="45.94270077536049" lon="12.088088408116366"><ele>272.5</ele><time>2026-04-27T06:10:27Z</time></trkpt><trkpt lat="45.94277063691836" lon="12.088037377287318"><ele>273.6666666666667</ele><time>2026-04-27T06:10:29Z</time></trkpt><trkpt lat="45.94282185436055" lon="12.087966713240995"><ele>274.8333333333333</ele><time>2026-04-27T06:10:31Z</time></trkpt><trkpt lat="45.942890809943044" lon="12.088051185100364"><ele>276.0</ele><time>2026-04-27T06:10:33Z</time></trkpt><trkpt lat="45.94298205820472" lon="12.088092611160132"><ele>276.0</ele><time>2026-04-27T06:10:35Z</time></trkpt><trkpt lat="45.94308994920313" lon="12.088142670196868"><ele>276.0</ele><time>2026-04-27T06:10:37Z</time></trkpt><trkpt lat="45.94315369571991" lon="12.08814432635923"><ele>276.0</ele><time>2026-04-27T06:10:38Z</time></trkpt><trkpt lat="45.94324162512659" lon="12.088179343206303"><ele>276.0</ele><time>2026-04-27T06:10:40Z</time></trkpt><trkpt lat="45.943311076152554" lon="12.088176246749596"><ele>276.0</ele><time>2026-04-27T06:10:59.999Z</time></trkpt><trkpt lat="45.94339592980313" lon="12.088155622128467"><ele>276.0</ele><time>2026-04-27T06:11:01.999Z</time></trkpt><trkpt lat="45.94349096511689" lon="12.088119249829306"><ele>277.0</ele><time>2026-04-27T06:11:03.999Z</time></trkpt><trkpt lat="45.94360579495706" lon="12.088088832265319"><ele>278.0</ele><time>2026-04-27T06:11:05.999Z</time></trkpt><trkpt lat="45.94371109355162" lon="12.08805855054658"><ele>279.0</ele><time>2026-04-27T06:11:07.999Z</time></trkpt><trkpt lat="45.94379715075805" lon="12.088036912811642"><ele>280.0</ele><time>2026-04-27T06:11:09.999Z</time></trkpt><trkpt lat="45.9438944134057" lon="12.088004014497628"><ele>281.0</ele><time>2026-04-27T06:11:11.999Z</time></trkpt><trkpt lat="45.944012117637726" lon="12.087966690773218"><ele>281.0</ele><time>2026-04-27T06:11:13.999Z</time></trkpt><trkpt lat="45.944075648296135" lon="12.087948395854017"><ele>281.0</ele><time>2026-04-27T06:11:14.999Z</time></trkpt><trkpt lat="45.94413783691096" lon="12.087928413424024"><ele>281.0</ele><time>2026-04-27T06:11:15.999Z</time></trkpt><trkpt lat="45.94424019329654" lon="12.087884417530807"><ele>281.0</ele><time>2026-04-27T06:11:17.999Z</time></trkpt><trkpt lat="45.94429646750462" lon="12.087824173471063"><ele>281.0</ele><time>2026-04-27T06:11:33.999Z</time></trkpt><trkpt lat="45.94436159142495" lon="12.08775936769012"><ele>281.0</ele><time>2026-04-27T06:11:35.999Z</time></trkpt><trkpt lat="45.94443161080504" lon="12.08768605744429"><ele>281.0</ele><time>2026-04-27T06:11:37.999Z</time></trkpt><trkpt lat="45.94449009731717" lon="12.087630684509634"><ele>281.0</ele><time>2026-04-27T06:11:39.999Z</time></trkpt><trkpt lat="45.94442047907582" lon="12.087702488451784"><ele>281.0</ele><time>2026-04-27T06:12:19Z</time></trkpt><trkpt lat="45.94434589561288" lon="12.087776858646519"><ele>281.0</ele><time>2026-04-27T06:12:22Z</time></trkpt><trkpt lat="45.94427638083252" lon="12.087844947372314"><ele>281.0</ele><time>2026-04-27T06:12:24Z</time></trkpt><trkpt lat="45.94420665943859" lon="12.08789960158046"><ele>281.0</ele><time>2026-04-27T06:12:26Z</time></trkpt><trkpt lat="45.944111726793444" lon="12.087937488895507"><ele>281.0</ele><time>2026-04-27T06:12:41Z</time></trkpt><trkpt lat="45.94404467787496" lon="12.087958976216676"><ele>281.0</ele><time>2026-04-27T06:12:43Z</time></trkpt><trkpt lat="45.94395808933067" lon="12.087985689203562"><ele>281.0</ele><time>2026-04-27T06:12:46Z</time></trkpt><trkpt lat="45.94388248397469" lon="12.088008711172792"><ele>281.0</ele><time>2026-04-27T06:12:48Z</time></trkpt><trkpt lat="45.94379659810428" lon="12.088034863323017"><ele>281.0</ele><time>2026-04-27T06:12:50Z</time></trkpt><trkpt lat="45.94372935510328" lon="12.088055857484623"><ele>281.0</ele><time>2026-04-27T06:13:05.999Z</time></trkpt><trkpt lat="45.943655822660865" lon="12.088080590871378"><ele>281.0</ele><time>2026-04-27T06:13:19.999Z</time></trkpt><trkpt lat="45.9435749261812" lon="12.088107801217662"><ele>281.0</ele><time>2026-04-27T06:13:21.999Z</time></trkpt><trkpt lat="45.94348361933624" lon="12.088137345085078"><ele>281.0</ele><time>2026-04-27T06:13:35.999Z</time></trkpt><trkpt lat="45.94338452688291" lon="12.088166584461419"><ele>281.0</ele><time>2026-04-27T06:13:37.999Z</time></trkpt><trkpt lat="45.94327331442726" lon="12.088188638163393"><ele>281.0</ele><time>2026-04-27T06:13:39.999Z</time></trkpt><trkpt lat="45.9431962107777" lon="12.08820237371511"><ele>281.0</ele><time>2026-04-27T06:13:40.999Z</time></trkpt><trkpt lat="45.94358189657061" lon="12.087777097954099"><ele>276.0</ele><time>2026-04-27T06:13:41.999Z</time></trkpt><trkpt lat="45.94293661604753" lon="12.087888313994009"><ele>276.0</ele><time>2026-04-27T06:13:43.999Z</time></trkpt><trkpt lat="45.942999827409736" lon="12.088047239746729"><ele>276.0</ele><time>2026-04-27T06:13:44.999Z</time></trkpt><trkpt lat="45.94295970936808" lon="12.087950485004473"><ele>276.0</ele><time>2026-04-27T06:13:46.999Z</time></trkpt><trkpt lat="45.94293636042886" lon="12.0878589381911"><ele>276.0</ele><time>2026-04-27T06:13:49.999Z</time></trkpt><trkpt lat="45.94297180427251" lon="12.087766611249682"><ele>276.0</ele><time>2026-04-27T06:13:52.999Z</time></trkpt><trkpt lat="45.94306989035986" lon="12.087710447881776"><ele>276.0</ele><time>2026-04-27T06:13:54.999Z</time></trkpt><trkpt lat="45.94316493160053" lon="12.08762603274805"><ele>276.0</ele><time>2026-04-27T06:13:57Z</time></trkpt><trkpt lat="45.94325663682389" lon="12.087539684997937"><ele>276.0</ele><time>2026-04-27T06:13:59Z</time></trkpt><trkpt lat="45.943321479583624" lon="12.087488477405833"><ele>276.0</ele><time>2026-04-27T06:14:22Z</time></trkpt><trkpt lat="45.94337961581214" lon="12.087432114909948"><ele>276.0</ele><time>2026-04-27T06:14:24Z</time></trkpt><trkpt lat="45.943435328042234" lon="12.087382995441816"><ele>276.0</ele><time>2026-04-27T06:14:39Z</time></trkpt><trkpt lat="45.94350685895076" lon="12.087316484912593"><ele>277.0</ele><time>2026-04-27T06:14:41Z</time></trkpt><trkpt lat="45.94353815996273" lon="12.087490443963011"><ele>278.0</ele><time>2026-04-27T06:15:21.999Z</time></trkpt><trkpt lat="45.94349225568437" lon="12.087391652900463"><ele>279.0</ele><time>2026-04-27T06:15:23.999Z</time></trkpt><trkpt lat="45.94346928357039" lon="12.087284700668096"><ele>280.0</ele><time>2026-04-27T06:15:27.999Z</time></trkpt><trkpt lat="45.943534302397204" lon="12.087221113905311"><ele>281.0</ele><time>2026-04-27T06:15:29.999Z</time></trkpt><trkpt lat="45.94362217193498" lon="12.087166035843593"><ele>281.40000000000003</ele><time>2026-04-27T06:15:31.999Z</time></trkpt><trkpt lat="45.9437046690262" lon="12.087091828128557"><ele>281.8</ele><time>2026-04-27T06:15:33.999Z</time></trkpt><trkpt lat="45.94376749438793" lon="12.087033538151763"><ele>282.20000000000005</ele><time>2026-04-27T06:15:35.999Z</time></trkpt><trkpt lat="45.943849977670226" lon="12.086950091236305"><ele>282.6</ele><time>2026-04-27T06:15:37.999Z</time></trkpt><trkpt lat="45.94395433912728" lon="12.086854435609556"><ele>283.0</ele><time>2026-04-27T06:15:39.999Z</time></trkpt><trkpt lat="45.94400565694865" lon="12.086793423338428"><ele>283.0</ele><time>2026-04-27T06:15:40.999Z</time></trkpt><trkpt lat="45.94408937701727" lon="12.086691708143096"><ele>283.0</ele><time>2026-04-27T06:15:42.999Z</time></trkpt><trkpt lat="45.94413263769343" lon="12.086605957158243"><ele>283.0</ele><time>2026-04-27T06:16:25Z</time></trkpt><trkpt lat="45.94415103790426" lon="12.086484824498005"><ele>283.0</ele><time>2026-04-27T06:16:27Z</time></trkpt><trkpt lat="45.94417052181366" lon="12.08634909166465"><ele>283.0</ele><time>2026-04-27T06:16:29Z</time></trkpt><trkpt lat="45.9441738895218" lon="12.08617493297043"><ele>283.3333333333333</ele><time>2026-04-27T06:16:31Z</time></trkpt><trkpt lat="45.944175076536936" lon="12.08607877247458"><ele>283.66666666666663</ele><time>2026-04-27T06:16:32Z</time></trkpt><trkpt lat="45.944180135360874" lon="12.085973354181501"><ele>284.0</ele><time>2026-04-27T06:16:34Z</time></trkpt><trkpt lat="45.94417588815658" lon="12.085860585674217"><ele>284.3333333333333</ele><time>2026-04-27T06:17:08.999Z</time></trkpt><trkpt lat="45.9441804211299" lon="12.085733371046647"><ele>284.6666666666667</ele><time>2026-04-27T06:17:10.999Z</time></trkpt><trkpt lat="45.94418457734283" lon="12.085588710675157"><ele>285.0</ele><time>2026-04-27T06:17:12.999Z</time></trkpt><trkpt lat="45.94420209118863" lon="12.085421615056653"><ele>285.8</ele><time>2026-04-27T06:17:14.999Z</time></trkpt><trkpt lat="45.94420548004719" lon="12.085296449415056"><ele>286.6</ele><time>2026-04-27T06:17:16.999Z</time></trkpt><trkpt lat="45.944217501015004" lon="12.085139120349078"><ele>287.4</ele><time>2026-04-27T06:17:43.999Z</time></trkpt><trkpt lat="45.944259711884115" lon="12.084991237734197"><ele>288.2</ele><time>2026-04-27T06:17:45.999Z</time></trkpt><trkpt lat="45.94428800315699" lon="12.084898301840514"><ele>289.0</ele><time>2026-04-27T06:17:46.999Z</time></trkpt><trkpt lat="45.944352916445865" lon="12.084767065863913"><ele>290.2</ele><time>2026-04-27T06:17:48.999Z</time></trkpt><trkpt lat="45.94441824615916" lon="12.08465795613618"><ele>291.4</ele><time>2026-04-27T06:17:50.999Z</time></trkpt><trkpt lat="45.9444640166088" lon="12.084576134927518"><ele>292.6</ele><time>2026-04-27T06:17:52.999Z</time></trkpt><trkpt lat="45.944331561374355" lon="12.084455249646718"><ele>293.8</ele><time>2026-04-27T06:17:57.999Z</time></trkpt><trkpt lat="45.94424592398901" lon="12.08440436934503"><ele>295.0</ele><time>2026-04-27T06:18:24Z</time></trkpt><trkpt lat="45.94416494831395" lon="12.084378463040254"><ele>295.0</ele><time>2026-04-27T06:18:42Z</time></trkpt><trkpt lat="45.94413391557978" lon="12.084260915368978"><ele>295.0</ele><time>2026-04-27T06:18:45Z</time></trkpt><trkpt lat="45.94415067230586" lon="12.084362406205553"><ele>295.0</ele><time>2026-04-27T06:19:22.999Z</time></trkpt><trkpt lat="45.944224668098045" lon="12.084426950070535"><ele>295.0</ele><time>2026-04-27T06:19:24.999Z</time></trkpt><trkpt lat="45.94432636087617" lon="12.084475062163337"><ele>295.0</ele><time>2026-04-27T06:19:26.999Z</time></trkpt><trkpt lat="45.944419852990386" lon="12.084519078930198"><ele>296.0</ele><time>2026-04-27T06:19:28.999Z</time></trkpt><trkpt lat="45.94448628637992" lon="12.084553021997527"><ele>297.0</ele><time>2026-04-27T06:19:32.999Z</time></trkpt><trkpt lat="45.94456670204592" lon="12.084526608129611"><ele>298.0</ele><time>2026-04-27T06:19:34.999Z</time></trkpt><trkpt lat="45.94465891869254" lon="12.084478751779892"><ele>299.0</ele><time>2026-04-27T06:19:36.999Z</time></trkpt><trkpt lat="45.94476148446183" lon="12.084430317232105"><ele>300.0</ele><time>2026-04-27T06:19:38.999Z</time></trkpt><trkpt lat="45.944875304259455" lon="12.084375790679125"><ele>300.0</ele><time>2026-04-27T06:19:40.999Z</time></trkpt><trkpt lat="45.944937913781196" lon="12.084346742547257"><ele>300.0</ele><time>2026-04-27T06:19:41.999Z</time></trkpt><trkpt lat="45.94502380462799" lon="12.084295601752325"><ele>300.0</ele><time>2026-04-27T06:19:43.999Z</time></trkpt><trkpt lat="45.94509880705686" lon="12.08422536561849"><ele>300.0</ele><time>2026-04-27T06:20:01.999Z</time></trkpt><trkpt lat="45.94517201364365" lon="12.084133287026585"><ele>300.0</ele><time>2026-04-27T06:20:03.999Z</time></trkpt><trkpt lat="45.94515961917219" lon="12.083973280489298"><ele>300.99999999999994</ele><time>2026-04-27T06:20:05.999Z</time></trkpt><trkpt lat="45.94514129197355" lon="12.083885063995178"><ele>302.0</ele><time>2026-04-27T06:20:06.999Z</time></trkpt><trkpt lat="45.94510725684258" lon="12.083798317455324"><ele>303.0</ele><time>2026-04-27T06:20:07.999Z</time></trkpt><trkpt lat="45.94507044519564" lon="12.083707640483958"><ele>304.0</ele><time>2026-04-27T06:20:08.999Z</time></trkpt><trkpt lat="45.94503207238843" lon="12.083613117933947"><ele>305.0</ele><time>2026-04-27T06:20:09.999Z</time></trkpt><trkpt lat="45.94497805151777" lon="12.08352584940405"><ele>305.99999999999994</ele><time>2026-04-27T06:20:10.999Z</time></trkpt><trkpt lat="45.94493681106934" lon="12.08342010641724"><ele>307.0</ele><time>2026-04-27T06:20:11.999Z</time></trkpt><trkpt lat="45.94490051091908" lon="12.083320087955808"><ele>308.0</ele><time>2026-04-27T06:20:13Z</time></trkpt><trkpt lat="45.944864370409064" lon="12.083232504528592"><ele>309.0</ele><time>2026-04-27T06:20:14Z</time></trkpt><trkpt lat="45.94482650067922" lon="12.083107395571973"><ele>310.0</ele><time>2026-04-27T06:20:16Z</time></trkpt><trkpt lat="45.94471468245269" lon="12.083129819300318"><ele>311.0</ele><time>2026-04-27T06:20:18Z</time></trkpt><trkpt lat="45.9445930441653" lon="12.08317723999896"><ele>312.0</ele><time>2026-04-27T06:20:20Z</time></trkpt><trkpt lat="45.944523617066245" lon="12.08319830515019"><ele>312.0</ele><time>2026-04-27T06:20:21Z</time></trkpt><trkpt lat="45.944448652973804" lon="12.083203041082898"><ele>312.0</ele><time>2026-04-27T06:20:22Z</time></trkpt><trkpt lat="45.94437359776139" lon="12.08323803738371"><ele>312.0</ele><time>2026-04-27T06:20:23Z</time></trkpt><trkpt lat="45.94429564056705" lon="12.083246862760774"><ele>312.0</ele><time>2026-04-27T06:20:24Z</time></trkpt><trkpt lat="45.94421815301898" lon="12.08327227085373"><ele>312.0</ele><time>2026-04-27T06:20:25Z</time></trkpt><trkpt lat="45.94415328098061" lon="12.083327827335022"><ele>312.0</ele><time>2026-04-27T06:20:26Z</time></trkpt><trkpt lat="45.94406431226446" lon="12.08339995791935"><ele>310.1666666666667</ele><time>2026-04-27T06:20:28Z</time></trkpt><trkpt lat="45.94399706217996" lon="12.083451790039577"><ele>308.3333333333333</ele><time>2026-04-27T06:20:55Z</time></trkpt><trkpt lat="45.94392532700511" lon="12.083498542661667"><ele>306.5</ele><time>2026-04-27T06:20:57Z</time></trkpt><trkpt lat="45.94383908067393" lon="12.083533466954163"><ele>304.66666666666663</ele><time>2026-04-27T06:20:59Z</time></trkpt><trkpt lat="45.9437441194155" lon="12.083504757874463"><ele>302.8333333333333</ele><time>2026-04-27T06:21:01Z</time></trkpt><trkpt lat="45.94365371727317" lon="12.083465412833272"><ele>301.0</ele><time>2026-04-27T06:21:03Z</time></trkpt><trkpt lat="45.943589648014914" lon="12.08344245481486"><ele>301.0</ele><time>2026-04-27T06:21:05Z</time></trkpt><trkpt lat="45.94366064099797" lon="12.083456540256352"><ele>301.0</ele><time>2026-04-27T06:21:14.999Z</time></trkpt><trkpt lat="45.94358015836193" lon="12.08343395535826"><ele>301.0</ele><time>2026-04-27T06:21:37.999Z</time></trkpt><trkpt lat="45.943586821623555" lon="12.083271871957368"><ele>301.0</ele><time>2026-04-27T06:21:43.999Z</time></trkpt><trkpt lat="45.94359036906997" lon="12.083109305434947"><ele>301.0</ele><time>2026-04-27T06:21:45.999Z</time></trkpt><trkpt lat="45.94359074336513" lon="12.083011439703224"><ele>301.0</ele><time>2026-04-27T06:21:46.999Z</time></trkpt><trkpt lat="45.943588619906166" lon="12.082912321424464"><ele>302.2857142857143</ele><time>2026-04-27T06:21:47.999Z</time></trkpt><trkpt lat="45.94356836347074" lon="12.082818985294988"><ele>303.57142857142856</ele><time>2026-04-27T06:21:48.999Z</time></trkpt><trkpt lat="45.943560689284595" lon="12.082728022759882"><ele>304.8571428571429</ele><time>2026-04-27T06:21:49.999Z</time></trkpt><trkpt lat="45.94354427283332" lon="12.082632586782"><ele>306.1428571428571</ele><time>2026-04-27T06:21:50.999Z</time></trkpt><trkpt lat="45.94350531849854" lon="12.082551450265491"><ele>307.42857142857144</ele><time>2026-04-27T06:21:51.999Z</time></trkpt><trkpt lat="45.94345094754301" lon="12.082495665022526"><ele>308.7142857142857</ele><time>2026-04-27T06:21:52.999Z</time></trkpt><trkpt lat="45.943403376399395" lon="12.08242875878692"><ele>310.0</ele><time>2026-04-27T06:21:53.999Z</time></trkpt><trkpt lat="45.94335581733706" lon="12.082366422685405"><ele>311.3333333333333</ele><time>2026-04-27T06:21:54.999Z</time></trkpt><trkpt lat="45.943300290667466" lon="12.082272468791567"><ele>312.66666666666663</ele><time>2026-04-27T06:21:56.999Z</time></trkpt><trkpt lat="45.9432434540281" lon="12.082211298642305"><ele>314.0</ele><time>2026-04-27T06:22:31Z</time></trkpt><trkpt lat="45.943185694731746" lon="12.082161950166356"><ele>315.3333333333333</ele><time>2026-04-27T06:22:33Z</time></trkpt><trkpt lat="45.943106292878895" lon="12.082081515582168"><ele>316.6666666666667</ele><time>2026-04-27T06:22:35Z</time></trkpt><trkpt lat="45.9430146131101" lon="12.081992936597674"><ele>318.0</ele><time>2026-04-27T06:22:37Z</time></trkpt><trkpt lat="45.942933401892894" lon="12.081892863191927"><ele>318.0</ele><time>2026-04-27T06:22:39Z</time></trkpt><trkpt lat="45.94288329696727" lon="12.081832324988552"><ele>318.0</ele><time>2026-04-27T06:22:41Z</time></trkpt><trkpt lat="45.942936312578446" lon="12.081753496372984"><ele>318.0</ele><time>2026-04-27T06:23:02Z</time></trkpt><trkpt lat="45.943034464539295" lon="12.081791871067072"><ele>318.0</ele><time>2026-04-27T06:23:04Z</time></trkpt><trkpt lat="45.943145619881044" lon="12.081784991130352"><ele>318.0</ele><time>2026-04-27T06:23:06Z</time></trkpt><trkpt lat="45.94326838356723" lon="12.081767380475835"><ele>318.0</ele><time>2026-04-27T06:23:08Z</time></trkpt><trkpt lat="45.94333391412697" lon="12.081740485537479"><ele>318.0</ele><time>2026-04-27T06:23:08.999Z</time></trkpt><trkpt lat="45.943401301528574" lon="12.081703390886"><ele>318.0</ele><time>2026-04-27T06:23:09.999Z</time></trkpt><trkpt lat="45.943472580727565" lon="12.08166033660522"><ele>318.0</ele><time>2026-04-27T06:23:10.999Z</time></trkpt><trkpt lat="45.943546731762396" lon="12.081615495049897"><ele>318.0</ele><time>2026-04-27T06:23:11.999Z</time></trkpt><trkpt lat="45.943621996074214" lon="12.081570550949937"><ele>318.0</ele><time>2026-04-27T06:23:12.999Z</time></trkpt><trkpt lat="45.94369816161199" lon="12.081524659994873"><ele>318.3333333333333</ele><time>2026-04-27T06:23:13.999Z</time></trkpt><trkpt lat="45.943775475358194" lon="12.081495063860173"><ele>318.6666666666667</ele><time>2026-04-27T06:23:14.999Z</time></trkpt><trkpt lat="45.94385936870918" lon="12.081483302382395"><ele>319.0</ele><time>2026-04-27T06:23:15.999Z</time></trkpt><trkpt lat="45.94394212467957" lon="12.081499556036757"><ele>319.33333333333337</ele><time>2026-04-27T06:23:16.999Z</time></trkpt><trkpt lat="45.94402099559914" lon="12.081533440486067"><ele>319.6666666666667</ele><time>2026-04-27T06:23:17.999Z</time></trkpt><trkpt lat="45.944095902185644" lon="12.081575181885135"><ele>320.0</ele><time>2026-04-27T06:23:18.999Z</time></trkpt><trkpt lat="45.94415967072729" lon="12.081621659402048"><ele>320.0</ele><time>2026-04-27T06:23:19.999Z</time></trkpt><trkpt lat="45.94422423562642" lon="12.081657642690297"><ele>320.0</ele><time>2026-04-27T06:23:20.999Z</time></trkpt><trkpt lat="45.94429347082186" lon="12.08164585090845"><ele>320.0</ele><time>2026-04-27T06:23:21.999Z</time></trkpt><trkpt lat="45.94436605639524" lon="12.081616168699089"><ele>320.0</ele><time>2026-04-27T06:23:22.999Z</time></trkpt><trkpt lat="45.944434703232695" lon="12.081563934118071"><ele>320.0</ele><time>2026-04-27T06:23:23.999Z</time></trkpt><trkpt lat="45.94450297778475" lon="12.081500603586951"><ele>320.0</ele><time>2026-04-27T06:23:24.999Z</time></trkpt><trkpt lat="45.94457224301177" lon="12.081426234882288"><ele>323.2</ele><time>2026-04-27T06:23:25.999Z</time></trkpt><trkpt lat="45.94464471835408" lon="12.08133910847222"><ele>326.4</ele><time>2026-04-27T06:23:26.999Z</time></trkpt><trkpt lat="45.94473171239215" lon="12.081269043857569"><ele>329.6</ele><time>2026-04-27T06:23:27.999Z</time></trkpt><trkpt lat="45.94481173771349" lon="12.081178529375618"><ele>332.8</ele><time>2026-04-27T06:23:28.999Z</time></trkpt><trkpt lat="45.94488395697305" lon="12.0810744931063"><ele>336.0</ele><time>2026-04-27T06:23:29.999Z</time></trkpt><trkpt lat="45.94496664926791" lon="12.08100632227548"><ele>335.6</ele><time>2026-04-27T06:23:30.999Z</time></trkpt><trkpt lat="45.9450576915038" lon="12.080951546838854"><ele>335.20000000000005</ele><time>2026-04-27T06:23:31.999Z</time></trkpt><trkpt lat="45.94515090758622" lon="12.080891062944158"><ele>334.79999999999995</ele><time>2026-04-27T06:23:32.999Z</time></trkpt><trkpt lat="45.94523334716275" lon="12.080816289448112"><ele>334.4</ele><time>2026-04-27T06:23:33.999Z</time></trkpt><trkpt lat="45.94531148633677" lon="12.080738529806897"><ele>334.0</ele><time>2026-04-27T06:23:34.999Z</time></trkpt><trkpt lat="45.94539665826069" lon="12.08066958150317"><ele>337.4</ele><time>2026-04-27T06:23:35.999Z</time></trkpt><trkpt lat="45.945467086599244" lon="12.080577290884108"><ele>340.79999999999995</ele><time>2026-04-27T06:23:36.999Z</time></trkpt><trkpt lat="45.94554454680809" lon="12.080503396394601"><ele>344.20000000000005</ele><time>2026-04-27T06:23:37.999Z</time></trkpt><trkpt lat="45.945621826749225" lon="12.080429300495972"><ele>347.6</ele><time>2026-04-27T06:23:38.999Z</time></trkpt><trkpt lat="45.945702044788504" lon="12.080356295621446"><ele>351.0</ele><time>2026-04-27T06:23:39.999Z</time></trkpt><trkpt lat="45.94578175583134" lon="12.080286134365297"><ele>351.0</ele><time>2026-04-27T06:23:40.999Z</time></trkpt><trkpt lat="45.945859644038876" lon="12.08021819830868"><ele>351.0</ele><time>2026-04-27T06:23:41.999Z</time></trkpt><trkpt lat="45.94593471938873" lon="12.080156627889226"><ele>351.0</ele><time>2026-04-27T06:23:42.999Z</time></trkpt><trkpt lat="45.94600662236451" lon="12.08009349515174"><ele>351.0</ele><time>2026-04-27T06:23:43.999Z</time></trkpt><trkpt lat="45.94607198558097" lon="12.080021340792088"><ele>351.0</ele><time>2026-04-27T06:23:44.999Z</time></trkpt><trkpt lat="45.94613493073392" lon="12.079943007657217"><ele>351.0</ele><time>2026-04-27T06:23:45.999Z</time></trkpt><trkpt lat="45.946193084607444" lon="12.079857797886998"><ele>352.6666666666667</ele><time>2026-04-27T06:23:46.999Z</time></trkpt><trkpt lat="45.94625231491305" lon="12.07977110421955"><ele>354.3333333333333</ele><time>2026-04-27T06:23:47.999Z</time></trkpt><trkpt lat="45.946309185336546" lon="12.07968558273003"><ele>356.0</ele><time>2026-04-27T06:23:48.999Z</time></trkpt><trkpt lat="45.94636782485785" lon="12.07960102627385"><ele>357.66666666666663</ele><time>2026-04-27T06:23:49.999Z</time></trkpt><trkpt lat="45.94642691136113" lon="12.079510281917546"><ele>359.3333333333333</ele><time>2026-04-27T06:23:50.999Z</time></trkpt><trkpt lat="45.94648226572549" lon="12.079416649982356"><ele>361.0</ele><time>2026-04-27T06:23:51.999Z</time></trkpt><trkpt lat="45.9465376962864" lon="12.079323658013186"><ele>361.0</ele><time>2026-04-27T06:23:52.999Z</time></trkpt><trkpt lat="45.94659392624273" lon="12.079234139489266"><ele>361.0</ele><time>2026-04-27T06:23:53.999Z</time></trkpt><trkpt lat="45.94664565627554" lon="12.079145632958936"><ele>361.0</ele><time>2026-04-27T06:23:54.999Z</time></trkpt><trkpt lat="45.946694385001436" lon="12.079066320055967"><ele>361.0</ele><time>2026-04-27T06:23:55.999Z</time></trkpt><trkpt lat="45.94674592723983" lon="12.079007230732277"><ele>361.0</ele><time>2026-04-27T06:23:56.999Z</time></trkpt><trkpt lat="45.94680648200289" lon="12.078959478992028"><ele>361.0</ele><time>2026-04-27T06:23:57.999Z</time></trkpt><trkpt lat="45.94686907427493" lon="12.078925335910851"><ele>361.0</ele><time>2026-04-27T06:23:58.999Z</time></trkpt><trkpt lat="45.94693309961652" lon="12.078901929985205"><ele>364.0</ele><time>2026-04-27T06:23:59.999Z</time></trkpt><trkpt lat="45.94700305916552" lon="12.07888809667884"><ele>367.0</ele><time>2026-04-27T06:24:00.999Z</time></trkpt><trkpt lat="45.947078501726565" lon="12.078883774496507"><ele>370.0</ele><time>2026-04-27T06:24:01.999Z</time></trkpt><trkpt lat="45.94715570624269" lon="12.078896068436881"><ele>373.0</ele><time>2026-04-27T06:24:02.999Z</time></trkpt><trkpt lat="45.94723142667526" lon="12.078928293888293"><ele>376.0</ele><time>2026-04-27T06:24:03.999Z</time></trkpt><trkpt lat="45.94730148341056" lon="12.078978330340128"><ele>379.0</ele><time>2026-04-27T06:24:04.999Z</time></trkpt><trkpt lat="45.947370469379614" lon="12.079044443533931"><ele>378.7142857142857</ele><time>2026-04-27T06:24:05.999Z</time></trkpt><trkpt lat="45.947427230408195" lon="12.079123384496567"><ele>378.42857142857144</ele><time>2026-04-27T06:24:06.999Z</time></trkpt><trkpt lat="45.94748586378501" lon="12.07919268981277"><ele>378.1428571428571</ele><time>2026-04-27T06:24:07.999Z</time></trkpt><trkpt lat="45.94755512238633" lon="12.079240141758248"><ele>377.8571428571429</ele><time>2026-04-27T06:24:08.999Z</time></trkpt><trkpt lat="45.94762594060845" lon="12.079246731394937"><ele>377.57142857142856</ele><time>2026-04-27T06:24:09.999Z</time></trkpt><trkpt lat="45.947686122787886" lon="12.079174095623962"><ele>377.2857142857143</ele><time>2026-04-27T06:24:10.999Z</time></trkpt><trkpt lat="45.947715281095476" lon="12.079092780964231"><ele>377.0</ele><time>2026-04-27T06:24:11.999Z</time></trkpt><trkpt lat="45.94773254316283" lon="12.079003283613085"><ele>379.20000000000005</ele><time>2026-04-27T06:24:12.999Z</time></trkpt><trkpt lat="45.9477188275549" lon="12.07888008732676"><ele>381.4</ele><time>2026-04-27T06:24:14.999Z</time></trkpt><trkpt lat="45.94770756401113" lon="12.078789883704898"><ele>383.6</ele><time>2026-04-27T06:24:52Z</time></trkpt><trkpt lat="45.94769412482121" lon="12.078682256795906"><ele>385.79999999999995</ele><time>2026-04-27T06:24:54Z</time></trkpt><trkpt lat="45.94767137405231" lon="12.078531312782143"><ele>388.0</ele><time>2026-04-27T06:24:56Z</time></trkpt><trkpt lat="45.94763480893217" lon="12.078355769807128"><ele>389.50000000000006</ele><time>2026-04-27T06:24:58Z</time></trkpt><trkpt lat="45.94760829213993" lon="12.078260933284344"><ele>391.0</ele><time>2026-04-27T06:24:59Z</time></trkpt><trkpt lat="45.94756374214113" lon="12.07816573807677"><ele>392.5</ele><time>2026-04-27T06:25:00Z</time></trkpt><trkpt lat="45.94751214622329" lon="12.07808039999673"><ele>394.0</ele><time>2026-04-27T06:25:01Z</time></trkpt><trkpt lat="45.94745425992694" lon="12.07800197319813"><ele>395.50000000000006</ele><time>2026-04-27T06:25:02Z</time></trkpt><trkpt lat="45.947392341193215" lon="12.077924851823951"><ele>397.0</ele><time>2026-04-27T06:25:03Z</time></trkpt><trkpt lat="45.94732807535913" lon="12.077858278798752"><ele>397.00000000000006</ele><time>2026-04-27T06:25:04Z</time></trkpt><trkpt lat="45.94725258478109" lon="12.077817599950471"><ele>397.0</ele><time>2026-04-27T06:25:05Z</time></trkpt><trkpt lat="45.947187016994" lon="12.077759435455857"><ele>397.0</ele><time>2026-04-27T06:25:06Z</time></trkpt><trkpt lat="45.94712904588873" lon="12.07768381624267"><ele>397.0</ele><time>2026-04-27T06:25:06.999Z</time></trkpt><trkpt lat="45.9470538920308" lon="12.077645970988089"><ele>397.00000000000006</ele><time>2026-04-27T06:25:07.999Z</time></trkpt><trkpt lat="45.946982682744434" lon="12.077589157685125"><ele>397.0</ele><time>2026-04-27T06:25:08.999Z</time></trkpt><trkpt lat="45.94690302637726" lon="12.077558888003056"><ele>397.00000000000006</ele><time>2026-04-27T06:25:09.999Z</time></trkpt><trkpt lat="45.946823116322136" lon="12.07756145265463"><ele>397.0</ele><time>2026-04-27T06:25:10.999Z</time></trkpt><trkpt lat="45.94674392595324" lon="12.07759121897457"><ele>397.0</ele><time>2026-04-27T06:25:11.999Z</time></trkpt><trkpt lat="45.94665835064628" lon="12.077641018160072"><ele>397.0</ele><time>2026-04-27T06:25:12.999Z</time></trkpt><trkpt lat="45.9465688746422" lon="12.077654222772978"><ele>397.00000000000006</ele><time>2026-04-27T06:25:13.999Z</time></trkpt><trkpt lat="45.946481504048926" lon="12.07769030253609"><ele>397.0</ele><time>2026-04-27T06:25:14.999Z</time></trkpt><trkpt lat="45.94639310409767" lon="12.077755628164201"><ele>398.20000000000005</ele><time>2026-04-27T06:25:15.999Z</time></trkpt><trkpt lat="45.946302556588066" lon="12.07779789343499"><ele>399.4</ele><time>2026-04-27T06:25:16.999Z</time></trkpt><trkpt lat="45.946218144010786" lon="12.077853817300038"><ele>400.6</ele><time>2026-04-27T06:25:17.999Z</time></trkpt><trkpt lat="45.94614826226056" lon="12.077940467882566"><ele>401.79999999999995</ele><time>2026-04-27T06:25:18.999Z</time></trkpt><trkpt lat="45.94608192865506" lon="12.078029428652593"><ele>403.0</ele><time>2026-04-27T06:25:19.999Z</time></trkpt><trkpt lat="45.946020020883395" lon="12.078118107906478"><ele>403.00000000000006</ele><time>2026-04-27T06:25:20.999Z</time></trkpt><trkpt lat="45.94596488453815" lon="12.078193231575437"><ele>403.0</ele><time>2026-04-27T06:25:21.999Z</time></trkpt><trkpt lat="45.94591375977616" lon="12.078253137666128"><ele>403.0</ele><time>2026-04-27T06:25:22.999Z</time></trkpt><trkpt lat="45.94583951458543" lon="12.078221799435426"><ele>403.0</ele><time>2026-04-27T06:25:24.999Z</time></trkpt><trkpt lat="45.94584550676156" lon="12.078119832915748"><ele>403.00000000000006</ele><time>2026-04-27T06:25:26.999Z</time></trkpt><trkpt lat="45.94592657468064" lon="12.07805840973849"><ele>403.0</ele><time>2026-04-27T06:25:28.999Z</time></trkpt><trkpt lat="45.946013411741994" lon="12.077933134089529"><ele>403.00000000000006</ele><time>2026-04-27T06:25:30.999Z</time></trkpt><trkpt lat="45.946064486003735" lon="12.077858139704293"><ele>403.0</ele><time>2026-04-27T06:25:31.999Z</time></trkpt><trkpt lat="45.946115102483006" lon="12.07776897188613"><ele>403.0</ele><time>2026-04-27T06:25:32.999Z</time></trkpt><trkpt lat="45.94616217274572" lon="12.077679720290414"><ele>403.0</ele><time>2026-04-27T06:25:33.999Z</time></trkpt><trkpt lat="45.94621953565348" lon="12.077579102819213"><ele>403.00000000000006</ele><time>2026-04-27T06:25:34.999Z</time></trkpt><trkpt lat="45.94628240643346" lon="12.077484359354953"><ele>403.0</ele><time>2026-04-27T06:25:35.999Z</time></trkpt><trkpt lat="45.94634619720427" lon="12.07739166229732"><ele>410.0</ele><time>2026-04-27T06:25:36.999Z</time></trkpt><trkpt lat="45.94641290941123" lon="12.077305641457299"><ele>417.0</ele><time>2026-04-27T06:25:37.999Z</time></trkpt><trkpt lat="45.94648124353315" lon="12.077235463958596"><ele>423.99999999999994</ele><time>2026-04-27T06:25:38.999Z</time></trkpt><trkpt lat="45.94655413617019" lon="12.077161988921254"><ele>431.0</ele><time>2026-04-27T06:25:39.999Z</time></trkpt><trkpt lat="45.946626428854444" lon="12.07707929634321"><ele>438.0</ele><time>2026-04-27T06:25:40.999Z</time></trkpt><trkpt lat="45.94670352914293" lon="12.07699126281267"><ele>434.0</ele><time>2026-04-27T06:25:41.999Z</time></trkpt><trkpt lat="45.946789164463055" lon="12.076919940879572"><ele>429.99999999999994</ele><time>2026-04-27T06:25:42.999Z</time></trkpt><trkpt lat="45.946873262836306" lon="12.076858789528778"><ele>426.0</ele><time>2026-04-27T06:25:43.999Z</time></trkpt><trkpt lat="45.94697197294759" lon="12.07684450871309"><ele>422.0</ele><time>2026-04-27T06:25:44.999Z</time></trkpt><trkpt lat="45.947064288648235" lon="12.076785183066296"><ele>418.0</ele><time>2026-04-27T06:25:45.999Z</time></trkpt><trkpt lat="45.947148623741164" lon="12.07668081974838"><ele>423.59999999999997</ele><time>2026-04-27T06:25:46.999Z</time></trkpt><trkpt lat="45.947211021242815" lon="12.076553557917316"><ele>429.2</ele><time>2026-04-27T06:25:47.999Z</time></trkpt><trkpt lat="45.947287078246575" lon="12.076456111298148"><ele>434.8</ele><time>2026-04-27T06:25:48.999Z</time></trkpt><trkpt lat="45.947368224839856" lon="12.076383894229346"><ele>440.4</ele><time>2026-04-27T06:25:49.999Z</time></trkpt><trkpt lat="45.947455097389515" lon="12.076333654967907"><ele>446.0</ele><time>2026-04-27T06:25:50.999Z</time></trkpt><trkpt lat="45.94754921084658" lon="12.076330957817595"><ele>447.0</ele><time>2026-04-27T06:25:51.999Z</time></trkpt><trkpt lat="45.94765683577281" lon="12.076323379489127"><ele>448.0</ele><time>2026-04-27T06:25:52.999Z</time></trkpt><trkpt lat="45.94776152330013" lon="12.076353299127765"><ele>449.0</ele><time>2026-04-27T06:25:53.999Z</time></trkpt><trkpt lat="45.947868385032294" lon="12.076371665923704"><ele>450.0</ele><time>2026-04-27T06:25:54.999Z</time></trkpt><trkpt lat="45.94797994656081" lon="12.07637602119714"><ele>451.0</ele><time>2026-04-27T06:25:55.999Z</time></trkpt><trkpt lat="45.94809065104007" lon="12.07636144159025"><ele>451.0</ele><time>2026-04-27T06:25:56.999Z</time></trkpt><trkpt lat="45.94819660623846" lon="12.076330582168923"><ele>451.0</ele><time>2026-04-27T06:25:57.999Z</time></trkpt><trkpt lat="45.948288526285396" lon="12.076315421689042"><ele>451.0</ele><time>2026-04-27T06:25:58.999Z</time></trkpt><trkpt lat="45.948379247182075" lon="12.076359002833103"><ele>451.0</ele><time>2026-04-27T06:25:59.999Z</time></trkpt><trkpt lat="45.948474048148945" lon="12.076419551221857"><ele>451.0</ele><time>2026-04-27T06:26:00.999Z</time></trkpt><trkpt lat="45.94857863914414" lon="12.076475013773543"><ele>453.0</ele><time>2026-04-27T06:26:01.999Z</time></trkpt><trkpt lat="45.94867889685269" lon="12.076521066818431"><ele>455.0</ele><time>2026-04-27T06:26:02.999Z</time></trkpt><trkpt lat="45.94879016167182" lon="12.076557907954601"><ele>457.0</ele><time>2026-04-27T06:26:03.999Z</time></trkpt><trkpt lat="45.94890182746657" lon="12.076588832487241"><ele>459.0</ele><time>2026-04-27T06:26:04.999Z</time></trkpt><trkpt lat="45.94900677780334" lon="12.076610259857326"><ele>461.0</ele><time>2026-04-27T06:26:05.999Z</time></trkpt><trkpt lat="45.94909858124551" lon="12.076608278690063"><ele>460.99999999999994</ele><time>2026-04-27T06:26:06.999Z</time></trkpt><trkpt lat="45.94917929177598" lon="12.076582149961862"><ele>461.0</ele><time>2026-04-27T06:26:07.999Z</time></trkpt><trkpt lat="45.94925774197413" lon="12.076523600992891"><ele>461.0</ele><time>2026-04-27T06:26:08.999Z</time></trkpt><trkpt lat="45.949329276941455" lon="12.07644127050615"><ele>461.0</ele><time>2026-04-27T06:26:09.999Z</time></trkpt><trkpt lat="45.94939783639969" lon="12.076354242666302"><ele>460.99999999999994</ele><time>2026-04-27T06:26:10.999Z</time></trkpt><trkpt lat="45.94946959716215" lon="12.0762720479207"><ele>461.0</ele><time>2026-04-27T06:26:11.999Z</time></trkpt><trkpt lat="45.949557674364925" lon="12.076232494666387"><ele>461.6</ele><time>2026-04-27T06:26:12.999Z</time></trkpt><trkpt lat="45.94964070238651" lon="12.07616693574334"><ele>462.20000000000005</ele><time>2026-04-27T06:26:13.999Z</time></trkpt><trkpt lat="45.949732164269236" lon="12.076142525967475"><ele>462.79999999999995</ele><time>2026-04-27T06:26:14.999Z</time></trkpt><trkpt lat="45.949824669728386" lon="12.076126585416777"><ele>463.4</ele><time>2026-04-27T06:26:15.999Z</time></trkpt><trkpt lat="45.94991772251204" lon="12.076125223566454"><ele>464.0</ele><time>2026-04-27T06:26:16.999Z</time></trkpt><trkpt lat="45.95001125782144" lon="12.076148827601918"><ele>464.8333333333333</ele><time>2026-04-27T06:26:17.999Z</time></trkpt><trkpt lat="45.9501007968547" lon="12.076193409131822"><ele>465.66666666666663</ele><time>2026-04-27T06:26:18.999Z</time></trkpt><trkpt lat="45.95018115506052" lon="12.076246473000085"><ele>466.5</ele><time>2026-04-27T06:26:19.999Z</time></trkpt><trkpt lat="45.95024235960655" lon="12.076282858208499"><ele>467.33333333333337</ele><time>2026-04-27T06:26:20.999Z</time></trkpt><trkpt lat="45.950322307208495" lon="12.076249422921766"><ele>468.1666666666667</ele><time>2026-04-27T06:26:22.999Z</time></trkpt><trkpt lat="45.9503489229947" lon="12.076155620348942"><ele>469.0</ele><time>2026-04-27T06:26:52Z</time></trkpt><trkpt lat="45.95028526873341" lon="12.076058944266308"><ele>469.0</ele><time>2026-04-27T06:26:54Z</time></trkpt><trkpt lat="45.95019427941827" lon="12.075970268937958"><ele>469.0</ele><time>2026-04-27T06:26:56Z</time></trkpt><trkpt lat="45.950074629765325" lon="12.075900306225765"><ele>469.0</ele><time>2026-04-27T06:26:58Z</time></trkpt><trkpt lat="45.95000478967178" lon="12.075868180393385"><ele>469.0</ele><time>2026-04-27T06:26:59Z</time></trkpt><trkpt lat="45.94993093179962" lon="12.075832022547571"><ele>469.0</ele><time>2026-04-27T06:27:00Z</time></trkpt><trkpt lat="45.94985565611642" lon="12.075787511373171"><ele>473.50000000000006</ele><time>2026-04-27T06:27:01Z</time></trkpt><trkpt lat="45.94977716217447" lon="12.075738526177698"><ele>478.0</ele><time>2026-04-27T06:27:02Z</time></trkpt><trkpt lat="45.949694833029035" lon="12.075688965482694"><ele>482.5</ele><time>2026-04-27T06:27:03Z</time></trkpt><trkpt lat="45.94960938883373" lon="12.07565358436371"><ele>487.0</ele><time>2026-04-27T06:27:04Z</time></trkpt><trkpt lat="45.94952853622685" lon="12.075650223848559"><ele>491.50000000000006</ele><time>2026-04-27T06:27:05Z</time></trkpt><trkpt lat="45.949461082707586" lon="12.075634538012629"><ele>496.0</ele><time>2026-04-27T06:27:06Z</time></trkpt><trkpt lat="45.94940198651875" lon="12.075598472155104"><ele>496.0</ele><time>2026-04-27T06:27:07.999Z</time></trkpt><trkpt lat="45.94947884331433" lon="12.075547055445563"><ele>496.0</ele><time>2026-04-27T06:27:09.999Z</time></trkpt><trkpt lat="45.94956773462844" lon="12.075561625490202"><ele>496.0</ele><time>2026-04-27T06:27:11.999Z</time></trkpt><trkpt lat="45.94969969393181" lon="12.075557363839177"><ele>496.0</ele><time>2026-04-27T06:27:13.999Z</time></trkpt><trkpt lat="45.94978026273648" lon="12.075553292042992"><ele>496.0</ele><time>2026-04-27T06:27:14.999Z</time></trkpt><trkpt lat="45.94986466282743" lon="12.075550614520676"><ele>496.00000000000006</ele><time>2026-04-27T06:27:15.999Z</time></trkpt><trkpt lat="45.9499490926619" lon="12.07554461069694"><ele>496.0</ele><time>2026-04-27T06:27:16.999Z</time></trkpt><trkpt lat="45.95003498070188" lon="12.075538468312427"><ele>496.0</ele><time>2026-04-27T06:27:17.999Z</time></trkpt><trkpt lat="45.95011978180208" lon="12.075517990566839"><ele>496.0</ele><time>2026-04-27T06:27:18.999Z</time></trkpt><trkpt lat="45.950202514761614" lon="12.075519345989695"><ele>496.00000000000006</ele><time>2026-04-27T06:27:19.999Z</time></trkpt><trkpt lat="45.950264847080135" lon="12.075501248229058"><ele>496.0</ele><time>2026-04-27T06:27:20.999Z</time></trkpt><trkpt lat="45.95031379098973" lon="12.07541064675534"><ele>496.00000000000006</ele><time>2026-04-27T06:27:23.999Z</time></trkpt><trkpt lat="45.95027861660664" lon="12.075326843765607"><ele>496.0</ele><time>2026-04-27T06:27:25.999Z</time></trkpt><trkpt lat="45.95020473686052" lon="12.075345294646858"><ele>496.0</ele><time>2026-04-27T06:27:27.999Z</time></trkpt><trkpt lat="45.95012245228602" lon="12.07534917940219"><ele>496.0</ele><time>2026-04-27T06:27:29.999Z</time></trkpt><trkpt lat="45.95000052667251" lon="12.07536690795674"><ele>496.00000000000006</ele><time>2026-04-27T06:27:31.999Z</time></trkpt><trkpt lat="45.949939288810675" lon="12.075345119588425"><ele>496.0</ele><time>2026-04-27T06:27:32.999Z</time></trkpt><trkpt lat="45.94987580357975" lon="12.075324508882336"><ele>496.00000000000006</ele><time>2026-04-27T06:27:33.999Z</time></trkpt><trkpt lat="45.949811427919286" lon="12.075295450794838"><ele>496.0</ele><time>2026-04-27T06:27:34.999Z</time></trkpt><trkpt lat="45.94974552420721" lon="12.07527031023769"><ele>496.0</ele><time>2026-04-27T06:27:35.999Z</time></trkpt><trkpt lat="45.94968068905955" lon="12.07524861081238"><ele>496.0</ele><time>2026-04-27T06:27:36.999Z</time></trkpt><trkpt lat="45.949619088239864" lon="12.075227160108534"><ele>496.00000000000006</ele><time>2026-04-27T06:27:37.999Z</time></trkpt><trkpt lat="45.949498515985226" lon="12.075206739602876"><ele>496.0</ele><time>2026-04-27T06:27:39.999Z</time></trkpt><trkpt lat="45.94940590166037" lon="12.075212451030172"><ele>496.00000000000006</ele><time>2026-04-27T06:27:41.999Z</time></trkpt><trkpt lat="45.94938816936567" lon="12.075100632538483"><ele>496.0</ele><time>2026-04-27T06:27:44.999Z</time></trkpt><trkpt lat="45.949374396347615" lon="12.075192014083148"><ele>496.0</ele><time>2026-04-27T06:28:50Z</time></trkpt><trkpt lat="45.94947668278673" lon="12.075242631945947"><ele>496.0</ele><time>2026-04-27T06:28:54Z</time></trkpt><trkpt lat="45.94954829373355" lon="12.075238859182006"><ele>496.00000000000006</ele><time>2026-04-27T06:28:56Z</time></trkpt><trkpt lat="45.949627882909546" lon="12.075251773416834"><ele>496.0</ele><time>2026-04-27T06:28:58Z</time></trkpt><trkpt lat="45.94971127027883" lon="12.075293085357481"><ele>496.0</ele><time>2026-04-27T06:29:00Z</time></trkpt><trkpt lat="45.94981776789181" lon="12.07533635832729"><ele>496.0</ele><time>2026-04-27T06:29:02Z</time></trkpt><trkpt lat="45.949880939853216" lon="12.075562392853657"><ele>496.0</ele><time>2026-04-27T06:29:03Z</time></trkpt><trkpt lat="45.95000545002304" lon="12.07555383028629"><ele>496.0</ele><time>2026-04-27T06:29:04.999Z</time></trkpt><trkpt lat="45.95012289731145" lon="12.07553595812172"><ele>496.00000000000006</ele><time>2026-04-27T06:29:06.999Z</time></trkpt><trkpt lat="45.95023127756335" lon="12.075512465885955"><ele>496.0</ele><time>2026-04-27T06:29:08.999Z</time></trkpt><trkpt lat="45.950165374447664" lon="12.075507624858334"><ele>496.0</ele><time>2026-04-27T06:30:29.999Z</time></trkpt><trkpt lat="45.95008491598182" lon="12.075528659672848"><ele>496.0</ele><time>2026-04-27T06:30:31.999Z</time></trkpt><trkpt lat="45.94998003480907" lon="12.075538534907427"><ele>496.00000000000006</ele><time>2026-04-27T06:30:33.999Z</time></trkpt><trkpt lat="45.949900934849914" lon="12.075538204312627"><ele>496.0</ele><time>2026-04-27T06:30:34.999Z</time></trkpt><trkpt lat="45.94982869151367" lon="12.07553810855508"><ele>496.00000000000006</ele><time>2026-04-27T06:30:36.999Z</time></trkpt><trkpt lat="45.94974124394706" lon="12.07553744622001"><ele>496.0</ele><time>2026-04-27T06:30:40.999Z</time></trkpt><trkpt lat="45.949653764699754" lon="12.075546723227465"><ele>496.0</ele><time>2026-04-27T06:30:43Z</time></trkpt><trkpt lat="45.94956472249876" lon="12.075552959233343"><ele>496.0</ele><time>2026-04-27T06:30:45Z</time></trkpt><trkpt lat="45.949478484962974" lon="12.075539731979346"><ele>496.00000000000006</ele><time>2026-04-27T06:30:47Z</time></trkpt><trkpt lat="45.94939450386816" lon="12.075537681947374"><ele>496.0</ele><time>2026-04-27T06:30:49Z</time></trkpt><trkpt lat="45.94940425296104" lon="12.075676614488541"><ele>496.0</ele><time>2026-04-27T06:30:51Z</time></trkpt><trkpt lat="45.949514334892136" lon="12.075697145865863"><ele>496.0</ele><time>2026-04-27T06:30:53Z</time></trkpt><trkpt lat="45.94964413962896" lon="12.07570624879675"><ele>496.0</ele><time>2026-04-27T06:30:55Z</time></trkpt><trkpt lat="45.949723028316825" lon="12.075749379399252"><ele>496.0</ele><time>2026-04-27T06:30:56Z</time></trkpt><trkpt lat="45.94981512504027" lon="12.075805913368946"><ele>496.0</ele><time>2026-04-27T06:30:57Z</time></trkpt><trkpt lat="45.9499138258813" lon="12.075867732048865"><ele>490.6</ele><time>2026-04-27T06:30:58Z</time></trkpt><trkpt lat="45.95002217308004" lon="12.075926948447435"><ele>485.20000000000005</ele><time>2026-04-27T06:30:59Z</time></trkpt><trkpt lat="45.95011991117817" lon="12.075975191137697"><ele>479.79999999999995</ele><time>2026-04-27T06:31:00Z</time></trkpt><trkpt lat="45.95019657453706" lon="12.076014700340206"><ele>474.4</ele><time>2026-04-27T06:31:01Z</time></trkpt><trkpt lat="45.95025219290102" lon="12.07606332180931"><ele>469.0</ele><time>2026-04-27T06:31:02Z</time></trkpt><trkpt lat="45.950303234578705" lon="12.076164737792817"><ele>469.00000000000006</ele><time>2026-04-27T06:31:04Z</time></trkpt><trkpt lat="45.950267111238745" lon="12.076254267685496"><ele>469.0</ele><time>2026-04-27T06:31:06Z</time></trkpt><trkpt lat="45.9501916327515" lon="12.076188133309644"><ele>469.0</ele><time>2026-04-27T06:31:07Z</time></trkpt><trkpt lat="45.95012563458875" lon="12.076180001617276"><ele>469.0</ele><time>2026-04-27T06:31:08Z</time></trkpt><trkpt lat="45.95005503782637" lon="12.076138006302333"><ele>469.00000000000006</ele><time>2026-04-27T06:31:09Z</time></trkpt><trkpt lat="45.94996906608591" lon="12.076109910277637"><ele>469.0</ele><time>2026-04-27T06:31:10Z</time></trkpt><trkpt lat="45.94986777734269" lon="12.076096647227278"><ele>467.75</ele><time>2026-04-27T06:31:11Z</time></trkpt><trkpt lat="45.94975453811379" lon="12.076103531501207"><ele>466.5</ele><time>2026-04-27T06:31:12Z</time></trkpt><trkpt lat="45.949643355590744" lon="12.07613606076551"><ele>465.25</ele><time>2026-04-27T06:31:13Z</time></trkpt><trkpt lat="45.9495329373915" lon="12.076189386845183"><ele>464.0</ele><time>2026-04-27T06:31:14Z</time></trkpt><trkpt lat="45.94943388596487" lon="12.076281407988713"><ele>463.99999999999994</ele><time>2026-04-27T06:31:15Z</time></trkpt><trkpt lat="45.9493435744195" lon="12.07639053834231"><ele>464.0</ele><time>2026-04-27T06:31:16Z</time></trkpt><trkpt lat="45.9492703453481" lon="12.076479701339062"><ele>464.0</ele><time>2026-04-27T06:31:16.999Z</time></trkpt><trkpt lat="45.94921563540582" lon="12.0765295135036"><ele>464.0</ele><time>2026-04-27T06:31:17.999Z</time></trkpt><trkpt lat="45.94915329606959" lon="12.076561906827727"><ele>463.99999999999994</ele><time>2026-04-27T06:31:18.999Z</time></trkpt><trkpt lat="45.949077345241776" lon="12.07654289461816"><ele>464.0</ele><time>2026-04-27T06:31:19.999Z</time></trkpt><trkpt lat="45.94899996942445" lon="12.076548742231488"><ele>463.4</ele><time>2026-04-27T06:31:20.999Z</time></trkpt><trkpt lat="45.948918733946414" lon="12.076562133512214"><ele>462.79999999999995</ele><time>2026-04-27T06:31:21.999Z</time></trkpt><trkpt lat="45.948834642879255" lon="12.076533139734282"><ele>462.20000000000005</ele><time>2026-04-27T06:31:22.999Z</time></trkpt><trkpt lat="45.948745492144056" lon="12.07650304099936"><ele>461.6</ele><time>2026-04-27T06:31:23.999Z</time></trkpt><trkpt lat="45.94866039998573" lon="12.076438795124986"><ele>461.0</ele><time>2026-04-27T06:31:24.999Z</time></trkpt><trkpt lat="45.94856764945879" lon="12.076394666775805"><ele>461.0</ele><time>2026-04-27T06:31:25.999Z</time></trkpt><trkpt lat="45.9484726445703" lon="12.076349464471004"><ele>461.0</ele><time>2026-04-27T06:31:26.999Z</time></trkpt><trkpt lat="45.94838836971993" lon="12.076310949743794"><ele>461.0</ele><time>2026-04-27T06:31:27.999Z</time></trkpt><trkpt lat="45.94829311552086" lon="12.076266874051425"><ele>461.0</ele><time>2026-04-27T06:31:29.999Z</time></trkpt><trkpt lat="45.94821431836567" lon="12.076280758747304"><ele>461.0</ele><time>2026-04-27T06:31:33.999Z</time></trkpt><trkpt lat="45.94825283823685" lon="12.076424683830675"><ele>459.3333333333333</ele><time>2026-04-27T06:31:37.999Z</time></trkpt><trkpt lat="45.94831490982676" lon="12.07647447607595"><ele>457.66666666666663</ele><time>2026-04-27T06:31:40.999Z</time></trkpt><trkpt lat="45.94837492464078" lon="12.07653793220057"><ele>456.0</ele><time>2026-04-27T06:31:42.999Z</time></trkpt><trkpt lat="45.94844971909856" lon="12.07660511581061"><ele>454.33333333333337</ele><time>2026-04-27T06:31:44.999Z</time></trkpt><trkpt lat="45.94850340616676" lon="12.076714083339768"><ele>452.6666666666667</ele><time>2026-04-27T06:31:47.999Z</time></trkpt><trkpt lat="45.948546391197844" lon="12.076814809429774"><ele>451.0</ele><time>2026-04-27T06:31:49.999Z</time></trkpt><trkpt lat="45.948592759037254" lon="12.076939594434261"><ele>448.57142857142856</ele><time>2026-04-27T06:31:51.999Z</time></trkpt><trkpt lat="45.94863082519963" lon="12.077049629624396"><ele>446.14285714285717</ele><time>2026-04-27T06:31:53.999Z</time></trkpt><trkpt lat="45.948649910580286" lon="12.077148890202873"><ele>443.7142857142857</ele><time>2026-04-27T06:31:55.999Z</time></trkpt><trkpt lat="45.94862965934222" lon="12.077251033210867"><ele>441.2857142857143</ele><time>2026-04-27T06:31:57.999Z</time></trkpt><trkpt lat="45.94859903108185" lon="12.077347342064536"><ele>438.8571428571429</ele><time>2026-04-27T06:32:00.999Z</time></trkpt><trkpt lat="45.9485925228415" lon="12.077438803844984"><ele>436.42857142857144</ele><time>2026-04-27T06:32:02.999Z</time></trkpt><trkpt lat="45.948612789563086" lon="12.077541311631945"><ele>434.0</ele><time>2026-04-27T06:32:04.999Z</time></trkpt><trkpt lat="45.948631432507355" lon="12.077629785893151"><ele>429.8333333333333</ele><time>2026-04-27T06:32:06.999Z</time></trkpt><trkpt lat="45.948711617067644" lon="12.07770170892751"><ele>425.66666666666663</ele><time>2026-04-27T06:32:09.999Z</time></trkpt><trkpt lat="45.94879184517247" lon="12.077672897837127"><ele>421.5</ele><time>2026-04-27T06:32:11.999Z</time></trkpt><trkpt lat="45.94888530794222" lon="12.077673114630024"><ele>417.33333333333337</ele><time>2026-04-27T06:32:13.999Z</time></trkpt><trkpt lat="45.948968596376325" lon="12.077644249002525"><ele>413.1666666666667</ele><time>2026-04-27T06:32:15.999Z</time></trkpt><trkpt lat="45.94903581461871" lon="12.077618490495764"><ele>409.0</ele><time>2026-04-27T06:32:17.999Z</time></trkpt><trkpt lat="45.94911216759474" lon="12.07758892026554"><ele>409.0</ele><time>2026-04-27T06:32:19.999Z</time></trkpt><trkpt lat="45.94920752623804" lon="12.077552837892402"><ele>409.0</ele><time>2026-04-27T06:32:21.999Z</time></trkpt><trkpt lat="45.94930479755742" lon="12.077516579378104"><ele>409.0</ele><time>2026-04-27T06:32:23.999Z</time></trkpt><trkpt lat="45.949408865096274" lon="12.077477873859968"><ele>409.0</ele><time>2026-04-27T06:32:25.999Z</time></trkpt><trkpt lat="45.949499679033956" lon="12.077457860284506"><ele>409.0</ele><time>2026-04-27T06:32:27.999Z</time></trkpt><trkpt lat="45.949562256081286" lon="12.077521770326737"><ele>411.4</ele><time>2026-04-27T06:32:29.999Z</time></trkpt><trkpt lat="45.94956789380463" lon="12.077643118095015"><ele>413.79999999999995</ele><time>2026-04-27T06:32:31.999Z</time></trkpt><trkpt lat="45.949502116788665" lon="12.077749199171377"><ele>416.20000000000005</ele><time>2026-04-27T06:32:33.999Z</time></trkpt><trkpt lat="45.94943863472966" lon="12.077877950420769"><ele>418.6</ele><time>2026-04-27T06:32:35.999Z</time></trkpt><trkpt lat="45.94939126883133" lon="12.077957728326078"><ele>421.0</ele><time>2026-04-27T06:32:37.999Z</time></trkpt><trkpt lat="45.949318126549585" lon="12.07805152713491"><ele>421.00000000000006</ele><time>2026-04-27T06:32:41.999Z</time></trkpt><trkpt lat="45.94924131075946" lon="12.078131338587747"><ele>421.0</ele><time>2026-04-27T06:32:43.999Z</time></trkpt><trkpt lat="45.94915783408479" lon="12.07817469848326"><ele>421.0</ele><time>2026-04-27T06:32:45.999Z</time></trkpt><trkpt lat="45.94912855432517" lon="12.07827034021071"><ele>421.0</ele><time>2026-04-27T06:32:47.999Z</time></trkpt><trkpt lat="45.94911404213122" lon="12.078397154030894"><ele>421.00000000000006</ele><time>2026-04-27T06:32:50.999Z</time></trkpt><trkpt lat="45.94912111671147" lon="12.078494757189235"><ele>421.0</ele><time>2026-04-27T06:32:52.999Z</time></trkpt><trkpt lat="45.949149399368565" lon="12.07862039468625"><ele>416.0</ele><time>2026-04-27T06:32:54.999Z</time></trkpt><trkpt lat="45.94914890907047" lon="12.078749140102339"><ele>411.0</ele><time>2026-04-27T06:32:56.999Z</time></trkpt><trkpt lat="45.94915321339686" lon="12.078878450124224"><ele>406.0</ele><time>2026-04-27T06:32:58.999Z</time></trkpt><trkpt lat="45.94912506219037" lon="12.079007917088756"><ele>401.0</ele><time>2026-04-27T06:33:00.999Z</time></trkpt><trkpt lat="45.949067527895565" lon="12.079151651856614"><ele>396.0</ele><time>2026-04-27T06:33:02.999Z</time></trkpt><trkpt lat="45.94903502725313" lon="12.079233495452316"><ele>395.5</ele><time>2026-04-27T06:33:03.999Z</time></trkpt><trkpt lat="45.94900313389132" lon="12.079319287625374"><ele>395.0</ele><time>2026-04-27T06:33:04.999Z</time></trkpt><trkpt lat="45.948973340418384" lon="12.079402102073052"><ele>394.5</ele><time>2026-04-27T06:33:05.999Z</time></trkpt><trkpt lat="45.94893595140197" lon="12.079541864703291"><ele>394.0</ele><time>2026-04-27T06:33:07.999Z</time></trkpt><trkpt lat="45.948911945036336" lon="12.07966696518209"><ele>393.5</ele><time>2026-04-27T06:33:09.999Z</time></trkpt><trkpt lat="45.94888094728448" lon="12.07982929684871"><ele>393.0</ele><time>2026-04-27T06:33:11.999Z</time></trkpt><trkpt lat="45.94882661365713" lon="12.07996170406841"><ele>393.0</ele><time>2026-04-27T06:33:13.999Z</time></trkpt><trkpt lat="45.94872272060289" lon="12.080065162068882"><ele>393.0</ele><time>2026-04-27T06:33:15.999Z</time></trkpt><trkpt lat="45.94866257103982" lon="12.080114017039094"><ele>393.0</ele><time>2026-04-27T06:33:16.999Z</time></trkpt><trkpt lat="45.94854718793497" lon="12.080176547867623"><ele>393.0</ele><time>2026-04-27T06:33:18.999Z</time></trkpt><trkpt lat="45.94848624440799" lon="12.080233617414804"><ele>393.0</ele><time>2026-04-27T06:33:19.999Z</time></trkpt><trkpt lat="45.948415780312054" lon="12.080264134068809"><ele>389.5</ele><time>2026-04-27T06:33:20.999Z</time></trkpt><trkpt lat="45.948343603571594" lon="12.080297375486369"><ele>386.0</ele><time>2026-04-27T06:33:21.999Z</time></trkpt><trkpt lat="45.948266345997475" lon="12.080335615807927"><ele>382.5</ele><time>2026-04-27T06:33:22.999Z</time></trkpt><trkpt lat="45.94818955196478" lon="12.080377070519546"><ele>379.0</ele><time>2026-04-27T06:33:23.999Z</time></trkpt><trkpt lat="45.948118270377904" lon="12.080413392497814"><ele>375.5</ele><time>2026-04-27T06:33:24.999Z</time></trkpt><trkpt lat="45.948009184115286" lon="12.080466747405874"><ele>372.0</ele><time>2026-04-27T06:33:26.999Z</time></trkpt><trkpt lat="45.94792011811324" lon="12.080505731168339"><ele>372.0</ele><time>2026-04-27T06:33:28.999Z</time></trkpt><trkpt lat="45.94780887482315" lon="12.080539943574847"><ele>372.0</ele><time>2026-04-27T06:33:30.999Z</time></trkpt><trkpt lat="45.94773054662262" lon="12.080558562242478"><ele>372.0</ele><time>2026-04-27T06:33:32.999Z</time></trkpt><trkpt lat="45.947663449779775" lon="12.080564761574648"><ele>372.0</ele><time>2026-04-27T06:34:08.999Z</time></trkpt><trkpt lat="45.94758914001511" lon="12.080566926488801"><ele>372.0</ele><time>2026-04-27T06:34:11.999Z</time></trkpt><trkpt lat="45.947515356753186" lon="12.080576901886829"><ele>372.0</ele><time>2026-04-27T06:34:13.999Z</time></trkpt><trkpt lat="45.947426183264625" lon="12.080609886042906"><ele>369.0</ele><time>2026-04-27T06:34:15.999Z</time></trkpt><trkpt lat="45.94733308046215" lon="12.08066349242785"><ele>366.0</ele><time>2026-04-27T06:34:17.999Z</time></trkpt><trkpt lat="45.947234829858765" lon="12.080725215234246"><ele>363.0</ele><time>2026-04-27T06:34:19.999Z</time></trkpt><trkpt lat="45.94713884751671" lon="12.080780842761754"><ele>360.0</ele><time>2026-04-27T06:34:21.999Z</time></trkpt><trkpt lat="45.94704865297134" lon="12.080850102910146"><ele>357.0</ele><time>2026-04-27T06:34:23.999Z</time></trkpt><trkpt lat="45.946968081846514" lon="12.080971951611053"><ele>356.6</ele><time>2026-04-27T06:34:25.999Z</time></trkpt><trkpt lat="45.94688537803203" lon="12.08110415319887"><ele>356.20000000000005</ele><time>2026-04-27T06:34:27.999Z</time></trkpt><trkpt lat="45.94684263632681" lon="12.081170703214024"><ele>355.8</ele><time>2026-04-27T06:34:28.999Z</time></trkpt><trkpt lat="45.94676063690383" lon="12.081285745070307"><ele>355.4</ele><time>2026-04-27T06:34:30.999Z</time></trkpt><trkpt lat="45.946654474660946" lon="12.08139275425356"><ele>355.0</ele><time>2026-04-27T06:34:32.999Z</time></trkpt><trkpt lat="45.946599244923526" lon="12.0814542099643"><ele>352.5</ele><time>2026-04-27T06:34:33.999Z</time></trkpt><trkpt lat="45.94653957591864" lon="12.081516634927855"><ele>350.0</ele><time>2026-04-27T06:34:34.999Z</time></trkpt><trkpt lat="45.94648303931248" lon="12.081572353060885"><ele>347.5</ele><time>2026-04-27T06:34:35.999Z</time></trkpt><trkpt lat="45.946426155495004" lon="12.081635236652774"><ele>345.0</ele><time>2026-04-27T06:34:36.999Z</time></trkpt><trkpt lat="45.946376390044115" lon="12.081706133896393"><ele>342.5</ele><time>2026-04-27T06:34:37.999Z</time></trkpt><trkpt lat="45.94633369018745" lon="12.081773357494374"><ele>340.0</ele><time>2026-04-27T06:34:38.999Z</time></trkpt><trkpt lat="45.94626004254565" lon="12.08190123352303"><ele>339.6</ele><time>2026-04-27T06:34:40.999Z</time></trkpt><trkpt lat="45.946188428727716" lon="12.082055230134412"><ele>339.2</ele><time>2026-04-27T06:34:42.999Z</time></trkpt><trkpt lat="45.94615304526009" lon="12.082146299061346"><ele>338.79999999999995</ele><time>2026-04-27T06:34:43.999Z</time></trkpt><trkpt lat="45.946117489625365" lon="12.082231378570262"><ele>338.4</ele><time>2026-04-27T06:34:44.999Z</time></trkpt><trkpt lat="45.94604868052121" lon="12.082333350655656"><ele>338.0</ele><time>2026-04-27T06:34:46.999Z</time></trkpt><trkpt lat="45.94595730248013" lon="12.08234407030836"><ele>334.79999999999995</ele><time>2026-04-27T06:34:48.999Z</time></trkpt><trkpt lat="45.94584504559311" lon="12.082318654251745"><ele>331.6</ele><time>2026-04-27T06:34:50.999Z</time></trkpt><trkpt lat="45.94571962279574" lon="12.082348722280674"><ele>328.4</ele><time>2026-04-27T06:34:52.999Z</time></trkpt><trkpt lat="45.94565550022112" lon="12.082378528507292"><ele>325.20000000000005</ele><time>2026-04-27T06:34:53.999Z</time></trkpt><trkpt lat="45.945589975269925" lon="12.082418463523233"><ele>322.0</ele><time>2026-04-27T06:34:54.999Z</time></trkpt><trkpt lat="45.945517605603314" lon="12.08242650898573"><ele>321.42857142857144</ele><time>2026-04-27T06:34:55.999Z</time></trkpt><trkpt lat="45.945446179822625" lon="12.082445472619327"><ele>320.8571428571429</ele><time>2026-04-27T06:34:56.999Z</time></trkpt><trkpt lat="45.945376394433794" lon="12.082480392137073"><ele>320.2857142857143</ele><time>2026-04-27T06:34:57.999Z</time></trkpt><trkpt lat="45.94531418464518" lon="12.082501684817258"><ele>319.7142857142857</ele><time>2026-04-27T06:34:58.999Z</time></trkpt><trkpt lat="45.945252923737705" lon="12.082539276238904"><ele>319.14285714285717</ele><time>2026-04-27T06:34:59.999Z</time></trkpt><trkpt lat="45.94519755020394" lon="12.082608305551034"><ele>318.57142857142856</ele><time>2026-04-27T06:35:00.999Z</time></trkpt><trkpt lat="45.94514617774384" lon="12.082678761732865"><ele>318.0</ele><time>2026-04-27T06:35:01.999Z</time></trkpt><trkpt lat="45.94510026851116" lon="12.082780513896136"><ele>318.0</ele><time>2026-04-27T06:35:03.999Z</time></trkpt><trkpt lat="45.94505684188044" lon="12.082864505776772"><ele>318.0</ele><time>2026-04-27T06:35:18.999Z</time></trkpt><trkpt lat="45.9450017459904" lon="12.082974118114972"><ele>318.0</ele><time>2026-04-27T06:35:20.999Z</time></trkpt><trkpt lat="45.94489754969045" lon="12.08305544163634"><ele>318.0</ele><time>2026-04-27T06:35:22.999Z</time></trkpt><trkpt lat="45.944837800793074" lon="12.083089343361978"><ele>318.0</ele><time>2026-04-27T06:35:23.999Z</time></trkpt><trkpt lat="45.944774296546065" lon="12.083119189320502"><ele>318.0</ele><time>2026-04-27T06:35:24.999Z</time></trkpt><trkpt lat="45.944704569057485" lon="12.08315139382926"><ele>317.0</ele><time>2026-04-27T06:35:25.999Z</time></trkpt><trkpt lat="45.944630621484066" lon="12.08318477232615"><ele>316.0</ele><time>2026-04-27T06:35:26.999Z</time></trkpt><trkpt lat="45.944552571491165" lon="12.08321547757284"><ele>315.0</ele><time>2026-04-27T06:35:27.999Z</time></trkpt><trkpt lat="45.94446750146532" lon="12.083199890515388"><ele>314.0</ele><time>2026-04-27T06:35:28.999Z</time></trkpt><trkpt lat="45.94438535127689" lon="12.083234112194887"><ele>313.0</ele><time>2026-04-27T06:35:29.999Z</time></trkpt><trkpt lat="45.944299130278154" lon="12.083246648351988"><ele>312.0</ele><time>2026-04-27T06:35:30.999Z</time></trkpt><trkpt lat="45.94421535278232" lon="12.083280725181229"><ele>310.1666666666667</ele><time>2026-04-27T06:35:31.999Z</time></trkpt><trkpt lat="45.944137523700185" lon="12.083344594995268"><ele>308.3333333333333</ele><time>2026-04-27T06:35:32.999Z</time></trkpt><trkpt lat="45.94406648458977" lon="12.083420732536263"><ele>306.5</ele><time>2026-04-27T06:35:33.999Z</time></trkpt><trkpt lat="45.94398344201879" lon="12.083455554781601"><ele>304.66666666666663</ele><time>2026-04-27T06:35:34.999Z</time></trkpt><trkpt lat="45.943909038594775" lon="12.08349012212425"><ele>302.8333333333333</ele><time>2026-04-27T06:35:35.999Z</time></trkpt><trkpt lat="45.943840219964144" lon="12.083528307316417"><ele>301.0</ele><time>2026-04-27T06:35:36.999Z</time></trkpt><trkpt lat="45.94377168216216" lon="12.083516404112897"><ele>301.0</ele><time>2026-04-27T06:35:37.999Z</time></trkpt><trkpt lat="45.94371233782556" lon="12.083485655670545"><ele>301.0</ele><time>2026-04-27T06:35:38.999Z</time></trkpt><trkpt lat="45.94361608675134" lon="12.08343354750565"><ele>301.0</ele><time>2026-04-27T06:35:40.999Z</time></trkpt><trkpt lat="45.943534769141976" lon="12.083409824720688"><ele>301.0</ele><time>2026-04-27T06:35:43.999Z</time></trkpt><trkpt lat="45.94347177923137" lon="12.083524375008679"><ele>301.0</ele><time>2026-04-27T06:35:45.999Z</time></trkpt><trkpt lat="45.94340946420753" lon="12.083649191885849"><ele>299.6</ele><time>2026-04-27T06:35:47.999Z</time></trkpt><trkpt lat="45.943356448449194" lon="12.083783407474918"><ele>298.20000000000005</ele><time>2026-04-27T06:35:49.999Z</time></trkpt><trkpt lat="45.94331837130219" lon="12.083905282165144"><ele>296.79999999999995</ele><time>2026-04-27T06:35:51.999Z</time></trkpt><trkpt lat="45.94328293039495" lon="12.08403361358442"><ele>295.4</ele><time>2026-04-27T06:35:53.999Z</time></trkpt><trkpt lat="45.943241994566414" lon="12.084177567052045"><ele>294.0</ele><time>2026-04-27T06:35:55.999Z</time></trkpt><trkpt lat="45.94321117489832" lon="12.084310910826586"><ele>293.5</ele><time>2026-04-27T06:35:57.999Z</time></trkpt><trkpt lat="45.94318306921147" lon="12.08444948872236"><ele>293.0</ele><time>2026-04-27T06:35:59.999Z</time></trkpt><trkpt lat="45.94315327816733" lon="12.084545050765799"><ele>292.5</ele><time>2026-04-27T06:36:18.999Z</time></trkpt><trkpt lat="45.94313367381937" lon="12.084656898811785"><ele>292.0</ele><time>2026-04-27T06:36:20.999Z</time></trkpt><trkpt lat="45.943109379804895" lon="12.08477060783674"><ele>291.5</ele><time>2026-04-27T06:36:22.999Z</time></trkpt><trkpt lat="45.94307682642692" lon="12.08488292044398"><ele>291.0</ele><time>2026-04-27T06:36:24.999Z</time></trkpt><trkpt lat="45.943037014537914" lon="12.085000506188514"><ele>290.3333333333333</ele><time>2026-04-27T06:36:26.999Z</time></trkpt><trkpt lat="45.94298521759993" lon="12.08512391486875"><ele>289.6666666666667</ele><time>2026-04-27T06:36:28.999Z</time></trkpt><trkpt lat="45.94290311123566" lon="12.085203485628936"><ele>289.0</ele><time>2026-04-27T06:36:30.999Z</time></trkpt><trkpt lat="45.94282566080155" lon="12.08526343925039"><ele>288.33333333333337</ele><time>2026-04-27T06:36:57.999Z</time></trkpt><trkpt lat="45.9427587465688" lon="12.085313464364852"><ele>287.6666666666667</ele><time>2026-04-27T06:36:59.999Z</time></trkpt><trkpt lat="45.942703399951554" lon="12.085377338307396"><ele>287.0</ele><time>2026-04-27T06:37:29.999Z</time></trkpt><trkpt lat="45.94264129238449" lon="12.085409602834838"><ele>287.0</ele><time>2026-04-27T06:37:31.999Z</time></trkpt><trkpt lat="45.942562026350124" lon="12.085472847175621"><ele>287.0</ele><time>2026-04-27T06:38:01.999Z</time></trkpt><trkpt lat="45.94250529327908" lon="12.085520262294631"><ele>287.0</ele><time>2026-04-27T06:38:03.999Z</time></trkpt><trkpt lat="45.94245528669921" lon="12.085581889262144"><ele>287.0</ele><time>2026-04-27T06:38:05.999Z</time></trkpt><trkpt lat="45.94240707511974" lon="12.085649474936305"><ele>287.0</ele><time>2026-04-27T06:38:07.999Z</time></trkpt><trkpt lat="45.94234671743436" lon="12.08570953016823"><ele>287.0</ele><time>2026-04-27T06:38:11.999Z</time></trkpt><trkpt lat="45.942435792279376" lon="12.085855885781445"><ele>286.33333333333337</ele><time>2026-04-27T06:38:16.999Z</time></trkpt><trkpt lat="45.94249105632957" lon="12.085932424070954"><ele>285.6666666666667</ele><time>2026-04-27T06:38:18.999Z</time></trkpt><trkpt lat="45.94254352479544" lon="12.086017780642823"><ele>285.0</ele><time>2026-04-27T06:38:21.999Z</time></trkpt><trkpt lat="45.94260563411944" lon="12.086097492618249"><ele>284.3333333333333</ele><time>2026-04-27T06:38:26.999Z</time></trkpt><trkpt lat="45.94264590962336" lon="12.086177520304721"><ele>283.66666666666663</ele><time>2026-04-27T06:38:29.999Z</time></trkpt><trkpt lat="45.94270491689851" lon="12.086277060623187"><ele>283.0</ele><time>2026-04-27T06:38:32.999Z</time></trkpt><trkpt lat="45.94276495011286" lon="12.08634883370599"><ele>283.0</ele><time>2026-04-27T06:38:34.999Z</time></trkpt><trkpt lat="45.942806793821916" lon="12.086453093112684"><ele>283.0</ele><time>2026-04-27T06:38:36.999Z</time></trkpt><trkpt lat="45.942859975282076" lon="12.086565171759535"><ele>283.0</ele><time>2026-04-27T06:38:39.999Z</time></trkpt><trkpt lat="45.94291482010599" lon="12.08664251434309"><ele>283.0</ele><time>2026-04-27T06:38:42.999Z</time></trkpt><trkpt lat="45.9428703176491" lon="12.086577626310302"><ele>283.0</ele><time>2026-04-27T06:38:52.999Z</time></trkpt><trkpt lat="45.94280317662261" lon="12.08645270504396"><ele>283.0</ele><time>2026-04-27T06:39:24.999Z</time></trkpt><trkpt lat="45.942753190015544" lon="12.08635933013381"><ele>283.0</ele><time>2026-04-27T06:39:26.999Z</time></trkpt><trkpt lat="45.94268694379722" lon="12.086246378686798"><ele>283.0</ele><time>2026-04-27T06:39:28.999Z</time></trkpt><trkpt lat="45.94261054372474" lon="12.086117842896961"><ele>283.0</ele><time>2026-04-27T06:39:30.999Z</time></trkpt><trkpt lat="45.942539997129174" lon="12.086033649247748"><ele>283.0</ele><time>2026-04-27T06:39:32.999Z</time></trkpt><trkpt lat="45.942483520582975" lon="12.085955330771947"><ele>283.0</ele><time>2026-04-27T06:39:52.999Z</time></trkpt><trkpt lat="45.94242603121978" lon="12.085856859586361"><ele>283.0</ele><time>2026-04-27T06:39:55.999Z</time></trkpt><trkpt lat="45.94235275158386" lon="12.085741284326655"><ele>283.0</ele><time>2026-04-27T06:40:20.999Z</time></trkpt><trkpt lat="45.9422237868129" lon="12.085908615936424"><ele>283.0</ele><time>2026-04-27T06:40:26.999Z</time></trkpt><trkpt lat="45.94218710362961" lon="12.085994512133881"><ele>283.0</ele><time>2026-04-27T06:40:28.999Z</time></trkpt><trkpt lat="45.94213073342301" lon="12.086084577576372"><ele>283.0</ele><time>2026-04-27T06:41:07.999Z</time></trkpt><trkpt lat="45.94206568107797" lon="12.086161340395043"><ele>282.5</ele><time>2026-04-27T06:41:10.999Z</time></trkpt><trkpt lat="45.942010042642565" lon="12.086242266967965"><ele>282.0</ele><time>2026-04-27T06:41:15Z</time></trkpt><trkpt lat="45.941959462454854" lon="12.086323898828365"><ele>281.5</ele><time>2026-04-27T06:41:18Z</time></trkpt><trkpt lat="45.941912533066805" lon="12.086404304368841"><ele>281.0</ele><time>2026-04-27T06:41:21Z</time></trkpt><trkpt lat="45.94187696581192" lon="12.08648838494756"><ele>280.5</ele><time>2026-04-27T06:41:24Z</time></trkpt><trkpt lat="45.94182077226505" lon="12.086539793329266"><ele>280.0</ele><time>2026-04-27T06:41:29Z</time></trkpt><trkpt lat="45.94188830261301" lon="12.086700993700354"><ele>279.2</ele><time>2026-04-27T06:41:30Z</time></trkpt><trkpt lat="45.94193461002444" lon="12.086806876574837"><ele>278.4</ele><time>2026-04-27T06:41:31.999Z</time></trkpt><trkpt lat="45.941985971039806" lon="12.086931920033095"><ele>277.6</ele><time>2026-04-27T06:41:33.999Z</time></trkpt><trkpt lat="45.94204268041361" lon="12.087064140641088"><ele>276.8</ele><time>2026-04-27T06:41:35.999Z</time></trkpt><trkpt lat="45.94208777720965" lon="12.08717172427271"><ele>276.0</ele><time>2026-04-27T06:41:37.999Z</time></trkpt><trkpt lat="45.94212851098184" lon="12.087264677393383"><ele>276.0</ele><time>2026-04-27T06:42:16.999Z</time></trkpt><trkpt lat="45.94218383892324" lon="12.08738003235623"><ele>276.0</ele><time>2026-04-27T06:42:19.999Z</time></trkpt><trkpt lat="45.94223516981197" lon="12.087485567519968"><ele>276.0</ele><time>2026-04-27T06:42:21.999Z</time></trkpt><trkpt lat="45.94229253621033" lon="12.087585931967231"><ele>276.0</ele><time>2026-04-27T06:42:23.999Z</time></trkpt><trkpt lat="45.942325788925345" lon="12.087685437195383"><ele>276.0</ele><time>2026-04-27T06:42:25.999Z</time></trkpt><trkpt lat="45.94228531886217" lon="12.087583909860427"><ele>276.0</ele><time>2026-04-27T06:43:19Z</time></trkpt><trkpt lat="45.94225094300869" lon="12.087474358007293"><ele>276.0</ele><time>2026-04-27T06:43:21Z</time></trkpt><trkpt lat="45.942202977890496" lon="12.087382227900562"><ele>276.0</ele><time>2026-04-27T06:43:23Z</time></trkpt><trkpt lat="45.94215138495859" lon="12.087284769813529"><ele>276.0</ele><time>2026-04-27T06:43:25Z</time></trkpt><trkpt lat="45.94210013718002" lon="12.08716459941198"><ele>276.0</ele><time>2026-04-27T06:43:27Z</time></trkpt><trkpt lat="45.94204524753959" lon="12.087022184655732"><ele>276.0</ele><time>2026-04-27T06:43:29Z</time></trkpt><trkpt lat="45.942012770917486" lon="12.086944529824414"><ele>276.0</ele><time>2026-04-27T06:43:30Z</time></trkpt><trkpt lat="45.941979662896436" lon="12.086865857347767"><ele>276.0</ele><time>2026-04-27T06:43:31Z</time></trkpt><trkpt lat="45.94194620849875" lon="12.08678676488193"><ele>276.0</ele><time>2026-04-27T06:43:32Z</time></trkpt><trkpt lat="45.94191096897784" lon="12.086647596063516"><ele>276.0</ele><time>2026-04-27T06:43:34Z</time></trkpt><trkpt lat="45.94187547287383" lon="12.086559601427686"><ele>276.0</ele><time>2026-04-27T06:43:37Z</time></trkpt><trkpt lat="45.94177346387052" lon="12.086563963798987"><ele>276.0</ele><time>2026-04-27T06:43:40.999Z</time></trkpt><trkpt lat="45.941682737278306" lon="12.086630923968332"><ele>276.0</ele><time>2026-04-27T06:43:42.999Z</time></trkpt><trkpt lat="45.94159061194458" lon="12.086688572823416"><ele>275.3333333333333</ele><time>2026-04-27T06:43:44.999Z</time></trkpt><trkpt lat="45.94151603269812" lon="12.086755546175041"><ele>274.6666666666667</ele><time>2026-04-27T06:43:46.999Z</time></trkpt><trkpt lat="45.94146471921393" lon="12.086808533698107"><ele>274.0</ele><time>2026-04-27T06:43:49.999Z</time></trkpt><trkpt lat="45.941413391973" lon="12.086864368233348"><ele>273.33333333333337</ele><time>2026-04-27T06:43:54.999Z</time></trkpt><trkpt lat="45.94133926986364" lon="12.086940072367026"><ele>272.6666666666667</ele><time>2026-04-27T06:43:56.999Z</time></trkpt><trkpt lat="45.941242848631845" lon="12.087000694298379"><ele>272.0</ele><time>2026-04-27T06:43:58.999Z</time></trkpt><trkpt lat="45.941163571480416" lon="12.087079426391302"><ele>272.0</ele><time>2026-04-27T06:44:00.999Z</time></trkpt><trkpt lat="45.94110291336206" lon="12.08716824927779"><ele>272.0</ele><time>2026-04-27T06:44:02.999Z</time></trkpt><trkpt lat="45.94104595030933" lon="12.087236951809912"><ele>272.0</ele><time>2026-04-27T06:44:06.999Z</time></trkpt><trkpt lat="45.94099015116738" lon="12.087321899778388"><ele>272.0</ele><time>2026-04-27T06:44:11.999Z</time></trkpt><trkpt lat="45.94094136794555" lon="12.08740408100042"><ele>272.0</ele><time>2026-04-27T06:44:13.999Z</time></trkpt><trkpt lat="45.94088034608493" lon="12.087464429518908"><ele>272.0</ele><time>2026-04-27T06:44:15.999Z</time></trkpt><trkpt lat="45.94082583457541" lon="12.087551353221903"><ele>270.83333333333337</ele><time>2026-04-27T06:45:06.999Z</time></trkpt><trkpt lat="45.940775730487864" lon="12.087610223760505"><ele>269.6666666666667</ele><time>2026-04-27T06:45:08.999Z</time></trkpt><trkpt lat="45.9407164052593" lon="12.087682421371737"><ele>268.5</ele><time>2026-04-27T06:45:10.999Z</time></trkpt><trkpt lat="45.94066719661571" lon="12.087741111993179"><ele>267.3333333333333</ele><time>2026-04-27T06:45:13.999Z</time></trkpt><trkpt lat="45.94067546212144" lon="12.087903160712408"><ele>266.16666666666663</ele><time>2026-04-27T06:45:25Z</time></trkpt><trkpt lat="45.94073508678562" lon="12.087990290590833"><ele>265.0</ele><time>2026-04-27T06:45:27Z</time></trkpt><trkpt lat="45.94078369450873" lon="12.088087815463398"><ele>265.0</ele><time>2026-04-27T06:45:29Z</time></trkpt><trkpt lat="45.940810300586584" lon="12.08818403489215"><ele>265.0</ele><time>2026-04-27T06:45:31Z</time></trkpt><trkpt lat="45.94085040222835" lon="12.088279414667864"><ele>265.0</ele><time>2026-04-27T06:45:33Z</time></trkpt><trkpt lat="45.94090386073313" lon="12.088372635165658"><ele>265.0</ele><time>2026-04-27T06:45:35Z</time></trkpt><trkpt lat="45.940966465230474" lon="12.08848053047562"><ele>265.0</ele><time>2026-04-27T06:45:37Z</time></trkpt><trkpt lat="45.941028233023175" lon="12.088580853948008"><ele>265.0</ele><time>2026-04-27T06:45:39Z</time></trkpt><trkpt lat="45.94107918251343" lon="12.088663288146757"><ele>265.2</ele><time>2026-04-27T06:45:41Z</time></trkpt><trkpt lat="45.94114572731295" lon="12.088764764628129"><ele>265.4</ele><time>2026-04-27T06:45:44Z</time></trkpt><trkpt lat="45.94121421204434" lon="12.088858434935604"><ele>265.6</ele><time>2026-04-27T06:45:46Z</time></trkpt><trkpt lat="45.94129220539026" lon="12.088965044098005"><ele>265.8</ele><time>2026-04-27T06:45:48Z</time></trkpt><trkpt lat="45.94136818105938" lon="12.089069164240266"><ele>266.0</ele><time>2026-04-27T06:45:50Z</time></trkpt><trkpt lat="45.941423515061146" lon="12.089145091737079"><ele>266.0</ele><time>2026-04-27T06:45:52Z</time></trkpt><trkpt lat="45.94147024052587" lon="12.089213321931881"><ele>266.0</ele><time>2026-04-27T06:45:54Z</time></trkpt><trkpt lat="45.941514725160374" lon="12.089290314103323"><ele>266.0</ele><time>2026-04-27T06:45:58Z</time></trkpt><trkpt lat="45.94157556632147" lon="12.089396697365027"><ele>266.0</ele><time>2026-04-27T06:46:28Z</time></trkpt><trkpt lat="45.941628735168976" lon="12.089495043156218"><ele>266.0</ele><time>2026-04-27T06:46:30Z</time></trkpt><trkpt lat="45.94167460934712" lon="12.08958178283458"><ele>266.0</ele><time>2026-04-27T06:46:32Z</time></trkpt><trkpt lat="45.94171696175912" lon="12.089664119483988"><ele>266.0</ele><time>2026-04-27T06:46:35Z</time></trkpt><trkpt lat="45.94176842775835" lon="12.089778523297003"><ele>266.0</ele><time>2026-04-27T06:47:38Z</time></trkpt><trkpt lat="45.94180724201267" lon="12.08985962031193"><ele>266.0</ele><time>2026-04-27T06:47:40Z</time></trkpt><trkpt lat="45.94193655913782" lon="12.0896974594162"><ele>266.0</ele><time>2026-04-27T06:47:50Z</time></trkpt><trkpt lat="45.94198409722033" lon="12.089611351890653"><ele>266.0</ele><time>2026-04-27T06:47:52Z</time></trkpt><trkpt lat="45.942048231123614" lon="12.089527078805022"><ele>266.0</ele><time>2026-04-27T06:47:54Z</time></trkpt><trkpt lat="45.94211589791834" lon="12.089439379316465"><ele>266.0</ele><time>2026-04-27T06:47:56Z</time></trkpt><trkpt lat="45.94216896522158" lon="12.0893583302554"><ele>266.0</ele><time>2026-04-27T06:47:58Z</time></trkpt><trkpt lat="45.94219903783988" lon="12.089236391533381"><ele>266.0</ele><time>2026-04-27T06:48:01Z</time></trkpt><trkpt lat="45.94220176819978" lon="12.08913632023367"><ele>266.0</ele><time>2026-04-27T06:48:03Z</time></trkpt><trkpt lat="45.942211899635765" lon="12.089006269678766"><ele>266.0</ele><time>2026-04-27T06:48:05Z</time></trkpt><trkpt lat="45.94222470166079" lon="12.08885499773655"><ele>266.6</ele><time>2026-04-27T06:48:07Z</time></trkpt><trkpt lat="45.94223253165187" lon="12.088739111920965"><ele>267.20000000000005</ele><time>2026-04-27T06:48:09Z</time></trkpt><trkpt lat="45.94221469633611" lon="12.08862732712395"><ele>267.79999999999995</ele><time>2026-04-27T06:48:12Z</time></trkpt><trkpt lat="45.94209715101045" lon="12.088616396414167"><ele>268.4</ele><time>2026-04-27T06:48:16Z</time></trkpt><trkpt lat="45.94202372399343" lon="12.088578053894073"><ele>269.0</ele><time>2026-04-27T06:50:09Z</time></trkpt><trkpt lat="45.9420249139095" lon="12.088357581925134"><ele>269.57142857142856</ele><time>2026-04-27T06:50:10Z</time></trkpt><trkpt lat="45.941989424026076" lon="12.088241295382794"><ele>270.14285714285717</ele><time>2026-04-27T06:50:13Z</time></trkpt><trkpt lat="45.94196663936871" lon="12.08814677883169"><ele>270.7142857142857</ele><time>2026-04-27T06:50:18Z</time></trkpt><trkpt lat="45.94194664243642" lon="12.088057737362682"><ele>271.2857142857143</ele><time>2026-04-27T06:50:42Z</time></trkpt><trkpt lat="45.941922937965394" lon="12.087952282898401"><ele>271.8571428571429</ele><time>2026-04-27T06:50:50Z</time></trkpt><trkpt lat="45.9419025587327" lon="12.087861621705494"><ele>272.42857142857144</ele><time>2026-04-27T06:50:54Z</time></trkpt><trkpt lat="45.94187778431219" lon="12.087751407611155"><ele>273.0</ele><time>2026-04-27T06:51:01Z</time></trkpt><trkpt lat="45.94189956455538" lon="12.087848301500337"><ele>273.0</ele><time>2026-04-27T06:51:27Z</time></trkpt><trkpt lat="45.94192119276829" lon="12.08794451903015"><ele>273.0</ele><time>2026-04-27T06:51:32Z</time></trkpt><trkpt lat="45.941947857666825" lon="12.088063143868112"><ele>273.0</ele><time>2026-04-27T06:51:35Z</time></trkpt><trkpt lat="45.941968837888965" lon="12.088153292968018"><ele>273.0</ele><time>2026-04-27T06:51:40Z</time></trkpt><trkpt lat="45.94199233580889" lon="12.088261783324299"><ele>273.0</ele><time>2026-04-27T06:51:48Z</time></trkpt><trkpt lat="45.942035171976094" lon="12.088386766335828"><ele>273.0</ele><time>2026-04-27T06:52:05Z</time></trkpt><trkpt lat="45.94208239883859" lon="12.088539346273127"><ele>272.3333333333333</ele><time>2026-04-27T06:52:06Z</time></trkpt><trkpt lat="45.94206966374636" lon="12.088635455808788"><ele>271.6666666666667</ele><time>2026-04-27T06:52:18Z</time></trkpt><trkpt lat="45.941999458306334" lon="12.08869241470975"><ele>271.0</ele><time>2026-04-27T06:52:34Z</time></trkpt><trkpt lat="45.941911819168524" lon="12.088740014868353"><ele>270.33333333333337</ele><time>2026-04-27T06:52:36Z</time></trkpt><trkpt lat="45.941821474424195" lon="12.08876236128857"><ele>269.6666666666667</ele><time>2026-04-27T06:52:38Z</time></trkpt><trkpt lat="45.9417383859554" lon="12.08882686017793"><ele>269.0</ele><time>2026-04-27T06:52:40Z</time></trkpt><trkpt lat="45.94165376685232" lon="12.08889849631035"><ele>268.5</ele><time>2026-04-27T06:52:42Z</time></trkpt><trkpt lat="45.94159146069374" lon="12.088957962025681"><ele>268.0</ele><time>2026-04-27T06:52:58Z</time></trkpt><trkpt lat="45.941528470536085" lon="12.089029901887791"><ele>267.5</ele><time>2026-04-27T06:53:00Z</time></trkpt><trkpt lat="45.94147398764756" lon="12.089097973300495"><ele>267.0</ele><time>2026-04-27T06:53:03Z</time></trkpt><trkpt lat="45.941398580673365" lon="12.089058641408391"><ele>266.5</ele><time>2026-04-27T06:53:08Z</time></trkpt><trkpt lat="45.94134719548916" lon="12.088966294228175"><ele>266.0</ele><time>2026-04-27T06:53:10Z</time></trkpt><trkpt lat="45.94128429170422" lon="12.088892161393193"><ele>266.0</ele><time>2026-04-27T06:53:44Z</time></trkpt><trkpt lat="45.94122855423003" lon="12.088817742505176"><ele>266.0</ele><time>2026-04-27T06:53:46Z</time></trkpt><trkpt lat="45.94116264802785" lon="12.088728090775884"><ele>266.0</ele><time>2026-04-27T06:53:48Z</time></trkpt><trkpt lat="45.941103351809154" lon="12.088637033844794"><ele>266.0</ele><time>2026-04-27T06:53:50Z</time></trkpt><trkpt lat="45.94104685237336" lon="12.088537130012702"><ele>266.0</ele><time>2026-04-27T06:53:52Z</time></trkpt><trkpt lat="45.94098777344248" lon="12.088424952705777"><ele>266.0</ele><time>2026-04-27T06:53:54Z</time></trkpt><trkpt lat="45.94092471007349" lon="12.088305356537743"><ele>265.8</ele><time>2026-04-27T06:53:56Z</time></trkpt><trkpt lat="45.940865366767056" lon="12.088184747134294"><ele>265.6</ele><time>2026-04-27T06:53:58Z</time></trkpt><trkpt lat="45.940807946583384" lon="12.088070725340733"><ele>265.4</ele><time>2026-04-27T06:54:00Z</time></trkpt><trkpt lat="45.9407508385316" lon="12.087938826585079"><ele>265.2</ele><time>2026-04-27T06:54:02Z</time></trkpt><trkpt lat="45.94068875300298" lon="12.087794346259416"><ele>265.0</ele><time>2026-04-27T06:54:04Z</time></trkpt><trkpt lat="45.94062589435495" lon="12.087644040017498"><ele>265.0</ele><time>2026-04-27T06:54:06Z</time></trkpt><trkpt lat="45.94056612461412" lon="12.087487895766953"><ele>265.0</ele><time>2026-04-27T06:54:08Z</time></trkpt><trkpt lat="45.94051975423835" lon="12.087367568577953"><ele>265.0</ele><time>2026-04-27T06:54:10Z</time></trkpt><trkpt lat="45.94048575531142" lon="12.087276992600605"><ele>265.0</ele><time>2026-04-27T06:54:12Z</time></trkpt><trkpt lat="45.94043463845264" lon="12.087151390083722"><ele>265.0</ele><time>2026-04-27T06:54:14Z</time></trkpt><trkpt lat="45.94037845322669" lon="12.087017189310226"><ele>265.5</ele><time>2026-04-27T06:54:16Z</time></trkpt><trkpt lat="45.94032565457385" lon="12.086882240931695"><ele>266.0</ele><time>2026-04-27T06:54:18Z</time></trkpt><trkpt lat="45.940285257508364" lon="12.086779858506345"><ele>266.5</ele><time>2026-04-27T06:54:20Z</time></trkpt><trkpt lat="45.94025669927231" lon="12.086698136477226"><ele>267.0</ele><time>2026-04-27T06:54:38Z</time></trkpt><trkpt lat="45.94021230744499" lon="12.08659866027279"><ele>267.5</ele><time>2026-04-27T06:54:40Z</time></trkpt><trkpt lat="45.94015609775684" lon="12.08647861765545"><ele>268.0</ele><time>2026-04-27T06:54:42Z</time></trkpt><trkpt lat="45.94011470689251" lon="12.086400642815983"><ele>268.2</ele><time>2026-04-27T06:54:44Z</time></trkpt><trkpt lat="45.94003106893097" lon="12.086333154757849"><ele>268.4</ele><time>2026-04-27T06:55:08Z</time></trkpt><trkpt lat="45.93995367224922" lon="12.086260292190138"><ele>268.59999999999997</ele><time>2026-04-27T06:55:10Z</time></trkpt><trkpt lat="45.93986449458647" lon="12.086167519904386"><ele>268.8</ele><time>2026-04-27T06:55:12Z</time></trkpt><trkpt lat="45.93977195833771" lon="12.086083872672445"><ele>269.0</ele><time>2026-04-27T06:55:14Z</time></trkpt><trkpt lat="45.939691506125506" lon="12.08601754955029"><ele>269.0</ele><time>2026-04-27T06:55:16Z</time></trkpt><trkpt lat="45.93962294895038" lon="12.08595981989032"><ele>269.0</ele><time>2026-04-27T06:55:18Z</time></trkpt><trkpt lat="45.939556575505996" lon="12.085895135141904"><ele>269.0</ele><time>2026-04-27T06:55:20Z</time></trkpt><trkpt lat="45.93950478636496" lon="12.08584141202208"><ele>269.0</ele><time>2026-04-27T06:55:23Z</time></trkpt><trkpt lat="45.9395421655447" lon="12.085759720683821"><ele>269.0</ele><time>2026-04-27T06:55:34Z</time></trkpt><trkpt lat="45.93957622565433" lon="12.08566122361415"><ele>269.0</ele><time>2026-04-27T06:55:38Z</time></trkpt><trkpt lat="45.9395199575769" lon="12.085745297206179"><ele>269.0</ele><time>2026-04-27T06:55:40Z</time></trkpt><trkpt lat="45.939522916824245" lon="12.085577998436104"><ele>270.0</ele><time>2026-04-27T06:55:45Z</time></trkpt><trkpt lat="45.93946143328643" lon="12.085713093348456"><ele>271.0</ele><time>2026-04-27T06:55:50Z</time></trkpt><trkpt lat="45.93951350018956" lon="12.085576265579485"><ele>272.0</ele><time>2026-04-27T06:55:58Z</time></trkpt><trkpt lat="45.939449737621196" lon="12.085543024564524"><ele>273.0</ele><time>2026-04-27T06:56:03Z</time></trkpt><trkpt lat="45.93938540915389" lon="12.085524124164102"><ele>274.0</ele><time>2026-04-27T06:56:06Z</time></trkpt><trkpt lat="45.939306257854604" lon="12.085495344410669"><ele>275.0</ele><time>2026-04-27T06:56:28Z</time></trkpt><trkpt lat="45.93923919748041" lon="12.08548805943862"><ele>275.2857142857143</ele><time>2026-04-27T06:56:31Z</time></trkpt><trkpt lat="45.93917348154529" lon="12.085474587997641"><ele>275.57142857142856</ele><time>2026-04-27T06:56:34Z</time></trkpt><trkpt lat="45.9391088979371" lon="12.085483156675654"><ele>275.85714285714283</ele><time>2026-04-27T06:56:48Z</time></trkpt><trkpt lat="45.93915645939203" lon="12.085557845206166"><ele>276.1428571428571</ele><time>2026-04-27T06:57:38Z</time></trkpt><trkpt lat="45.93909967098806" lon="12.085492704517844"><ele>276.4285714285714</ele><time>2026-04-27T06:58:31Z</time></trkpt><trkpt lat="45.93912624455029" lon="12.085397438548883"><ele>276.7142857142857</ele><time>2026-04-27T06:58:51Z</time></trkpt><trkpt lat="45.939169784120494" lon="12.085308278344135"><ele>277.0</ele><time>2026-04-27T06:58:53Z</time></trkpt><trkpt lat="45.939205377156725" lon="12.08520107773947"><ele>276.66666666666663</ele><time>2026-04-27T06:59:19Z</time></trkpt><trkpt lat="45.93924551761209" lon="12.08508177422141"><ele>276.3333333333333</ele><time>2026-04-27T06:59:21Z</time></trkpt><trkpt lat="45.93928519399226" lon="12.084988625344282"><ele>276.0</ele><time>2026-04-27T06:59:23Z</time></trkpt><trkpt lat="45.93932722376263" lon="12.084856935708826"><ele>275.6666666666667</ele><time>2026-04-27T06:59:44Z</time></trkpt><trkpt lat="45.93936203844732" lon="12.08477037322145"><ele>275.33333333333337</ele><time>2026-04-27T06:59:47Z</time></trkpt><trkpt lat="45.939420470995195" lon="12.084666195435533"><ele>275.0</ele><time>2026-04-27T07:00:23Z</time></trkpt><trkpt lat="45.93946562309371" lon="12.084550247931475"><ele>276.2</ele><time>2026-04-27T07:00:25Z</time></trkpt><trkpt lat="45.93950549581216" lon="12.084426390786236"><ele>277.4</ele><time>2026-04-27T07:00:27Z</time></trkpt><trkpt lat="45.939537049171875" lon="12.084287385892347"><ele>278.6</ele><time>2026-04-27T07:00:29Z</time></trkpt><trkpt lat="45.93953942368624" lon="12.084126288782656"><ele>279.8</ele><time>2026-04-27T07:00:31Z</time></trkpt><trkpt lat="45.939531093777646" lon="12.08402168331854"><ele>281.0</ele><time>2026-04-27T07:00:33Z</time></trkpt><trkpt lat="45.93951560913866" lon="12.08388714949226"><ele>282.83333333333337</ele><time>2026-04-27T07:01:14Z</time></trkpt><trkpt lat="45.939504303533795" lon="12.083764338288729"><ele>284.6666666666667</ele><time>2026-04-27T07:01:17Z</time></trkpt><trkpt lat="45.93949565996249" lon="12.083660426381265"><ele>286.5</ele><time>2026-04-27T07:01:19Z</time></trkpt><trkpt lat="45.93948726839362" lon="12.083553229615955"><ele>288.3333333333333</ele><time>2026-04-27T07:01:21Z</time></trkpt><trkpt lat="45.93944582394597" lon="12.083447629144521"><ele>290.16666666666663</ele><time>2026-04-27T07:01:23Z</time></trkpt><trkpt lat="45.93936346828536" lon="12.083424272444544"><ele>292.0</ele><time>2026-04-27T07:01:47Z</time></trkpt><trkpt lat="45.939290760919334" lon="12.083354310142308"><ele>293.3333333333333</ele><time>2026-04-27T07:01:49Z</time></trkpt><trkpt lat="45.93918395551963" lon="12.083297276059069"><ele>294.6666666666667</ele><time>2026-04-27T07:01:51Z</time></trkpt><trkpt lat="45.93908897788281" lon="12.083250984405572"><ele>296.0</ele><time>2026-04-27T07:01:53Z</time></trkpt><trkpt lat="45.93852226187599" lon="12.083934405957764"><ele>296.0</ele><time>2026-04-27T07:02:57Z</time></trkpt><trkpt lat="45.93846459647866" lon="12.083972689881723"><ele>296.0</ele><time>2026-04-27T07:02:59Z</time></trkpt><trkpt lat="45.93839408593888" lon="12.083996680905456"><ele>296.0</ele><time>2026-04-27T07:03:01Z</time></trkpt><trkpt lat="45.93831587388854" lon="12.083997911217294"><ele>296.0</ele><time>2026-04-27T07:03:41Z</time></trkpt><trkpt lat="45.93822589021539" lon="12.083998030317145"><ele>296.0</ele><time>2026-04-27T07:03:44Z</time></trkpt><trkpt lat="45.93815837134677" lon="12.084015898643498"><ele>296.0</ele><time>2026-04-27T07:04:11Z</time></trkpt><trkpt lat="45.93818485844157" lon="12.084133989509212"><ele>293.6</ele><time>2026-04-27T07:04:14Z</time></trkpt><trkpt lat="45.93812750250416" lon="12.084187969708056"><ele>291.20000000000005</ele><time>2026-04-27T07:04:15Z</time></trkpt><trkpt lat="45.93809930827999" lon="12.084335597222445"><ele>288.79999999999995</ele><time>2026-04-27T07:04:17Z</time></trkpt><trkpt lat="45.93806734604595" lon="12.084462741375178"><ele>286.4</ele><time>2026-04-27T07:04:19Z</time></trkpt><trkpt lat="45.938052200368695" lon="12.084560615210835"><ele>284.0</ele><time>2026-04-27T07:04:22Z</time></trkpt><trkpt lat="45.938140518499736" lon="12.084674436347662"><ele>284.0</ele><time>2026-04-27T07:04:28Z</time></trkpt><trkpt lat="45.93824953598908" lon="12.084710646249647"><ele>284.0</ele><time>2026-04-27T07:04:30Z</time></trkpt><trkpt lat="45.93831510533313" lon="12.084731003103622"><ele>284.0</ele><time>2026-04-27T07:04:31Z</time></trkpt><trkpt lat="45.938379455086974" lon="12.084754760773329"><ele>284.0</ele><time>2026-04-27T07:04:32Z</time></trkpt><trkpt lat="45.93844115071907" lon="12.08478815058934"><ele>284.0</ele><time>2026-04-27T07:04:33Z</time></trkpt><trkpt lat="45.9385007082615" lon="12.084838012518144"><ele>284.0</ele><time>2026-04-27T07:04:34Z</time></trkpt><trkpt lat="45.93855490705208" lon="12.084904502866008"><ele>282.59999999999997</ele><time>2026-04-27T07:04:35Z</time></trkpt><trkpt lat="45.93860588191876" lon="12.08498462103238"><ele>281.2</ele><time>2026-04-27T07:04:36Z</time></trkpt><trkpt lat="45.93865186688856" lon="12.085061768347122"><ele>279.79999999999995</ele><time>2026-04-27T07:04:37Z</time></trkpt><trkpt lat="45.93872679014866" lon="12.085189408279897"><ele>278.4</ele><time>2026-04-27T07:04:39Z</time></trkpt><trkpt lat="45.938766668404874" lon="12.085265981019164"><ele>277.0</ele><time>2026-04-27T07:04:44Z</time></trkpt><trkpt lat="45.93860626427935" lon="12.085440857703588"><ele>277.0</ele><time>2026-04-27T07:05:06Z</time></trkpt><trkpt lat="45.93854428741761" lon="12.085553233633766"><ele>277.0</ele><time>2026-04-27T07:05:08Z</time></trkpt><trkpt lat="45.93847827881402" lon="12.085667470660487"><ele>277.0</ele><time>2026-04-27T07:05:10Z</time></trkpt><trkpt lat="45.938402599846185" lon="12.08578056120723"><ele>277.0</ele><time>2026-04-27T07:05:12Z</time></trkpt><trkpt lat="45.93834722463299" lon="12.085866836830212"><ele>277.0</ele><time>2026-04-27T07:05:14Z</time></trkpt><trkpt lat="45.93828631978943" lon="12.085997187264484"><ele>275.8</ele><time>2026-04-27T07:05:30Z</time></trkpt><trkpt lat="45.93823050816561" lon="12.086147837359123"><ele>274.6</ele><time>2026-04-27T07:05:32Z</time></trkpt><trkpt lat="45.93817799357209" lon="12.086263391156043"><ele>273.40000000000003</ele><time>2026-04-27T07:05:34Z</time></trkpt><trkpt lat="45.9381493836529" lon="12.086345298232738"><ele>272.2</ele><time>2026-04-27T07:05:36Z</time></trkpt><trkpt lat="45.9382539820298" lon="12.086421450026016"><ele>271.0</ele><time>2026-04-27T07:05:37Z</time></trkpt><trkpt lat="45.938363842686535" lon="12.086469912375128"><ele>271.0</ele><time>2026-04-27T07:05:39Z</time></trkpt><trkpt lat="45.938448045534315" lon="12.086523048740846"><ele>271.0</ele><time>2026-04-27T07:05:41Z</time></trkpt><trkpt lat="45.93851183600147" lon="12.08657187318477"><ele>271.0</ele><time>2026-04-27T07:05:55Z</time></trkpt><trkpt lat="45.93861354296425" lon="12.086635848060663"><ele>271.0</ele><time>2026-04-27T07:05:57Z</time></trkpt><trkpt lat="45.93866983660931" lon="12.086676574488932"><ele>271.0</ele><time>2026-04-27T07:05:58Z</time></trkpt><trkpt lat="45.93872603811261" lon="12.086717945287987"><ele>271.0</ele><time>2026-04-27T07:05:59Z</time></trkpt><trkpt lat="45.93883556257914" lon="12.086803258079751"><ele>269.6</ele><time>2026-04-27T07:06:01Z</time></trkpt><trkpt lat="45.93893120352663" lon="12.086885159109109"><ele>268.20000000000005</ele><time>2026-04-27T07:06:03Z</time></trkpt><trkpt lat="45.93901423531907" lon="12.086957714659023"><ele>266.79999999999995</ele><time>2026-04-27T07:06:05Z</time></trkpt><trkpt lat="45.93908692308961" lon="12.087018135331007"><ele>265.4</ele><time>2026-04-27T07:06:07Z</time></trkpt><trkpt lat="45.93901263070523" lon="12.086955029583027"><ele>264.0</ele><time>2026-04-27T07:06:27Z</time></trkpt><trkpt lat="45.938950864503205" lon="12.086895194710921"><ele>264.0</ele><time>2026-04-27T07:06:32Z</time></trkpt><trkpt lat="45.938890487304356" lon="12.086807171971554"><ele>264.0</ele><time>2026-04-27T07:06:42Z</time></trkpt><trkpt lat="45.938824587673295" lon="12.086759030837152"><ele>264.0</ele><time>2026-04-27T07:06:44Z</time></trkpt><trkpt lat="45.938741715108634" lon="12.086700902691149"><ele>264.0</ele><time>2026-04-27T07:06:46Z</time></trkpt><trkpt lat="45.938641683873186" lon="12.086623524723965"><ele>264.0</ele><time>2026-04-27T07:06:48Z</time></trkpt><trkpt lat="45.93853245781041" lon="12.086548806328295"><ele>265.4</ele><time>2026-04-27T07:06:50Z</time></trkpt><trkpt lat="45.93846111575205" lon="12.086505590149361"><ele>266.79999999999995</ele><time>2026-04-27T07:06:51Z</time></trkpt><trkpt lat="45.93834003942732" lon="12.086438256467813"><ele>268.20000000000005</ele><time>2026-04-27T07:06:53Z</time></trkpt><trkpt lat="45.938278876911404" lon="12.086406603182851"><ele>269.6</ele><time>2026-04-27T07:06:54Z</time></trkpt><trkpt lat="45.9382155857091" lon="12.086306185381645"><ele>271.0</ele><time>2026-04-27T07:06:56Z</time></trkpt><trkpt lat="45.93824535860633" lon="12.08614017454155"><ele>271.0</ele><time>2026-04-27T07:06:58Z</time></trkpt><trkpt lat="45.93830531130396" lon="12.085981676310231"><ele>271.0</ele><time>2026-04-27T07:07:00Z</time></trkpt><trkpt lat="45.93835171969706" lon="12.085897770037096"><ele>271.0</ele><time>2026-04-27T07:07:01Z</time></trkpt><trkpt lat="45.93839929075556" lon="12.085821450638127"><ele>271.0</ele><time>2026-04-27T07:07:02Z</time></trkpt><trkpt lat="45.93844260824955" lon="12.08574669833983"><ele>271.0</ele><time>2026-04-27T07:07:03Z</time></trkpt><trkpt lat="45.93848435726066" lon="12.085674544365432"><ele>271.0</ele><time>2026-04-27T07:07:04Z</time></trkpt><trkpt lat="45.938549365977536" lon="12.085576062127142"><ele>272.0</ele><time>2026-04-27T07:07:06Z</time></trkpt><trkpt lat="45.93859385591602" lon="12.085499013537458"><ele>273.0</ele><time>2026-04-27T07:07:25Z</time></trkpt><trkpt lat="45.93865100132338" lon="12.085397638056744"><ele>274.0</ele><time>2026-04-27T07:07:27Z</time></trkpt><trkpt lat="45.938734691406836" lon="12.085329273142786"><ele>275.0</ele><time>2026-04-27T07:07:29Z</time></trkpt><trkpt lat="45.93878403743981" lon="12.0852665984016"><ele>276.0</ele><time>2026-04-27T07:07:34Z</time></trkpt><trkpt lat="45.93885172653542" lon="12.085286450875252"><ele>277.0</ele><time>2026-04-27T07:07:36Z</time></trkpt><trkpt lat="45.93892857582875" lon="12.085401774153814"><ele>277.0</ele><time>2026-04-27T07:07:38Z</time></trkpt><trkpt lat="45.93900170934851" lon="12.08546120615041"><ele>277.0</ele><time>2026-04-27T07:07:40Z</time></trkpt><trkpt lat="45.93908422188342" lon="12.085534886027972"><ele>277.0</ele><time>2026-04-27T07:08:02Z</time></trkpt><trkpt lat="45.939141086253045" lon="12.085587158775215"><ele>277.0</ele><time>2026-04-27T07:08:04Z</time></trkpt><trkpt lat="45.939229870018174" lon="12.085659425324524"><ele>277.0</ele><time>2026-04-27T07:08:22Z</time></trkpt><trkpt lat="45.93928593332838" lon="12.085710713281848"><ele>277.0</ele><time>2026-04-27T07:08:23Z</time></trkpt><trkpt lat="45.939348102227235" lon="12.085763968063947"><ele>275.66666666666663</ele><time>2026-04-27T07:08:24Z</time></trkpt><trkpt lat="45.939406756347786" lon="12.085815855390063"><ele>274.3333333333333</ele><time>2026-04-27T07:08:25Z</time></trkpt><trkpt lat="45.939479232652126" lon="12.085878607420879"><ele>273.0</ele><time>2026-04-27T07:08:27Z</time></trkpt><trkpt lat="45.93954549165554" lon="12.085934213087475"><ele>271.6666666666667</ele><time>2026-04-27T07:08:40Z</time></trkpt><trkpt lat="45.93961568606363" lon="12.085995539660063"><ele>270.33333333333337</ele><time>2026-04-27T07:08:42Z</time></trkpt><trkpt lat="45.939701896387746" lon="12.086057739607872"><ele>269.0</ele><time>2026-04-27T07:09:27Z</time></trkpt><trkpt lat="45.93980968703496" lon="12.08614876851514"><ele>269.0</ele><time>2026-04-27T07:09:29Z</time></trkpt><trkpt lat="45.939873407380794" lon="12.086206244556884"><ele>269.0</ele><time>2026-04-27T07:09:30Z</time></trkpt><trkpt lat="45.93994290231819" lon="12.086268382793554"><ele>269.0</ele><time>2026-04-27T07:09:31Z</time></trkpt><trkpt lat="45.93999549554818" lon="12.086358370292055"><ele>269.0</ele><time>2026-04-27T07:09:32Z</time></trkpt><trkpt lat="45.940056059184975" lon="12.086434860571655"><ele>269.0</ele><time>2026-04-27T07:09:33Z</time></trkpt><trkpt lat="45.940115458254766" lon="12.086519419750497"><ele>269.0</ele><time>2026-04-27T07:09:34Z</time></trkpt><trkpt lat="45.94018337522007" lon="12.086595929425114"><ele>268.8</ele><time>2026-04-27T07:09:35Z</time></trkpt><trkpt lat="45.940218113286605" lon="12.086715052015577"><ele>268.59999999999997</ele><time>2026-04-27T07:09:36Z</time></trkpt><trkpt lat="45.94027727180447" lon="12.086814641305748"><ele>268.4</ele><time>2026-04-27T07:09:37Z</time></trkpt><trkpt lat="45.94032109643295" lon="12.086930777337558"><ele>268.2</ele><time>2026-04-27T07:09:38Z</time></trkpt><trkpt lat="45.940367075851576" lon="12.087047254623828"><ele>268.0</ele><time>2026-04-27T07:09:39Z</time></trkpt><trkpt lat="45.94040883978861" lon="12.087153176733807"><ele>268.0</ele><time>2026-04-27T07:09:40Z</time></trkpt><trkpt lat="45.94045311984897" lon="12.087274129974483"><ele>268.0</ele><time>2026-04-27T07:09:42Z</time></trkpt><trkpt lat="45.940507478462735" lon="12.087406686624009"><ele>268.0</ele><time>2026-04-27T07:09:59Z</time></trkpt><trkpt lat="45.94057365165126" lon="12.087571609610153"><ele>268.0</ele><time>2026-04-27T07:10:01Z</time></trkpt><trkpt lat="45.94061102423329" lon="12.087669009347621"><ele>268.0</ele><time>2026-04-27T07:10:02Z</time></trkpt><trkpt lat="45.94065164219749" lon="12.087768426180286"><ele>267.66666666666663</ele><time>2026-04-27T07:10:03Z</time></trkpt><trkpt lat="45.940693451385705" lon="12.087870599423045"><ele>267.3333333333333</ele><time>2026-04-27T07:10:04Z</time></trkpt><trkpt lat="45.94073562224821" lon="12.087971031585635"><ele>267.0</ele><time>2026-04-27T07:10:05Z</time></trkpt><trkpt lat="45.94077681467544" lon="12.088069419088276"><ele>266.6666666666667</ele><time>2026-04-27T07:10:06Z</time></trkpt><trkpt lat="45.94082024107404" lon="12.088165299127883"><ele>266.33333333333337</ele><time>2026-04-27T07:10:07Z</time></trkpt><trkpt lat="45.94086806392922" lon="12.088254711995031"><ele>266.0</ele><time>2026-04-27T07:10:08Z</time></trkpt><trkpt lat="45.94091587960377" lon="12.088342126453531"><ele>266.0</ele><time>2026-04-27T07:10:09Z</time></trkpt><trkpt lat="45.94096098259995" lon="12.088426462903325"><ele>266.0</ele><time>2026-04-27T07:10:10Z</time></trkpt><trkpt lat="45.94100210919718" lon="12.088504978421563"><ele>266.0</ele><time>2026-04-27T07:10:11Z</time></trkpt><trkpt lat="45.94106594849075" lon="12.088614806154903"><ele>266.0</ele><time>2026-04-27T07:10:13Z</time></trkpt><trkpt lat="45.94109538272345" lon="12.088712478100812"><ele>266.0</ele><time>2026-04-27T07:10:16Z</time></trkpt><trkpt lat="45.94100807830542" lon="12.088728651991204"><ele>266.0</ele><time>2026-04-27T07:10:19Z</time></trkpt><trkpt lat="45.940926621148016" lon="12.088786515120823"><ele>265.40000000000003</ele><time>2026-04-27T07:10:48Z</time></trkpt><trkpt lat="45.940833730917234" lon="12.088857528376641"><ele>264.8</ele><time>2026-04-27T07:10:50Z</time></trkpt><trkpt lat="45.94074173212197" lon="12.088968664738594"><ele>264.20000000000005</ele><time>2026-04-27T07:10:52Z</time></trkpt><trkpt lat="45.94065361138036" lon="12.089071503152898"><ele>263.6</ele><time>2026-04-27T07:10:54Z</time></trkpt><trkpt lat="45.940577063370846" lon="12.089133408438695"><ele>263.0</ele><time>2026-04-27T07:11:08Z</time></trkpt><trkpt lat="45.94048950295193" lon="12.089232328294669"><ele>262.2</ele><time>2026-04-27T07:11:10Z</time></trkpt><trkpt lat="45.940404974708905" lon="12.089329351948447"><ele>261.4</ele><time>2026-04-27T07:11:12Z</time></trkpt><trkpt lat="45.94033311183959" lon="12.08941222987399"><ele>260.59999999999997</ele><time>2026-04-27T07:11:48Z</time></trkpt><trkpt lat="45.94026926333261" lon="12.089516112215575"><ele>259.8</ele><time>2026-04-27T07:11:50Z</time></trkpt><trkpt lat="45.94018479626887" lon="12.089583281001135"><ele>259.0</ele><time>2026-04-27T07:11:52Z</time></trkpt><trkpt lat="45.94011027832991" lon="12.08968176660109"><ele>258.5</ele><time>2026-04-27T07:11:54Z</time></trkpt><trkpt lat="45.94004967854128" lon="12.089761506036492"><ele>258.0</ele><time>2026-04-27T07:12:19Z</time></trkpt><trkpt lat="45.939987195640164" lon="12.089886346983423"><ele>257.5</ele><time>2026-04-27T07:12:21Z</time></trkpt><trkpt lat="45.93993640922479" lon="12.08994754179876"><ele>257.0</ele><time>2026-04-27T07:12:22Z</time></trkpt><trkpt lat="45.93988161097481" lon="12.090017954194803"><ele>256.5</ele><time>2026-04-27T07:12:23Z</time></trkpt><trkpt lat="45.93982253613717" lon="12.09009654905005"><ele>256.0</ele><time>2026-04-27T07:12:24Z</time></trkpt><trkpt lat="45.93976098374884" lon="12.090177442110361"><ele>255.66666666666666</ele><time>2026-04-27T07:12:25Z</time></trkpt><trkpt lat="45.93969733630362" lon="12.090259424374814"><ele>255.33333333333331</ele><time>2026-04-27T07:12:26Z</time></trkpt><trkpt lat="45.93963126134427" lon="12.090334322009634"><ele>255.0</ele><time>2026-04-27T07:12:27Z</time></trkpt><trkpt lat="45.93956841451193" lon="12.090396593086394"><ele>254.66666666666669</ele><time>2026-04-27T07:12:28Z</time></trkpt><trkpt lat="45.939478331148216" lon="12.090480984288256"><ele>254.33333333333334</ele><time>2026-04-27T07:12:30Z</time></trkpt><trkpt lat="45.93939955349192" lon="12.090552808216806"><ele>254.0</ele><time>2026-04-27T07:12:46Z</time></trkpt><trkpt lat="45.939283565072" lon="12.090594991364101"><ele>254.00000000000003</ele><time>2026-04-27T07:12:48Z</time></trkpt><trkpt lat="45.9392178609427" lon="12.090656956896126"><ele>254.0</ele><time>2026-04-27T07:12:49Z</time></trkpt><trkpt lat="45.93913827913697" lon="12.090694701092964"><ele>254.0</ele><time>2026-04-27T07:12:50Z</time></trkpt><trkpt lat="45.93905833281683" lon="12.090734291527696"><ele>254.0</ele><time>2026-04-27T07:12:51Z</time></trkpt><trkpt lat="45.938978779126295" lon="12.090777244503816"><ele>254.00000000000003</ele><time>2026-04-27T07:12:52Z</time></trkpt><trkpt lat="45.93890206619919" lon="12.09082541376815"><ele>254.0</ele><time>2026-04-27T07:12:53Z</time></trkpt><trkpt lat="45.93882487095302" lon="12.090878034706355"><ele>253.00000000000003</ele><time>2026-04-27T07:12:54Z</time></trkpt><trkpt lat="45.93875008763291" lon="12.09093267793907"><ele>252.0</ele><time>2026-04-27T07:12:55Z</time></trkpt><trkpt lat="45.93867461291882" lon="12.09098669355268"><ele>251.0</ele><time>2026-04-27T07:12:56Z</time></trkpt><trkpt lat="45.93859829139088" lon="12.091041657207485"><ele>250.0</ele><time>2026-04-27T07:12:57Z</time></trkpt><trkpt lat="45.93852621061583" lon="12.09109407930541"><ele>249.00000000000003</ele><time>2026-04-27T07:12:58Z</time></trkpt><trkpt lat="45.93843132529608" lon="12.091174990795041"><ele>248.0</ele><time>2026-04-27T07:13:00Z</time></trkpt><trkpt lat="45.938446223312724" lon="12.091371834960665"><ele>248.0</ele><time>2026-04-27T07:13:03Z</time></trkpt><trkpt lat="45.938478561986386" lon="12.091449566405842"><ele>248.00000000000003</ele><time>2026-04-27T07:13:04Z</time></trkpt><trkpt lat="45.93852077653454" lon="12.091518773557935"><ele>248.0</ele><time>2026-04-27T07:13:05Z</time></trkpt><trkpt lat="45.93856773173911" lon="12.091595752560949"><ele>248.0</ele><time>2026-04-27T07:13:06Z</time></trkpt><trkpt lat="45.93861815089672" lon="12.091678410441626"><ele>248.00000000000003</ele><time>2026-04-27T07:13:07Z</time></trkpt><trkpt lat="45.93866908294148" lon="12.091761909123711"><ele>248.0</ele><time>2026-04-27T07:13:08Z</time></trkpt><trkpt lat="45.93871797040269" lon="12.091842055798242"><ele>248.0</ele><time>2026-04-27T07:13:09Z</time></trkpt><trkpt lat="45.93876546183903" lon="12.091920682646037"><ele>247.50000000000003</ele><time>2026-04-27T07:13:10Z</time></trkpt><trkpt lat="45.938823188026674" lon="12.091980919488238"><ele>247.0</ele><time>2026-04-27T07:13:11Z</time></trkpt><trkpt lat="45.93886689526206" lon="12.092062425738227"><ele>246.5</ele><time>2026-04-27T07:13:12Z</time></trkpt><trkpt lat="45.938914798251766" lon="12.092150276173818"><ele>246.0</ele><time>2026-04-27T07:13:13Z</time></trkpt><trkpt lat="45.938969283305745" lon="12.092241409910512"><ele>245.50000000000003</ele><time>2026-04-27T07:13:14Z</time></trkpt><trkpt lat="45.93902651043826" lon="12.092331564174646"><ele>245.0</ele><time>2026-04-27T07:13:15Z</time></trkpt><trkpt lat="45.939078964749655" lon="12.092413351264208"><ele>245.00000000000003</ele><time>2026-04-27T07:13:16Z</time></trkpt><trkpt lat="45.939126486727766" lon="12.092495722398402"><ele>245.0</ele><time>2026-04-27T07:13:17Z</time></trkpt><trkpt lat="45.939172003197555" lon="12.092567460052296"><ele>245.0</ele><time>2026-04-27T07:13:18Z</time></trkpt><trkpt lat="45.939232577667994" lon="12.092689904433495"><ele>245.0</ele><time>2026-04-27T07:13:20Z</time></trkpt><trkpt lat="45.93927304250293" lon="12.092775604862702"><ele>245.00000000000003</ele><time>2026-04-27T07:13:36Z</time></trkpt><trkpt lat="45.939340779252404" lon="12.092729028154839"><ele>245.0</ele><time>2026-04-27T07:13:37Z</time></trkpt><trkpt lat="45.93943888812411" lon="12.092639231429523"><ele>245.00000000000003</ele><time>2026-04-27T07:13:39Z</time></trkpt><trkpt lat="45.939498528712676" lon="12.092586917550081"><ele>245.0</ele><time>2026-04-27T07:13:40Z</time></trkpt><trkpt lat="45.939563233153436" lon="12.092522801706426"><ele>245.0</ele><time>2026-04-27T07:13:41Z</time></trkpt><trkpt lat="45.93963112595932" lon="12.09245572743712"><ele>245.0</ele><time>2026-04-27T07:13:42Z</time></trkpt><trkpt lat="45.93970433132934" lon="12.092389734478433"><ele>245.00000000000003</ele><time>2026-04-27T07:13:43Z</time></trkpt><trkpt lat="45.939780694584286" lon="12.09232509244648"><ele>245.0</ele><time>2026-04-27T07:13:44Z</time></trkpt><trkpt lat="45.93985330583621" lon="12.0922618789237"><ele>245.00000000000003</ele><time>2026-04-27T07:13:45Z</time></trkpt><trkpt lat="45.93991901555338" lon="12.092204343751952"><ele>245.0</ele><time>2026-04-27T07:13:46Z</time></trkpt><trkpt lat="45.93997543491717" lon="12.092156309538518"><ele>245.0</ele><time>2026-04-27T07:13:47Z</time></trkpt><trkpt lat="45.940048994310985" lon="12.092092752327464"><ele>245.0</ele><time>2026-04-27T07:13:49Z</time></trkpt><trkpt lat="45.94010087291394" lon="12.092016167770621"><ele>245.00000000000003</ele><time>2026-04-27T07:13:56Z</time></trkpt><trkpt lat="45.94010288508659" lon="12.092116903637779"><ele>245.0</ele><time>2026-04-27T07:18:38Z</time></trkpt><trkpt lat="45.940023381364135" lon="12.092094085424362"><ele>245.00000000000003</ele><time>2026-04-27T07:18:50Z</time></trkpt><trkpt lat="45.93996213444484" lon="12.092148978445515"><ele>245.0</ele><time>2026-04-27T07:18:52Z</time></trkpt><trkpt lat="45.9398700495091" lon="12.092262839125508"><ele>245.0</ele><time>2026-04-27T07:18:54Z</time></trkpt><trkpt lat="45.939816892913065" lon="12.092319330589673"><ele>245.0</ele><time>2026-04-27T07:18:55Z</time></trkpt><trkpt lat="45.93977155241912" lon="12.092387727533797"><ele>245.00000000000003</ele><time>2026-04-27T07:18:56Z</time></trkpt><trkpt lat="45.93971564108305" lon="12.092458950154247"><ele>245.0</ele><time>2026-04-27T07:18:57Z</time></trkpt><trkpt lat="45.93965693474322" lon="12.092533733043142"><ele>245.0</ele><time>2026-04-27T07:18:58Z</time></trkpt><trkpt lat="45.93952280193554" lon="12.092494264536382"><ele>245.0</ele><time>2026-04-27T07:18:59Z</time></trkpt><trkpt lat="45.93945115001852" lon="12.092559796635372"><ele>245.0</ele><time>2026-04-27T07:19:00Z</time></trkpt><trkpt lat="45.93937770882326" lon="12.09262730848058"><ele>245.0</ele><time>2026-04-27T07:19:01Z</time></trkpt><trkpt lat="45.93930162123627" lon="12.092695616001325"><ele>245.0</ele><time>2026-04-27T07:19:02Z</time></trkpt><trkpt lat="45.93922439741226" lon="12.09276677803054"><ele>244.6</ele><time>2026-04-27T07:19:03Z</time></trkpt><trkpt lat="45.939147475374575" lon="12.092841752269939"><ele>244.2</ele><time>2026-04-27T07:19:04Z</time></trkpt><trkpt lat="45.93907071417424" lon="12.092920558560188"><ele>243.8</ele><time>2026-04-27T07:19:05Z</time></trkpt><trkpt lat="45.9389912600504" lon="12.093000033426932"><ele>243.4</ele><time>2026-04-27T07:19:06Z</time></trkpt><trkpt lat="45.93891273723715" lon="12.093081170560474"><ele>243.0</ele><time>2026-04-27T07:19:07Z</time></trkpt><trkpt lat="45.93883476492198" lon="12.093164290429204"><ele>243.0</ele><time>2026-04-27T07:19:08Z</time></trkpt><trkpt lat="45.93875606062446" lon="12.093247495027786"><ele>243.0</ele><time>2026-04-27T07:19:09Z</time></trkpt><trkpt lat="45.93867779400851" lon="12.093330644438792"><ele>243.0</ele><time>2026-04-27T07:19:10Z</time></trkpt><trkpt lat="45.938599628907255" lon="12.093413934882282"><ele>243.0</ele><time>2026-04-27T07:19:11Z</time></trkpt><trkpt lat="45.93852316296785" lon="12.093499395480878"><ele>243.0</ele><time>2026-04-27T07:19:12Z</time></trkpt><trkpt lat="45.9384475507583" lon="12.093589069371953"><ele>241.60000000000002</ele><time>2026-04-27T07:19:13Z</time></trkpt><trkpt lat="45.93837449804574" lon="12.093683178717088"><ele>240.20000000000002</ele><time>2026-04-27T07:19:14Z</time></trkpt><trkpt lat="45.93830416104645" lon="12.09378255667575"><ele>238.8</ele><time>2026-04-27T07:19:15Z</time></trkpt><trkpt lat="45.93823672751073" lon="12.09388652823158"><ele>237.4</ele><time>2026-04-27T07:19:16Z</time></trkpt><trkpt lat="45.93817096035532" lon="12.09399553028406"><ele>236.0</ele><time>2026-04-27T07:19:17Z</time></trkpt><trkpt lat="45.938105303120565" lon="12.094105966792581"><ele>235.60000000000002</ele><time>2026-04-27T07:19:18Z</time></trkpt><trkpt lat="45.93804040926452" lon="12.09422244002241"><ele>235.20000000000002</ele><time>2026-04-27T07:19:19Z</time></trkpt><trkpt lat="45.93797462503989" lon="12.09434005240621"><ele>234.79999999999998</ele><time>2026-04-27T07:19:20Z</time></trkpt><trkpt lat="45.93790701631517" lon="12.094459713041193"><ele>234.39999999999998</ele><time>2026-04-27T07:19:21Z</time></trkpt><trkpt lat="45.93783940702903" lon="12.09458158200929"><ele>234.0</ele><time>2026-04-27T07:19:22Z</time></trkpt><trkpt lat="45.937770491445264" lon="12.09470533653488"><ele>234.0</ele><time>2026-04-27T07:19:23Z</time></trkpt><trkpt lat="45.93770145541734" lon="12.094830689945919"><ele>234.0</ele><time>2026-04-27T07:19:24Z</time></trkpt><trkpt lat="45.93763405777743" lon="12.094960077607048"><ele>234.0</ele><time>2026-04-27T07:19:25Z</time></trkpt><trkpt lat="45.937569460418366" lon="12.095095184798643"><ele>234.0</ele><time>2026-04-27T07:19:26Z</time></trkpt><trkpt lat="45.937510174679794" lon="12.095236256359131"><ele>234.25</ele><time>2026-04-27T07:19:27Z</time></trkpt><trkpt lat="45.937457574041424" lon="12.095384024760161"><ele>234.5</ele><time>2026-04-27T07:19:28Z</time></trkpt><trkpt lat="45.93740984173978" lon="12.095534175782227"><ele>234.75</ele><time>2026-04-27T07:19:29Z</time></trkpt><trkpt lat="45.937361769077754" lon="12.095684984699995"><ele>235.0</ele><time>2026-04-27T07:19:30Z</time></trkpt><trkpt lat="45.93731460784091" lon="12.095836417571295"><ele>235.0</ele><time>2026-04-27T07:19:31Z</time></trkpt><trkpt lat="45.93726502695356" lon="12.095985819640603"><ele>235.0</ele><time>2026-04-27T07:19:32Z</time></trkpt><trkpt lat="45.93720927612768" lon="12.096129420827884"><ele>235.0</ele><time>2026-04-27T07:19:33Z</time></trkpt><trkpt lat="45.937144903080494" lon="12.096264363179655"><ele>235.0</ele><time>2026-04-27T07:19:34Z</time></trkpt><trkpt lat="45.93707240185946" lon="12.096390716735547"><ele>235.0</ele><time>2026-04-27T07:19:35Z</time></trkpt><trkpt lat="45.93699328848106" lon="12.096508729885098"><ele>235.0</ele><time>2026-04-27T07:19:36Z</time></trkpt><trkpt lat="45.93690537215711" lon="12.096611366018642"><ele>235.0</ele><time>2026-04-27T07:19:37Z</time></trkpt><trkpt lat="45.93680937462807" lon="12.096698936222705"><ele>235.0</ele><time>2026-04-27T07:19:38Z</time></trkpt><trkpt lat="45.93670679117542" lon="12.096768922670687"><ele>235.25</ele><time>2026-04-27T07:19:39Z</time></trkpt><trkpt lat="45.936599954135644" lon="12.096828349392517"><ele>235.5</ele><time>2026-04-27T07:19:40Z</time></trkpt><trkpt lat="45.936491096575374" lon="12.096874739848651"><ele>235.75</ele><time>2026-04-27T07:19:41Z</time></trkpt><trkpt lat="45.93638248009083" lon="12.096922122833826"><ele>236.0</ele><time>2026-04-27T07:19:42Z</time></trkpt><trkpt lat="45.936276392625885" lon="12.096977109732686"><ele>236.0</ele><time>2026-04-27T07:19:43Z</time></trkpt><trkpt lat="45.93618355276136" lon="12.097042850680443"><ele>236.00000000000003</ele><time>2026-04-27T07:19:44Z</time></trkpt><trkpt lat="45.93611058612112" lon="12.097103845117802"><ele>236.00000000000003</ele><time>2026-04-27T07:19:45Z</time></trkpt><trkpt lat="45.936050392270204" lon="12.097150223473115"><ele>236.0</ele><time>2026-04-27T07:19:46Z</time></trkpt><trkpt lat="45.935943966345356" lon="12.097150125031366"><ele>236.0</ele><time>2026-04-27T07:19:48Z</time></trkpt><trkpt lat="45.93584766444788" lon="12.097072259774892"><ele>236.16666666666669</ele><time>2026-04-27T07:19:50Z</time></trkpt><trkpt lat="45.935760945122276" lon="12.097006712343733"><ele>236.33333333333334</ele><time>2026-04-27T07:19:52Z</time></trkpt><trkpt lat="45.93570762415995" lon="12.096958095010738"><ele>236.5</ele><time>2026-04-27T07:19:54Z</time></trkpt><trkpt lat="45.93564354748468" lon="12.096939822305014"><ele>236.66666666666669</ele><time>2026-04-27T07:20:56Z</time></trkpt><trkpt lat="45.93564814763301" lon="12.096768530218469"><ele>236.83333333333334</ele><time>2026-04-27T07:20:59Z</time></trkpt><trkpt lat="45.93568731395194" lon="12.096852214804247"><ele>237.0</ele><time>2026-04-27T07:25:05Z</time></trkpt><trkpt lat="45.935663186585906" lon="12.09699481004135"><ele>237.0</ele><time>2026-04-27T07:25:13.999Z</time></trkpt><trkpt lat="45.935726096513726" lon="12.097020267383925"><ele>237.0</ele><time>2026-04-27T07:25:17Z</time></trkpt><trkpt lat="45.935802012293564" lon="12.097072544786192"><ele>237.0</ele><time>2026-04-27T07:25:19Z</time></trkpt><trkpt lat="45.93588360309758" lon="12.097136863392214"><ele>237.0</ele><time>2026-04-27T07:25:21Z</time></trkpt><trkpt lat="45.93594518727998" lon="12.097175129930344"><ele>237.0</ele><time>2026-04-27T07:25:23Z</time></trkpt><trkpt lat="45.93604612837883" lon="12.097205179706286"><ele>237.0</ele><time>2026-04-27T07:25:27Z</time></trkpt><trkpt lat="45.93615671532037" lon="12.097122838032137"><ele>236.8</ele><time>2026-04-27T07:25:29Z</time></trkpt><trkpt lat="45.936224961493295" lon="12.097071582778158"><ele>236.6</ele><time>2026-04-27T07:25:30Z</time></trkpt><trkpt lat="45.93630196801762" lon="12.097023035593157"><ele>236.40000000000003</ele><time>2026-04-27T07:25:31Z</time></trkpt><trkpt lat="45.93638958558653" lon="12.096979465035393"><ele>236.20000000000002</ele><time>2026-04-27T07:25:32Z</time></trkpt><trkpt lat="45.93648432110803" lon="12.096936352562158"><ele>236.0</ele><time>2026-04-27T07:25:33Z</time></trkpt><trkpt lat="45.93658701701506" lon="12.096894135281271"><ele>236.0</ele><time>2026-04-27T07:25:34Z</time></trkpt><trkpt lat="45.93669475587955" lon="12.096844208448717"><ele>236.0</ele><time>2026-04-27T07:25:35Z</time></trkpt><trkpt lat="45.93680586463736" lon="12.0967739633214"><ele>236.0</ele><time>2026-04-27T07:25:36Z</time></trkpt><trkpt lat="45.93691414041444" lon="12.096679273838525"><ele>236.0</ele><time>2026-04-27T07:25:37Z</time></trkpt><trkpt lat="45.93701380149762" lon="12.096562282735405"><ele>235.75</ele><time>2026-04-27T07:25:38Z</time></trkpt><trkpt lat="45.937106467338516" lon="12.09642029061963"><ele>235.5</ele><time>2026-04-27T07:25:39Z</time></trkpt><trkpt lat="45.93718717352104" lon="12.096262122658892"><ele>235.25</ele><time>2026-04-27T07:25:40Z</time></trkpt><trkpt lat="45.9372599598325" lon="12.09609124735766"><ele>235.0</ele><time>2026-04-27T07:25:41Z</time></trkpt><trkpt lat="45.937325123259825" lon="12.095912277088622"><ele>235.75</ele><time>2026-04-27T07:25:42Z</time></trkpt><trkpt lat="45.9373847894332" lon="12.095728864663947"><ele>236.5</ele><time>2026-04-27T07:25:43Z</time></trkpt><trkpt lat="45.93744596601781" lon="12.09554787458556"><ele>237.25</ele><time>2026-04-27T07:25:44Z</time></trkpt><trkpt lat="45.93750790007482" lon="12.09536791374615"><ele>238.0</ele><time>2026-04-27T07:25:45Z</time></trkpt><trkpt lat="45.93757295776206" lon="12.095193369706372"><ele>238.0</ele><time>2026-04-27T07:25:46Z</time></trkpt><trkpt lat="45.93764790156338" lon="12.095028896312932"><ele>238.0</ele><time>2026-04-27T07:25:47Z</time></trkpt><trkpt lat="45.93772720346781" lon="12.094873081644899"><ele>238.0</ele><time>2026-04-27T07:25:48Z</time></trkpt><trkpt lat="45.937808164160046" lon="12.094723137132508"><ele>238.0</ele><time>2026-04-27T07:25:49Z</time></trkpt><trkpt lat="45.93788984447725" lon="12.094573543862268"><ele>237.5</ele><time>2026-04-27T07:25:50Z</time></trkpt><trkpt lat="45.93797365302347" lon="12.094426739583605"><ele>237.0</ele><time>2026-04-27T07:25:51Z</time></trkpt><trkpt lat="45.93805646602729" lon="12.094280618192158"><ele>236.5</ele><time>2026-04-27T07:25:52Z</time></trkpt><trkpt lat="45.93813960300871" lon="12.094135877910974"><ele>236.0</ele><time>2026-04-27T07:25:53Z</time></trkpt><trkpt lat="45.93822191134865" lon="12.093993329546127"><ele>236.0</ele><time>2026-04-27T07:25:54Z</time></trkpt><trkpt lat="45.938306076356376" lon="12.093853556634455"><ele>236.0</ele><time>2026-04-27T07:25:55Z</time></trkpt><trkpt lat="45.938397885257665" lon="12.093727814530904"><ele>236.0</ele><time>2026-04-27T07:25:56Z</time></trkpt><trkpt lat="45.938491832771916" lon="12.093604797649636"><ele>236.0</ele><time>2026-04-27T07:25:57Z</time></trkpt><trkpt lat="45.9385902342027" lon="12.093492006718755"><ele>237.0</ele><time>2026-04-27T07:25:58Z</time></trkpt><trkpt lat="45.93869091878911" lon="12.093383115396838"><ele>238.0</ele><time>2026-04-27T07:25:59Z</time></trkpt><trkpt lat="45.93879278114337" lon="12.093275999801971"><ele>239.0</ele><time>2026-04-27T07:26:00Z</time></trkpt><trkpt lat="45.938893904571934" lon="12.093166993560425"><ele>240.0</ele><time>2026-04-27T07:26:01Z</time></trkpt><trkpt lat="45.938996161393945" lon="12.093061304563788"><ele>240.75</ele><time>2026-04-27T07:26:02Z</time></trkpt><trkpt lat="45.93910026093763" lon="12.09295659357712"><ele>241.5</ele><time>2026-04-27T07:26:03Z</time></trkpt><trkpt lat="45.9392054060002" lon="12.092855070410536"><ele>242.25</ele><time>2026-04-27T07:26:04Z</time></trkpt><trkpt lat="45.939311285926046" lon="12.092755766952466"><ele>243.0</ele><time>2026-04-27T07:26:05Z</time></trkpt><trkpt lat="45.93941636279139" lon="12.092657279342495"><ele>243.5</ele><time>2026-04-27T07:26:06Z</time></trkpt><trkpt lat="45.93952129895263" lon="12.092563166721602"><ele>244.0</ele><time>2026-04-27T07:26:07Z</time></trkpt><trkpt lat="45.939625726658484" lon="12.092469755165979"><ele>244.5</ele><time>2026-04-27T07:26:08Z</time></trkpt><trkpt lat="45.93972754576365" lon="12.092376288000477"><ele>245.0</ele><time>2026-04-27T07:26:09Z</time></trkpt><trkpt lat="45.93982785407928" lon="12.092282736481536"><ele>245.0</ele><time>2026-04-27T07:26:10Z</time></trkpt><trkpt lat="45.93992632660696" lon="12.092191465332625"><ele>245.0</ele><time>2026-04-27T07:26:11Z</time></trkpt><trkpt lat="45.9400226810818" lon="12.09210093577038"><ele>245.0</ele><time>2026-04-27T07:26:12Z</time></trkpt><trkpt lat="45.94011740053539" lon="12.092012664035362"><ele>245.0</ele><time>2026-04-27T07:26:13Z</time></trkpt><trkpt lat="45.94021477049361" lon="12.091926223439865"><ele>246.25</ele><time>2026-04-27T07:26:14Z</time></trkpt><trkpt lat="45.94031205259678" lon="12.091838352399703"><ele>247.5</ele><time>2026-04-27T07:26:15Z</time></trkpt><trkpt lat="45.94040639748831" lon="12.091750404571314"><ele>248.75</ele><time>2026-04-27T07:26:16Z</time></trkpt><trkpt lat="45.940501356511945" lon="12.091660146153849"><ele>250.0</ele><time>2026-04-27T07:26:17Z</time></trkpt><trkpt lat="45.94059532213479" lon="12.09157017855402"><ele>250.2</ele><time>2026-04-27T07:26:18Z</time></trkpt><trkpt lat="45.9406863615782" lon="12.091479665458477"><ele>250.4</ele><time>2026-04-27T07:26:19Z</time></trkpt><trkpt lat="45.940776470401595" lon="12.091382988533686"><ele>250.60000000000002</ele><time>2026-04-27T07:26:20Z</time></trkpt><trkpt lat="45.940865643977574" lon="12.091292495717491"><ele>250.8</ele><time>2026-04-27T07:26:21Z</time></trkpt><trkpt lat="45.94095101749224" lon="12.09119795697997"><ele>251.0</ele><time>2026-04-27T07:26:22Z</time></trkpt><trkpt lat="45.94103169570486" lon="12.091099038277864"><ele>251.8</ele><time>2026-04-27T07:26:23Z</time></trkpt><trkpt lat="45.94111186276891" lon="12.090997800952033"><ele>252.60000000000002</ele><time>2026-04-27T07:26:24Z</time></trkpt><trkpt lat="45.941187043999065" lon="12.090891858604609"><ele>253.4</ele><time>2026-04-27T07:26:25Z</time></trkpt><trkpt lat="45.94126064639233" lon="12.09078374780632"><ele>254.2</ele><time>2026-04-27T07:26:26Z</time></trkpt><trkpt lat="45.94133215297802" lon="12.090675830384239"><ele>255.0</ele><time>2026-04-27T07:26:27Z</time></trkpt><trkpt lat="45.94140269200691" lon="12.09056819215687"><ele>256.0</ele><time>2026-04-27T07:26:28Z</time></trkpt><trkpt lat="45.941468731606534" lon="12.090470970502395"><ele>257.0</ele><time>2026-04-27T07:26:29Z</time></trkpt><trkpt lat="45.94152636347701" lon="12.090384660102306"><ele>258.0</ele><time>2026-04-27T07:26:30Z</time></trkpt><trkpt lat="45.941576628517986" lon="12.090310084857014"><ele>259.0</ele><time>2026-04-27T07:26:31Z</time></trkpt><trkpt lat="45.941655678184986" lon="12.09019604553929"><ele>260.0</ele><time>2026-04-27T07:26:33Z</time></trkpt><trkpt lat="45.94171986828242" lon="12.090111504620493"><ele>261.0</ele><time>2026-04-27T07:26:35Z</time></trkpt><trkpt lat="45.94177161352387" lon="12.090040379022632"><ele>261.0</ele><time>2026-04-27T07:26:37Z</time></trkpt><trkpt lat="45.94181414225354" lon="12.08997213745322"><ele>261.0</ele><time>2026-04-27T07:26:41Z</time></trkpt><trkpt lat="45.94184179470965" lon="12.089888200219734"><ele>261.0</ele><time>2026-04-27T07:26:45Z</time></trkpt><trkpt lat="45.94180914133813" lon="12.089774712141388"><ele>261.0</ele><time>2026-04-27T07:26:47Z</time></trkpt><trkpt lat="45.94173094312375" lon="12.089627707546786"><ele>261.0</ele><time>2026-04-27T07:26:49Z</time></trkpt><trkpt lat="45.94168914562371" lon="12.08954076545156"><ele>261.0</ele><time>2026-04-27T07:26:50Z</time></trkpt><trkpt lat="45.94164675990504" lon="12.089449581370067"><ele>261.3333333333333</ele><time>2026-04-27T07:26:51Z</time></trkpt><trkpt lat="45.941604293507325" lon="12.089366731229429"><ele>261.6666666666667</ele><time>2026-04-27T07:26:52Z</time></trkpt><trkpt lat="45.94153712817211" lon="12.089244538590044"><ele>262.0</ele><time>2026-04-27T07:26:54Z</time></trkpt><trkpt lat="45.941458107065955" lon="12.08912490975097"><ele>262.33333333333337</ele><time>2026-04-27T07:26:56Z</time></trkpt><trkpt lat="45.94140723544649" lon="12.089055272065371"><ele>262.6666666666667</ele><time>2026-04-27T07:26:57Z</time></trkpt><trkpt lat="45.94135144534484" lon="12.088980393605372"><ele>263.0</ele><time>2026-04-27T07:26:58Z</time></trkpt><trkpt lat="45.94129207615099" lon="12.088899721269025"><ele>263.6</ele><time>2026-04-27T07:26:59Z</time></trkpt><trkpt lat="45.941229244113394" lon="12.088812766195451"><ele>264.20000000000005</ele><time>2026-04-27T07:27:00Z</time></trkpt><trkpt lat="45.941162979625744" lon="12.088720992475986"><ele>264.8</ele><time>2026-04-27T07:27:01Z</time></trkpt><trkpt lat="45.941095534371726" lon="12.088619790946433"><ele>265.40000000000003</ele><time>2026-04-27T07:27:02Z</time></trkpt><trkpt lat="45.94103214978935" lon="12.088506863463111"><ele>266.0</ele><time>2026-04-27T07:27:03Z</time></trkpt><trkpt lat="45.94096707473917" lon="12.088387174806867"><ele>266.0</ele><time>2026-04-27T07:27:04Z</time></trkpt><trkpt lat="45.94090250187872" lon="12.088262639648155"><ele>266.0</ele><time>2026-04-27T07:27:05Z</time></trkpt><trkpt lat="45.940838871306624" lon="12.088133732867064"><ele>266.0</ele><time>2026-04-27T07:27:06Z</time></trkpt><trkpt lat="45.940776147574056" lon="12.088000893467788"><ele>266.0</ele><time>2026-04-27T07:27:07Z</time></trkpt><trkpt lat="45.940719474997195" lon="12.087866505885511"><ele>266.0</ele><time>2026-04-27T07:27:07.999Z</time></trkpt><trkpt lat="45.9406630730001" lon="12.087730461124055"><ele>265.8</ele><time>2026-04-27T07:27:08.999Z</time></trkpt><trkpt lat="45.940608076857664" lon="12.087594496484195"><ele>265.6</ele><time>2026-04-27T07:27:09.999Z</time></trkpt><trkpt lat="45.94055212961977" lon="12.087455641755067"><ele>265.4</ele><time>2026-04-27T07:27:10.999Z</time></trkpt><trkpt lat="45.94049478775328" lon="12.087316032988387"><ele>265.2</ele><time>2026-04-27T07:27:11.999Z</time></trkpt><trkpt lat="45.94043945833637" lon="12.08717510524428"><ele>265.0</ele><time>2026-04-27T07:27:12.999Z</time></trkpt><trkpt lat="45.94038218700774" lon="12.087034445242692"><ele>265.6</ele><time>2026-04-27T07:27:13.999Z</time></trkpt><trkpt lat="45.94032473193321" lon="12.086895174370223"><ele>266.2</ele><time>2026-04-27T07:27:14.999Z</time></trkpt><trkpt lat="45.94027044285082" lon="12.08676295133916"><ele>266.8</ele><time>2026-04-27T07:27:15.999Z</time></trkpt><trkpt lat="45.940215753279446" lon="12.086637373372495"><ele>267.4</ele><time>2026-04-27T07:27:16.999Z</time></trkpt><trkpt lat="45.94015011892123" lon="12.086518436238283"><ele>268.0</ele><time>2026-04-27T07:27:17.999Z</time></trkpt><trkpt lat="45.94007485054909" lon="12.08640429370615"><ele>268.25</ele><time>2026-04-27T07:27:18.999Z</time></trkpt><trkpt lat="45.93998939523869" lon="12.086303959838187"><ele>268.5</ele><time>2026-04-27T07:27:19.999Z</time></trkpt><trkpt lat="45.939897348657404" lon="12.086210151111127"><ele>268.75</ele><time>2026-04-27T07:27:20.999Z</time></trkpt><trkpt lat="45.93980102871918" lon="12.086120293260215"><ele>269.0</ele><time>2026-04-27T07:27:21.999Z</time></trkpt><trkpt lat="45.9397037409721" lon="12.086035333683245"><ele>269.0</ele><time>2026-04-27T07:27:22.999Z</time></trkpt><trkpt lat="45.93960749897914" lon="12.085953100664259"><ele>269.0</ele><time>2026-04-27T07:27:23.999Z</time></trkpt><trkpt lat="45.939516898475304" lon="12.08587214388309"><ele>269.0</ele><time>2026-04-27T07:27:24.999Z</time></trkpt><trkpt lat="45.93942831204733" lon="12.08579180983845"><ele>269.0</ele><time>2026-04-27T07:27:25.999Z</time></trkpt><trkpt lat="45.93934088406071" lon="12.085714695009433"><ele>269.0</ele><time>2026-04-27T07:27:26.999Z</time></trkpt><trkpt lat="45.93925551929746" lon="12.08563981707921"><ele>270.59999999999997</ele><time>2026-04-27T07:27:27.999Z</time></trkpt><trkpt lat="45.93917108251308" lon="12.085568340274547"><ele>272.2</ele><time>2026-04-27T07:27:28.999Z</time></trkpt><trkpt lat="45.93908770087518" lon="12.085498676119942"><ele>273.79999999999995</ele><time>2026-04-27T07:27:29.999Z</time></trkpt><trkpt lat="45.93900558050272" lon="12.085428338251425"><ele>275.4</ele><time>2026-04-27T07:27:30.999Z</time></trkpt><trkpt lat="45.93892830985101" lon="12.085353984815919"><ele>277.0</ele><time>2026-04-27T07:27:31.999Z</time></trkpt><trkpt lat="45.938853436246106" lon="12.085270924423918"><ele>277.0</ele><time>2026-04-27T07:27:32.999Z</time></trkpt><trkpt lat="45.938796286773616" lon="12.085196562482166"><ele>277.0</ele><time>2026-04-27T07:27:33.999Z</time></trkpt><trkpt lat="45.93874630981176" lon="12.085126440812083"><ele>277.0</ele><time>2026-04-27T07:27:35.999Z</time></trkpt><trkpt lat="45.938693507958455" lon="12.085043186486052"><ele>277.0</ele><time>2026-04-27T07:27:51.999Z</time></trkpt><trkpt lat="45.93864108093929" lon="12.08495899098524"><ele>277.0</ele><time>2026-04-27T07:27:53.999Z</time></trkpt><trkpt lat="45.938593704773474" lon="12.08488279188275"><ele>277.0</ele><time>2026-04-27T07:28:12.999Z</time></trkpt><trkpt lat="45.938490152139615" lon="12.084768237980473"><ele>278.16666666666663</ele><time>2026-04-27T07:28:14.999Z</time></trkpt><trkpt lat="45.93842330985908" lon="12.084715958552582"><ele>279.3333333333333</ele><time>2026-04-27T07:28:15.999Z</time></trkpt><trkpt lat="45.93836471134935" lon="12.084679909358739"><ele>280.5</ele><time>2026-04-27T07:28:16.999Z</time></trkpt><trkpt lat="45.93828798886749" lon="12.084634387456218"><ele>281.6666666666667</ele><time>2026-04-27T07:28:18.999Z</time></trkpt><trkpt lat="45.93819598493372" lon="12.084617886555828"><ele>282.83333333333337</ele><time>2026-04-27T07:28:32.999Z</time></trkpt><trkpt lat="45.938080628934955" lon="12.084595267224678"><ele>284.0</ele><time>2026-04-27T07:28:34.999Z</time></trkpt><trkpt lat="45.93797912019819" lon="12.084567690023972"><ele>284.0</ele><time>2026-04-27T07:28:36.999Z</time></trkpt><trkpt lat="45.93789330730658" lon="12.084523282593262"><ele>284.0</ele><time>2026-04-27T07:28:38.999Z</time></trkpt><trkpt lat="45.9377974988554" lon="12.084440794184232"><ele>284.0</ele><time>2026-04-27T07:28:40.999Z</time></trkpt><trkpt lat="45.93770753738421" lon="12.084323349635174"><ele>284.0</ele><time>2026-04-27T07:28:42.999Z</time></trkpt><trkpt lat="45.93767069402172" lon="12.084248408544212"><ele>284.0</ele><time>2026-04-27T07:28:43.999Z</time></trkpt><trkpt lat="45.937636943807526" lon="12.084169449861147"><ele>285.0</ele><time>2026-04-27T07:28:44.999Z</time></trkpt><trkpt lat="45.937574691504665" lon="12.084014018449144"><ele>286.0</ele><time>2026-04-27T07:28:46.999Z</time></trkpt><trkpt lat="45.93753698828577" lon="12.083917794250633"><ele>287.0</ele><time>2026-04-27T07:28:48.999Z</time></trkpt><trkpt lat="45.93758804252313" lon="12.083848279429288"><ele>288.0</ele><time>2026-04-27T07:28:50.999Z</time></trkpt><trkpt lat="45.93760168097404" lon="12.083756939906452"><ele>289.0</ele><time>2026-04-27T07:29:34.999Z</time></trkpt><trkpt lat="45.93762200855489" lon="12.08366909330093"><ele>290.0</ele><time>2026-04-27T07:29:37.999Z</time></trkpt><trkpt lat="45.93764350380481" lon="12.08357324270177"><ele>290.5</ele><time>2026-04-27T07:29:39.999Z</time></trkpt><trkpt lat="45.93766681359499" lon="12.083456780625408"><ele>291.0</ele><time>2026-04-27T07:29:41.999Z</time></trkpt><trkpt lat="45.937688748283534" lon="12.083332971109948"><ele>291.5</ele><time>2026-04-27T07:29:44Z</time></trkpt><trkpt lat="45.93773574666721" lon="12.083210541223961"><ele>292.0</ele><time>2026-04-27T07:29:46Z</time></trkpt><trkpt lat="45.93776753140276" lon="12.08308702802144"><ele>292.5</ele><time>2026-04-27T07:29:48Z</time></trkpt><trkpt lat="45.93779145502837" lon="12.083000769522918"><ele>293.0</ele><time>2026-04-27T07:29:50Z</time></trkpt><trkpt lat="45.937838516476745" lon="12.082918879553105"><ele>294.1666666666667</ele><time>2026-04-27T07:29:52Z</time></trkpt><trkpt lat="45.93790423032689" lon="12.082810818090609"><ele>295.33333333333337</ele><time>2026-04-27T07:29:54Z</time></trkpt><trkpt lat="45.93795804756312" lon="12.082660936091854"><ele>296.5</ele><time>2026-04-27T07:29:56Z</time></trkpt><trkpt lat="45.93792592053861" lon="12.082764443761006"><ele>297.6666666666667</ele><time>2026-04-27T07:30:18Z</time></trkpt><trkpt lat="45.9378923867292" lon="12.082849531334816"><ele>298.8333333333333</ele><time>2026-04-27T07:30:24Z</time></trkpt><trkpt lat="45.9378479231915" lon="12.082918632883645"><ele>300.0</ele><time>2026-04-27T07:30:29Z</time></trkpt><trkpt lat="45.93778545467331" lon="12.082864503363176"><ele>300.0</ele><time>2026-04-27T07:30:38Z</time></trkpt><trkpt lat="45.9377076954354" lon="12.082807853483153"><ele>300.0</ele><time>2026-04-27T07:30:40Z</time></trkpt><trkpt lat="45.93759901924824" lon="12.082733773902401"><ele>300.0</ele><time>2026-04-27T07:30:42Z</time></trkpt><trkpt lat="45.937493013324634" lon="12.082635031734993"><ele>300.0</ele><time>2026-04-27T07:30:44Z</time></trkpt><trkpt lat="45.93741286709307" lon="12.08253486250956"><ele>300.0</ele><time>2026-04-27T07:30:46Z</time></trkpt><trkpt lat="45.93733946581748" lon="12.0824530397172"><ele>300.1666666666667</ele><time>2026-04-27T07:31:01Z</time></trkpt><trkpt lat="45.93726621068258" lon="12.08233355117705"><ele>300.3333333333333</ele><time>2026-04-27T07:31:03Z</time></trkpt><trkpt lat="45.93722486880682" lon="12.08225231816826"><ele>300.5</ele><time>2026-04-27T07:31:04Z</time></trkpt><trkpt lat="45.937184095546115" lon="12.082171741492987"><ele>300.66666666666663</ele><time>2026-04-27T07:31:05Z</time></trkpt><trkpt lat="45.93714264983954" lon="12.082093831026421"><ele>300.8333333333333</ele><time>2026-04-27T07:31:06Z</time></trkpt><trkpt lat="45.93708048915747" lon="12.081968999218653"><ele>301.0</ele><time>2026-04-27T07:31:08Z</time></trkpt><trkpt lat="45.9370113992714" lon="12.081830921531264"><ele>301.0</ele><time>2026-04-27T07:31:10Z</time></trkpt><trkpt lat="45.93696990255481" lon="12.08175322809222"><ele>301.0</ele><time>2026-04-27T07:31:11Z</time></trkpt><trkpt lat="45.936926599464094" lon="12.081675682495655"><ele>301.0</ele><time>2026-04-27T07:31:12Z</time></trkpt><trkpt lat="45.93688762875911" lon="12.081600458043686"><ele>301.0</ele><time>2026-04-27T07:31:13Z</time></trkpt><trkpt lat="45.93684860719877" lon="12.081528825329714"><ele>301.0</ele><time>2026-04-27T07:31:14Z</time></trkpt><trkpt lat="45.93679322689634" lon="12.081442188725388"><ele>301.0</ele><time>2026-04-27T07:31:16Z</time></trkpt><trkpt lat="45.93675343869609" lon="12.081371654123895"><ele>301.0</ele><time>2026-04-27T07:31:21Z</time></trkpt><trkpt lat="45.93674739343185" lon="12.081257680397496"><ele>302.16666666666663</ele><time>2026-04-27T07:31:23Z</time></trkpt><trkpt lat="45.936749170523306" lon="12.08107862855159"><ele>303.3333333333333</ele><time>2026-04-27T07:31:25Z</time></trkpt><trkpt lat="45.9367396013148" lon="12.080988087929361"><ele>304.5</ele><time>2026-04-27T07:31:27Z</time></trkpt><trkpt lat="45.93672533082754" lon="12.080856339223608"><ele>305.6666666666667</ele><time>2026-04-27T07:31:42Z</time></trkpt><trkpt lat="45.93670956532798" lon="12.080765290906742"><ele>306.83333333333337</ele><time>2026-04-27T07:31:44Z</time></trkpt><trkpt lat="45.93667836494124" lon="12.0806524603155"><ele>308.0</ele><time>2026-04-27T07:32:18Z</time></trkpt><trkpt lat="45.93662244000216" lon="12.080476457001021"><ele>308.6</ele><time>2026-04-27T07:32:20Z</time></trkpt><trkpt lat="45.93657886626999" lon="12.080367314463285"><ele>309.20000000000005</ele><time>2026-04-27T07:32:21Z</time></trkpt><trkpt lat="45.936529419031" lon="12.080254563639294"><ele>309.8</ele><time>2026-04-27T07:32:22Z</time></trkpt><trkpt lat="45.93647131917094" lon="12.080133271771913"><ele>310.40000000000003</ele><time>2026-04-27T07:32:23Z</time></trkpt><trkpt lat="45.9364094949536" lon="12.080004822025051"><ele>311.0</ele><time>2026-04-27T07:32:24Z</time></trkpt><trkpt lat="45.93634261602638" lon="12.079865560261094"><ele>315.5</ele><time>2026-04-27T07:32:25Z</time></trkpt><trkpt lat="45.93627467895198" lon="12.07971859091537"><ele>320.0</ele><time>2026-04-27T07:32:26Z</time></trkpt><trkpt lat="45.93620183233472" lon="12.07956750540803"><ele>324.5</ele><time>2026-04-27T07:32:27Z</time></trkpt><trkpt lat="45.93611803770618" lon="12.079420202766565"><ele>329.0</ele><time>2026-04-27T07:32:28Z</time></trkpt><trkpt lat="45.936025415515104" lon="12.079276421619543"><ele>329.0</ele><time>2026-04-27T07:32:29Z</time></trkpt><trkpt lat="45.935925084517685" lon="12.079138596632616"><ele>329.0</ele><time>2026-04-27T07:32:30Z</time></trkpt><trkpt lat="45.935823720236115" lon="12.07899674427823"><ele>329.0</ele><time>2026-04-27T07:32:31Z</time></trkpt><trkpt lat="45.93571762793482" lon="12.078851905218967"><ele>329.0</ele><time>2026-04-27T07:32:32Z</time></trkpt><trkpt lat="45.93560916026342" lon="12.078710229460803"><ele>328.75</ele><time>2026-04-27T07:32:33Z</time></trkpt><trkpt lat="45.93550225297174" lon="12.078569213240705"><ele>328.5</ele><time>2026-04-27T07:32:34Z</time></trkpt><trkpt lat="45.93539789618655" lon="12.0784262342545"><ele>328.25</ele><time>2026-04-27T07:32:35Z</time></trkpt><trkpt lat="45.93529929016968" lon="12.078292844440963"><ele>328.0</ele><time>2026-04-27T07:32:36Z</time></trkpt><trkpt lat="45.93520520125785" lon="12.078166366412558"><ele>328.25</ele><time>2026-04-27T07:32:37Z</time></trkpt><trkpt lat="45.93511325207503" lon="12.078044293659083"><ele>328.5</ele><time>2026-04-27T07:32:38Z</time></trkpt><trkpt lat="45.9350205516101" lon="12.077922340334528"><ele>328.75</ele><time>2026-04-27T07:32:39Z</time></trkpt><trkpt lat="45.93492657059055" lon="12.077804282530845"><ele>329.0</ele><time>2026-04-27T07:32:40Z</time></trkpt><trkpt lat="45.934848932423684" lon="12.077663823772841"><ele>329.0</ele><time>2026-04-27T07:32:41Z</time></trkpt><trkpt lat="45.93476657288362" lon="12.077545978348397"><ele>329.0</ele><time>2026-04-27T07:32:42Z</time></trkpt><trkpt lat="45.93469745597713" lon="12.077447081376892"><ele>329.0</ele><time>2026-04-27T07:32:43Z</time></trkpt><trkpt lat="45.934634674338426" lon="12.077358816361908"><ele>329.0</ele><time>2026-04-27T07:32:44Z</time></trkpt><trkpt lat="45.9345599925791" lon="12.077256217285496"><ele>329.0</ele><time>2026-04-27T07:32:46Z</time></trkpt><trkpt lat="45.93450412247733" lon="12.077181276311245"><ele>329.4</ele><time>2026-04-27T07:32:48Z</time></trkpt><trkpt lat="45.93441790056947" lon="12.07706800463927"><ele>329.79999999999995</ele><time>2026-04-27T07:32:50Z</time></trkpt><trkpt lat="45.93435617152388" lon="12.076988516105876"><ele>330.20000000000005</ele><time>2026-04-27T07:32:51Z</time></trkpt><trkpt lat="45.934282372564105" lon="12.0769086814962"><ele>330.6</ele><time>2026-04-27T07:32:52Z</time></trkpt><trkpt lat="45.93421089242498" lon="12.076810097817903"><ele>331.0</ele><time>2026-04-27T07:32:53Z</time></trkpt><trkpt lat="45.934131963298945" lon="12.076712144369461"><ele>331.0</ele><time>2026-04-27T07:32:54Z</time></trkpt><trkpt lat="45.934057119020736" lon="12.076628323639907"><ele>331.0</ele><time>2026-04-27T07:32:55Z</time></trkpt><trkpt lat="45.93400346294123" lon="12.076569090323103"><ele>331.0</ele><time>2026-04-27T07:32:56Z</time></trkpt><trkpt lat="45.933938411959076" lon="12.076488386224954"><ele>331.0</ele><time>2026-04-27T07:33:13Z</time></trkpt><trkpt lat="45.9338403513509" lon="12.076374103141381"><ele>331.0</ele><time>2026-04-27T07:33:15Z</time></trkpt><trkpt lat="45.93377483265842" lon="12.076298357624225"><ele>332.20000000000005</ele><time>2026-04-27T07:33:16Z</time></trkpt><trkpt lat="45.93370083012819" lon="12.076213093543027"><ele>333.40000000000003</ele><time>2026-04-27T07:33:17Z</time></trkpt><trkpt lat="45.93362270836393" lon="12.076123004202767"><ele>334.6</ele><time>2026-04-27T07:33:18Z</time></trkpt><trkpt lat="45.9335380613387" lon="12.076024013079975"><ele>335.8</ele><time>2026-04-27T07:33:19Z</time></trkpt><trkpt lat="45.93344714182078" lon="12.075918753925908"><ele>337.0</ele><time>2026-04-27T07:33:20Z</time></trkpt><trkpt lat="45.93335117412771" lon="12.07580663462851"><ele>340.5</ele><time>2026-04-27T07:33:21Z</time></trkpt><trkpt lat="45.93325019313989" lon="12.075687064226202"><ele>344.0</ele><time>2026-04-27T07:33:22Z</time></trkpt><trkpt lat="45.93314522900654" lon="12.075562888235114"><ele>347.5</ele><time>2026-04-27T07:33:23Z</time></trkpt><trkpt lat="45.933039358728614" lon="12.075441498373666"><ele>351.0</ele><time>2026-04-27T07:33:24Z</time></trkpt><trkpt lat="45.93293863001959" lon="12.075325972560913"><ele>351.0</ele><time>2026-04-27T07:33:25Z</time></trkpt><trkpt lat="45.932852137553596" lon="12.075225849669021"><ele>351.0</ele><time>2026-04-27T07:33:26Z</time></trkpt><trkpt lat="45.932783726703676" lon="12.07514404289922"><ele>351.0</ele><time>2026-04-27T07:33:27Z</time></trkpt><trkpt lat="45.93271858707478" lon="12.07506897078972"><ele>351.0</ele><time>2026-04-27T07:33:29Z</time></trkpt><trkpt lat="45.93264036374737" lon="12.074998468167061"><ele>351.0</ele><time>2026-04-27T07:33:46Z</time></trkpt><trkpt lat="45.932541756156475" lon="12.074885531912997"><ele>351.5</ele><time>2026-04-27T07:33:48Z</time></trkpt><trkpt lat="45.932487018035516" lon="12.07480857428158"><ele>352.0</ele><time>2026-04-27T07:33:49Z</time></trkpt><trkpt lat="45.932432289568474" lon="12.07471927004478"><ele>352.5</ele><time>2026-04-27T07:33:50Z</time></trkpt><trkpt lat="45.93237916779069" lon="12.074623386489838"><ele>353.0</ele><time>2026-04-27T07:33:51Z</time></trkpt><trkpt lat="45.93232706150701" lon="12.074518428674525"><ele>353.5</ele><time>2026-04-27T07:33:52Z</time></trkpt><trkpt lat="45.93227436302959" lon="12.074407194094205"><ele>354.0</ele><time>2026-04-27T07:33:53Z</time></trkpt><trkpt lat="45.932219217112596" lon="12.074287153888156"><ele>354.0</ele><time>2026-04-27T07:33:54Z</time></trkpt><trkpt lat="45.93215891415316" lon="12.074166213386228"><ele>354.0</ele><time>2026-04-27T07:33:55Z</time></trkpt><trkpt lat="45.93208580695385" lon="12.074053817085415"><ele>354.0</ele><time>2026-04-27T07:33:56Z</time></trkpt><trkpt lat="45.93199970924707" lon="12.07395323877676"><ele>354.0</ele><time>2026-04-27T07:33:57Z</time></trkpt><trkpt lat="45.9319085466604" lon="12.073859588478289"><ele>354.0</ele><time>2026-04-27T07:33:58Z</time></trkpt><trkpt lat="45.931818087594024" lon="12.073761164390264"><ele>355.0</ele><time>2026-04-27T07:33:59Z</time></trkpt><trkpt lat="45.9317381343532" lon="12.073647509832652"><ele>356.0</ele><time>2026-04-27T07:34:00Z</time></trkpt><trkpt lat="45.9316741788602" lon="12.073513442192334"><ele>357.0</ele><time>2026-04-27T07:34:01Z</time></trkpt><trkpt lat="45.93162820540187" lon="12.073359520035652"><ele>358.0</ele><time>2026-04-27T07:34:02Z</time></trkpt><trkpt lat="45.93159689681449" lon="12.073189315370687"><ele>363.5</ele><time>2026-04-27T07:34:03Z</time></trkpt><trkpt lat="45.93156760196954" lon="12.073010295113681"><ele>369.0</ele><time>2026-04-27T07:34:04Z</time></trkpt><trkpt lat="45.931527099867935" lon="12.072831086326033"><ele>374.5</ele><time>2026-04-27T07:34:05Z</time></trkpt><trkpt lat="45.931462220555176" lon="12.072663929246465"><ele>380.0</ele><time>2026-04-27T07:34:06Z</time></trkpt><trkpt lat="45.931365210235356" lon="12.072496994339401"><ele>382.0</ele><time>2026-04-27T07:34:07Z</time></trkpt><trkpt lat="45.93125653639576" lon="12.072373147359649"><ele>384.0</ele><time>2026-04-27T07:34:08Z</time></trkpt><trkpt lat="45.931141993826564" lon="12.072266931860808"><ele>386.0</ele><time>2026-04-27T07:34:09Z</time></trkpt><trkpt lat="45.93105374545363" lon="12.072147184969948"><ele>388.0</ele><time>2026-04-27T07:34:10Z</time></trkpt><trkpt lat="45.93100397903288" lon="12.071999966305649"><ele>388.0</ele><time>2026-04-27T07:34:11Z</time></trkpt><trkpt lat="45.93098035784768" lon="12.071834383428648"><ele>388.0</ele><time>2026-04-27T07:34:12Z</time></trkpt><trkpt lat="45.93098179242681" lon="12.071664759508094"><ele>388.0</ele><time>2026-04-27T07:34:13Z</time></trkpt><trkpt lat="45.93099807156956" lon="12.071494440140683"><ele>388.0</ele><time>2026-04-27T07:34:14Z</time></trkpt><trkpt lat="45.93101365860932" lon="12.071317560194261"><ele>390.5</ele><time>2026-04-27T07:34:15Z</time></trkpt><trkpt lat="45.93102781117949" lon="12.071137307493817"><ele>393.0</ele><time>2026-04-27T07:34:16Z</time></trkpt><trkpt lat="45.9310476859689" lon="12.070954320032074"><ele>395.5</ele><time>2026-04-27T07:34:17Z</time></trkpt><trkpt lat="45.9310634845961" lon="12.070782298738136"><ele>398.0</ele><time>2026-04-27T07:34:18Z</time></trkpt><trkpt lat="45.93105450595547" lon="12.070632980655155"><ele>398.4</ele><time>2026-04-27T07:34:19Z</time></trkpt><trkpt lat="45.931004797459416" lon="12.070521180746516"><ele>398.79999999999995</ele><time>2026-04-27T07:34:20Z</time></trkpt><trkpt lat="45.93092349995063" lon="12.070469871360238"><ele>399.2</ele><time>2026-04-27T07:34:21Z</time></trkpt><trkpt lat="45.930833091113556" lon="12.070484386537634"><ele>399.6</ele><time>2026-04-27T07:34:22Z</time></trkpt><trkpt lat="45.9307608870672" lon="12.070566738083972"><ele>400.0</ele><time>2026-04-27T07:34:23Z</time></trkpt><trkpt lat="45.93071609526413" lon="12.070690615986106"><ele>397.4</ele><time>2026-04-27T07:34:24Z</time></trkpt><trkpt lat="45.930679011851005" lon="12.070808065321636"><ele>394.8</ele><time>2026-04-27T07:34:25Z</time></trkpt><trkpt lat="45.930629314268295" lon="12.070932505217085"><ele>392.20000000000005</ele><time>2026-04-27T07:34:26Z</time></trkpt><trkpt lat="45.93057856348892" lon="12.07105998066697"><ele>389.6</ele><time>2026-04-27T07:34:27Z</time></trkpt><trkpt lat="45.930532509034265" lon="12.071176029453436"><ele>387.0</ele><time>2026-04-27T07:34:28Z</time></trkpt><trkpt lat="45.93048424031057" lon="12.071259027371278"><ele>387.0</ele><time>2026-04-27T07:34:29Z</time></trkpt><trkpt lat="45.93043145525387" lon="12.071309705731917"><ele>387.0</ele><time>2026-04-27T07:34:30Z</time></trkpt><trkpt lat="45.93036039139595" lon="12.071344560743226"><ele>387.0</ele><time>2026-04-27T07:34:32Z</time></trkpt><trkpt lat="45.93028428909283" lon="12.071380666006476"><ele>387.0</ele><time>2026-04-27T07:34:48Z</time></trkpt><trkpt lat="45.93022102555983" lon="12.071374994411366"><ele>387.0</ele><time>2026-04-27T07:34:49Z</time></trkpt><trkpt lat="45.93011969291811" lon="12.071292716439471"><ele>387.0</ele><time>2026-04-27T07:34:51Z</time></trkpt><trkpt lat="45.93005853153364" lon="12.071253306941632"><ele>387.0</ele><time>2026-04-27T07:34:53Z</time></trkpt><trkpt lat="45.930109387086" lon="12.071169514524367"><ele>387.0</ele><time>2026-04-27T07:34:55Z</time></trkpt><trkpt lat="45.93019171621387" lon="12.071190025942345"><ele>387.0</ele><time>2026-04-27T07:34:57Z</time></trkpt><trkpt lat="45.930291838538785" lon="12.071160218829837"><ele>387.0</ele><time>2026-04-27T07:34:59Z</time></trkpt><trkpt lat="45.930395508480885" lon="12.071106842129785"><ele>387.0</ele><time>2026-04-27T07:35:01Z</time></trkpt><trkpt lat="45.93046374610485" lon="12.070994653366517"><ele>387.0</ele><time>2026-04-27T07:35:03Z</time></trkpt><trkpt lat="45.930449545433795" lon="12.070887664343745"><ele>387.0</ele><time>2026-04-27T07:35:23Z</time></trkpt><trkpt lat="45.930426101696455" lon="12.070787911883716"><ele>387.0</ele><time>2026-04-27T07:35:25Z</time></trkpt><trkpt lat="45.93039399413314" lon="12.070694099086918"><ele>387.0</ele><time>2026-04-27T07:35:27Z</time></trkpt><trkpt lat="45.93035776846621" lon="12.070593731253624"><ele>387.0</ele><time>2026-04-27T07:35:29Z</time></trkpt><trkpt lat="45.930356199893076" lon="12.070471491959118"><ele>387.0</ele><time>2026-04-27T07:35:31Z</time></trkpt><trkpt lat="45.93037253170209" lon="12.070326649098634"><ele>389.6</ele><time>2026-04-27T07:35:33Z</time></trkpt><trkpt lat="45.93040504292703" lon="12.070170609795765"><ele>392.20000000000005</ele><time>2026-04-27T07:35:35Z</time></trkpt><trkpt lat="45.930421342321964" lon="12.070011031778954"><ele>394.8</ele><time>2026-04-27T07:35:37Z</time></trkpt><trkpt lat="45.93042734649115" lon="12.069870948223217"><ele>397.4</ele><time>2026-04-27T07:35:39Z</time></trkpt><trkpt lat="45.93045065913105" lon="12.069755752316965"><ele>400.0</ele><time>2026-04-27T07:35:41Z</time></trkpt><trkpt lat="45.93048951606371" lon="12.069649701952265"><ele>402.4</ele><time>2026-04-27T07:35:43Z</time></trkpt><trkpt lat="45.93056188293662" lon="12.069598687201822"><ele>404.8</ele><time>2026-04-27T07:35:45Z</time></trkpt><trkpt lat="45.93064200786499" lon="12.069532985805495"><ele>407.20000000000005</ele><time>2026-04-27T07:35:50Z</time></trkpt><trkpt lat="45.93072876710169" lon="12.06946177947563"><ele>409.6</ele><time>2026-04-27T07:35:52Z</time></trkpt><trkpt lat="45.9308111050379" lon="12.069362887185717"><ele>412.0</ele><time>2026-04-27T07:35:54Z</time></trkpt><trkpt lat="45.9308759663603" lon="12.069278262976434"><ele>414.20000000000005</ele><time>2026-04-27T07:35:56Z</time></trkpt><trkpt lat="45.930937551803794" lon="12.069179883782283"><ele>416.4</ele><time>2026-04-27T07:36:00Z</time></trkpt><trkpt lat="45.930982934079005" lon="12.069087133891907"><ele>418.6</ele><time>2026-04-27T07:36:02Z</time></trkpt><trkpt lat="45.93103848792045" lon="12.068975587317075"><ele>420.79999999999995</ele><time>2026-04-27T07:36:04Z</time></trkpt><trkpt lat="45.93111173488003" lon="12.06887922299018"><ele>423.0</ele><time>2026-04-27T07:36:06Z</time></trkpt><trkpt lat="45.931182961302824" lon="12.068789679597165"><ele>424.2</ele><time>2026-04-27T07:36:08Z</time></trkpt><trkpt lat="45.931257512381045" lon="12.068745962810612"><ele>425.4</ele><time>2026-04-27T07:36:10Z</time></trkpt><trkpt lat="45.9313004626014" lon="12.068843047507594"><ele>426.59999999999997</ele><time>2026-04-27T07:36:14Z</time></trkpt><trkpt lat="45.93126713642975" lon="12.068757300768338"><ele>427.79999999999995</ele><time>2026-04-27T07:36:45Z</time></trkpt><trkpt lat="45.931198226329265" lon="12.068765862566558"><ele>429.0</ele><time>2026-04-27T07:36:49Z</time></trkpt><trkpt lat="45.93129882627895" lon="12.068963644522077"><ele>429.0</ele><time>2026-04-27T07:36:52Z</time></trkpt><trkpt lat="45.93127025435035" lon="12.069072942686574"><ele>429.0</ele><time>2026-04-27T07:36:54Z</time></trkpt><trkpt lat="45.931251326945315" lon="12.069176924908401"><ele>429.0</ele><time>2026-04-27T07:36:56Z</time></trkpt><trkpt lat="45.931225850751" lon="12.069296451161785"><ele>429.0</ele><time>2026-04-27T07:36:58Z</time></trkpt><trkpt lat="45.931204530887975" lon="12.069396476787583"><ele>429.0</ele><time>2026-04-27T07:37:01Z</time></trkpt><trkpt lat="45.93078000048731" lon="12.069374864828777"><ele>426.57142857142856</ele><time>2026-04-27T07:37:28Z</time></trkpt><trkpt lat="45.93072015883238" lon="12.069435758636928"><ele>424.14285714285717</ele><time>2026-04-27T07:37:31Z</time></trkpt><trkpt lat="45.93066336857969" lon="12.06950171075172"><ele>421.71428571428567</ele><time>2026-04-27T07:37:39Z</time></trkpt><trkpt lat="45.93059971785056" lon="12.069519380061791"><ele>419.2857142857143</ele><time>2026-04-27T07:37:46Z</time></trkpt><trkpt lat="45.93054177987983" lon="12.069562478474829"><ele>416.85714285714283</ele><time>2026-04-27T07:37:53Z</time></trkpt><trkpt lat="45.9304894038327" lon="12.069614825300725"><ele>414.4285714285714</ele><time>2026-04-27T07:37:56Z</time></trkpt><trkpt lat="45.9304319753403" lon="12.069697561657645"><ele>412.0</ele><time>2026-04-27T07:38:17Z</time></trkpt><trkpt lat="45.93042089713391" lon="12.069787665818588"><ele>412.00000000000006</ele><time>2026-04-27T07:38:19Z</time></trkpt><trkpt lat="45.93040346722132" lon="12.069913245994787"><ele>412.0</ele><time>2026-04-27T07:38:41Z</time></trkpt><trkpt lat="45.930400903999995" lon="12.070022483189552"><ele>412.0</ele><time>2026-04-27T07:38:43Z</time></trkpt><trkpt lat="45.93039811813406" lon="12.07012149493592"><ele>412.0</ele><time>2026-04-27T07:38:45Z</time></trkpt><trkpt lat="45.93037948094834" lon="12.070253150553517"><ele>412.00000000000006</ele><time>2026-04-27T07:38:48Z</time></trkpt><trkpt lat="45.93036276867922" lon="12.070348662766868"><ele>412.0</ele><time>2026-04-27T07:38:50Z</time></trkpt><trkpt lat="45.93034327873282" lon="12.07044737605185"><ele>410.00000000000006</ele><time>2026-04-27T07:38:52Z</time></trkpt><trkpt lat="45.93032567482255" lon="12.070548387691762"><ele>408.0</ele><time>2026-04-27T07:38:54Z</time></trkpt><trkpt lat="45.93034983336114" lon="12.070667932694805"><ele>406.0</ele><time>2026-04-27T07:39:12Z</time></trkpt><trkpt lat="45.93038387066437" lon="12.070777068949312"><ele>404.0</ele><time>2026-04-27T07:39:14Z</time></trkpt><trkpt lat="45.93041820837992" lon="12.070885427606886"><ele>402.00000000000006</ele><time>2026-04-27T07:39:17Z</time></trkpt><trkpt lat="45.930431356855514" lon="12.070975364481711"><ele>400.0</ele><time>2026-04-27T07:39:19Z</time></trkpt><trkpt lat="45.93038414316554" lon="12.071057174222567"><ele>398.33333333333337</ele><time>2026-04-27T07:39:21Z</time></trkpt><trkpt lat="45.930293240648155" lon="12.071117562667908"><ele>396.6666666666667</ele><time>2026-04-27T07:39:23Z</time></trkpt><trkpt lat="45.930192330645276" lon="12.071146589729958"><ele>395.0</ele><time>2026-04-27T07:39:25Z</time></trkpt><trkpt lat="45.930107830845365" lon="12.071184483001623"><ele>393.33333333333337</ele><time>2026-04-27T07:39:27Z</time></trkpt><trkpt lat="45.93003131743555" lon="12.071188556278665"><ele>391.6666666666667</ele><time>2026-04-27T07:39:34Z</time></trkpt><trkpt lat="45.92995318388107" lon="12.071215065716965"><ele>390.0</ele><time>2026-04-27T07:39:37Z</time></trkpt><trkpt lat="45.929907736267296" lon="12.071144091234313"><ele>390.0</ele><time>2026-04-27T07:39:39Z</time></trkpt><trkpt lat="45.92986843568875" lon="12.071071712598304"><ele>390.0</ele><time>2026-04-27T07:39:44Z</time></trkpt><trkpt lat="45.92981142822112" lon="12.070979444822427"><ele>390.0</ele><time>2026-04-27T07:40:32Z</time></trkpt><trkpt lat="45.92975700062702" lon="12.070898907924986"><ele>390.0</ele><time>2026-04-27T07:40:35Z</time></trkpt><trkpt lat="45.92972231548261" lon="12.07081027962441"><ele>390.0</ele><time>2026-04-27T07:41:01Z</time></trkpt><trkpt lat="45.929683937819426" lon="12.070731421667084"><ele>390.0</ele><time>2026-04-27T07:41:05Z</time></trkpt><trkpt lat="45.92931631340173" lon="12.070927495100044"><ele>390.0</ele><time>2026-04-27T07:42:42Z</time></trkpt><trkpt lat="45.92925039733948" lon="12.070995038480111"><ele>390.0</ele><time>2026-04-27T07:42:44Z</time></trkpt><trkpt lat="45.92917371848924" lon="12.071076141444497"><ele>390.0</ele><time>2026-04-27T07:42:46Z</time></trkpt><trkpt lat="45.929118618729845" lon="12.07113985346371"><ele>390.0</ele><time>2026-04-27T07:42:48Z</time></trkpt><trkpt lat="45.92906573238746" lon="12.07121279114759"><ele>390.0</ele><time>2026-04-27T07:42:50Z</time></trkpt><trkpt lat="45.92898694917379" lon="12.071241045736773"><ele>390.0</ele><time>2026-04-27T07:42:52Z</time></trkpt><trkpt lat="45.928927668975504" lon="12.071275617521053"><ele>387.5</ele><time>2026-04-27T07:42:56Z</time></trkpt><trkpt lat="45.928880750611455" lon="12.07090641575725"><ele>385.0</ele><time>2026-04-27T07:43:14Z</time></trkpt><trkpt lat="45.9288712120628" lon="12.07075586640243"><ele>382.5</ele><time>2026-04-27T07:43:16Z</time></trkpt><trkpt lat="45.92886967501572" lon="12.070663487073503"><ele>380.0</ele><time>2026-04-27T07:43:19Z</time></trkpt><trkpt lat="45.928872457931504" lon="12.07056131447583"><ele>380.0</ele><time>2026-04-27T07:43:21Z</time></trkpt><trkpt lat="45.92886186279467" lon="12.07046015377436"><ele>380.0</ele><time>2026-04-27T07:43:38Z</time></trkpt><trkpt lat="45.92885047806311" lon="12.070349474090905"><ele>380.0</ele><time>2026-04-27T07:43:40Z</time></trkpt><trkpt lat="45.92883870255739" lon="12.070215447052325"><ele>380.0</ele><time>2026-04-27T07:43:42Z</time></trkpt><trkpt lat="45.92882535739439" lon="12.070065673381778"><ele>380.0</ele><time>2026-04-27T07:43:44Z</time></trkpt><trkpt lat="45.928812565353304" lon="12.069893548426418"><ele>380.8</ele><time>2026-04-27T07:43:46Z</time></trkpt><trkpt lat="45.92880165155794" lon="12.069720618565393"><ele>381.6</ele><time>2026-04-27T07:43:48Z</time></trkpt><trkpt lat="45.92878982237" lon="12.069568299778421"><ele>382.4</ele><time>2026-04-27T07:43:50Z</time></trkpt><trkpt lat="45.928780335624666" lon="12.069434980422114"><ele>383.2</ele><time>2026-04-27T07:43:52Z</time></trkpt><trkpt lat="45.92876796683958" lon="12.069313355312499"><ele>384.0</ele><time>2026-04-27T07:43:54Z</time></trkpt><trkpt lat="45.92875549494755" lon="12.069209355937465"><ele>384.0</ele><time>2026-04-27T07:43:56Z</time></trkpt><trkpt lat="45.92876498022573" lon="12.069104886374735"><ele>384.0</ele><time>2026-04-27T07:43:59Z</time></trkpt><trkpt lat="45.92868118022169" lon="12.069045136070438"><ele>384.0</ele><time>2026-04-27T07:44:03Z</time></trkpt><trkpt lat="45.92860130874958" lon="12.069078866577065"><ele>384.0</ele><time>2026-04-27T07:44:05Z</time></trkpt><trkpt lat="45.928495231635814" lon="12.069110344727761"><ele>384.0</ele><time>2026-04-27T07:44:07Z</time></trkpt><trkpt lat="45.92843260278687" lon="12.069125501383072"><ele>384.0</ele><time>2026-04-27T07:44:08Z</time></trkpt><trkpt lat="45.928366150120546" lon="12.069136133710002"><ele>382.1428571428571</ele><time>2026-04-27T07:44:09Z</time></trkpt><trkpt lat="45.9282925893711" lon="12.06913713986555"><ele>380.2857142857143</ele><time>2026-04-27T07:44:10Z</time></trkpt><trkpt lat="45.92821423893557" lon="12.06913252446816"><ele>378.42857142857144</ele><time>2026-04-27T07:44:11Z</time></trkpt><trkpt lat="45.92813526375027" lon="12.0691281881701"><ele>376.57142857142856</ele><time>2026-04-27T07:44:12Z</time></trkpt><trkpt lat="45.92805942314844" lon="12.06912474473603"><ele>374.7142857142857</ele><time>2026-04-27T07:44:13Z</time></trkpt><trkpt lat="45.927988129794414" lon="12.069126396601721"><ele>372.85714285714283</ele><time>2026-04-27T07:44:14Z</time></trkpt><trkpt lat="45.92792139146801" lon="12.069136813635627"><ele>371.0</ele><time>2026-04-27T07:44:15Z</time></trkpt><trkpt lat="45.92780541316798" lon="12.069159533632648"><ele>371.0</ele><time>2026-04-27T07:44:17Z</time></trkpt><trkpt lat="45.92772040556458" lon="12.069179291841987"><ele>371.0</ele><time>2026-04-27T07:44:19Z</time></trkpt><trkpt lat="45.92766030987448" lon="12.069222812294562"><ele>371.0</ele><time>2026-04-27T07:44:22Z</time></trkpt><trkpt lat="45.927706822352306" lon="12.069478267849604"><ele>371.0</ele><time>2026-04-27T07:44:26Z</time></trkpt><trkpt lat="45.92777200337342" lon="12.069564700358452"><ele>371.0</ele><time>2026-04-27T07:44:28Z</time></trkpt><trkpt lat="45.92777207230537" lon="12.069663502313546"><ele>371.0</ele><time>2026-04-27T07:44:30Z</time></trkpt><trkpt lat="45.92772721461739" lon="12.069739457640132"><ele>371.0</ele><time>2026-04-27T07:44:33Z</time></trkpt><trkpt lat="45.92777735409156" lon="12.069803164419158"><ele>371.0</ele><time>2026-04-27T07:44:35Z</time></trkpt><trkpt lat="45.92781892434899" lon="12.069687670387442"><ele>371.0</ele><time>2026-04-27T07:44:45Z</time></trkpt><trkpt lat="45.927776874785145" lon="12.06956672637449"><ele>371.0</ele><time>2026-04-27T07:45:12Z</time></trkpt><trkpt lat="45.92774796608165" lon="12.069471416449609"><ele>371.0</ele><time>2026-04-27T07:45:14Z</time></trkpt><trkpt lat="45.9277248736723" lon="12.069386370659517"><ele>371.0</ele><time>2026-04-27T07:45:35Z</time></trkpt><trkpt lat="45.92769607674786" lon="12.06927200516789"><ele>371.0</ele><time>2026-04-27T07:45:37Z</time></trkpt><trkpt lat="45.92762112698087" lon="12.069182714300117"><ele>371.0</ele><time>2026-04-27T07:45:41Z</time></trkpt><trkpt lat="45.927506522808905" lon="12.069222625773014"><ele>371.0</ele><time>2026-04-27T07:45:43Z</time></trkpt><trkpt lat="45.92742969283077" lon="12.069233145276053"><ele>371.0</ele><time>2026-04-27T07:45:44Z</time></trkpt><trkpt lat="45.92735039065229" lon="12.069245037096413"><ele>369.42857142857144</ele><time>2026-04-27T07:45:45Z</time></trkpt><trkpt lat="45.92726675439045" lon="12.06925650205126"><ele>367.8571428571429</ele><time>2026-04-27T07:45:46Z</time></trkpt><trkpt lat="45.92718693295691" lon="12.069271466276836"><ele>366.2857142857143</ele><time>2026-04-27T07:45:47Z</time></trkpt><trkpt lat="45.92712213777769" lon="12.06929343258274"><ele>364.7142857142857</ele><time>2026-04-27T07:45:48Z</time></trkpt><trkpt lat="45.92703635081262" lon="12.069327588778476"><ele>363.14285714285717</ele><time>2026-04-27T07:45:50Z</time></trkpt><trkpt lat="45.92697315792016" lon="12.069349967553446"><ele>361.57142857142856</ele><time>2026-04-27T07:45:56Z</time></trkpt><trkpt lat="45.92691855636517" lon="12.06939788625624"><ele>360.0</ele><time>2026-04-27T07:48:34Z</time></trkpt><trkpt lat="45.92699767566257" lon="12.069658259859715"><ele>360.0</ele><time>2026-04-27T07:48:43Z</time></trkpt><trkpt lat="45.92703944956809" lon="12.069740372314044"><ele>360.0</ele><time>2026-04-27T07:48:45Z</time></trkpt><trkpt lat="45.9270850232225" lon="12.069827547387934"><ele>360.0</ele><time>2026-04-27T07:48:47Z</time></trkpt><trkpt lat="45.927132233211374" lon="12.06991409379427"><ele>360.0</ele><time>2026-04-27T07:48:49Z</time></trkpt><trkpt lat="45.9271887730612" lon="12.07001421912299"><ele>360.0</ele><time>2026-04-27T07:48:51Z</time></trkpt><trkpt lat="45.927253002199116" lon="12.070114775801736"><ele>360.0</ele><time>2026-04-27T07:48:53Z</time></trkpt><trkpt lat="45.92733108119073" lon="12.070210166261374"><ele>358.8</ele><time>2026-04-27T07:48:55Z</time></trkpt><trkpt lat="45.92741502127169" lon="12.070293040530323"><ele>357.6</ele><time>2026-04-27T07:48:57Z</time></trkpt><trkpt lat="45.92749684231303" lon="12.070390787277761"><ele>356.4</ele><time>2026-04-27T07:48:59Z</time></trkpt><trkpt lat="45.927579421744184" lon="12.070486397466045"><ele>355.2</ele><time>2026-04-27T07:49:01Z</time></trkpt><trkpt lat="45.92768766795031" lon="12.070598325040207"><ele>354.0</ele><time>2026-04-27T07:49:03Z</time></trkpt><trkpt lat="45.9277516751438" lon="12.070655898544464"><ele>355.79999999999995</ele><time>2026-04-27T07:49:04Z</time></trkpt><trkpt lat="45.92781869609833" lon="12.070719604781578"><ele>357.59999999999997</ele><time>2026-04-27T07:49:05Z</time></trkpt><trkpt lat="45.927887693336515" lon="12.070790601578079"><ele>359.4</ele><time>2026-04-27T07:49:06Z</time></trkpt><trkpt lat="45.92795770750943" lon="12.070870738030363"><ele>361.2</ele><time>2026-04-27T07:49:07Z</time></trkpt><trkpt lat="45.92803368012172" lon="12.070957790921414"><ele>363.0</ele><time>2026-04-27T07:49:08Z</time></trkpt><trkpt lat="45.92811428371337" lon="12.07104676514546"><ele>363.0</ele><time>2026-04-27T07:49:09Z</time></trkpt><trkpt lat="45.92819886412116" lon="12.071134618217013"><ele>363.0</ele><time>2026-04-27T07:49:10Z</time></trkpt><trkpt lat="45.92828583651375" lon="12.07122598510744"><ele>363.0</ele><time>2026-04-27T07:49:11Z</time></trkpt><trkpt lat="45.92837143753257" lon="12.071327152929497"><ele>363.0</ele><time>2026-04-27T07:49:12Z</time></trkpt><trkpt lat="45.928448485152124" lon="12.071442601150553"><ele>363.0</ele><time>2026-04-27T07:49:13Z</time></trkpt><trkpt lat="45.92850694950076" lon="12.071580914544644"><ele>365.4</ele><time>2026-04-27T07:49:14Z</time></trkpt><trkpt lat="45.92855529647702" lon="12.071733596938584"><ele>367.79999999999995</ele><time>2026-04-27T07:49:15Z</time></trkpt><trkpt lat="45.92860666983831" lon="12.071885348072355"><ele>370.2</ele><time>2026-04-27T07:49:16Z</time></trkpt><trkpt lat="45.928670154437334" lon="12.072012853662416"><ele>372.6</ele><time>2026-04-27T07:49:17Z</time></trkpt><trkpt lat="45.92873917407324" lon="12.072102970502776"><ele>375.0</ele><time>2026-04-27T07:49:18Z</time></trkpt><trkpt lat="45.928818563185665" lon="12.07214418053786"><ele>375.0</ele><time>2026-04-27T07:49:19Z</time></trkpt><trkpt lat="45.92889598548008" lon="12.072117783396282"><ele>375.0</ele><time>2026-04-27T07:49:20Z</time></trkpt><trkpt lat="45.928957318916495" lon="12.072027414004276"><ele>375.0</ele><time>2026-04-27T07:49:21Z</time></trkpt><trkpt lat="45.92897367008129" lon="12.071910045214825"><ele>375.0</ele><time>2026-04-27T07:49:22Z</time></trkpt><trkpt lat="45.928956686578594" lon="12.071822196807792"><ele>375.0</ele><time>2026-04-27T07:49:24Z</time></trkpt><trkpt lat="45.92895650392044" lon="12.07170139098948"><ele>375.0</ele><time>2026-04-27T07:49:46Z</time></trkpt><trkpt lat="45.928947577656515" lon="12.071610865920215"><ele>375.5</ele><time>2026-04-27T07:49:47Z</time></trkpt><trkpt lat="45.92893660390817" lon="12.071506255056532"><ele>376.0</ele><time>2026-04-27T07:49:48Z</time></trkpt><trkpt lat="45.928925789120946" lon="12.071386128530062"><ele>376.5</ele><time>2026-04-27T07:49:49Z</time></trkpt><trkpt lat="45.928914554042066" lon="12.071260384006449"><ele>377.0</ele><time>2026-04-27T07:49:50Z</time></trkpt><trkpt lat="45.928904756354974" lon="12.071127084030717"><ele>377.5</ele><time>2026-04-27T07:49:51Z</time></trkpt><trkpt lat="45.9288935748131" lon="12.070988164782047"><ele>378.0</ele><time>2026-04-27T07:49:52Z</time></trkpt><trkpt lat="45.92888319364399" lon="12.070847809319785"><ele>378.4</ele><time>2026-04-27T07:49:53Z</time></trkpt><trkpt lat="45.928873078431835" lon="12.070707266589004"><ele>378.79999999999995</ele><time>2026-04-27T07:49:54Z</time></trkpt><trkpt lat="45.92886230637421" lon="12.070566890761665"><ele>379.2</ele><time>2026-04-27T07:49:55Z</time></trkpt><trkpt lat="45.92885182995999" lon="12.070427455313649"><ele>379.6</ele><time>2026-04-27T07:49:56Z</time></trkpt><trkpt lat="45.92884111501499" lon="12.070286350882144"><ele>380.0</ele><time>2026-04-27T07:49:57Z</time></trkpt><trkpt lat="45.92883014385869" lon="12.07014454628206"><ele>380.0</ele><time>2026-04-27T07:49:58Z</time></trkpt><trkpt lat="45.92882025711033" lon="12.070004699100409"><ele>380.0</ele><time>2026-04-27T07:49:59Z</time></trkpt><trkpt lat="45.92880956766357" lon="12.069875347693415"><ele>380.0</ele><time>2026-04-27T07:50:00Z</time></trkpt><trkpt lat="45.92880192823807" lon="12.069767754897473"><ele>380.0</ele><time>2026-04-27T07:50:01Z</time></trkpt><trkpt lat="45.92879255336606" lon="12.069673476136124"><ele>380.0</ele><time>2026-04-27T07:50:02Z</time></trkpt><trkpt lat="45.928778892836156" lon="12.069578272464478"><ele>380.0</ele><time>2026-04-27T07:50:03Z</time></trkpt><trkpt lat="45.928773445984675" lon="12.069481867335698"><ele>380.6666666666667</ele><time>2026-04-27T07:50:04Z</time></trkpt><trkpt lat="45.928773171948066" lon="12.069376125479565"><ele>381.33333333333337</ele><time>2026-04-27T07:50:05Z</time></trkpt><trkpt lat="45.928766884314356" lon="12.069268293663672"><ele>382.0</ele><time>2026-04-27T07:50:06Z</time></trkpt><trkpt lat="45.92876219231723" lon="12.06915734456107"><ele>382.6666666666667</ele><time>2026-04-27T07:50:07Z</time></trkpt><trkpt lat="45.92877948496242" lon="12.06905650103001"><ele>383.3333333333333</ele><time>2026-04-27T07:50:08Z</time></trkpt><trkpt lat="45.9288515837626" lon="12.068939983473275"><ele>384.0</ele><time>2026-04-27T07:50:10Z</time></trkpt><trkpt lat="45.92888094123492" lon="12.068796199632287"><ele>385.79999999999995</ele><time>2026-04-27T07:50:12Z</time></trkpt><trkpt lat="45.928856859844906" lon="12.068657839515549"><ele>387.59999999999997</ele><time>2026-04-27T07:50:14Z</time></trkpt><trkpt lat="45.92884491529686" lon="12.068553564019398"><ele>389.4</ele><time>2026-04-27T07:50:18Z</time></trkpt><trkpt lat="45.92878006768359" lon="12.068402933999211"><ele>391.2</ele><time>2026-04-27T07:50:20Z</time></trkpt><trkpt lat="45.92872584714174" lon="12.068317004339374"><ele>393.0</ele><time>2026-04-27T07:50:21Z</time></trkpt><trkpt lat="45.928663995505424" lon="12.068219172391167"><ele>394.0</ele><time>2026-04-27T07:50:22Z</time></trkpt><trkpt lat="45.92859827841181" lon="12.068109058697493"><ele>395.0</ele><time>2026-04-27T07:50:23Z</time></trkpt><trkpt lat="45.92852903325007" lon="12.067992137593127"><ele>396.0</ele><time>2026-04-27T07:50:24Z</time></trkpt><trkpt lat="45.928453634043144" lon="12.06788551368765"><ele>397.0</ele><time>2026-04-27T07:50:25Z</time></trkpt><trkpt lat="45.92836408680885" lon="12.067814391408167"><ele>398.0</ele><time>2026-04-27T07:50:26Z</time></trkpt><trkpt lat="45.928246150595506" lon="12.067765357495535"><ele>398.0</ele><time>2026-04-27T07:50:27Z</time></trkpt><trkpt lat="45.92812970063412" lon="12.067798092481105"><ele>398.0</ele><time>2026-04-27T07:50:28Z</time></trkpt><trkpt lat="45.92802414434484" lon="12.06788654938222"><ele>398.0</ele><time>2026-04-27T07:50:29Z</time></trkpt><trkpt lat="45.92792274490208" lon="12.067989497148282"><ele>398.0</ele><time>2026-04-27T07:50:30Z</time></trkpt><trkpt lat="45.927811795615135" lon="12.068061602000668"><ele>398.0</ele><time>2026-04-27T07:50:31Z</time></trkpt><trkpt lat="45.9276867741333" lon="12.068082390603285"><ele>398.0</ele><time>2026-04-27T07:50:32Z</time></trkpt><trkpt lat="45.92755979157951" lon="12.068052745122785"><ele>398.0</ele><time>2026-04-27T07:50:33Z</time></trkpt><trkpt lat="45.92743801940466" lon="12.06798347502869"><ele>398.0</ele><time>2026-04-27T07:50:34Z</time></trkpt><trkpt lat="45.92731107249109" lon="12.067907392757062"><ele>396.0</ele><time>2026-04-27T07:50:35Z</time></trkpt><trkpt lat="45.927179688041484" lon="12.067829589505106"><ele>394.0</ele><time>2026-04-27T07:50:36Z</time></trkpt><trkpt lat="45.92707709306924" lon="12.067738465539211"><ele>392.0</ele><time>2026-04-27T07:50:37Z</time></trkpt><trkpt lat="45.92703229939697" lon="12.067605901487939"><ele>390.0</ele><time>2026-04-27T07:50:38Z</time></trkpt><trkpt lat="45.92701019836409" lon="12.067444430426812"><ele>390.75</ele><time>2026-04-27T07:50:39Z</time></trkpt><trkpt lat="45.92702945396563" lon="12.067277965586081"><ele>391.5</ele><time>2026-04-27T07:50:40Z</time></trkpt><trkpt lat="45.92709806653489" lon="12.06713649335085"><ele>392.25</ele><time>2026-04-27T07:50:41Z</time></trkpt><trkpt lat="45.92719866555496" lon="12.067025265646212"><ele>393.0</ele><time>2026-04-27T07:50:42Z</time></trkpt><trkpt lat="45.927306341612926" lon="12.06690631558286"><ele>393.0</ele><time>2026-04-27T07:50:43Z</time></trkpt><trkpt lat="45.92741010261826" lon="12.066771764968586"><ele>393.0</ele><time>2026-04-27T07:50:44Z</time></trkpt><trkpt lat="45.92747793659568" lon="12.06661303573819"><ele>393.0</ele><time>2026-04-27T07:50:45Z</time></trkpt><trkpt lat="45.927502253401016" lon="12.066428192565686"><ele>393.0</ele><time>2026-04-27T07:50:46Z</time></trkpt><trkpt lat="45.92746811598249" lon="12.066244134693907"><ele>396.0</ele><time>2026-04-27T07:50:47Z</time></trkpt><trkpt lat="45.92738662281959" lon="12.066094659624902"><ele>399.0</ele><time>2026-04-27T07:50:48Z</time></trkpt><trkpt lat="45.92728195009424" lon="12.065988782035763"><ele>402.0</ele><time>2026-04-27T07:50:49Z</time></trkpt><trkpt lat="45.927180776253195" lon="12.065885269059581"><ele>405.0</ele><time>2026-04-27T07:50:50Z</time></trkpt><trkpt lat="45.92708423771276" lon="12.06577144412022"><ele>409.5</ele><time>2026-04-27T07:50:51Z</time></trkpt><trkpt lat="45.92701836385294" lon="12.065621619416188"><ele>414.0</ele><time>2026-04-27T07:50:52Z</time></trkpt><trkpt lat="45.9269683191895" lon="12.065455573063467"><ele>418.5</ele><time>2026-04-27T07:50:53Z</time></trkpt><trkpt lat="45.92689069467941" lon="12.065321466763464"><ele>423.0</ele><time>2026-04-27T07:50:54Z</time></trkpt><trkpt lat="45.92677859202266" lon="12.065259121670007"><ele>416.75</ele><time>2026-04-27T07:50:55Z</time></trkpt><trkpt lat="45.92665626578474" lon="12.065249848446301"><ele>410.5</ele><time>2026-04-27T07:50:56Z</time></trkpt><trkpt lat="45.926542323959296" lon="12.06521012101033"><ele>404.25</ele><time>2026-04-27T07:50:57Z</time></trkpt><trkpt lat="45.92644456374645" lon="12.065117662237006"><ele>398.0</ele><time>2026-04-27T07:50:58Z</time></trkpt><trkpt lat="45.926375085255174" lon="12.06500590631905"><ele>402.59999999999997</ele><time>2026-04-27T07:50:59Z</time></trkpt><trkpt lat="45.92633273827379" lon="12.064876690710374"><ele>407.2</ele><time>2026-04-27T07:51:00Z</time></trkpt><trkpt lat="45.92631913305763" lon="12.064719937612885"><ele>411.8</ele><time>2026-04-27T07:51:01Z</time></trkpt><trkpt lat="45.92630602681687" lon="12.064557859799766"><ele>416.4</ele><time>2026-04-27T07:51:02Z</time></trkpt><trkpt lat="45.92628333324813" lon="12.06438936744597"><ele>421.0</ele><time>2026-04-27T07:51:03Z</time></trkpt><trkpt lat="45.92625670034739" lon="12.06421706725836"><ele>423.0</ele><time>2026-04-27T07:51:04Z</time></trkpt><trkpt lat="45.92623208164021" lon="12.064037331386842"><ele>425.0</ele><time>2026-04-27T07:51:05Z</time></trkpt><trkpt lat="45.9262069632666" lon="12.063852152231355"><ele>427.0</ele><time>2026-04-27T07:51:06Z</time></trkpt><trkpt lat="45.92618224051359" lon="12.063663132992748"><ele>429.0</ele><time>2026-04-27T07:51:07Z</time></trkpt><trkpt lat="45.92616279624341" lon="12.063477878886385"><ele>429.0</ele><time>2026-04-27T07:51:08Z</time></trkpt><trkpt lat="45.926144254691756" lon="12.06330563725071"><ele>429.0</ele><time>2026-04-27T07:51:09Z</time></trkpt><trkpt lat="45.92611778823213" lon="12.063156361958216"><ele>429.0</ele><time>2026-04-27T07:51:10Z</time></trkpt><trkpt lat="45.92606855861982" lon="12.06305582351545"><ele>429.0</ele><time>2026-04-27T07:51:11Z</time></trkpt><trkpt lat="45.9260156581133" lon="12.063002049497399"><ele>429.0</ele><time>2026-04-27T07:51:12Z</time></trkpt><trkpt lat="45.925945397705775" lon="12.063020892094258"><ele>429.0</ele><time>2026-04-27T07:51:14Z</time></trkpt><trkpt lat="45.926004048575635" lon="12.063134261919203"><ele>429.0</ele><time>2026-04-27T07:52:35.999Z</time></trkpt><trkpt lat="45.926082209305164" lon="12.063243512848898"><ele>429.0</ele><time>2026-04-27T07:52:37.999Z</time></trkpt><trkpt lat="45.926115292118844" lon="12.063411847265357"><ele>429.0</ele><time>2026-04-27T07:52:39.999Z</time></trkpt><trkpt lat="45.926124397878944" lon="12.063519551792465"><ele>429.0</ele><time>2026-04-27T07:52:40.999Z</time></trkpt><trkpt lat="45.92614085498528" lon="12.06363737752233"><ele>429.0</ele><time>2026-04-27T07:52:41.999Z</time></trkpt><trkpt lat="45.926158092427244" lon="12.063764305796118"><ele>429.0</ele><time>2026-04-27T07:52:42.999Z</time></trkpt><trkpt lat="45.92617534915775" lon="12.06390167585261"><ele>429.0</ele><time>2026-04-27T07:52:43.999Z</time></trkpt><trkpt lat="45.926193668930615" lon="12.064048424305033"><ele>429.0</ele><time>2026-04-27T07:52:44.999Z</time></trkpt><trkpt lat="45.92621255596757" lon="12.06420132936055"><ele>429.0</ele><time>2026-04-27T07:52:45.999Z</time></trkpt><trkpt lat="45.926231238858904" lon="12.064354707299234"><ele>427.4</ele><time>2026-04-27T07:52:46.999Z</time></trkpt><trkpt lat="45.926252375132314" lon="12.064508861802404"><ele>425.79999999999995</ele><time>2026-04-27T07:52:47.999Z</time></trkpt><trkpt lat="45.92627282360434" lon="12.06465706159711"><ele>424.20000000000005</ele><time>2026-04-27T07:52:48.999Z</time></trkpt><trkpt lat="45.92628826511954" lon="12.06478718038285"><ele>422.6</ele><time>2026-04-27T07:52:49.999Z</time></trkpt><trkpt lat="45.92629974222534" lon="12.06490008588531"><ele>421.0</ele><time>2026-04-27T07:52:50.999Z</time></trkpt><trkpt lat="45.92631685523632" lon="12.0649906093685"><ele>416.4</ele><time>2026-04-27T07:52:51.999Z</time></trkpt><trkpt lat="45.9263798217953" lon="12.065111957965302"><ele>411.8</ele><time>2026-04-27T07:52:53.999Z</time></trkpt><trkpt lat="45.926432509550835" lon="12.065187251419644"><ele>407.2</ele><time>2026-04-27T07:52:55.999Z</time></trkpt><trkpt lat="45.92649000103681" lon="12.065236850581586"><ele>402.59999999999997</ele><time>2026-04-27T07:52:59.999Z</time></trkpt><trkpt lat="45.926388246180096" lon="12.06523828008914"><ele>398.0</ele><time>2026-04-27T07:53:38.999Z</time></trkpt><trkpt lat="45.926210662664865" lon="12.065422715606518"><ele>398.0</ele><time>2026-04-27T07:54:09.999Z</time></trkpt><trkpt lat="45.926298450447206" lon="12.065310990377675"><ele>398.0</ele><time>2026-04-27T07:54:11.999Z</time></trkpt><trkpt lat="45.926384151014226" lon="12.06522326883237"><ele>398.0</ele><time>2026-04-27T07:54:13.999Z</time></trkpt><trkpt lat="45.926431755838514" lon="12.065153716370059"><ele>398.0</ele><time>2026-04-27T07:54:15.999Z</time></trkpt><trkpt lat="45.9265365584993" lon="12.065246375873533"><ele>398.0</ele><time>2026-04-27T07:54:17.999Z</time></trkpt><trkpt lat="45.92660251436069" lon="12.065278957475945"><ele>398.0</ele><time>2026-04-27T07:54:18.999Z</time></trkpt><trkpt lat="45.92668446949979" lon="12.065277958782964"><ele>398.0</ele><time>2026-04-27T07:54:19.999Z</time></trkpt><trkpt lat="45.92677143668056" lon="12.065294461628369"><ele>398.0</ele><time>2026-04-27T07:54:20.999Z</time></trkpt><trkpt lat="45.92685825632075" lon="12.065346354948007"><ele>398.0</ele><time>2026-04-27T07:54:21.999Z</time></trkpt><trkpt lat="45.926934632213865" lon="12.065442708869522"><ele>398.0</ele><time>2026-04-27T07:54:22.999Z</time></trkpt><trkpt lat="45.92697555395535" lon="12.065586379976153"><ele>399.75</ele><time>2026-04-27T07:54:23.999Z</time></trkpt><trkpt lat="45.927048130177596" lon="12.065729648822922"><ele>401.5</ele><time>2026-04-27T07:54:24.999Z</time></trkpt><trkpt lat="45.927118178797116" lon="12.06588162379051"><ele>403.25</ele><time>2026-04-27T07:54:25.999Z</time></trkpt><trkpt lat="45.927224648463486" lon="12.066006490172787"><ele>405.0</ele><time>2026-04-27T07:54:26.999Z</time></trkpt><trkpt lat="45.92732250243856" lon="12.066122095360544"><ele>405.0</ele><time>2026-04-27T07:54:27.999Z</time></trkpt><trkpt lat="45.92741488308782" lon="12.06622622531319"><ele>405.0</ele><time>2026-04-27T07:54:28.999Z</time></trkpt><trkpt lat="45.92746359255196" lon="12.06637359873614"><ele>405.0</ele><time>2026-04-27T07:54:29.999Z</time></trkpt><trkpt lat="45.92746710119142" lon="12.066510311052426"><ele>405.0</ele><time>2026-04-27T07:54:30.999Z</time></trkpt><trkpt lat="45.927436126838586" lon="12.066633861256285"><ele>405.0</ele><time>2026-04-27T07:54:31.999Z</time></trkpt><trkpt lat="45.927384479240914" lon="12.066752402094428"><ele>402.0</ele><time>2026-04-27T07:54:32.999Z</time></trkpt><trkpt lat="45.92730309399034" lon="12.066854667498491"><ele>399.0</ele><time>2026-04-27T07:54:33.999Z</time></trkpt><trkpt lat="45.92721292280699" lon="12.066954048023968"><ele>396.0</ele><time>2026-04-27T07:54:34.999Z</time></trkpt><trkpt lat="45.927122847650345" lon="12.067061883652698"><ele>393.0</ele><time>2026-04-27T07:54:35.999Z</time></trkpt><trkpt lat="45.92704154637157" lon="12.067173079913276"><ele>393.0</ele><time>2026-04-27T07:54:36.999Z</time></trkpt><trkpt lat="45.92698749954637" lon="12.067290182113934"><ele>393.0</ele><time>2026-04-27T07:54:37.999Z</time></trkpt><trkpt lat="45.92696543793692" lon="12.067428424378823"><ele>393.0</ele><time>2026-04-27T07:54:38.999Z</time></trkpt><trkpt lat="45.92698128021486" lon="12.067573790414587"><ele>393.0</ele><time>2026-04-27T07:54:39.999Z</time></trkpt><trkpt lat="45.927025834752925" lon="12.067710297362922"><ele>393.0</ele><time>2026-04-27T07:54:40.999Z</time></trkpt><trkpt lat="45.927102543567024" lon="12.067820989036132"><ele>392.25</ele><time>2026-04-27T07:54:41.999Z</time></trkpt><trkpt lat="45.92720408730557" lon="12.067897668112208"><ele>391.5</ele><time>2026-04-27T07:54:42.999Z</time></trkpt><trkpt lat="45.92731420391341" lon="12.067956879781873"><ele>390.75</ele><time>2026-04-27T07:54:43.999Z</time></trkpt><trkpt lat="45.9274284612962" lon="12.068025817164786"><ele>390.0</ele><time>2026-04-27T07:54:44.999Z</time></trkpt><trkpt lat="45.927547313391045" lon="12.068086007116394"><ele>391.6</ele><time>2026-04-27T07:54:45.999Z</time></trkpt><trkpt lat="45.92766830235114" lon="12.06811395398833"><ele>393.2</ele><time>2026-04-27T07:54:46.999Z</time></trkpt><trkpt lat="45.92778083492035" lon="12.06810411738779"><ele>394.79999999999995</ele><time>2026-04-27T07:54:47.999Z</time></trkpt><trkpt lat="45.92788428466402" lon="12.06806473086793"><ele>396.4</ele><time>2026-04-27T07:54:49Z</time></trkpt><trkpt lat="45.92796634824166" lon="12.067998787655354"><ele>398.0</ele><time>2026-04-27T07:54:50Z</time></trkpt><trkpt lat="45.928030701029606" lon="12.06793243881403"><ele>397.99999999999994</ele><time>2026-04-27T07:54:51Z</time></trkpt><trkpt lat="45.92809465881195" lon="12.067873725701354"><ele>398.0</ele><time>2026-04-27T07:54:52Z</time></trkpt><trkpt lat="45.92815868955219" lon="12.067829104564533"><ele>398.0</ele><time>2026-04-27T07:54:53Z</time></trkpt><trkpt lat="45.92823568619274" lon="12.067812861742453"><ele>398.0</ele><time>2026-04-27T07:54:54Z</time></trkpt><trkpt lat="45.92831865310469" lon="12.067822617062596"><ele>397.99999999999994</ele><time>2026-04-27T07:54:55Z</time></trkpt><trkpt lat="45.928402102987455" lon="12.067865776662334"><ele>398.0</ele><time>2026-04-27T07:54:56Z</time></trkpt><trkpt lat="45.928476227532606" lon="12.067944131276048"><ele>397.0</ele><time>2026-04-27T07:54:57Z</time></trkpt><trkpt lat="45.92854354569283" lon="12.068048515651096"><ele>396.0</ele><time>2026-04-27T07:54:58Z</time></trkpt><trkpt lat="45.928613182838276" lon="12.068170579502901"><ele>395.0</ele><time>2026-04-27T07:54:59Z</time></trkpt><trkpt lat="45.92868804942354" lon="12.068295654716486"><ele>394.0</ele><time>2026-04-27T07:55:00Z</time></trkpt><trkpt lat="45.9287675758609" lon="12.068426762376111"><ele>393.0</ele><time>2026-04-27T07:55:01Z</time></trkpt><trkpt lat="45.9288441233613" lon="12.068561400131273"><ele>393.0</ele><time>2026-04-27T07:55:02Z</time></trkpt><trkpt lat="45.92891964464444" lon="12.068686841768912"><ele>393.0</ele><time>2026-04-27T07:55:03Z</time></trkpt><trkpt lat="45.928990243388874" lon="12.068804975921411"><ele>393.0</ele><time>2026-04-27T07:55:04Z</time></trkpt><trkpt lat="45.92905390653096" lon="12.068920950103317"><ele>393.0</ele><time>2026-04-27T07:55:05Z</time></trkpt><trkpt lat="45.92910891216404" lon="12.06902868350289"><ele>393.0</ele><time>2026-04-27T07:55:06Z</time></trkpt><trkpt lat="45.92915173831359" lon="12.069128293487745"><ele>394.0</ele><time>2026-04-27T07:55:07Z</time></trkpt><trkpt lat="45.929190027152046" lon="12.06922163601818"><ele>395.0</ele><time>2026-04-27T07:55:08Z</time></trkpt><trkpt lat="45.92922184976436" lon="12.069310012259473"><ele>396.0</ele><time>2026-04-27T07:55:09Z</time></trkpt><trkpt lat="45.92926864086246" lon="12.069435397554916"><ele>397.0</ele><time>2026-04-27T07:55:11Z</time></trkpt><trkpt lat="45.92931655360975" lon="12.069517327919643"><ele>398.0</ele><time>2026-04-27T07:55:32Z</time></trkpt><trkpt lat="45.929352625156206" lon="12.069605863526066"><ele>399.0</ele><time>2026-04-27T07:55:33Z</time></trkpt><trkpt lat="45.9293937862165" lon="12.06970854219698"><ele>399.0</ele><time>2026-04-27T07:55:34Z</time></trkpt><trkpt lat="45.92943761311568" lon="12.069821749698068"><ele>399.0</ele><time>2026-04-27T07:55:35Z</time></trkpt><trkpt lat="45.929469641005824" lon="12.069912012237129"><ele>399.0</ele><time>2026-04-27T07:55:36Z</time></trkpt><trkpt lat="45.92950111863843" lon="12.069995056439002"><ele>399.0</ele><time>2026-04-27T07:55:38Z</time></trkpt><trkpt lat="45.92957952208452" lon="12.07011135392959"><ele>399.0</ele><time>2026-04-27T07:55:52Z</time></trkpt><trkpt lat="45.929629831622385" lon="12.070216301652717"><ele>399.0</ele><time>2026-04-27T07:55:54Z</time></trkpt><trkpt lat="45.92967280175031" lon="12.070323873118658"><ele>398.3333333333333</ele><time>2026-04-27T07:56:21Z</time></trkpt><trkpt lat="45.92970706023906" lon="12.07041312926676"><ele>397.66666666666663</ele><time>2026-04-27T07:56:23Z</time></trkpt><trkpt lat="45.92972232183476" lon="12.070520723452457"><ele>397.0</ele><time>2026-04-27T07:56:59.001Z</time></trkpt><trkpt lat="45.9297547191623" lon="12.070602846604144"><ele>396.3333333333333</ele><time>2026-04-27T07:57:00.001Z</time></trkpt><trkpt lat="45.92980080877498" lon="12.070721646343616"><ele>395.66666666666663</ele><time>2026-04-27T07:57:02.001Z</time></trkpt><trkpt lat="45.929846081221555" lon="12.070797587917165"><ele>395.0</ele><time>2026-04-27T07:58:01Z</time></trkpt><trkpt lat="45.929884108933926" lon="12.070902295902824"><ele>394.16666666666663</ele><time>2026-04-27T07:58:03Z</time></trkpt><trkpt lat="45.92988266575349" lon="12.070996833333965"><ele>393.3333333333333</ele><time>2026-04-27T07:58:04Z</time></trkpt><trkpt lat="45.92993611011442" lon="12.071058139340016"><ele>392.5</ele><time>2026-04-27T07:58:05Z</time></trkpt><trkpt lat="45.92995136872983" lon="12.071165138379985"><ele>391.66666666666663</ele><time>2026-04-27T07:58:07Z</time></trkpt><trkpt lat="45.92997407304284" lon="12.071276291271804"><ele>390.8333333333333</ele><time>2026-04-27T07:58:16Z</time></trkpt><trkpt lat="45.929941531201756" lon="12.071426371358047"><ele>390.0</ele><time>2026-04-27T07:58:19Z</time></trkpt><trkpt lat="45.929938109425734" lon="12.071538741003556"><ele>390.1666666666667</ele><time>2026-04-27T07:58:21Z</time></trkpt><trkpt lat="45.92994098149954" lon="12.071636194345208"><ele>390.33333333333337</ele><time>2026-04-27T07:58:23Z</time></trkpt><trkpt lat="45.92995474047393" lon="12.071758777839632"><ele>390.5</ele><time>2026-04-27T07:58:27Z</time></trkpt><trkpt lat="45.92986360106004" lon="12.071648057463497"><ele>390.6666666666667</ele><time>2026-04-27T07:58:51Z</time></trkpt><trkpt lat="45.929943841885446" lon="12.07170252130226"><ele>390.83333333333337</ele><time>2026-04-27T07:59:54.001Z</time></trkpt><trkpt lat="45.92996077752716" lon="12.071805959863312"><ele>391.0</ele><time>2026-04-27T08:00:13Z</time></trkpt><trkpt lat="45.92998586138924" lon="12.071908166158465"><ele>390.99999999999994</ele><time>2026-04-27T08:00:17Z</time></trkpt><trkpt lat="45.93000323021171" lon="12.072000123939182"><ele>391.0</ele><time>2026-04-27T08:00:24Z</time></trkpt><trkpt lat="45.93002041505567" lon="12.072125424413095"><ele>391.0</ele><time>2026-04-27T08:00:27Z</time></trkpt><trkpt lat="45.93002576089301" lon="12.072217357964751"><ele>391.0</ele><time>2026-04-27T08:00:29Z</time></trkpt><trkpt lat="45.93001611123322" lon="12.072308335576576"><ele>391.0</ele><time>2026-04-27T08:00:42Z</time></trkpt><trkpt lat="45.92998462333706" lon="12.07240881889314"><ele>390.99999999999994</ele><time>2026-04-27T08:00:46Z</time></trkpt><trkpt lat="45.92995400738553" lon="12.072503457245377"><ele>391.0</ele><time>2026-04-27T08:00:48Z</time></trkpt><trkpt lat="45.92992040201302" lon="12.072607328867958"><ele>390.1666666666667</ele><time>2026-04-27T08:00:50Z</time></trkpt><trkpt lat="45.929877975528996" lon="12.072679013118963"><ele>389.33333333333337</ele><time>2026-04-27T08:00:53Z</time></trkpt><trkpt lat="45.92984319830581" lon="12.072757747121672"><ele>388.5</ele><time>2026-04-27T08:00:58.001Z</time></trkpt><trkpt lat="45.929771881682946" lon="12.072866398512977"><ele>387.66666666666663</ele><time>2026-04-27T08:01:01.001Z</time></trkpt><trkpt lat="45.92972115736934" lon="12.072954101796654"><ele>386.8333333333333</ele><time>2026-04-27T08:01:03.001Z</time></trkpt><trkpt lat="45.92964724706669" lon="12.073015178469808"><ele>386.0</ele><time>2026-04-27T08:01:06.001Z</time></trkpt><trkpt lat="45.92962021615249" lon="12.073120686860992"><ele>385.99999999999994</ele><time>2026-04-27T08:01:08.001Z</time></trkpt><trkpt lat="45.929574715819925" lon="12.073196996728555"><ele>386.0</ele><time>2026-04-27T08:01:10.001Z</time></trkpt><trkpt lat="45.929539114227985" lon="12.073288260348477"><ele>386.0</ele><time>2026-04-27T08:01:12.001Z</time></trkpt><trkpt lat="45.92951180581947" lon="12.07339125141219"><ele>386.0</ele><time>2026-04-27T08:01:14.001Z</time></trkpt><trkpt lat="45.92945133770988" lon="12.073452284152246"><ele>385.99999999999994</ele><time>2026-04-27T08:01:16.001Z</time></trkpt><trkpt lat="45.929372281790116" lon="12.073457215489581"><ele>386.0</ele><time>2026-04-27T08:01:18.001Z</time></trkpt><trkpt lat="45.92928601204786" lon="12.073485499854572"><ele>387.8333333333333</ele><time>2026-04-27T08:01:37.001Z</time></trkpt><trkpt lat="45.9292026819142" lon="12.073543422212326"><ele>389.66666666666663</ele><time>2026-04-27T08:01:39.001Z</time></trkpt><trkpt lat="45.92912032403506" lon="12.073583050410914"><ele>391.5</ele><time>2026-04-27T08:01:41.001Z</time></trkpt><trkpt lat="45.92904425167466" lon="12.073629133936272"><ele>393.33333333333337</ele><time>2026-04-27T08:01:44.001Z</time></trkpt><trkpt lat="45.92897680549176" lon="12.07366069212393"><ele>395.1666666666667</ele><time>2026-04-27T08:01:46.001Z</time></trkpt><trkpt lat="45.92889620562296" lon="12.07364336386054"><ele>397.0</ele><time>2026-04-27T08:01:48.001Z</time></trkpt><trkpt lat="45.928814178451326" lon="12.073611451399564"><ele>397.0</ele><time>2026-04-27T08:01:50.001Z</time></trkpt><trkpt lat="45.928740103742946" lon="12.0735896769596"><ele>397.0</ele><time>2026-04-27T08:02:08Z</time></trkpt><trkpt lat="45.928670614630626" lon="12.073568277662067"><ele>397.0</ele><time>2026-04-27T08:02:10Z</time></trkpt><trkpt lat="45.928570854189125" lon="12.073519655688742"><ele>397.0</ele><time>2026-04-27T08:02:30Z</time></trkpt><trkpt lat="45.92846824319803" lon="12.073532248872963"><ele>397.0</ele><time>2026-04-27T08:02:32Z</time></trkpt><trkpt lat="45.92835425087627" lon="12.073580547330765"><ele>397.42857142857144</ele><time>2026-04-27T08:02:34Z</time></trkpt><trkpt lat="45.928285337839704" lon="12.073579710887905"><ele>397.85714285714283</ele><time>2026-04-27T08:02:35Z</time></trkpt><trkpt lat="45.92821943813126" lon="12.073561714342501"><ele>398.28571428571433</ele><time>2026-04-27T08:02:36Z</time></trkpt><trkpt lat="45.928148786820124" lon="12.073543090568325"><ele>398.7142857142857</ele><time>2026-04-27T08:02:37Z</time></trkpt><trkpt lat="45.92807141018208" lon="12.073552174932031"><ele>399.14285714285717</ele><time>2026-04-27T08:02:38Z</time></trkpt><trkpt lat="45.92799646825713" lon="12.07357680598353"><ele>399.5714285714286</ele><time>2026-04-27T08:02:39Z</time></trkpt><trkpt lat="45.92791960076471" lon="12.07359741128682"><ele>400.0</ele><time>2026-04-27T08:02:40Z</time></trkpt><trkpt lat="45.92785717457582" lon="12.073612971993429"><ele>400.00000000000006</ele><time>2026-04-27T08:02:41Z</time></trkpt><trkpt lat="45.92773896091973" lon="12.0735725141093"><ele>400.0</ele><time>2026-04-27T08:02:43Z</time></trkpt><trkpt lat="45.927677155108334" lon="12.073527293595555"><ele>400.0</ele><time>2026-04-27T08:02:44Z</time></trkpt><trkpt lat="45.92761844493524" lon="12.073472972633956"><ele>400.0</ele><time>2026-04-27T08:02:45Z</time></trkpt><trkpt lat="45.92756454683539" lon="12.073424517947624"><ele>400.00000000000006</ele><time>2026-04-27T08:02:46Z</time></trkpt><trkpt lat="45.92746763169624" lon="12.073373356528512"><ele>400.0</ele><time>2026-04-27T08:02:48Z</time></trkpt><trkpt lat="45.92737776283934" lon="12.07346435428753"><ele>400.00000000000006</ele><time>2026-04-27T08:02:50Z</time></trkpt><trkpt lat="45.927366852124116" lon="12.07363494683687"><ele>400.0</ele><time>2026-04-27T08:02:52Z</time></trkpt><trkpt lat="45.92740855186977" lon="12.07370588143328"><ele>400.0</ele><time>2026-04-27T08:02:53Z</time></trkpt><trkpt lat="45.927451639523085" lon="12.073788302242642"><ele>400.0</ele><time>2026-04-27T08:02:54Z</time></trkpt><trkpt lat="45.927506101358524" lon="12.07387253459663"><ele>400.00000000000006</ele><time>2026-04-27T08:02:55Z</time></trkpt><trkpt lat="45.92757932659666" lon="12.073945881171264"><ele>400.0</ele><time>2026-04-27T08:02:56Z</time></trkpt><trkpt lat="45.92764688969565" lon="12.074035940665983"><ele>404.0</ele><time>2026-04-27T08:02:57Z</time></trkpt><trkpt lat="45.92772461079488" lon="12.074124477759634"><ele>408.0</ele><time>2026-04-27T08:02:58Z</time></trkpt><trkpt lat="45.92781522129343" lon="12.074203512779183"><ele>412.0</ele><time>2026-04-27T08:02:59Z</time></trkpt><trkpt lat="45.92791389242339" lon="12.074271699659928"><ele>416.0</ele><time>2026-04-27T08:03:00Z</time></trkpt><trkpt lat="45.928017483734834" lon="12.074331873378817"><ele>420.0</ele><time>2026-04-27T08:03:01Z</time></trkpt><trkpt lat="45.92811969062214" lon="12.07440647854707"><ele>420.0</ele><time>2026-04-27T08:03:02Z</time></trkpt><trkpt lat="45.92821947155693" lon="12.074494025636438"><ele>420.0</ele><time>2026-04-27T08:03:03Z</time></trkpt><trkpt lat="45.92832037450938" lon="12.074570654134803"><ele>420.0</ele><time>2026-04-27T08:03:04.001Z</time></trkpt><trkpt lat="45.92842323020518" lon="12.074617277661838"><ele>420.0</ele><time>2026-04-27T08:03:05.001Z</time></trkpt><trkpt lat="45.92852356130572" lon="12.074628109807138"><ele>420.0</ele><time>2026-04-27T08:03:06.001Z</time></trkpt><trkpt lat="45.92860183869976" lon="12.074623102523486"><ele>418.4</ele><time>2026-04-27T08:03:07.001Z</time></trkpt><trkpt lat="45.92869340610788" lon="12.074627992644256"><ele>416.8</ele><time>2026-04-27T08:03:09.001Z</time></trkpt><trkpt lat="45.92876789784657" lon="12.074607866696926"><ele>415.20000000000005</ele><time>2026-04-27T08:03:11.001Z</time></trkpt><trkpt lat="45.92883700238525" lon="12.074729135457774"><ele>413.6</ele><time>2026-04-27T08:03:13.001Z</time></trkpt><trkpt lat="45.92890999498497" lon="12.074841033986742"><ele>412.0</ele><time>2026-04-27T08:03:15.001Z</time></trkpt><trkpt lat="45.928968502231825" lon="12.074909790915196"><ele>412.0</ele><time>2026-04-27T08:04:19Z</time></trkpt><trkpt lat="45.92903077489795" lon="12.074984637467162"><ele>412.0</ele><time>2026-04-27T08:04:21Z</time></trkpt><trkpt lat="45.92911826688224" lon="12.07505385781368"><ele>412.0</ele><time>2026-04-27T08:04:23Z</time></trkpt><trkpt lat="45.92922234530279" lon="12.075079265403748"><ele>412.0</ele><time>2026-04-27T08:04:25Z</time></trkpt><trkpt lat="45.92933317546035" lon="12.075123410749631"><ele>412.0</ele><time>2026-04-27T08:04:27Z</time></trkpt><trkpt lat="45.929454633161484" lon="12.075114638551202"><ele>412.00000000000006</ele><time>2026-04-27T08:04:29Z</time></trkpt><trkpt lat="45.92954000216074" lon="12.075163470273358"><ele>412.0</ele><time>2026-04-27T08:04:31Z</time></trkpt><trkpt lat="45.929584758623044" lon="12.075237888538277"><ele>412.0</ele><time>2026-04-27T08:04:35Z</time></trkpt><trkpt lat="45.929628453081804" lon="12.075345196826706"><ele>412.0</ele><time>2026-04-27T08:04:38Z</time></trkpt><trkpt lat="45.92967820863547" lon="12.075429360291976"><ele>412.00000000000006</ele><time>2026-04-27T08:04:40Z</time></trkpt><trkpt lat="45.9297478917965" lon="12.075510448652876"><ele>412.0</ele><time>2026-04-27T08:04:42Z</time></trkpt><trkpt lat="45.929832264871536" lon="12.075566613906888"><ele>412.0</ele><time>2026-04-27T08:04:44Z</time></trkpt><trkpt lat="45.92989897887004" lon="12.075628105079756"><ele>412.0</ele><time>2026-04-27T08:04:48Z</time></trkpt><trkpt lat="45.930044428633884" lon="12.075530252762805"><ele>412.0</ele><time>2026-04-27T08:04:54Z</time></trkpt><trkpt lat="45.93010489394901" lon="12.075423837350668"><ele>412.0</ele><time>2026-04-27T08:04:56Z</time></trkpt><trkpt lat="45.93015863759129" lon="12.075311185062137"><ele>412.0</ele><time>2026-04-27T08:04:58Z</time></trkpt><trkpt lat="45.93017431161551" lon="12.075218077160079"><ele>409.6666666666667</ele><time>2026-04-27T08:05:00Z</time></trkpt><trkpt lat="45.93020749182093" lon="12.075089239991302"><ele>407.33333333333337</ele><time>2026-04-27T08:05:03Z</time></trkpt><trkpt lat="45.930178186554656" lon="12.074974554281406"><ele>405.0</ele><time>2026-04-27T08:05:05Z</time></trkpt><trkpt lat="45.93013787199848" lon="12.074887192247132"><ele>402.66666666666663</ele><time>2026-04-27T08:05:23.001Z</time></trkpt><trkpt lat="45.93008442601134" lon="12.074821470842686"><ele>400.3333333333333</ele><time>2026-04-27T08:05:27.001Z</time></trkpt><trkpt lat="45.93001104940705" lon="12.07472921756472"><ele>398.0</ele><time>2026-04-27T08:05:30.001Z</time></trkpt><trkpt lat="45.929908330769436" lon="12.074605598273644"><ele>397.99999999999994</ele><time>2026-04-27T08:05:32Z</time></trkpt><trkpt lat="45.929846479011815" lon="12.07454189758707"><ele>398.0</ele><time>2026-04-27T08:05:33Z</time></trkpt><trkpt lat="45.92978780777586" lon="12.074480854347767"><ele>398.0</ele><time>2026-04-27T08:05:34Z</time></trkpt><trkpt lat="45.929732538389665" lon="12.074423933334748"><ele>398.0</ele><time>2026-04-27T08:05:35Z</time></trkpt><trkpt lat="45.92968145697712" lon="12.07436990133893"><ele>397.99999999999994</ele><time>2026-04-27T08:05:36Z</time></trkpt><trkpt lat="45.929607483351475" lon="12.0742474578507"><ele>398.0</ele><time>2026-04-27T08:05:38Z</time></trkpt><trkpt lat="45.929585036485356" lon="12.074108008000676"><ele>395.79999999999995</ele><time>2026-04-27T08:05:40Z</time></trkpt><trkpt lat="45.92955735491892" lon="12.073987208205695"><ele>393.6</ele><time>2026-04-27T08:05:42Z</time></trkpt><trkpt lat="45.929544316101705" lon="12.073854968049547"><ele>391.4</ele><time>2026-04-27T08:05:44Z</time></trkpt><trkpt lat="45.92954118222291" lon="12.073704968011052"><ele>389.20000000000005</ele><time>2026-04-27T08:05:46Z</time></trkpt><trkpt lat="45.92951124967078" lon="12.073547424546806"><ele>387.0</ele><time>2026-04-27T08:05:48Z</time></trkpt><trkpt lat="45.92950307687341" lon="12.073428980345659"><ele>387.0</ele><time>2026-04-27T08:05:50Z</time></trkpt><trkpt lat="45.929523393446004" lon="12.0733308798418"><ele>387.0</ele><time>2026-04-27T08:06:04Z</time></trkpt><trkpt lat="45.929574146800825" lon="12.073253254666872"><ele>387.0</ele><time>2026-04-27T08:06:06Z</time></trkpt><trkpt lat="45.92961841548139" lon="12.073137450186282"><ele>387.0</ele><time>2026-04-27T08:06:08Z</time></trkpt><trkpt lat="45.92967523332525" lon="12.073041867567225"><ele>387.0</ele><time>2026-04-27T08:06:10Z</time></trkpt><trkpt lat="45.92972850930073" lon="12.072976624384353"><ele>387.0</ele><time>2026-04-27T08:06:12Z</time></trkpt><trkpt lat="45.9298093650898" lon="12.072883155470016"><ele>386.8333333333333</ele><time>2026-04-27T08:06:14Z</time></trkpt><trkpt lat="45.929872224403056" lon="12.072781538692336"><ele>386.66666666666663</ele><time>2026-04-27T08:06:16Z</time></trkpt><trkpt lat="45.92989429379404" lon="12.072695239491098"><ele>386.5</ele><time>2026-04-27T08:06:19Z</time></trkpt><trkpt lat="45.9299327226039" lon="12.072622510018194"><ele>386.3333333333333</ele><time>2026-04-27T08:06:22Z</time></trkpt><trkpt lat="45.92996872572682" lon="12.072531996831705"><ele>386.16666666666663</ele><time>2026-04-27T08:06:24Z</time></trkpt><trkpt lat="45.93000357219884" lon="12.072422546720308"><ele>386.0</ele><time>2026-04-27T08:06:26Z</time></trkpt><trkpt lat="45.93004486534662" lon="12.072315591685747"><ele>384.5714285714286</ele><time>2026-04-27T08:06:28Z</time></trkpt><trkpt lat="45.930070146000844" lon="12.072231016499115"><ele>383.14285714285717</ele><time>2026-04-27T08:07:15Z</time></trkpt><trkpt lat="45.93014414988152" lon="12.072190313189774"><ele>381.7142857142857</ele><time>2026-04-27T08:07:18Z</time></trkpt><trkpt lat="45.9302098622781" lon="12.07213060324422"><ele>380.28571428571433</ele><time>2026-04-27T08:07:20Z</time></trkpt><trkpt lat="45.93026565172763" lon="12.072045631801522"><ele>378.85714285714283</ele><time>2026-04-27T08:07:22Z</time></trkpt><trkpt lat="45.93030203219429" lon="12.071951447206208"><ele>377.42857142857144</ele><time>2026-04-27T08:07:24Z</time></trkpt><trkpt lat="45.93031109692231" lon="12.071849370850483"><ele>376.0</ele><time>2026-04-27T08:07:26Z</time></trkpt><trkpt lat="45.930312576022715" lon="12.071755573049915"><ele>376.0</ele><time>2026-04-27T08:07:28Z</time></trkpt><trkpt lat="45.930327634442214" lon="12.071635895164812"><ele>376.0</ele><time>2026-04-27T08:08:16Z</time></trkpt><trkpt lat="45.930313232836966" lon="12.071536428235186"><ele>376.0</ele><time>2026-04-27T08:08:19Z</time></trkpt><trkpt lat="45.93031661713407" lon="12.071422597374"><ele>376.0</ele><time>2026-04-27T08:08:22Z</time></trkpt><trkpt lat="45.930394215320185" lon="12.07138562368417"><ele>376.0</ele><time>2026-04-27T08:08:25Z</time></trkpt><trkpt lat="45.930505703370464" lon="12.071286607259722"><ele>376.0</ele><time>2026-04-27T08:08:27Z</time></trkpt><trkpt lat="45.930541148013994" lon="12.071174883677218"><ele>377.8333333333333</ele><time>2026-04-27T08:08:28Z</time></trkpt><trkpt lat="45.93058326566407" lon="12.07107477443778"><ele>379.66666666666663</ele><time>2026-04-27T08:08:29Z</time></trkpt><trkpt lat="45.930630159187075" lon="12.070964816316703"><ele>381.5</ele><time>2026-04-27T08:08:30Z</time></trkpt><trkpt lat="45.930679627558504" lon="12.0708532366085"><ele>383.3333333333333</ele><time>2026-04-27T08:08:31Z</time></trkpt><trkpt lat="45.93072907015764" lon="12.07074308097789"><ele>385.1666666666667</ele><time>2026-04-27T08:08:32Z</time></trkpt><trkpt lat="45.930777741252534" lon="12.070655882134703"><ele>387.0</ele><time>2026-04-27T08:08:33Z</time></trkpt><trkpt lat="45.93083529860663" lon="12.070586961445535"><ele>388.8333333333333</ele><time>2026-04-27T08:08:34Z</time></trkpt><trkpt lat="45.93090052471326" lon="12.07056456714653"><ele>390.66666666666663</ele><time>2026-04-27T08:08:35Z</time></trkpt><trkpt lat="45.93096316500523" lon="12.070587417677256"><ele>392.5</ele><time>2026-04-27T08:08:36Z</time></trkpt><trkpt lat="45.93100934503802" lon="12.070666849794094"><ele>394.3333333333333</ele><time>2026-04-27T08:08:37Z</time></trkpt><trkpt lat="45.931020838246965" lon="12.070788562788431"><ele>396.16666666666663</ele><time>2026-04-27T08:08:38Z</time></trkpt><trkpt lat="45.93101042890213" lon="12.070915281803204"><ele>398.0</ele><time>2026-04-27T08:08:39Z</time></trkpt><trkpt lat="45.930995535414034" lon="12.071052344558685"><ele>398.0</ele><time>2026-04-27T08:08:40Z</time></trkpt><trkpt lat="45.930984294775925" lon="12.0712052798056"><ele>398.0</ele><time>2026-04-27T08:08:41Z</time></trkpt><trkpt lat="45.93097014323726" lon="12.071370532906384"><ele>398.0</ele><time>2026-04-27T08:08:42Z</time></trkpt><trkpt lat="45.930954436597915" lon="12.07154667092845"><ele>398.0</ele><time>2026-04-27T08:08:43Z</time></trkpt><trkpt lat="45.930939734789334" lon="12.071724055449446"><ele>395.5</ele><time>2026-04-27T08:08:44Z</time></trkpt><trkpt lat="45.930943451356804" lon="12.071892224479551"><ele>393.0</ele><time>2026-04-27T08:08:45Z</time></trkpt><trkpt lat="45.930973095016704" lon="12.072048301074794"><ele>390.5</ele><time>2026-04-27T08:08:46Z</time></trkpt><trkpt lat="45.93102910257569" lon="12.072191878705148"><ele>388.0</ele><time>2026-04-27T08:08:47Z</time></trkpt><trkpt lat="45.931121681248435" lon="12.072307648251991"><ele>388.0</ele><time>2026-04-27T08:08:48Z</time></trkpt><trkpt lat="45.93122520281235" lon="12.072411138437145"><ele>388.0</ele><time>2026-04-27T08:08:49Z</time></trkpt><trkpt lat="45.93132742266511" lon="12.072522242110544"><ele>388.0</ele><time>2026-04-27T08:08:50Z</time></trkpt><trkpt lat="45.93141472420738" lon="12.072666093977222"><ele>388.0</ele><time>2026-04-27T08:08:51Z</time></trkpt><trkpt lat="45.93148332901256" lon="12.072842707559811"><ele>386.0</ele><time>2026-04-27T08:08:52Z</time></trkpt><trkpt lat="45.93153143549707" lon="12.073044818641101"><ele>384.0</ele><time>2026-04-27T08:08:53Z</time></trkpt><trkpt lat="45.93156550066419" lon="12.073259186751402"><ele>382.0</ele><time>2026-04-27T08:08:54Z</time></trkpt><trkpt lat="45.93160631542936" lon="12.073459874361353"><ele>380.0</ele><time>2026-04-27T08:08:55Z</time></trkpt><trkpt lat="45.93167763752207" lon="12.073636489495685"><ele>377.33333333333337</ele><time>2026-04-27T08:08:56Z</time></trkpt><trkpt lat="45.931779610109025" lon="12.073789995055096"><ele>374.6666666666667</ele><time>2026-04-27T08:08:57Z</time></trkpt><trkpt lat="45.9319066256624" lon="12.073924212521282"><ele>372.0</ele><time>2026-04-27T08:08:58Z</time></trkpt><trkpt lat="45.932036591726416" lon="12.074065231466308"><ele>366.0</ele><time>2026-04-27T08:08:59Z</time></trkpt><trkpt lat="45.93214788713531" lon="12.074240871091396"><ele>360.0</ele><time>2026-04-27T08:09:00Z</time></trkpt><trkpt lat="45.93224710919806" lon="12.074435219476857"><ele>354.0</ele><time>2026-04-27T08:09:01Z</time></trkpt><trkpt lat="45.93233984091586" lon="12.074641990110196"><ele>354.0</ele><time>2026-04-27T08:09:02Z</time></trkpt><trkpt lat="45.9324486367821" lon="12.07483515484277"><ele>354.0</ele><time>2026-04-27T08:09:03Z</time></trkpt><trkpt lat="45.932579961527516" lon="12.075005143281166"><ele>354.0</ele><time>2026-04-27T08:09:04Z</time></trkpt><trkpt lat="45.932718527177194" lon="12.075162975359946"><ele>353.0</ele><time>2026-04-27T08:09:05Z</time></trkpt><trkpt lat="45.93285639815334" lon="12.075324435623811"><ele>352.0</ele><time>2026-04-27T08:09:06Z</time></trkpt><trkpt lat="45.93299734568678" lon="12.075483289895208"><ele>351.0</ele><time>2026-04-27T08:09:07Z</time></trkpt><trkpt lat="45.93313664750066" lon="12.07564231952935"><ele>351.6666666666667</ele><time>2026-04-27T08:09:08Z</time></trkpt><trkpt lat="45.93327276888814" lon="12.07579693257113"><ele>352.33333333333337</ele><time>2026-04-27T08:09:09Z</time></trkpt><trkpt lat="45.933394131677225" lon="12.075936435852071"><ele>353.0</ele><time>2026-04-27T08:09:10Z</time></trkpt><trkpt lat="45.93349567268596" lon="12.076056169976134"><ele>353.0</ele><time>2026-04-27T08:09:11Z</time></trkpt><trkpt lat="45.933583201459136" lon="12.076157039724338"><ele>353.0</ele><time>2026-04-27T08:09:12Z</time></trkpt><trkpt lat="45.93365349367215" lon="12.076239459712165"><ele>353.0</ele><time>2026-04-27T08:09:13Z</time></trkpt><trkpt lat="45.933717840804526" lon="12.076312622667126"><ele>353.0</ele><time>2026-04-27T08:09:14Z</time></trkpt><trkpt lat="45.933780228326896" lon="12.076382834910921"><ele>353.0</ele><time>2026-04-27T08:09:15Z</time></trkpt><trkpt lat="45.93384112137899" lon="12.07644895686282"><ele>353.0</ele><time>2026-04-27T08:09:16Z</time></trkpt><trkpt lat="45.93389880523242" lon="12.07651260992714"><ele>353.0</ele><time>2026-04-27T08:09:17Z</time></trkpt><trkpt lat="45.93395114509853" lon="12.076571500559238"><ele>353.0</ele><time>2026-04-27T08:09:18Z</time></trkpt><trkpt lat="45.934042203640566" lon="12.076673236657536"><ele>353.0</ele><time>2026-04-27T08:09:20Z</time></trkpt><trkpt lat="45.93412433581182" lon="12.076763780546417"><ele>353.0</ele><time>2026-04-27T08:09:22Z</time></trkpt><trkpt lat="45.934223361884406" lon="12.076862758856834"><ele>353.0</ele><time>2026-04-27T08:09:24Z</time></trkpt><trkpt lat="45.93426666700056" lon="12.076939689162241"><ele>354.1428571428571</ele><time>2026-04-27T08:09:25Z</time></trkpt><trkpt lat="45.93431941949753" lon="12.077005650564411"><ele>355.28571428571433</ele><time>2026-04-27T08:09:26Z</time></trkpt><trkpt lat="45.93437361078528" lon="12.077074659982838"><ele>356.42857142857144</ele><time>2026-04-27T08:09:27Z</time></trkpt><trkpt lat="45.9344248568762" lon="12.077141689540499"><ele>357.57142857142856</ele><time>2026-04-27T08:09:28Z</time></trkpt><trkpt lat="45.93447540079876" lon="12.077208103143256"><ele>358.71428571428567</ele><time>2026-04-27T08:09:29Z</time></trkpt><trkpt lat="45.93452404273739" lon="12.077273244783305"><ele>359.8571428571429</ele><time>2026-04-27T08:09:30Z</time></trkpt><trkpt lat="45.934570691103346" lon="12.077336998182858"><ele>361.0</ele><time>2026-04-27T08:09:31Z</time></trkpt><trkpt lat="45.93461802685049" lon="12.077402028651404"><ele>354.6</ele><time>2026-04-27T08:09:32Z</time></trkpt><trkpt lat="45.93466666377062" lon="12.07747043291925"><ele>348.20000000000005</ele><time>2026-04-27T08:09:33Z</time></trkpt><trkpt lat="45.93473333367923" lon="12.077537942017662"><ele>341.79999999999995</ele><time>2026-04-27T08:09:34Z</time></trkpt><trkpt lat="45.934795261366304" lon="12.077647756862119"><ele>335.4</ele><time>2026-04-27T08:09:35Z</time></trkpt><trkpt lat="45.93487329662476" lon="12.07776491672423"><ele>329.0</ele><time>2026-04-27T08:09:36Z</time></trkpt><trkpt lat="45.93495907147217" lon="12.077888023085196"><ele>329.0</ele><time>2026-04-27T08:09:37Z</time></trkpt><trkpt lat="45.93505126472742" lon="12.078016385025153"><ele>329.0</ele><time>2026-04-27T08:09:38Z</time></trkpt><trkpt lat="45.93514877646328" lon="12.078152831419475"><ele>329.0</ele><time>2026-04-27T08:09:39Z</time></trkpt><trkpt lat="45.935252587252045" lon="12.078295801062646"><ele>329.0</ele><time>2026-04-27T08:09:40Z</time></trkpt><trkpt lat="45.935361167936065" lon="12.078444260714512"><ele>328.6666666666667</ele><time>2026-04-27T08:09:41Z</time></trkpt><trkpt lat="45.935474117878975" lon="12.078599836749547"><ele>328.3333333333333</ele><time>2026-04-27T08:09:42Z</time></trkpt><trkpt lat="45.935591709857206" lon="12.078761626342311"><ele>328.0</ele><time>2026-04-27T08:09:43Z</time></trkpt><trkpt lat="45.93571349367555" lon="12.07893114517606"><ele>328.3333333333333</ele><time>2026-04-27T08:09:44Z</time></trkpt><trkpt lat="45.93583873639313" lon="12.079102336602984"><ele>328.6666666666667</ele><time>2026-04-27T08:09:45Z</time></trkpt><trkpt lat="45.935961264816676" lon="12.079279511035008"><ele>329.0</ele><time>2026-04-27T08:09:46Z</time></trkpt><trkpt lat="45.936078922994696" lon="12.07946533766681"><ele>329.0</ele><time>2026-04-27T08:09:47Z</time></trkpt><trkpt lat="45.93619166817702" lon="12.079658310033587"><ele>329.0</ele><time>2026-04-27T08:09:48Z</time></trkpt><trkpt lat="45.93629444950596" lon="12.079855503802897"><ele>329.0</ele><time>2026-04-27T08:09:49Z</time></trkpt><trkpt lat="45.936386015523986" lon="12.080044011778625"><ele>324.5</ele><time>2026-04-27T08:09:50Z</time></trkpt><trkpt lat="45.936475829681925" lon="12.080234435143785"><ele>320.0</ele><time>2026-04-27T08:09:51Z</time></trkpt><trkpt lat="45.93656010613643" lon="12.080422393087465"><ele>315.5</ele><time>2026-04-27T08:09:52Z</time></trkpt><trkpt lat="45.93662036739162" lon="12.080589619587096"><ele>311.0</ele><time>2026-04-27T08:09:53Z</time></trkpt><trkpt lat="45.93666497397936" lon="12.080748256331697"><ele>310.5</ele><time>2026-04-27T08:09:54Z</time></trkpt><trkpt lat="45.936693696064346" lon="12.080896380623443"><ele>310.0</ele><time>2026-04-27T08:09:55Z</time></trkpt><trkpt lat="45.93671266888339" lon="12.081029680268083"><ele>309.5</ele><time>2026-04-27T08:09:56Z</time></trkpt><trkpt lat="45.93672567888325" lon="12.081138550668728"><ele>309.0</ele><time>2026-04-27T08:09:57Z</time></trkpt><trkpt lat="45.936710548053355" lon="12.081255940572849"><ele>308.5</ele><time>2026-04-27T08:09:59Z</time></trkpt><trkpt lat="45.936643239434865" lon="12.081209885523855"><ele>308.0</ele><time>2026-04-27T08:10:02Z</time></trkpt><trkpt lat="45.93658247357576" lon="12.081110791757702"><ele>308.5</ele><time>2026-04-27T08:10:04Z</time></trkpt><trkpt lat="45.93654145841047" lon="12.081038959376812"><ele>309.0</ele><time>2026-04-27T08:10:05Z</time></trkpt><trkpt lat="45.93649464385918" lon="12.080960316629398"><ele>309.5</ele><time>2026-04-27T08:10:06Z</time></trkpt><trkpt lat="45.936445840872835" lon="12.080879912734119"><ele>310.0</ele><time>2026-04-27T08:10:07Z</time></trkpt><trkpt lat="45.93639844028813" lon="12.080802067908852"><ele>310.5</ele><time>2026-04-27T08:10:08Z</time></trkpt><trkpt lat="45.936323535138385" lon="12.080679053018917"><ele>311.0</ele><time>2026-04-27T08:10:10Z</time></trkpt><trkpt lat="45.93627694021557" lon="12.080602530354072"><ele>311.0</ele><time>2026-04-27T08:10:13Z</time></trkpt><trkpt lat="45.93623401887388" lon="12.08053515366478"><ele>311.0</ele><time>2026-04-27T08:10:15Z</time></trkpt><trkpt lat="45.93612657318466" lon="12.08039183933228"><ele>311.0</ele><time>2026-04-27T08:10:17Z</time></trkpt><trkpt lat="45.93604593680001" lon="12.080314560627397"><ele>311.0</ele><time>2026-04-27T08:10:18Z</time></trkpt><trkpt lat="45.935964244847135" lon="12.080209604363803"><ele>311.0</ele><time>2026-04-27T08:10:19Z</time></trkpt><trkpt lat="45.93587332938855" lon="12.080097265389906"><ele>310.75</ele><time>2026-04-27T08:10:20Z</time></trkpt><trkpt lat="45.9357796502354" lon="12.079965925882284"><ele>310.5</ele><time>2026-04-27T08:10:21Z</time></trkpt><trkpt lat="45.935656870664786" lon="12.079882244367958"><ele>310.25</ele><time>2026-04-27T08:10:22Z</time></trkpt><trkpt lat="45.93555372190361" lon="12.079758640933056"><ele>310.0</ele><time>2026-04-27T08:10:23Z</time></trkpt><trkpt lat="45.935452030456" lon="12.079656333355054"><ele>310.0</ele><time>2026-04-27T08:10:24Z</time></trkpt><trkpt lat="45.9353538064697" lon="12.079544670656622"><ele>310.0</ele><time>2026-04-27T08:10:25Z</time></trkpt><trkpt lat="45.935257072606454" lon="12.079416850309203"><ele>310.0</ele><time>2026-04-27T08:10:26Z</time></trkpt><trkpt lat="45.93516219423342" lon="12.079284249219306"><ele>310.0</ele><time>2026-04-27T08:10:27Z</time></trkpt><trkpt lat="45.935051694462814" lon="12.079167317462538"><ele>310.25</ele><time>2026-04-27T08:10:28Z</time></trkpt><trkpt lat="45.93494727195938" lon="12.079038061640697"><ele>310.5</ele><time>2026-04-27T08:10:29Z</time></trkpt><trkpt lat="45.934850044882765" lon="12.078898161276054"><ele>310.75</ele><time>2026-04-27T08:10:30Z</time></trkpt><trkpt lat="45.93473947107605" lon="12.078788381690494"><ele>311.0</ele><time>2026-04-27T08:10:31Z</time></trkpt><trkpt lat="45.9346271608158" lon="12.078694694055297"><ele>311.0</ele><time>2026-04-27T08:10:32Z</time></trkpt><trkpt lat="45.934527800877405" lon="12.078577928538321"><ele>311.0</ele><time>2026-04-27T08:10:33Z</time></trkpt><trkpt lat="45.93442556266506" lon="12.07847679888924"><ele>311.0</ele><time>2026-04-27T08:10:34Z</time></trkpt><trkpt lat="45.934319612445506" lon="12.078391319328569"><ele>311.0</ele><time>2026-04-27T08:10:35Z</time></trkpt><trkpt lat="45.934216125150456" lon="12.07831307040051"><ele>311.33333333333337</ele><time>2026-04-27T08:10:36Z</time></trkpt><trkpt lat="45.93411734545568" lon="12.078252739870674"><ele>311.6666666666667</ele><time>2026-04-27T08:10:37Z</time></trkpt><trkpt lat="45.93402753373479" lon="12.078202140172335"><ele>312.0</ele><time>2026-04-27T08:10:38Z</time></trkpt><trkpt lat="45.93395224635595" lon="12.078159565623876"><ele>312.3333333333333</ele><time>2026-04-27T08:10:39Z</time></trkpt><trkpt lat="45.93387435517624" lon="12.078111926792173"><ele>312.66666666666663</ele><time>2026-04-27T08:10:41Z</time></trkpt><trkpt lat="45.93381258709512" lon="12.07806511546528"><ele>313.0</ele><time>2026-04-27T08:11:01Z</time></trkpt><trkpt lat="45.93370759442336" lon="12.078002045786848"><ele>313.0</ele><time>2026-04-27T08:11:03Z</time></trkpt><trkpt lat="45.93364817328349" lon="12.077952835289038"><ele>313.0</ele><time>2026-04-27T08:11:04Z</time></trkpt><trkpt lat="45.93358930463363" lon="12.077881218282862"><ele>313.0</ele><time>2026-04-27T08:11:05Z</time></trkpt><trkpt lat="45.933533459962085" lon="12.077802670067726"><ele>313.0</ele><time>2026-04-27T08:11:06Z</time></trkpt><trkpt lat="45.93347744258436" lon="12.077719924637083"><ele>313.0</ele><time>2026-04-27T08:11:07Z</time></trkpt><trkpt lat="45.93342523341728" lon="12.077640876918375"><ele>313.0</ele><time>2026-04-27T08:11:08Z</time></trkpt><trkpt lat="45.93337041090566" lon="12.07751885699541"><ele>313.0</ele><time>2026-04-27T08:11:10Z</time></trkpt><trkpt lat="45.93340008114878" lon="12.077605071105236"><ele>313.0</ele><time>2026-04-27T08:11:25Z</time></trkpt><trkpt lat="45.933448985990644" lon="12.077681930927639"><ele>313.0</ele><time>2026-04-27T08:11:26Z</time></trkpt><trkpt lat="45.933505061349905" lon="12.077766492341778"><ele>313.0</ele><time>2026-04-27T08:11:27Z</time></trkpt><trkpt lat="45.93356444441207" lon="12.077852506589466"><ele>313.0</ele><time>2026-04-27T08:11:28Z</time></trkpt><trkpt lat="45.93362931097911" lon="12.07793594879094"><ele>313.0</ele><time>2026-04-27T08:11:29Z</time></trkpt><trkpt lat="45.933700309948726" lon="12.078005625994571"><ele>313.0</ele><time>2026-04-27T08:11:30Z</time></trkpt><trkpt lat="45.93377592408369" lon="12.078056077814013"><ele>313.0</ele><time>2026-04-27T08:11:31Z</time></trkpt><trkpt lat="45.93385401309808" lon="12.078100854072423"><ele>313.0</ele><time>2026-04-27T08:11:32.001Z</time></trkpt><trkpt lat="45.933931612052774" lon="12.078146093579841"><ele>313.0</ele><time>2026-04-27T08:11:33Z</time></trkpt><trkpt lat="45.9340125441931" lon="12.078193295716005"><ele>313.0</ele><time>2026-04-27T08:11:34Z</time></trkpt><trkpt lat="45.93410236316865" lon="12.078243983093444"><ele>313.0</ele><time>2026-04-27T08:11:35Z</time></trkpt><trkpt lat="45.934197079642644" lon="12.078299961586287"><ele>312.5</ele><time>2026-04-27T08:11:36Z</time></trkpt><trkpt lat="45.93429303845356" lon="12.078366957789141"><ele>312.0</ele><time>2026-04-27T08:11:37Z</time></trkpt><trkpt lat="45.93439171875427" lon="12.078448236180737"><ele>311.5</ele><time>2026-04-27T08:11:38Z</time></trkpt><trkpt lat="45.93449052964823" lon="12.078538528538392"><ele>311.0</ele><time>2026-04-27T08:11:39Z</time></trkpt><trkpt lat="45.934588069042974" lon="12.078649638069981"><ele>311.0</ele><time>2026-04-27T08:11:40Z</time></trkpt><trkpt lat="45.93468782570289" lon="12.078763119829672"><ele>311.0</ele><time>2026-04-27T08:11:41Z</time></trkpt><trkpt lat="45.934794765975404" lon="12.078875897527162"><ele>311.0</ele><time>2026-04-27T08:11:42Z</time></trkpt><trkpt lat="45.934903536301626" lon="12.078989047503715"><ele>311.0</ele><time>2026-04-27T08:11:43Z</time></trkpt><trkpt lat="45.935009096147766" lon="12.079118029464773"><ele>310.75</ele><time>2026-04-27T08:11:44Z</time></trkpt><trkpt lat="45.935111247284475" lon="12.07925031306332"><ele>310.5</ele><time>2026-04-27T08:11:45Z</time></trkpt><trkpt lat="45.93520930750557" lon="12.079387002535663"><ele>310.25</ele><time>2026-04-27T08:11:46Z</time></trkpt><trkpt lat="45.935305423584396" lon="12.079517472540397"><ele>310.0</ele><time>2026-04-27T08:11:47Z</time></trkpt><trkpt lat="45.93540521102224" lon="12.079640649590214"><ele>310.0</ele><time>2026-04-27T08:11:48Z</time></trkpt><trkpt lat="45.93550737360281" lon="12.079746890157711"><ele>310.0</ele><time>2026-04-27T08:11:49Z</time></trkpt><trkpt lat="45.935610215887664" lon="12.0798451977754"><ele>310.0</ele><time>2026-04-27T08:11:50Z</time></trkpt><trkpt lat="45.93571212816626" lon="12.079940137278713"><ele>310.0</ele><time>2026-04-27T08:11:51Z</time></trkpt><trkpt lat="45.935805902450454" lon="12.080029050347779"><ele>310.16666666666663</ele><time>2026-04-27T08:11:52Z</time></trkpt><trkpt lat="45.93588844664859" lon="12.080118602970892"><ele>310.3333333333333</ele><time>2026-04-27T08:11:53Z</time></trkpt><trkpt lat="45.93596257276501" lon="12.080208621503173"><ele>310.5</ele><time>2026-04-27T08:11:54Z</time></trkpt><trkpt lat="45.93602861016717" lon="12.080293428252908"><ele>310.6666666666667</ele><time>2026-04-27T08:11:55Z</time></trkpt><trkpt lat="45.9360866406178" lon="12.080370444263544"><ele>310.83333333333337</ele><time>2026-04-27T08:11:56Z</time></trkpt><trkpt lat="45.93613743531794" lon="12.08043939170725"><ele>311.0</ele><time>2026-04-27T08:11:57Z</time></trkpt><trkpt lat="45.936212271178434" lon="12.080544106566892"><ele>311.0</ele><time>2026-04-27T08:11:59Z</time></trkpt><trkpt lat="45.93626866751538" lon="12.08063049858829"><ele>311.0</ele><time>2026-04-27T08:12:02Z</time></trkpt><trkpt lat="45.93630725477138" lon="12.080724872054661"><ele>311.0</ele><time>2026-04-27T08:12:05Z</time></trkpt><trkpt lat="45.936370851250345" lon="12.080829314960816"><ele>311.0</ele><time>2026-04-27T08:12:07Z</time></trkpt><trkpt lat="45.93641312712124" lon="12.080898743619949"><ele>311.0</ele><time>2026-04-27T08:12:08Z</time></trkpt><trkpt lat="45.93647312383745" lon="12.080961248120442"><ele>311.0</ele><time>2026-04-27T08:12:09Z</time></trkpt><trkpt lat="45.93652257900495" lon="12.081046663902356"><ele>310.5</ele><time>2026-04-27T08:12:10Z</time></trkpt><trkpt lat="45.93655681145365" lon="12.081136565993319"><ele>310.0</ele><time>2026-04-27T08:12:11Z</time></trkpt><trkpt lat="45.9366278133008" lon="12.081252489991376"><ele>309.5</ele><time>2026-04-27T08:12:13Z</time></trkpt><trkpt lat="45.93667852955466" lon="12.081329741774663"><ele>309.0</ele><time>2026-04-27T08:12:16Z</time></trkpt><trkpt lat="45.93672794119311" lon="12.081426854191639"><ele>308.5</ele><time>2026-04-27T08:12:18Z</time></trkpt><trkpt lat="45.93670472357287" lon="12.081559880635542"><ele>308.0</ele><time>2026-04-27T08:12:19Z</time></trkpt><trkpt lat="45.93670597404589" lon="12.081671222255606"><ele>306.83333333333337</ele><time>2026-04-27T08:12:20Z</time></trkpt><trkpt lat="45.93670572041183" lon="12.081783631460494"><ele>305.6666666666667</ele><time>2026-04-27T08:12:21Z</time></trkpt><trkpt lat="45.936707459618944" lon="12.08189335275721"><ele>304.5</ele><time>2026-04-27T08:12:22Z</time></trkpt><trkpt lat="45.936714539220915" lon="12.082003939156213"><ele>303.3333333333333</ele><time>2026-04-27T08:12:23Z</time></trkpt><trkpt lat="45.936728879057924" lon="12.082116547958456"><ele>302.16666666666663</ele><time>2026-04-27T08:12:24Z</time></trkpt><trkpt lat="45.93674988923851" lon="12.08223679291741"><ele>301.0</ele><time>2026-04-27T08:12:25Z</time></trkpt><trkpt lat="45.93677546420437" lon="12.082360107831343"><ele>300.0</ele><time>2026-04-27T08:12:26Z</time></trkpt><trkpt lat="45.936806762376946" lon="12.082485109859034"><ele>299.0</ele><time>2026-04-27T08:12:27Z</time></trkpt><trkpt lat="45.93684459578848" lon="12.082608260269335"><ele>298.0</ele><time>2026-04-27T08:12:28Z</time></trkpt><trkpt lat="45.936887871237865" lon="12.082726436060797"><ele>297.0</ele><time>2026-04-27T08:12:29Z</time></trkpt><trkpt lat="45.936938687123934" lon="12.082841432808584"><ele>296.0</ele><time>2026-04-27T08:12:30Z</time></trkpt><trkpt lat="45.936996500084916" lon="12.082952987941733"><ele>296.0</ele><time>2026-04-27T08:12:31Z</time></trkpt><trkpt lat="45.93705690005164" lon="12.083055676630746"><ele>296.0</ele><time>2026-04-27T08:12:32Z</time></trkpt><trkpt lat="45.937107832307746" lon="12.083140945852712"><ele>296.0</ele><time>2026-04-27T08:12:33Z</time></trkpt><trkpt lat="45.937161879366165" lon="12.083234190900274"><ele>296.0</ele><time>2026-04-27T08:12:35Z</time></trkpt><trkpt lat="45.937222403696026" lon="12.083317417807782"><ele>296.0</ele><time>2026-04-27T08:12:53Z</time></trkpt><trkpt lat="45.937265345167575" lon="12.083392748677138"><ele>296.0</ele><time>2026-04-27T08:12:56Z</time></trkpt><trkpt lat="45.93731516697817" lon="12.08349929545827"><ele>295.0</ele><time>2026-04-27T08:13:24Z</time></trkpt><trkpt lat="45.93735270417378" lon="12.083613355347964"><ele>294.0</ele><time>2026-04-27T08:13:27Z</time></trkpt><trkpt lat="45.93729307162472" lon="12.083572148522048"><ele>293.0</ele><time>2026-04-27T08:13:35Z</time></trkpt><trkpt lat="45.937241230382035" lon="12.083483637741399"><ele>292.0</ele><time>2026-04-27T08:13:39Z</time></trkpt><trkpt lat="45.93719024285634" lon="12.083412389101664"><ele>291.0</ele><time>2026-04-27T08:13:44Z</time></trkpt><trkpt lat="45.9371413436215" lon="12.083343678554302"><ele>290.0</ele><time>2026-04-27T08:13:50Z</time></trkpt><trkpt lat="45.93710038950155" lon="12.083480297400754"><ele>290.0</ele><time>2026-04-27T08:14:31Z</time></trkpt><trkpt lat="45.93721758035312" lon="12.083524956877204"><ele>290.0</ele><time>2026-04-27T08:14:33Z</time></trkpt><trkpt lat="45.93730188870397" lon="12.083586697685856"><ele>290.0</ele><time>2026-04-27T08:14:35Z</time></trkpt><trkpt lat="45.93735799193748" lon="12.083634726739637"><ele>290.0</ele><time>2026-04-27T08:14:39Z</time></trkpt><trkpt lat="45.93743282623847" lon="12.08371642758"><ele>290.0</ele><time>2026-04-27T08:14:47Z</time></trkpt><trkpt lat="45.937471546189734" lon="12.083794438343402"><ele>290.0</ele><time>2026-04-27T08:14:49Z</time></trkpt><trkpt lat="45.937523466841256" lon="12.083893242685996"><ele>290.5</ele><time>2026-04-27T08:15:28Z</time></trkpt><trkpt lat="45.93755974053405" lon="12.083990395903603"><ele>291.0</ele><time>2026-04-27T08:15:30Z</time></trkpt><trkpt lat="45.93759065672135" lon="12.084076504452165"><ele>291.5</ele><time>2026-04-27T08:15:32Z</time></trkpt><trkpt lat="45.93761913018126" lon="12.084197569981091"><ele>292.0</ele><time>2026-04-27T08:15:49.001Z</time></trkpt><trkpt lat="45.937653233085584" lon="12.084279443442949"><ele>292.5</ele><time>2026-04-27T08:16:04Z</time></trkpt><trkpt lat="45.9377075726779" lon="12.084385375674106"><ele>293.0</ele><time>2026-04-27T08:16:06Z</time></trkpt><trkpt lat="45.93779320896736" lon="12.084499144001889"><ele>291.71428571428567</ele><time>2026-04-27T08:16:08Z</time></trkpt><trkpt lat="45.937865545286634" lon="12.0845405726828"><ele>290.42857142857144</ele><time>2026-04-27T08:16:27Z</time></trkpt><trkpt lat="45.93796323341452" lon="12.084595216987491"><ele>289.1428571428571</ele><time>2026-04-27T08:16:29Z</time></trkpt><trkpt lat="45.938024078105556" lon="12.084620677600332"><ele>287.85714285714283</ele><time>2026-04-27T08:16:30Z</time></trkpt><trkpt lat="45.938090491391016" lon="12.084643510413814"><ele>286.57142857142856</ele><time>2026-04-27T08:16:31Z</time></trkpt><trkpt lat="45.93815459593618" lon="12.084663720940798"><ele>285.2857142857143</ele><time>2026-04-27T08:16:32Z</time></trkpt><trkpt lat="45.93821875457033" lon="12.084683251821152"><ele>284.0</ele><time>2026-04-27T08:16:33Z</time></trkpt><trkpt lat="45.93833795257785" lon="12.08472385741422"><ele>284.59999999999997</ele><time>2026-04-27T08:16:35Z</time></trkpt><trkpt lat="45.93844462737766" lon="12.08477238219287"><ele>285.2</ele><time>2026-04-27T08:16:37Z</time></trkpt><trkpt lat="45.938547948048296" lon="12.084876944679834"><ele>285.79999999999995</ele><time>2026-04-27T08:16:39Z</time></trkpt><trkpt lat="45.93859753825802" lon="12.084952150432196"><ele>286.4</ele><time>2026-04-27T08:16:40Z</time></trkpt><trkpt lat="45.938644158754954" lon="12.085028331487637"><ele>287.0</ele><time>2026-04-27T08:16:41Z</time></trkpt><trkpt lat="45.9386927045602" lon="12.085106761899562"><ele>285.33333333333337</ele><time>2026-04-27T08:16:42Z</time></trkpt><trkpt lat="45.93873870720007" lon="12.08517659246379"><ele>283.6666666666667</ele><time>2026-04-27T08:16:43Z</time></trkpt><trkpt lat="45.93878743089526" lon="12.08523946155279"><ele>282.0</ele><time>2026-04-27T08:16:44Z</time></trkpt><trkpt lat="45.938842864191614" lon="12.085296938960505"><ele>280.3333333333333</ele><time>2026-04-27T08:16:45Z</time></trkpt><trkpt lat="45.938906133629196" lon="12.08535694177101"><ele>278.66666666666663</ele><time>2026-04-27T08:16:46Z</time></trkpt><trkpt lat="45.93897738407429" lon="12.085423670303404"><ele>277.0</ele><time>2026-04-27T08:16:47Z</time></trkpt><trkpt lat="45.93905214411665" lon="12.085495439376938"><ele>277.0</ele><time>2026-04-27T08:16:48Z</time></trkpt><trkpt lat="45.93913351990697" lon="12.085566403161783"><ele>277.0</ele><time>2026-04-27T08:16:49Z</time></trkpt><trkpt lat="45.939218096898834" lon="12.085640520052102"><ele>277.0</ele><time>2026-04-27T08:16:50Z</time></trkpt><trkpt lat="45.939302624602306" lon="12.085715891176172"><ele>277.0</ele><time>2026-04-27T08:16:51Z</time></trkpt><trkpt lat="45.939388481034506" lon="12.0857910900904"><ele>277.0</ele><time>2026-04-27T08:16:52Z</time></trkpt><trkpt lat="45.93947367048817" lon="12.085866010646605"><ele>275.4</ele><time>2026-04-27T08:16:53Z</time></trkpt><trkpt lat="45.93956073975148" lon="12.085940672533654"><ele>273.79999999999995</ele><time>2026-04-27T08:16:54Z</time></trkpt><trkpt lat="45.93964726443897" lon="12.08601584643982"><ele>272.2</ele><time>2026-04-27T08:16:55Z</time></trkpt><trkpt lat="45.939734815006275" lon="12.0860924530821"><ele>270.59999999999997</ele><time>2026-04-27T08:16:56Z</time></trkpt><trkpt lat="45.93982324368286" lon="12.086168634719549"><ele>269.0</ele><time>2026-04-27T08:16:57Z</time></trkpt><trkpt lat="45.93990756067216" lon="12.086249168623759"><ele>269.0</ele><time>2026-04-27T08:16:58Z</time></trkpt><trkpt lat="45.93998698589767" lon="12.086333311424307"><ele>269.0</ele><time>2026-04-27T08:16:59Z</time></trkpt><trkpt lat="45.940059058818996" lon="12.086424009269273"><ele>269.0</ele><time>2026-04-27T08:17:00Z</time></trkpt><trkpt lat="45.94012537621109" lon="12.086520873923035"><ele>269.0</ele><time>2026-04-27T08:17:01Z</time></trkpt><trkpt lat="45.94018470011454" lon="12.086628489739915"><ele>269.0</ele><time>2026-04-27T08:17:02Z</time></trkpt><trkpt lat="45.94023962165699" lon="12.086745270975733"><ele>268.8</ele><time>2026-04-27T08:17:03Z</time></trkpt><trkpt lat="45.94029036790059" lon="12.08686958647634"><ele>268.59999999999997</ele><time>2026-04-27T08:17:04Z</time></trkpt><trkpt lat="45.94034046372752" lon="12.086995809331972"><ele>268.4</ele><time>2026-04-27T08:17:05Z</time></trkpt><trkpt lat="45.94039196717945" lon="12.087125188241279"><ele>268.2</ele><time>2026-04-27T08:17:06Z</time></trkpt><trkpt lat="45.940444796448844" lon="12.087258036915864"><ele>268.0</ele><time>2026-04-27T08:17:07Z</time></trkpt><trkpt lat="45.94049683702997" lon="12.087390799690922"><ele>267.4</ele><time>2026-04-27T08:17:08Z</time></trkpt><trkpt lat="45.940549601610286" lon="12.08752360304336"><ele>266.8</ele><time>2026-04-27T08:17:09Z</time></trkpt><trkpt lat="45.94060178086441" lon="12.087655882053962"><ele>266.2</ele><time>2026-04-27T08:17:10Z</time></trkpt><trkpt lat="45.940656768438465" lon="12.087789118389887"><ele>265.6</ele><time>2026-04-27T08:17:11Z</time></trkpt><trkpt lat="45.940712336944635" lon="12.087922022679416"><ele>265.0</ele><time>2026-04-27T08:17:12Z</time></trkpt><trkpt lat="45.94076886511604" lon="12.088054014782754"><ele>265.0</ele><time>2026-04-27T08:17:13Z</time></trkpt><trkpt lat="45.940827054015955" lon="12.088184696874087"><ele>265.0</ele><time>2026-04-27T08:17:14Z</time></trkpt><trkpt lat="45.940890535345325" lon="12.08830896480689"><ele>265.0</ele><time>2026-04-27T08:17:15Z</time></trkpt><trkpt lat="45.9409542775872" lon="12.088428008915763"><ele>265.0</ele><time>2026-04-27T08:17:16Z</time></trkpt><trkpt lat="45.941010023260034" lon="12.08852662140373"><ele>265.0</ele><time>2026-04-27T08:17:17Z</time></trkpt><trkpt lat="45.94105968579375" lon="12.08860835489991"><ele>265.1428571428571</ele><time>2026-04-27T08:17:18Z</time></trkpt><trkpt lat="45.94110826914096" lon="12.088686363176611"><ele>265.2857142857143</ele><time>2026-04-27T08:17:19Z</time></trkpt><trkpt lat="45.94115611399213" lon="12.088759613062571"><ele>265.42857142857144</ele><time>2026-04-27T08:17:20Z</time></trkpt><trkpt lat="45.941206438246006" lon="12.088832681889134"><ele>265.57142857142856</ele><time>2026-04-27T08:17:21Z</time></trkpt><trkpt lat="45.94125923653652" lon="12.088905492923429"><ele>265.7142857142857</ele><time>2026-04-27T08:17:22Z</time></trkpt><trkpt lat="45.94131313978212" lon="12.08897751656296"><ele>265.85714285714283</ele><time>2026-04-27T08:17:23Z</time></trkpt><trkpt lat="45.94136814380053" lon="12.089049315546733"><ele>266.0</ele><time>2026-04-27T08:17:24Z</time></trkpt><trkpt lat="45.94142149815321" lon="12.08912013845387"><ele>265.5</ele><time>2026-04-27T08:17:25Z</time></trkpt><trkpt lat="45.94146917047643" lon="12.089195887461871"><ele>265.0</ele><time>2026-04-27T08:17:26Z</time></trkpt><trkpt lat="45.94151789548467" lon="12.08928038426598"><ele>264.5</ele><time>2026-04-27T08:17:27Z</time></trkpt><trkpt lat="45.941568966346715" lon="12.089369012068568"><ele>264.0</ele><time>2026-04-27T08:17:28Z</time></trkpt><trkpt lat="45.9416173121933" lon="12.089460180979565"><ele>263.5</ele><time>2026-04-27T08:17:29Z</time></trkpt><trkpt lat="45.94166352614619" lon="12.089549641896157"><ele>263.0</ele><time>2026-04-27T08:17:30Z</time></trkpt><trkpt lat="45.94171085484522" lon="12.089636621726733"><ele>262.6</ele><time>2026-04-27T08:17:31Z</time></trkpt><trkpt lat="45.94175317450845" lon="12.089716790269549"><ele>262.20000000000005</ele><time>2026-04-27T08:17:32Z</time></trkpt><trkpt lat="45.94180531350711" lon="12.089829284965052"><ele>261.8</ele><time>2026-04-27T08:17:34Z</time></trkpt><trkpt lat="45.94179120929278" lon="12.089926815799426"><ele>261.40000000000003</ele><time>2026-04-27T08:17:37Z</time></trkpt><trkpt lat="45.941720740297086" lon="12.090049067612622"><ele>261.0</ele><time>2026-04-27T08:17:40Z</time></trkpt><trkpt lat="45.94163067620876" lon="12.0901759343023"><ele>261.0</ele><time>2026-04-27T08:17:42Z</time></trkpt><trkpt lat="45.941566449718685" lon="12.090265132645888"><ele>261.0</ele><time>2026-04-27T08:17:44Z</time></trkpt><trkpt lat="45.9415207462654" lon="12.090331171892924"><ele>261.0</ele><time>2026-04-27T08:17:46.001Z</time></trkpt><trkpt lat="45.94146664758911" lon="12.090409938366463"><ele>261.0</ele><time>2026-04-27T08:17:49.001Z</time></trkpt><trkpt lat="45.94139250977528" lon="12.090516465735405"><ele>261.0</ele><time>2026-04-27T08:17:51.001Z</time></trkpt><trkpt lat="45.941343965902455" lon="12.090587343341495"><ele>261.0</ele><time>2026-04-27T08:17:52.001Z</time></trkpt><trkpt lat="45.94128747588743" lon="12.09067117996689"><ele>259.8</ele><time>2026-04-27T08:17:53.001Z</time></trkpt><trkpt lat="45.94122531613807" lon="12.090761793856068"><ele>258.6</ele><time>2026-04-27T08:17:54.001Z</time></trkpt><trkpt lat="45.94115792385538" lon="12.09085964768429"><ele>257.4</ele><time>2026-04-27T08:17:55.001Z</time></trkpt><trkpt lat="45.941087189824316" lon="12.090964079057938"><ele>256.2</ele><time>2026-04-27T08:17:56.001Z</time></trkpt><trkpt lat="45.941012764501636" lon="12.091070523321397"><ele>255.0</ele><time>2026-04-27T08:17:57.001Z</time></trkpt><trkpt lat="45.94093245419305" lon="12.09117102724759"><ele>254.0</ele><time>2026-04-27T08:17:58.001Z</time></trkpt><trkpt lat="45.940842259610726" lon="12.091268160036417"><ele>253.0</ele><time>2026-04-27T08:17:59.001Z</time></trkpt><trkpt lat="45.940746801090725" lon="12.091365643237767"><ele>252.0</ele><time>2026-04-27T08:18:00.001Z</time></trkpt><trkpt lat="45.94064598935722" lon="12.09146208453449"><ele>251.0</ele><time>2026-04-27T08:18:01.001Z</time></trkpt><trkpt lat="45.94054448589582" lon="12.091556641033891"><ele>250.75</ele><time>2026-04-27T08:18:02.001Z</time></trkpt><trkpt lat="45.940442885860804" lon="12.091649001673717"><ele>250.5</ele><time>2026-04-27T08:18:03.001Z</time></trkpt><trkpt lat="45.94034186708639" lon="12.091741833187562"><ele>250.25</ele><time>2026-04-27T08:18:04Z</time></trkpt><trkpt lat="45.94023874690427" lon="12.091835419690659"><ele>250.0</ele><time>2026-04-27T08:18:05Z</time></trkpt><trkpt lat="45.94013450645628" lon="12.091932077726227"><ele>248.75</ele><time>2026-04-27T08:18:06Z</time></trkpt><trkpt lat="45.94003056801387" lon="12.09203037260204"><ele>247.5</ele><time>2026-04-27T08:18:07Z</time></trkpt><trkpt lat="45.93992558868993" lon="12.092127297541516"><ele>246.25</ele><time>2026-04-27T08:18:08Z</time></trkpt><trkpt lat="45.93981849900132" lon="12.092225574236709"><ele>245.0</ele><time>2026-04-27T08:18:09Z</time></trkpt><trkpt lat="45.93971290105582" lon="12.092325231977492"><ele>245.0</ele><time>2026-04-27T08:18:10Z</time></trkpt><trkpt lat="45.93960526208041" lon="12.09242542661222"><ele>245.0</ele><time>2026-04-27T08:18:11Z</time></trkpt><trkpt lat="45.93949888245634" lon="12.092522333690468"><ele>245.0</ele><time>2026-04-27T08:18:12Z</time></trkpt><trkpt lat="45.939392550288964" lon="12.09261874575752"><ele>245.0</ele><time>2026-04-27T08:18:13Z</time></trkpt><trkpt lat="45.939283567960075" lon="12.092714613503873"><ele>244.5</ele><time>2026-04-27T08:18:14Z</time></trkpt><trkpt lat="45.93917831416133" lon="12.092814208285986"><ele>244.0</ele><time>2026-04-27T08:18:15Z</time></trkpt><trkpt lat="45.93907172563501" lon="12.09291709472261"><ele>243.5</ele><time>2026-04-27T08:18:16Z</time></trkpt><trkpt lat="45.93896552049169" lon="12.093022764065887"><ele>243.0</ele><time>2026-04-27T08:18:17Z</time></trkpt><trkpt lat="45.93886123911769" lon="12.093132379599979"><ele>243.0</ele><time>2026-04-27T08:18:18Z</time></trkpt><trkpt lat="45.93875687975873" lon="12.093245254428965"><ele>243.0</ele><time>2026-04-27T08:18:19Z</time></trkpt><trkpt lat="45.93865152492757" lon="12.09336023458267"><ele>243.0</ele><time>2026-04-27T08:18:20Z</time></trkpt><trkpt lat="45.93854677893198" lon="12.093476626730887"><ele>243.0</ele><time>2026-04-27T08:18:21Z</time></trkpt><trkpt lat="45.93844351024203" lon="12.093600366154115"><ele>241.25</ele><time>2026-04-27T08:18:22Z</time></trkpt><trkpt lat="45.93834241773795" lon="12.093731994682125"><ele>239.5</ele><time>2026-04-27T08:18:23Z</time></trkpt><trkpt lat="45.938247599781796" lon="12.093874338877914"><ele>237.75</ele><time>2026-04-27T08:18:24Z</time></trkpt><trkpt lat="45.9381578283379" lon="12.094025236079142"><ele>236.0</ele><time>2026-04-27T08:18:25Z</time></trkpt><trkpt lat="45.938069836589726" lon="12.09417721959221"><ele>235.5</ele><time>2026-04-27T08:18:26Z</time></trkpt><trkpt lat="45.937981722425896" lon="12.094331521479122"><ele>235.0</ele><time>2026-04-27T08:18:27Z</time></trkpt><trkpt lat="45.9378956868594" lon="12.094486905215348"><ele>234.5</ele><time>2026-04-27T08:18:28Z</time></trkpt><trkpt lat="45.93781044152822" lon="12.094643270178773"><ele>234.0</ele><time>2026-04-27T08:18:29Z</time></trkpt><trkpt lat="45.937725051650304" lon="12.094798742323222"><ele>235.0</ele><time>2026-04-27T08:18:30Z</time></trkpt><trkpt lat="45.93764302857753" lon="12.094956388288034"><ele>236.0</ele><time>2026-04-27T08:18:31Z</time></trkpt><trkpt lat="45.93756728838885" lon="12.095117161308767"><ele>237.0</ele><time>2026-04-27T08:18:32Z</time></trkpt><trkpt lat="45.93750087472587" lon="12.09528554333566"><ele>238.0</ele><time>2026-04-27T08:18:33Z</time></trkpt><trkpt lat="45.93744239716323" lon="12.095459703605917"><ele>238.25</ele><time>2026-04-27T08:18:34Z</time></trkpt><trkpt lat="45.937386122006835" lon="12.095633154995445"><ele>238.5</ele><time>2026-04-27T08:18:35Z</time></trkpt><trkpt lat="45.93733245260064" lon="12.095802982440317"><ele>238.75</ele><time>2026-04-27T08:18:36Z</time></trkpt><trkpt lat="45.937280760035954" lon="12.095967074110677"><ele>239.0</ele><time>2026-04-27T08:18:37Z</time></trkpt><trkpt lat="45.93722163415458" lon="12.09612544330461"><ele>239.75</ele><time>2026-04-27T08:18:38Z</time></trkpt><trkpt lat="45.93714808253162" lon="12.09627054085862"><ele>240.5</ele><time>2026-04-27T08:18:39Z</time></trkpt><trkpt lat="45.93706597559757" lon="12.096409374132772"><ele>241.25</ele><time>2026-04-27T08:18:40Z</time></trkpt><trkpt lat="45.93697328349378" lon="12.09653942012181"><ele>242.0</ele><time>2026-04-27T08:18:41Z</time></trkpt><trkpt lat="45.936867756323835" lon="12.096651054511362"><ele>242.0</ele><time>2026-04-27T08:18:42Z</time></trkpt><trkpt lat="45.93675199422333" lon="12.096746013604577"><ele>242.0</ele><time>2026-04-27T08:18:43Z</time></trkpt><trkpt lat="45.93662836925198" lon="12.096819794659273"><ele>242.0</ele><time>2026-04-27T08:18:44Z</time></trkpt><trkpt lat="45.93649957964415" lon="12.096877489050145"><ele>242.0</ele><time>2026-04-27T08:18:45Z</time></trkpt><trkpt lat="45.9363709414979" lon="12.09693293103982"><ele>240.5</ele><time>2026-04-27T08:18:46Z</time></trkpt><trkpt lat="45.93624461555457" lon="12.09699640552552"><ele>239.0</ele><time>2026-04-27T08:18:47Z</time></trkpt><trkpt lat="45.93612434033119" lon="12.09708625894303"><ele>237.5</ele><time>2026-04-27T08:18:48Z</time></trkpt><trkpt lat="45.93601208523785" lon="12.097204136409786"><ele>236.0</ele><time>2026-04-27T08:18:49Z</time></trkpt><trkpt lat="45.935905083050905" lon="12.097340437902433"><ele>235.75</ele><time>2026-04-27T08:18:50Z</time></trkpt><trkpt lat="45.935799767746154" lon="12.097482220580439"><ele>235.5</ele><time>2026-04-27T08:18:51Z</time></trkpt><trkpt lat="45.93569418066133" lon="12.097621236271229"><ele>235.25</ele><time>2026-04-27T08:18:52Z</time></trkpt><trkpt lat="45.93558963506497" lon="12.097758292045848"><ele>235.0</ele><time>2026-04-27T08:18:53Z</time></trkpt><trkpt lat="45.935485216485674" lon="12.09789257945285"><ele>235.0</ele><time>2026-04-27T08:18:54Z</time></trkpt><trkpt lat="45.935381428044934" lon="12.098027526332586"><ele>235.0</ele><time>2026-04-27T08:18:55Z</time></trkpt><trkpt lat="45.93527951365587" lon="12.098159064292487"><ele>235.0</ele><time>2026-04-27T08:18:56Z</time></trkpt><trkpt lat="45.93518127586727" lon="12.098285514650298"><ele>235.0</ele><time>2026-04-27T08:18:57Z</time></trkpt><trkpt lat="45.93508270419583" lon="12.098411319124"><ele>232.5</ele><time>2026-04-27T08:18:58Z</time></trkpt><trkpt lat="45.93498675265383" lon="12.098535078742348"><ele>230.0</ele><time>2026-04-27T08:18:59Z</time></trkpt><trkpt lat="45.93489556182676" lon="12.098655856680315"><ele>227.5</ele><time>2026-04-27T08:19:00Z</time></trkpt><trkpt lat="45.934812184823016" lon="12.098764208392975"><ele>225.0</ele><time>2026-04-27T08:19:01Z</time></trkpt><trkpt lat="45.934745055630025" lon="12.09885086011115"><ele>225.00000000000003</ele><time>2026-04-27T08:19:02Z</time></trkpt><trkpt lat="45.93469068393059" lon="12.098923576485022"><ele>225.0</ele><time>2026-04-27T08:19:03Z</time></trkpt><trkpt lat="45.93464488190987" lon="12.098992947122523"><ele>225.00000000000003</ele><time>2026-04-27T08:19:04Z</time></trkpt><trkpt lat="45.934604279855115" lon="12.099066251797808"><ele>225.00000000000003</ele><time>2026-04-27T08:19:05Z</time></trkpt><trkpt lat="45.93456297202281" lon="12.099148325169585"><ele>225.0</ele><time>2026-04-27T08:19:06Z</time></trkpt><trkpt lat="45.93451842840679" lon="12.099243255577223"><ele>225.00000000000003</ele><time>2026-04-27T08:19:07Z</time></trkpt><trkpt lat="45.934473274036236" lon="12.099350316022399"><ele>225.00000000000003</ele><time>2026-04-27T08:19:08Z</time></trkpt><trkpt lat="45.93442634415193" lon="12.099471866135909"><ele>225.75</ele><time>2026-04-27T08:19:09Z</time></trkpt><trkpt lat="45.93437718263679" lon="12.099603801795794"><ele>226.5</ele><time>2026-04-27T08:19:10Z</time></trkpt><trkpt lat="45.93432357824137" lon="12.09974256976729"><ele>227.25</ele><time>2026-04-27T08:19:11Z</time></trkpt><trkpt lat="45.93426732130683" lon="12.099888925668616"><ele>228.0</ele><time>2026-04-27T08:19:12Z</time></trkpt><trkpt lat="45.934208351898754" lon="12.100042333040376"><ele>226.25</ele><time>2026-04-27T08:19:13Z</time></trkpt><trkpt lat="45.93414951227696" lon="12.100198097442016"><ele>224.5</ele><time>2026-04-27T08:19:14Z</time></trkpt><trkpt lat="45.934090792117686" lon="12.100354790699873"><ele>222.75</ele><time>2026-04-27T08:19:15Z</time></trkpt><trkpt lat="45.93403301240937" lon="12.100508341473947"><ele>221.0</ele><time>2026-04-27T08:19:16Z</time></trkpt><trkpt lat="45.933979428978056" lon="12.100651896574801"><ele>221.8</ele><time>2026-04-27T08:19:17Z</time></trkpt><trkpt lat="45.93393286415824" lon="12.100775417832732"><ele>222.60000000000002</ele><time>2026-04-27T08:19:18Z</time></trkpt><trkpt lat="45.93389276735858" lon="12.10088197695634"><ele>223.4</ele><time>2026-04-27T08:19:19Z</time></trkpt><trkpt lat="45.93385949259898" lon="12.100965550489095"><ele>224.2</ele><time>2026-04-27T08:19:21Z</time></trkpt><trkpt lat="45.93381626038694" lon="12.10108898694306"><ele>225.0</ele><time>2026-04-27T08:19:49Z</time></trkpt><trkpt lat="45.93376437396297" lon="12.101232333851339"><ele>225.0</ele><time>2026-04-27T08:19:51Z</time></trkpt><trkpt lat="45.93370641000127" lon="12.10138182518728"><ele>225.0</ele><time>2026-04-27T08:19:53Z</time></trkpt><trkpt lat="45.93366121449516" lon="12.101491005962314"><ele>225.0</ele><time>2026-04-27T08:19:55Z</time></trkpt><trkpt lat="45.93360975291662" lon="12.101600646776442"><ele>225.0</ele><time>2026-04-27T08:20:10Z</time></trkpt><trkpt lat="45.93356134063394" lon="12.101705329790722"><ele>225.0</ele><time>2026-04-27T08:20:12Z</time></trkpt><trkpt lat="45.933506000638054" lon="12.101816824093712"><ele>225.4</ele><time>2026-04-27T08:20:14Z</time></trkpt><trkpt lat="45.93344244562676" lon="12.101927146146236"><ele>225.8</ele><time>2026-04-27T08:20:16Z</time></trkpt><trkpt lat="45.93337423342869" lon="12.102036195016588"><ele>226.2</ele><time>2026-04-27T08:20:18Z</time></trkpt><trkpt lat="45.93329090310567" lon="12.102155796605611"><ele>226.6</ele><time>2026-04-27T08:20:20Z</time></trkpt><trkpt lat="45.93321402337134" lon="12.102259404784688"><ele>227.0</ele><time>2026-04-27T08:20:22Z</time></trkpt><trkpt lat="45.93315291853221" lon="12.102342059188762"><ele>224.16666666666669</ele><time>2026-04-27T08:20:37Z</time></trkpt><trkpt lat="45.933073562655274" lon="12.102444253591669"><ele>221.33333333333334</ele><time>2026-04-27T08:20:39Z</time></trkpt><trkpt lat="45.933023915137795" lon="12.10250852121964"><ele>218.5</ele><time>2026-04-27T08:20:40Z</time></trkpt><trkpt lat="45.93297083413035" lon="12.102578769079816"><ele>215.66666666666669</ele><time>2026-04-27T08:20:41Z</time></trkpt><trkpt lat="45.93291659020635" lon="12.102650155970645"><ele>212.83333333333334</ele><time>2026-04-27T08:20:42Z</time></trkpt><trkpt lat="45.93286411673348" lon="12.102718290943399"><ele>210.0</ele><time>2026-04-27T08:20:43Z</time></trkpt><trkpt lat="45.932809669886865" lon="12.102786032350672"><ele>210.0</ele><time>2026-04-27T08:20:44Z</time></trkpt><trkpt lat="45.93275277060226" lon="12.102857404215495"><ele>210.0</ele><time>2026-04-27T08:20:45Z</time></trkpt><trkpt lat="45.9326930303838" lon="12.102931697518493"><ele>210.0</ele><time>2026-04-27T08:20:46Z</time></trkpt><trkpt lat="45.93263527041755" lon="12.103001416809091"><ele>210.0</ele><time>2026-04-27T08:20:47Z</time></trkpt><trkpt lat="45.932575497000336" lon="12.103073119440555"><ele>210.0</ele><time>2026-04-27T08:20:48Z</time></trkpt><trkpt lat="45.932514998791525" lon="12.103147273789473"><ele>210.0</ele><time>2026-04-27T08:20:49Z</time></trkpt><trkpt lat="45.93246193377647" lon="12.103217038946143"><ele>209.4</ele><time>2026-04-27T08:20:50Z</time></trkpt><trkpt lat="45.93237984801247" lon="12.103328955206598"><ele>208.8</ele><time>2026-04-27T08:20:52Z</time></trkpt><trkpt lat="45.932296688337196" lon="12.103453528935177"><ele>208.2</ele><time>2026-04-27T08:20:54Z</time></trkpt><trkpt lat="45.93223184087843" lon="12.103560433087095"><ele>207.6</ele><time>2026-04-27T08:20:56Z</time></trkpt><trkpt lat="45.93217271875297" lon="12.103656043731629"><ele>207.0</ele><time>2026-04-27T08:21:13Z</time></trkpt><trkpt lat="45.932098733611916" lon="12.103783855859206"><ele>207.0</ele><time>2026-04-27T08:21:15Z</time></trkpt><trkpt lat="45.93203375952989" lon="12.103899893141667"><ele>207.0</ele><time>2026-04-27T08:21:17Z</time></trkpt><trkpt lat="45.93197891756192" lon="12.104008427833257"><ele>207.0</ele><time>2026-04-27T08:21:30Z</time></trkpt><trkpt lat="45.93190128931079" lon="12.104142306984908"><ele>207.0</ele><time>2026-04-27T08:21:32Z</time></trkpt><trkpt lat="45.93185824297215" lon="12.104217475970993"><ele>207.0</ele><time>2026-04-27T08:21:34Z</time></trkpt><trkpt lat="45.931797049851006" lon="12.104334066516392"><ele>207.16666666666666</ele><time>2026-04-27T08:21:47Z</time></trkpt><trkpt lat="45.93175587842366" lon="12.104410757596892"><ele>207.33333333333331</ele><time>2026-04-27T08:21:49Z</time></trkpt><trkpt lat="45.93171646290877" lon="12.104487241630098"><ele>207.5</ele><time>2026-04-27T08:22:22Z</time></trkpt><trkpt lat="45.931664012632716" lon="12.10457495860308"><ele>207.66666666666666</ele><time>2026-04-27T08:22:38Z</time></trkpt><trkpt lat="45.93161709313735" lon="12.104660092702154"><ele>207.83333333333331</ele><time>2026-04-27T08:22:40Z</time></trkpt><trkpt lat="45.9315578764505" lon="12.104767904699095"><ele>208.0</ele><time>2026-04-27T08:22:42Z</time></trkpt><trkpt lat="45.93150541392372" lon="12.104861992275564"><ele>207.16666666666666</ele><time>2026-04-27T08:22:44Z</time></trkpt><trkpt lat="45.93145787557285" lon="12.104959158675934"><ele>206.33333333333331</ele><time>2026-04-27T08:22:48Z</time></trkpt><trkpt lat="45.93139249896311" lon="12.105078437118733"><ele>205.5</ele><time>2026-04-27T08:22:50Z</time></trkpt><trkpt lat="45.93135007743477" lon="12.105148269619598"><ele>204.66666666666669</ele><time>2026-04-27T08:22:51Z</time></trkpt><trkpt lat="45.93130741997056" lon="12.105220388746606"><ele>203.83333333333334</ele><time>2026-04-27T08:22:52Z</time></trkpt><trkpt lat="45.931243052912045" lon="12.105337261380322"><ele>203.0</ele><time>2026-04-27T08:22:54Z</time></trkpt><trkpt lat="45.931201471545116" lon="12.105416144573232"><ele>203.00000000000003</ele><time>2026-04-27T08:23:09Z</time></trkpt><trkpt lat="45.93115079129472" lon="12.105509029218835"><ele>203.0</ele><time>2026-04-27T08:23:11Z</time></trkpt><trkpt lat="45.931088479717985" lon="12.10562280265187"><ele>203.0</ele><time>2026-04-27T08:23:13Z</time></trkpt><trkpt lat="45.931085717937634" lon="12.105721450387573"><ele>203.0</ele><time>2026-04-27T08:23:15Z</time></trkpt><trkpt lat="45.931126492593464" lon="12.105806029820956"><ele>203.00000000000003</ele><time>2026-04-27T08:23:16Z</time></trkpt><trkpt lat="45.9312308271287" lon="12.105846054127305"><ele>203.0</ele><time>2026-04-27T08:23:18Z</time></trkpt><trkpt lat="45.93128557284499" lon="12.105891383003527"><ele>202.66666666666669</ele><time>2026-04-27T08:23:19Z</time></trkpt><trkpt lat="45.93135934939714" lon="12.106045919807219"><ele>202.33333333333334</ele><time>2026-04-27T08:23:21Z</time></trkpt><trkpt lat="45.931388852883465" lon="12.106135558395076"><ele>202.0</ele><time>2026-04-27T08:23:22Z</time></trkpt><trkpt lat="45.93141752245836" lon="12.106234061212003"><ele>201.66666666666669</ele><time>2026-04-27T08:23:23Z</time></trkpt><trkpt lat="45.931436281753946" lon="12.106342649279739"><ele>201.33333333333334</ele><time>2026-04-27T08:23:24Z</time></trkpt><trkpt lat="45.93145397795487" lon="12.106446784051064"><ele>201.0</ele><time>2026-04-27T08:23:25Z</time></trkpt><trkpt lat="45.93149131153654" lon="12.106528736729512"><ele>201.0</ele><time>2026-04-27T08:23:26Z</time></trkpt><trkpt lat="45.9315550431178" lon="12.106567210844684"><ele>201.0</ele><time>2026-04-27T08:23:27Z</time></trkpt><trkpt lat="45.93162847045537" lon="12.106565816958803"><ele>201.0</ele><time>2026-04-27T08:23:28Z</time></trkpt><trkpt lat="45.93170474449286" lon="12.106528849055483"><ele>201.0</ele><time>2026-04-27T08:23:29Z</time></trkpt><trkpt lat="45.931782034068085" lon="12.106498056619282"><ele>201.0</ele><time>2026-04-27T08:23:30Z</time></trkpt><trkpt lat="45.931869159446684" lon="12.10649567638216"><ele>201.0</ele><time>2026-04-27T08:23:31Z</time></trkpt><trkpt lat="45.93194674885768" lon="12.106481513969756"><ele>202.33333333333334</ele><time>2026-04-27T08:23:32Z</time></trkpt><trkpt lat="45.93200439578354" lon="12.106432629360466"><ele>203.66666666666669</ele><time>2026-04-27T08:23:33Z</time></trkpt><trkpt lat="45.932037525282176" lon="12.106295494214043"><ele>205.0</ele><time>2026-04-27T08:23:34.999Z</time></trkpt><trkpt lat="45.93197281899319" lon="12.1062084709665"><ele>206.33333333333334</ele><time>2026-04-27T08:23:49.999Z</time></trkpt><trkpt lat="45.9319750722918" lon="12.106047689376336"><ele>207.66666666666669</ele><time>2026-04-27T08:23:51.999Z</time></trkpt><trkpt lat="45.93198001683114" lon="12.105955913380136"><ele>209.0</ele><time>2026-04-27T08:23:52.999Z</time></trkpt><trkpt lat="45.93197211978591" lon="12.105832969621462"><ele>208.39999999999998</ele><time>2026-04-27T08:24:11Z</time></trkpt><trkpt lat="45.93196141518003" lon="12.105686951013304"><ele>207.8</ele><time>2026-04-27T08:24:13Z</time></trkpt><trkpt lat="45.93203025209777" lon="12.10557350698298"><ele>207.2</ele><time>2026-04-27T08:24:15Z</time></trkpt><trkpt lat="45.9321529217723" lon="12.105570028102521"><ele>206.60000000000002</ele><time>2026-04-27T08:24:17Z</time></trkpt><trkpt lat="45.932216422788116" lon="12.105561325163432"><ele>206.0</ele><time>2026-04-27T08:24:18Z</time></trkpt><trkpt lat="45.93229770010646" lon="12.105543325795251"><ele>206.00000000000003</ele><time>2026-04-27T08:24:20Z</time></trkpt><trkpt lat="45.93236776480789" lon="12.105443353455842"><ele>206.0</ele><time>2026-04-27T08:24:34Z</time></trkpt><trkpt lat="45.93238177936762" lon="12.105302455718466"><ele>206.0</ele><time>2026-04-27T08:24:36Z</time></trkpt><trkpt lat="45.93239459982826" lon="12.105190128436428"><ele>206.0</ele><time>2026-04-27T08:24:38Z</time></trkpt><trkpt lat="45.93243148492195" lon="12.105079873925279"><ele>206.00000000000003</ele><time>2026-04-27T08:24:40Z</time></trkpt><trkpt lat="45.93236908156202" lon="12.105014141828885"><ele>206.0</ele><time>2026-04-27T08:24:42Z</time></trkpt><trkpt lat="45.93236022354079" lon="12.105123462444952"><ele>206.0</ele><time>2026-04-27T08:24:53Z</time></trkpt><trkpt lat="45.93236935224805" lon="12.105215716802903"><ele>206.0</ele><time>2026-04-27T08:24:56Z</time></trkpt><trkpt lat="45.93234988895773" lon="12.105378741510753"><ele>206.0</ele><time>2026-04-27T08:24:58Z</time></trkpt><trkpt lat="45.93228053189209" lon="12.105501555269187"><ele>206.0</ele><time>2026-04-27T08:25:00Z</time></trkpt><trkpt lat="45.93218816719526" lon="12.105523281216982"><ele>206.0</ele><time>2026-04-27T08:25:02Z</time></trkpt><trkpt lat="45.932108891637924" lon="12.105530698102324"><ele>206.00000000000003</ele><time>2026-04-27T08:25:24.999Z</time></trkpt><trkpt lat="45.93200419209912" lon="12.105553673149775"><ele>206.0</ele><time>2026-04-27T08:25:26.999Z</time></trkpt><trkpt lat="45.93193729979346" lon="12.105672053759985"><ele>206.0</ele><time>2026-04-27T08:25:28.999Z</time></trkpt><trkpt lat="45.93194311466928" lon="12.105766702444463"><ele>206.0</ele><time>2026-04-27T08:25:29.999Z</time></trkpt><trkpt lat="45.93195721877303" lon="12.1058671763831"><ele>206.00000000000003</ele><time>2026-04-27T08:25:30.999Z</time></trkpt><trkpt lat="45.9319637426893" lon="12.105982194641173"><ele>206.0</ele><time>2026-04-27T08:25:31.999Z</time></trkpt><trkpt lat="45.9319692248517" lon="12.106113017486111"><ele>206.50000000000003</ele><time>2026-04-27T08:25:32.999Z</time></trkpt><trkpt lat="45.931973293495396" lon="12.106244663624551"><ele>207.0</ele><time>2026-04-27T08:25:33.999Z</time></trkpt><trkpt lat="45.931955018810264" lon="12.10635705384172"><ele>207.5</ele><time>2026-04-27T08:25:34.999Z</time></trkpt><trkpt lat="45.9319039031316" lon="12.106435796309524"><ele>208.0</ele><time>2026-04-27T08:25:35.999Z</time></trkpt><trkpt lat="45.93181951103471" lon="12.10647073262124"><ele>208.50000000000003</ele><time>2026-04-27T08:25:36.999Z</time></trkpt><trkpt lat="45.93172811082245" lon="12.1064819916933"><ele>209.0</ele><time>2026-04-27T08:25:37.999Z</time></trkpt><trkpt lat="45.931634788248125" lon="12.106507948886678"><ele>207.66666666666669</ele><time>2026-04-27T08:25:38.999Z</time></trkpt><trkpt lat="45.931549816636135" lon="12.106494471648555"><ele>206.33333333333334</ele><time>2026-04-27T08:25:39.999Z</time></trkpt><trkpt lat="45.93148233611046" lon="12.106428197323602"><ele>205.0</ele><time>2026-04-27T08:25:40.999Z</time></trkpt><trkpt lat="45.93146436900627" lon="12.106310798328954"><ele>203.66666666666669</ele><time>2026-04-27T08:25:41.999Z</time></trkpt><trkpt lat="45.931436996391085" lon="12.10619036394221"><ele>202.33333333333334</ele><time>2026-04-27T08:25:42.999Z</time></trkpt><trkpt lat="45.931395887659114" lon="12.106080492881622"><ele>201.0</ele><time>2026-04-27T08:25:43.999Z</time></trkpt><trkpt lat="45.93136513301602" lon="12.105979105678013"><ele>201.0</ele><time>2026-04-27T08:25:44.999Z</time></trkpt><trkpt lat="45.93132067653236" lon="12.105892740098247"><ele>201.0</ele><time>2026-04-27T08:25:45.999Z</time></trkpt><trkpt lat="45.93125325426728" lon="12.105822066533653"><ele>201.0</ele><time>2026-04-27T08:25:46.999Z</time></trkpt><trkpt lat="45.931185629757806" lon="12.105763026151433"><ele>201.0</ele><time>2026-04-27T08:25:47.999Z</time></trkpt><trkpt lat="45.931105851567985" lon="12.105696771948946"><ele>201.0</ele><time>2026-04-27T08:25:49.999Z</time></trkpt><trkpt lat="45.93100236072748" lon="12.105731565830515"><ele>201.0</ele><time>2026-04-27T08:26:06.999Z</time></trkpt><trkpt lat="45.93094325649751" lon="12.105875692063448"><ele>201.0</ele><time>2026-04-27T08:26:08.999Z</time></trkpt><trkpt lat="45.93090170509146" lon="12.105951701332156"><ele>201.0</ele><time>2026-04-27T08:26:10Z</time></trkpt><trkpt lat="45.930852863424576" lon="12.106040434329273"><ele>201.0</ele><time>2026-04-27T08:26:11Z</time></trkpt><trkpt lat="45.93080079025919" lon="12.106132697290796"><ele>201.0</ele><time>2026-04-27T08:26:12Z</time></trkpt><trkpt lat="45.930745449094665" lon="12.10622942235933"><ele>201.0</ele><time>2026-04-27T08:26:13Z</time></trkpt><trkpt lat="45.93069049551673" lon="12.10632511735347"><ele>201.0</ele><time>2026-04-27T08:26:14Z</time></trkpt><trkpt lat="45.93063873254172" lon="12.106414365276365"><ele>201.16666666666666</ele><time>2026-04-27T08:26:15Z</time></trkpt><trkpt lat="45.930590780177766" lon="12.106496733168061"><ele>201.33333333333331</ele><time>2026-04-27T08:26:16Z</time></trkpt><trkpt lat="45.93054890438389" lon="12.106567420555423"><ele>201.5</ele><time>2026-04-27T08:26:17Z</time></trkpt><trkpt lat="45.930477001139344" lon="12.106710733684169"><ele>201.66666666666666</ele><time>2026-04-27T08:26:19Z</time></trkpt><trkpt lat="45.93044587476893" lon="12.10679538935324"><ele>201.83333333333331</ele><time>2026-04-27T08:26:20Z</time></trkpt><trkpt lat="45.93041456508096" lon="12.106878544225534"><ele>202.0</ele><time>2026-04-27T08:26:21Z</time></trkpt><trkpt lat="45.9303776695918" lon="12.106956404068473"><ele>201.99999999999997</ele><time>2026-04-27T08:26:22Z</time></trkpt><trkpt lat="45.93031663226911" lon="12.107069557895512"><ele>202.0</ele><time>2026-04-27T08:26:24Z</time></trkpt><trkpt lat="45.93024461261425" lon="12.10713606346736"><ele>202.0</ele><time>2026-04-27T08:26:26Z</time></trkpt><trkpt lat="45.93016821940199" lon="12.107066611998226"><ele>202.0</ele><time>2026-04-27T08:26:28Z</time></trkpt><trkpt lat="45.93009570931697" lon="12.107008042748367"><ele>201.99999999999997</ele><time>2026-04-27T08:26:30Z</time></trkpt><trkpt lat="45.93003621498351" lon="12.106952999186417"><ele>202.0</ele><time>2026-04-27T08:27:09Z</time></trkpt><trkpt lat="45.92995271794668" lon="12.106862429166917"><ele>202.99999999999997</ele><time>2026-04-27T08:27:11Z</time></trkpt><trkpt lat="45.929904305272" lon="12.106799724504327"><ele>204.0</ele><time>2026-04-27T08:27:12Z</time></trkpt><trkpt lat="45.92985403424562" lon="12.106729852511366"><ele>205.0</ele><time>2026-04-27T08:27:13Z</time></trkpt><trkpt lat="45.92980763255197" lon="12.106661761891734"><ele>206.0</ele><time>2026-04-27T08:27:14Z</time></trkpt><trkpt lat="45.92976401071241" lon="12.106585803877408"><ele>206.99999999999997</ele><time>2026-04-27T08:27:16Z</time></trkpt><trkpt lat="45.9296905846709" lon="12.106472448434943"><ele>208.0</ele><time>2026-04-27T08:27:40.999Z</time></trkpt><trkpt lat="45.92960824882806" lon="12.106328093301315"><ele>207.85714285714286</ele><time>2026-04-27T08:27:42.999Z</time></trkpt><trkpt lat="45.92955969703202" lon="12.106249751851474"><ele>207.71428571428572</ele><time>2026-04-27T08:27:43.999Z</time></trkpt><trkpt lat="45.92950952942785" lon="12.106176090156172"><ele>207.57142857142858</ele><time>2026-04-27T08:27:44.999Z</time></trkpt><trkpt lat="45.92945892075649" lon="12.106102499161828"><ele>207.42857142857144</ele><time>2026-04-27T08:27:45.999Z</time></trkpt><trkpt lat="45.929407635114664" lon="12.106029482081826"><ele>207.28571428571428</ele><time>2026-04-27T08:27:46.999Z</time></trkpt><trkpt lat="45.92935314325875" lon="12.105961613933028"><ele>207.14285714285717</ele><time>2026-04-27T08:27:47.999Z</time></trkpt><trkpt lat="45.92929641569619" lon="12.105897391262756"><ele>207.0</ele><time>2026-04-27T08:27:48.999Z</time></trkpt><trkpt lat="45.92922047366147" lon="12.105812252373507"><ele>207.0</ele><time>2026-04-27T08:27:50.999Z</time></trkpt><trkpt lat="45.92915671280644" lon="12.105748568742115"><ele>207.0</ele><time>2026-04-27T08:28:05.999Z</time></trkpt><trkpt lat="45.92906760793973" lon="12.105648946128943"><ele>207.0</ele><time>2026-04-27T08:28:07.999Z</time></trkpt><trkpt lat="45.928966736581216" lon="12.105539984953955"><ele>207.0</ele><time>2026-04-27T08:28:09.999Z</time></trkpt><trkpt lat="45.92889883971079" lon="12.105452023439002"><ele>207.0</ele><time>2026-04-27T08:28:11.999Z</time></trkpt><trkpt lat="45.928821554222985" lon="12.105367124357143"><ele>206.66666666666669</ele><time>2026-04-27T08:28:47Z</time></trkpt><trkpt lat="45.92872532944218" lon="12.105271722056102"><ele>206.33333333333334</ele><time>2026-04-27T08:28:49Z</time></trkpt><trkpt lat="45.92863457125079" lon="12.105193798727866"><ele>206.0</ele><time>2026-04-27T08:28:51Z</time></trkpt><trkpt lat="45.93236022354079" lon="12.105123462444952"><ele>206.0</ele><time>2026-04-27T08:24:53Z</time></trkpt><trkpt lat="45.93236935224805" lon="12.105215716802903"><ele>206.0</ele><time>2026-04-27T08:24:56Z</time></trkpt><trkpt lat="45.93234988895773" lon="12.105378741510753"><ele>206.0</ele><time>2026-04-27T08:24:58Z</time></trkpt><trkpt lat="45.93228053189209" lon="12.105501555269187"><ele>206.0</ele><time>2026-04-27T08:25:00Z</time></trkpt><trkpt lat="45.93218816719526" lon="12.105523281216982"><ele>206.0</ele><time>2026-04-27T08:25:02Z</time></trkpt><trkpt lat="45.932108891637924" lon="12.105530698102324"><ele>206.00000000000003</ele><time>2026-04-27T08:25:24.999Z</time></trkpt><trkpt lat="45.93200419209912" lon="12.105553673149775"><ele>206.0</ele><time>2026-04-27T08:25:26.999Z</time></trkpt><trkpt lat="45.93193729979346" lon="12.105672053759985"><ele>206.0</ele><time>2026-04-27T08:25:28.999Z</time></trkpt><trkpt lat="45.93194311466928" lon="12.105766702444463"><ele>206.0</ele><time>2026-04-27T08:25:29.999Z</time></trkpt><trkpt lat="45.93195721877303" lon="12.1058671763831"><ele>206.00000000000003</ele><time>2026-04-27T08:25:30.999Z</time></trkpt><trkpt lat="45.9319637426893" lon="12.105982194641173"><ele>206.0</ele><time>2026-04-27T08:25:31.999Z</time></trkpt><trkpt lat="45.9319692248517" lon="12.106113017486111"><ele>206.50000000000003</ele><time>2026-04-27T08:25:32.999Z</time></trkpt><trkpt lat="45.931973293495396" lon="12.106244663624551"><ele>207.0</ele><time>2026-04-27T08:25:33.999Z</time></trkpt><trkpt lat="45.931955018810264" lon="12.10635705384172"><ele>207.5</ele><time>2026-04-27T08:25:34.999Z</time></trkpt><trkpt lat="45.9319039031316" lon="12.106435796309524"><ele>208.0</ele><time>2026-04-27T08:25:35.999Z</time></trkpt><trkpt lat="45.93181951103471" lon="12.10647073262124"><ele>208.50000000000003</ele><time>2026-04-27T08:25:36.999Z</time></trkpt><trkpt lat="45.93172811082245" lon="12.1064819916933"><ele>209.0</ele><time>2026-04-27T08:25:37.999Z</time></trkpt><trkpt lat="45.931634788248125" lon="12.106507948886678"><ele>207.66666666666669</ele><time>2026-04-27T08:25:38.999Z</time></trkpt><trkpt lat="45.931549816636135" lon="12.106494471648555"><ele>206.33333333333334</ele><time>2026-04-27T08:25:39.999Z</time></trkpt><trkpt lat="45.93148233611046" lon="12.106428197323602"><ele>205.0</ele><time>2026-04-27T08:25:40.999Z</time></trkpt><trkpt lat="45.93146436900627" lon="12.106310798328954"><ele>203.66666666666669</ele><time>2026-04-27T08:25:41.999Z</time></trkpt><trkpt lat="45.931436996391085" lon="12.10619036394221"><ele>202.33333333333334</ele><time>2026-04-27T08:25:42.999Z</time></trkpt><trkpt lat="45.931395887659114" lon="12.106080492881622"><ele>201.0</ele><time>2026-04-27T08:25:43.999Z</time></trkpt><trkpt lat="45.93136513301602" lon="12.105979105678013"><ele>201.0</ele><time>2026-04-27T08:25:44.999Z</time></trkpt><trkpt lat="45.93132067653236" lon="12.105892740098247"><ele>201.0</ele><time>2026-04-27T08:25:45.999Z</time></trkpt><trkpt lat="45.93125325426728" lon="12.105822066533653"><ele>201.0</ele><time>2026-04-27T08:25:46.999Z</time></trkpt><trkpt lat="45.931185629757806" lon="12.105763026151433"><ele>201.0</ele><time>2026-04-27T08:25:47.999Z</time></trkpt><trkpt lat="45.931105851567985" lon="12.105696771948946"><ele>201.0</ele><time>2026-04-27T08:25:49.999Z</time></trkpt><trkpt lat="45.93100236072748" lon="12.105731565830515"><ele>201.0</ele><time>2026-04-27T08:26:06.999Z</time></trkpt><trkpt lat="45.93094325649751" lon="12.105875692063448"><ele>201.0</ele><time>2026-04-27T08:26:08.999Z</time></trkpt><trkpt lat="45.93090170509146" lon="12.105951701332156"><ele>201.0</ele><time>2026-04-27T08:26:10Z</time></trkpt><trkpt lat="45.930852863424576" lon="12.106040434329273"><ele>201.0</ele><time>2026-04-27T08:26:11Z</time></trkpt><trkpt lat="45.93080079025919" lon="12.106132697290796"><ele>201.0</ele><time>2026-04-27T08:26:12Z</time></trkpt><trkpt lat="45.930745449094665" lon="12.10622942235933"><ele>201.0</ele><time>2026-04-27T08:26:13Z</time></trkpt><trkpt lat="45.93069049551673" lon="12.10632511735347"><ele>201.0</ele><time>2026-04-27T08:26:14Z</time></trkpt><trkpt lat="45.93063873254172" lon="12.106414365276365"><ele>201.16666666666666</ele><time>2026-04-27T08:26:15Z</time></trkpt><trkpt lat="45.930590780177766" lon="12.106496733168061"><ele>201.33333333333331</ele><time>2026-04-27T08:26:16Z</time></trkpt><trkpt lat="45.93054890438389" lon="12.106567420555423"><ele>201.5</ele><time>2026-04-27T08:26:17Z</time></trkpt><trkpt lat="45.930477001139344" lon="12.106710733684169"><ele>201.66666666666666</ele><time>2026-04-27T08:26:19Z</time></trkpt><trkpt lat="45.93044587476893" lon="12.10679538935324"><ele>201.83333333333331</ele><time>2026-04-27T08:26:20Z</time></trkpt><trkpt lat="45.93041456508096" lon="12.106878544225534"><ele>202.0</ele><time>2026-04-27T08:26:21Z</time></trkpt><trkpt lat="45.9303776695918" lon="12.106956404068473"><ele>201.99999999999997</ele><time>2026-04-27T08:26:22Z</time></trkpt><trkpt lat="45.93031663226911" lon="12.107069557895512"><ele>202.0</ele><time>2026-04-27T08:26:24Z</time></trkpt><trkpt lat="45.93024461261425" lon="12.10713606346736"><ele>202.0</ele><time>2026-04-27T08:26:26Z</time></trkpt><trkpt lat="45.93016821940199" lon="12.107066611998226"><ele>202.0</ele><time>2026-04-27T08:26:28Z</time></trkpt><trkpt lat="45.93009570931697" lon="12.107008042748367"><ele>201.99999999999997</ele><time>2026-04-27T08:26:30Z</time></trkpt><trkpt lat="45.93003621498351" lon="12.106952999186417"><ele>202.0</ele><time>2026-04-27T08:27:09Z</time></trkpt><trkpt lat="45.92995271794668" lon="12.106862429166917"><ele>202.99999999999997</ele><time>2026-04-27T08:27:11Z</time></trkpt><trkpt lat="45.929904305272" lon="12.106799724504327"><ele>204.0</ele><time>2026-04-27T08:27:12Z</time></trkpt><trkpt lat="45.92985403424562" lon="12.106729852511366"><ele>205.0</ele><time>2026-04-27T08:27:13Z</time></trkpt><trkpt lat="45.92980763255197" lon="12.106661761891734"><ele>206.0</ele><time>2026-04-27T08:27:14Z</time></trkpt><trkpt lat="45.92976401071241" lon="12.106585803877408"><ele>206.99999999999997</ele><time>2026-04-27T08:27:16Z</time></trkpt><trkpt lat="45.9296905846709" lon="12.106472448434943"><ele>208.0</ele><time>2026-04-27T08:27:40.999Z</time></trkpt><trkpt lat="45.92960824882806" lon="12.106328093301315"><ele>207.85714285714286</ele><time>2026-04-27T08:27:42.999Z</time></trkpt><trkpt lat="45.92955969703202" lon="12.106249751851474"><ele>207.71428571428572</ele><time>2026-04-27T08:27:43.999Z</time></trkpt><trkpt lat="45.92950952942785" lon="12.106176090156172"><ele>207.57142857142858</ele><time>2026-04-27T08:27:44.999Z</time></trkpt><trkpt lat="45.92945892075649" lon="12.106102499161828"><ele>207.42857142857144</ele><time>2026-04-27T08:27:45.999Z</time></trkpt><trkpt lat="45.929407635114664" lon="12.106029482081826"><ele>207.28571428571428</ele><time>2026-04-27T08:27:46.999Z</time></trkpt><trkpt lat="45.92935314325875" lon="12.105961613933028"><ele>207.14285714285717</ele><time>2026-04-27T08:27:47.999Z</time></trkpt><trkpt lat="45.92929641569619" lon="12.105897391262756"><ele>207.0</ele><time>2026-04-27T08:27:48.999Z</time></trkpt><trkpt lat="45.92922047366147" lon="12.105812252373507"><ele>207.0</ele><time>2026-04-27T08:27:50.999Z</time></trkpt><trkpt lat="45.92915671280644" lon="12.105748568742115"><ele>207.0</ele><time>2026-04-27T08:28:05.999Z</time></trkpt><trkpt lat="45.92906760793973" lon="12.105648946128943"><ele>207.0</ele><time>2026-04-27T08:28:07.999Z</time></trkpt><trkpt lat="45.928966736581216" lon="12.105539984953955"><ele>207.0</ele><time>2026-04-27T08:28:09.999Z</time></trkpt><trkpt lat="45.92889883971079" lon="12.105452023439002"><ele>207.0</ele><time>2026-04-27T08:28:11.999Z</time></trkpt><trkpt lat="45.928821554222985" lon="12.105367124357143"><ele>206.8</ele><time>2026-04-27T08:28:47Z</time></trkpt><trkpt lat="45.92872532944218" lon="12.105271722056102"><ele>206.6</ele><time>2026-04-27T08:28:49Z</time></trkpt><trkpt lat="45.92863457125079" lon="12.105193798727866"><ele>206.4</ele><time>2026-04-27T08:28:51Z</time></trkpt><trkpt lat="45.928553911879504" lon="12.105127749938434"><ele>206.20000000000002</ele><time>2026-04-27T08:29:23Z</time></trkpt><trkpt lat="45.92844446320845" lon="12.105047735500037"><ele>206.0</ele><time>2026-04-27T08:29:25Z</time></trkpt><trkpt lat="45.928377840876976" lon="12.104984214019776"><ele>206.0</ele><time>2026-04-27T08:29:26Z</time></trkpt><trkpt lat="45.92830115118378" lon="12.10491106348733"><ele>206.0</ele><time>2026-04-27T08:29:27Z</time></trkpt><trkpt lat="45.928217152188836" lon="12.104828671488539"><ele>206.0</ele><time>2026-04-27T08:29:28Z</time></trkpt><trkpt lat="45.928140377038595" lon="12.104729409676324"><ele>206.0</ele><time>2026-04-27T08:29:29Z</time></trkpt><trkpt lat="45.92807486957791" lon="12.104625541770941"><ele>206.0</ele><time>2026-04-27T08:29:30Z</time></trkpt><trkpt lat="45.92801124296228" lon="12.104528692677912"><ele>206.00000000000003</ele><time>2026-04-27T08:29:31Z</time></trkpt><trkpt lat="45.927954480878924" lon="12.104442673001246"><ele>206.0</ele><time>2026-04-27T08:29:32Z</time></trkpt><trkpt lat="45.92789743639175" lon="12.104293907472037"><ele>206.0</ele><time>2026-04-27T08:29:34Z</time></trkpt><trkpt lat="45.927907668947384" lon="12.10420141000287"><ele>206.0</ele><time>2026-04-27T08:29:37Z</time></trkpt><trkpt lat="45.9279542481903" lon="12.104085416922606"><ele>206.00000000000003</ele><time>2026-04-27T08:29:54Z</time></trkpt><trkpt lat="45.92802789338401" lon="12.10405918743504"><ele>206.0</ele><time>2026-04-27T08:29:56Z</time></trkpt><trkpt lat="45.92808083456572" lon="12.103944185408729"><ele>207.14285714285714</ele><time>2026-04-27T08:30:11Z</time></trkpt><trkpt lat="45.92812126015145" lon="12.103870278197578"><ele>208.28571428571428</ele><time>2026-04-27T08:30:14Z</time></trkpt><trkpt lat="45.928090460397485" lon="12.10395453662412"><ele>209.42857142857144</ele><time>2026-04-27T08:30:54Z</time></trkpt><trkpt lat="45.92804280911181" lon="12.104035996023212"><ele>210.57142857142856</ele><time>2026-04-27T08:30:58Z</time></trkpt><trkpt lat="45.927980512347354" lon="12.104076500043389"><ele>211.71428571428572</ele><time>2026-04-27T08:31:02Z</time></trkpt><trkpt lat="45.92792520868875" lon="12.104007791064676"><ele>212.85714285714286</ele><time>2026-04-27T08:31:15Z</time></trkpt><trkpt lat="45.92787390509979" lon="12.103898289622403"><ele>214.0</ele><time>2026-04-27T08:31:17Z</time></trkpt><trkpt lat="45.92780392818958" lon="12.103780026515235"><ele>213.99999999999997</ele><time>2026-04-27T08:31:19Z</time></trkpt><trkpt lat="45.92775299705964" lon="12.103716517496299"><ele>214.0</ele><time>2026-04-27T08:31:22Z</time></trkpt><trkpt lat="45.927797587875624" lon="12.103787656623522"><ele>214.0</ele><time>2026-04-27T08:31:42Z</time></trkpt><trkpt lat="45.9278514502287" lon="12.10386521156582"><ele>214.0</ele><time>2026-04-27T08:31:45Z</time></trkpt><trkpt lat="45.9278978750789" lon="12.103938099380384"><ele>213.99999999999997</ele><time>2026-04-27T08:31:49Z</time></trkpt><trkpt lat="45.9278702198544" lon="12.104106443493718"><ele>214.0</ele><time>2026-04-27T08:31:58Z</time></trkpt><trkpt lat="45.92789585400119" lon="12.104018324931324"><ele>213.99999999999997</ele><time>2026-04-27T08:32:05Z</time></trkpt><trkpt lat="45.92783966481595" lon="12.103939692641328"><ele>214.0</ele><time>2026-04-27T08:32:08Z</time></trkpt><trkpt lat="45.92789635688773" lon="12.104019362452696"><ele>214.0</ele><time>2026-04-27T08:32:23Z</time></trkpt><trkpt lat="45.92787786285678" lon="12.104202560249677"><ele>214.0</ele><time>2026-04-27T08:32:25Z</time></trkpt><trkpt lat="45.92788096782781" lon="12.104310381404591"><ele>213.99999999999997</ele><time>2026-04-27T08:32:26Z</time></trkpt><trkpt lat="45.92790703142639" lon="12.10441943243594"><ele>214.0</ele><time>2026-04-27T08:32:27Z</time></trkpt><trkpt lat="45.92796853376267" lon="12.104523081806628"><ele>212.66666666666666</ele><time>2026-04-27T08:32:28Z</time></trkpt><trkpt lat="45.928019672768286" lon="12.104593000127842"><ele>211.33333333333331</ele><time>2026-04-27T08:32:29Z</time></trkpt><trkpt lat="45.928078961463946" lon="12.10469200288731"><ele>210.0</ele><time>2026-04-27T08:32:31Z</time></trkpt><trkpt lat="45.92795732025234" lon="12.104699644788564"><ele>208.66666666666669</ele><time>2026-04-27T08:32:41Z</time></trkpt><trkpt lat="45.9279033359747" lon="12.104632810964668"><ele>207.33333333333334</ele><time>2026-04-27T08:32:42Z</time></trkpt><trkpt lat="45.92783358544434" lon="12.104572109417594"><ele>206.0</ele><time>2026-04-27T08:32:43Z</time></trkpt><trkpt lat="45.927757243633756" lon="12.10449603718207"><ele>206.0</ele><time>2026-04-27T08:32:44Z</time></trkpt><trkpt lat="45.92767082118166" lon="12.104404602716016"><ele>206.0</ele><time>2026-04-27T08:32:45Z</time></trkpt><trkpt lat="45.92757769913014" lon="12.104301453793603"><ele>206.0</ele><time>2026-04-27T08:32:46Z</time></trkpt><trkpt lat="45.92747891987241" lon="12.104188896973723"><ele>206.0</ele><time>2026-04-27T08:32:47Z</time></trkpt><trkpt lat="45.92737552695026" lon="12.104068813463599"><ele>205.8</ele><time>2026-04-27T08:32:48Z</time></trkpt><trkpt lat="45.9272721040362" lon="12.103950119923056"><ele>205.60000000000002</ele><time>2026-04-27T08:32:49Z</time></trkpt><trkpt lat="45.927180769621465" lon="12.103843809532437"><ele>205.4</ele><time>2026-04-27T08:32:50Z</time></trkpt><trkpt lat="45.92710958882752" lon="12.103762815984934"><ele>205.2</ele><time>2026-04-27T08:32:51Z</time></trkpt><trkpt lat="45.92704869772151" lon="12.103691211485401"><ele>205.0</ele><time>2026-04-27T08:32:53Z</time></trkpt><trkpt lat="45.92698876589288" lon="12.103623590041849"><ele>205.0</ele><time>2026-04-27T08:33:31Z</time></trkpt><trkpt lat="45.92689501101803" lon="12.10351240243868"><ele>205.0</ele><time>2026-04-27T08:33:33Z</time></trkpt><trkpt lat="45.92683986881227" lon="12.103440275786989"><ele>205.0</ele><time>2026-04-27T08:33:34Z</time></trkpt><trkpt lat="45.92678601274461" lon="12.1033492622167"><ele>205.0</ele><time>2026-04-27T08:33:35Z</time></trkpt><trkpt lat="45.92673019469405" lon="12.103245504493625"><ele>205.0</ele><time>2026-04-27T08:33:36Z</time></trkpt><trkpt lat="45.92667359187519" lon="12.103126544475941"><ele>204.2</ele><time>2026-04-27T08:33:37Z</time></trkpt><trkpt lat="45.926622631669126" lon="12.102995914533333"><ele>203.4</ele><time>2026-04-27T08:33:38Z</time></trkpt><trkpt lat="45.92658659745261" lon="12.102846114435014"><ele>202.60000000000002</ele><time>2026-04-27T08:33:39Z</time></trkpt><trkpt lat="45.926560305577325" lon="12.102685516387462"><ele>201.8</ele><time>2026-04-27T08:33:40Z</time></trkpt><trkpt lat="45.92653210084863" lon="12.10251865627432"><ele>201.0</ele><time>2026-04-27T08:33:41Z</time></trkpt><trkpt lat="45.92649320673468" lon="12.10235404141089"><ele>201.0</ele><time>2026-04-27T08:33:42Z</time></trkpt><trkpt lat="45.92643858927019" lon="12.10219213721591"><ele>201.0</ele><time>2026-04-27T08:33:43Z</time></trkpt><trkpt lat="45.92636498053215" lon="12.102041091895215"><ele>201.0</ele><time>2026-04-27T08:33:44Z</time></trkpt><trkpt lat="45.926278094911574" lon="12.101900853219828"><ele>201.0</ele><time>2026-04-27T08:33:45Z</time></trkpt><trkpt lat="45.92619113976626" lon="12.101756224766595"><ele>201.0</ele><time>2026-04-27T08:33:46Z</time></trkpt><trkpt lat="45.926114874858314" lon="12.101602615581541"><ele>201.0</ele><time>2026-04-27T08:33:47Z</time></trkpt><trkpt lat="45.92605807423025" lon="12.101443883232871"><ele>201.0</ele><time>2026-04-27T08:33:48Z</time></trkpt><trkpt lat="45.926015639960795" lon="12.101281853208807"><ele>201.0</ele><time>2026-04-27T08:33:49Z</time></trkpt><trkpt lat="45.92598311879358" lon="12.101114206399721"><ele>202.0</ele><time>2026-04-27T08:33:50Z</time></trkpt><trkpt lat="45.925962284490566" lon="12.10093878726407"><ele>203.0</ele><time>2026-04-27T08:33:51Z</time></trkpt><trkpt lat="45.92595518306254" lon="12.100757920291812"><ele>204.0</ele><time>2026-04-27T08:33:52Z</time></trkpt><trkpt lat="45.925960015494354" lon="12.100588352160193"><ele>205.0</ele><time>2026-04-27T08:33:53Z</time></trkpt><trkpt lat="45.92597079544217" lon="12.100432161037673"><ele>205.5</ele><time>2026-04-27T08:33:54Z</time></trkpt><trkpt lat="45.92597714511635" lon="12.100275766944755"><ele>206.0</ele><time>2026-04-27T08:33:55Z</time></trkpt><trkpt lat="45.92598104327541" lon="12.10011414642932"><ele>206.5</ele><time>2026-04-27T08:33:56Z</time></trkpt><trkpt lat="45.92598138346021" lon="12.099946074493106"><ele>207.0</ele><time>2026-04-27T08:33:57Z</time></trkpt><trkpt lat="45.925970660261726" lon="12.099771046449751"><ele>206.8</ele><time>2026-04-27T08:33:58Z</time></trkpt><trkpt lat="45.92594500398869" lon="12.099593720804595"><ele>206.6</ele><time>2026-04-27T08:33:59Z</time></trkpt><trkpt lat="45.92590867983573" lon="12.099432933658935"><ele>206.4</ele><time>2026-04-27T08:34:00Z</time></trkpt><trkpt lat="45.92587066178258" lon="12.09930098528953"><ele>206.20000000000002</ele><time>2026-04-27T08:34:01Z</time></trkpt><trkpt lat="45.92583301033697" lon="12.099185648493828"><ele>206.0</ele><time>2026-04-27T08:34:02Z</time></trkpt><trkpt lat="45.92579030314287" lon="12.099064513916888"><ele>206.00000000000003</ele><time>2026-04-27T08:34:03Z</time></trkpt><trkpt lat="45.92574589350495" lon="12.098945876948628"><ele>206.0</ele><time>2026-04-27T08:34:04Z</time></trkpt><trkpt lat="45.925712243071025" lon="12.098833029849395"><ele>206.0</ele><time>2026-04-27T08:34:05Z</time></trkpt><trkpt lat="45.92569481984005" lon="12.098740180832557"><ele>206.0</ele><time>2026-04-27T08:34:06Z</time></trkpt><trkpt lat="45.925673115690905" lon="12.098608825909936"><ele>206.00000000000003</ele><time>2026-04-27T08:34:08Z</time></trkpt><trkpt lat="45.925603979168514" lon="12.098550351952502"><ele>206.0</ele><time>2026-04-27T08:34:49Z</time></trkpt><trkpt lat="45.92554494939233" lon="12.098390632121587"><ele>206.0</ele><time>2026-04-27T08:34:51Z</time></trkpt><trkpt lat="45.92550258801386" lon="12.098279781074904"><ele>206.0</ele><time>2026-04-27T08:34:52Z</time></trkpt><trkpt lat="45.92544492681795" lon="12.098167127159636"><ele>206.0</ele><time>2026-04-27T08:34:53Z</time></trkpt><trkpt lat="45.92537777141052" lon="12.09805057601909"><ele>206.0</ele><time>2026-04-27T08:34:54Z</time></trkpt><trkpt lat="45.925299404186106" lon="12.097928731636522"><ele>206.0</ele><time>2026-04-27T08:34:55Z</time></trkpt><trkpt lat="45.925209254786694" lon="12.097804618353534"><ele>207.0</ele><time>2026-04-27T08:34:56Z</time></trkpt><trkpt lat="45.92511146364479" lon="12.097681004897371"><ele>208.0</ele><time>2026-04-27T08:34:57Z</time></trkpt><trkpt lat="45.92501683567419" lon="12.097569015201703"><ele>209.0</ele><time>2026-04-27T08:34:58Z</time></trkpt><trkpt lat="45.92492486968628" lon="12.097468621558114"><ele>210.0</ele><time>2026-04-27T08:34:59Z</time></trkpt><trkpt lat="45.924838854989666" lon="12.097380472499946"><ele>212.0</ele><time>2026-04-27T08:35:00Z</time></trkpt><trkpt lat="45.92476828614433" lon="12.09730467881643"><ele>214.0</ele><time>2026-04-27T08:35:01Z</time></trkpt><trkpt lat="45.92471339803972" lon="12.097244841663004"><ele>216.0</ele><time>2026-04-27T08:35:02Z</time></trkpt><trkpt lat="45.92465566751368" lon="12.097196852178918"><ele>218.0</ele><time>2026-04-27T08:35:04Z</time></trkpt><trkpt lat="45.92498740983481" lon="12.097368455805453"><ele>218.0</ele><time>2026-04-27T08:35:19Z</time></trkpt><trkpt lat="45.92479585834805" lon="12.097406853787701"><ele>218.0</ele><time>2026-04-27T08:35:21Z</time></trkpt><trkpt lat="45.9248546413888" lon="12.097476040011797"><ele>218.0</ele><time>2026-04-27T08:35:23Z</time></trkpt><trkpt lat="45.92490821253734" lon="12.09752794090076"><ele>218.0</ele><time>2026-04-27T08:35:38Z</time></trkpt><trkpt lat="45.92501999334588" lon="12.097627023747489"><ele>216.5</ele><time>2026-04-27T08:35:40Z</time></trkpt><trkpt lat="45.92509461259677" lon="12.097712924761987"><ele>215.0</ele><time>2026-04-27T08:35:41Z</time></trkpt><trkpt lat="45.92517545456649" lon="12.097816149668907"><ele>213.5</ele><time>2026-04-27T08:35:42Z</time></trkpt><trkpt lat="45.925262929210895" lon="12.097934701290285"><ele>212.0</ele><time>2026-04-27T08:35:43Z</time></trkpt><trkpt lat="45.92535087302217" lon="12.098078481664704"><ele>212.0</ele><time>2026-04-27T08:35:44Z</time></trkpt><trkpt lat="45.925429915203054" lon="12.0982337676632"><ele>212.0</ele><time>2026-04-27T08:35:45Z</time></trkpt><trkpt lat="45.92550392259777" lon="12.09839464012031"><ele>212.0</ele><time>2026-04-27T08:35:46Z</time></trkpt><trkpt lat="45.92557523709841" lon="12.098567251756064"><ele>212.0</ele><time>2026-04-27T08:35:47Z</time></trkpt><trkpt lat="45.92564113887562" lon="12.098753649031204"><ele>210.0</ele><time>2026-04-27T08:35:48Z</time></trkpt><trkpt lat="45.92570824926488" lon="12.09894753478463"><ele>208.0</ele><time>2026-04-27T08:35:49Z</time></trkpt><trkpt lat="45.925775856997475" lon="12.099144292028223"><ele>206.0</ele><time>2026-04-27T08:35:50Z</time></trkpt><trkpt lat="45.92584033489325" lon="12.099341528595675"><ele>206.25</ele><time>2026-04-27T08:35:51Z</time></trkpt><trkpt lat="45.92589366853097" lon="12.099541637512504"><ele>206.5</ele><time>2026-04-27T08:35:52Z</time></trkpt><trkpt lat="45.925927080840665" lon="12.099739931494915"><ele>206.75</ele><time>2026-04-27T08:35:53Z</time></trkpt><trkpt lat="45.925941604389855" lon="12.099926707122757"><ele>207.0</ele><time>2026-04-27T08:35:54Z</time></trkpt><trkpt lat="45.92594356861691" lon="12.100096222343014"><ele>207.0</ele><time>2026-04-27T08:35:55Z</time></trkpt><trkpt lat="45.925940874440975" lon="12.100254462616016"><ele>207.0</ele><time>2026-04-27T08:35:56Z</time></trkpt><trkpt lat="45.925934023374275" lon="12.10041731112913"><ele>207.0</ele><time>2026-04-27T08:35:57Z</time></trkpt><trkpt lat="45.9259256299983" lon="12.100584349595946"><ele>207.0</ele><time>2026-04-27T08:35:58Z</time></trkpt><trkpt lat="45.925921874265654" lon="12.100754053531873"><ele>206.5</ele><time>2026-04-27T08:35:59Z</time></trkpt><trkpt lat="45.9259270624239" lon="12.10092710165146"><ele>206.0</ele><time>2026-04-27T08:36:00Z</time></trkpt><trkpt lat="45.925945826915196" lon="12.101106563335003"><ele>205.5</ele><time>2026-04-27T08:36:01Z</time></trkpt><trkpt lat="45.92598007902679" lon="12.101282013280196"><ele>205.0</ele><time>2026-04-27T08:36:02Z</time></trkpt><trkpt lat="45.926028588647796" lon="12.10144606554421"><ele>204.2</ele><time>2026-04-27T08:36:03Z</time></trkpt><trkpt lat="45.92608688423538" lon="12.101587588431943"><ele>203.4</ele><time>2026-04-27T08:36:04Z</time></trkpt><trkpt lat="45.92613820765961" lon="12.101687817748672"><ele>202.60000000000002</ele><time>2026-04-27T08:36:05Z</time></trkpt><trkpt lat="45.92618870878936" lon="12.101804048513618"><ele>201.8</ele><time>2026-04-27T08:36:07Z</time></trkpt><trkpt lat="45.926247660081025" lon="12.101911433510752"><ele>201.0</ele><time>2026-04-27T08:36:48Z</time></trkpt><trkpt lat="45.926335501804616" lon="12.102059351778536"><ele>201.0</ele><time>2026-04-27T08:36:50Z</time></trkpt><trkpt lat="45.92639064654242" lon="12.102170987810617"><ele>201.0</ele><time>2026-04-27T08:36:51Z</time></trkpt><trkpt lat="45.92643800023856" lon="12.102309402329459"><ele>201.0</ele><time>2026-04-27T08:36:52Z</time></trkpt><trkpt lat="45.926477752373025" lon="12.102473895377402"><ele>201.0</ele><time>2026-04-27T08:36:53Z</time></trkpt><trkpt lat="45.92650569949874" lon="12.102655687911454"><ele>200.5</ele><time>2026-04-27T08:36:54Z</time></trkpt><trkpt lat="45.926539543717595" lon="12.102849031370637"><ele>200.0</ele><time>2026-04-27T08:36:55Z</time></trkpt><trkpt lat="45.9265938684479" lon="12.103045968674355"><ele>199.5</ele><time>2026-04-27T08:36:56Z</time></trkpt><trkpt lat="45.92667102024779" lon="12.103235644776474"><ele>199.0</ele><time>2026-04-27T08:36:57Z</time></trkpt><trkpt lat="45.92676952064975" lon="12.103412844261127"><ele>201.0</ele><time>2026-04-27T08:36:58Z</time></trkpt><trkpt lat="45.92688283369574" lon="12.103580270060604"><ele>203.0</ele><time>2026-04-27T08:36:59Z</time></trkpt><trkpt lat="45.92701504865528" lon="12.103736608069369"><ele>205.0</ele><time>2026-04-27T08:37:00Z</time></trkpt><trkpt lat="45.927150607512615" lon="12.10389177872793"><ele>205.0</ele><time>2026-04-27T08:37:01Z</time></trkpt><trkpt lat="45.92728878080652" lon="12.10405235132666"><ele>205.0</ele><time>2026-04-27T08:37:02Z</time></trkpt><trkpt lat="45.927430182034236" lon="12.104213903954093"><ele>205.0</ele><time>2026-04-27T08:37:03Z</time></trkpt><trkpt lat="45.92757442529806" lon="12.104376972770323"><ele>205.33333333333331</ele><time>2026-04-27T08:37:04Z</time></trkpt><trkpt lat="45.92771398599014" lon="12.104527719055648"><ele>205.66666666666669</ele><time>2026-04-27T08:37:05Z</time></trkpt><trkpt lat="45.927849595455115" lon="12.104654358451446"><ele>206.0</ele><time>2026-04-27T08:37:06Z</time></trkpt><trkpt lat="45.92797157608523" lon="12.104758251698195"><ele>206.0</ele><time>2026-04-27T08:37:07Z</time></trkpt><trkpt lat="45.92807277345263" lon="12.104834406396906"><ele>206.0</ele><time>2026-04-27T08:37:08Z</time></trkpt><trkpt lat="45.92816781776621" lon="12.104881361190495"><ele>206.0</ele><time>2026-04-27T08:37:09Z</time></trkpt><trkpt lat="45.92831048894749" lon="12.104865877536598"><ele>206.0</ele><time>2026-04-27T08:37:10Z</time></trkpt><trkpt lat="45.92840322864622" lon="12.104835364468872"><ele>208.0</ele><time>2026-04-27T08:37:11Z</time></trkpt><trkpt lat="45.92852443651323" lon="12.104820758677599"><ele>210.0</ele><time>2026-04-27T08:37:12Z</time></trkpt><trkpt lat="45.92864878442267" lon="12.104822994764636"><ele>212.0</ele><time>2026-04-27T08:37:13Z</time></trkpt><trkpt lat="45.92877118156164" lon="12.104829603723488"><ele>214.0</ele><time>2026-04-27T08:37:14Z</time></trkpt><trkpt lat="45.92888325127795" lon="12.10483081803686"><ele>213.99999999999997</ele><time>2026-04-27T08:37:15Z</time></trkpt><trkpt lat="45.928983632571665" lon="12.104838942028634"><ele>214.0</ele><time>2026-04-27T08:37:16Z</time></trkpt><trkpt lat="45.92907904888469" lon="12.104858159959393"><ele>214.0</ele><time>2026-04-27T08:37:17Z</time></trkpt><trkpt lat="45.92916343762502" lon="12.104887097978564"><ele>214.0</ele><time>2026-04-27T08:37:18Z</time></trkpt><trkpt lat="45.92923776663779" lon="12.104913035443408"><ele>213.99999999999997</ele><time>2026-04-27T08:37:19Z</time></trkpt><trkpt lat="45.92931269887625" lon="12.10493871211203"><ele>214.0</ele><time>2026-04-27T08:37:20Z</time></trkpt><trkpt lat="45.9293871827847" lon="12.104972827539102"><ele>213.42857142857144</ele><time>2026-04-27T08:37:21Z</time></trkpt><trkpt lat="45.92945704197801" lon="12.10500494683622"><ele>212.85714285714286</ele><time>2026-04-27T08:37:22Z</time></trkpt><trkpt lat="45.929518821786495" lon="12.105034729006713"><ele>212.28571428571428</ele><time>2026-04-27T08:37:23Z</time></trkpt><trkpt lat="45.92958170176957" lon="12.105064234798924"><ele>211.71428571428572</ele><time>2026-04-27T08:37:24Z</time></trkpt><trkpt lat="45.92964953488676" lon="12.105099256188042"><ele>211.14285714285714</ele><time>2026-04-27T08:37:25Z</time></trkpt><trkpt lat="45.92972107865857" lon="12.105142956821368"><ele>210.57142857142858</ele><time>2026-04-27T08:37:26Z</time></trkpt><trkpt lat="45.92979144781698" lon="12.105195016695216"><ele>210.0</ele><time>2026-04-27T08:37:27Z</time></trkpt><trkpt lat="45.92985125740264" lon="12.105258285277548"><ele>210.0</ele><time>2026-04-27T08:37:28Z</time></trkpt><trkpt lat="45.92989789142839" lon="12.105322406742742"><ele>210.0</ele><time>2026-04-27T08:37:29Z</time></trkpt><trkpt lat="45.92996963281341" lon="12.1054254577034"><ele>210.0</ele><time>2026-04-27T08:37:31Z</time></trkpt><trkpt lat="45.93003332204098" lon="12.105505942980338"><ele>210.0</ele><time>2026-04-27T08:37:52Z</time></trkpt><trkpt lat="45.93009738553383" lon="12.105649092167585"><ele>210.0</ele><time>2026-04-27T08:37:54Z</time></trkpt><trkpt lat="45.930151117660785" lon="12.105760481007675"><ele>209.33333333333334</ele><time>2026-04-27T08:37:56Z</time></trkpt><trkpt lat="45.930198882532416" lon="12.10587461902888"><ele>208.66666666666669</ele><time>2026-04-27T08:38:27Z</time></trkpt><trkpt lat="45.93022987931809" lon="12.105995628613117"><ele>208.0</ele><time>2026-04-27T08:38:29.999Z</time></trkpt><trkpt lat="45.93025529397521" lon="12.10611933397999"><ele>207.33333333333334</ele><time>2026-04-27T08:38:32.999Z</time></trkpt><trkpt lat="45.9303039748943" lon="12.106189405461214"><ele>206.66666666666669</ele><time>2026-04-27T08:38:34.999Z</time></trkpt><trkpt lat="45.930334314791" lon="12.10628630827565"><ele>206.0</ele><time>2026-04-27T08:38:37.999Z</time></trkpt><trkpt lat="45.93035907104192" lon="12.106202397336997"><ele>206.0</ele><time>2026-04-27T08:39:28Z</time></trkpt><trkpt lat="45.93040768062339" lon="12.10639096196668"><ele>206.0</ele><time>2026-04-27T08:39:56Z</time></trkpt><trkpt lat="45.930454528532564" lon="12.106513051791078"><ele>206.0</ele><time>2026-04-27T08:39:58Z</time></trkpt><trkpt lat="45.930485367852434" lon="12.106605533069459"><ele>206.0</ele><time>2026-04-27T08:40:00Z</time></trkpt><trkpt lat="45.930472741808494" lon="12.106739106950185"><ele>206.0</ele><time>2026-04-27T08:40:05Z</time></trkpt><trkpt lat="45.93041302256887" lon="12.106887188181524"><ele>205.33333333333334</ele><time>2026-04-27T08:40:07Z</time></trkpt><trkpt lat="45.930342246461755" lon="12.107040979771996"><ele>204.66666666666669</ele><time>2026-04-27T08:40:09Z</time></trkpt><trkpt lat="45.93029727629011" lon="12.10712553394284"><ele>204.0</ele><time>2026-04-27T08:40:10Z</time></trkpt><trkpt lat="45.93025771682771" lon="12.107217418619776"><ele>203.33333333333331</ele><time>2026-04-27T08:40:11Z</time></trkpt><trkpt lat="45.93022353615856" lon="12.107319550415404"><ele>202.66666666666666</ele><time>2026-04-27T08:40:12Z</time></trkpt><trkpt lat="45.930190338258285" lon="12.107426959619978"><ele>202.0</ele><time>2026-04-27T08:40:13Z</time></trkpt><trkpt lat="45.930160848347185" lon="12.107541788176231"><ele>201.83333333333331</ele><time>2026-04-27T08:40:14Z</time></trkpt><trkpt lat="45.93013262734418" lon="12.107656470943711"><ele>201.66666666666666</ele><time>2026-04-27T08:40:15Z</time></trkpt><trkpt lat="45.930108973877324" lon="12.107770589914447"><ele>201.5</ele><time>2026-04-27T08:40:16Z</time></trkpt><trkpt lat="45.930081376611504" lon="12.107888955779547"><ele>201.33333333333331</ele><time>2026-04-27T08:40:16.999Z</time></trkpt><trkpt lat="45.93005016455858" lon="12.107999564728779"><ele>201.16666666666666</ele><time>2026-04-27T08:40:17.999Z</time></trkpt><trkpt lat="45.93003240011608" lon="12.108115829916557"><ele>201.0</ele><time>2026-04-27T08:40:18.999Z</time></trkpt><trkpt lat="45.93001286037088" lon="12.108220757108532"><ele>201.8</ele><time>2026-04-27T08:40:19.999Z</time></trkpt><trkpt lat="45.9299832563841" lon="12.10834332848517"><ele>202.60000000000002</ele><time>2026-04-27T08:40:21.999Z</time></trkpt><trkpt lat="45.92997462302922" lon="12.1084642934839"><ele>203.4</ele><time>2026-04-27T08:40:39.999Z</time></trkpt><trkpt lat="45.92995634439643" lon="12.108646871072565"><ele>204.2</ele><time>2026-04-27T08:40:41.999Z</time></trkpt><trkpt lat="45.92994798695677" lon="12.108754710571127"><ele>205.0</ele><time>2026-04-27T08:40:42.999Z</time></trkpt><trkpt lat="45.92993702005179" lon="12.108870044730084"><ele>205.0</ele><time>2026-04-27T08:40:43.999Z</time></trkpt><trkpt lat="45.92990604441466" lon="12.108982564172935"><ele>205.0</ele><time>2026-04-27T08:40:44.999Z</time></trkpt><trkpt lat="45.929889133480216" lon="12.109107409939039"><ele>205.0</ele><time>2026-04-27T08:40:45.999Z</time></trkpt><trkpt lat="45.92987360273362" lon="12.109240102122165"><ele>205.0</ele><time>2026-04-27T08:40:46.999Z</time></trkpt><trkpt lat="45.92987989683669" lon="12.1093803937272"><ele>205.0</ele><time>2026-04-27T08:40:47.999Z</time></trkpt><trkpt lat="45.92987800231643" lon="12.109520182022457"><ele>204.57142857142858</ele><time>2026-04-27T08:40:48.999Z</time></trkpt><trkpt lat="45.92987564366828" lon="12.10964692677495"><ele>204.14285714285714</ele><time>2026-04-27T08:40:50Z</time></trkpt><trkpt lat="45.929869867888954" lon="12.109737974424837"><ele>203.71428571428572</ele><time>2026-04-27T08:40:51Z</time></trkpt><trkpt lat="45.92985915881998" lon="12.109839251922294"><ele>203.28571428571428</ele><time>2026-04-27T08:40:53Z</time></trkpt><trkpt lat="45.929866505152994" lon="12.10996094260091"><ele>202.85714285714283</ele><time>2026-04-27T08:41:14Z</time></trkpt><trkpt lat="45.9298631685471" lon="12.110051413797029"><ele>202.42857142857142</ele><time>2026-04-27T08:41:15Z</time></trkpt><trkpt lat="45.9298526461136" lon="12.11015859777757"><ele>202.0</ele><time>2026-04-27T08:41:16Z</time></trkpt><trkpt lat="45.929832539691" lon="12.110276863026181"><ele>201.2</ele><time>2026-04-27T08:41:17Z</time></trkpt><trkpt lat="45.92980198767297" lon="12.110405991953106"><ele>200.39999999999998</ele><time>2026-04-27T08:41:18Z</time></trkpt><trkpt lat="45.9297578384625" lon="12.11053909012112"><ele>199.60000000000002</ele><time>2026-04-27T08:41:19Z</time></trkpt><trkpt lat="45.92970167239394" lon="12.110674557037937"><ele>198.8</ele><time>2026-04-27T08:41:20Z</time></trkpt><trkpt lat="45.929635002897015" lon="12.110809543586258"><ele>198.0</ele><time>2026-04-27T08:41:21Z</time></trkpt><trkpt lat="45.9295612183621" lon="12.11094657304574"><ele>196.25</ele><time>2026-04-27T08:41:22Z</time></trkpt><trkpt lat="45.92948294369508" lon="12.111086259428776"><ele>194.5</ele><time>2026-04-27T08:41:23Z</time></trkpt><trkpt lat="45.9294028002143" lon="12.111227797549818"><ele>192.75</ele><time>2026-04-27T08:41:24Z</time></trkpt><trkpt lat="45.92932729083561" lon="12.111375862583902"><ele>191.0</ele><time>2026-04-27T08:41:25Z</time></trkpt><trkpt lat="45.92925869283901" lon="12.111534326568197"><ele>191.0</ele><time>2026-04-27T08:41:26Z</time></trkpt><trkpt lat="45.92920192829344" lon="12.111699182209126"><ele>191.0</ele><time>2026-04-27T08:41:27Z</time></trkpt><trkpt lat="45.92915555794793" lon="12.111872967122606"><ele>191.0</ele><time>2026-04-27T08:41:28Z</time></trkpt><trkpt lat="45.92911752869769" lon="12.112049495297551"><ele>191.0</ele><time>2026-04-27T08:41:29Z</time></trkpt><trkpt lat="45.929087243223485" lon="12.112228864975808"><ele>190.5</ele><time>2026-04-27T08:41:30Z</time></trkpt><trkpt lat="45.929060305639474" lon="12.112407998934488"><ele>190.0</ele><time>2026-04-27T08:41:31Z</time></trkpt><trkpt lat="45.92903591909954" lon="12.112586151867696"><ele>189.5</ele><time>2026-04-27T08:41:32Z</time></trkpt><trkpt lat="45.92901284101622" lon="12.112763694673509"><ele>189.0</ele><time>2026-04-27T08:41:33Z</time></trkpt><trkpt lat="45.928988307790874" lon="12.112939839687247"><ele>189.0</ele><time>2026-04-27T08:41:34Z</time></trkpt><trkpt lat="45.92896353003728" lon="12.113118870901879"><ele>189.0</ele><time>2026-04-27T08:41:35Z</time></trkpt><trkpt lat="45.92893578313646" lon="12.113297229306951"><ele>189.0</ele><time>2026-04-27T08:41:36Z</time></trkpt><trkpt lat="45.92891123444565" lon="12.113475689292635"><ele>189.0</ele><time>2026-04-27T08:41:37Z</time></trkpt><trkpt lat="45.92888504364106" lon="12.11365526974119"><ele>189.25</ele><time>2026-04-27T08:41:38Z</time></trkpt><trkpt lat="45.928858426464174" lon="12.113839671961474"><ele>189.5</ele><time>2026-04-27T08:41:39Z</time></trkpt><trkpt lat="45.92883250294211" lon="12.114024402199048"><ele>189.75</ele><time>2026-04-27T08:41:40Z</time></trkpt><trkpt lat="45.92880707986809" lon="12.114201960370883"><ele>190.0</ele><time>2026-04-27T08:41:41Z</time></trkpt><trkpt lat="45.92878224897576" lon="12.114376768451502"><ele>191.0</ele><time>2026-04-27T08:41:42Z</time></trkpt><trkpt lat="45.92875735156736" lon="12.114546854437659"><ele>192.0</ele><time>2026-04-27T08:41:43Z</time></trkpt><trkpt lat="45.928732525329295" lon="12.114717445195469"><ele>193.0</ele><time>2026-04-27T08:41:44Z</time></trkpt><trkpt lat="45.928712811261" lon="12.114887473198579"><ele>194.0</ele><time>2026-04-27T08:41:45Z</time></trkpt><trkpt lat="45.92869661182592" lon="12.115064421562975"><ele>194.0</ele><time>2026-04-27T08:41:46Z</time></trkpt><trkpt lat="45.92868557012435" lon="12.115245614984433"><ele>194.0</ele><time>2026-04-27T08:41:47Z</time></trkpt><trkpt lat="45.92867994861068" lon="12.115431279945286"><ele>194.0</ele><time>2026-04-27T08:41:48Z</time></trkpt><trkpt lat="45.92867747652494" lon="12.115622755771708"><ele>194.0</ele><time>2026-04-27T08:41:49Z</time></trkpt><trkpt lat="45.92868108190781" lon="12.115820508165843"><ele>194.0</ele><time>2026-04-27T08:41:50Z</time></trkpt><trkpt lat="45.92869220497503" lon="12.116023228158262"><ele>194.0</ele><time>2026-04-27T08:41:51Z</time></trkpt><trkpt lat="45.928710784484124" lon="12.116226884280183"><ele>194.0</ele><time>2026-04-27T08:41:52Z</time></trkpt><trkpt lat="45.928734869830045" lon="12.116429756602143"><ele>194.0</ele><time>2026-04-27T08:41:53Z</time></trkpt><trkpt lat="45.92876775570042" lon="12.116630334428761"><ele>193.25</ele><time>2026-04-27T08:41:54Z</time></trkpt><trkpt lat="45.9288084808493" lon="12.116828005640686"><ele>192.5</ele><time>2026-04-27T08:41:55Z</time></trkpt><trkpt lat="45.92885311023375" lon="12.117022634713214"><ele>191.75</ele><time>2026-04-27T08:41:56Z</time></trkpt><trkpt lat="45.92890352277801" lon="12.117215394354616"><ele>191.0</ele><time>2026-04-27T08:41:57Z</time></trkpt><trkpt lat="45.92896273379964" lon="12.117406713970272"><ele>189.75</ele><time>2026-04-27T08:41:58Z</time></trkpt><trkpt lat="45.92902087890531" lon="12.1176001760469"><ele>188.5</ele><time>2026-04-27T08:41:59Z</time></trkpt><trkpt lat="45.9290802427251" lon="12.117793271827198"><ele>187.25</ele><time>2026-04-27T08:42:00Z</time></trkpt><trkpt lat="45.92913758693742" lon="12.117986227711281"><ele>186.0</ele><time>2026-04-27T08:42:01Z</time></trkpt><trkpt lat="45.92919378751397" lon="12.118177763501674"><ele>190.75</ele><time>2026-04-27T08:42:02Z</time></trkpt><trkpt lat="45.92924955973685" lon="12.118365514552448"><ele>195.5</ele><time>2026-04-27T08:42:03Z</time></trkpt><trkpt lat="45.929304507869105" lon="12.118550623891794"><ele>200.25</ele><time>2026-04-27T08:42:04Z</time></trkpt><trkpt lat="45.92935791062678" lon="12.118733439552702"><ele>205.0</ele><time>2026-04-27T08:42:05Z</time></trkpt><trkpt lat="45.929411294085625" lon="12.1189122782615"><ele>203.75</ele><time>2026-04-27T08:42:06Z</time></trkpt><trkpt lat="45.92946475070384" lon="12.11908668499821"><ele>202.5</ele><time>2026-04-27T08:42:07Z</time></trkpt><trkpt lat="45.92951630688016" lon="12.119257480853925"><ele>201.25</ele><time>2026-04-27T08:42:08Z</time></trkpt><trkpt lat="45.929566417505654" lon="12.11942464879509"><ele>200.0</ele><time>2026-04-27T08:42:09Z</time></trkpt><trkpt lat="45.929614880683744" lon="12.119588860539674"><ele>200.0</ele><time>2026-04-27T08:42:10Z</time></trkpt><trkpt lat="45.92966318490292" lon="12.119747510447"><ele>200.0</ele><time>2026-04-27T08:42:10.999Z</time></trkpt><trkpt lat="45.9297068779566" lon="12.119902731939314"><ele>200.0</ele><time>2026-04-27T08:42:11.999Z</time></trkpt><trkpt lat="45.92975143335925" lon="12.120051586952505"><ele>200.0</ele><time>2026-04-27T08:42:12.999Z</time></trkpt><trkpt lat="45.929795156292876" lon="12.120193243018113"><ele>198.4</ele><time>2026-04-27T08:42:13.999Z</time></trkpt><trkpt lat="45.92983638461185" lon="12.120331784273258"><ele>196.8</ele><time>2026-04-27T08:42:14.999Z</time></trkpt><trkpt lat="45.92987689701514" lon="12.120467083516683"><ele>195.2</ele><time>2026-04-27T08:42:15.999Z</time></trkpt><trkpt lat="45.92991493181311" lon="12.120602493313449"><ele>193.6</ele><time>2026-04-27T08:42:16.999Z</time></trkpt><trkpt lat="45.929955459220324" lon="12.120738115144373"><ele>192.0</ele><time>2026-04-27T08:42:17.999Z</time></trkpt><trkpt lat="45.92999680356166" lon="12.120878722920324"><ele>192.8</ele><time>2026-04-27T08:42:18.999Z</time></trkpt><trkpt lat="45.930040369780926" lon="12.12102365194999"><ele>193.6</ele><time>2026-04-27T08:42:19.999Z</time></trkpt><trkpt lat="45.93008498370228" lon="12.121170874130613"><ele>194.4</ele><time>2026-04-27T08:42:20.999Z</time></trkpt><trkpt lat="45.93012818873141" lon="12.121321995309811"><ele>195.20000000000002</ele><time>2026-04-27T08:42:21.999Z</time></trkpt><trkpt lat="45.93017197629872" lon="12.121473805253936"><ele>196.0</ele><time>2026-04-27T08:42:22.999Z</time></trkpt><trkpt lat="45.93021405490585" lon="12.121622423286642"><ele>194.0</ele><time>2026-04-27T08:42:23.999Z</time></trkpt><trkpt lat="45.93025674128791" lon="12.121769244377358"><ele>192.0</ele><time>2026-04-27T08:42:24.999Z</time></trkpt><trkpt lat="45.930298091996036" lon="12.121912550475368"><ele>190.0</ele><time>2026-04-27T08:42:25.999Z</time></trkpt><trkpt lat="45.930335985816185" lon="12.12205557292661"><ele>188.0</ele><time>2026-04-27T08:42:26.999Z</time></trkpt><trkpt lat="45.930371484523796" lon="12.122198261075964"><ele>186.0</ele><time>2026-04-27T08:42:27.999Z</time></trkpt><trkpt lat="45.9304041666366" lon="12.122343026432548"><ele>184.8</ele><time>2026-04-27T08:42:28.999Z</time></trkpt><trkpt lat="45.93043308518126" lon="12.122490508017767"><ele>183.60000000000002</ele><time>2026-04-27T08:42:29.999Z</time></trkpt><trkpt lat="45.93045958389565" lon="12.12263970310624"><ele>182.4</ele><time>2026-04-27T08:42:30.999Z</time></trkpt><trkpt lat="45.93048504446846" lon="12.12278896833764"><ele>181.2</ele><time>2026-04-27T08:42:31.999Z</time></trkpt><trkpt lat="45.93051258467178" lon="12.122936298888693"><ele>180.0</ele><time>2026-04-27T08:42:32.999Z</time></trkpt><trkpt lat="45.9305402872951" lon="12.123078418897773"><ele>180.0</ele><time>2026-04-27T08:42:33.999Z</time></trkpt><trkpt lat="45.93056442719997" lon="12.123214046189823"><ele>180.0</ele><time>2026-04-27T08:42:34.999Z</time></trkpt><trkpt lat="45.93058872164904" lon="12.123346960857509"><ele>180.0</ele><time>2026-04-27T08:42:35.999Z</time></trkpt><trkpt lat="45.93061212821942" lon="12.12348154447184"><ele>180.0</ele><time>2026-04-27T08:42:36.999Z</time></trkpt><trkpt lat="45.930636862364736" lon="12.123614445147425"><ele>180.0</ele><time>2026-04-27T08:42:37.999Z</time></trkpt><trkpt lat="45.93066042463479" lon="12.123736860282415"><ele>179.16666666666666</ele><time>2026-04-27T08:42:38.999Z</time></trkpt><trkpt lat="45.93067701339504" lon="12.123858143838074"><ele>178.33333333333334</ele><time>2026-04-27T08:42:39.999Z</time></trkpt><trkpt lat="45.93068622689463" lon="12.123976779887577"><ele>177.5</ele><time>2026-04-27T08:42:40.999Z</time></trkpt><trkpt lat="45.93068670256898" lon="12.124093066609314"><ele>176.66666666666669</ele><time>2026-04-27T08:42:41.999Z</time></trkpt><trkpt lat="45.93068769635684" lon="12.124199805352069"><ele>175.83333333333334</ele><time>2026-04-27T08:42:42.999Z</time></trkpt><trkpt lat="45.93068591387136" lon="12.124305610769465"><ele>175.0</ele><time>2026-04-27T08:42:43.999Z</time></trkpt><trkpt lat="45.93066989885584" lon="12.124400683543465"><ele>174.8</ele><time>2026-04-27T08:42:44.999Z</time></trkpt><trkpt lat="45.93075946614838" lon="12.124509219051998"><ele>174.6</ele><time>2026-04-27T08:42:45.999Z</time></trkpt><trkpt lat="45.93081091985308" lon="12.1246047117534"><ele>174.39999999999998</ele><time>2026-04-27T08:42:46.999Z</time></trkpt><trkpt lat="45.930845980095405" lon="12.124718508846993"><ele>174.2</ele><time>2026-04-27T08:42:47.999Z</time></trkpt><trkpt lat="45.930871245604855" lon="12.124850250663327"><ele>174.0</ele><time>2026-04-27T08:42:48.999Z</time></trkpt><trkpt lat="45.93089857628266" lon="12.124991902376639"><ele>178.39999999999998</ele><time>2026-04-27T08:42:49.999Z</time></trkpt><trkpt lat="45.93092725090599" lon="12.125140434328955"><ele>182.8</ele><time>2026-04-27T08:42:50.999Z</time></trkpt><trkpt lat="45.930955539854565" lon="12.125298347838264"><ele>187.2</ele><time>2026-04-27T08:42:51.999Z</time></trkpt><trkpt lat="45.93098238098369" lon="12.12545666718584"><ele>191.60000000000002</ele><time>2026-04-27T08:42:52.999Z</time></trkpt><trkpt lat="45.931003467987914" lon="12.125614215801484"><ele>196.0</ele><time>2026-04-27T08:42:53.999Z</time></trkpt><trkpt lat="45.931016538229166" lon="12.125762441058178"><ele>197.33333333333331</ele><time>2026-04-27T08:42:54.999Z</time></trkpt><trkpt lat="45.93102878069942" lon="12.125900099075784"><ele>198.66666666666666</ele><time>2026-04-27T08:42:56Z</time></trkpt><trkpt lat="45.93103808575357" lon="12.126026205870986"><ele>200.0</ele><time>2026-04-27T08:42:57Z</time></trkpt><trkpt lat="45.93104492651447" lon="12.126145051995831"><ele>201.33333333333331</ele><time>2026-04-27T08:42:58Z</time></trkpt><trkpt lat="45.9310506101432" lon="12.12626567704628"><ele>202.66666666666666</ele><time>2026-04-27T08:42:59Z</time></trkpt><trkpt lat="45.93106050410112" lon="12.126391961662643"><ele>204.0</ele><time>2026-04-27T08:43:00Z</time></trkpt><trkpt lat="45.93108160695119" lon="12.126521656644167"><ele>203.79999999999998</ele><time>2026-04-27T08:43:01Z</time></trkpt><trkpt lat="45.93111328582724" lon="12.126654502532606"><ele>203.6</ele><time>2026-04-27T08:43:02Z</time></trkpt><trkpt lat="45.931157656159094" lon="12.126787977321536"><ele>203.4</ele><time>2026-04-27T08:43:03Z</time></trkpt><trkpt lat="45.93121002752551" lon="12.126922683881737"><ele>203.2</ele><time>2026-04-27T08:43:04Z</time></trkpt><trkpt lat="45.93126539842983" lon="12.127059767790612"><ele>203.0</ele><time>2026-04-27T08:43:05Z</time></trkpt><trkpt lat="45.93132413011457" lon="12.127198580011536"><ele>203.0</ele><time>2026-04-27T08:43:06Z</time></trkpt><trkpt lat="45.9313846746824" lon="12.127332845948935"><ele>203.0</ele><time>2026-04-27T08:43:07Z</time></trkpt><trkpt lat="45.93144711553958" lon="12.12746051264078"><ele>203.0</ele><time>2026-04-27T08:43:08Z</time></trkpt><trkpt lat="45.93151375710647" lon="12.127575878883693"><ele>203.0</ele><time>2026-04-27T08:43:09Z</time></trkpt><trkpt lat="45.93158123196536" lon="12.127680872441386"><ele>203.0</ele><time>2026-04-27T08:43:10Z</time></trkpt><trkpt lat="45.93164938143406" lon="12.127773226388115"><ele>201.66666666666669</ele><time>2026-04-27T08:43:11Z</time></trkpt><trkpt lat="45.931718610996285" lon="12.127852650026949"><ele>200.33333333333334</ele><time>2026-04-27T08:43:12Z</time></trkpt><trkpt lat="45.93178821365713" lon="12.127919502965995"><ele>199.0</ele><time>2026-04-27T08:43:13Z</time></trkpt><trkpt lat="45.93185369539653" lon="12.127976322971486"><ele>197.66666666666669</ele><time>2026-04-27T08:43:14Z</time></trkpt><trkpt lat="45.931910617436294" lon="12.128019570523186"><ele>196.33333333333334</ele><time>2026-04-27T08:43:15Z</time></trkpt><trkpt lat="45.931988181452716" lon="12.128078831578431"><ele>195.0</ele><time>2026-04-27T08:43:17Z</time></trkpt><trkpt lat="45.932058644923764" lon="12.12808186073492"><ele>195.0</ele><time>2026-04-27T08:43:20Z</time></trkpt><trkpt lat="45.93199661893451" lon="12.128098606563112"><ele>195.0</ele><time>2026-04-27T08:43:28Z</time></trkpt><trkpt lat="45.93193364409682" lon="12.128080159550878"><ele>195.0</ele><time>2026-04-27T08:43:32Z</time></trkpt><trkpt lat="45.931850046275116" lon="12.12826400831666"><ele>195.0</ele><time>2026-04-27T08:43:39Z</time></trkpt><trkpt lat="45.93179599742432" lon="12.128345028286123"><ele>195.0</ele><time>2026-04-27T08:43:45Z</time></trkpt><trkpt lat="45.931758361506745" lon="12.128449323240776"><ele>195.0</ele><time>2026-04-27T08:43:49Z</time></trkpt><trkpt lat="45.93173360819617" lon="12.128544378078853"><ele>192.57142857142856</ele><time>2026-04-27T08:43:53Z</time></trkpt><trkpt lat="45.93170328648215" lon="12.1286357028956"><ele>190.14285714285714</ele><time>2026-04-27T08:43:57.999Z</time></trkpt><trkpt lat="45.931665563989355" lon="12.128723787863487"><ele>187.71428571428572</ele><time>2026-04-27T08:44:08.999Z</time></trkpt><trkpt lat="45.93163995987075" lon="12.12882893506562"><ele>185.28571428571428</ele><time>2026-04-27T08:44:14.999Z</time></trkpt><trkpt lat="45.93161787090394" lon="12.128913988468947"><ele>182.85714285714286</ele><time>2026-04-27T08:44:19.999Z</time></trkpt><trkpt lat="45.9316034210571" lon="12.129004508665544"><ele>180.42857142857142</ele><time>2026-04-27T08:44:23.999Z</time></trkpt><trkpt lat="45.9315993836209" lon="12.129107984848316"><ele>178.0</ele><time>2026-04-27T08:44:31.999Z</time></trkpt><trkpt lat="45.93157722231831" lon="12.129195480798735"><ele>178.0</ele><time>2026-04-27T08:44:39.999Z</time></trkpt><trkpt lat="45.9315826506548" lon="12.129093762846423"><ele>178.0</ele><time>2026-04-27T08:45:32Z</time></trkpt><trkpt lat="45.93160623237047" lon="12.12897578567314"><ele>178.0</ele><time>2026-04-27T08:45:34Z</time></trkpt><trkpt lat="45.93165623975474" lon="12.128841678011652"><ele>178.0</ele><time>2026-04-27T08:45:36Z</time></trkpt><trkpt lat="45.931697107702156" lon="12.128703880934228"><ele>178.0</ele><time>2026-04-27T08:45:38Z</time></trkpt><trkpt lat="45.93172430855104" lon="12.128604688113894"><ele>178.0</ele><time>2026-04-27T08:45:40Z</time></trkpt><trkpt lat="45.931743432593905" lon="12.128477663828457"><ele>179.4</ele><time>2026-04-27T08:45:42Z</time></trkpt><trkpt lat="45.9318043377071" lon="12.12834569056267"><ele>180.8</ele><time>2026-04-27T08:45:44Z</time></trkpt><trkpt lat="45.93185500671759" lon="12.128233802790533"><ele>182.2</ele><time>2026-04-27T08:45:46Z</time></trkpt><trkpt lat="45.93194223100784" lon="12.128147482509743"><ele>183.6</ele><time>2026-04-27T08:45:48Z</time></trkpt><trkpt lat="45.931989861660625" lon="12.128069187719973"><ele>185.0</ele><time>2026-04-27T08:45:50Z</time></trkpt><trkpt lat="45.93207118180562" lon="12.128045134264186"><ele>185.0</ele><time>2026-04-27T08:45:52Z</time></trkpt><trkpt lat="45.93219925313023" lon="12.128036468010276"><ele>185.0</ele><time>2026-04-27T08:45:54Z</time></trkpt><trkpt lat="45.93226874989103" lon="12.12801026995073"><ele>185.0</ele><time>2026-04-27T08:45:55Z</time></trkpt><trkpt lat="45.93233872974456" lon="12.127979445647862"><ele>185.0</ele><time>2026-04-27T08:45:56Z</time></trkpt><trkpt lat="45.93241604014801" lon="12.127955919093964"><ele>185.0</ele><time>2026-04-27T08:45:57Z</time></trkpt><trkpt lat="45.932487212904796" lon="12.12790187685473"><ele>185.0</ele><time>2026-04-27T08:45:58Z</time></trkpt><trkpt lat="45.932557888433145" lon="12.127841443762211"><ele>185.0</ele><time>2026-04-27T08:45:59Z</time></trkpt><trkpt lat="45.932625799930584" lon="12.127778983846673"><ele>185.0</ele><time>2026-04-27T08:45:59.999Z</time></trkpt><trkpt lat="45.932694013107294" lon="12.1277118338917"><ele>185.0</ele><time>2026-04-27T08:46:00.999Z</time></trkpt><trkpt lat="45.9327621911026" lon="12.127640633800592"><ele>185.0</ele><time>2026-04-27T08:46:01.999Z</time></trkpt><trkpt lat="45.93282457927647" lon="12.127572355913616"><ele>185.0</ele><time>2026-04-27T08:46:02.999Z</time></trkpt><trkpt lat="45.932878427565655" lon="12.127513424300458"><ele>185.0</ele><time>2026-04-27T08:46:03.999Z</time></trkpt><trkpt lat="45.93296798298217" lon="12.127476615290817"><ele>185.0</ele><time>2026-04-27T08:46:05.999Z</time></trkpt><trkpt lat="45.93299355442476" lon="12.127595959211535"><ele>185.0</ele><time>2026-04-27T08:46:06.999Z</time></trkpt><trkpt lat="45.933068162178586" lon="12.127729210490845"><ele>185.0</ele><time>2026-04-27T08:46:08.999Z</time></trkpt><trkpt lat="45.93311081073442" lon="12.127868612716394"><ele>185.0</ele><time>2026-04-27T08:46:10.999Z</time></trkpt><trkpt lat="45.93316990214113" lon="12.12799401420892"><ele>185.0</ele><time>2026-04-27T08:46:28.999Z</time></trkpt><trkpt lat="45.93322961919091" lon="12.128113753001537"><ele>184.6</ele><time>2026-04-27T08:46:30.999Z</time></trkpt><trkpt lat="45.933236109951146" lon="12.128245769679472"><ele>184.2</ele><time>2026-04-27T08:46:32.999Z</time></trkpt><trkpt lat="45.93320096943428" lon="12.128365023723408"><ele>183.8</ele><time>2026-04-27T08:46:34.999Z</time></trkpt><trkpt lat="45.9331332774107" lon="12.128430905832937"><ele>183.4</ele><time>2026-04-27T08:46:36.999Z</time></trkpt><trkpt lat="45.93305943061202" lon="12.128500416048032"><ele>183.0</ele><time>2026-04-27T08:47:04.999Z</time></trkpt><trkpt lat="45.93295384897971" lon="12.128588620979112"><ele>183.0</ele><time>2026-04-27T08:47:06.999Z</time></trkpt><trkpt lat="45.93289978948421" lon="12.128638308435557"><ele>183.0</ele><time>2026-04-27T08:47:08Z</time></trkpt><trkpt lat="45.93282031631634" lon="12.128740233245152"><ele>183.0</ele><time>2026-04-27T08:47:10Z</time></trkpt><trkpt lat="45.93275961621728" lon="12.128778309695232"><ele>183.0</ele><time>2026-04-27T08:47:12Z</time></trkpt><trkpt lat="45.9327147775786" lon="12.128673017518285"><ele>183.0</ele><time>2026-04-27T08:47:15Z</time></trkpt><trkpt lat="45.932676330969365" lon="12.128582777961224"><ele>183.0</ele><time>2026-04-27T08:47:27Z</time></trkpt><trkpt lat="45.932640612709626" lon="12.12849249905609"><ele>183.0</ele><time>2026-04-27T08:47:45Z</time></trkpt><trkpt lat="45.932583982599986" lon="12.128373760099636"><ele>183.0</ele><time>2026-04-27T08:47:58Z</time></trkpt><trkpt lat="45.93254563893614" lon="12.128293362561916"><ele>183.0</ele><time>2026-04-27T08:48:11.999Z</time></trkpt><trkpt lat="45.93250391953067" lon="12.128193296973599"><ele>183.0</ele><time>2026-04-27T08:48:27.999Z</time></trkpt><trkpt lat="45.93245667957273" lon="12.128070790986456"><ele>183.0</ele><time>2026-04-27T08:48:42.999Z</time></trkpt><trkpt lat="45.93248920778521" lon="12.12814929867584"><ele>183.0</ele><time>2026-04-27T08:49:14Z</time></trkpt><trkpt lat="45.9325323815213" lon="12.128253499472898"><ele>183.0</ele><time>2026-04-27T08:49:17Z</time></trkpt><trkpt lat="45.93257119095904" lon="12.128347167718179"><ele>183.0</ele><time>2026-04-27T08:49:31Z</time></trkpt><trkpt lat="45.93260546938657" lon="12.12842989946725"><ele>183.0</ele><time>2026-04-27T08:49:34Z</time></trkpt><trkpt lat="45.932645285315665" lon="12.128517443683773"><ele>183.0</ele><time>2026-04-27T08:49:50Z</time></trkpt><trkpt lat="45.93268172264153" lon="12.128596189692292"><ele>183.0</ele><time>2026-04-27T08:50:08Z</time></trkpt><trkpt lat="45.93271941344611" lon="12.128677642987968"><ele>183.0</ele><time>2026-04-27T08:50:09.999Z</time></trkpt><trkpt lat="45.93275576348259" lon="12.128756200424096"><ele>183.0</ele><time>2026-04-27T08:50:11.999Z</time></trkpt><trkpt lat="45.93285103788285" lon="12.12868342004118"><ele>183.0</ele><time>2026-04-27T08:50:15.999Z</time></trkpt><trkpt lat="45.93303159320717" lon="12.128576860224479"><ele>183.0</ele><time>2026-04-27T08:50:17.999Z</time></trkpt><trkpt lat="45.93310483156269" lon="12.128508647562494"><ele>183.0</ele><time>2026-04-27T08:50:18.999Z</time></trkpt><trkpt lat="45.93317621369302" lon="12.128436217000269"><ele>183.0</ele><time>2026-04-27T08:50:19.999Z</time></trkpt><trkpt lat="45.93322476595373" lon="12.128346635634948"><ele>183.0</ele><time>2026-04-27T08:50:20.999Z</time></trkpt><trkpt lat="45.93324860518943" lon="12.128246185503496"><ele>183.0</ele><time>2026-04-27T08:50:21.999Z</time></trkpt><trkpt lat="45.93324211917853" lon="12.12815369558058"><ele>183.0</ele><time>2026-04-27T08:50:22.999Z</time></trkpt><trkpt lat="45.93324654767199" lon="12.128051215338568"><ele>183.0</ele><time>2026-04-27T08:50:24.999Z</time></trkpt><trkpt lat="45.93332782003594" lon="12.128051470222038"><ele>183.0</ele><time>2026-04-27T08:50:27.999Z</time></trkpt><trkpt lat="45.9333763377372" lon="12.128112545231208"><ele>183.0</ele><time>2026-04-27T08:50:29.999Z</time></trkpt><trkpt lat="45.93339458521929" lon="12.12820531368066"><ele>183.0</ele><time>2026-04-27T08:50:31.999Z</time></trkpt><trkpt lat="45.93339340709786" lon="12.128323807099505"><ele>183.0</ele><time>2026-04-27T08:50:57.999Z</time></trkpt><trkpt lat="45.93338682270816" lon="12.128461149137348"><ele>183.0</ele><time>2026-04-27T08:51:13.999Z</time></trkpt><trkpt lat="45.93338151316878" lon="12.12859017970717"><ele>183.0</ele><time>2026-04-27T08:51:15.999Z</time></trkpt><trkpt lat="45.93337699898696" lon="12.128498921962688"><ele>183.0</ele><time>2026-04-27T08:51:51Z</time></trkpt><trkpt lat="45.93338596115122" lon="12.128408505005062"><ele>183.0</ele><time>2026-04-27T08:52:00Z</time></trkpt><trkpt lat="45.93339690837765" lon="12.128298062855855"><ele>183.0</ele><time>2026-04-27T08:52:03Z</time></trkpt><trkpt lat="45.93337793500312" lon="12.12820745115336"><ele>183.0</ele><time>2026-04-27T08:52:28.999Z</time></trkpt><trkpt lat="45.93335290111618" lon="12.128114162173983"><ele>183.0</ele><time>2026-04-27T08:53:03.999Z</time></trkpt><trkpt lat="45.93331796316171" lon="12.128011422934481"><ele>183.4</ele><time>2026-04-27T08:53:06.999Z</time></trkpt><trkpt lat="45.93327316079877" lon="12.12789802880869"><ele>183.8</ele><time>2026-04-27T08:53:09.999Z</time></trkpt><trkpt lat="45.933174031556334" lon="12.127718417630453"><ele>184.2</ele><time>2026-04-27T08:53:11.999Z</time></trkpt><trkpt lat="45.93306614754005" lon="12.12766529219736"><ele>184.6</ele><time>2026-04-27T08:53:13.999Z</time></trkpt><trkpt lat="45.93302943633197" lon="12.127570563249746"><ele>185.0</ele><time>2026-04-27T08:53:15.999Z</time></trkpt><trkpt lat="45.93298287360754" lon="12.127484003880806"><ele>186.33333333333331</ele><time>2026-04-27T08:53:17.999Z</time></trkpt><trkpt lat="45.93295578975539" lon="12.127367523956128"><ele>187.66666666666666</ele><time>2026-04-27T08:53:21.999Z</time></trkpt><trkpt lat="45.93306754404419" lon="12.127290541082075"><ele>189.0</ele><time>2026-04-27T08:53:23.999Z</time></trkpt><trkpt lat="45.93312418467544" lon="12.127249569683512"><ele>190.33333333333331</ele><time>2026-04-27T08:53:25Z</time></trkpt><trkpt lat="45.93320249407469" lon="12.127172697044127"><ele>191.66666666666666</ele><time>2026-04-27T08:53:27Z</time></trkpt><trkpt lat="45.93327089869098" lon="12.12711337856114"><ele>193.0</ele><time>2026-04-27T08:53:42Z</time></trkpt><trkpt lat="45.933325995956075" lon="12.1270614844551"><ele>191.83333333333331</ele><time>2026-04-27T08:53:44Z</time></trkpt><trkpt lat="45.93339115209491" lon="12.126995418026377"><ele>190.66666666666666</ele><time>2026-04-27T08:53:59Z</time></trkpt><trkpt lat="45.93348880061577" lon="12.126897801669337"><ele>189.5</ele><time>2026-04-27T08:54:01Z</time></trkpt><trkpt lat="45.93354757601843" lon="12.126844058348704"><ele>188.33333333333331</ele><time>2026-04-27T08:54:02Z</time></trkpt><trkpt lat="45.93361243066001" lon="12.126784942668467"><ele>187.16666666666666</ele><time>2026-04-27T08:54:03Z</time></trkpt><trkpt lat="45.93368463628387" lon="12.126720590636712"><ele>186.0</ele><time>2026-04-27T08:54:04Z</time></trkpt><trkpt lat="45.93375561612027" lon="12.12665866351309"><ele>186.0</ele><time>2026-04-27T08:54:05Z</time></trkpt><trkpt lat="45.93381590869508" lon="12.126607855974497"><ele>186.0</ele><time>2026-04-27T08:54:06Z</time></trkpt><trkpt lat="45.93389580797643" lon="12.126569682528157"><ele>186.0</ele><time>2026-04-27T08:54:07.999Z</time></trkpt><trkpt lat="45.934002024815456" lon="12.126801839989458"><ele>186.0</ele><time>2026-04-27T08:54:11.999Z</time></trkpt><trkpt lat="45.93403939388893" lon="12.12687469291398"><ele>186.0</ele><time>2026-04-27T08:54:12.999Z</time></trkpt><trkpt lat="45.934101678548146" lon="12.126988968961488"><ele>186.0</ele><time>2026-04-27T08:54:14.999Z</time></trkpt><trkpt lat="45.93407905564044" lon="12.12707885623437"><ele>186.0</ele><time>2026-04-27T08:54:17.999Z</time></trkpt><trkpt lat="45.93401252654953" lon="12.127122425631368"><ele>186.0</ele><time>2026-04-27T08:55:50Z</time></trkpt><trkpt lat="45.93408750591667" lon="12.127027173023125"><ele>186.0</ele><time>2026-04-27T08:56:04.999Z</time></trkpt><trkpt lat="45.93403607114255" lon="12.12686961652475"><ele>186.0</ele><time>2026-04-27T08:56:07.999Z</time></trkpt><trkpt lat="45.93396917379002" lon="12.126737034987537"><ele>186.0</ele><time>2026-04-27T08:56:09.999Z</time></trkpt><trkpt lat="45.933903307290386" lon="12.12661811933865"><ele>186.0</ele><time>2026-04-27T08:56:11.999Z</time></trkpt><trkpt lat="45.93389840040112" lon="12.12651532693431"><ele>186.0</ele><time>2026-04-27T08:56:16.999Z</time></trkpt><trkpt lat="45.933992004809724" lon="12.126464935820335"><ele>186.0</ele><time>2026-04-27T08:56:18.999Z</time></trkpt><trkpt lat="45.93405741741939" lon="12.126466536156538"><ele>186.0</ele><time>2026-04-27T08:56:19.999Z</time></trkpt><trkpt lat="45.934116543616376" lon="12.126411618896286"><ele>186.0</ele><time>2026-04-27T08:56:20.999Z</time></trkpt><trkpt lat="45.93419162824262" lon="12.126382779836216"><ele>187.16666666666666</ele><time>2026-04-27T08:56:21.999Z</time></trkpt><trkpt lat="45.934273289720274" lon="12.126358664101604"><ele>188.33333333333331</ele><time>2026-04-27T08:56:22.999Z</time></trkpt><trkpt lat="45.934358649795826" lon="12.126341576602044"><ele>189.5</ele><time>2026-04-27T08:56:23.999Z</time></trkpt><trkpt lat="45.934442577845296" lon="12.12633180705459"><ele>190.66666666666666</ele><time>2026-04-27T08:56:24.999Z</time></trkpt><trkpt lat="45.934530524527986" lon="12.126332121997992"><ele>191.83333333333331</ele><time>2026-04-27T08:56:25.999Z</time></trkpt><trkpt lat="45.93462086027853" lon="12.126337767564095"><ele>193.0</ele><time>2026-04-27T08:56:26.999Z</time></trkpt><trkpt lat="45.934713219924035" lon="12.126342843081408"><ele>193.0</ele><time>2026-04-27T08:56:27.999Z</time></trkpt><trkpt lat="45.93480615345525" lon="12.126347190433675"><ele>193.0</ele><time>2026-04-27T08:56:28.999Z</time></trkpt><trkpt lat="45.93490015341601" lon="12.126349166118743"><ele>193.0</ele><time>2026-04-27T08:56:29.999Z</time></trkpt><trkpt lat="45.93499576394379" lon="12.126348618163814"><ele>193.0</ele><time>2026-04-27T08:56:30.999Z</time></trkpt><trkpt lat="45.93509064082156" lon="12.126343423515818"><ele>193.0</ele><time>2026-04-27T08:56:31.999Z</time></trkpt><trkpt lat="45.9351858611226" lon="12.126333168121416"><ele>192.0</ele><time>2026-04-27T08:56:32.999Z</time></trkpt><trkpt lat="45.93527882960892" lon="12.126316256274796"><ele>191.0</ele><time>2026-04-27T08:56:33.999Z</time></trkpt><trkpt lat="45.935372237740054" lon="12.126278385004364"><ele>190.0</ele><time>2026-04-27T08:56:34.999Z</time></trkpt><trkpt lat="45.935467564317904" lon="12.126226376770777"><ele>189.0</ele><time>2026-04-27T08:56:35.999Z</time></trkpt><trkpt lat="45.93556440565446" lon="12.126171607466423"><ele>188.0</ele><time>2026-04-27T08:56:36.999Z</time></trkpt><trkpt lat="45.93566312301754" lon="12.126113896670242"><ele>188.0</ele><time>2026-04-27T08:56:37.999Z</time></trkpt><trkpt lat="45.93576343109296" lon="12.126058826219687"><ele>188.0</ele><time>2026-04-27T08:56:38.999Z</time></trkpt><trkpt lat="45.935860909169634" lon="12.126006514122365"><ele>188.0</ele><time>2026-04-27T08:56:39.999Z</time></trkpt><trkpt lat="45.93595597422922" lon="12.125954248906913"><ele>188.0</ele><time>2026-04-27T08:56:40.999Z</time></trkpt><trkpt lat="45.93604199445774" lon="12.125909395315285"><ele>188.0</ele><time>2026-04-27T08:56:41.999Z</time></trkpt><trkpt lat="45.93612612180237" lon="12.125881510346222"><ele>187.5</ele><time>2026-04-27T08:56:42.999Z</time></trkpt><trkpt lat="45.936211463334566" lon="12.125869473682815"><ele>187.0</ele><time>2026-04-27T08:56:43.999Z</time></trkpt><trkpt lat="45.93629679707393" lon="12.125871487544067"><ele>186.5</ele><time>2026-04-27T08:56:44.999Z</time></trkpt><trkpt lat="45.93637453576441" lon="12.125882903612254"><ele>186.0</ele><time>2026-04-27T08:56:45.999Z</time></trkpt><trkpt lat="45.9364488231131" lon="12.125892680573338"><ele>185.5</ele><time>2026-04-27T08:56:46.999Z</time></trkpt><trkpt lat="45.93652435126529" lon="12.125901947450911"><ele>185.0</ele><time>2026-04-27T08:56:47.999Z</time></trkpt><trkpt lat="45.9365915699485" lon="12.12591156124835"><ele>185.0</ele><time>2026-04-27T08:56:48.999Z</time></trkpt><trkpt lat="45.936656041552745" lon="12.125920630529308"><ele>185.0</ele><time>2026-04-27T08:56:50.999Z</time></trkpt><trkpt lat="45.9367408932441" lon="12.12593865039214"><ele>185.0</ele><time>2026-04-27T08:57:08.999Z</time></trkpt><trkpt lat="45.936856133446476" lon="12.125946978761512"><ele>185.0</ele><time>2026-04-27T08:57:10.999Z</time></trkpt><trkpt lat="45.93692356704748" lon="12.125952625500984"><ele>185.0</ele><time>2026-04-27T08:57:11.999Z</time></trkpt><trkpt lat="45.93699471486287" lon="12.125964362365671"><ele>185.0</ele><time>2026-04-27T08:57:12.999Z</time></trkpt><trkpt lat="45.93706647328168" lon="12.125974990597548"><ele>185.16666666666666</ele><time>2026-04-27T08:57:13.999Z</time></trkpt><trkpt lat="45.93716746370183" lon="12.125994237975029"><ele>185.33333333333331</ele><time>2026-04-27T08:57:15.999Z</time></trkpt><trkpt lat="45.937231230495904" lon="12.125997308953073"><ele>185.5</ele><time>2026-04-27T08:57:29.999Z</time></trkpt><trkpt lat="45.937337079160926" lon="12.12601232399985"><ele>185.66666666666666</ele><time>2026-04-27T08:57:31.999Z</time></trkpt><trkpt lat="45.93739684248637" lon="12.126041095141606"><ele>185.83333333333334</ele><time>2026-04-27T08:57:32.999Z</time></trkpt><trkpt lat="45.9374579699795" lon="12.126078472685553"><ele>186.0</ele><time>2026-04-27T08:57:33.999Z</time></trkpt><trkpt lat="45.937516074526975" lon="12.126126771642792"><ele>187.8</ele><time>2026-04-27T08:57:34.999Z</time></trkpt><trkpt lat="45.93761261999603" lon="12.126190300749244"><ele>189.60000000000002</ele><time>2026-04-27T08:57:36.999Z</time></trkpt><trkpt lat="45.93771056695313" lon="12.12623190991001"><ele>191.4</ele><time>2026-04-27T08:58:11.999Z</time></trkpt><trkpt lat="45.937826781820675" lon="12.126296909128113"><ele>193.2</ele><time>2026-04-27T08:58:13.999Z</time></trkpt><trkpt lat="45.93787603391351" lon="12.126363123390735"><ele>195.0</ele><time>2026-04-27T08:58:14.999Z</time></trkpt><trkpt lat="45.937910373301605" lon="12.126443879223727"><ele>192.6</ele><time>2026-04-27T08:58:15.999Z</time></trkpt><trkpt lat="45.937982573288444" lon="12.126590990373076"><ele>190.2</ele><time>2026-04-27T08:58:17.999Z</time></trkpt><trkpt lat="45.93802328763057" lon="12.126660402146173"><ele>187.8</ele><time>2026-04-27T08:58:18.999Z</time></trkpt><trkpt lat="45.93809485907092" lon="12.126747170651306"><ele>185.4</ele><time>2026-04-27T08:58:20.999Z</time></trkpt><trkpt lat="45.938156323496436" lon="12.126776189122669"><ele>183.0</ele><time>2026-04-27T08:58:34.999Z</time></trkpt><trkpt lat="45.93824660210565" lon="12.12685343653956"><ele>183.0</ele><time>2026-04-27T08:58:36.999Z</time></trkpt><trkpt lat="45.93829467117442" lon="12.126913940074665"><ele>183.0</ele><time>2026-04-27T08:58:37.999Z</time></trkpt><trkpt lat="45.93833343193788" lon="12.12698894882134"><ele>183.0</ele><time>2026-04-27T08:58:38.999Z</time></trkpt><trkpt lat="45.938395518543906" lon="12.127128595027399"><ele>183.0</ele><time>2026-04-27T08:58:40.999Z</time></trkpt><trkpt lat="45.93844766809674" lon="12.127229510708924"><ele>183.0</ele><time>2026-04-27T08:58:42.999Z</time></trkpt><trkpt lat="45.9385361110203" lon="12.127179735467939"><ele>183.0</ele><time>2026-04-27T08:58:45.999Z</time></trkpt><trkpt lat="45.938539790408484" lon="12.127072680091661"><ele>182.16666666666666</ele><time>2026-04-27T08:58:48.999Z</time></trkpt><trkpt lat="45.93850789312233" lon="12.126994183397885"><ele>181.33333333333334</ele><time>2026-04-27T08:59:16.999Z</time></trkpt><trkpt lat="45.93850918047769" lon="12.126871753317188"><ele>180.5</ele><time>2026-04-27T08:59:18.999Z</time></trkpt><trkpt lat="45.9385011195656" lon="12.126739692692635"><ele>179.66666666666669</ele><time>2026-04-27T08:59:20.999Z</time></trkpt><trkpt lat="45.93848401712196" lon="12.126603168048105"><ele>178.83333333333334</ele><time>2026-04-27T08:59:37.999Z</time></trkpt><trkpt lat="45.938499001786774" lon="12.12671155349588"><ele>178.0</ele><time>2026-04-27T08:59:56.999Z</time></trkpt><trkpt lat="45.938440095869936" lon="12.126752784311183"><ele>178.0</ele><time>2026-04-27T09:00:03.999Z</time></trkpt><trkpt lat="45.93836947272497" lon="12.12674590712285"><ele>178.0</ele><time>2026-04-27T09:00:05.999Z</time></trkpt><trkpt lat="45.93830642872584" lon="12.126742321614868"><ele>178.0</ele><time>2026-04-27T09:00:07.999Z</time></trkpt><trkpt lat="45.93831507574369" lon="12.126910265200566"><ele>178.0</ele><time>2026-04-27T09:00:12.999Z</time></trkpt><trkpt lat="45.938359826483186" lon="12.126981342000825"><ele>178.0</ele><time>2026-04-27T09:00:13.999Z</time></trkpt><trkpt lat="45.93839813594422" lon="12.127062319903347"><ele>178.0</ele><time>2026-04-27T09:00:14.999Z</time></trkpt><trkpt lat="45.93843602622777" lon="12.127158536268015"><ele>178.0</ele><time>2026-04-27T09:00:15.999Z</time></trkpt><trkpt lat="45.93846862225988" lon="12.127253629617988"><ele>178.0</ele><time>2026-04-27T09:00:16.999Z</time></trkpt><trkpt lat="45.938496801997964" lon="12.127343092472033"><ele>178.0</ele><time>2026-04-27T09:00:17.999Z</time></trkpt><trkpt lat="45.93851335309195" lon="12.127499860025795"><ele>178.0</ele><time>2026-04-27T09:00:19.999Z</time></trkpt><trkpt lat="45.93852787503159" lon="12.127614646094957"><ele>178.0</ele><time>2026-04-27T09:00:46.999Z</time></trkpt><trkpt lat="45.93851565826559" lon="12.127717394936884"><ele>178.0</ele><time>2026-04-27T09:00:48.999Z</time></trkpt><trkpt lat="45.93850723129671" lon="12.127910769682039"><ele>177.5</ele><time>2026-04-27T09:00:50.999Z</time></trkpt><trkpt lat="45.93851298306446" lon="12.128028043391417"><ele>177.0</ele><time>2026-04-27T09:00:51.999Z</time></trkpt><trkpt lat="45.93850895025483" lon="12.12814417060191"><ele>176.5</ele><time>2026-04-27T09:00:52.999Z</time></trkpt><trkpt lat="45.93850291924211" lon="12.128240064946704"><ele>176.0</ele><time>2026-04-27T09:00:53.999Z</time></trkpt><trkpt lat="45.93850990202653" lon="12.128375927213574"><ele>175.5</ele><time>2026-04-27T09:01:07.999Z</time></trkpt><trkpt lat="45.93853332444356" lon="12.128543444698433"><ele>175.0</ele><time>2026-04-27T09:01:09.999Z</time></trkpt><trkpt lat="45.93856565427834" lon="12.128661959443193"><ele>174.6</ele><time>2026-04-27T09:01:11.999Z</time></trkpt><trkpt lat="45.938619153709034" lon="12.128801113944993"><ele>174.2</ele><time>2026-04-27T09:01:13.999Z</time></trkpt><trkpt lat="45.938652165922804" lon="12.128897180752015"><ele>173.8</ele><time>2026-04-27T09:01:14.999Z</time></trkpt><trkpt lat="45.938695548924976" lon="12.129000524793181"><ele>173.4</ele><time>2026-04-27T09:01:15.999Z</time></trkpt><trkpt lat="45.93873698415728" lon="12.129120306582724"><ele>173.0</ele><time>2026-04-27T09:01:16.999Z</time></trkpt><trkpt lat="45.938787664706474" lon="12.12925275553088"><ele>172.8</ele><time>2026-04-27T09:01:17.999Z</time></trkpt><trkpt lat="45.93884567162669" lon="12.129389526310531"><ele>172.60000000000002</ele><time>2026-04-27T09:01:18.999Z</time></trkpt><trkpt lat="45.93890791842479" lon="12.129533001627854"><ele>172.39999999999998</ele><time>2026-04-27T09:01:19.999Z</time></trkpt><trkpt lat="45.938971530837826" lon="12.129674676447328"><ele>172.2</ele><time>2026-04-27T09:01:20.999Z</time></trkpt><trkpt lat="45.93902873689787" lon="12.129791256877922"><ele>172.0</ele><time>2026-04-27T09:01:21.999Z</time></trkpt><trkpt lat="45.93907870584126" lon="12.129881753216795"><ele>172.0</ele><time>2026-04-27T09:01:22.999Z</time></trkpt><trkpt lat="45.93915820469672" lon="12.129980050483104"><ele>172.0</ele><time>2026-04-27T09:01:24.999Z</time></trkpt><trkpt lat="45.93919862341333" lon="12.12988252219605"><ele>172.0</ele><time>2026-04-27T09:01:26.999Z</time></trkpt><trkpt lat="45.939231163554204" lon="12.1297966840942"><ele>172.0</ele><time>2026-04-27T09:01:28.999Z</time></trkpt><trkpt lat="45.93917045690404" lon="12.129758782717348"><ele>172.0</ele><time>2026-04-27T09:01:29.999Z</time></trkpt><trkpt lat="45.93909459643013" lon="12.12977370187465"><ele>172.0</ele><time>2026-04-27T09:01:31.999Z</time></trkpt><trkpt lat="45.93903856959895" lon="12.129726364763963"><ele>172.0</ele><time>2026-04-27T09:01:34.999Z</time></trkpt><trkpt lat="45.938957971061164" lon="12.12957514812792"><ele>172.0</ele><time>2026-04-27T09:01:36.999Z</time></trkpt><trkpt lat="45.938916634386" lon="12.129463336013172"><ele>172.0</ele><time>2026-04-27T09:01:37.999Z</time></trkpt><trkpt lat="45.938867425323956" lon="12.129342183742066"><ele>172.0</ele><time>2026-04-27T09:01:38.999Z</time></trkpt><trkpt lat="45.93881577696172" lon="12.129208617340373"><ele>172.0</ele><time>2026-04-27T09:01:39.999Z</time></trkpt><trkpt lat="45.93875752965767" lon="12.129059199310719"><ele>172.25</ele><time>2026-04-27T09:01:40.999Z</time></trkpt><trkpt lat="45.93869267711617" lon="12.128898305896614"><ele>172.5</ele><time>2026-04-27T09:01:41.999Z</time></trkpt><trkpt lat="45.938631358547035" lon="12.128733131141352"><ele>172.75</ele><time>2026-04-27T09:01:42.999Z</time></trkpt><trkpt lat="45.938584750140976" lon="12.12857609535369"><ele>173.0</ele><time>2026-04-27T09:01:43.999Z</time></trkpt><trkpt lat="45.938553441193065" lon="12.12841875631891"><ele>173.0</ele><time>2026-04-27T09:01:44.999Z</time></trkpt><trkpt lat="45.93854089905614" lon="12.12825704553528"><ele>173.0</ele><time>2026-04-27T09:01:45.999Z</time></trkpt><trkpt lat="45.93854114042698" lon="12.128111578183747"><ele>173.0</ele><time>2026-04-27T09:01:46.999Z</time></trkpt><trkpt lat="45.93854482721557" lon="12.128016847827602"><ele>173.0</ele><time>2026-04-27T09:01:48Z</time></trkpt><trkpt lat="45.93854899009892" lon="12.1278643206874"><ele>173.0</ele><time>2026-04-27T09:02:03.999Z</time></trkpt><trkpt lat="45.93855101295473" lon="12.127749233119548"><ele>173.4</ele><time>2026-04-27T09:02:05.999Z</time></trkpt><trkpt lat="45.938453243811935" lon="12.127772647510945"><ele>173.8</ele><time>2026-04-27T09:02:06.999Z</time></trkpt><trkpt lat="45.9383506230952" lon="12.127790931724416"><ele>174.2</ele><time>2026-04-27T09:02:08.999Z</time></trkpt><trkpt lat="45.938286946351575" lon="12.127809317927321"><ele>174.6</ele><time>2026-04-27T09:02:10.999Z</time></trkpt><trkpt lat="45.938186496974375" lon="12.127849395660533"><ele>175.0</ele><time>2026-04-27T09:03:24.999Z</time></trkpt><trkpt lat="45.938064354312324" lon="12.127867987243404"><ele>175.0</ele><time>2026-04-27T09:03:26.999Z</time></trkpt><trkpt lat="45.93800263471395" lon="12.127911182818302"><ele>175.0</ele><time>2026-04-27T09:03:27.999Z</time></trkpt><trkpt lat="45.937912044959795" lon="12.127960796550688"><ele>175.0</ele><time>2026-04-27T09:03:29.999Z</time></trkpt><trkpt lat="45.93791344338704" lon="12.128109290755013"><ele>175.0</ele><time>2026-04-27T09:03:31.999Z</time></trkpt><trkpt lat="45.937933257115965" lon="12.128195435538995"><ele>175.0</ele><time>2026-04-27T09:03:32.999Z</time></trkpt><trkpt lat="45.937946899779845" lon="12.128290450776978"><ele>175.0</ele><time>2026-04-27T09:03:33.999Z</time></trkpt><trkpt lat="45.937960130243475" lon="12.128394410245473"><ele>175.0</ele><time>2026-04-27T09:03:34.999Z</time></trkpt><trkpt lat="45.937973104021985" lon="12.128500860030629"><ele>175.0</ele><time>2026-04-27T09:03:35.999Z</time></trkpt><trkpt lat="45.937986842484236" lon="12.128599997701171"><ele>175.0</ele><time>2026-04-27T09:03:36.999Z</time></trkpt><trkpt lat="45.93798504775058" lon="12.128698437024438"><ele>175.0</ele><time>2026-04-27T09:03:37.999Z</time></trkpt><trkpt lat="45.93801165172082" lon="12.128850958476965"><ele>175.0</ele><time>2026-04-27T09:03:39.999Z</time></trkpt><trkpt lat="45.93792599963784" lon="12.128864077621008"><ele>175.0</ele><time>2026-04-27T09:03:41.999Z</time></trkpt><trkpt lat="45.93784300742178" lon="12.128894573546209"><ele>175.0</ele><time>2026-04-27T09:03:43.999Z</time></trkpt><trkpt lat="45.93775757293685" lon="12.128914589188772"><ele>175.0</ele><time>2026-04-27T09:03:58Z</time></trkpt><trkpt lat="45.93767625984378" lon="12.12894621718512"><ele>175.0</ele><time>2026-04-27T09:04:16Z</time></trkpt><trkpt lat="45.937608082344234" lon="12.128953861040193"><ele>175.0</ele><time>2026-04-27T09:04:18Z</time></trkpt><trkpt lat="45.937544369050265" lon="12.128950711344409"><ele>175.0</ele><time>2026-04-27T09:04:21Z</time></trkpt><trkpt lat="45.93763734352161" lon="12.128948020340339"><ele>175.0</ele><time>2026-04-27T09:05:56Z</time></trkpt><trkpt lat="45.93771862685248" lon="12.128924387357824"><ele>175.0</ele><time>2026-04-27T09:05:58Z</time></trkpt><trkpt lat="45.93780711693292" lon="12.128898658844781"><ele>175.0</ele><time>2026-04-27T09:06:00.001Z</time></trkpt><trkpt lat="45.937911689954404" lon="12.128868254142839"><ele>175.0</ele><time>2026-04-27T09:06:02.001Z</time></trkpt><trkpt lat="45.9379990903442" lon="12.12884280780199"><ele>175.0</ele><time>2026-04-27T09:06:04.001Z</time></trkpt><trkpt lat="45.937985555318775" lon="12.128526160147203"><ele>175.0</ele><time>2026-04-27T09:06:08.001Z</time></trkpt><trkpt lat="45.93797087425711" lon="12.128419093480385"><ele>175.0</ele><time>2026-04-27T09:06:09.001Z</time></trkpt><trkpt lat="45.937958097951125" lon="12.128305752499303"><ele>175.0</ele><time>2026-04-27T09:06:10.001Z</time></trkpt><trkpt lat="45.937949064701996" lon="12.128190331549993"><ele>175.0</ele><time>2026-04-27T09:06:11.001Z</time></trkpt><trkpt lat="45.9379430054311" lon="12.12809265410027"><ele>175.0</ele><time>2026-04-27T09:06:12.001Z</time></trkpt><trkpt lat="45.937939147826434" lon="12.127991677240239"><ele>175.0</ele><time>2026-04-27T09:06:14.001Z</time></trkpt><trkpt lat="45.937879745900005" lon="12.1279288019338"><ele>175.0</ele><time>2026-04-27T09:06:17Z</time></trkpt><trkpt lat="45.9377803098928" lon="12.127988392808243"><ele>175.2</ele><time>2026-04-27T09:06:36Z</time></trkpt><trkpt lat="45.93765742087355" lon="12.128006078412014"><ele>175.4</ele><time>2026-04-27T09:06:38Z</time></trkpt><trkpt lat="45.937592302145916" lon="12.128042121815055"><ele>175.60000000000002</ele><time>2026-04-27T09:07:08Z</time></trkpt><trkpt lat="45.93749042464008" lon="12.128058446512982"><ele>175.8</ele><time>2026-04-27T09:07:10Z</time></trkpt><trkpt lat="45.93738421034134" lon="12.12808695111573"><ele>176.0</ele><time>2026-04-27T09:07:12Z</time></trkpt><trkpt lat="45.937275245398986" lon="12.128130223797378"><ele>176.0</ele><time>2026-04-27T09:07:14Z</time></trkpt><trkpt lat="45.937159474664774" lon="12.128184203787077"><ele>176.0</ele><time>2026-04-27T09:07:16Z</time></trkpt><trkpt lat="45.937052012375545" lon="12.128197217471048"><ele>176.0</ele><time>2026-04-27T09:07:18Z</time></trkpt><trkpt lat="45.93698413122507" lon="12.12822011496086"><ele>176.0</ele><time>2026-04-27T09:07:20Z</time></trkpt><trkpt lat="45.936902325862505" lon="12.128247709304045"><ele>176.0</ele><time>2026-04-27T09:07:23Z</time></trkpt><trkpt lat="45.936835657639634" lon="12.128262820111148"><ele>175.83333333333331</ele><time>2026-04-27T09:07:41Z</time></trkpt><trkpt lat="45.93677095047158" lon="12.128274309865217"><ele>175.66666666666666</ele><time>2026-04-27T09:07:43Z</time></trkpt><trkpt lat="45.93669002470884" lon="12.12833536635614"><ele>175.5</ele><time>2026-04-27T09:07:58Z</time></trkpt><trkpt lat="45.93658880500653" lon="12.128353465263805"><ele>175.33333333333334</ele><time>2026-04-27T09:08:00Z</time></trkpt><trkpt lat="45.93652289576288" lon="12.128345535693425"><ele>175.16666666666669</ele><time>2026-04-27T09:08:02Z</time></trkpt><trkpt lat="45.936595856468486" lon="12.12836186506535"><ele>175.0</ele><time>2026-04-27T09:08:53Z</time></trkpt><trkpt lat="45.93669550458868" lon="12.12831871522747"><ele>175.0</ele><time>2026-04-27T09:08:55Z</time></trkpt><trkpt lat="45.93678339834719" lon="12.128347480859945"><ele>175.0</ele><time>2026-04-27T09:08:57Z</time></trkpt><trkpt lat="45.936879480692355" lon="12.128316511369624"><ele>175.0</ele><time>2026-04-27T09:09:15Z</time></trkpt><trkpt lat="45.93695270707478" lon="12.128301805084154"><ele>175.0</ele><time>2026-04-27T09:09:31Z</time></trkpt><trkpt lat="45.93702269789743" lon="12.128273300317039"><ele>175.0</ele><time>2026-04-27T09:09:33Z</time></trkpt><trkpt lat="45.937129286205185" lon="12.128233603865686"><ele>175.0</ele><time>2026-04-27T09:09:35Z</time></trkpt><trkpt lat="45.93723552139594" lon="12.128202720300626"><ele>175.16666666666669</ele><time>2026-04-27T09:09:37Z</time></trkpt><trkpt lat="45.937277552106195" lon="12.128049950645343"><ele>175.33333333333334</ele><time>2026-04-27T09:09:40Z</time></trkpt><trkpt lat="45.93724968571682" lon="12.127894673340236"><ele>175.5</ele><time>2026-04-27T09:09:42Z</time></trkpt><trkpt lat="45.937237537454" lon="12.127804086085124"><ele>175.66666666666666</ele><time>2026-04-27T09:09:43Z</time></trkpt><trkpt lat="45.93722216820773" lon="12.127697366964686"><ele>175.83333333333331</ele><time>2026-04-27T09:09:45Z</time></trkpt><trkpt lat="45.93720241844102" lon="12.12759957049427"><ele>176.0</ele><time>2026-04-27T09:10:08Z</time></trkpt><trkpt lat="45.9371837182105" lon="12.127478678545625"><ele>177.4</ele><time>2026-04-27T09:10:09.999Z</time></trkpt><trkpt lat="45.937151219560896" lon="12.127345400279374"><ele>178.8</ele><time>2026-04-27T09:10:27Z</time></trkpt><trkpt lat="45.93715411833693" lon="12.127252412034904"><ele>180.20000000000002</ele><time>2026-04-27T09:10:30Z</time></trkpt><trkpt lat="45.93720701160911" lon="12.127192315655856"><ele>181.60000000000002</ele><time>2026-04-27T09:10:32Z</time></trkpt><trkpt lat="45.93714964783055" lon="12.127249585956417"><ele>183.0</ele><time>2026-04-27T09:10:54Z</time></trkpt><trkpt lat="45.93731276226579" lon="12.12719814402945"><ele>183.0</ele><time>2026-04-27T09:11:04Z</time></trkpt><trkpt lat="45.93737918723446" lon="12.127176388458054"><ele>183.0</ele><time>2026-04-27T09:11:24Z</time></trkpt><trkpt lat="45.9374597802057" lon="12.127149992569285"><ele>183.0</ele><time>2026-04-27T09:11:26Z</time></trkpt><trkpt lat="45.93752718956804" lon="12.12715136139943"><ele>183.0</ele><time>2026-04-27T09:11:27Z</time></trkpt><trkpt lat="45.93760417887652" lon="12.127126620716934"><ele>183.0</ele><time>2026-04-27T09:11:28Z</time></trkpt><trkpt lat="45.937687574185674" lon="12.127075385290963"><ele>183.0</ele><time>2026-04-27T09:11:29Z</time></trkpt><trkpt lat="45.93778005512724" lon="12.127045095847116"><ele>183.0</ele><time>2026-04-27T09:11:30Z</time></trkpt><trkpt lat="45.93788020946806" lon="12.127009337341807"><ele>183.0</ele><time>2026-04-27T09:11:31Z</time></trkpt><trkpt lat="45.93797276759433" lon="12.126975943980543"><ele>183.0</ele><time>2026-04-27T09:11:32Z</time></trkpt><trkpt lat="45.93805246655778" lon="12.126947189877738"><ele>183.0</ele><time>2026-04-27T09:11:33Z</time></trkpt><trkpt lat="45.938122850737365" lon="12.126963071437537"><ele>183.0</ele><time>2026-04-27T09:11:34Z</time></trkpt><trkpt lat="45.93819465217444" lon="12.126912095079328"><ele>183.0</ele><time>2026-04-27T09:11:36Z</time></trkpt><trkpt lat="45.93814005779652" lon="12.126709006256597"><ele>183.0</ele><time>2026-04-27T09:11:43Z</time></trkpt><trkpt lat="45.938060669695375" lon="12.126575801810146"><ele>183.0</ele><time>2026-04-27T09:11:45Z</time></trkpt><trkpt lat="45.93802059065017" lon="12.12648680841912"><ele>183.0</ele><time>2026-04-27T09:11:46Z</time></trkpt><trkpt lat="45.93797755099131" lon="12.126404796191727"><ele>183.0</ele><time>2026-04-27T09:11:47Z</time></trkpt><trkpt lat="45.93791029726497" lon="12.126296993639908"><ele>183.0</ele><time>2026-04-27T09:11:49Z</time></trkpt><trkpt lat="45.937847736245736" lon="12.126250374328649"><ele>183.0</ele><time>2026-04-27T09:12:06Z</time></trkpt><trkpt lat="45.93775981236191" lon="12.126200645496672"><ele>183.5</ele><time>2026-04-27T09:12:08Z</time></trkpt><trkpt lat="45.93769702674638" lon="12.12618080846665"><ele>184.0</ele><time>2026-04-27T09:12:36Z</time></trkpt><trkpt lat="45.93761422603542" lon="12.126126002657458"><ele>184.5</ele><time>2026-04-27T09:12:38Z</time></trkpt><trkpt lat="45.937499244022064" lon="12.126053020096608"><ele>185.0</ele><time>2026-04-27T09:12:40Z</time></trkpt><trkpt lat="45.93743901674383" lon="12.126024204725184"><ele>185.5</ele><time>2026-04-27T09:12:41Z</time></trkpt><trkpt lat="45.93735782138526" lon="12.125958912050518"><ele>186.0</ele><time>2026-04-27T09:12:43Z</time></trkpt><trkpt lat="45.937393850548126" lon="12.125855263108136"><ele>186.0</ele><time>2026-04-27T09:12:46Z</time></trkpt><trkpt lat="45.93745942955738" lon="12.125750784321497"><ele>186.0</ele><time>2026-04-27T09:12:48Z</time></trkpt><trkpt lat="45.937513133435814" lon="12.125677017397948"><ele>186.0</ele><time>2026-04-27T09:12:50Z</time></trkpt><trkpt lat="45.937597686196504" lon="12.125612197934913"><ele>186.0</ele><time>2026-04-27T09:14:45Z</time></trkpt><trkpt lat="45.93767527544052" lon="12.125568308112074"><ele>186.0</ele><time>2026-04-27T09:14:47Z</time></trkpt><trkpt lat="45.93775813573818" lon="12.125510611339587"><ele>186.0</ele><time>2026-04-27T09:14:49Z</time></trkpt><trkpt lat="45.9377773811021" lon="12.125418683655932"><ele>190.4</ele><time>2026-04-27T09:15:05Z</time></trkpt><trkpt lat="45.93777419890651" lon="12.125296542796464"><ele>194.8</ele><time>2026-04-27T09:15:07Z</time></trkpt><trkpt lat="45.93784095203732" lon="12.12520714801324"><ele>199.20000000000002</ele><time>2026-04-27T09:15:09Z</time></trkpt><trkpt lat="45.937762989192876" lon="12.125361744180983"><ele>203.60000000000002</ele><time>2026-04-27T09:15:14Z</time></trkpt><trkpt lat="45.93778520673884" lon="12.12548437527591"><ele>208.0</ele><time>2026-04-27T09:15:18Z</time></trkpt><trkpt lat="45.937824611038934" lon="12.125615263115698"><ele>205.4</ele><time>2026-04-27T09:15:20Z</time></trkpt><trkpt lat="45.93787628874661" lon="12.125769498966372"><ele>202.8</ele><time>2026-04-27T09:15:22Z</time></trkpt><trkpt lat="45.93796853236765" lon="12.12586953630273"><ele>200.2</ele><time>2026-04-27T09:15:24Z</time></trkpt><trkpt lat="45.93807082344854" lon="12.12595389014342"><ele>197.6</ele><time>2026-04-27T09:15:26Z</time></trkpt><trkpt lat="45.93813441656373" lon="12.125981929117264"><ele>195.0</ele><time>2026-04-27T09:15:27Z</time></trkpt><trkpt lat="45.938229879589315" lon="12.12602678522804"><ele>195.0</ele><time>2026-04-27T09:15:29Z</time></trkpt><trkpt lat="45.938316010109155" lon="12.12606434320958"><ele>195.0</ele><time>2026-04-27T09:15:46Z</time></trkpt><trkpt lat="45.9383865823974" lon="12.126099488484595"><ele>195.0</ele><time>2026-04-27T09:15:48Z</time></trkpt><trkpt lat="45.93846115876384" lon="12.126121626818742"><ele>195.0</ele><time>2026-04-27T09:16:18Z</time></trkpt><trkpt lat="45.93855469111071" lon="12.126179488741448"><ele>195.0</ele><time>2026-04-27T09:16:20Z</time></trkpt><trkpt lat="45.93862780537106" lon="12.126117148491565"><ele>195.0</ele><time>2026-04-27T09:16:21Z</time></trkpt><trkpt lat="45.93869422677475" lon="12.126100895344043"><ele>194.6</ele><time>2026-04-27T09:16:22Z</time></trkpt><trkpt lat="45.9387693140329" lon="12.126087884077752"><ele>194.2</ele><time>2026-04-27T09:16:23Z</time></trkpt><trkpt lat="45.93885302383143" lon="12.126079779438156"><ele>193.8</ele><time>2026-04-27T09:16:24Z</time></trkpt><trkpt lat="45.9389449982674" lon="12.12606956092401"><ele>193.4</ele><time>2026-04-27T09:16:24.999Z</time></trkpt><trkpt lat="45.939042495855205" lon="12.126055489737178"><ele>193.0</ele><time>2026-04-27T09:16:25.999Z</time></trkpt><trkpt lat="45.939145022243835" lon="12.126045057409629"><ele>190.75</ele><time>2026-04-27T09:16:26.999Z</time></trkpt><trkpt lat="45.93924918292325" lon="12.126030447878877"><ele>188.5</ele><time>2026-04-27T09:16:27.999Z</time></trkpt><trkpt lat="45.93935940798824" lon="12.12599274759042"><ele>186.25</ele><time>2026-04-27T09:16:29Z</time></trkpt><trkpt lat="45.939470421783895" lon="12.125938099182097"><ele>184.0</ele><time>2026-04-27T09:16:30Z</time></trkpt><trkpt lat="45.93958160858562" lon="12.125868302007259"><ele>184.0</ele><time>2026-04-27T09:16:31Z</time></trkpt><trkpt lat="45.93969630211401" lon="12.125799193709973"><ele>184.0</ele><time>2026-04-27T09:16:32Z</time></trkpt><trkpt lat="45.93981709332625" lon="12.125744946244616"><ele>184.0</ele><time>2026-04-27T09:16:33Z</time></trkpt><trkpt lat="45.939940071933876" lon="12.125711442281496"><ele>184.0</ele><time>2026-04-27T09:16:34Z</time></trkpt><trkpt lat="45.940063277864596" lon="12.125695827399797"><ele>183.0</ele><time>2026-04-27T09:16:35Z</time></trkpt><trkpt lat="45.94018446475737" lon="12.125700103602636"><ele>182.0</ele><time>2026-04-27T09:16:36Z</time></trkpt><trkpt lat="45.94030026532478" lon="12.125739066475127"><ele>181.0</ele><time>2026-04-27T09:16:37Z</time></trkpt><trkpt lat="45.940410422874166" lon="12.125806946704564"><ele>180.0</ele><time>2026-04-27T09:16:38Z</time></trkpt><trkpt lat="45.94051726872464" lon="12.125883370506397"><ele>180.0</ele><time>2026-04-27T09:16:39Z</time></trkpt><trkpt lat="45.940623129776704" lon="12.125930162511645"><ele>180.0</ele><time>2026-04-27T09:16:40Z</time></trkpt><trkpt lat="45.940728468567144" lon="12.125942500764927"><ele>180.0</ele><time>2026-04-27T09:16:41Z</time></trkpt><trkpt lat="45.94083444192421" lon="12.125908825992772"><ele>180.0</ele><time>2026-04-27T09:16:42Z</time></trkpt><trkpt lat="45.940937826391085" lon="12.125868148956311"><ele>180.0</ele><time>2026-04-27T09:16:43Z</time></trkpt><trkpt lat="45.94104176048175" lon="12.125828586394064"><ele>179.8</ele><time>2026-04-27T09:16:44Z</time></trkpt><trkpt lat="45.94114356231101" lon="12.125786268948858"><ele>179.6</ele><time>2026-04-27T09:16:45Z</time></trkpt><trkpt lat="45.94124612517444" lon="12.125740155002216"><ele>179.39999999999998</ele><time>2026-04-27T09:16:46Z</time></trkpt><trkpt lat="45.941346185669516" lon="12.125687479624908"><ele>179.2</ele><time>2026-04-27T09:16:47Z</time></trkpt><trkpt lat="45.94144385209972" lon="12.125632656243525"><ele>179.0</ele><time>2026-04-27T09:16:48Z</time></trkpt><trkpt lat="45.941538615469256" lon="12.12558074873145"><ele>180.2</ele><time>2026-04-27T09:16:49Z</time></trkpt><trkpt lat="45.94162332848407" lon="12.125531656354523"><ele>181.39999999999998</ele><time>2026-04-27T09:16:50Z</time></trkpt><trkpt lat="45.9416938419724" lon="12.125490427584923"><ele>182.6</ele><time>2026-04-27T09:16:51Z</time></trkpt><trkpt lat="45.94180204160228" lon="12.125454523708779"><ele>183.8</ele><time>2026-04-27T09:16:53Z</time></trkpt><trkpt lat="45.94188681174102" lon="12.125504957404617"><ele>185.0</ele><time>2026-04-27T09:16:55Z</time></trkpt><trkpt lat="45.94194619136033" lon="12.125604768360924"><ele>185.0</ele><time>2026-04-27T09:16:57Z</time></trkpt><trkpt lat="45.942018575001086" lon="12.125586816235012"><ele>185.0</ele><time>2026-04-27T09:17:00Z</time></trkpt><trkpt lat="45.94210433963615" lon="12.125534039361554"><ele>185.0</ele><time>2026-04-27T09:17:03Z</time></trkpt><trkpt lat="45.94219430377206" lon="12.125464305480637"><ele>185.0</ele><time>2026-04-27T09:17:05Z</time></trkpt><trkpt lat="45.94228545857642" lon="12.125412019519686"><ele>185.0</ele><time>2026-04-27T09:17:07Z</time></trkpt><trkpt lat="45.94237798544239" lon="12.12535509538242"><ele>185.0</ele><time>2026-04-27T09:17:09Z</time></trkpt><trkpt lat="45.942476508148886" lon="12.125294131271788"><ele>185.0</ele><time>2026-04-27T09:17:11Z</time></trkpt><trkpt lat="45.94258466879775" lon="12.125230862623392"><ele>185.0</ele><time>2026-04-27T09:17:13Z</time></trkpt><trkpt lat="45.942688256609124" lon="12.125174453849489"><ele>185.0</ele><time>2026-04-27T09:17:15Z</time></trkpt><trkpt lat="45.94275701361694" lon="12.125138544707076"><ele>185.0</ele><time>2026-04-27T09:17:17Z</time></trkpt><trkpt lat="45.942820189348495" lon="12.12509782441568"><ele>185.0</ele><time>2026-04-27T09:17:20Z</time></trkpt><trkpt lat="45.942743902056975" lon="12.125109582383788"><ele>185.0</ele><time>2026-04-27T09:17:42Z</time></trkpt><trkpt lat="45.942673628012216" lon="12.125170686729046"><ele>185.0</ele><time>2026-04-27T09:17:44Z</time></trkpt><trkpt lat="45.942594001127866" lon="12.125216607447303"><ele>185.0</ele><time>2026-04-27T09:17:46Z</time></trkpt><trkpt lat="45.94250108078649" lon="12.12524711900633"><ele>185.0</ele><time>2026-04-27T09:17:48Z</time></trkpt><trkpt lat="45.94242001604485" lon="12.125294345650161"><ele>185.0</ele><time>2026-04-27T09:17:50Z</time></trkpt><trkpt lat="45.94233562453017" lon="12.125341160043293"><ele>185.0</ele><time>2026-04-27T09:17:52Z</time></trkpt><trkpt lat="45.94224745476243" lon="12.12539822189404"><ele>185.0</ele><time>2026-04-27T09:17:54Z</time></trkpt><trkpt lat="45.942160530057656" lon="12.125453524421268"><ele>185.0</ele><time>2026-04-27T09:17:56Z</time></trkpt><trkpt lat="45.94207354413599" lon="12.125510586182946"><ele>185.0</ele><time>2026-04-27T09:17:58Z</time></trkpt><trkpt lat="45.94199006966541" lon="12.125552391901996"><ele>185.0</ele><time>2026-04-27T09:18:00Z</time></trkpt><trkpt lat="45.94191169065343" lon="12.125530400732128"><ele>185.0</ele><time>2026-04-27T09:18:02Z</time></trkpt><trkpt lat="45.94182930189192" lon="12.125449820459385"><ele>185.0</ele><time>2026-04-27T09:18:04Z</time></trkpt><trkpt lat="45.94171330970795" lon="12.125454483048753"><ele>185.0</ele><time>2026-04-27T09:18:06Z</time></trkpt><trkpt lat="45.941648834780544" lon="12.125484738690242"><ele>185.0</ele><time>2026-04-27T09:18:07Z</time></trkpt><trkpt lat="45.94157815198623" lon="12.125519950672278"><ele>185.0</ele><time>2026-04-27T09:18:08Z</time></trkpt><trkpt lat="45.94149066325164" lon="12.125564244136246"><ele>186.0</ele><time>2026-04-27T09:18:09Z</time></trkpt><trkpt lat="45.94139638284296" lon="12.12561471407245"><ele>187.0</ele><time>2026-04-27T09:18:10Z</time></trkpt><trkpt lat="45.941302352719966" lon="12.125668451698196"><ele>188.0</ele><time>2026-04-27T09:18:11Z</time></trkpt><trkpt lat="45.94121000683682" lon="12.125720799220796"><ele>189.0</ele><time>2026-04-27T09:18:12Z</time></trkpt><trkpt lat="45.94111726265618" lon="12.125763421239487"><ele>190.0</ele><time>2026-04-27T09:18:13Z</time></trkpt><trkpt lat="45.94102298914172" lon="12.12580084125056"><ele>188.0</ele><time>2026-04-27T09:18:14Z</time></trkpt><trkpt lat="45.940929336352085" lon="12.12583821351285"><ele>186.0</ele><time>2026-04-27T09:18:15Z</time></trkpt><trkpt lat="45.94083526017905" lon="12.125873469372486"><ele>184.0</ele><time>2026-04-27T09:18:16Z</time></trkpt><trkpt lat="45.94074753934017" lon="12.125896667624191"><ele>182.0</ele><time>2026-04-27T09:18:17Z</time></trkpt><trkpt lat="45.94065686975076" lon="12.12589779154843"><ele>180.0</ele><time>2026-04-27T09:18:18Z</time></trkpt><trkpt lat="45.9405656848002" lon="12.125871955486998"><ele>180.0</ele><time>2026-04-27T09:18:19Z</time></trkpt><trkpt lat="45.94047148882308" lon="12.125819863746141"><ele>180.0</ele><time>2026-04-27T09:18:20Z</time></trkpt><trkpt lat="45.94038374961704" lon="12.12575682297626"><ele>180.0</ele><time>2026-04-27T09:18:21Z</time></trkpt><trkpt lat="45.94029414902107" lon="12.125701002898163"><ele>180.0</ele><time>2026-04-27T09:18:22Z</time></trkpt><trkpt lat="45.94019600122205" lon="12.12564605012503"><ele>180.0</ele><time>2026-04-27T09:18:23Z</time></trkpt><trkpt lat="45.94008425585328" lon="12.125633859199517"><ele>181.0</ele><time>2026-04-27T09:18:24Z</time></trkpt><trkpt lat="45.93996691165135" lon="12.125645968666603"><ele>182.0</ele><time>2026-04-27T09:18:25Z</time></trkpt><trkpt lat="45.93984613230761" lon="12.125670630833397"><ele>183.0</ele><time>2026-04-27T09:18:26Z</time></trkpt><trkpt lat="45.93972458691725" lon="12.125719732277224"><ele>184.0</ele><time>2026-04-27T09:18:27Z</time></trkpt><trkpt lat="45.93960670946775" lon="12.125787025264481"><ele>184.0</ele><time>2026-04-27T09:18:27.999Z</time></trkpt><trkpt lat="45.939494117060825" lon="12.125856783782535"><ele>184.0</ele><time>2026-04-27T09:18:28.999Z</time></trkpt><trkpt lat="45.939388211853306" lon="12.125914178192991"><ele>184.0</ele><time>2026-04-27T09:18:29.999Z</time></trkpt><trkpt lat="45.93928209616428" lon="12.125954262587747"><ele>184.0</ele><time>2026-04-27T09:18:30.999Z</time></trkpt><trkpt lat="45.939175824102236" lon="12.12598550986325"><ele>185.79999999999998</ele><time>2026-04-27T09:18:31.999Z</time></trkpt><trkpt lat="45.939067857989926" lon="12.126007729672239"><ele>187.6</ele><time>2026-04-27T09:18:32.999Z</time></trkpt><trkpt lat="45.93896080911199" lon="12.12602581809227"><ele>189.4</ele><time>2026-04-27T09:18:33.999Z</time></trkpt><trkpt lat="45.93885915858305" lon="12.126042477499569"><ele>191.2</ele><time>2026-04-27T09:18:35Z</time></trkpt><trkpt lat="45.93876689163459" lon="12.126051804603652"><ele>193.0</ele><time>2026-04-27T09:18:36Z</time></trkpt><trkpt lat="45.93868613815988" lon="12.12606274841795"><ele>192.99999999999997</ele><time>2026-04-27T09:18:37Z</time></trkpt><trkpt lat="45.93862286979589" lon="12.12607829777971"><ele>193.0</ele><time>2026-04-27T09:18:38Z</time></trkpt><trkpt lat="45.93854409667171" lon="12.126122934832752"><ele>193.0</ele><time>2026-04-27T09:18:40Z</time></trkpt><trkpt lat="45.93848261922961" lon="12.126182982255854"><ele>193.0</ele><time>2026-04-27T09:18:45Z</time></trkpt><trkpt lat="45.93847668585613" lon="12.126323343151407"><ele>192.99999999999997</ele><time>2026-04-27T09:18:47Z</time></trkpt><trkpt lat="45.93845082149907" lon="12.126476946329907"><ele>193.0</ele><time>2026-04-27T09:18:49Z</time></trkpt><trkpt lat="45.9384559822272" lon="12.126568597614096"><ele>191.0</ele><time>2026-04-27T09:18:50Z</time></trkpt><trkpt lat="45.93848642789033" lon="12.126702399201104"><ele>189.0</ele><time>2026-04-27T09:18:52Z</time></trkpt><trkpt lat="45.93839165000644" lon="12.126773976886541"><ele>187.0</ele><time>2026-04-27T09:18:54Z</time></trkpt><trkpt lat="45.93828365303109" lon="12.12674346380968"><ele>185.0</ele><time>2026-04-27T09:18:56Z</time></trkpt><trkpt lat="45.93821980798988" lon="12.126798561724895"><ele>183.0</ele><time>2026-04-27T09:18:59Z</time></trkpt><trkpt lat="45.9381594440955" lon="12.12670052410599"><ele>183.0</ele><time>2026-04-27T09:19:00Z</time></trkpt><trkpt lat="45.93807897191143" lon="12.126616945421103"><ele>183.0</ele><time>2026-04-27T09:19:02Z</time></trkpt><trkpt lat="45.938023841180666" lon="12.126541189166053"><ele>183.0</ele><time>2026-04-27T09:19:03Z</time></trkpt><trkpt lat="45.93797440788948" lon="12.126432689869558"><ele>183.0</ele><time>2026-04-27T09:19:04Z</time></trkpt><trkpt lat="45.937918377200646" lon="12.126329301036787"><ele>183.0</ele><time>2026-04-27T09:19:05Z</time></trkpt><trkpt lat="45.93784149881865" lon="12.126249570381733"><ele>183.5</ele><time>2026-04-27T09:19:06Z</time></trkpt><trkpt lat="45.937755060252115" lon="12.126199041480698"><ele>184.0</ele><time>2026-04-27T09:19:07Z</time></trkpt><trkpt lat="45.937682200935335" lon="12.126162415744249"><ele>184.5</ele><time>2026-04-27T09:19:08Z</time></trkpt><trkpt lat="45.93761608322718" lon="12.126116325367148"><ele>185.0</ele><time>2026-04-27T09:19:09Z</time></trkpt><trkpt lat="45.937551807739716" lon="12.126070110695098"><ele>185.5</ele><time>2026-04-27T09:19:10Z</time></trkpt><trkpt lat="45.93748253403671" lon="12.126027403036906"><ele>186.0</ele><time>2026-04-27T09:19:11Z</time></trkpt><trkpt lat="45.93741078150524" lon="12.125982194926394"><ele>186.0</ele><time>2026-04-27T09:19:12Z</time></trkpt><trkpt lat="45.93733375654233" lon="12.125943768356253"><ele>186.0</ele><time>2026-04-27T09:19:13Z</time></trkpt><trkpt lat="45.93724792330066" lon="12.12592715717488"><ele>186.0</ele><time>2026-04-27T09:19:14Z</time></trkpt><trkpt lat="45.93716404432238" lon="12.125918573676332"><ele>186.0</ele><time>2026-04-27T09:19:15Z</time></trkpt><trkpt lat="45.93709431548663" lon="12.125913398425805"><ele>186.0</ele><time>2026-04-27T09:19:16Z</time></trkpt><trkpt lat="45.93702347537262" lon="12.12590462409132"><ele>186.0</ele><time>2026-04-27T09:19:18Z</time></trkpt><trkpt lat="45.93693910220487" lon="12.125883074914974"><ele>186.0</ele><time>2026-04-27T09:19:53Z</time></trkpt><trkpt lat="45.93683961598272" lon="12.125872263407999"><ele>186.0</ele><time>2026-04-27T09:19:55Z</time></trkpt><trkpt lat="45.936728295250276" lon="12.125861050458653"><ele>186.0</ele><time>2026-04-27T09:19:57Z</time></trkpt><trkpt lat="45.936600508367135" lon="12.125847116208204"><ele>186.0</ele><time>2026-04-27T09:19:59Z</time></trkpt><trkpt lat="45.93652883826057" lon="12.125837009481415"><ele>186.0</ele><time>2026-04-27T09:20:00Z</time></trkpt><trkpt lat="45.93645493515824" lon="12.125827097866926"><ele>185.83333333333334</ele><time>2026-04-27T09:20:01Z</time></trkpt><trkpt lat="45.93637568146924" lon="12.125818031450928"><ele>185.66666666666666</ele><time>2026-04-27T09:20:02Z</time></trkpt><trkpt lat="45.93629343218663" lon="12.125809655275361"><ele>185.5</ele><time>2026-04-27T09:20:03Z</time></trkpt><trkpt lat="45.93620844376143" lon="12.125805631498837"><ele>185.33333333333331</ele><time>2026-04-27T09:20:04Z</time></trkpt><trkpt lat="45.936119306187855" lon="12.12581942973793"><ele>185.16666666666666</ele><time>2026-04-27T09:20:05Z</time></trkpt><trkpt lat="45.93603204974932" lon="12.125850785129828"><ele>185.0</ele><time>2026-04-27T09:20:06Z</time></trkpt><trkpt lat="45.935947304156734" lon="12.12588938545039"><ele>185.5</ele><time>2026-04-27T09:20:07Z</time></trkpt><trkpt lat="45.93586594176877" lon="12.125937792776227"><ele>186.0</ele><time>2026-04-27T09:20:08Z</time></trkpt><trkpt lat="45.93578393813299" lon="12.125983491095752"><ele>186.5</ele><time>2026-04-27T09:20:09Z</time></trkpt><trkpt lat="45.93570437384967" lon="12.126030530250665"><ele>187.0</ele><time>2026-04-27T09:20:10Z</time></trkpt><trkpt lat="45.935626724523594" lon="12.126075745439255"><ele>187.5</ele><time>2026-04-27T09:20:11Z</time></trkpt><trkpt lat="45.93555145435835" lon="12.126119553323479"><ele>188.0</ele><time>2026-04-27T09:20:12Z</time></trkpt><trkpt lat="45.935477311556426" lon="12.126162312004482"><ele>188.0</ele><time>2026-04-27T09:20:13Z</time></trkpt><trkpt lat="45.93540550721972" lon="12.126202221694593"><ele>188.0</ele><time>2026-04-27T09:20:14Z</time></trkpt><trkpt lat="45.93533025304981" lon="12.126237376186571"><ele>188.0</ele><time>2026-04-27T09:20:15Z</time></trkpt><trkpt lat="45.935245192801744" lon="12.126261480643704"><ele>188.0</ele><time>2026-04-27T09:20:16Z</time></trkpt><trkpt lat="45.93515220713728" lon="12.126275892376828"><ele>188.0</ele><time>2026-04-27T09:20:17Z</time></trkpt><trkpt lat="45.93505539102692" lon="12.126287259980025"><ele>188.0</ele><time>2026-04-27T09:20:18Z</time></trkpt><trkpt lat="45.934956499352424" lon="12.126293048714702"><ele>188.83333333333331</ele><time>2026-04-27T09:20:19Z</time></trkpt><trkpt lat="45.93486528732821" lon="12.126291210888237"><ele>189.66666666666666</ele><time>2026-04-27T09:20:20Z</time></trkpt><trkpt lat="45.9347801614421" lon="12.12628714013061"><ele>190.5</ele><time>2026-04-27T09:20:21Z</time></trkpt><trkpt lat="45.934706335813324" lon="12.126285091835216"><ele>191.33333333333331</ele><time>2026-04-27T09:20:22Z</time></trkpt><trkpt lat="45.93463272821092" lon="12.12627968107891"><ele>192.16666666666666</ele><time>2026-04-27T09:20:24Z</time></trkpt><trkpt lat="45.934554633099324" lon="12.126271740316016"><ele>193.0</ele><time>2026-04-27T09:20:48Z</time></trkpt><trkpt lat="45.93446972836302" lon="12.126274132234517"><ele>192.99999999999997</ele><time>2026-04-27T09:20:50Z</time></trkpt><trkpt lat="45.93434579834676" lon="12.126289804379795"><ele>193.0</ele><time>2026-04-27T09:20:52Z</time></trkpt><trkpt lat="45.934276568902234" lon="12.126310217277956"><ele>193.0</ele><time>2026-04-27T09:20:53Z</time></trkpt><trkpt lat="45.93420181884725" lon="12.12633751698389"><ele>193.0</ele><time>2026-04-27T09:20:54Z</time></trkpt><trkpt lat="45.934121372107505" lon="12.126368166977107"><ele>192.99999999999997</ele><time>2026-04-27T09:20:55Z</time></trkpt><trkpt lat="45.93403647845108" lon="12.126407782278253"><ele>193.0</ele><time>2026-04-27T09:20:56Z</time></trkpt><trkpt lat="45.93394815957907" lon="12.126457820736487"><ele>191.60000000000002</ele><time>2026-04-27T09:20:57Z</time></trkpt><trkpt lat="45.93385955119308" lon="12.126518780896445"><ele>190.20000000000002</ele><time>2026-04-27T09:20:58Z</time></trkpt><trkpt lat="45.93376797816571" lon="12.126585753072376"><ele>188.8</ele><time>2026-04-27T09:20:59Z</time></trkpt><trkpt lat="45.933672666296" lon="12.126658675386217"><ele>187.4</ele><time>2026-04-27T09:21:00Z</time></trkpt><trkpt lat="45.93357511110854" lon="12.126743080945868"><ele>186.0</ele><time>2026-04-27T09:21:01Z</time></trkpt><trkpt lat="45.93347468525077" lon="12.126835285638602"><ele>187.75</ele><time>2026-04-27T09:21:02Z</time></trkpt><trkpt lat="45.933371937704365" lon="12.126931244220433"><ele>189.5</ele><time>2026-04-27T09:21:03Z</time></trkpt><trkpt lat="45.9332675664879" lon="12.127033122205463"><ele>191.25</ele><time>2026-04-27T09:21:04Z</time></trkpt><trkpt lat="45.93315920778451" lon="12.127137846141164"><ele>193.0</ele><time>2026-04-27T09:21:05Z</time></trkpt><trkpt lat="45.93305061314159" lon="12.12724769688403"><ele>193.0</ele><time>2026-04-27T09:21:06Z</time></trkpt><trkpt lat="45.93294628507785" lon="12.127363511786994"><ele>193.0</ele><time>2026-04-27T09:21:07Z</time></trkpt><trkpt lat="45.93284146094203" lon="12.12747818816422"><ele>193.0</ele><time>2026-04-27T09:21:08Z</time></trkpt><trkpt lat="45.93273786648857" lon="12.127590203596107"><ele>193.0</ele><time>2026-04-27T09:21:09Z</time></trkpt><trkpt lat="45.93263529728833" lon="12.12769975363731"><ele>193.5</ele><time>2026-04-27T09:21:10Z</time></trkpt><trkpt lat="45.93253107297016" lon="12.127803242699219"><ele>194.0</ele><time>2026-04-27T09:21:11Z</time></trkpt><trkpt lat="45.932418485743824" lon="12.127888281228355"><ele>194.5</ele><time>2026-04-27T09:21:12Z</time></trkpt><trkpt lat="45.93230109498433" lon="12.127953064620439"><ele>195.0</ele><time>2026-04-27T09:21:13Z</time></trkpt><trkpt lat="45.93217696498824" lon="12.127991837063238"><ele>195.0</ele><time>2026-04-27T09:21:14Z</time></trkpt><trkpt lat="45.93205477978296" lon="12.127992970391592"><ele>195.0</ele><time>2026-04-27T09:21:15Z</time></trkpt><trkpt lat="45.931939615727266" lon="12.127965354374826"><ele>195.0</ele><time>2026-04-27T09:21:16Z</time></trkpt><trkpt lat="45.93182800169628" lon="12.12788996299594"><ele>195.0</ele><time>2026-04-27T09:21:17Z</time></trkpt><trkpt lat="45.93172333993581" lon="12.127789256424434"><ele>193.75</ele><time>2026-04-27T09:21:18Z</time></trkpt><trkpt lat="45.93162973193251" lon="12.127662680801919"><ele>192.5</ele><time>2026-04-27T09:21:19Z</time></trkpt><trkpt lat="45.93153780224058" lon="12.127516595819138"><ele>191.25</ele><time>2026-04-27T09:21:20Z</time></trkpt><trkpt lat="45.93145149695119" lon="12.127355101351847"><ele>190.0</ele><time>2026-04-27T09:21:21Z</time></trkpt><trkpt lat="45.931372596477466" lon="12.127175675132843"><ele>194.33333333333334</ele><time>2026-04-27T09:21:22Z</time></trkpt><trkpt lat="45.93129488987134" lon="12.126987239060359"><ele>198.66666666666669</ele><time>2026-04-27T09:21:23Z</time></trkpt><trkpt lat="45.93121595916173" lon="12.126791538908007"><ele>203.0</ele><time>2026-04-27T09:21:24Z</time></trkpt><trkpt lat="45.93114271323277" lon="12.126592491139979"><ele>203.33333333333334</ele><time>2026-04-27T09:21:25Z</time></trkpt><trkpt lat="45.93108951285854" lon="12.126381534481311"><ele>203.66666666666669</ele><time>2026-04-27T09:21:26Z</time></trkpt><trkpt lat="45.93107542907838" lon="12.12615423397778"><ele>204.0</ele><time>2026-04-27T09:21:27Z</time></trkpt><trkpt lat="45.93106893727447" lon="12.125925560816272"><ele>201.33333333333331</ele><time>2026-04-27T09:21:28Z</time></trkpt><trkpt lat="45.93105440500332" lon="12.125695719455063"><ele>198.66666666666666</ele><time>2026-04-27T09:21:29Z</time></trkpt><trkpt lat="45.93102522556642" lon="12.125466012601334"><ele>196.0</ele><time>2026-04-27T09:21:30Z</time></trkpt><trkpt lat="45.93098993587696" lon="12.125239251128063"><ele>196.0</ele><time>2026-04-27T09:21:31Z</time></trkpt><trkpt lat="45.930947744522896" lon="12.125016104536195"><ele>196.0</ele><time>2026-04-27T09:21:32Z</time></trkpt><trkpt lat="45.930910284846355" lon="12.124809721052872"><ele>196.0</ele><time>2026-04-27T09:21:33Z</time></trkpt><trkpt lat="45.93087173766383" lon="12.124641033591434"><ele>196.0</ele><time>2026-04-27T09:21:34Z</time></trkpt><trkpt lat="45.93082136037909" lon="12.124520865960102"><ele>191.8</ele><time>2026-04-27T09:21:35Z</time></trkpt><trkpt lat="45.93077475409485" lon="12.124452330001775"><ele>187.60000000000002</ele><time>2026-04-27T09:21:36Z</time></trkpt><trkpt lat="45.93071851709202" lon="12.124372632992149"><ele>183.4</ele><time>2026-04-27T09:21:39Z</time></trkpt><trkpt lat="45.930734914608564" lon="12.124253859538571"><ele>179.2</ele><time>2026-04-27T09:21:40Z</time></trkpt><trkpt lat="45.93073761937315" lon="12.124060441232983"><ele>175.0</ele><time>2026-04-27T09:21:42Z</time></trkpt><trkpt lat="45.93073110200644" lon="12.123930768469055"><ele>175.0</ele><time>2026-04-27T09:21:43Z</time></trkpt><trkpt lat="45.93071559894982" lon="12.12378835800234"><ele>175.0</ele><time>2026-04-27T09:21:44Z</time></trkpt><trkpt lat="45.930692558526836" lon="12.123643968130166"><ele>175.0</ele><time>2026-04-27T09:21:45Z</time></trkpt><trkpt lat="45.93066518064815" lon="12.123490089608788"><ele>175.0</ele><time>2026-04-27T09:21:46Z</time></trkpt><trkpt lat="45.930635135843026" lon="12.123325750740811"><ele>175.0</ele><time>2026-04-27T09:21:47Z</time></trkpt><trkpt lat="45.93060271120004" lon="12.123152562098577"><ele>176.25</ele><time>2026-04-27T09:21:48Z</time></trkpt><trkpt lat="45.930571004231176" lon="12.122973766134676"><ele>177.5</ele><time>2026-04-27T09:21:49Z</time></trkpt><trkpt lat="45.9305385541636" lon="12.122787481251612"><ele>178.75</ele><time>2026-04-27T09:21:50Z</time></trkpt><trkpt lat="45.93050248014314" lon="12.122599123852845"><ele>180.0</ele><time>2026-04-27T09:21:51Z</time></trkpt><trkpt lat="45.93046335246356" lon="12.122405431678214"><ele>181.5</ele><time>2026-04-27T09:21:52Z</time></trkpt><trkpt lat="45.93042206119768" lon="12.122206573972472"><ele>183.0</ele><time>2026-04-27T09:21:53Z</time></trkpt><trkpt lat="45.930374855055305" lon="12.122006502102566"><ele>184.5</ele><time>2026-04-27T09:21:54Z</time></trkpt><trkpt lat="45.93032004003383" lon="12.121804564747706"><ele>186.0</ele><time>2026-04-27T09:21:55Z</time></trkpt><trkpt lat="45.93026056587987" lon="12.121599834070825"><ele>189.33333333333331</ele><time>2026-04-27T09:21:56Z</time></trkpt><trkpt lat="45.9301980144964" lon="12.121388756075909"><ele>192.66666666666666</ele><time>2026-04-27T09:21:57Z</time></trkpt><trkpt lat="45.93013455780433" lon="12.121173199529663"><ele>196.0</ele><time>2026-04-27T09:21:58Z</time></trkpt><trkpt lat="45.930072213620875" lon="12.120952433610832"><ele>194.66666666666666</ele><time>2026-04-27T09:21:59Z</time></trkpt><trkpt lat="45.93000711028606" lon="12.120726715444485"><ele>193.33333333333331</ele><time>2026-04-27T09:22:00Z</time></trkpt><trkpt lat="45.92993844355139" lon="12.120496631789965"><ele>192.0</ele><time>2026-04-27T09:22:01Z</time></trkpt><trkpt lat="45.92986862275968" lon="12.120258608512168"><ele>192.0</ele><time>2026-04-27T09:22:02Z</time></trkpt><trkpt lat="45.929797373173244" lon="12.120015484968613"><ele>192.0</ele><time>2026-04-27T09:22:03Z</time></trkpt><trkpt lat="45.92972255224128" lon="12.119766774057334"><ele>192.0</ele><time>2026-04-27T09:22:04Z</time></trkpt><trkpt lat="45.929646660065124" lon="12.119514590827363"><ele>194.66666666666669</ele><time>2026-04-27T09:22:05Z</time></trkpt><trkpt lat="45.92956898639503" lon="12.119258079651566"><ele>197.33333333333334</ele><time>2026-04-27T09:22:06Z</time></trkpt><trkpt lat="45.92948999740137" lon="12.118997575975389"><ele>200.0</ele><time>2026-04-27T09:22:07Z</time></trkpt><trkpt lat="45.929410703460604" lon="12.118732975932904"><ele>201.66666666666669</ele><time>2026-04-27T09:22:08Z</time></trkpt><trkpt lat="45.92933209440469" lon="12.118465493514117"><ele>203.33333333333331</ele><time>2026-04-27T09:22:09Z</time></trkpt><trkpt lat="45.929252488421376" lon="12.118195696061262"><ele>205.0</ele><time>2026-04-27T09:22:10Z</time></trkpt><trkpt lat="45.929172230839775" lon="12.117923792523573"><ele>200.33333333333331</ele><time>2026-04-27T09:22:11Z</time></trkpt><trkpt lat="45.9290908789677" lon="12.117650752837362"><ele>195.66666666666666</ele><time>2026-04-27T09:22:12Z</time></trkpt><trkpt lat="45.929007386660594" lon="12.117378694339237"><ele>191.0</ele><time>2026-04-27T09:22:13Z</time></trkpt><trkpt lat="45.92892488049735" lon="12.117103668148982"><ele>191.0</ele><time>2026-04-27T09:22:14Z</time></trkpt><trkpt lat="45.92885328569615" lon="12.116828470876527"><ele>191.0</ele><time>2026-04-27T09:22:15Z</time></trkpt><trkpt lat="45.928800651904595" lon="12.11654574124281"><ele>191.0</ele><time>2026-04-27T09:22:16Z</time></trkpt><trkpt lat="45.928762716339534" lon="12.11626565910203"><ele>192.0</ele><time>2026-04-27T09:22:17Z</time></trkpt><trkpt lat="45.92873579731181" lon="12.115990938011668"><ele>193.0</ele><time>2026-04-27T09:22:18Z</time></trkpt><trkpt lat="45.92872283419837" lon="12.11572422328775"><ele>194.0</ele><time>2026-04-27T09:22:19Z</time></trkpt><trkpt lat="45.92872096213579" lon="12.115464933861702"><ele>194.0</ele><time>2026-04-27T09:22:20Z</time></trkpt><trkpt lat="45.928729241263596" lon="12.115214008605557"><ele>194.0</ele><time>2026-04-27T09:22:21Z</time></trkpt><trkpt lat="45.928743873138096" lon="12.114969039702652"><ele>194.0</ele><time>2026-04-27T09:22:22Z</time></trkpt><trkpt lat="45.928769513989884" lon="12.114730136295853"><ele>194.0</ele><time>2026-04-27T09:22:23Z</time></trkpt><trkpt lat="45.92880316633972" lon="12.114497781622307"><ele>194.0</ele><time>2026-04-27T09:22:24Z</time></trkpt><trkpt lat="45.92883609881014" lon="12.114271254691145"><ele>194.0</ele><time>2026-04-27T09:22:24.999Z</time></trkpt><trkpt lat="45.92886847250777" lon="12.114047850053907"><ele>192.66666666666669</ele><time>2026-04-27T09:22:25.999Z</time></trkpt><trkpt lat="45.928899226815865" lon="12.113826182864141"><ele>191.33333333333334</ele><time>2026-04-27T09:22:26.999Z</time></trkpt><trkpt lat="45.928932301287155" lon="12.1136040274905"><ele>190.0</ele><time>2026-04-27T09:22:27.999Z</time></trkpt><trkpt lat="45.92896547755994" lon="12.11338103337559"><ele>189.66666666666669</ele><time>2026-04-27T09:22:28.999Z</time></trkpt><trkpt lat="45.928996822867184" lon="12.11315556483548"><ele>189.33333333333334</ele><time>2026-04-27T09:22:29.999Z</time></trkpt><trkpt lat="45.929027926764505" lon="12.112930349671856"><ele>189.0</ele><time>2026-04-27T09:22:30.999Z</time></trkpt><trkpt lat="45.929060418045765" lon="12.1127034932118"><ele>189.0</ele><time>2026-04-27T09:22:31.999Z</time></trkpt><trkpt lat="45.92909099649708" lon="12.112475315694628"><ele>189.0</ele><time>2026-04-27T09:22:32.999Z</time></trkpt><trkpt lat="45.92912228420069" lon="12.112247672827595"><ele>189.0</ele><time>2026-04-27T09:22:33.999Z</time></trkpt><trkpt lat="45.92915961016903" lon="12.112021899489708"><ele>189.66666666666666</ele><time>2026-04-27T09:22:34.999Z</time></trkpt><trkpt lat="45.92921268965901" lon="12.111803913221284"><ele>190.33333333333331</ele><time>2026-04-27T09:22:35.999Z</time></trkpt><trkpt lat="45.929279515384344" lon="12.111594147292664"><ele>191.0</ele><time>2026-04-27T09:22:36.999Z</time></trkpt><trkpt lat="45.92936102752974" lon="12.111395961546755"><ele>191.0</ele><time>2026-04-27T09:22:37.999Z</time></trkpt><trkpt lat="45.929457046417085" lon="12.1112151956838"><ele>191.0</ele><time>2026-04-27T09:22:38.999Z</time></trkpt><trkpt lat="45.92955706662271" lon="12.111041713895345"><ele>191.0</ele><time>2026-04-27T09:22:39.999Z</time></trkpt><trkpt lat="45.92964924233004" lon="12.110868282101206"><ele>192.75</ele><time>2026-04-27T09:22:40.999Z</time></trkpt><trkpt lat="45.92973457510358" lon="12.110696363057631"><ele>194.5</ele><time>2026-04-27T09:22:41.999Z</time></trkpt><trkpt lat="45.92980647700373" lon="12.110526017458954"><ele>196.25</ele><time>2026-04-27T09:22:42.999Z</time></trkpt><trkpt lat="45.92985851920162" lon="12.110351639886193"><ele>198.0</ele><time>2026-04-27T09:22:43.999Z</time></trkpt><trkpt lat="45.92989221678069" lon="12.110172421617934"><ele>198.0</ele><time>2026-04-27T09:22:44.999Z</time></trkpt><trkpt lat="45.92990739777343" lon="12.109988836595837"><ele>198.0</ele><time>2026-04-27T09:22:46Z</time></trkpt><trkpt lat="45.92991017187033" lon="12.109806878681944"><ele>198.0</ele><time>2026-04-27T09:22:47Z</time></trkpt><trkpt lat="45.92991200200868" lon="12.109631051117583"><ele>198.0</ele><time>2026-04-27T09:22:48Z</time></trkpt><trkpt lat="45.92991169781689" lon="12.109467124115305"><ele>198.8</ele><time>2026-04-27T09:22:49Z</time></trkpt><trkpt lat="45.929911140423464" lon="12.109314479705969"><ele>199.60000000000002</ele><time>2026-04-27T09:22:50Z</time></trkpt><trkpt lat="45.92992257868161" lon="12.109178759285637"><ele>200.39999999999998</ele><time>2026-04-27T09:22:51Z</time></trkpt><trkpt lat="45.929938495714765" lon="12.109051593439322"><ele>201.2</ele><time>2026-04-27T09:22:52Z</time></trkpt><trkpt lat="45.929953950053495" lon="12.108926328376457"><ele>202.0</ele><time>2026-04-27T09:22:53Z</time></trkpt><trkpt lat="45.929969432124985" lon="12.108798022677911"><ele>201.83333333333331</ele><time>2026-04-27T09:22:54Z</time></trkpt><trkpt lat="45.9299830132391" lon="12.108670676804714"><ele>201.66666666666666</ele><time>2026-04-27T09:22:55Z</time></trkpt><trkpt lat="45.929998179027116" lon="12.108540399911332"><ele>201.5</ele><time>2026-04-27T09:22:56Z</time></trkpt><trkpt lat="45.93001612169097" lon="12.108411760892485"><ele>201.33333333333331</ele><time>2026-04-27T09:22:57Z</time></trkpt><trkpt lat="45.93003694239346" lon="12.108290770908473"><ele>201.16666666666666</ele><time>2026-04-27T09:22:58Z</time></trkpt><trkpt lat="45.930058774390105" lon="12.108178885492324"><ele>201.0</ele><time>2026-04-27T09:22:59Z</time></trkpt><trkpt lat="45.930080412753675" lon="12.108069859002402"><ele>201.0</ele><time>2026-04-27T09:23:00Z</time></trkpt><trkpt lat="45.930100850850536" lon="12.107969454884984"><ele>201.0</ele><time>2026-04-27T09:23:01Z</time></trkpt><trkpt lat="45.930120220262054" lon="12.107874444634339"><ele>201.0</ele><time>2026-04-27T09:23:02Z</time></trkpt><trkpt lat="45.93014205922317" lon="12.1077793713533"><ele>201.0</ele><time>2026-04-27T09:23:03Z</time></trkpt><trkpt lat="45.930163231793244" lon="12.107687250368286"><ele>201.0</ele><time>2026-04-27T09:23:04Z</time></trkpt><trkpt lat="45.93018589961257" lon="12.10759685177442"><ele>201.0</ele><time>2026-04-27T09:23:05Z</time></trkpt><trkpt lat="45.93020988594108" lon="12.107508733140962"><ele>201.0</ele><time>2026-04-27T09:23:06Z</time></trkpt><trkpt lat="45.93023708635312" lon="12.107425707738084"><ele>201.20000000000002</ele><time>2026-04-27T09:23:07Z</time></trkpt><trkpt lat="45.93028514809796" lon="12.107285928625204"><ele>201.4</ele><time>2026-04-27T09:23:09Z</time></trkpt><trkpt lat="45.930333041774674" lon="12.107188589884725"><ele>201.6</ele><time>2026-04-27T09:23:28Z</time></trkpt><trkpt lat="45.930385702691424" lon="12.107060890660968"><ele>201.8</ele><time>2026-04-27T09:23:30Z</time></trkpt><trkpt lat="45.93043561310135" lon="12.10698209234678"><ele>202.0</ele><time>2026-04-27T09:23:32Z</time></trkpt><trkpt lat="45.930449738451294" lon="12.106858086345188"><ele>201.99999999999997</ele><time>2026-04-27T09:23:54Z</time></trkpt><trkpt lat="45.93051855980981" lon="12.106755245750167"><ele>202.0</ele><time>2026-04-27T09:23:56Z</time></trkpt><trkpt lat="45.93057183215303" lon="12.106670323294138"><ele>202.0</ele><time>2026-04-27T09:23:58Z</time></trkpt><trkpt lat="45.93061622240536" lon="12.10658649255045"><ele>202.0</ele><time>2026-04-27T09:24:01Z</time></trkpt><trkpt lat="45.93063820995294" lon="12.10647489326832"><ele>201.99999999999997</ele><time>2026-04-27T09:24:21Z</time></trkpt><trkpt lat="45.930707384574745" lon="12.106377990403217"><ele>202.0</ele><time>2026-04-27T09:24:23Z</time></trkpt><trkpt lat="45.9307811786122" lon="12.106247815842961"><ele>201.85714285714286</ele><time>2026-04-27T09:24:25Z</time></trkpt><trkpt lat="45.930823514051525" lon="12.106170387018317"><ele>201.71428571428572</ele><time>2026-04-27T09:24:26Z</time></trkpt><trkpt lat="45.93086658689002" lon="12.106088361944803"><ele>201.57142857142856</ele><time>2026-04-27T09:24:27Z</time></trkpt><trkpt lat="45.93091219119445" lon="12.106006067582662"><ele>201.42857142857144</ele><time>2026-04-27T09:24:28Z</time></trkpt><trkpt lat="45.93095660931695" lon="12.1059207105944"><ele>201.2857142857143</ele><time>2026-04-27T09:24:29Z</time></trkpt><trkpt lat="45.93100253245247" lon="12.10583731037984"><ele>201.14285714285714</ele><time>2026-04-27T09:24:30Z</time></trkpt><trkpt lat="45.93104887612269" lon="12.105754744542875"><ele>201.0</ele><time>2026-04-27T09:24:30.999Z</time></trkpt><trkpt lat="45.93109716633325" lon="12.105670761966842"><ele>201.33333333333334</ele><time>2026-04-27T09:24:31.999Z</time></trkpt><trkpt lat="45.93114590828841" lon="12.10558408893139"><ele>201.66666666666669</ele><time>2026-04-27T09:24:32.999Z</time></trkpt><trkpt lat="45.9311945216674" lon="12.105497927724048"><ele>202.0</ele><time>2026-04-27T09:24:33.999Z</time></trkpt><trkpt lat="45.93124220315318" lon="12.105412382068836"><ele>202.33333333333334</ele><time>2026-04-27T09:24:34.999Z</time></trkpt><trkpt lat="45.93128599102106" lon="12.1053323800598"><ele>202.66666666666669</ele><time>2026-04-27T09:24:35.999Z</time></trkpt><trkpt lat="45.9313253591714" lon="12.105259536281686"><ele>203.0</ele><time>2026-04-27T09:24:36.999Z</time></trkpt><trkpt lat="45.931382382983706" lon="12.105151294670167"><ele>203.0</ele><time>2026-04-27T09:24:38.999Z</time></trkpt><trkpt lat="45.93143140391889" lon="12.105078891777204"><ele>203.0</ele><time>2026-04-27T09:25:03Z</time></trkpt><trkpt lat="45.93149340035002" lon="12.104966368118696"><ele>203.0</ele><time>2026-04-27T09:25:06Z</time></trkpt><trkpt lat="45.93153917388812" lon="12.104883289036447"><ele>203.0</ele><time>2026-04-27T09:25:08Z</time></trkpt><trkpt lat="45.93159584056785" lon="12.104751556369026"><ele>203.0</ele><time>2026-04-27T09:25:10Z</time></trkpt><trkpt lat="45.93166591513744" lon="12.104617225582055"><ele>203.83333333333334</ele><time>2026-04-27T09:25:12Z</time></trkpt><trkpt lat="45.93172463734716" lon="12.10455409248228"><ele>204.66666666666669</ele><time>2026-04-27T09:25:14Z</time></trkpt><trkpt lat="45.93177153398677" lon="12.104448679704651"><ele>205.5</ele><time>2026-04-27T09:25:31Z</time></trkpt><trkpt lat="45.93184353273733" lon="12.104333095835818"><ele>206.33333333333331</ele><time>2026-04-27T09:25:33Z</time></trkpt><trkpt lat="45.9318842976617" lon="12.104261148981452"><ele>207.16666666666666</ele><time>2026-04-27T09:25:34Z</time></trkpt><trkpt lat="45.93192736433238" lon="12.10418202853855"><ele>208.0</ele><time>2026-04-27T09:25:35Z</time></trkpt><trkpt lat="45.93197478987747" lon="12.104098330770166"><ele>207.8</ele><time>2026-04-27T09:25:36Z</time></trkpt><trkpt lat="45.93202643951408" lon="12.104006793022117"><ele>207.60000000000002</ele><time>2026-04-27T09:25:37Z</time></trkpt><trkpt lat="45.932081604562015" lon="12.103910524218644"><ele>207.39999999999998</ele><time>2026-04-27T09:25:38Z</time></trkpt><trkpt lat="45.93214159355189" lon="12.103804991156265"><ele>207.2</ele><time>2026-04-27T09:25:39Z</time></trkpt><trkpt lat="45.93220551328411" lon="12.103695353978408"><ele>207.0</ele><time>2026-04-27T09:25:40Z</time></trkpt><trkpt lat="45.93227017615864" lon="12.10358429798633"><ele>207.0</ele><time>2026-04-27T09:25:41Z</time></trkpt><trkpt lat="45.93233535607076" lon="12.103476330144396"><ele>207.0</ele><time>2026-04-27T09:25:42Z</time></trkpt><trkpt lat="45.93239562405966" lon="12.103383193231"><ele>207.0</ele><time>2026-04-27T09:25:43Z</time></trkpt><trkpt lat="45.93244998769063" lon="12.103306369229893"><ele>207.0</ele><time>2026-04-27T09:25:44Z</time></trkpt><trkpt lat="45.932502192240314" lon="12.103237374246772"><ele>207.0</ele><time>2026-04-27T09:25:45Z</time></trkpt><trkpt lat="45.93255929247289" lon="12.103165572414289"><ele>207.0</ele><time>2026-04-27T09:25:46Z</time></trkpt><trkpt lat="45.932621751973464" lon="12.103088907395941"><ele>207.5</ele><time>2026-04-27T09:25:47Z</time></trkpt><trkpt lat="45.932687820550356" lon="12.103008680039038"><ele>208.0</ele><time>2026-04-27T09:25:48Z</time></trkpt><trkpt lat="45.93275662005987" lon="12.10292562667674"><ele>208.5</ele><time>2026-04-27T09:25:49Z</time></trkpt><trkpt lat="45.93282067245309" lon="12.102845227625433"><ele>209.0</ele><time>2026-04-27T09:25:50Z</time></trkpt><trkpt lat="45.93287178084134" lon="12.102782378111087"><ele>209.5</ele><time>2026-04-27T09:25:51Z</time></trkpt><trkpt lat="45.932922708966274" lon="12.102718969037857"><ele>210.0</ele><time>2026-04-27T09:26:09Z</time></trkpt><trkpt lat="45.93301213434184" lon="12.10259691195597"><ele>210.0</ele><time>2026-04-27T09:26:12Z</time></trkpt><trkpt lat="45.93307084877718" lon="12.102527193243304"><ele>210.0</ele><time>2026-04-27T09:26:13Z</time></trkpt><trkpt lat="45.93312491965185" lon="12.102458620038943"><ele>210.0</ele><time>2026-04-27T09:26:14Z</time></trkpt><trkpt lat="45.93317555442799" lon="12.102389717451839"><ele>210.0</ele><time>2026-04-27T09:26:16Z</time></trkpt><trkpt lat="45.93322933598399" lon="12.102314500863555"><ele>210.0</ele><time>2026-04-27T09:26:49.999Z</time></trkpt><trkpt lat="45.93329796857344" lon="12.10221212732589"><ele>210.0</ele><time>2026-04-27T09:26:51.999Z</time></trkpt><trkpt lat="45.93338983254074" lon="12.102092310790677"><ele>212.5</ele><time>2026-04-27T09:26:53.999Z</time></trkpt><trkpt lat="45.93343927618954" lon="12.102015271340047"><ele>215.0</ele><time>2026-04-27T09:26:54.999Z</time></trkpt><trkpt lat="45.9334902537838" lon="12.101927805572155"><ele>217.5</ele><time>2026-04-27T09:26:55.999Z</time></trkpt><trkpt lat="45.93354358129871" lon="12.10183284004917"><ele>220.0</ele><time>2026-04-27T09:26:56.999Z</time></trkpt><trkpt lat="45.93360043078545" lon="12.101717077328244"><ele>222.5</ele><time>2026-04-27T09:26:58Z</time></trkpt><trkpt lat="45.933652985833085" lon="12.1015988470923"><ele>225.0</ele><time>2026-04-27T09:26:59Z</time></trkpt><trkpt lat="45.933704876889024" lon="12.101471390459974"><ele>225.0</ele><time>2026-04-27T09:27:00Z</time></trkpt><trkpt lat="45.933757594340946" lon="12.101334453847825"><ele>225.0</ele><time>2026-04-27T09:27:01Z</time></trkpt><trkpt lat="45.93381198743879" lon="12.10119461680459"><ele>225.0</ele><time>2026-04-27T09:27:02Z</time></trkpt><trkpt lat="45.933867524068226" lon="12.101054141703925"><ele>225.0</ele><time>2026-04-27T09:27:03Z</time></trkpt><trkpt lat="45.93392211396699" lon="12.100909244392932"><ele>225.0</ele><time>2026-04-27T09:27:04Z</time></trkpt><trkpt lat="45.93397877675902" lon="12.100760195793995"><ele>224.0</ele><time>2026-04-27T09:27:05Z</time></trkpt><trkpt lat="45.93403689845843" lon="12.100608228414279"><ele>223.0</ele><time>2026-04-27T09:27:06Z</time></trkpt><trkpt lat="45.934097532846216" lon="12.10045239375942"><ele>222.0</ele><time>2026-04-27T09:27:07Z</time></trkpt><trkpt lat="45.93415727565056" lon="12.100293381393893"><ele>221.0</ele><time>2026-04-27T09:27:08Z</time></trkpt><trkpt lat="45.93421762465763" lon="12.100131974239677"><ele>222.75</ele><time>2026-04-27T09:27:09Z</time></trkpt><trkpt lat="45.93428093229985" lon="12.0999654407099"><ele>224.5</ele><time>2026-04-27T09:27:10Z</time></trkpt><trkpt lat="45.934347135094704" lon="12.099792834352948"><ele>226.25</ele><time>2026-04-27T09:27:11Z</time></trkpt><trkpt lat="45.934414304168534" lon="12.099614787958958"><ele>228.0</ele><time>2026-04-27T09:27:12Z</time></trkpt><trkpt lat="45.93448562346771" lon="12.099432257697963"><ele>228.0</ele><time>2026-04-27T09:27:13Z</time></trkpt><trkpt lat="45.934558114500874" lon="12.099249507825881"><ele>228.0</ele><time>2026-04-27T09:27:14Z</time></trkpt><trkpt lat="45.93464264059" lon="12.099076321504413"><ele>228.0</ele><time>2026-04-27T09:27:15Z</time></trkpt><trkpt lat="45.93474607171908" lon="12.098915116287557"><ele>228.0</ele><time>2026-04-27T09:27:16Z</time></trkpt><trkpt lat="45.93486030678319" lon="12.098766574382745"><ele>227.0</ele><time>2026-04-27T09:27:17Z</time></trkpt><trkpt lat="45.934979480143575" lon="12.098617796833347"><ele>226.0</ele><time>2026-04-27T09:27:18Z</time></trkpt><trkpt lat="45.935099565382416" lon="12.098463177801323"><ele>225.0</ele><time>2026-04-27T09:27:19Z</time></trkpt><trkpt lat="45.935221942064246" lon="12.098307022241759"><ele>244.0</ele><time>2026-04-27T09:27:20Z</time></trkpt><trkpt lat="45.93534316497784" lon="12.098141825003049"><ele>235.0</ele><time>2026-04-27T09:27:21Z</time></trkpt><trkpt lat="45.93546596078699" lon="12.097980162998091"><ele>235.0</ele><time>2026-04-27T09:27:22Z</time></trkpt></trkseg></trk></gpx>